<?xml version='1.0' encoding='UTF-8'?><gpx version="1.1" creator="JPX - https://github.com/jenetics/jpx" xmlns="http://www.topografix.com/GPX/1/1"><trk><trkseg><trkpt lat="40.87361841609963" lon="8.929867879802995"><ele>138.0</ele><time>2026-04-04T10:27:10.002Z</time></trkpt><trkpt lat="40.873582755020344" lon="8.929950737497716"><ele>138.0</ele><time>2026-04-04T10:27:11.002Z</time></trkpt><trkpt lat="40.87355380980114" lon="8.930049057847222"><ele>138.0</ele><time>2026-04-04T10:27:12.002Z</time></trkpt><trkpt lat="40.8735285208172" lon="8.93017909157107"><ele>138.0</ele><time>2026-04-04T10:27:13.002Z</time></trkpt><trkpt lat="40.87353003452135" lon="8.930275893977184"><ele>138.0</ele><time>2026-04-04T10:27:14.001Z</time></trkpt><trkpt lat="40.87354626778762" lon="8.930359909385647"><ele>138.0</ele><time>2026-04-04T10:27:15.001Z</time></trkpt><trkpt lat="40.87358523670307" lon="8.930460086488974"><ele>138.75</ele><time>2026-04-04T10:27:16.001Z</time></trkpt><trkpt lat="40.87364109691998" lon="8.930572575125375"><ele>139.5</ele><time>2026-04-04T10:27:17.001Z</time></trkpt><trkpt lat="40.87371684344525" lon="8.930722567203793"><ele>140.25</ele><time>2026-04-04T10:27:18.001Z</time></trkpt><trkpt lat="40.87379474077071" lon="8.93085616306424"><ele>141.0</ele><time>2026-04-04T10:27:19.001Z</time></trkpt><trkpt lat="40.873850136675316" lon="8.931002767678486"><ele>139.5</ele><time>2026-04-04T10:27:20.001Z</time></trkpt><trkpt lat="40.873890486812655" lon="8.931152703636577"><ele>138.0</ele><time>2026-04-04T10:27:21.001Z</time></trkpt><trkpt lat="40.87389861677657" lon="8.931326264745227"><ele>136.5</ele><time>2026-04-04T10:27:22.001Z</time></trkpt><trkpt lat="40.873932778711165" lon="8.931491649560297"><ele>135.0</ele><time>2026-04-04T10:27:23.001Z</time></trkpt><trkpt lat="40.8739498863993" lon="8.931652239981359"><ele>135.4</ele><time>2026-04-04T10:27:24.001Z</time></trkpt><trkpt lat="40.873982816346164" lon="8.931771546401373"><ele>135.8</ele><time>2026-04-04T10:27:25.001Z</time></trkpt><trkpt lat="40.87403755748776" lon="8.931862135221351"><ele>136.2</ele><time>2026-04-04T10:27:26.001Z</time></trkpt><trkpt lat="40.87411061433595" lon="8.931970481382669"><ele>136.6</ele><time>2026-04-04T10:27:27.001Z</time></trkpt><trkpt lat="40.87417090626698" lon="8.932088268844192"><ele>137.0</ele><time>2026-04-04T10:27:28.001Z</time></trkpt><trkpt lat="40.874243234237326" lon="8.93222266629943"><ele>137.0</ele><time>2026-04-04T10:27:29.001Z</time></trkpt><trkpt lat="40.874313814173675" lon="8.932341173959571"><ele>137.0</ele><time>2026-04-04T10:27:30.001Z</time></trkpt><trkpt lat="40.87437465130076" lon="8.932462011490589"><ele>137.0</ele><time>2026-04-04T10:27:32.001Z</time></trkpt><trkpt lat="40.87427778339021" lon="8.932482103651116"><ele>137.0</ele><time>2026-04-04T10:27:34.001Z</time></trkpt><trkpt lat="40.874164198938836" lon="8.932455416022107"><ele>137.0</ele><time>2026-04-04T10:27:36.001Z</time></trkpt><trkpt lat="40.87407812214941" lon="8.932471921996529"><ele>139.0</ele><time>2026-04-04T10:27:37.001Z</time></trkpt><trkpt lat="40.874013691467326" lon="8.932565975750421"><ele>141.0</ele><time>2026-04-04T10:27:38.001Z</time></trkpt><trkpt lat="40.8740510328283" lon="8.932699631398346"><ele>143.0</ele><time>2026-04-04T10:27:39.001Z</time></trkpt><trkpt lat="40.87409397142866" lon="8.932820557609775"><ele>145.0</ele><time>2026-04-04T10:27:40.001Z</time></trkpt><trkpt lat="40.87415932461055" lon="8.932946700610993"><ele>147.0</ele><time>2026-04-04T10:27:41.001Z</time></trkpt><trkpt lat="40.87425325656455" lon="8.933040670429813"><ele>147.4</ele><time>2026-04-04T10:27:42.001Z</time></trkpt><trkpt lat="40.87434789006675" lon="8.933097872351267"><ele>147.79999999999998</ele><time>2026-04-04T10:27:43.001Z</time></trkpt><trkpt lat="40.87442099868089" lon="8.933161844802889"><ele>148.2</ele><time>2026-04-04T10:27:45.001Z</time></trkpt><trkpt lat="40.874493577350385" lon="8.933172869603188"><ele>148.6</ele><time>2026-04-04T10:27:47.001Z</time></trkpt><trkpt lat="40.874622076716996" lon="8.933191545775806"><ele>149.0</ele><time>2026-04-04T10:27:49.001Z</time></trkpt><trkpt lat="40.874733246378156" lon="8.933244273979668"><ele>149.0</ele><time>2026-04-04T10:27:50.001Z</time></trkpt><trkpt lat="40.87483513573945" lon="8.933288537614292"><ele>149.0</ele><time>2026-04-04T10:27:51.001Z</time></trkpt><trkpt lat="40.87492388927513" lon="8.933290093845947"><ele>149.0</ele><time>2026-04-04T10:27:52.001Z</time></trkpt><trkpt lat="40.875008612331996" lon="8.933262187606827"><ele>149.0</ele><time>2026-04-04T10:27:53.001Z</time></trkpt><trkpt lat="40.87509563262258" lon="8.933226223620403"><ele>149.0</ele><time>2026-04-04T10:27:54.001Z</time></trkpt><trkpt lat="40.87517459799758" lon="8.93322896790489"><ele>149.8</ele><time>2026-04-04T10:27:55.001Z</time></trkpt><trkpt lat="40.875240380451494" lon="8.933262701130914"><ele>150.60000000000002</ele><time>2026-04-04T10:27:57.001Z</time></trkpt><trkpt lat="40.87530518168754" lon="8.933299503051247"><ele>151.4</ele><time>2026-04-04T10:28:23.001Z</time></trkpt><trkpt lat="40.87541836631578" lon="8.933364753376411"><ele>152.20000000000002</ele><time>2026-04-04T10:28:25.001Z</time></trkpt><trkpt lat="40.87550810453625" lon="8.933395991002051"><ele>153.0</ele><time>2026-04-04T10:28:26.001Z</time></trkpt><trkpt lat="40.87561148845031" lon="8.933402733044428"><ele>154.20000000000002</ele><time>2026-04-04T10:28:27.001Z</time></trkpt><trkpt lat="40.87570669852714" lon="8.933391154927236"><ele>155.4</ele><time>2026-04-04T10:28:28.001Z</time></trkpt><trkpt lat="40.87579688549179" lon="8.93346059925852"><ele>156.60000000000002</ele><time>2026-04-04T10:28:30.001Z</time></trkpt><trkpt lat="40.87586665420312" lon="8.93350762837771"><ele>157.8</ele><time>2026-04-04T10:28:31.001Z</time></trkpt><trkpt lat="40.8759428028914" lon="8.933593340135728"><ele>159.0</ele><time>2026-04-04T10:28:32.001Z</time></trkpt><trkpt lat="40.87602862498723" lon="8.933678993963644"><ele>160.8</ele><time>2026-04-04T10:28:33.001Z</time></trkpt><trkpt lat="40.876101679101794" lon="8.93377754317031"><ele>162.60000000000002</ele><time>2026-04-04T10:28:34.001Z</time></trkpt><trkpt lat="40.876162666058875" lon="8.933884513159647"><ele>164.4</ele><time>2026-04-04T10:28:35.001Z</time></trkpt><trkpt lat="40.87621911373683" lon="8.933973190698751"><ele>166.20000000000002</ele><time>2026-04-04T10:28:36.001Z</time></trkpt><trkpt lat="40.876270148729965" lon="8.934025977093851"><ele>168.0</ele><time>2026-04-04T10:28:37.001Z</time></trkpt><trkpt lat="40.8763491312487" lon="8.934093492608806"><ele>168.0</ele><time>2026-04-04T10:29:10.002Z</time></trkpt><trkpt lat="40.87641899393342" lon="8.934161083158825"><ele>168.0</ele><time>2026-04-04T10:29:12.002Z</time></trkpt><trkpt lat="40.87648428199966" lon="8.934196784321385"><ele>168.0</ele><time>2026-04-04T10:29:13.002Z</time></trkpt><trkpt lat="40.8765480700989" lon="8.934262964427903"><ele>168.0</ele><time>2026-04-04T10:29:15.002Z</time></trkpt><trkpt lat="40.87662951183018" lon="8.93450744597471"><ele>168.0</ele><time>2026-04-04T10:29:16.002Z</time></trkpt><trkpt lat="40.876771086639" lon="8.934475320393451"><ele>172.60000000000002</ele><time>2026-04-04T10:29:17.002Z</time></trkpt><trkpt lat="40.87683724512909" lon="8.934461408074913"><ele>177.20000000000002</ele><time>2026-04-04T10:29:18.002Z</time></trkpt><trkpt lat="40.876904685569464" lon="8.934458208477452"><ele>181.8</ele><time>2026-04-04T10:29:19.001Z</time></trkpt><trkpt lat="40.87700881376916" lon="8.934481318620518"><ele>186.4</ele><time>2026-04-04T10:29:21.001Z</time></trkpt><trkpt lat="40.87708346741519" lon="8.934511283193068"><ele>191.0</ele><time>2026-04-04T10:29:23.001Z</time></trkpt><trkpt lat="40.877211796411096" lon="8.934593974728644"><ele>191.0</ele><time>2026-04-04T10:29:25.001Z</time></trkpt><trkpt lat="40.877333327560976" lon="8.934685561719352"><ele>191.0</ele><time>2026-04-04T10:29:27.001Z</time></trkpt><trkpt lat="40.87740730738934" lon="8.934728836092814"><ele>191.0</ele><time>2026-04-04T10:29:28.001Z</time></trkpt><trkpt lat="40.8774807491912" lon="8.934767136208926"><ele>191.0</ele><time>2026-04-04T10:29:29.001Z</time></trkpt><trkpt lat="40.87780412667665" lon="8.93430687696578"><ele>191.33333333333331</ele><time>2026-04-04T10:29:30.001Z</time></trkpt><trkpt lat="40.87789784648053" lon="8.934313306977742"><ele>191.66666666666666</ele><time>2026-04-04T10:29:31.001Z</time></trkpt><trkpt lat="40.87797235284791" lon="8.934320431340858"><ele>192.0</ele><time>2026-04-04T10:29:32.001Z</time></trkpt><trkpt lat="40.87804240043883" lon="8.9342806083957"><ele>192.33333333333331</ele><time>2026-04-04T10:29:33.001Z</time></trkpt><trkpt lat="40.87810717428014" lon="8.934214638891245"><ele>192.66666666666666</ele><time>2026-04-04T10:29:34.001Z</time></trkpt><trkpt lat="40.87818638542654" lon="8.934126067262895"><ele>193.0</ele><time>2026-04-04T10:29:35.001Z</time></trkpt><trkpt lat="40.878269898426666" lon="8.934062915717043"><ele>192.49999999999997</ele><time>2026-04-04T10:29:36.001Z</time></trkpt><trkpt lat="40.87834329402671" lon="8.934007945128885"><ele>192.0</ele><time>2026-04-04T10:29:37.001Z</time></trkpt><trkpt lat="40.878407793546614" lon="8.933940940620683"><ele>191.5</ele><time>2026-04-04T10:29:38.001Z</time></trkpt><trkpt lat="40.87846770044695" lon="8.933851039180128"><ele>191.0</ele><time>2026-04-04T10:29:39.001Z</time></trkpt><trkpt lat="40.878534537986575" lon="8.933799476431897"><ele>190.5</ele><time>2026-04-04T10:29:40.001Z</time></trkpt><trkpt lat="40.87861734252625" lon="8.933774010663777"><ele>190.0</ele><time>2026-04-04T10:29:41.001Z</time></trkpt><trkpt lat="40.8787120648923" lon="8.93374227238618"><ele>190.0</ele><time>2026-04-04T10:29:42.001Z</time></trkpt><trkpt lat="40.878799180264814" lon="8.933699096731655"><ele>190.0</ele><time>2026-04-04T10:29:43.001Z</time></trkpt><trkpt lat="40.8788629168608" lon="8.933659631043051"><ele>190.0</ele><time>2026-04-04T10:29:44.001Z</time></trkpt><trkpt lat="40.87897853439953" lon="8.933622198908981"><ele>190.0</ele><time>2026-04-04T10:29:46.001Z</time></trkpt><trkpt lat="40.87904086219783" lon="8.93359924440721"><ele>190.0</ele><time>2026-04-04T10:29:47.001Z</time></trkpt><trkpt lat="40.87910532228559" lon="8.933581405017494"><ele>190.0</ele><time>2026-04-04T10:29:48.001Z</time></trkpt><trkpt lat="40.879170707385626" lon="8.933583767093575"><ele>190.0</ele><time>2026-04-04T10:29:49.001Z</time></trkpt><trkpt lat="40.87926574885557" lon="8.933653711948507"><ele>190.0</ele><time>2026-04-04T10:29:51.001Z</time></trkpt><trkpt lat="40.879319399767176" lon="8.933769733142473"><ele>190.0</ele><time>2026-04-04T10:29:53.001Z</time></trkpt><trkpt lat="40.87938557982247" lon="8.933787480608999"><ele>190.0</ele><time>2026-04-04T10:29:55.001Z</time></trkpt><trkpt lat="40.87944992321474" lon="8.933783306847342"><ele>190.0</ele><time>2026-04-04T10:30:01.001Z</time></trkpt><trkpt lat="40.879527257189444" lon="8.933779425516445"><ele>190.0</ele><time>2026-04-04T10:30:04.001Z</time></trkpt><trkpt lat="40.879607509549814" lon="8.933726619915879"><ele>194.0</ele><time>2026-04-04T10:30:06.001Z</time></trkpt><trkpt lat="40.87968876922937" lon="8.933730228018891"><ele>198.0</ele><time>2026-04-04T10:30:08.001Z</time></trkpt><trkpt lat="40.87984012970906" lon="8.933631029552249"><ele>202.0</ele><time>2026-04-04T10:30:11.001Z</time></trkpt><trkpt lat="40.879905259086996" lon="8.933601590846417"><ele>206.0</ele><time>2026-04-04T10:30:12.001Z</time></trkpt><trkpt lat="40.87996754235839" lon="8.933556870341102"><ele>210.0</ele><time>2026-04-04T10:30:13.001Z</time></trkpt><trkpt lat="40.88002394250547" lon="8.933514343979688"><ele>210.0</ele><time>2026-04-04T10:30:14.001Z</time></trkpt><trkpt lat="40.880086084611065" lon="8.933485513953134"><ele>210.0</ele><time>2026-04-04T10:30:15.001Z</time></trkpt><trkpt lat="40.880203236242934" lon="8.933466569042961"><ele>210.0</ele><time>2026-04-04T10:30:17.001Z</time></trkpt><trkpt lat="40.880278845724675" lon="8.933458391974028"><ele>210.0</ele><time>2026-04-04T10:30:18.001Z</time></trkpt><trkpt lat="40.88036372943542" lon="8.933449977242486"><ele>210.0</ele><time>2026-04-04T10:30:19.001Z</time></trkpt><trkpt lat="40.8804399852219" lon="8.933447505765741"><ele>210.0</ele><time>2026-04-04T10:30:20.001Z</time></trkpt><trkpt lat="40.88051333621232" lon="8.933435941072949"><ele>211.6</ele><time>2026-04-04T10:30:21.001Z</time></trkpt><trkpt lat="40.880599575399984" lon="8.93343174587745"><ele>213.2</ele><time>2026-04-04T10:30:22.001Z</time></trkpt><trkpt lat="40.880712547453555" lon="8.933409220923823"><ele>214.8</ele><time>2026-04-04T10:30:23.001Z</time></trkpt><trkpt lat="40.88081578924576" lon="8.933357155505906"><ele>216.4</ele><time>2026-04-04T10:30:24.001Z</time></trkpt><trkpt lat="40.88091159143043" lon="8.933310397867892"><ele>218.0</ele><time>2026-04-04T10:30:25.001Z</time></trkpt><trkpt lat="40.881004566350704" lon="8.933273897124614"><ele>216.00000000000003</ele><time>2026-04-04T10:30:26.001Z</time></trkpt><trkpt lat="40.881091054113625" lon="8.933254950055119"><ele>214.0</ele><time>2026-04-04T10:30:27.001Z</time></trkpt><trkpt lat="40.88114709549879" lon="8.933295694724748"><ele>212.0</ele><time>2026-04-04T10:30:28.001Z</time></trkpt><trkpt lat="40.88113714203034" lon="8.933408371417073"><ele>210.0</ele><time>2026-04-04T10:30:29.001Z</time></trkpt><trkpt lat="40.88117381909565" lon="8.933487578967894"><ele>208.00000000000003</ele><time>2026-04-04T10:30:30.001Z</time></trkpt><trkpt lat="40.88123295781954" lon="8.933596225208886"><ele>206.0</ele><time>2026-04-04T10:30:31.001Z</time></trkpt><trkpt lat="40.881355388705906" lon="8.933689995592033"><ele>206.0</ele><time>2026-04-04T10:30:33.001Z</time></trkpt><trkpt lat="40.88141574512577" lon="8.933723489401487"><ele>206.0</ele><time>2026-04-04T10:30:34.001Z</time></trkpt><trkpt lat="40.88155291233015" lon="8.933715665977399"><ele>206.0</ele><time>2026-04-04T10:30:36.001Z</time></trkpt><trkpt lat="40.88161706675317" lon="8.933725660932161"><ele>206.0</ele><time>2026-04-04T10:30:37.001Z</time></trkpt><trkpt lat="40.88173161659723" lon="8.93379808547393"><ele>206.0</ele><time>2026-04-04T10:30:39.001Z</time></trkpt><trkpt lat="40.88180055445476" lon="8.933827543870738"><ele>200.8</ele><time>2026-04-04T10:30:40.001Z</time></trkpt><trkpt lat="40.88187180773935" lon="8.933857377697775"><ele>195.60000000000002</ele><time>2026-04-04T10:30:41.001Z</time></trkpt><trkpt lat="40.88197474277642" lon="8.93392352154776"><ele>190.4</ele><time>2026-04-04T10:30:43.001Z</time></trkpt><trkpt lat="40.88208139874204" lon="8.93398943582902"><ele>185.2</ele><time>2026-04-04T10:30:45.001Z</time></trkpt><trkpt lat="40.882149647609666" lon="8.934066601784677"><ele>180.0</ele><time>2026-04-04T10:30:46.001Z</time></trkpt><trkpt lat="40.88223934743425" lon="8.934170730647587"><ele>183.6</ele><time>2026-04-04T10:30:47.001Z</time></trkpt><trkpt lat="40.882315472231646" lon="8.934249212420541"><ele>187.2</ele><time>2026-04-04T10:30:48.001Z</time></trkpt><trkpt lat="40.88236048298432" lon="8.934309532271483"><ele>190.8</ele><time>2026-04-04T10:30:49.001Z</time></trkpt><trkpt lat="40.882417732981146" lon="8.934480267703403"><ele>194.4</ele><time>2026-04-04T10:30:51.001Z</time></trkpt><trkpt lat="40.88245614531756" lon="8.934577387377864"><ele>198.0</ele><time>2026-04-04T10:30:52.001Z</time></trkpt><trkpt lat="40.88249983615559" lon="8.934656690812423"><ele>198.0</ele><time>2026-04-04T10:30:53.001Z</time></trkpt><trkpt lat="40.88253612029542" lon="8.934735239239819"><ele>198.0</ele><time>2026-04-04T10:30:54.001Z</time></trkpt><trkpt lat="40.8826192846615" lon="8.934842425577186"><ele>198.0</ele><time>2026-04-04T10:30:56.001Z</time></trkpt><trkpt lat="40.88271573915817" lon="8.934916019435647"><ele>198.0</ele><time>2026-04-04T10:30:58.001Z</time></trkpt><trkpt lat="40.88279524665499" lon="8.934949344326338"><ele>198.0</ele><time>2026-04-04T10:31:00.001Z</time></trkpt><trkpt lat="40.88287863562222" lon="8.935010875878708"><ele>196.66666666666666</ele><time>2026-04-04T10:31:02.001Z</time></trkpt><trkpt lat="40.88295954691772" lon="8.935082484228928"><ele>195.33333333333334</ele><time>2026-04-04T10:31:04.002Z</time></trkpt><trkpt lat="40.88302748319573" lon="8.935088141893797"><ele>194.0</ele><time>2026-04-04T10:31:08.002Z</time></trkpt><trkpt lat="40.88312701284648" lon="8.935133393879823"><ele>192.66666666666669</ele><time>2026-04-04T10:31:09.002Z</time></trkpt><trkpt lat="40.883205982432465" lon="8.93508117709772"><ele>191.33333333333334</ele><time>2026-04-04T10:31:10.002Z</time></trkpt><trkpt lat="40.88325609862404" lon="8.934999284618954"><ele>190.0</ele><time>2026-04-04T10:31:12.002Z</time></trkpt><trkpt lat="40.88326551994663" lon="8.93488627366616"><ele>190.0</ele><time>2026-04-04T10:31:15.002Z</time></trkpt><trkpt lat="40.88330344993" lon="8.93474849776599"><ele>190.0</ele><time>2026-04-04T10:31:17.002Z</time></trkpt><trkpt lat="40.88333213513616" lon="8.934663882401429"><ele>190.0</ele><time>2026-04-04T10:31:18.002Z</time></trkpt><trkpt lat="40.88334773303867" lon="8.93456577058762"><ele>190.0</ele><time>2026-04-04T10:31:19.002Z</time></trkpt><trkpt lat="40.88341436300511" lon="8.934460154740124"><ele>190.0</ele><time>2026-04-04T10:31:21.002Z</time></trkpt><trkpt lat="40.88348609312166" lon="8.93444855838294"><ele>190.0</ele><time>2026-04-04T10:31:22.002Z</time></trkpt><trkpt lat="40.883551490239185" lon="8.93440911970257"><ele>192.0</ele><time>2026-04-04T10:31:23.002Z</time></trkpt><trkpt lat="40.88361996385999" lon="8.93438951913149"><ele>194.0</ele><time>2026-04-04T10:31:24.002Z</time></trkpt><trkpt lat="40.88368848472769" lon="8.93440745815795"><ele>196.0</ele><time>2026-04-04T10:31:25.001Z</time></trkpt><trkpt lat="40.883795192633805" lon="8.934431359918568"><ele>198.0</ele><time>2026-04-04T10:31:27.001Z</time></trkpt><trkpt lat="40.88386375958864" lon="8.9344115176848"><ele>199.99999999999997</ele><time>2026-04-04T10:31:28.001Z</time></trkpt><trkpt lat="40.88393089360668" lon="8.93438329544074"><ele>202.0</ele><time>2026-04-04T10:31:29.001Z</time></trkpt><trkpt lat="40.88399699972818" lon="8.934377744010913"><ele>202.0</ele><time>2026-04-04T10:31:30.001Z</time></trkpt><trkpt lat="40.884113698729486" lon="8.93441940179585"><ele>202.0</ele><time>2026-04-04T10:31:32.001Z</time></trkpt><trkpt lat="40.884199641597164" lon="8.934431213244121"><ele>202.0</ele><time>2026-04-04T10:31:33.001Z</time></trkpt><trkpt lat="40.884296351554966" lon="8.934469701094994"><ele>202.0</ele><time>2026-04-04T10:31:34.001Z</time></trkpt><trkpt lat="40.88438295975601" lon="8.934501682902699"><ele>202.0</ele><time>2026-04-04T10:31:35.001Z</time></trkpt><trkpt lat="40.88445181590358" lon="8.93451900911253"><ele>201.71428571428572</ele><time>2026-04-04T10:31:36.001Z</time></trkpt><trkpt lat="40.88451972263762" lon="8.934536717825738"><ele>201.42857142857142</ele><time>2026-04-04T10:31:37.001Z</time></trkpt><trkpt lat="40.88458968987029" lon="8.934547349084164"><ele>201.14285714285717</ele><time>2026-04-04T10:31:38.001Z</time></trkpt><trkpt lat="40.88468868944987" lon="8.934581742324418"><ele>200.85714285714286</ele><time>2026-04-04T10:31:40.001Z</time></trkpt><trkpt lat="40.884765324304645" lon="8.934598018792494"><ele>200.57142857142858</ele><time>2026-04-04T10:31:42.001Z</time></trkpt><trkpt lat="40.884828485886565" lon="8.93460017063132"><ele>200.2857142857143</ele><time>2026-04-04T10:31:43.001Z</time></trkpt><trkpt lat="40.88489334131852" lon="8.934605669578643"><ele>200.0</ele><time>2026-04-04T10:31:44.001Z</time></trkpt><trkpt lat="40.88495696047478" lon="8.934602330380324"><ele>200.00000000000003</ele><time>2026-04-04T10:31:45.001Z</time></trkpt><trkpt lat="40.8850179097005" lon="8.93458055669047"><ele>200.0</ele><time>2026-04-04T10:31:46.001Z</time></trkpt><trkpt lat="40.88509965314637" lon="8.934536597021136"><ele>200.0</ele><time>2026-04-04T10:31:48.001Z</time></trkpt><trkpt lat="40.885169978406445" lon="8.934531898808173"><ele>200.0</ele><time>2026-04-04T10:31:55.001Z</time></trkpt><trkpt lat="40.88527426257355" lon="8.934548172567679"><ele>200.00000000000003</ele><time>2026-04-04T10:32:00.001Z</time></trkpt><trkpt lat="40.88535116963435" lon="8.934545364845134"><ele>200.0</ele><time>2026-04-04T10:32:02.001Z</time></trkpt><trkpt lat="40.88543690467447" lon="8.934564540330166"><ele>198.8</ele><time>2026-04-04T10:32:04.001Z</time></trkpt><trkpt lat="40.88551492148999" lon="8.934642930183553"><ele>197.6</ele><time>2026-04-04T10:32:09.001Z</time></trkpt><trkpt lat="40.885571165126066" lon="8.934722610923398"><ele>196.39999999999998</ele><time>2026-04-04T10:32:12.001Z</time></trkpt><trkpt lat="40.88562168111548" lon="8.934777525420168"><ele>195.2</ele><time>2026-04-04T10:32:14.001Z</time></trkpt><trkpt lat="40.88572242031859" lon="8.934881733479914"><ele>194.0</ele><time>2026-04-04T10:32:16.001Z</time></trkpt><trkpt lat="40.88579886413337" lon="8.935011410231162"><ele>194.50000000000003</ele><time>2026-04-04T10:32:18.001Z</time></trkpt><trkpt lat="40.88587145318046" lon="8.935117742118777"><ele>195.0</ele><time>2026-04-04T10:32:20.001Z</time></trkpt><trkpt lat="40.88592425809351" lon="8.935206528092595"><ele>195.5</ele><time>2026-04-04T10:32:22.001Z</time></trkpt><trkpt lat="40.88599601800107" lon="8.935290608497265"><ele>196.0</ele><time>2026-04-04T10:32:24.001Z</time></trkpt><trkpt lat="40.88604090946495" lon="8.935357085955019"><ele>196.50000000000003</ele><time>2026-04-04T10:32:26.001Z</time></trkpt><trkpt lat="40.88610372997911" lon="8.935428924726226"><ele>197.0</ele><time>2026-04-04T10:32:29.001Z</time></trkpt><trkpt lat="40.88615962608819" lon="8.935492087893033"><ele>197.00000000000003</ele><time>2026-04-04T10:32:31.001Z</time></trkpt><trkpt lat="40.88621830486554" lon="8.935585027322452"><ele>197.0</ele><time>2026-04-04T10:32:33.001Z</time></trkpt><trkpt lat="40.88628183067457" lon="8.935692154580174"><ele>197.0</ele><time>2026-04-04T10:32:35.001Z</time></trkpt><trkpt lat="40.88633307073007" lon="8.935796246575324"><ele>197.0</ele><time>2026-04-04T10:32:37.001Z</time></trkpt><trkpt lat="40.88638305791348" lon="8.935855871154375"><ele>197.00000000000003</ele><time>2026-04-04T10:32:40.001Z</time></trkpt><trkpt lat="40.88644523992274" lon="8.935933980083044"><ele>197.0</ele><time>2026-04-04T10:32:42.001Z</time></trkpt><trkpt lat="40.88650481686904" lon="8.935973320517542"><ele>199.33333333333334</ele><time>2026-04-04T10:32:44.001Z</time></trkpt><trkpt lat="40.886578664890905" lon="8.936007379074107"><ele>201.66666666666669</ele><time>2026-04-04T10:32:46.001Z</time></trkpt><trkpt lat="40.88665559192337" lon="8.936064506743328"><ele>204.0</ele><time>2026-04-04T10:32:49.001Z</time></trkpt><trkpt lat="40.88671760878998" lon="8.93613131514171"><ele>206.33333333333331</ele><time>2026-04-04T10:32:51.001Z</time></trkpt><trkpt lat="40.886784971469936" lon="8.936163255680164"><ele>208.66666666666666</ele><time>2026-04-04T10:32:53.001Z</time></trkpt><trkpt lat="40.88685664670952" lon="8.93618589224977"><ele>211.0</ele><time>2026-04-04T10:32:55.001Z</time></trkpt><trkpt lat="40.886946449150216" lon="8.936193873202754"><ele>210.99999999999997</ele><time>2026-04-04T10:32:57.001Z</time></trkpt><trkpt lat="40.887035199467" lon="8.936216546944763"><ele>211.0</ele><time>2026-04-04T10:32:59.001Z</time></trkpt><trkpt lat="40.887115589532065" lon="8.936241106219915"><ele>211.0</ele><time>2026-04-04T10:33:01.001Z</time></trkpt><trkpt lat="40.887185193350206" lon="8.936303977614733"><ele>211.0</ele><time>2026-04-04T10:33:03.001Z</time></trkpt><trkpt lat="40.887241863893735" lon="8.936384140949835"><ele>210.99999999999997</ele><time>2026-04-04T10:33:05.001Z</time></trkpt><trkpt lat="40.88729022863966" lon="8.936442604292743"><ele>211.0</ele><time>2026-04-04T10:33:07.001Z</time></trkpt><trkpt lat="40.8873522494373" lon="8.936565494341194"><ele>211.0</ele><time>2026-04-04T10:33:09.001Z</time></trkpt><trkpt lat="40.887419213895896" lon="8.93665701896999"><ele>211.0</ele><time>2026-04-04T10:33:11.002Z</time></trkpt><trkpt lat="40.887500710189514" lon="8.93672795251433"><ele>211.0</ele><time>2026-04-04T10:33:13.002Z</time></trkpt><trkpt lat="40.88756869156269" lon="8.936820404072515"><ele>211.0</ele><time>2026-04-04T10:33:16.002Z</time></trkpt><trkpt lat="40.88761204497097" lon="8.936921976683418"><ele>211.0</ele><time>2026-04-04T10:33:18.002Z</time></trkpt><trkpt lat="40.88768768066224" lon="8.937037762426588"><ele>209.20000000000002</ele><time>2026-04-04T10:33:20.002Z</time></trkpt><trkpt lat="40.887742129562625" lon="8.937133072864114"><ele>207.4</ele><time>2026-04-04T10:33:22.002Z</time></trkpt><trkpt lat="40.88778844997892" lon="8.937191973397736"><ele>205.6</ele><time>2026-04-04T10:33:24.002Z</time></trkpt><trkpt lat="40.88790624308923" lon="8.937240581833823"><ele>203.8</ele><time>2026-04-04T10:33:26.002Z</time></trkpt><trkpt lat="40.88799200521505" lon="8.937299049611731"><ele>202.0</ele><time>2026-04-04T10:33:28.002Z</time></trkpt><trkpt lat="40.888097802444754" lon="8.937351417017013"><ele>201.99999999999997</ele><time>2026-04-04T10:33:29.002Z</time></trkpt><trkpt lat="40.888189482319255" lon="8.937395638863297"><ele>202.0</ele><time>2026-04-04T10:33:31.001Z</time></trkpt><trkpt lat="40.88825782046923" lon="8.937413935566262"><ele>202.0</ele><time>2026-04-04T10:33:34.001Z</time></trkpt><trkpt lat="40.88834047796647" lon="8.937446051820492"><ele>202.0</ele><time>2026-04-04T10:33:36.001Z</time></trkpt><trkpt lat="40.88843013875657" lon="8.93749566103652"><ele>201.99999999999997</ele><time>2026-04-04T10:33:38.001Z</time></trkpt><trkpt lat="40.88850455470354" lon="8.937525847212246"><ele>202.0</ele><time>2026-04-04T10:33:40.001Z</time></trkpt><trkpt lat="40.88858776073581" lon="8.937556705429449"><ele>199.49999999999997</ele><time>2026-04-04T10:33:42.001Z</time></trkpt><trkpt lat="40.888650772648504" lon="8.937616365026345"><ele>197.0</ele><time>2026-04-04T10:33:44.001Z</time></trkpt><trkpt lat="40.88866556785569" lon="8.937711685209793"><ele>194.5</ele><time>2026-04-04T10:33:47.001Z</time></trkpt><trkpt lat="40.888662627957636" lon="8.937824147347413"><ele>192.0</ele><time>2026-04-04T10:34:25.001Z</time></trkpt><trkpt lat="40.88870622412624" lon="8.937956241269529"><ele>189.5</ele><time>2026-04-04T10:34:27.001Z</time></trkpt><trkpt lat="40.88875306206381" lon="8.93806765873114"><ele>187.0</ele><time>2026-04-04T10:34:29.001Z</time></trkpt><trkpt lat="40.888774976248556" lon="8.93821471269248"><ele>187.0</ele><time>2026-04-04T10:34:31.001Z</time></trkpt><trkpt lat="40.888795210780735" lon="8.938375487437801"><ele>187.0</ele><time>2026-04-04T10:34:33.001Z</time></trkpt><trkpt lat="40.88877843820646" lon="8.938499342084949"><ele>187.0</ele><time>2026-04-04T10:34:34.001Z</time></trkpt><trkpt lat="40.88876198666038" lon="8.938632425687354"><ele>187.0</ele><time>2026-04-04T10:34:35.001Z</time></trkpt><trkpt lat="40.88873716158165" lon="8.938762481293153"><ele>187.0</ele><time>2026-04-04T10:34:36.001Z</time></trkpt><trkpt lat="40.88870093799852" lon="8.938877111642675"><ele>187.16666666666669</ele><time>2026-04-04T10:34:37.001Z</time></trkpt><trkpt lat="40.88865683770202" lon="8.938981672638793"><ele>187.33333333333334</ele><time>2026-04-04T10:34:38.001Z</time></trkpt><trkpt lat="40.88861196183283" lon="8.939089877843264"><ele>187.5</ele><time>2026-04-04T10:34:39.001Z</time></trkpt><trkpt lat="40.88855244884781" lon="8.939188654285651"><ele>187.66666666666666</ele><time>2026-04-04T10:34:40.001Z</time></trkpt><trkpt lat="40.88850810055029" lon="8.939261659215484"><ele>187.83333333333331</ele><time>2026-04-04T10:34:41.001Z</time></trkpt><trkpt lat="40.888462074509405" lon="8.93936885659258"><ele>188.0</ele><time>2026-04-04T10:34:43.001Z</time></trkpt><trkpt lat="40.88847871763437" lon="8.939512428200382"><ele>188.0</ele><time>2026-04-04T10:34:45.001Z</time></trkpt><trkpt lat="40.88849192487262" lon="8.939617386363656"><ele>188.0</ele><time>2026-04-04T10:34:46.001Z</time></trkpt><trkpt lat="40.88851218679757" lon="8.93973867935336"><ele>188.0</ele><time>2026-04-04T10:34:47.001Z</time></trkpt><trkpt lat="40.88851445811427" lon="8.93985560187514"><ele>188.0</ele><time>2026-04-04T10:34:48.001Z</time></trkpt><trkpt lat="40.888543751291145" lon="8.939937100244949"><ele>188.0</ele><time>2026-04-04T10:34:49.001Z</time></trkpt><trkpt lat="40.88855877502808" lon="8.940076813409497"><ele>188.0</ele><time>2026-04-04T10:34:51.001Z</time></trkpt><trkpt lat="40.88856370730853" lon="8.94022277565644"><ele>189.5</ele><time>2026-04-04T10:34:53.001Z</time></trkpt><trkpt lat="40.888548531288016" lon="8.940371878642596"><ele>191.0</ele><time>2026-04-04T10:34:55.001Z</time></trkpt><trkpt lat="40.88859583964913" lon="8.940545860933085"><ele>192.5</ele><time>2026-04-04T10:34:57.001Z</time></trkpt><trkpt lat="40.888623174999985" lon="8.940648036221004"><ele>194.0</ele><time>2026-04-04T10:34:58.001Z</time></trkpt><trkpt lat="40.88864890878917" lon="8.940796635492301"><ele>194.6</ele><time>2026-04-04T10:35:00.001Z</time></trkpt><trkpt lat="40.8886698061472" lon="8.940953281419768"><ele>195.2</ele><time>2026-04-04T10:35:02.001Z</time></trkpt><trkpt lat="40.88872434805461" lon="8.941086399189064"><ele>195.79999999999998</ele><time>2026-04-04T10:35:04.001Z</time></trkpt><trkpt lat="40.8887357426233" lon="8.941234232321605"><ele>196.39999999999998</ele><time>2026-04-04T10:35:06.001Z</time></trkpt><trkpt lat="40.88874148203268" lon="8.941317215790935"><ele>197.0</ele><time>2026-04-04T10:35:07.001Z</time></trkpt><trkpt lat="40.888752464333535" lon="8.941402458590352"><ele>197.0</ele><time>2026-04-04T10:35:08.001Z</time></trkpt><trkpt lat="40.8887568529598" lon="8.94148865196863"><ele>197.0</ele><time>2026-04-04T10:35:09.001Z</time></trkpt><trkpt lat="40.88876551599347" lon="8.941600801923496"><ele>197.0</ele><time>2026-04-04T10:35:11.001Z</time></trkpt><trkpt lat="40.88877016815027" lon="8.941686239075217"><ele>197.0</ele><time>2026-04-04T10:35:13.001Z</time></trkpt><trkpt lat="40.888781836947466" lon="8.94176880565854"><ele>197.0</ele><time>2026-04-04T10:35:17.001Z</time></trkpt><trkpt lat="40.888788433540554" lon="8.941861852427673"><ele>197.0</ele><time>2026-04-04T10:35:20.002Z</time></trkpt><trkpt lat="40.888786860238106" lon="8.941948271768693"><ele>197.0</ele><time>2026-04-04T10:35:28.002Z</time></trkpt><trkpt lat="40.888805488776626" lon="8.942029959838793"><ele>198.00000000000003</ele><time>2026-04-04T10:35:35.002Z</time></trkpt><trkpt lat="40.88883025287415" lon="8.942129606678929"><ele>199.0</ele><time>2026-04-04T10:35:40Z</time></trkpt><trkpt lat="40.88883397294134" lon="8.942231704104332"><ele>200.0</ele><time>2026-04-04T10:35:44Z</time></trkpt><trkpt lat="40.88882643729622" lon="8.942330588624486"><ele>201.0</ele><time>2026-04-04T10:35:47Z</time></trkpt><trkpt lat="40.88880176672416" lon="8.942454743469867"><ele>202.00000000000003</ele><time>2026-04-04T10:35:50Z</time></trkpt><trkpt lat="40.88876699414631" lon="8.942583446488687"><ele>203.0</ele><time>2026-04-04T10:35:52Z</time></trkpt><trkpt lat="40.88874604485427" lon="8.942704626367467"><ele>204.83333333333334</ele><time>2026-04-04T10:35:54Z</time></trkpt><trkpt lat="40.8887571334163" lon="8.942812421283396"><ele>206.66666666666669</ele><time>2026-04-04T10:35:57Z</time></trkpt><trkpt lat="40.888800218407816" lon="8.942938645306741"><ele>208.5</ele><time>2026-04-04T10:35:59.999Z</time></trkpt><trkpt lat="40.88884602274132" lon="8.943002434652513"><ele>210.33333333333331</ele><time>2026-04-04T10:36:00.999Z</time></trkpt><trkpt lat="40.888894173137444" lon="8.943086701634243"><ele>212.16666666666666</ele><time>2026-04-04T10:36:02.999Z</time></trkpt><trkpt lat="40.88893116498764" lon="8.943165152580669"><ele>214.0</ele><time>2026-04-04T10:36:05.999Z</time></trkpt><trkpt lat="40.88895325528616" lon="8.943256038125522"><ele>214.0</ele><time>2026-04-04T10:36:07.999Z</time></trkpt><trkpt lat="40.889033951539865" lon="8.943353981151096"><ele>213.99999999999997</ele><time>2026-04-04T10:36:10.999Z</time></trkpt><trkpt lat="40.88907811074873" lon="8.943423663982276"><ele>213.99999999999997</ele><time>2026-04-04T10:36:12.999Z</time></trkpt><trkpt lat="40.889170911438946" lon="8.943559067271776"><ele>214.0</ele><time>2026-04-04T10:36:14.998Z</time></trkpt><trkpt lat="40.889265099285254" lon="8.943643177330081"><ele>214.0</ele><time>2026-04-04T10:36:16.998Z</time></trkpt><trkpt lat="40.88930517402059" lon="8.943719206292537"><ele>214.33333333333331</ele><time>2026-04-04T10:36:17.998Z</time></trkpt><trkpt lat="40.88935759157452" lon="8.943792914110333"><ele>214.66666666666666</ele><time>2026-04-04T10:36:18.998Z</time></trkpt><trkpt lat="40.8894150409038" lon="8.943874132801453"><ele>215.0</ele><time>2026-04-04T10:36:19.998Z</time></trkpt><trkpt lat="40.88945998987427" lon="8.943974689511506"><ele>215.33333333333331</ele><time>2026-04-04T10:36:20.998Z</time></trkpt><trkpt lat="40.88952473793691" lon="8.944096945910216"><ele>215.66666666666666</ele><time>2026-04-04T10:36:22.998Z</time></trkpt><trkpt lat="40.889495843352734" lon="8.944198394789424"><ele>216.0</ele><time>2026-04-04T10:36:24.998Z</time></trkpt><trkpt lat="40.88947094559125" lon="8.944275479572424"><ele>218.4</ele><time>2026-04-04T10:36:26.998Z</time></trkpt><trkpt lat="40.889436328377634" lon="8.944378408384392"><ele>220.8</ele><time>2026-04-04T10:36:28.998Z</time></trkpt><trkpt lat="40.889391197496614" lon="8.944468155441326"><ele>223.20000000000002</ele><time>2026-04-04T10:36:30.998Z</time></trkpt><trkpt lat="40.889343323653186" lon="8.94454392388024"><ele>225.60000000000002</ele><time>2026-04-04T10:36:33.998Z</time></trkpt><trkpt lat="40.88924043627446" lon="8.944648169767683"><ele>228.0</ele><time>2026-04-04T10:36:35.998Z</time></trkpt><trkpt lat="40.889180373434094" lon="8.944731574187484"><ele>229.0</ele><time>2026-04-04T10:36:39.998Z</time></trkpt><trkpt lat="40.88918008029787" lon="8.944821534519823"><ele>230.0</ele><time>2026-04-04T10:36:42.998Z</time></trkpt><trkpt lat="40.8891987597643" lon="8.944927800769422"><ele>231.0</ele><time>2026-04-04T10:36:46.999Z</time></trkpt><trkpt lat="40.889232827996075" lon="8.945065028232483"><ele>232.0</ele><time>2026-04-04T10:36:49.999Z</time></trkpt><trkpt lat="40.889261410281875" lon="8.945157919619113"><ele>233.0</ele><time>2026-04-04T10:36:53Z</time></trkpt><trkpt lat="40.8892918783608" lon="8.945299048330034"><ele>234.0</ele><time>2026-04-04T10:36:56Z</time></trkpt><trkpt lat="40.889309190783635" lon="8.945391672258603"><ele>234.16666666666666</ele><time>2026-04-04T10:36:59Z</time></trkpt><trkpt lat="40.88930947470585" lon="8.945485985192853"><ele>234.33333333333331</ele><time>2026-04-04T10:37:04.001Z</time></trkpt><trkpt lat="40.88930649717315" lon="8.945581204019167"><ele>234.5</ele><time>2026-04-04T10:37:07.001Z</time></trkpt><trkpt lat="40.88931100152583" lon="8.945688607597026"><ele>234.66666666666666</ele><time>2026-04-04T10:37:18.001Z</time></trkpt><trkpt lat="40.889303611012565" lon="8.945779358847991"><ele>234.83333333333331</ele><time>2026-04-04T10:37:20.001Z</time></trkpt><trkpt lat="40.889314707361926" lon="8.945887524129558"><ele>235.0</ele><time>2026-04-04T10:37:23.001Z</time></trkpt><trkpt lat="40.88930169231498" lon="8.945989349476202"><ele>235.49999999999997</ele><time>2026-04-04T10:37:32.002Z</time></trkpt><trkpt lat="40.88931727481485" lon="8.946103347415773"><ele>236.0</ele><time>2026-04-04T10:37:34.002Z</time></trkpt><trkpt lat="40.88932353124381" lon="8.946231813335853"><ele>236.5</ele><time>2026-04-04T10:37:36.002Z</time></trkpt><trkpt lat="40.88932917856694" lon="8.946319152146906"><ele>237.0</ele><time>2026-04-04T10:37:39.002Z</time></trkpt><trkpt lat="40.88934689662455" lon="8.946423273522687"><ele>237.49999999999997</ele><time>2026-04-04T10:37:45.001Z</time></trkpt><trkpt lat="40.88933527998902" lon="8.946527812618344"><ele>238.0</ele><time>2026-04-04T10:37:48Z</time></trkpt><trkpt lat="40.889326080128384" lon="8.94662375642302"><ele>237.99999999999997</ele><time>2026-04-04T10:37:50Z</time></trkpt><trkpt lat="40.88931546963425" lon="8.946716447767141"><ele>238.0</ele><time>2026-04-04T10:37:53Z</time></trkpt><trkpt lat="40.88928392926582" lon="8.94680829464872"><ele>238.0</ele><time>2026-04-04T10:37:56Z</time></trkpt><trkpt lat="40.88926923567154" lon="8.946910123329138"><ele>238.0</ele><time>2026-04-04T10:37:58Z</time></trkpt><trkpt lat="40.889239969215204" lon="8.947010676908185"><ele>237.99999999999997</ele><time>2026-04-04T10:38:00Z</time></trkpt><trkpt lat="40.88921311034196" lon="8.9471468733679"><ele>238.0</ele><time>2026-04-04T10:38:03.001Z</time></trkpt><trkpt lat="40.88919947480018" lon="8.94724727998619"><ele>240.0</ele><time>2026-04-04T10:38:06.001Z</time></trkpt><trkpt lat="40.88916507448173" lon="8.947345765917802"><ele>242.0</ele><time>2026-04-04T10:38:08.001Z</time></trkpt><trkpt lat="40.88910180347022" lon="8.947406466763228"><ele>244.0</ele><time>2026-04-04T10:38:10.001Z</time></trkpt><trkpt lat="40.88905481644924" lon="8.947491111230379"><ele>246.0</ele><time>2026-04-04T10:38:12.001Z</time></trkpt><trkpt lat="40.88901501537211" lon="8.947609307969543"><ele>248.0</ele><time>2026-04-04T10:38:14.001Z</time></trkpt><trkpt lat="40.88888423030594" lon="8.947827862323798"><ele>248.00000000000003</ele><time>2026-04-04T10:38:17.001Z</time></trkpt><trkpt lat="40.88884640089153" lon="8.947898143819724"><ele>248.0</ele><time>2026-04-04T10:38:18.001Z</time></trkpt><trkpt lat="40.88880908589657" lon="8.947966415054482"><ele>248.0</ele><time>2026-04-04T10:38:19.001Z</time></trkpt><trkpt lat="40.88873530155878" lon="8.948098628722224"><ele>248.0</ele><time>2026-04-04T10:38:21.001Z</time></trkpt><trkpt lat="40.88868928237726" lon="8.94816109157751"><ele>248.00000000000003</ele><time>2026-04-04T10:38:22.001Z</time></trkpt><trkpt lat="40.888619175571" lon="8.948276479472494"><ele>248.0</ele><time>2026-04-04T10:38:24.001Z</time></trkpt><trkpt lat="40.88859485266564" lon="8.948384026024994"><ele>248.66666666666669</ele><time>2026-04-04T10:38:26.001Z</time></trkpt><trkpt lat="40.88856647030754" lon="8.948470075264185"><ele>249.33333333333334</ele><time>2026-04-04T10:38:27.001Z</time></trkpt><trkpt lat="40.888552730963454" lon="8.948613936575928"><ele>250.0</ele><time>2026-04-04T10:38:29.001Z</time></trkpt><trkpt lat="40.88857042775411" lon="8.948732368424809"><ele>250.66666666666669</ele><time>2026-04-04T10:38:33.001Z</time></trkpt><trkpt lat="40.88858235691943" lon="8.948856697884091"><ele>251.33333333333334</ele><time>2026-04-04T10:38:35.001Z</time></trkpt><trkpt lat="40.88861455836598" lon="8.948940431984619"><ele>252.0</ele><time>2026-04-04T10:38:37.001Z</time></trkpt><trkpt lat="40.88862332584128" lon="8.94902374250532"><ele>252.0</ele><time>2026-04-04T10:38:38.001Z</time></trkpt><trkpt lat="40.8886555202356" lon="8.94913768940258"><ele>252.0</ele><time>2026-04-04T10:38:40.001Z</time></trkpt><trkpt lat="40.88864001521199" lon="8.949270162769034"><ele>252.0</ele><time>2026-04-04T10:38:42.001Z</time></trkpt><trkpt lat="40.88865889326202" lon="8.949409145070055"><ele>252.0</ele><time>2026-04-04T10:38:44.001Z</time></trkpt><trkpt lat="40.88867159654073" lon="8.949497211436356"><ele>252.0</ele><time>2026-04-04T10:38:45.001Z</time></trkpt><trkpt lat="40.88868724751862" lon="8.949589692591946"><ele>252.0</ele><time>2026-04-04T10:38:46.001Z</time></trkpt><trkpt lat="40.88870340436183" lon="8.949693587839379"><ele>253.5</ele><time>2026-04-04T10:38:47.001Z</time></trkpt><trkpt lat="40.888708316226186" lon="8.949787800414082"><ele>255.0</ele><time>2026-04-04T10:38:48.001Z</time></trkpt><trkpt lat="40.88870518196503" lon="8.949894290164352"><ele>256.5</ele><time>2026-04-04T10:38:49.001Z</time></trkpt><trkpt lat="40.888708524591756" lon="8.94999596321234"><ele>258.0</ele><time>2026-04-04T10:38:50.001Z</time></trkpt><trkpt lat="40.888717763806355" lon="8.95009271723414"><ele>259.5</ele><time>2026-04-04T10:38:51.001Z</time></trkpt><trkpt lat="40.888737049839534" lon="8.950213059612132"><ele>261.0</ele><time>2026-04-04T10:38:53.001Z</time></trkpt><trkpt lat="40.88875385400203" lon="8.950325002303694"><ele>262.1666666666667</ele><time>2026-04-04T10:38:55.001Z</time></trkpt><trkpt lat="40.88877083477437" lon="8.950410553610105"><ele>263.3333333333333</ele><time>2026-04-04T10:38:56.001Z</time></trkpt><trkpt lat="40.88879638400397" lon="8.95049782477358"><ele>264.5</ele><time>2026-04-04T10:38:57.001Z</time></trkpt><trkpt lat="40.88882304475547" lon="8.9505864156796"><ele>265.66666666666663</ele><time>2026-04-04T10:38:58.001Z</time></trkpt><trkpt lat="40.88884896219379" lon="8.950748371966311"><ele>266.8333333333333</ele><time>2026-04-04T10:39:00.001Z</time></trkpt><trkpt lat="40.888865461214145" lon="8.950831314043329"><ele>268.0</ele><time>2026-04-04T10:39:01.001Z</time></trkpt><trkpt lat="40.88888659767308" lon="8.950946983768668"><ele>269.16666666666663</ele><time>2026-04-04T10:39:03.001Z</time></trkpt><trkpt lat="40.88892773236463" lon="8.951053100243213"><ele>270.3333333333333</ele><time>2026-04-04T10:39:05.001Z</time></trkpt><trkpt lat="40.888959166130014" lon="8.95114571437958"><ele>271.5</ele><time>2026-04-04T10:39:06.001Z</time></trkpt><trkpt lat="40.88898015364997" lon="8.951238957616193"><ele>272.6666666666667</ele><time>2026-04-04T10:39:07.001Z</time></trkpt><trkpt lat="40.88899835310478" lon="8.95132015555299"><ele>273.83333333333337</ele><time>2026-04-04T10:39:08.001Z</time></trkpt><trkpt lat="40.88903930629592" lon="8.951384104111254"><ele>275.0</ele><time>2026-04-04T10:39:11.001Z</time></trkpt><trkpt lat="40.8890873718637" lon="8.951482999372775"><ele>275.0</ele><time>2026-04-04T10:39:13.001Z</time></trkpt><trkpt lat="40.889091791874556" lon="8.95156898246524"><ele>275.0</ele><time>2026-04-04T10:39:15.001Z</time></trkpt><trkpt lat="40.88910012975995" lon="8.951709584981824"><ele>275.0</ele><time>2026-04-04T10:39:18.001Z</time></trkpt><trkpt lat="40.88910202457911" lon="8.95182665362878"><ele>275.0</ele><time>2026-04-04T10:39:20.001Z</time></trkpt><trkpt lat="40.889117220320955" lon="8.951951252370032"><ele>275.0</ele><time>2026-04-04T10:39:23.001Z</time></trkpt><trkpt lat="40.88911393641214" lon="8.95203978154573"><ele>275.0</ele><time>2026-04-04T10:39:25.001Z</time></trkpt><trkpt lat="40.88915975177028" lon="8.952178112574103"><ele>276.0</ele><time>2026-04-04T10:39:27.001Z</time></trkpt><trkpt lat="40.88917619916656" lon="8.952273385011976"><ele>277.0</ele><time>2026-04-04T10:39:28.001Z</time></trkpt><trkpt lat="40.889244174372706" lon="8.95241350567353"><ele>278.0</ele><time>2026-04-04T10:39:29.001Z</time></trkpt><trkpt lat="40.88929019960663" lon="8.952540033438009"><ele>279.0</ele><time>2026-04-04T10:39:30.001Z</time></trkpt><trkpt lat="40.889326901783214" lon="8.952640333522346"><ele>280.0</ele><time>2026-04-04T10:39:31.001Z</time></trkpt><trkpt lat="40.88932621527088" lon="8.952732241442698"><ele>280.0</ele><time>2026-04-04T10:39:32.001Z</time></trkpt><trkpt lat="40.8893413189085" lon="8.952834860315603"><ele>280.0</ele><time>2026-04-04T10:39:33.001Z</time></trkpt><trkpt lat="40.88931202290442" lon="8.95294849782717"><ele>280.0</ele><time>2026-04-04T10:39:34.001Z</time></trkpt><trkpt lat="40.88932449664443" lon="8.953060577095737"><ele>280.0</ele><time>2026-04-04T10:39:35.001Z</time></trkpt><trkpt lat="40.8893332070946" lon="8.953171358591124"><ele>280.0</ele><time>2026-04-04T10:39:36.002Z</time></trkpt><trkpt lat="40.88934139567445" lon="8.953294272133625"><ele>280.0</ele><time>2026-04-04T10:39:37.002Z</time></trkpt><trkpt lat="40.88934976643201" lon="8.953419920224773"><ele>278.4</ele><time>2026-04-04T10:39:38.002Z</time></trkpt><trkpt lat="40.88935585032432" lon="8.953544127034128"><ele>276.8</ele><time>2026-04-04T10:39:39.002Z</time></trkpt><trkpt lat="40.88936155168817" lon="8.953666732030767"><ele>275.2</ele><time>2026-04-04T10:39:40.002Z</time></trkpt><trkpt lat="40.88936392183448" lon="8.95377224280002"><ele>273.6</ele><time>2026-04-04T10:39:41.002Z</time></trkpt><trkpt lat="40.889354680314966" lon="8.953932640018138"><ele>272.0</ele><time>2026-04-04T10:39:43.002Z</time></trkpt><trkpt lat="40.88930843489247" lon="8.954051510528814"><ele>273.83333333333337</ele><time>2026-04-04T10:39:45.002Z</time></trkpt><trkpt lat="40.8892418343017" lon="8.954153549208632"><ele>275.6666666666667</ele><time>2026-04-04T10:39:47.002Z</time></trkpt><trkpt lat="40.889191712295435" lon="8.954230132665405"><ele>277.5</ele><time>2026-04-04T10:39:48.002Z</time></trkpt><trkpt lat="40.889136757171535" lon="8.954318248552333"><ele>279.3333333333333</ele><time>2026-04-04T10:39:50Z</time></trkpt><trkpt lat="40.88909835991643" lon="8.954427581052396"><ele>281.16666666666663</ele><time>2026-04-04T10:39:52Z</time></trkpt><trkpt lat="40.88907280912428" lon="8.954509631467035"><ele>283.0</ele><time>2026-04-04T10:39:54Z</time></trkpt><trkpt lat="40.88912225385237" lon="8.954585585275554"><ele>283.0</ele><time>2026-04-04T10:41:41.001Z</time></trkpt><trkpt lat="40.88919215509315" lon="8.954598481755994"><ele>283.0</ele><time>2026-04-04T10:41:43.002Z</time></trkpt><trkpt lat="40.889248380088226" lon="8.954533523769452"><ele>283.0</ele><time>2026-04-04T10:41:44.002Z</time></trkpt><trkpt lat="40.8893120261882" lon="8.954427511381255"><ele>283.0</ele><time>2026-04-04T10:41:45.002Z</time></trkpt><trkpt lat="40.88940523930407" lon="8.954309844192494"><ele>283.0</ele><time>2026-04-04T10:41:46.002Z</time></trkpt><trkpt lat="40.889525553081064" lon="8.954217264778599"><ele>280.25</ele><time>2026-04-04T10:41:47.002Z</time></trkpt><trkpt lat="40.88964017939708" lon="8.954145352929286"><ele>277.5</ele><time>2026-04-04T10:41:48.002Z</time></trkpt><trkpt lat="40.88975371489853" lon="8.95410447208435"><ele>274.75</ele><time>2026-04-04T10:41:49.002Z</time></trkpt><trkpt lat="40.889886067664634" lon="8.954107631103948"><ele>272.0</ele><time>2026-04-04T10:41:50.002Z</time></trkpt><trkpt lat="40.89003462018581" lon="8.954146201049792"><ele>268.33333333333337</ele><time>2026-04-04T10:41:51.002Z</time></trkpt><trkpt lat="40.89019095357309" lon="8.954215358217873"><ele>264.6666666666667</ele><time>2026-04-04T10:41:52.002Z</time></trkpt><trkpt lat="40.89035940642541" lon="8.954305571198567"><ele>261.0</ele><time>2026-04-04T10:41:53.002Z</time></trkpt><trkpt lat="40.89052755684368" lon="8.954385476272929"><ele>261.0</ele><time>2026-04-04T10:41:54.002Z</time></trkpt><trkpt lat="40.890675324575014" lon="8.954479169001898"><ele>261.0</ele><time>2026-04-04T10:41:55Z</time></trkpt><trkpt lat="40.89081704973396" lon="8.954560439409887"><ele>261.0</ele><time>2026-04-04T10:41:56Z</time></trkpt><trkpt lat="40.89094398653386" lon="8.954660215392153"><ele>259.75</ele><time>2026-04-04T10:41:57Z</time></trkpt><trkpt lat="40.89108060026415" lon="8.954714406055277"><ele>258.5</ele><time>2026-04-04T10:41:58Z</time></trkpt><trkpt lat="40.89120817293367" lon="8.954780935456943"><ele>257.25</ele><time>2026-04-04T10:41:59Z</time></trkpt><trkpt lat="40.89134056149347" lon="8.954821023566058"><ele>256.0</ele><time>2026-04-04T10:42:00Z</time></trkpt><trkpt lat="40.89147140933377" lon="8.954863780946715"><ele>256.0</ele><time>2026-04-04T10:42:01Z</time></trkpt><trkpt lat="40.89160594581949" lon="8.954879042397847"><ele>256.0</ele><time>2026-04-04T10:42:02Z</time></trkpt><trkpt lat="40.89174646682407" lon="8.954874112492472"><ele>256.0</ele><time>2026-04-04T10:42:03Z</time></trkpt><trkpt lat="40.891892767267564" lon="8.95488167959584"><ele>256.0</ele><time>2026-04-04T10:42:04Z</time></trkpt><trkpt lat="40.89204199044251" lon="8.954878811881095"><ele>252.66666666666666</ele><time>2026-04-04T10:42:05Z</time></trkpt><trkpt lat="40.8921909747391" lon="8.954858431648969"><ele>249.33333333333331</ele><time>2026-04-04T10:42:06Z</time></trkpt><trkpt lat="40.89233805686075" lon="8.954824881915721"><ele>246.0</ele><time>2026-04-04T10:42:07Z</time></trkpt><trkpt lat="40.8924868283332" lon="8.954791172225107"><ele>243.0</ele><time>2026-04-04T10:42:08Z</time></trkpt><trkpt lat="40.89262920151006" lon="8.954749782992572"><ele>240.0</ele><time>2026-04-04T10:42:09Z</time></trkpt><trkpt lat="40.89276555396776" lon="8.954707589696422"><ele>237.0</ele><time>2026-04-04T10:42:10Z</time></trkpt><trkpt lat="40.89289392391348" lon="8.95466325484063"><ele>234.0</ele><time>2026-04-04T10:42:11Z</time></trkpt><trkpt lat="40.89301203168087" lon="8.954590198905134"><ele>234.0</ele><time>2026-04-04T10:42:12Z</time></trkpt><trkpt lat="40.893117856084594" lon="8.9544989740416"><ele>234.0</ele><time>2026-04-04T10:42:13Z</time></trkpt><trkpt lat="40.893202746671" lon="8.954380098252376"><ele>234.0</ele><time>2026-04-04T10:42:14.001Z</time></trkpt><trkpt lat="40.893263992965885" lon="8.954235468964512"><ele>234.0</ele><time>2026-04-04T10:42:15.001Z</time></trkpt><trkpt lat="40.893329981049256" lon="8.954080202998863"><ele>236.5</ele><time>2026-04-04T10:42:16.001Z</time></trkpt><trkpt lat="40.89338924790718" lon="8.953917578937421"><ele>239.0</ele><time>2026-04-04T10:42:17.001Z</time></trkpt><trkpt lat="40.89343440281043" lon="8.953751537926793"><ele>241.5</ele><time>2026-04-04T10:42:18.001Z</time></trkpt><trkpt lat="40.893484725052005" lon="8.953597569786327"><ele>244.0</ele><time>2026-04-04T10:42:19.001Z</time></trkpt><trkpt lat="40.893524540051374" lon="8.953437976012445"><ele>243.5</ele><time>2026-04-04T10:42:20.001Z</time></trkpt><trkpt lat="40.8935272653672" lon="8.953273777608937"><ele>243.0</ele><time>2026-04-04T10:42:21.001Z</time></trkpt><trkpt lat="40.89349542295942" lon="8.95310856729572"><ele>242.5</ele><time>2026-04-04T10:42:22.001Z</time></trkpt><trkpt lat="40.89342166515154" lon="8.95296290076841"><ele>242.0</ele><time>2026-04-04T10:42:23.001Z</time></trkpt><trkpt lat="40.89333775275105" lon="8.952843918202582"><ele>242.0</ele><time>2026-04-04T10:42:24.001Z</time></trkpt><trkpt lat="40.89323411616183" lon="8.952732050322556"><ele>242.0</ele><time>2026-04-04T10:42:25.001Z</time></trkpt><trkpt lat="40.89312216517135" lon="8.952627041496635"><ele>242.0</ele><time>2026-04-04T10:42:26.001Z</time></trkpt><trkpt lat="40.89300643911221" lon="8.952521555811005"><ele>242.0</ele><time>2026-04-04T10:42:27.001Z</time></trkpt><trkpt lat="40.89288915244639" lon="8.95241616699586"><ele>242.0</ele><time>2026-04-04T10:42:28.001Z</time></trkpt><trkpt lat="40.89277449922834" lon="8.952312509691978"><ele>242.0</ele><time>2026-04-04T10:42:29.001Z</time></trkpt><trkpt lat="40.89266252926028" lon="8.952211152478714"><ele>242.0</ele><time>2026-04-04T10:42:30.001Z</time></trkpt><trkpt lat="40.892559545319706" lon="8.95210599682699"><ele>242.0</ele><time>2026-04-04T10:42:31.001Z</time></trkpt><trkpt lat="40.892466159699914" lon="8.95199364070187"><ele>242.0</ele><time>2026-04-04T10:42:32.001Z</time></trkpt><trkpt lat="40.892382665784986" lon="8.95187478957166"><ele>242.0</ele><time>2026-04-04T10:42:33.001Z</time></trkpt><trkpt lat="40.892315247801314" lon="8.951745370954713"><ele>242.0</ele><time>2026-04-04T10:42:34.001Z</time></trkpt><trkpt lat="40.89225755851656" lon="8.951607668576347"><ele>242.0</ele><time>2026-04-04T10:42:35.001Z</time></trkpt><trkpt lat="40.89220822719215" lon="8.951463916009567"><ele>235.75</ele><time>2026-04-04T10:42:36.001Z</time></trkpt><trkpt lat="40.89216028081205" lon="8.951315873339894"><ele>229.5</ele><time>2026-04-04T10:42:37.001Z</time></trkpt><trkpt lat="40.892112913714506" lon="8.951170853741269"><ele>223.25</ele><time>2026-04-04T10:42:38.001Z</time></trkpt><trkpt lat="40.892067919562706" lon="8.951030657320398"><ele>217.0</ele><time>2026-04-04T10:42:39.001Z</time></trkpt><trkpt lat="40.892033479463144" lon="8.950891746659766"><ele>212.0</ele><time>2026-04-04T10:42:40.001Z</time></trkpt><trkpt lat="40.89201562376518" lon="8.950747130891575"><ele>207.0</ele><time>2026-04-04T10:42:41.001Z</time></trkpt><trkpt lat="40.89201215833226" lon="8.950596967935438"><ele>202.0</ele><time>2026-04-04T10:42:42.001Z</time></trkpt><trkpt lat="40.8920067147458" lon="8.950443002431081"><ele>197.0</ele><time>2026-04-04T10:42:43.001Z</time></trkpt><trkpt lat="40.89203590364885" lon="8.950290232093925"><ele>197.0</ele><time>2026-04-04T10:42:44.001Z</time></trkpt><trkpt lat="40.892053146263166" lon="8.950137679501944"><ele>197.0</ele><time>2026-04-04T10:42:45.001Z</time></trkpt><trkpt lat="40.89206855841726" lon="8.94999252076621"><ele>197.0</ele><time>2026-04-04T10:42:46.001Z</time></trkpt><trkpt lat="40.89207277084701" lon="8.949848293253071"><ele>197.0</ele><time>2026-04-04T10:42:47.001Z</time></trkpt><trkpt lat="40.8920544022617" lon="8.949703667188036"><ele>197.0</ele><time>2026-04-04T10:42:48.001Z</time></trkpt><trkpt lat="40.89200910272716" lon="8.949565511174427"><ele>195.5</ele><time>2026-04-04T10:42:49.001Z</time></trkpt><trkpt lat="40.89192551148438" lon="8.949456575925648"><ele>194.0</ele><time>2026-04-04T10:42:50.001Z</time></trkpt><trkpt lat="40.891835653368524" lon="8.949373991406366"><ele>192.5</ele><time>2026-04-04T10:42:51.001Z</time></trkpt><trkpt lat="40.89173375325482" lon="8.949308806087796"><ele>191.0</ele><time>2026-04-04T10:42:52.001Z</time></trkpt><trkpt lat="40.891626301129406" lon="8.949252669939886"><ele>193.4</ele><time>2026-04-04T10:42:53.001Z</time></trkpt><trkpt lat="40.891517162173336" lon="8.949200889786175"><ele>195.8</ele><time>2026-04-04T10:42:54.001Z</time></trkpt><trkpt lat="40.891408986188665" lon="8.949151718882636"><ele>198.20000000000002</ele><time>2026-04-04T10:42:55.001Z</time></trkpt><trkpt lat="40.891303520128844" lon="8.94910194050501"><ele>200.60000000000002</ele><time>2026-04-04T10:42:56.001Z</time></trkpt><trkpt lat="40.89120463991573" lon="8.949053563147139"><ele>203.0</ele><time>2026-04-04T10:42:57.001Z</time></trkpt><trkpt lat="40.891113362720134" lon="8.94899956262673"><ele>203.00000000000003</ele><time>2026-04-04T10:42:58.001Z</time></trkpt><trkpt lat="40.891042243601184" lon="8.948927244410699"><ele>203.0</ele><time>2026-04-04T10:42:59.001Z</time></trkpt><trkpt lat="40.89098558128385" lon="8.948845001738212"><ele>203.0</ele><time>2026-04-04T10:43:00.001Z</time></trkpt><trkpt lat="40.89094895642794" lon="8.948748831912113"><ele>203.0</ele><time>2026-04-04T10:43:01.001Z</time></trkpt><trkpt lat="40.8909325802534" lon="8.948635765178787"><ele>203.00000000000003</ele><time>2026-04-04T10:43:02.001Z</time></trkpt><trkpt lat="40.89093328009334" lon="8.948520288647744"><ele>203.0</ele><time>2026-04-04T10:43:03.001Z</time></trkpt><trkpt lat="40.89095086018057" lon="8.948395322831725"><ele>201.60000000000002</ele><time>2026-04-04T10:43:04.001Z</time></trkpt><trkpt lat="40.89098684097639" lon="8.948267747648918"><ele>200.20000000000002</ele><time>2026-04-04T10:43:05.001Z</time></trkpt><trkpt lat="40.891027656448244" lon="8.948134695421466"><ele>198.8</ele><time>2026-04-04T10:43:06.001Z</time></trkpt><trkpt lat="40.89109395795219" lon="8.948008218304102"><ele>197.4</ele><time>2026-04-04T10:43:07.001Z</time></trkpt><trkpt lat="40.89117246911383" lon="8.947888058510413"><ele>196.0</ele><time>2026-04-04T10:43:08.001Z</time></trkpt><trkpt lat="40.89126094831813" lon="8.947774932033814"><ele>196.0</ele><time>2026-04-04T10:43:09.001Z</time></trkpt><trkpt lat="40.89135715217993" lon="8.947665519548606"><ele>196.0</ele><time>2026-04-04T10:43:10.001Z</time></trkpt><trkpt lat="40.8914547650993" lon="8.94755107275673"><ele>196.0</ele><time>2026-04-04T10:43:11.001Z</time></trkpt><trkpt lat="40.891554435483876" lon="8.947430914332434"><ele>196.0</ele><time>2026-04-04T10:43:12.001Z</time></trkpt><trkpt lat="40.891656299237994" lon="8.94730880634476"><ele>191.0</ele><time>2026-04-04T10:43:13.001Z</time></trkpt><trkpt lat="40.891758284840286" lon="8.9471868742857"><ele>186.0</ele><time>2026-04-04T10:43:14.001Z</time></trkpt><trkpt lat="40.8918548467507" lon="8.947072426755357"><ele>181.0</ele><time>2026-04-04T10:43:15.001Z</time></trkpt><trkpt lat="40.89194652828885" lon="8.946961381252763"><ele>176.0</ele><time>2026-04-04T10:43:16.001Z</time></trkpt><trkpt lat="40.892031231841074" lon="8.946848622500614"><ele>176.0</ele><time>2026-04-04T10:43:17.001Z</time></trkpt><trkpt lat="40.89210980054263" lon="8.946733804307783"><ele>176.0</ele><time>2026-04-04T10:43:18.001Z</time></trkpt><trkpt lat="40.89218230024513" lon="8.946614525926465"><ele>176.0</ele><time>2026-04-04T10:43:19.001Z</time></trkpt><trkpt lat="40.89224853335454" lon="8.946490323488018"><ele>176.0</ele><time>2026-04-04T10:43:20.001Z</time></trkpt><trkpt lat="40.89231160807639" lon="8.946357684051337"><ele>177.75</ele><time>2026-04-04T10:43:21.001Z</time></trkpt><trkpt lat="40.89237115935138" lon="8.946217091803929"><ele>179.5</ele><time>2026-04-04T10:43:22.001Z</time></trkpt><trkpt lat="40.892433667119015" lon="8.946074340717239"><ele>181.25</ele><time>2026-04-04T10:43:23.001Z</time></trkpt><trkpt lat="40.892493878052186" lon="8.94592487707648"><ele>183.0</ele><time>2026-04-04T10:43:24.001Z</time></trkpt><trkpt lat="40.89254870850403" lon="8.945772337063245"><ele>181.25</ele><time>2026-04-04T10:43:25.001Z</time></trkpt><trkpt lat="40.892603005155465" lon="8.945621483406164"><ele>179.5</ele><time>2026-04-04T10:43:26.001Z</time></trkpt><trkpt lat="40.89266001214572" lon="8.94546054435927"><ele>177.75</ele><time>2026-04-04T10:43:27.001Z</time></trkpt><trkpt lat="40.89271501291748" lon="8.945296023348966"><ele>176.0</ele><time>2026-04-04T10:43:28.001Z</time></trkpt><trkpt lat="40.8927569395435" lon="8.945125087563557"><ele>176.0</ele><time>2026-04-04T10:43:29.001Z</time></trkpt><trkpt lat="40.89280406979943" lon="8.944957610262485"><ele>176.0</ele><time>2026-04-04T10:43:30.001Z</time></trkpt><trkpt lat="40.89281872678517" lon="8.944788585732612"><ele>176.0</ele><time>2026-04-04T10:43:31.001Z</time></trkpt><trkpt lat="40.89282125843738" lon="8.944622875457142"><ele>176.0</ele><time>2026-04-04T10:43:32.001Z</time></trkpt><trkpt lat="40.89281824416306" lon="8.944463639822093"><ele>176.0</ele><time>2026-04-04T10:43:33.001Z</time></trkpt><trkpt lat="40.89280927606055" lon="8.944311880622662"><ele>176.0</ele><time>2026-04-04T10:43:34.001Z</time></trkpt><trkpt lat="40.89279168066187" lon="8.944162103281917"><ele>176.0</ele><time>2026-04-04T10:43:35.001Z</time></trkpt><trkpt lat="40.89276974003309" lon="8.944018954033055"><ele>176.0</ele><time>2026-04-04T10:43:36.001Z</time></trkpt><trkpt lat="40.8927468803551" lon="8.943875196206847"><ele>175.8</ele><time>2026-04-04T10:43:37.001Z</time></trkpt><trkpt lat="40.892714737267156" lon="8.943739191458993"><ele>175.60000000000002</ele><time>2026-04-04T10:43:38.001Z</time></trkpt><trkpt lat="40.892716388311285" lon="8.94359218801836"><ele>175.4</ele><time>2026-04-04T10:43:39.001Z</time></trkpt><trkpt lat="40.892699987585054" lon="8.943444887787894"><ele>175.2</ele><time>2026-04-04T10:43:40.001Z</time></trkpt><trkpt lat="40.89272150346612" lon="8.943296424827166"><ele>175.0</ele><time>2026-04-04T10:43:41.001Z</time></trkpt><trkpt lat="40.89275871036557" lon="8.943152118561217"><ele>174.75</ele><time>2026-04-04T10:43:42.001Z</time></trkpt><trkpt lat="40.892806553230095" lon="8.943011929873025"><ele>174.5</ele><time>2026-04-04T10:43:43.001Z</time></trkpt><trkpt lat="40.89285774456448" lon="8.942875842721879"><ele>174.25</ele><time>2026-04-04T10:43:44.001Z</time></trkpt><trkpt lat="40.89290760049516" lon="8.942739985512787"><ele>174.0</ele><time>2026-04-04T10:43:45.002Z</time></trkpt><trkpt lat="40.89296665710063" lon="8.942613592990584"><ele>174.0</ele><time>2026-04-04T10:43:46.002Z</time></trkpt><trkpt lat="40.89302638063375" lon="8.942484645039343"><ele>174.0</ele><time>2026-04-04T10:43:47.002Z</time></trkpt><trkpt lat="40.89307158512651" lon="8.942340616685547"><ele>174.0</ele><time>2026-04-04T10:43:48.002Z</time></trkpt><trkpt lat="40.89311918438938" lon="8.942192116023152"><ele>174.0</ele><time>2026-04-04T10:43:49.002Z</time></trkpt><trkpt lat="40.893133789533614" lon="8.942030536325039"><ele>174.0</ele><time>2026-04-04T10:43:50.002Z</time></trkpt><trkpt lat="40.89313665846159" lon="8.941869427971124"><ele>174.0</ele><time>2026-04-04T10:43:51.002Z</time></trkpt><trkpt lat="40.89311682786041" lon="8.941710367246408"><ele>174.0</ele><time>2026-04-04T10:43:52.002Z</time></trkpt><trkpt lat="40.89312329433933" lon="8.941546146231651"><ele>174.0</ele><time>2026-04-04T10:43:53.002Z</time></trkpt><trkpt lat="40.89311162588391" lon="8.94137933341541"><ele>174.6</ele><time>2026-04-04T10:43:54.002Z</time></trkpt><trkpt lat="40.893100458682376" lon="8.941216514685722"><ele>175.2</ele><time>2026-04-04T10:43:55.002Z</time></trkpt><trkpt lat="40.89307924020008" lon="8.941066417386843"><ele>175.79999999999998</ele><time>2026-04-04T10:43:56.002Z</time></trkpt><trkpt lat="40.89309944897984" lon="8.940949004982947"><ele>176.39999999999998</ele><time>2026-04-04T10:43:57.002Z</time></trkpt><trkpt lat="40.89309152449815" lon="8.940860802542591"><ele>177.0</ele><time>2026-04-04T10:43:58.002Z</time></trkpt><trkpt lat="40.893115420225115" lon="8.940728217036872"><ele>178.39999999999998</ele><time>2026-04-04T10:44:00.002Z</time></trkpt><trkpt lat="40.89312904112648" lon="8.940639695493363"><ele>179.79999999999998</ele><time>2026-04-04T10:44:02Z</time></trkpt><trkpt lat="40.893162840578064" lon="8.940534219001503"><ele>181.2</ele><time>2026-04-04T10:44:05Z</time></trkpt><trkpt lat="40.89318982285361" lon="8.940412461911292"><ele>182.6</ele><time>2026-04-04T10:44:07Z</time></trkpt><trkpt lat="40.893225753779255" lon="8.940250381894788"><ele>184.0</ele><time>2026-04-04T10:44:09Z</time></trkpt><trkpt lat="40.89324588843293" lon="8.940085083282149"><ele>184.33333333333334</ele><time>2026-04-04T10:44:11Z</time></trkpt><trkpt lat="40.893265357458084" lon="8.93998848833735"><ele>184.66666666666669</ele><time>2026-04-04T10:44:12Z</time></trkpt><trkpt lat="40.89328723226787" lon="8.939900921620673"><ele>185.0</ele><time>2026-04-04T10:44:13Z</time></trkpt><trkpt lat="40.893309225851596" lon="8.939796592777407"><ele>185.33333333333334</ele><time>2026-04-04T10:44:14Z</time></trkpt><trkpt lat="40.89333395803" lon="8.93968296437848"><ele>185.66666666666666</ele><time>2026-04-04T10:44:15Z</time></trkpt><trkpt lat="40.89335853687861" lon="8.939562905385555"><ele>186.0</ele><time>2026-04-04T10:44:16Z</time></trkpt><trkpt lat="40.893383609057594" lon="8.939438298882179"><ele>186.0</ele><time>2026-04-04T10:44:17Z</time></trkpt><trkpt lat="40.89340865204525" lon="8.939308142201586"><ele>186.0</ele><time>2026-04-04T10:44:18.001Z</time></trkpt><trkpt lat="40.89343993639249" lon="8.939181598455482"><ele>186.0</ele><time>2026-04-04T10:44:19.001Z</time></trkpt><trkpt lat="40.8934705782178" lon="8.939051274276919"><ele>186.0</ele><time>2026-04-04T10:44:20.001Z</time></trkpt><trkpt lat="40.89350664662882" lon="8.938918246595941"><ele>186.0</ele><time>2026-04-04T10:44:21.001Z</time></trkpt><trkpt lat="40.89355398770786" lon="8.938793760609691"><ele>191.0</ele><time>2026-04-04T10:44:22.001Z</time></trkpt><trkpt lat="40.89359338758584" lon="8.938651462887583"><ele>196.0</ele><time>2026-04-04T10:44:23.001Z</time></trkpt><trkpt lat="40.8936535277768" lon="8.938519110546727"><ele>201.0</ele><time>2026-04-04T10:44:24.001Z</time></trkpt><trkpt lat="40.893714212773396" lon="8.938384010035973"><ele>206.0</ele><time>2026-04-04T10:44:25.001Z</time></trkpt><trkpt lat="40.89377754317728" lon="8.938250038884025"><ele>206.0</ele><time>2026-04-04T10:44:26.001Z</time></trkpt><trkpt lat="40.89384422454772" lon="8.938114138336056"><ele>206.0</ele><time>2026-04-04T10:44:27.001Z</time></trkpt><trkpt lat="40.89390593545927" lon="8.937972164974132"><ele>206.0</ele><time>2026-04-04T10:44:28.001Z</time></trkpt><trkpt lat="40.89396520446652" lon="8.93783775644399"><ele>206.0</ele><time>2026-04-04T10:44:29.001Z</time></trkpt><trkpt lat="40.894007724878236" lon="8.937724840699683"><ele>206.0</ele><time>2026-04-04T10:44:30.001Z</time></trkpt><trkpt lat="40.89406111622805" lon="8.93761787772"><ele>206.0</ele><time>2026-04-04T10:44:31.001Z</time></trkpt><trkpt lat="40.894086301643675" lon="8.937485035435024"><ele>206.0</ele><time>2026-04-04T10:44:32.001Z</time></trkpt><trkpt lat="40.894091658380475" lon="8.93734392513551"><ele>206.0</ele><time>2026-04-04T10:44:33.001Z</time></trkpt><trkpt lat="40.894072113618854" lon="8.937196110330312"><ele>206.0</ele><time>2026-04-04T10:44:34.001Z</time></trkpt><trkpt lat="40.894029959604104" lon="8.937053695292992"><ele>205.25</ele><time>2026-04-04T10:44:35.001Z</time></trkpt><trkpt lat="40.893958598580745" lon="8.936924416782823"><ele>204.5</ele><time>2026-04-04T10:44:36.001Z</time></trkpt><trkpt lat="40.89386985375" lon="8.936815468726696"><ele>203.75</ele><time>2026-04-04T10:44:37.001Z</time></trkpt><trkpt lat="40.893777941954205" lon="8.936714630969082"><ele>203.0</ele><time>2026-04-04T10:44:38.001Z</time></trkpt><trkpt lat="40.89368354911895" lon="8.936615908191992"><ele>204.0</ele><time>2026-04-04T10:44:39.001Z</time></trkpt><trkpt lat="40.89358733907037" lon="8.936515452704608"><ele>205.0</ele><time>2026-04-04T10:44:40.001Z</time></trkpt><trkpt lat="40.893489871693596" lon="8.936414049016872"><ele>206.0</ele><time>2026-04-04T10:44:41.001Z</time></trkpt><trkpt lat="40.89339026546697" lon="8.936310420099423"><ele>207.0</ele><time>2026-04-04T10:44:42.001Z</time></trkpt><trkpt lat="40.893302292903684" lon="8.936213010147423"><ele>207.0</ele><time>2026-04-04T10:44:43.001Z</time></trkpt><trkpt lat="40.893237451480296" lon="8.936123721459357"><ele>207.0</ele><time>2026-04-04T10:44:44.001Z</time></trkpt><trkpt lat="40.893185146995556" lon="8.93602382345942"><ele>207.0</ele><time>2026-04-04T10:44:45.001Z</time></trkpt><trkpt lat="40.89315068941739" lon="8.935911503994642"><ele>207.0</ele><time>2026-04-04T10:44:46.001Z</time></trkpt><trkpt lat="40.8931349233712" lon="8.935788742226476"><ele>207.0</ele><time>2026-04-04T10:44:47.001Z</time></trkpt><trkpt lat="40.893143657717246" lon="8.935659921462769"><ele>208.8</ele><time>2026-04-04T10:44:48.001Z</time></trkpt><trkpt lat="40.89315399897935" lon="8.935524816806183"><ele>210.6</ele><time>2026-04-04T10:44:49.001Z</time></trkpt><trkpt lat="40.893201810125674" lon="8.935401094036482"><ele>212.40000000000003</ele><time>2026-04-04T10:44:50.001Z</time></trkpt><trkpt lat="40.89326114111147" lon="8.935286329031427"><ele>214.20000000000002</ele><time>2026-04-04T10:44:51.001Z</time></trkpt><trkpt lat="40.893340281968364" lon="8.935191638359443"><ele>216.0</ele><time>2026-04-04T10:44:52.001Z</time></trkpt><trkpt lat="40.89343598805882" lon="8.935122665566333"><ele>218.75</ele><time>2026-04-04T10:44:53.001Z</time></trkpt><trkpt lat="40.8935416759398" lon="8.935076669245944"><ele>221.5</ele><time>2026-04-04T10:44:54.001Z</time></trkpt><trkpt lat="40.89365079689929" lon="8.935043881133652"><ele>224.25</ele><time>2026-04-04T10:44:55.001Z</time></trkpt><trkpt lat="40.89376428513469" lon="8.935015425035616"><ele>227.0</ele><time>2026-04-04T10:44:56.001Z</time></trkpt><trkpt lat="40.89388229379064" lon="8.934996857626318"><ele>227.0</ele><time>2026-04-04T10:44:57.001Z</time></trkpt><trkpt lat="40.89400230850154" lon="8.934973077289495"><ele>227.0</ele><time>2026-04-04T10:44:58.001Z</time></trkpt><trkpt lat="40.89412119307846" lon="8.934938341443807"><ele>227.0</ele><time>2026-04-04T10:44:59.001Z</time></trkpt><trkpt lat="40.89423137890065" lon="8.934893155782978"><ele>227.0</ele><time>2026-04-04T10:45:00.001Z</time></trkpt><trkpt lat="40.89432810522394" lon="8.934815064919773"><ele>233.5</ele><time>2026-04-04T10:45:01.001Z</time></trkpt><trkpt lat="40.89440639882907" lon="8.934706611894605"><ele>240.0</ele><time>2026-04-04T10:45:02.001Z</time></trkpt><trkpt lat="40.89446333571191" lon="8.93457900665081"><ele>246.5</ele><time>2026-04-04T10:45:03.001Z</time></trkpt><trkpt lat="40.894498336527064" lon="8.934435796069188"><ele>253.0</ele><time>2026-04-04T10:45:04.001Z</time></trkpt><trkpt lat="40.894549544973614" lon="8.934290330634248"><ele>252.0</ele><time>2026-04-04T10:45:05.001Z</time></trkpt><trkpt lat="40.89459119263177" lon="8.934135242027896"><ele>251.0</ele><time>2026-04-04T10:45:06.001Z</time></trkpt><trkpt lat="40.89462540839152" lon="8.934009109275806"><ele>250.0</ele><time>2026-04-04T10:45:07.001Z</time></trkpt><trkpt lat="40.89465646686973" lon="8.933895062209055"><ele>249.0</ele><time>2026-04-04T10:45:09.001Z</time></trkpt><trkpt lat="40.894673240448526" lon="8.933813610172592"><ele>248.0</ele><time>2026-04-04T10:45:57.002Z</time></trkpt><trkpt lat="40.8946166589666" lon="8.933919223204072"><ele>248.00000000000003</ele><time>2026-04-04T10:46:07Z</time></trkpt><trkpt lat="40.8946045900702" lon="8.934011755425573"><ele>248.0</ele><time>2026-04-04T10:46:08Z</time></trkpt><trkpt lat="40.89457229010015" lon="8.934113548646577"><ele>248.0</ele><time>2026-04-04T10:46:09Z</time></trkpt><trkpt lat="40.894534018020984" lon="8.934215832363963"><ele>248.0</ele><time>2026-04-04T10:46:10Z</time></trkpt><trkpt lat="40.89450798795264" lon="8.934316752547081"><ele>248.00000000000003</ele><time>2026-04-04T10:46:11Z</time></trkpt><trkpt lat="40.894487444414565" lon="8.934413690708844"><ele>248.0</ele><time>2026-04-04T10:46:12Z</time></trkpt><trkpt lat="40.89446451574015" lon="8.934508078755552"><ele>248.83333333333334</ele><time>2026-04-04T10:46:13Z</time></trkpt><trkpt lat="40.89444114131757" lon="8.934600050034772"><ele>249.66666666666669</ele><time>2026-04-04T10:46:14Z</time></trkpt><trkpt lat="40.8944093938529" lon="8.934685413607852"><ele>250.5</ele><time>2026-04-04T10:46:15Z</time></trkpt><trkpt lat="40.89435982164562" lon="8.934759220505319"><ele>251.33333333333331</ele><time>2026-04-04T10:46:16Z</time></trkpt><trkpt lat="40.89429247839607" lon="8.93482344534071"><ele>252.16666666666666</ele><time>2026-04-04T10:46:17Z</time></trkpt><trkpt lat="40.89421706647001" lon="8.93487873693444"><ele>253.0</ele><time>2026-04-04T10:46:18Z</time></trkpt><trkpt lat="40.89413156471757" lon="8.934918276407243"><ele>248.66666666666666</ele><time>2026-04-04T10:46:19Z</time></trkpt><trkpt lat="40.894048554274214" lon="8.93493719480651"><ele>244.33333333333331</ele><time>2026-04-04T10:46:20Z</time></trkpt><trkpt lat="40.89396849819961" lon="8.934951223704186"><ele>240.0</ele><time>2026-04-04T10:46:21Z</time></trkpt><trkpt lat="40.89389072720539" lon="8.934964251774469"><ele>235.66666666666669</ele><time>2026-04-04T10:46:22Z</time></trkpt><trkpt lat="40.89380269760917" lon="8.934980212145279"><ele>231.33333333333334</ele><time>2026-04-04T10:46:23Z</time></trkpt><trkpt lat="40.893700055289564" lon="8.9350004095277"><ele>227.0</ele><time>2026-04-04T10:46:24Z</time></trkpt><trkpt lat="40.89359231663017" lon="8.935031640177336"><ele>227.8</ele><time>2026-04-04T10:46:25Z</time></trkpt><trkpt lat="40.89349526256676" lon="8.935070103116017"><ele>228.6</ele><time>2026-04-04T10:46:26Z</time></trkpt><trkpt lat="40.893399936256344" lon="8.935093872354626"><ele>229.40000000000003</ele><time>2026-04-04T10:46:27Z</time></trkpt><trkpt lat="40.89332361879214" lon="8.93516264983126"><ele>230.20000000000002</ele><time>2026-04-04T10:46:28Z</time></trkpt><trkpt lat="40.89325174177663" lon="8.935250045320354"><ele>231.0</ele><time>2026-04-04T10:46:29.001Z</time></trkpt><trkpt lat="40.89319598133473" lon="8.93535104420451"><ele>228.5</ele><time>2026-04-04T10:46:30.001Z</time></trkpt><trkpt lat="40.89316864788776" lon="8.935461817647244"><ele>226.0</ele><time>2026-04-04T10:46:31.001Z</time></trkpt><trkpt lat="40.89312532407916" lon="8.935573709038756"><ele>223.5</ele><time>2026-04-04T10:46:32.001Z</time></trkpt><trkpt lat="40.89310504915156" lon="8.935673410343236"><ele>221.0</ele><time>2026-04-04T10:46:33.001Z</time></trkpt><trkpt lat="40.89309986130504" lon="8.935774504343152"><ele>218.5</ele><time>2026-04-04T10:46:34.001Z</time></trkpt><trkpt lat="40.89310217455584" lon="8.935875269669383"><ele>216.0</ele><time>2026-04-04T10:46:36.001Z</time></trkpt><trkpt lat="40.893134922924375" lon="8.935982008759682"><ele>216.4</ele><time>2026-04-04T10:47:20.001Z</time></trkpt><trkpt lat="40.89318774779453" lon="8.936147723540213"><ele>216.8</ele><time>2026-04-04T10:47:22.001Z</time></trkpt><trkpt lat="40.89324551069551" lon="8.936236155057546"><ele>217.20000000000002</ele><time>2026-04-04T10:47:23.001Z</time></trkpt><trkpt lat="40.893317880280904" lon="8.936309398498128"><ele>217.60000000000002</ele><time>2026-04-04T10:47:24.001Z</time></trkpt><trkpt lat="40.89339503175458" lon="8.93637628254286"><ele>218.0</ele><time>2026-04-04T10:47:25.001Z</time></trkpt><trkpt lat="40.89347068881537" lon="8.936449065191484"><ele>218.00000000000003</ele><time>2026-04-04T10:47:26.001Z</time></trkpt><trkpt lat="40.893542614702746" lon="8.936518646952287"><ele>218.0</ele><time>2026-04-04T10:47:27.001Z</time></trkpt><trkpt lat="40.893611507447744" lon="8.936592326726565"><ele>218.0</ele><time>2026-04-04T10:47:28.001Z</time></trkpt><trkpt lat="40.89367520560521" lon="8.936664798084292"><ele>218.0</ele><time>2026-04-04T10:47:29.001Z</time></trkpt><trkpt lat="40.89374303980886" lon="8.936729029180857"><ele>218.00000000000003</ele><time>2026-04-04T10:47:30.001Z</time></trkpt><trkpt lat="40.893807586016905" lon="8.936800580836671"><ele>218.0</ele><time>2026-04-04T10:47:31.001Z</time></trkpt><trkpt lat="40.89387052809805" lon="8.936869312888305"><ele>215.50000000000003</ele><time>2026-04-04T10:47:32.001Z</time></trkpt><trkpt lat="40.893925444165596" lon="8.936943161355778"><ele>213.0</ele><time>2026-04-04T10:47:33.001Z</time></trkpt><trkpt lat="40.89397611547636" lon="8.937025756587113"><ele>210.5</ele><time>2026-04-04T10:47:34.001Z</time></trkpt><trkpt lat="40.894015519362696" lon="8.937122831394985"><ele>208.0</ele><time>2026-04-04T10:47:35.001Z</time></trkpt><trkpt lat="40.8940398991012" lon="8.937227433466791"><ele>205.50000000000003</ele><time>2026-04-04T10:47:36.001Z</time></trkpt><trkpt lat="40.89405447000196" lon="8.937337756671411"><ele>203.0</ele><time>2026-04-04T10:47:37.001Z</time></trkpt><trkpt lat="40.89405281485741" lon="8.937453596893176"><ele>203.50000000000003</ele><time>2026-04-04T10:47:38.001Z</time></trkpt><trkpt lat="40.89404048843251" lon="8.937567900889169"><ele>204.0</ele><time>2026-04-04T10:47:39.001Z</time></trkpt><trkpt lat="40.89401294316983" lon="8.937678675786081"><ele>204.5</ele><time>2026-04-04T10:47:40.001Z</time></trkpt><trkpt lat="40.893973112760975" lon="8.93778439086053"><ele>205.0</ele><time>2026-04-04T10:47:41.001Z</time></trkpt><trkpt lat="40.89392883710496" lon="8.93788922079525"><ele>205.50000000000003</ele><time>2026-04-04T10:47:42.001Z</time></trkpt><trkpt lat="40.89388338424487" lon="8.937989411772422"><ele>206.0</ele><time>2026-04-04T10:47:43.001Z</time></trkpt><trkpt lat="40.8938332388385" lon="8.93809227854578"><ele>206.0</ele><time>2026-04-04T10:47:44.001Z</time></trkpt><trkpt lat="40.893781429393385" lon="8.938196872539917"><ele>206.0</ele><time>2026-04-04T10:47:45.001Z</time></trkpt><trkpt lat="40.89373231413137" lon="8.93830557046806"><ele>206.0</ele><time>2026-04-04T10:47:46.001Z</time></trkpt><trkpt lat="40.89368541103322" lon="8.93841959602776"><ele>206.0</ele><time>2026-04-04T10:47:47.001Z</time></trkpt><trkpt lat="40.893633992379144" lon="8.938529680501125"><ele>206.0</ele><time>2026-04-04T10:47:48.001Z</time></trkpt><trkpt lat="40.89358078096882" lon="8.93864616188031"><ele>207.4</ele><time>2026-04-04T10:47:49.001Z</time></trkpt><trkpt lat="40.893526600065144" lon="8.93876992508116"><ele>208.8</ele><time>2026-04-04T10:47:50.001Z</time></trkpt><trkpt lat="40.89347944829338" lon="8.9389004524939"><ele>210.20000000000002</ele><time>2026-04-04T10:47:51.001Z</time></trkpt><trkpt lat="40.893442839028" lon="8.939038521620073"><ele>211.60000000000002</ele><time>2026-04-04T10:47:52.001Z</time></trkpt><trkpt lat="40.8934088629992" lon="8.939182718112589"><ele>213.0</ele><time>2026-04-04T10:47:53.001Z</time></trkpt><trkpt lat="40.893376414411556" lon="8.939329780855577"><ele>206.25</ele><time>2026-04-04T10:47:54.001Z</time></trkpt><trkpt lat="40.89334776220932" lon="8.93947987072418"><ele>199.5</ele><time>2026-04-04T10:47:55.001Z</time></trkpt><trkpt lat="40.89332175894374" lon="8.93963155277484"><ele>192.75</ele><time>2026-04-04T10:47:56.001Z</time></trkpt><trkpt lat="40.89329104430639" lon="8.939779946843897"><ele>186.0</ele><time>2026-04-04T10:47:57.001Z</time></trkpt><trkpt lat="40.893256090367764" lon="8.93992636828793"><ele>185.60000000000002</ele><time>2026-04-04T10:47:58.001Z</time></trkpt><trkpt lat="40.89322133678059" lon="8.940067857790549"><ele>185.2</ele><time>2026-04-04T10:47:59.002Z</time></trkpt><trkpt lat="40.89319025015966" lon="8.94020908183737"><ele>184.8</ele><time>2026-04-04T10:48:00.002Z</time></trkpt><trkpt lat="40.893163360104786" lon="8.940349357405152"><ele>184.39999999999998</ele><time>2026-04-04T10:48:01.002Z</time></trkpt><trkpt lat="40.89313322639259" lon="8.940485013216374"><ele>184.0</ele><time>2026-04-04T10:48:02.002Z</time></trkpt><trkpt lat="40.893106121344694" lon="8.940619157736537"><ele>184.0</ele><time>2026-04-04T10:48:03.002Z</time></trkpt><trkpt lat="40.893083730685944" lon="8.940749934117163"><ele>184.0</ele><time>2026-04-04T10:48:04.002Z</time></trkpt><trkpt lat="40.89306952032873" lon="8.940861034503543"><ele>184.0</ele><time>2026-04-04T10:48:05.002Z</time></trkpt><trkpt lat="40.893068346558415" lon="8.94094595829181"><ele>184.0</ele><time>2026-04-04T10:48:06.002Z</time></trkpt><trkpt lat="40.893061678027216" lon="8.941060265274215"><ele>184.0</ele><time>2026-04-04T10:48:08.002Z</time></trkpt><trkpt lat="40.89306402886966" lon="8.941158263716192"><ele>184.0</ele><time>2026-04-04T10:48:10.002Z</time></trkpt><trkpt lat="40.89306908731415" lon="8.941249518822977"><ele>182.25</ele><time>2026-04-04T10:48:12.002Z</time></trkpt><trkpt lat="40.89307501964238" lon="8.941334327671214"><ele>180.5</ele><time>2026-04-04T10:48:15Z</time></trkpt><trkpt lat="40.89332372465481" lon="8.941394293048944"><ele>178.75</ele><time>2026-04-04T10:48:50.001Z</time></trkpt><trkpt lat="40.89326322532736" lon="8.941370290852822"><ele>177.0</ele><time>2026-04-04T10:49:01.001Z</time></trkpt><trkpt lat="40.89325709970566" lon="8.94126305812919"><ele>177.0</ele><time>2026-04-04T10:49:03.001Z</time></trkpt><trkpt lat="40.893228201428045" lon="8.941174413869177"><ele>177.0</ele><time>2026-04-04T10:49:05.001Z</time></trkpt><trkpt lat="40.89317014834563" lon="8.941097725527111"><ele>177.0</ele><time>2026-04-04T10:49:07.001Z</time></trkpt><trkpt lat="40.8931112463791" lon="8.941040287261531"><ele>177.0</ele><time>2026-04-04T10:49:09.001Z</time></trkpt><trkpt lat="40.89307881137087" lon="8.940962034442467"><ele>177.0</ele><time>2026-04-04T10:49:11.001Z</time></trkpt><trkpt lat="40.89311073676533" lon="8.940794329908647"><ele>177.0</ele><time>2026-04-04T10:49:13.001Z</time></trkpt><trkpt lat="40.89313467327224" lon="8.940694794711305"><ele>178.39999999999998</ele><time>2026-04-04T10:49:14.001Z</time></trkpt><trkpt lat="40.893153969990145" lon="8.94058439912904"><ele>179.79999999999998</ele><time>2026-04-04T10:49:15.001Z</time></trkpt><trkpt lat="40.893174224793974" lon="8.940454733800063"><ele>181.2</ele><time>2026-04-04T10:49:16.001Z</time></trkpt><trkpt lat="40.89319874121863" lon="8.940315805509833"><ele>182.6</ele><time>2026-04-04T10:49:17.001Z</time></trkpt><trkpt lat="40.89322780578983" lon="8.940175644926617"><ele>184.0</ele><time>2026-04-04T10:49:18.001Z</time></trkpt><trkpt lat="40.89325944338534" lon="8.940029458238671"><ele>184.5</ele><time>2026-04-04T10:49:19.001Z</time></trkpt><trkpt lat="40.89329045497242" lon="8.939879743772437"><ele>185.0</ele><time>2026-04-04T10:49:20.001Z</time></trkpt><trkpt lat="40.893320969249814" lon="8.939727290833643"><ele>185.5</ele><time>2026-04-04T10:49:21.001Z</time></trkpt><trkpt lat="40.89335426262134" lon="8.939574138767451"><ele>186.0</ele><time>2026-04-04T10:49:22.001Z</time></trkpt><trkpt lat="40.893389382834656" lon="8.939422382347173"><ele>186.0</ele><time>2026-04-04T10:49:23.001Z</time></trkpt><trkpt lat="40.893419974117826" lon="8.939268458883769"><ele>186.0</ele><time>2026-04-04T10:49:24.001Z</time></trkpt><trkpt lat="40.89345080075609" lon="8.93911086587846"><ele>186.0</ele><time>2026-04-04T10:49:25.001Z</time></trkpt><trkpt lat="40.89348505677698" lon="8.93895658002106"><ele>186.0</ele><time>2026-04-04T10:49:26.001Z</time></trkpt><trkpt lat="40.89353433455505" lon="8.93881244972339"><ele>191.0</ele><time>2026-04-04T10:49:27.001Z</time></trkpt><trkpt lat="40.893593410290705" lon="8.938674281266216"><ele>196.0</ele><time>2026-04-04T10:49:28.001Z</time></trkpt><trkpt lat="40.893657033186145" lon="8.938538218401801"><ele>201.0</ele><time>2026-04-04T10:49:29.001Z</time></trkpt><trkpt lat="40.8937218651235" lon="8.938399056795133"><ele>206.0</ele><time>2026-04-04T10:49:30.001Z</time></trkpt><trkpt lat="40.893785416018275" lon="8.938260509231851"><ele>206.0</ele><time>2026-04-04T10:49:31.001Z</time></trkpt><trkpt lat="40.89385301542993" lon="8.93811604059112"><ele>206.0</ele><time>2026-04-04T10:49:32.001Z</time></trkpt><trkpt lat="40.893917759038175" lon="8.937965136102648"><ele>206.0</ele><time>2026-04-04T10:49:33.001Z</time></trkpt><trkpt lat="40.893977290124056" lon="8.937815908650464"><ele>206.0</ele><time>2026-04-04T10:49:34.001Z</time></trkpt><trkpt lat="40.89404146166255" lon="8.937681776607931"><ele>205.25</ele><time>2026-04-04T10:49:35.001Z</time></trkpt><trkpt lat="40.89408046902508" lon="8.937534795781094"><ele>204.5</ele><time>2026-04-04T10:49:36.001Z</time></trkpt><trkpt lat="40.894093972256194" lon="8.937373672812349"><ele>203.75</ele><time>2026-04-04T10:49:37.001Z</time></trkpt><trkpt lat="40.894074380924806" lon="8.937209410266263"><ele>203.0</ele><time>2026-04-04T10:49:38.001Z</time></trkpt><trkpt lat="40.894029101939786" lon="8.937051121820344"><ele>203.0</ele><time>2026-04-04T10:49:39.001Z</time></trkpt><trkpt lat="40.89394750566619" lon="8.936906563243765"><ele>203.0</ele><time>2026-04-04T10:49:40.001Z</time></trkpt><trkpt lat="40.89383567200303" lon="8.936777285125281"><ele>203.0</ele><time>2026-04-04T10:49:41.001Z</time></trkpt><trkpt lat="40.89371074932665" lon="8.936644354862302"><ele>203.0</ele><time>2026-04-04T10:49:42.001Z</time></trkpt><trkpt lat="40.89358488551004" lon="8.936512898806749"><ele>204.0</ele><time>2026-04-04T10:49:43.001Z</time></trkpt><trkpt lat="40.89347126624407" lon="8.936394690953811"><ele>205.0</ele><time>2026-04-04T10:49:44.001Z</time></trkpt><trkpt lat="40.89336429151021" lon="8.936283395914616"><ele>206.0</ele><time>2026-04-04T10:49:45.001Z</time></trkpt><trkpt lat="40.89327233290665" lon="8.936176981855057"><ele>207.0</ele><time>2026-04-04T10:49:46.001Z</time></trkpt><trkpt lat="40.89320225262284" lon="8.936057696795261"><ele>207.0</ele><time>2026-04-04T10:49:47.001Z</time></trkpt><trkpt lat="40.893155488231514" lon="8.93592760184447"><ele>207.0</ele><time>2026-04-04T10:49:48.001Z</time></trkpt><trkpt lat="40.89313522049524" lon="8.935791098195315"><ele>207.0</ele><time>2026-04-04T10:49:49.001Z</time></trkpt><trkpt lat="40.89314408713737" lon="8.935652717888441"><ele>207.0</ele><time>2026-04-04T10:49:50.001Z</time></trkpt><trkpt lat="40.89316073435771" lon="8.935515211488964"><ele>207.0</ele><time>2026-04-04T10:49:51.001Z</time></trkpt><trkpt lat="40.89321415339098" lon="8.93538956894876"><ele>209.25</ele><time>2026-04-04T10:49:52.001Z</time></trkpt><trkpt lat="40.893281361464034" lon="8.935274293123145"><ele>211.5</ele><time>2026-04-04T10:49:53.001Z</time></trkpt><trkpt lat="40.893364670617544" lon="8.935177984573379"><ele>213.75</ele><time>2026-04-04T10:49:54.001Z</time></trkpt><trkpt lat="40.893466177316895" lon="8.935105377182996"><ele>216.0</ele><time>2026-04-04T10:49:55.001Z</time></trkpt><trkpt lat="40.893577540500225" lon="8.935060230880888"><ele>218.75</ele><time>2026-04-04T10:49:56.001Z</time></trkpt><trkpt lat="40.89369394706897" lon="8.935031694224737"><ele>221.5</ele><time>2026-04-04T10:49:57.001Z</time></trkpt><trkpt lat="40.893813553132" lon="8.935013029538585"><ele>224.25</ele><time>2026-04-04T10:49:58.001Z</time></trkpt><trkpt lat="40.89393203987348" lon="8.934991668874137"><ele>227.0</ele><time>2026-04-04T10:49:59.001Z</time></trkpt><trkpt lat="40.8940511783837" lon="8.93496655009489"><ele>227.0</ele><time>2026-04-04T10:50:00.001Z</time></trkpt><trkpt lat="40.89416681956936" lon="8.934930358708066"><ele>227.0</ele><time>2026-04-04T10:50:01.001Z</time></trkpt><trkpt lat="40.89427379171572" lon="8.934865813915327"><ele>227.0</ele><time>2026-04-04T10:50:02.001Z</time></trkpt><trkpt lat="40.8943645446468" lon="8.934765977111054"><ele>227.0</ele><time>2026-04-04T10:50:03.002Z</time></trkpt><trkpt lat="40.89444575017355" lon="8.93465192373694"><ele>232.25</ele><time>2026-04-04T10:50:04.002Z</time></trkpt><trkpt lat="40.8944933159791" lon="8.93450410381797"><ele>237.5</ele><time>2026-04-04T10:50:05.002Z</time></trkpt><trkpt lat="40.89453202806908" lon="8.934356036441546"><ele>242.75</ele><time>2026-04-04T10:50:06.002Z</time></trkpt><trkpt lat="40.89457125996017" lon="8.934209467818818"><ele>248.0</ele><time>2026-04-04T10:50:07.002Z</time></trkpt><trkpt lat="40.89460724735222" lon="8.934075796761162"><ele>248.00000000000003</ele><time>2026-04-04T10:50:08.002Z</time></trkpt><trkpt lat="40.89463720671438" lon="8.93396578569861"><ele>248.0</ele><time>2026-04-04T10:50:09.002Z</time></trkpt><trkpt lat="40.89465938752877" lon="8.933884337525985"><ele>248.0</ele><time>2026-04-04T10:50:10.002Z</time></trkpt><trkpt lat="40.89469861980204" lon="8.933956790664528"><ele>248.0</ele><time>2026-04-04T10:50:14.002Z</time></trkpt><trkpt lat="40.894698613197264" lon="8.934053314670159"><ele>248.00000000000003</ele><time>2026-04-04T10:50:15.002Z</time></trkpt><trkpt lat="40.89469139678785" lon="8.934204695622494"><ele>248.0</ele><time>2026-04-04T10:50:17.002Z</time></trkpt><trkpt lat="40.89466327110991" lon="8.934329962892074"><ele>249.0</ele><time>2026-04-04T10:50:19Z</time></trkpt><trkpt lat="40.89460243005726" lon="8.934446314309541"><ele>250.0</ele><time>2026-04-04T10:50:21Z</time></trkpt><trkpt lat="40.89456320939776" lon="8.934604414862843"><ele>251.0</ele><time>2026-04-04T10:50:23Z</time></trkpt><trkpt lat="40.89454559064811" lon="8.93469459572134"><ele>252.0</ele><time>2026-04-04T10:50:24Z</time></trkpt><trkpt lat="40.8945351964981" lon="8.934798571851635"><ele>253.0</ele><time>2026-04-04T10:50:25Z</time></trkpt><trkpt lat="40.89452773432688" lon="8.934902691291787"><ele>252.99999999999997</ele><time>2026-04-04T10:50:26Z</time></trkpt><trkpt lat="40.89451971194129" lon="8.935005991402836"><ele>253.0</ele><time>2026-04-04T10:50:27Z</time></trkpt><trkpt lat="40.89450802581745" lon="8.935106634342779"><ele>253.0</ele><time>2026-04-04T10:50:28Z</time></trkpt><trkpt lat="40.89449851690295" lon="8.935201865815166"><ele>253.0</ele><time>2026-04-04T10:50:29Z</time></trkpt><trkpt lat="40.89449464338164" lon="8.935293298042467"><ele>252.99999999999997</ele><time>2026-04-04T10:50:30Z</time></trkpt><trkpt lat="40.894493983393886" lon="8.935378384600105"><ele>253.0</ele><time>2026-04-04T10:50:31Z</time></trkpt><trkpt lat="40.89447111371108" lon="8.93553116203371"><ele>252.25</ele><time>2026-04-04T10:50:33Z</time></trkpt><trkpt lat="40.894358431791225" lon="8.935598778902222"><ele>251.5</ele><time>2026-04-04T10:50:35Z</time></trkpt><trkpt lat="40.89424698134217" lon="8.935610520308424"><ele>250.75</ele><time>2026-04-04T10:50:37Z</time></trkpt><trkpt lat="40.89422334450208" lon="8.935770192700753"><ele>250.0</ele><time>2026-04-04T10:50:39.001Z</time></trkpt><trkpt lat="40.89430893355168" lon="8.935849745358599"><ele>248.2</ele><time>2026-04-04T10:50:40.001Z</time></trkpt><trkpt lat="40.89437116668775" lon="8.935905005243693"><ele>246.4</ele><time>2026-04-04T10:50:41.001Z</time></trkpt><trkpt lat="40.89445054583913" lon="8.935959804814118"><ele>244.60000000000002</ele><time>2026-04-04T10:50:42.001Z</time></trkpt><trkpt lat="40.89454772256738" lon="8.936026714435958"><ele>242.8</ele><time>2026-04-04T10:50:43.001Z</time></trkpt><trkpt lat="40.89463867070045" lon="8.936100378468188"><ele>241.0</ele><time>2026-04-04T10:50:44.001Z</time></trkpt><trkpt lat="40.89473209847973" lon="8.936178481452977"><ele>241.0</ele><time>2026-04-04T10:50:45.001Z</time></trkpt><trkpt lat="40.894823176670975" lon="8.93624744882135"><ele>241.00000000000003</ele><time>2026-04-04T10:50:46.001Z</time></trkpt><trkpt lat="40.8949158496938" lon="8.936326772043781"><ele>241.00000000000003</ele><time>2026-04-04T10:50:47.001Z</time></trkpt><trkpt lat="40.89501360920065" lon="8.936407691132024"><ele>241.0</ele><time>2026-04-04T10:50:48.001Z</time></trkpt><trkpt lat="40.89511182250319" lon="8.936487259007125"><ele>241.0</ele><time>2026-04-04T10:50:49.001Z</time></trkpt><trkpt lat="40.89520475962232" lon="8.936569490664194"><ele>244.25</ele><time>2026-04-04T10:50:50.001Z</time></trkpt><trkpt lat="40.89527513586985" lon="8.936657770511538"><ele>247.5</ele><time>2026-04-04T10:50:51.001Z</time></trkpt><trkpt lat="40.895340261148036" lon="8.936763837356247"><ele>250.75</ele><time>2026-04-04T10:50:52.001Z</time></trkpt><trkpt lat="40.895418630633024" lon="8.936905094827543"><ele>254.0</ele><time>2026-04-04T10:50:53.001Z</time></trkpt><trkpt lat="40.89552198535109" lon="8.93706423929186"><ele>254.0</ele><time>2026-04-04T10:50:54.001Z</time></trkpt><trkpt lat="40.89561899388472" lon="8.937222178470158"><ele>254.0</ele><time>2026-04-04T10:50:55.001Z</time></trkpt><trkpt lat="40.89574720508567" lon="8.937352923626234"><ele>254.0</ele><time>2026-04-04T10:50:56.001Z</time></trkpt><trkpt lat="40.89585628846336" lon="8.937488035248723"><ele>261.75</ele><time>2026-04-04T10:50:57.001Z</time></trkpt><trkpt lat="40.89594410120811" lon="8.937607438447536"><ele>269.5</ele><time>2026-04-04T10:50:58.001Z</time></trkpt><trkpt lat="40.89601911162695" lon="8.937741367859669"><ele>277.25</ele><time>2026-04-04T10:50:59.001Z</time></trkpt><trkpt lat="40.896072390010644" lon="8.937876248741732"><ele>285.0</ele><time>2026-04-04T10:51:00.001Z</time></trkpt><trkpt lat="40.896112856408955" lon="8.938015405087583"><ele>285.0</ele><time>2026-04-04T10:51:01.001Z</time></trkpt><trkpt lat="40.89616278706579" lon="8.938157650045337"><ele>285.0</ele><time>2026-04-04T10:51:02.001Z</time></trkpt><trkpt lat="40.89624771465453" lon="8.938299483320574"><ele>285.0</ele><time>2026-04-04T10:51:03.001Z</time></trkpt><trkpt lat="40.89632679504573" lon="8.938454473775925"><ele>285.0</ele><time>2026-04-04T10:51:04.001Z</time></trkpt><trkpt lat="40.89637884302386" lon="8.938614402917937"><ele>282.2</ele><time>2026-04-04T10:51:05.001Z</time></trkpt><trkpt lat="40.89641301086169" lon="8.93875737529048"><ele>279.4</ele><time>2026-04-04T10:51:06.001Z</time></trkpt><trkpt lat="40.89644460981813" lon="8.938882654539247"><ele>276.6</ele><time>2026-04-04T10:51:07.001Z</time></trkpt><trkpt lat="40.896492108824575" lon="8.93898454530941"><ele>273.8</ele><time>2026-04-04T10:51:08.001Z</time></trkpt><trkpt lat="40.89655356229508" lon="8.939075006315244"><ele>271.0</ele><time>2026-04-04T10:51:09.001Z</time></trkpt><trkpt lat="40.89660083082026" lon="8.9391469362047"><ele>274.0</ele><time>2026-04-04T10:51:10.001Z</time></trkpt><trkpt lat="40.89660712964071" lon="8.93927828355694"><ele>277.0</ele><time>2026-04-04T10:51:12.001Z</time></trkpt><trkpt lat="40.89649512255361" lon="8.93934728994334"><ele>280.0</ele><time>2026-04-04T10:51:14.001Z</time></trkpt><trkpt lat="40.89641760488434" lon="8.939389135223914"><ele>283.0</ele><time>2026-04-04T10:51:15.001Z</time></trkpt><trkpt lat="40.89634296756121" lon="8.939449949711957"><ele>286.0</ele><time>2026-04-04T10:51:16.001Z</time></trkpt><trkpt lat="40.896252427182596" lon="8.939467914765475"><ele>286.0</ele><time>2026-04-04T10:51:17.001Z</time></trkpt><trkpt lat="40.89616436034643" lon="8.939498940366619"><ele>286.0</ele><time>2026-04-04T10:51:18.001Z</time></trkpt><trkpt lat="40.89607098639845" lon="8.939513427877772"><ele>286.0</ele><time>2026-04-04T10:51:19.001Z</time></trkpt><trkpt lat="40.89595879969128" lon="8.939495947595352"><ele>286.0</ele><time>2026-04-04T10:51:20.001Z</time></trkpt><trkpt lat="40.89585026331105" lon="8.93950281717912"><ele>286.0</ele><time>2026-04-04T10:51:21.001Z</time></trkpt><trkpt lat="40.895744392336574" lon="8.93955140976815"><ele>285.0</ele><time>2026-04-04T10:51:22.001Z</time></trkpt><trkpt lat="40.895648640731594" lon="8.93960445859061"><ele>284.0</ele><time>2026-04-04T10:51:23.001Z</time></trkpt><trkpt lat="40.89555062685169" lon="8.939684992236238"><ele>283.0</ele><time>2026-04-04T10:51:24.001Z</time></trkpt><trkpt lat="40.8954410344551" lon="8.939741159176187"><ele>282.0</ele><time>2026-04-04T10:51:25.001Z</time></trkpt><trkpt lat="40.89538684503251" lon="8.93983641989773"><ele>281.0</ele><time>2026-04-04T10:51:26.001Z</time></trkpt><trkpt lat="40.89535982349732" lon="8.939960651100217"><ele>281.0</ele><time>2026-04-04T10:51:28.001Z</time></trkpt><trkpt lat="40.89538925874616" lon="8.940047182991012"><ele>281.0</ele><time>2026-04-04T10:51:29.001Z</time></trkpt><trkpt lat="40.89541541006106" lon="8.940165976090078"><ele>281.0</ele><time>2026-04-04T10:51:30.001Z</time></trkpt><trkpt lat="40.89543035961722" lon="8.940307448674558"><ele>281.0</ele><time>2026-04-04T10:51:31.001Z</time></trkpt><trkpt lat="40.895447125176425" lon="8.940476422642195"><ele>281.0</ele><time>2026-04-04T10:51:32.001Z</time></trkpt><trkpt lat="40.89546910010898" lon="8.940670644715436"><ele>284.40000000000003</ele><time>2026-04-04T10:51:33.001Z</time></trkpt><trkpt lat="40.895494227299174" lon="8.940840563571138"><ele>287.8</ele><time>2026-04-04T10:51:34.001Z</time></trkpt><trkpt lat="40.89550628461642" lon="8.940965499157524"><ele>291.20000000000005</ele><time>2026-04-04T10:51:35.001Z</time></trkpt><trkpt lat="40.89550701709134" lon="8.941099652078591"><ele>294.6</ele><time>2026-04-04T10:51:36.001Z</time></trkpt><trkpt lat="40.89550761250701" lon="8.94124060030941"><ele>298.0</ele><time>2026-04-04T10:51:37.001Z</time></trkpt><trkpt lat="40.89551451577323" lon="8.941381540268933"><ele>298.25</ele><time>2026-04-04T10:51:38.001Z</time></trkpt><trkpt lat="40.89553049256135" lon="8.941540471267322"><ele>298.5</ele><time>2026-04-04T10:51:39.001Z</time></trkpt><trkpt lat="40.895558720808" lon="8.941720140295615"><ele>298.75</ele><time>2026-04-04T10:51:40.001Z</time></trkpt><trkpt lat="40.89559394898105" lon="8.941903975204854"><ele>299.0</ele><time>2026-04-04T10:51:41.001Z</time></trkpt><trkpt lat="40.89563550088925" lon="8.942082055919808"><ele>298.0</ele><time>2026-04-04T10:51:42.001Z</time></trkpt><trkpt lat="40.895682668910354" lon="8.9422403408096"><ele>297.0</ele><time>2026-04-04T10:51:43.001Z</time></trkpt><trkpt lat="40.89572744577166" lon="8.942396233073104"><ele>296.0</ele><time>2026-04-04T10:51:44.001Z</time></trkpt><trkpt lat="40.89577881660514" lon="8.942547874369932"><ele>295.0</ele><time>2026-04-04T10:51:45.001Z</time></trkpt><trkpt lat="40.89583107475167" lon="8.942704047136388"><ele>295.0</ele><time>2026-04-04T10:51:46.001Z</time></trkpt><trkpt lat="40.89587188046755" lon="8.94285206233041"><ele>295.0</ele><time>2026-04-04T10:51:47.001Z</time></trkpt><trkpt lat="40.89590437129885" lon="8.943007361722447"><ele>295.0</ele><time>2026-04-04T10:51:48.001Z</time></trkpt><trkpt lat="40.89592069712761" lon="8.943177443297502"><ele>295.0</ele><time>2026-04-04T10:51:49.001Z</time></trkpt><trkpt lat="40.89592968770471" lon="8.94333622437279"><ele>297.6</ele><time>2026-04-04T10:51:50.001Z</time></trkpt><trkpt lat="40.895909927703784" lon="8.94346263102074"><ele>300.2</ele><time>2026-04-04T10:51:51.001Z</time></trkpt><trkpt lat="40.89589306663369" lon="8.943579248543369"><ele>302.8</ele><time>2026-04-04T10:51:52.001Z</time></trkpt><trkpt lat="40.895820937875314" lon="8.943668604471812"><ele>305.4</ele><time>2026-04-04T10:51:53.001Z</time></trkpt><trkpt lat="40.89578951127266" lon="8.943765819591764"><ele>308.0</ele><time>2026-04-04T10:51:54.001Z</time></trkpt><trkpt lat="40.89576145495002" lon="8.943870831028331"><ele>308.0</ele><time>2026-04-04T10:51:55.001Z</time></trkpt><trkpt lat="40.895724210321504" lon="8.943990817480945"><ele>308.0</ele><time>2026-04-04T10:51:56.001Z</time></trkpt><trkpt lat="40.89570576726276" lon="8.944151463930824"><ele>308.0</ele><time>2026-04-04T10:51:57.001Z</time></trkpt><trkpt lat="40.895694385153476" lon="8.944326870811068"><ele>308.0</ele><time>2026-04-04T10:51:58.001Z</time></trkpt><trkpt lat="40.89569896652796" lon="8.944508435818808"><ele>307.75</ele><time>2026-04-04T10:51:59.001Z</time></trkpt><trkpt lat="40.89570829538228" lon="8.944659043560886"><ele>307.5</ele><time>2026-04-04T10:52:00.001Z</time></trkpt><trkpt lat="40.89573481914511" lon="8.944794955720969"><ele>307.25</ele><time>2026-04-04T10:52:01.001Z</time></trkpt><trkpt lat="40.895780027488875" lon="8.94492139944464"><ele>307.0</ele><time>2026-04-04T10:52:02.001Z</time></trkpt><trkpt lat="40.895855486357114" lon="8.945059611033345"><ele>304.0</ele><time>2026-04-04T10:52:03.001Z</time></trkpt><trkpt lat="40.89594122916462" lon="8.945205632402944"><ele>301.0</ele><time>2026-04-04T10:52:04.001Z</time></trkpt><trkpt lat="40.89601724798527" lon="8.945367399977666"><ele>298.0</ele><time>2026-04-04T10:52:05.001Z</time></trkpt><trkpt lat="40.896060076773985" lon="8.94549556206632"><ele>295.0</ele><time>2026-04-04T10:52:06.001Z</time></trkpt><trkpt lat="40.89614805746811" lon="8.945557543435203"><ele>295.0</ele><time>2026-04-04T10:52:08.001Z</time></trkpt><trkpt lat="40.89626952909482" lon="8.945509993840773"><ele>295.0</ele><time>2026-04-04T10:52:10.002Z</time></trkpt><trkpt lat="40.89636075509719" lon="8.945427099751747"><ele>295.0</ele><time>2026-04-04T10:52:11.002Z</time></trkpt><trkpt lat="40.89647028917706" lon="8.945308823425325"><ele>295.0</ele><time>2026-04-04T10:52:12.002Z</time></trkpt><trkpt lat="40.896578222826896" lon="8.945197954234326"><ele>295.0</ele><time>2026-04-04T10:52:13.002Z</time></trkpt><trkpt lat="40.89667090323881" lon="8.945127401493654"><ele>295.0</ele><time>2026-04-04T10:52:14.002Z</time></trkpt><trkpt lat="40.896792266000304" lon="8.945069518809822"><ele>295.0</ele><time>2026-04-04T10:52:15.002Z</time></trkpt><trkpt lat="40.89691651646428" lon="8.945034566143988"><ele>295.0</ele><time>2026-04-04T10:52:16.002Z</time></trkpt><trkpt lat="40.89704240075663" lon="8.944994695448994"><ele>299.8</ele><time>2026-04-04T10:52:17.002Z</time></trkpt><trkpt lat="40.897150465461166" lon="8.944984539988052"><ele>304.6</ele><time>2026-04-04T10:52:18.002Z</time></trkpt><trkpt lat="40.89725183881866" lon="8.945012789410333"><ele>309.4</ele><time>2026-04-04T10:52:19.002Z</time></trkpt><trkpt lat="40.897360107611796" lon="8.945065849645935"><ele>314.2</ele><time>2026-04-04T10:52:20.002Z</time></trkpt><trkpt lat="40.89746637297645" lon="8.945117872235183"><ele>319.0</ele><time>2026-04-04T10:52:21.002Z</time></trkpt><trkpt lat="40.89755294721428" lon="8.94516812062519"><ele>319.0</ele><time>2026-04-04T10:52:22.002Z</time></trkpt><trkpt lat="40.89759372428318" lon="8.945267737388477"><ele>319.0</ele><time>2026-04-04T10:52:24.002Z</time></trkpt><trkpt lat="40.89751834165682" lon="8.94538367464442"><ele>319.0</ele><time>2026-04-04T10:52:26Z</time></trkpt><trkpt lat="40.897475879287114" lon="8.945471592491332"><ele>319.0</ele><time>2026-04-04T10:52:27Z</time></trkpt><trkpt lat="40.89744335767608" lon="8.94555945698058"><ele>319.0</ele><time>2026-04-04T10:52:28Z</time></trkpt><trkpt lat="40.89741247676626" lon="8.94567244336088"><ele>319.0</ele><time>2026-04-04T10:52:29Z</time></trkpt><trkpt lat="40.8974004674752" lon="8.94581043909403"><ele>319.79999999999995</ele><time>2026-04-04T10:52:30Z</time></trkpt><trkpt lat="40.89739736587165" lon="8.945929275758356"><ele>320.59999999999997</ele><time>2026-04-04T10:52:31Z</time></trkpt><trkpt lat="40.89741872989296" lon="8.946032410320768"><ele>321.4</ele><time>2026-04-04T10:52:32Z</time></trkpt><trkpt lat="40.89741409867975" lon="8.946170078467578"><ele>322.2</ele><time>2026-04-04T10:52:33Z</time></trkpt><trkpt lat="40.897424220895964" lon="8.946333784549795"><ele>323.0</ele><time>2026-04-04T10:52:34Z</time></trkpt><trkpt lat="40.89746897903153" lon="8.94650561278285"><ele>323.0</ele><time>2026-04-04T10:52:35Z</time></trkpt><trkpt lat="40.89750185856845" lon="8.946663550744033"><ele>323.0</ele><time>2026-04-04T10:52:36Z</time></trkpt><trkpt lat="40.89754175674585" lon="8.94679438451065"><ele>323.0</ele><time>2026-04-04T10:52:37Z</time></trkpt><trkpt lat="40.89760805457094" lon="8.946914653453561"><ele>323.0</ele><time>2026-04-04T10:52:38Z</time></trkpt><trkpt lat="40.89766502708861" lon="8.947009482168236"><ele>323.0</ele><time>2026-04-04T10:52:39Z</time></trkpt><trkpt lat="40.89771978468811" lon="8.947106246598304"><ele>324.4</ele><time>2026-04-04T10:52:40Z</time></trkpt><trkpt lat="40.89780519236426" lon="8.947180256448743"><ele>325.79999999999995</ele><time>2026-04-04T10:52:41Z</time></trkpt><trkpt lat="40.89790419484455" lon="8.947202430505287"><ele>327.2</ele><time>2026-04-04T10:52:42Z</time></trkpt><trkpt lat="40.898020258979635" lon="8.947202733062033"><ele>328.6</ele><time>2026-04-04T10:52:43.001Z</time></trkpt><trkpt lat="40.898121785511535" lon="8.947231701905302"><ele>330.0</ele><time>2026-04-04T10:52:44.001Z</time></trkpt><trkpt lat="40.898224254283456" lon="8.947233274801027"><ele>330.0</ele><time>2026-04-04T10:52:45.001Z</time></trkpt><trkpt lat="40.89830185135784" lon="8.947270001920836"><ele>330.0</ele><time>2026-04-04T10:52:46.001Z</time></trkpt><trkpt lat="40.898382240330754" lon="8.94733143456648"><ele>330.0</ele><time>2026-04-04T10:52:47.001Z</time></trkpt><trkpt lat="40.898466848882336" lon="8.94743340090802"><ele>330.0</ele><time>2026-04-04T10:52:48.001Z</time></trkpt><trkpt lat="40.89855756764898" lon="8.947565946789066"><ele>330.0</ele><time>2026-04-04T10:52:49.001Z</time></trkpt><trkpt lat="40.89863781051956" lon="8.947695525599762"><ele>329.8</ele><time>2026-04-04T10:52:50.001Z</time></trkpt><trkpt lat="40.8987034169438" lon="8.947811052034869"><ele>329.6</ele><time>2026-04-04T10:52:51.001Z</time></trkpt><trkpt lat="40.89874908536902" lon="8.947907312852557"><ele>329.4</ele><time>2026-04-04T10:52:52.001Z</time></trkpt><trkpt lat="40.8988092277971" lon="8.94798607781814"><ele>329.2</ele><time>2026-04-04T10:52:53.001Z</time></trkpt><trkpt lat="40.89888520159971" lon="8.948058209309592"><ele>329.0</ele><time>2026-04-04T10:52:54.001Z</time></trkpt><trkpt lat="40.89898648734131" lon="8.9481139078402"><ele>329.0</ele><time>2026-04-04T10:52:55.001Z</time></trkpt><trkpt lat="40.899106324688354" lon="8.948156665959518"><ele>329.0</ele><time>2026-04-04T10:52:56.001Z</time></trkpt><trkpt lat="40.89922040655836" lon="8.948200599650626"><ele>329.0</ele><time>2026-04-04T10:52:57.001Z</time></trkpt><trkpt lat="40.899329459469605" lon="8.948246201657899"><ele>329.0</ele><time>2026-04-04T10:52:58.001Z</time></trkpt><trkpt lat="40.89941730480517" lon="8.948248079657432"><ele>329.0</ele><time>2026-04-04T10:52:59.001Z</time></trkpt><trkpt lat="40.89950334878514" lon="8.948261616628931"><ele>327.6</ele><time>2026-04-04T10:53:00.001Z</time></trkpt><trkpt lat="40.89958585523887" lon="8.948292425776062"><ele>326.2</ele><time>2026-04-04T10:53:01.001Z</time></trkpt><trkpt lat="40.89966333273854" lon="8.948353470565683"><ele>324.8</ele><time>2026-04-04T10:53:02.001Z</time></trkpt><trkpt lat="40.8997461409993" lon="8.9484449826632"><ele>323.40000000000003</ele><time>2026-04-04T10:53:03.001Z</time></trkpt><trkpt lat="40.899845507987415" lon="8.948586914995392"><ele>322.0</ele><time>2026-04-04T10:53:04.001Z</time></trkpt><trkpt lat="40.89996378400012" lon="8.948737415038329"><ele>322.0</ele><time>2026-04-04T10:53:05.001Z</time></trkpt><trkpt lat="40.90007047881154" lon="8.94889097376853"><ele>322.0</ele><time>2026-04-04T10:53:06.001Z</time></trkpt><trkpt lat="40.9001545009053" lon="8.94900358457312"><ele>322.0</ele><time>2026-04-04T10:53:07.001Z</time></trkpt><trkpt lat="40.900229240333495" lon="8.949083352211119"><ele>322.0</ele><time>2026-04-04T10:53:08.001Z</time></trkpt><trkpt lat="40.900339547315745" lon="8.9491072791804"><ele>328.0</ele><time>2026-04-04T10:53:10.001Z</time></trkpt><trkpt lat="40.900454584962645" lon="8.949059178954208"><ele>334.0</ele><time>2026-04-04T10:53:11.001Z</time></trkpt><trkpt lat="40.90059394602978" lon="8.949035291270864"><ele>340.0</ele><time>2026-04-04T10:53:12.001Z</time></trkpt><trkpt lat="40.900706896664275" lon="8.949085014669594"><ele>346.0</ele><time>2026-04-04T10:53:13.001Z</time></trkpt><trkpt lat="40.90081508427418" lon="8.949129777255752"><ele>345.5</ele><time>2026-04-04T10:53:14.001Z</time></trkpt><trkpt lat="40.90094112860906" lon="8.949186411444918"><ele>345.0</ele><time>2026-04-04T10:53:15.001Z</time></trkpt><trkpt lat="40.9010758650502" lon="8.949218424720275"><ele>344.5</ele><time>2026-04-04T10:53:16.001Z</time></trkpt><trkpt lat="40.901199714233115" lon="8.949261468238197"><ele>344.0</ele><time>2026-04-04T10:53:17.001Z</time></trkpt><trkpt lat="40.90134637835855" lon="8.949296695797221"><ele>344.0</ele><time>2026-04-04T10:53:18.001Z</time></trkpt><trkpt lat="40.90145787384407" lon="8.949310645731961"><ele>344.0</ele><time>2026-04-04T10:53:19.001Z</time></trkpt><trkpt lat="40.90154669341089" lon="8.949270763523343"><ele>344.0</ele><time>2026-04-04T10:53:21.001Z</time></trkpt><trkpt lat="40.90159098207666" lon="8.949197965751784"><ele>344.0</ele><time>2026-04-04T10:53:30.001Z</time></trkpt><trkpt lat="40.90164875178366" lon="8.949125009519443"><ele>344.0</ele><time>2026-04-04T10:53:36.001Z</time></trkpt><trkpt lat="40.901716436432174" lon="8.949027329693577"><ele>351.79999999999995</ele><time>2026-04-04T10:53:38.001Z</time></trkpt><trkpt lat="40.901789936636725" lon="8.948962210960849"><ele>359.59999999999997</ele><time>2026-04-04T10:53:40.001Z</time></trkpt><trkpt lat="40.90185645535724" lon="8.948971461287826"><ele>367.4</ele><time>2026-04-04T10:53:43.001Z</time></trkpt><trkpt lat="40.90190782097014" lon="8.949112403748641"><ele>375.2</ele><time>2026-04-04T10:53:45.001Z</time></trkpt><trkpt lat="40.901917704500526" lon="8.949231879846408"><ele>383.0</ele><time>2026-04-04T10:53:46.001Z</time></trkpt><trkpt lat="40.901948611394225" lon="8.949346381130404"><ele>383.0</ele><time>2026-04-04T10:53:47.001Z</time></trkpt><trkpt lat="40.90200704591682" lon="8.949478080968612"><ele>383.0</ele><time>2026-04-04T10:53:48.001Z</time></trkpt><trkpt lat="40.9020807532187" lon="8.94962876794384"><ele>383.0</ele><time>2026-04-04T10:53:49.001Z</time></trkpt><trkpt lat="40.902128720651966" lon="8.949759431906585"><ele>383.0</ele><time>2026-04-04T10:53:50.001Z</time></trkpt><trkpt lat="40.90213943234661" lon="8.949853880274672"><ele>383.0</ele><time>2026-04-04T10:53:51.001Z</time></trkpt><trkpt lat="40.902124940015206" lon="8.949969230504154"><ele>382.4</ele><time>2026-04-04T10:53:52.001Z</time></trkpt><trkpt lat="40.90212098943522" lon="8.950115116958536"><ele>381.79999999999995</ele><time>2026-04-04T10:53:53.001Z</time></trkpt><trkpt lat="40.90214213314505" lon="8.950272581590154"><ele>381.2</ele><time>2026-04-04T10:53:54.001Z</time></trkpt><trkpt lat="40.90217186431411" lon="8.950402858382827"><ele>380.6</ele><time>2026-04-04T10:53:55.001Z</time></trkpt><trkpt lat="40.90214530606091" lon="8.95049874389883"><ele>380.0</ele><time>2026-04-04T10:53:56.001Z</time></trkpt><trkpt lat="40.902084368261605" lon="8.950637136357189"><ele>380.0</ele><time>2026-04-04T10:53:57.001Z</time></trkpt><trkpt lat="40.90203923714663" lon="8.950772287562225"><ele>380.0</ele><time>2026-04-04T10:53:58.001Z</time></trkpt><trkpt lat="40.902086338639215" lon="8.950926700004715"><ele>380.0</ele><time>2026-04-04T10:54:00.001Z</time></trkpt><trkpt lat="40.90214779191546" lon="8.950994993418323"><ele>380.0</ele><time>2026-04-04T10:54:01.001Z</time></trkpt><trkpt lat="40.90221722200681" lon="8.95105227261101"><ele>380.0</ele><time>2026-04-04T10:54:02.001Z</time></trkpt><trkpt lat="40.9023069088489" lon="8.95111809179452"><ele>382.5</ele><time>2026-04-04T10:54:03.001Z</time></trkpt><trkpt lat="40.90240693111536" lon="8.951174237000656"><ele>385.0</ele><time>2026-04-04T10:54:04.001Z</time></trkpt><trkpt lat="40.90253858224077" lon="8.951238608950822"><ele>387.5</ele><time>2026-04-04T10:54:05.001Z</time></trkpt><trkpt lat="40.9026558053079" lon="8.9513291072935"><ele>390.0</ele><time>2026-04-04T10:54:06.001Z</time></trkpt><trkpt lat="40.902736580070226" lon="8.951406815302457"><ele>390.0</ele><time>2026-04-04T10:54:07.001Z</time></trkpt><trkpt lat="40.90278464110438" lon="8.951470793948298"><ele>390.0</ele><time>2026-04-04T10:54:08.001Z</time></trkpt><trkpt lat="40.90281451199014" lon="8.951561822023635"><ele>390.0</ele><time>2026-04-04T10:54:09.001Z</time></trkpt><trkpt lat="40.90282019909339" lon="8.951675891197615"><ele>390.0</ele><time>2026-04-04T10:54:10.001Z</time></trkpt><trkpt lat="40.90279541190414" lon="8.951823996743045"><ele>390.0</ele><time>2026-04-04T10:54:11.001Z</time></trkpt><trkpt lat="40.902767462378456" lon="8.951953115951707"><ele>390.0</ele><time>2026-04-04T10:54:12.001Z</time></trkpt><trkpt lat="40.90278617550161" lon="8.952058082399262"><ele>384.75</ele><time>2026-04-04T10:54:13.001Z</time></trkpt><trkpt lat="40.90288308220152" lon="8.95211880638768"><ele>379.5</ele><time>2026-04-04T10:54:15.001Z</time></trkpt><trkpt lat="40.90297933226427" lon="8.952123202439019"><ele>374.25</ele><time>2026-04-04T10:54:16.002Z</time></trkpt><trkpt lat="40.903115353266415" lon="8.952138726166895"><ele>369.0</ele><time>2026-04-04T10:54:17.002Z</time></trkpt><trkpt lat="40.90325408575142" lon="8.952164351568134"><ele>369.0</ele><time>2026-04-04T10:54:18.002Z</time></trkpt><trkpt lat="40.90336188134797" lon="8.952200379700354"><ele>369.0</ele><time>2026-04-04T10:54:19.002Z</time></trkpt><trkpt lat="40.90346110024402" lon="8.952250867080119"><ele>369.0</ele><time>2026-04-04T10:54:20.002Z</time></trkpt><trkpt lat="40.90355291530438" lon="8.952306336374676"><ele>369.0</ele><time>2026-04-04T10:54:21.002Z</time></trkpt><trkpt lat="40.90362763544302" lon="8.952321939228495"><ele>369.0</ele><time>2026-04-04T10:54:22.002Z</time></trkpt><trkpt lat="40.90371869747826" lon="8.952327049032302"><ele>371.0</ele><time>2026-04-04T10:54:23.002Z</time></trkpt><trkpt lat="40.90379948847934" lon="8.952312488339562"><ele>373.0</ele><time>2026-04-04T10:54:24.002Z</time></trkpt><trkpt lat="40.90387319137558" lon="8.95231918481457"><ele>375.0</ele><time>2026-04-04T10:54:25.002Z</time></trkpt><trkpt lat="40.904002977706796" lon="8.952431598569015"><ele>377.0</ele><time>2026-04-04T10:54:27.002Z</time></trkpt><trkpt lat="40.90409824946669" lon="8.952529295940977"><ele>379.0</ele><time>2026-04-04T10:54:28.002Z</time></trkpt><trkpt lat="40.90420308274184" lon="8.952585990330187"><ele>386.79999999999995</ele><time>2026-04-04T10:54:29.002Z</time></trkpt><trkpt lat="40.90431497119003" lon="8.95262085238563"><ele>394.59999999999997</ele><time>2026-04-04T10:54:30.002Z</time></trkpt><trkpt lat="40.9044000546773" lon="8.952668142935625"><ele>402.4</ele><time>2026-04-04T10:54:31Z</time></trkpt><trkpt lat="40.904436128360075" lon="8.952739587419822"><ele>410.2</ele><time>2026-04-04T10:54:33Z</time></trkpt><trkpt lat="40.904347363720255" lon="8.952834639134371"><ele>418.0</ele><time>2026-04-04T10:54:35Z</time></trkpt><trkpt lat="40.90424855114795" lon="8.952842535965253"><ele>415.2</ele><time>2026-04-04T10:54:36Z</time></trkpt><trkpt lat="40.904129103098086" lon="8.95287083171998"><ele>412.4</ele><time>2026-04-04T10:54:37Z</time></trkpt><trkpt lat="40.90402326643818" lon="8.952939719531063"><ele>409.59999999999997</ele><time>2026-04-04T10:54:38Z</time></trkpt><trkpt lat="40.903954052911246" lon="8.953005976264633"><ele>406.79999999999995</ele><time>2026-04-04T10:54:39Z</time></trkpt><trkpt lat="40.903878260119924" lon="8.953076458209138"><ele>404.0</ele><time>2026-04-04T10:54:40Z</time></trkpt><trkpt lat="40.90378098689083" lon="8.953166727389068"><ele>404.0</ele><time>2026-04-04T10:54:41Z</time></trkpt><trkpt lat="40.903689800850316" lon="8.953273770730796"><ele>404.0</ele><time>2026-04-04T10:54:42Z</time></trkpt><trkpt lat="40.90360900715553" lon="8.953386982925691"><ele>404.0</ele><time>2026-04-04T10:54:43Z</time></trkpt><trkpt lat="40.90351321094755" lon="8.953477812235413"><ele>404.0</ele><time>2026-04-04T10:54:44Z</time></trkpt><trkpt lat="40.90339490712309" lon="8.953568811165404"><ele>408.0</ele><time>2026-04-04T10:54:45Z</time></trkpt><trkpt lat="40.903271146114825" lon="8.953634397103636"><ele>412.0</ele><time>2026-04-04T10:54:46Z</time></trkpt><trkpt lat="40.90315226007805" lon="8.953679651664894"><ele>416.0</ele><time>2026-04-04T10:54:47Z</time></trkpt><trkpt lat="40.9030230934096" lon="8.95373069813832"><ele>420.0</ele><time>2026-04-04T10:54:48Z</time></trkpt><trkpt lat="40.90288864091159" lon="8.953762884619737"><ele>420.0</ele><time>2026-04-04T10:54:49Z</time></trkpt><trkpt lat="40.90273048001996" lon="8.95381099079475"><ele>420.0</ele><time>2026-04-04T10:54:50.001Z</time></trkpt><trkpt lat="40.90261082230353" lon="8.953846876548118"><ele>420.0</ele><time>2026-04-04T10:54:51.001Z</time></trkpt><trkpt lat="40.90249205460135" lon="8.95386393389986"><ele>420.0</ele><time>2026-04-04T10:54:52.001Z</time></trkpt><trkpt lat="40.90237576473402" lon="8.953867653356017"><ele>420.2</ele><time>2026-04-04T10:54:53.001Z</time></trkpt><trkpt lat="40.90226106400171" lon="8.953876040360871"><ele>420.4</ele><time>2026-04-04T10:54:54.001Z</time></trkpt><trkpt lat="40.902170009468726" lon="8.953874598541482"><ele>420.6</ele><time>2026-04-04T10:54:55.001Z</time></trkpt><trkpt lat="40.90208933646123" lon="8.953852243900537"><ele>420.8</ele><time>2026-04-04T10:54:56.001Z</time></trkpt><trkpt lat="40.902005888523796" lon="8.953844579615062"><ele>421.0</ele><time>2026-04-04T10:54:57.001Z</time></trkpt><trkpt lat="40.901911667939686" lon="8.953836323486193"><ele>421.0</ele><time>2026-04-04T10:54:58.001Z</time></trkpt><trkpt lat="40.90180232470128" lon="8.953849087994483"><ele>421.0</ele><time>2026-04-04T10:54:59.001Z</time></trkpt><trkpt lat="40.90170602352564" lon="8.953870357915378"><ele>421.0</ele><time>2026-04-04T10:55:00.001Z</time></trkpt><trkpt lat="40.90160380595388" lon="8.953895452348851"><ele>421.0</ele><time>2026-04-04T10:55:01.001Z</time></trkpt><trkpt lat="40.90153074962659" lon="8.953902908869173"><ele>421.0</ele><time>2026-04-04T10:55:02.001Z</time></trkpt><trkpt lat="40.90154705634591" lon="8.954011372601016"><ele>421.00000000000006</ele><time>2026-04-04T10:55:05.001Z</time></trkpt><trkpt lat="40.901608218575404" lon="8.954055898900439"><ele>421.0</ele><time>2026-04-04T10:55:07.001Z</time></trkpt><trkpt lat="40.901671555172435" lon="8.954073967014395"><ele>421.0</ele><time>2026-04-04T10:55:08.001Z</time></trkpt><trkpt lat="40.90175417434077" lon="8.954134189109658"><ele>421.0</ele><time>2026-04-04T10:55:09.001Z</time></trkpt><trkpt lat="40.90184825461757" lon="8.954197711298022"><ele>421.00000000000006</ele><time>2026-04-04T10:55:10.001Z</time></trkpt><trkpt lat="40.90193000454156" lon="8.954277235556813"><ele>421.0</ele><time>2026-04-04T10:55:11.001Z</time></trkpt><trkpt lat="40.90200519724373" lon="8.954338413089816"><ele>421.1666666666667</ele><time>2026-04-04T10:55:12.001Z</time></trkpt><trkpt lat="40.902050725703376" lon="8.954400908526285"><ele>421.33333333333337</ele><time>2026-04-04T10:55:13.001Z</time></trkpt><trkpt lat="40.90208826780074" lon="8.954475662123402"><ele>421.5</ele><time>2026-04-04T10:55:14.001Z</time></trkpt><trkpt lat="40.90212313758916" lon="8.954560602593816"><ele>421.66666666666663</ele><time>2026-04-04T10:55:15.001Z</time></trkpt><trkpt lat="40.902156583843755" lon="8.954636728759207"><ele>421.8333333333333</ele><time>2026-04-04T10:55:16.001Z</time></trkpt><trkpt lat="40.90227097926253" lon="8.954735168351656"><ele>422.0</ele><time>2026-04-04T10:55:18.001Z</time></trkpt><trkpt lat="40.90236994107058" lon="8.954760536933597"><ele>422.0</ele><time>2026-04-04T10:55:19.001Z</time></trkpt><trkpt lat="40.90250749241529" lon="8.954763421812554"><ele>422.0</ele><time>2026-04-04T10:55:20.001Z</time></trkpt><trkpt lat="40.90268124177935" lon="8.954760431710055"><ele>422.0</ele><time>2026-04-04T10:55:21.001Z</time></trkpt><trkpt lat="40.90286250633986" lon="8.954767590386405"><ele>423.66666666666663</ele><time>2026-04-04T10:55:22.001Z</time></trkpt><trkpt lat="40.90303596263512" lon="8.954778915953181"><ele>425.33333333333337</ele><time>2026-04-04T10:55:23.001Z</time></trkpt><trkpt lat="40.90319214953782" lon="8.954788129638418"><ele>427.0</ele><time>2026-04-04T10:55:24.001Z</time></trkpt><trkpt lat="40.903337386862404" lon="8.95479153212716"><ele>432.5</ele><time>2026-04-04T10:55:25.001Z</time></trkpt><trkpt lat="40.903471383868215" lon="8.954798704754829"><ele>438.0</ele><time>2026-04-04T10:55:26.001Z</time></trkpt><trkpt lat="40.90359135763889" lon="8.954817322772627"><ele>443.5</ele><time>2026-04-04T10:55:27.001Z</time></trkpt><trkpt lat="40.90370039810627" lon="8.95483881767191"><ele>449.0</ele><time>2026-04-04T10:55:28.001Z</time></trkpt><trkpt lat="40.90379918348198" lon="8.954844820268173"><ele>449.0</ele><time>2026-04-04T10:55:29.001Z</time></trkpt><trkpt lat="40.90388902435144" lon="8.954866768444774"><ele>449.0</ele><time>2026-04-04T10:55:30.001Z</time></trkpt><trkpt lat="40.90397187941127" lon="8.954918986920635"><ele>449.0</ele><time>2026-04-04T10:55:31.001Z</time></trkpt><trkpt lat="40.904082873601936" lon="8.954989739491388"><ele>449.0</ele><time>2026-04-04T10:55:32.001Z</time></trkpt><trkpt lat="40.90420325896081" lon="8.955016121823716"><ele>449.0</ele><time>2026-04-04T10:55:33.001Z</time></trkpt><trkpt lat="40.90429108468467" lon="8.95500262699891"><ele>453.4</ele><time>2026-04-04T10:55:34.001Z</time></trkpt><trkpt lat="40.90436252727435" lon="8.954958441632352"><ele>457.79999999999995</ele><time>2026-04-04T10:55:35.001Z</time></trkpt><trkpt lat="40.9044469130993" lon="8.954879607928358"><ele>462.20000000000005</ele><time>2026-04-04T10:55:36.001Z</time></trkpt><trkpt lat="40.90454989887542" lon="8.954801986650665"><ele>466.6</ele><time>2026-04-04T10:55:37.001Z</time></trkpt><trkpt lat="40.90467483921539" lon="8.954774391126485"><ele>471.0</ele><time>2026-04-04T10:55:38.001Z</time></trkpt><trkpt lat="40.90478240056544" lon="8.954777947706761"><ele>471.0</ele><time>2026-04-04T10:55:39.001Z</time></trkpt><trkpt lat="40.90484937474164" lon="8.954784075346721"><ele>471.0</ele><time>2026-04-04T10:55:40.001Z</time></trkpt><trkpt lat="40.90490962602049" lon="8.954860022180087"><ele>471.0</ele><time>2026-04-04T10:55:42.001Z</time></trkpt><trkpt lat="40.904908271692996" lon="8.954948514559277"><ele>471.0</ele><time>2026-04-04T10:55:43.001Z</time></trkpt><trkpt lat="40.904981817562955" lon="8.955056574852552"><ele>471.0</ele><time>2026-04-04T10:55:45.001Z</time></trkpt><trkpt lat="40.905053443248725" lon="8.955039155040405"><ele>471.0</ele><time>2026-04-04T10:55:46.001Z</time></trkpt><trkpt lat="40.90512524382291" lon="8.954985482857792"><ele>470.6</ele><time>2026-04-04T10:55:47.001Z</time></trkpt><trkpt lat="40.9052082394452" lon="8.954941537696483"><ele>470.20000000000005</ele><time>2026-04-04T10:55:48.001Z</time></trkpt><trkpt lat="40.90529490888245" lon="8.954934969227011"><ele>469.79999999999995</ele><time>2026-04-04T10:55:49.001Z</time></trkpt><trkpt lat="40.90536799161229" lon="8.954962188653687"><ele>469.4</ele><time>2026-04-04T10:55:50.001Z</time></trkpt><trkpt lat="40.90546092950736" lon="8.955065705233322"><ele>469.0</ele><time>2026-04-04T10:55:52.001Z</time></trkpt><trkpt lat="40.905530887171324" lon="8.95512418901608"><ele>469.0</ele><time>2026-04-04T10:55:54.001Z</time></trkpt><trkpt lat="40.90562746602364" lon="8.955160803556149"><ele>469.0</ele><time>2026-04-04T10:55:56.001Z</time></trkpt><trkpt lat="40.905733602752" lon="8.955159675313496"><ele>469.0</ele><time>2026-04-04T10:55:58.001Z</time></trkpt><trkpt lat="40.90581361958684" lon="8.955046802626985"><ele>469.0</ele><time>2026-04-04T10:56:00.001Z</time></trkpt><trkpt lat="40.9059038917547" lon="8.954989268266575"><ele>469.0</ele><time>2026-04-04T10:56:02.001Z</time></trkpt><trkpt lat="40.905969420842716" lon="8.954988866442264"><ele>472.00000000000006</ele><time>2026-04-04T10:56:03.001Z</time></trkpt><trkpt lat="40.90607784829376" lon="8.95499853710499"><ele>475.0</ele><time>2026-04-04T10:56:05.001Z</time></trkpt><trkpt lat="40.90614310340582" lon="8.955010247514966"><ele>478.0</ele><time>2026-04-04T10:56:07.001Z</time></trkpt><trkpt lat="40.90620075056215" lon="8.95506091136239"><ele>481.0</ele><time>2026-04-04T10:57:13.001Z</time></trkpt><trkpt lat="40.906292251419444" lon="8.955029978552334"><ele>484.00000000000006</ele><time>2026-04-04T10:57:15.001Z</time></trkpt><trkpt lat="40.9063933754454" lon="8.95504694251658"><ele>487.0</ele><time>2026-04-04T10:57:17.001Z</time></trkpt><trkpt lat="40.90646332915811" lon="8.955057332118848"><ele>487.00000000000006</ele><time>2026-04-04T10:57:18.001Z</time></trkpt><trkpt lat="40.906534938581075" lon="8.955073174846433"><ele>487.0</ele><time>2026-04-04T10:57:19.001Z</time></trkpt><trkpt lat="40.90660969361431" lon="8.955087217599376"><ele>487.0</ele><time>2026-04-04T10:57:20.001Z</time></trkpt><trkpt lat="40.906687091168465" lon="8.955078138235713"><ele>487.0</ele><time>2026-04-04T10:57:21.001Z</time></trkpt><trkpt lat="40.90675785204283" lon="8.955058209508326"><ele>487.00000000000006</ele><time>2026-04-04T10:57:22.001Z</time></trkpt><trkpt lat="40.90683098158966" lon="8.955065251559674"><ele>487.0</ele><time>2026-04-04T10:57:23.001Z</time></trkpt><trkpt lat="40.90690241114821" lon="8.955114140579216"><ele>490.83333333333337</ele><time>2026-04-04T10:57:24.001Z</time></trkpt><trkpt lat="40.906984884446004" lon="8.95517247015829"><ele>494.6666666666667</ele><time>2026-04-04T10:57:25.001Z</time></trkpt><trkpt lat="40.90707302568879" lon="8.955213333191367"><ele>498.5</ele><time>2026-04-04T10:57:26.001Z</time></trkpt><trkpt lat="40.90715971511995" lon="8.955232756423841"><ele>502.33333333333337</ele><time>2026-04-04T10:57:27.001Z</time></trkpt><trkpt lat="40.907245825876814" lon="8.955224558052599"><ele>506.1666666666667</ele><time>2026-04-04T10:57:28.001Z</time></trkpt><trkpt lat="40.9073263040674" lon="8.955218815953232"><ele>510.0</ele><time>2026-04-04T10:57:29.001Z</time></trkpt><trkpt lat="40.90739168620984" lon="8.95522162622888"><ele>510.0</ele><time>2026-04-04T10:57:30.001Z</time></trkpt><trkpt lat="40.90746231122683" lon="8.955230933968025"><ele>510.0</ele><time>2026-04-04T10:57:32.001Z</time></trkpt><trkpt lat="40.90752387555063" lon="8.955254631419901"><ele>510.0</ele><time>2026-04-04T10:57:35.001Z</time></trkpt><trkpt lat="40.9075837237514" lon="8.9552918816562"><ele>510.0</ele><time>2026-04-04T10:57:54.001Z</time></trkpt><trkpt lat="40.90766726120753" lon="8.955361404389503"><ele>510.0</ele><time>2026-04-04T10:58:20.001Z</time></trkpt><trkpt lat="40.907777862523126" lon="8.955415382841943"><ele>510.0</ele><time>2026-04-04T10:58:22.001Z</time></trkpt><trkpt lat="40.90784122179868" lon="8.955439230539135"><ele>513.1428571428571</ele><time>2026-04-04T10:58:23.001Z</time></trkpt><trkpt lat="40.90790797650375" lon="8.955458329867232"><ele>516.2857142857143</ele><time>2026-04-04T10:58:24.001Z</time></trkpt><trkpt lat="40.90797203200548" lon="8.955468290444488"><ele>519.4285714285714</ele><time>2026-04-04T10:58:25.001Z</time></trkpt><trkpt lat="40.90803622070453" lon="8.95548081781845"><ele>522.5714285714286</ele><time>2026-04-04T10:58:26.001Z</time></trkpt><trkpt lat="40.90810911969432" lon="8.95548996686178"><ele>525.7142857142858</ele><time>2026-04-04T10:58:27.001Z</time></trkpt><trkpt lat="40.90818517733119" lon="8.955507581604257"><ele>528.8571428571429</ele><time>2026-04-04T10:58:28.001Z</time></trkpt><trkpt lat="40.908267705988365" lon="8.955523477628226"><ele>532.0</ele><time>2026-04-04T10:58:29.001Z</time></trkpt><trkpt lat="40.90835652213367" lon="8.955539948047445"><ele>536.8000000000001</ele><time>2026-04-04T10:58:30.002Z</time></trkpt><trkpt lat="40.90845330780342" lon="8.955574516607538"><ele>541.6</ele><time>2026-04-04T10:58:31.002Z</time></trkpt><trkpt lat="40.90855189031462" lon="8.955615911317556"><ele>546.4000000000001</ele><time>2026-04-04T10:58:32.002Z</time></trkpt><trkpt lat="40.90864076541311" lon="8.95565195054332"><ele>551.2</ele><time>2026-04-04T10:58:33.002Z</time></trkpt><trkpt lat="40.90872466059923" lon="8.95566702968366"><ele>556.0</ele><time>2026-04-04T10:58:34.002Z</time></trkpt><trkpt lat="40.90879555978205" lon="8.955651325949123"><ele>556.0</ele><time>2026-04-04T10:58:35.002Z</time></trkpt><trkpt lat="40.90886608645079" lon="8.955597188807275"><ele>556.0</ele><time>2026-04-04T10:58:36.002Z</time></trkpt><trkpt lat="40.90893942742287" lon="8.955520723520108"><ele>556.0</ele><time>2026-04-04T10:58:37.002Z</time></trkpt><trkpt lat="40.909000734501085" lon="8.955472514471072"><ele>556.0</ele><time>2026-04-04T10:58:38.002Z</time></trkpt><trkpt lat="40.909107060366104" lon="8.955422964887573"><ele>556.0</ele><time>2026-04-04T10:58:40.002Z</time></trkpt><trkpt lat="40.909235129472115" lon="8.95539449199519"><ele>560.6666666666667</ele><time>2026-04-04T10:58:42.002Z</time></trkpt><trkpt lat="40.90929799599103" lon="8.955381553919144"><ele>565.3333333333334</ele><time>2026-04-04T10:58:43Z</time></trkpt><trkpt lat="40.90938241050018" lon="8.955370071946076"><ele>570.0</ele><time>2026-04-04T10:58:45Z</time></trkpt><trkpt lat="40.909492263287895" lon="8.95537685108114"><ele>574.6666666666666</ele><time>2026-04-04T10:58:47Z</time></trkpt><trkpt lat="40.909558245175255" lon="8.955381231105699"><ele>579.3333333333333</ele><time>2026-04-04T10:58:48Z</time></trkpt><trkpt lat="40.909620532972056" lon="8.955404669684915"><ele>584.0</ele><time>2026-04-04T10:58:49Z</time></trkpt><trkpt lat="40.90971420180316" lon="8.95545545454729"><ele>584.0</ele><time>2026-04-04T10:58:51Z</time></trkpt><trkpt lat="40.909778608130814" lon="8.955414003952985"><ele>584.0</ele><time>2026-04-04T10:59:40.001Z</time></trkpt><trkpt lat="40.90984712518192" lon="8.955412247966997"><ele>584.0</ele><time>2026-04-04T10:59:43.001Z</time></trkpt><trkpt lat="40.90994493736365" lon="8.955396281372758"><ele>584.0</ele><time>2026-04-04T10:59:50.001Z</time></trkpt><trkpt lat="40.91002959579417" lon="8.955389093856404"><ele>584.0</ele><time>2026-04-04T10:59:52.001Z</time></trkpt><trkpt lat="40.91011891097862" lon="8.955371398167571"><ele>584.0</ele><time>2026-04-04T10:59:54.001Z</time></trkpt><trkpt lat="40.91020854001183" lon="8.955364290077643"><ele>588.2</ele><time>2026-04-04T10:59:56.001Z</time></trkpt><trkpt lat="40.91030337753076" lon="8.955384274482936"><ele>592.4</ele><time>2026-04-04T10:59:58.001Z</time></trkpt><trkpt lat="40.91042219973933" lon="8.955419943452652"><ele>596.6</ele><time>2026-04-04T11:00:00.001Z</time></trkpt><trkpt lat="40.910486525005666" lon="8.955442052214966"><ele>600.8</ele><time>2026-04-04T11:00:01.001Z</time></trkpt><trkpt lat="40.910595905471155" lon="8.955469341706097"><ele>605.0</ele><time>2026-04-04T11:00:03.001Z</time></trkpt><trkpt lat="40.91068866481544" lon="8.955496034526114"><ele>605.0</ele><time>2026-04-04T11:00:05.001Z</time></trkpt><trkpt lat="40.9107908236431" lon="8.955516809017967"><ele>605.0</ele><time>2026-04-04T11:00:07.001Z</time></trkpt><trkpt lat="40.91090538923587" lon="8.955526028555056"><ele>605.0</ele><time>2026-04-04T11:00:09.001Z</time></trkpt><trkpt lat="40.91098947483652" lon="8.95552968903245"><ele>605.0</ele><time>2026-04-04T11:00:11.001Z</time></trkpt><trkpt lat="40.91105330477672" lon="8.955601604471806"><ele>605.0</ele><time>2026-04-04T11:00:13.001Z</time></trkpt><trkpt lat="40.91112007187383" lon="8.955732846072396"><ele>606.8333333333333</ele><time>2026-04-04T11:00:15.001Z</time></trkpt><trkpt lat="40.91118814946372" lon="8.955874575920602"><ele>608.6666666666666</ele><time>2026-04-04T11:00:17.001Z</time></trkpt><trkpt lat="40.91122361207881" lon="8.95594815254544"><ele>610.5</ele><time>2026-04-04T11:00:18.001Z</time></trkpt><trkpt lat="40.91126506267828" lon="8.956035307777212"><ele>612.3333333333334</ele><time>2026-04-04T11:00:19.001Z</time></trkpt><trkpt lat="40.91130318294895" lon="8.956118548991132"><ele>614.1666666666667</ele><time>2026-04-04T11:00:20.001Z</time></trkpt><trkpt lat="40.91134155864507" lon="8.956188671295235"><ele>616.0</ele><time>2026-04-04T11:00:21.001Z</time></trkpt><trkpt lat="40.91138200113753" lon="8.956265106857334"><ele>616.0</ele><time>2026-04-04T11:00:22.001Z</time></trkpt><trkpt lat="40.91142380869042" lon="8.95633757926023"><ele>616.0</ele><time>2026-04-04T11:00:23.001Z</time></trkpt><trkpt lat="40.91146543668988" lon="8.956418857332958"><ele>616.0</ele><time>2026-04-04T11:00:24.001Z</time></trkpt><trkpt lat="40.911503607961635" lon="8.956491386724897"><ele>616.0</ele><time>2026-04-04T11:00:25.001Z</time></trkpt><trkpt lat="40.91157137234649" lon="8.956623702464928"><ele>616.0</ele><time>2026-04-04T11:00:27.001Z</time></trkpt><trkpt lat="40.911607736127216" lon="8.956702010893741"><ele>616.0</ele><time>2026-04-04T11:00:28.001Z</time></trkpt><trkpt lat="40.91164404385894" lon="8.956777853417146"><ele>618.0</ele><time>2026-04-04T11:00:29.001Z</time></trkpt><trkpt lat="40.91167670503454" lon="8.956851553548015"><ele>620.0</ele><time>2026-04-04T11:00:30.001Z</time></trkpt><trkpt lat="40.91173921547719" lon="8.956997532357288"><ele>622.0</ele><time>2026-04-04T11:00:32.001Z</time></trkpt><trkpt lat="40.911781719659594" lon="8.957084773430743"><ele>624.0</ele><time>2026-04-04T11:00:33.001Z</time></trkpt><trkpt lat="40.911818575483174" lon="8.957168159892012"><ele>626.0</ele><time>2026-04-04T11:00:34.001Z</time></trkpt><trkpt lat="40.91184708760966" lon="8.957253114360206"><ele>628.0</ele><time>2026-04-04T11:00:35.001Z</time></trkpt><trkpt lat="40.911888246479464" lon="8.957420093282654"><ele>626.6666666666667</ele><time>2026-04-04T11:00:37.002Z</time></trkpt><trkpt lat="40.911913257454835" lon="8.957519083157408"><ele>625.3333333333334</ele><time>2026-04-04T11:00:38.002Z</time></trkpt><trkpt lat="40.91193880309924" lon="8.957613725291928"><ele>624.0</ele><time>2026-04-04T11:00:39.002Z</time></trkpt><trkpt lat="40.911957075456726" lon="8.95770052645749"><ele>622.6666666666666</ele><time>2026-04-04T11:00:40.002Z</time></trkpt><trkpt lat="40.91197502411849" lon="8.957785868964942"><ele>621.3333333333333</ele><time>2026-04-04T11:00:41.002Z</time></trkpt><trkpt lat="40.911992963485275" lon="8.957866863974589"><ele>620.0</ele><time>2026-04-04T11:00:42.002Z</time></trkpt><trkpt lat="40.912020478880486" lon="8.958022947509741"><ele>620.0</ele><time>2026-04-04T11:00:44.002Z</time></trkpt><trkpt lat="40.91205719353743" lon="8.958174884115719"><ele>620.0</ele><time>2026-04-04T11:00:46.002Z</time></trkpt><trkpt lat="40.91208182437109" lon="8.958314248087296"><ele>620.0</ele><time>2026-04-04T11:00:48Z</time></trkpt><trkpt lat="40.912096527492984" lon="8.958482514707562"><ele>620.0</ele><time>2026-04-04T11:00:50Z</time></trkpt><trkpt lat="40.91210633787656" lon="8.958573245910602"><ele>620.0</ele><time>2026-04-04T11:00:51Z</time></trkpt><trkpt lat="40.91211898232643" lon="8.95866292448285"><ele>623.6666666666666</ele><time>2026-04-04T11:00:52Z</time></trkpt><trkpt lat="40.912139282768585" lon="8.958745338502348"><ele>627.3333333333333</ele><time>2026-04-04T11:00:53Z</time></trkpt><trkpt lat="40.91215609776843" lon="8.958830792288653"><ele>631.0</ele><time>2026-04-04T11:00:54Z</time></trkpt><trkpt lat="40.91217377014237" lon="8.958921506011462"><ele>634.6666666666666</ele><time>2026-04-04T11:00:55Z</time></trkpt><trkpt lat="40.912195431809984" lon="8.959007174561997"><ele>638.3333333333334</ele><time>2026-04-04T11:00:56Z</time></trkpt><trkpt lat="40.912235265003794" lon="8.95915028535587"><ele>642.0</ele><time>2026-04-04T11:00:58Z</time></trkpt><trkpt lat="40.91231950373792" lon="8.95926011329477"><ele>645.5</ele><time>2026-04-04T11:01:00Z</time></trkpt><trkpt lat="40.91239178272131" lon="8.959393142436545"><ele>649.0</ele><time>2026-04-04T11:01:02Z</time></trkpt><trkpt lat="40.91241730084587" lon="8.959477588439022"><ele>652.5</ele><time>2026-04-04T11:01:03Z</time></trkpt><trkpt lat="40.912435316794955" lon="8.9595614472771"><ele>656.0</ele><time>2026-04-04T11:01:04Z</time></trkpt><trkpt lat="40.912474487669755" lon="8.959695608639137"><ele>659.5</ele><time>2026-04-04T11:01:06Z</time></trkpt><trkpt lat="40.912504138994805" lon="8.959775184716204"><ele>663.0</ele><time>2026-04-04T11:01:07Z</time></trkpt><trkpt lat="40.91254754383095" lon="8.959923319356603"><ele>663.2</ele><time>2026-04-04T11:01:09.001Z</time></trkpt><trkpt lat="40.912592916933065" lon="8.96006532054148"><ele>663.4</ele><time>2026-04-04T11:01:11.001Z</time></trkpt><trkpt lat="40.91266029325842" lon="8.960196070031506"><ele>663.6</ele><time>2026-04-04T11:01:13.001Z</time></trkpt><trkpt lat="40.912709884313244" lon="8.960264485323393"><ele>663.8000000000001</ele><time>2026-04-04T11:01:14.001Z</time></trkpt><trkpt lat="40.91275815955045" lon="8.960334332482358"><ele>664.0</ele><time>2026-04-04T11:01:15.001Z</time></trkpt><trkpt lat="40.91280875137131" lon="8.960409589436914"><ele>664.0</ele><time>2026-04-04T11:01:16.001Z</time></trkpt><trkpt lat="40.91285689689589" lon="8.960480526812177"><ele>664.0</ele><time>2026-04-04T11:01:17.001Z</time></trkpt><trkpt lat="40.9129098658596" lon="8.960545805224509"><ele>664.0</ele><time>2026-04-04T11:01:18.001Z</time></trkpt><trkpt lat="40.91295997562182" lon="8.960602915824012"><ele>664.0</ele><time>2026-04-04T11:01:19.001Z</time></trkpt><trkpt lat="40.91300262267712" lon="8.960673084988512"><ele>664.0</ele><time>2026-04-04T11:01:20.001Z</time></trkpt><trkpt lat="40.91304062812071" lon="8.960745110585924"><ele>664.0</ele><time>2026-04-04T11:01:21.001Z</time></trkpt><trkpt lat="40.9130799540514" lon="8.960820769524574"><ele>664.0</ele><time>2026-04-04T11:01:22.001Z</time></trkpt><trkpt lat="40.91310426423815" lon="8.960903301523524"><ele>666.5</ele><time>2026-04-04T11:01:23.001Z</time></trkpt><trkpt lat="40.91313058831026" lon="8.96107038222965"><ele>669.0</ele><time>2026-04-04T11:01:25.001Z</time></trkpt><trkpt lat="40.913143036046684" lon="8.961168552001338"><ele>671.5</ele><time>2026-04-04T11:01:26.001Z</time></trkpt><trkpt lat="40.91315065513918" lon="8.961277745433755"><ele>674.0</ele><time>2026-04-04T11:01:27.001Z</time></trkpt><trkpt lat="40.913150089278695" lon="8.961379022212737"><ele>676.5</ele><time>2026-04-04T11:01:28.001Z</time></trkpt><trkpt lat="40.91315372408584" lon="8.961476103765024"><ele>679.0</ele><time>2026-04-04T11:01:29.001Z</time></trkpt><trkpt lat="40.91316136918191" lon="8.961573391739506"><ele>679.0</ele><time>2026-04-04T11:01:30.001Z</time></trkpt><trkpt lat="40.91317034835391" lon="8.961665200045692"><ele>679.0</ele><time>2026-04-04T11:01:31.001Z</time></trkpt><trkpt lat="40.913185352508904" lon="8.961764775264442"><ele>679.0</ele><time>2026-04-04T11:01:32.001Z</time></trkpt><trkpt lat="40.91320468815987" lon="8.961855311899"><ele>679.0</ele><time>2026-04-04T11:01:33.001Z</time></trkpt><trkpt lat="40.91323265212147" lon="8.961944055626251"><ele>679.0</ele><time>2026-04-04T11:01:34.001Z</time></trkpt><trkpt lat="40.91328047372468" lon="8.962025641288507"><ele>679.0</ele><time>2026-04-04T11:01:35.001Z</time></trkpt><trkpt lat="40.913329238532675" lon="8.96210677204742"><ele>679.0</ele><time>2026-04-04T11:01:36.001Z</time></trkpt><trkpt lat="40.91337037394363" lon="8.962173312742724"><ele>681.3333333333334</ele><time>2026-04-04T11:01:37.001Z</time></trkpt><trkpt lat="40.91342454160909" lon="8.962235331130913"><ele>683.6666666666667</ele><time>2026-04-04T11:01:38.001Z</time></trkpt><trkpt lat="40.91348293117865" lon="8.962306050638354"><ele>686.0</ele><time>2026-04-04T11:01:39.001Z</time></trkpt><trkpt lat="40.91354035960623" lon="8.962388530703198"><ele>688.3333333333334</ele><time>2026-04-04T11:01:40.001Z</time></trkpt><trkpt lat="40.91360118259508" lon="8.962468037386785"><ele>690.6666666666666</ele><time>2026-04-04T11:01:41.001Z</time></trkpt><trkpt lat="40.91365974895896" lon="8.962535635320954"><ele>693.0</ele><time>2026-04-04T11:01:42.001Z</time></trkpt><trkpt lat="40.91371484506075" lon="8.96261793156496"><ele>695.5</ele><time>2026-04-04T11:01:43.001Z</time></trkpt><trkpt lat="40.91376446162671" lon="8.962706734394871"><ele>698.0</ele><time>2026-04-04T11:01:44.001Z</time></trkpt><trkpt lat="40.91382055970135" lon="8.962785951136228"><ele>700.5</ele><time>2026-04-04T11:01:45.001Z</time></trkpt><trkpt lat="40.913878241327176" lon="8.962865645514597"><ele>703.0</ele><time>2026-04-04T11:01:46.001Z</time></trkpt><trkpt lat="40.9139302706601" lon="8.962953364264598"><ele>705.5</ele><time>2026-04-04T11:01:47.001Z</time></trkpt><trkpt lat="40.91398059454531" lon="8.963028207260374"><ele>708.0</ele><time>2026-04-04T11:01:48.001Z</time></trkpt><trkpt lat="40.91404630174853" lon="8.963105526843131"><ele>708.0</ele><time>2026-04-04T11:01:50.001Z</time></trkpt><trkpt lat="40.91400592006452" lon="8.963204519644437"><ele>708.0</ele><time>2026-04-04T11:01:57.001Z</time></trkpt><trkpt lat="40.91389183946514" lon="8.963217542649991"><ele>708.0</ele><time>2026-04-04T11:01:59.001Z</time></trkpt><trkpt lat="40.91377826192786" lon="8.96327211382472"><ele>708.0</ele><time>2026-04-04T11:02:01.001Z</time></trkpt><trkpt lat="40.91366932969414" lon="8.963326358911498"><ele>708.0</ele><time>2026-04-04T11:02:03.001Z</time></trkpt><trkpt lat="40.91356865683278" lon="8.963372860911774"><ele>711.4</ele><time>2026-04-04T11:02:05.001Z</time></trkpt><trkpt lat="40.91347589287352" lon="8.963425994958493"><ele>714.8</ele><time>2026-04-04T11:02:07.001Z</time></trkpt><trkpt lat="40.91342268062677" lon="8.963470849843075"><ele>718.2</ele><time>2026-04-04T11:02:09.001Z</time></trkpt><trkpt lat="40.913434400689" lon="8.963578926037618"><ele>721.6</ele><time>2026-04-04T11:02:47.002Z</time></trkpt><trkpt lat="40.913512416124796" lon="8.963723345255705"><ele>725.0</ele><time>2026-04-04T11:02:49.002Z</time></trkpt><trkpt lat="40.913566072758556" lon="8.963820350208543"><ele>725.0</ele><time>2026-04-04T11:02:50.002Z</time></trkpt><trkpt lat="40.9136262781354" lon="8.96392767031733"><ele>725.0</ele><time>2026-04-04T11:02:51.002Z</time></trkpt><trkpt lat="40.913696495465764" lon="8.964056389916228"><ele>725.0</ele><time>2026-04-04T11:02:52.002Z</time></trkpt><trkpt lat="40.91376564960524" lon="8.964183878951749"><ele>725.0</ele><time>2026-04-04T11:02:53.002Z</time></trkpt><trkpt lat="40.913818776230976" lon="8.964306784330237"><ele>725.0</ele><time>2026-04-04T11:02:54Z</time></trkpt><trkpt lat="40.91388014841117" lon="8.964461172145002"><ele>728.0</ele><time>2026-04-04T11:02:55Z</time></trkpt><trkpt lat="40.91392823641882" lon="8.964582520887616"><ele>731.0</ele><time>2026-04-04T11:02:56Z</time></trkpt><trkpt lat="40.91396318408584" lon="8.964698828702655"><ele>734.0</ele><time>2026-04-04T11:02:57Z</time></trkpt><trkpt lat="40.914004793241226" lon="8.96485064592583"><ele>737.0</ele><time>2026-04-04T11:02:58Z</time></trkpt><trkpt lat="40.914042542225154" lon="8.964988705130164"><ele>740.0</ele><time>2026-04-04T11:02:59Z</time></trkpt><trkpt lat="40.91408327367833" lon="8.965090849517903"><ele>742.3333333333333</ele><time>2026-04-04T11:03:00Z</time></trkpt><trkpt lat="40.9141186516268" lon="8.965197726671864"><ele>744.6666666666666</ele><time>2026-04-04T11:03:01Z</time></trkpt><trkpt lat="40.91414183229758" lon="8.965301975910405"><ele>747.0</ele><time>2026-04-04T11:03:02Z</time></trkpt><trkpt lat="40.91415490432976" lon="8.965392883515316"><ele>749.3333333333334</ele><time>2026-04-04T11:03:03Z</time></trkpt><trkpt lat="40.91417764987209" lon="8.965539079921669"><ele>751.6666666666667</ele><time>2026-04-04T11:03:05Z</time></trkpt><trkpt lat="40.91419301069002" lon="8.965627471890055"><ele>754.0</ele><time>2026-04-04T11:03:09Z</time></trkpt><trkpt lat="40.914135723606584" lon="8.965740114879528"><ele>754.0</ele><time>2026-04-04T11:06:21.001Z</time></trkpt><trkpt lat="40.9140590592973" lon="8.96575260904876"><ele>754.0</ele><time>2026-04-04T11:06:22.001Z</time></trkpt><trkpt lat="40.91396167727984" lon="8.965765250196835"><ele>754.0</ele><time>2026-04-04T11:06:24.001Z</time></trkpt><trkpt lat="40.91386342323925" lon="8.965818781351118"><ele>754.0</ele><time>2026-04-04T11:06:26.001Z</time></trkpt><trkpt lat="40.91384377345836" lon="8.965916903387372"><ele>754.0</ele><time>2026-04-04T11:06:27.001Z</time></trkpt><trkpt lat="40.913820898450076" lon="8.966007880816852"><ele>754.0</ele><time>2026-04-04T11:06:28.001Z</time></trkpt><trkpt lat="40.91379811055281" lon="8.966115536168214"><ele>755.2</ele><time>2026-04-04T11:06:29.001Z</time></trkpt><trkpt lat="40.9137728764391" lon="8.966229643601272"><ele>756.4000000000001</ele><time>2026-04-04T11:06:30.001Z</time></trkpt><trkpt lat="40.913732129753924" lon="8.966337261281623"><ele>757.6</ele><time>2026-04-04T11:06:31.001Z</time></trkpt><trkpt lat="40.913701428843474" lon="8.966458527176604"><ele>758.8</ele><time>2026-04-04T11:06:32.001Z</time></trkpt><trkpt lat="40.91366545644233" lon="8.96658869130903"><ele>760.0</ele><time>2026-04-04T11:06:33.001Z</time></trkpt><trkpt lat="40.91361902632412" lon="8.966756714679052"><ele>760.4</ele><time>2026-04-04T11:06:34.001Z</time></trkpt><trkpt lat="40.9135952248092" lon="8.966924314024316"><ele>760.8</ele><time>2026-04-04T11:06:35.001Z</time></trkpt><trkpt lat="40.9135664215014" lon="8.967059551112994"><ele>761.2</ele><time>2026-04-04T11:06:36.001Z</time></trkpt><trkpt lat="40.91352539156019" lon="8.967148512972047"><ele>761.6</ele><time>2026-04-04T11:06:37.001Z</time></trkpt><trkpt lat="40.913449800242155" lon="8.967255527906465"><ele>762.0</ele><time>2026-04-04T11:06:39.001Z</time></trkpt><trkpt lat="40.91333878993042" lon="8.967244983916524"><ele>763.0</ele><time>2026-04-04T11:06:41.001Z</time></trkpt><trkpt lat="40.913270062171506" lon="8.967193171477291"><ele>764.0</ele><time>2026-04-04T11:06:42.001Z</time></trkpt><trkpt lat="40.91316868689366" lon="8.96714939140551"><ele>765.0</ele><time>2026-04-04T11:06:43.001Z</time></trkpt><trkpt lat="40.913049650829606" lon="8.967113285847278"><ele>766.0</ele><time>2026-04-04T11:06:44.001Z</time></trkpt><trkpt lat="40.91291933231963" lon="8.967097027607561"><ele>767.0</ele><time>2026-04-04T11:06:45.001Z</time></trkpt><trkpt lat="40.91279579591878" lon="8.967097053948867"><ele>767.0</ele><time>2026-04-04T11:06:46.001Z</time></trkpt><trkpt lat="40.912687279981725" lon="8.967114430250163"><ele>767.0</ele><time>2026-04-04T11:06:47.001Z</time></trkpt><trkpt lat="40.91258424958851" lon="8.967148685154825"><ele>767.0</ele><time>2026-04-04T11:06:48.001Z</time></trkpt><trkpt lat="40.912495676956624" lon="8.967219983719797"><ele>767.0</ele><time>2026-04-04T11:06:49.001Z</time></trkpt><trkpt lat="40.912422991310244" lon="8.967304636886283"><ele>767.0</ele><time>2026-04-04T11:06:50.001Z</time></trkpt><trkpt lat="40.91234714501901" lon="8.967392822880598"><ele>766.0</ele><time>2026-04-04T11:06:51.001Z</time></trkpt><trkpt lat="40.91227820519079" lon="8.967513914284114"><ele>765.0</ele><time>2026-04-04T11:06:52.001Z</time></trkpt><trkpt lat="40.91222075885814" lon="8.96764770356116"><ele>764.0</ele><time>2026-04-04T11:06:53.001Z</time></trkpt><trkpt lat="40.91217332911705" lon="8.967786695919374"><ele>763.0</ele><time>2026-04-04T11:06:54.001Z</time></trkpt><trkpt lat="40.9121191707836" lon="8.967946632007411"><ele>763.0</ele><time>2026-04-04T11:06:55.001Z</time></trkpt><trkpt lat="40.912059865326434" lon="8.96811672114677"><ele>763.0</ele><time>2026-04-04T11:06:56.001Z</time></trkpt><trkpt lat="40.91199969827331" lon="8.968293185835616"><ele>763.0</ele><time>2026-04-04T11:06:57.002Z</time></trkpt><trkpt lat="40.91193772332419" lon="8.968476233993863"><ele>763.0</ele><time>2026-04-04T11:06:58.002Z</time></trkpt><trkpt lat="40.91187468778269" lon="8.968667933128668"><ele>762.25</ele><time>2026-04-04T11:06:59.002Z</time></trkpt><trkpt lat="40.91181538579761" lon="8.96883539673543"><ele>761.5</ele><time>2026-04-04T11:07:00.002Z</time></trkpt><trkpt lat="40.9117476086772" lon="8.96899596974218"><ele>760.75</ele><time>2026-04-04T11:07:01.002Z</time></trkpt><trkpt lat="40.91168960295148" lon="8.969140019435791"><ele>760.0</ele><time>2026-04-04T11:07:02.002Z</time></trkpt><trkpt lat="40.91163831834333" lon="8.969270109929875"><ele>757.75</ele><time>2026-04-04T11:07:03.002Z</time></trkpt><trkpt lat="40.911590082699355" lon="8.969395039903068"><ele>755.5</ele><time>2026-04-04T11:07:04.002Z</time></trkpt><trkpt lat="40.9115572229072" lon="8.969521496051653"><ele>753.25</ele><time>2026-04-04T11:07:05.002Z</time></trkpt><trkpt lat="40.91156075322573" lon="8.96967185678597"><ele>751.0</ele><time>2026-04-04T11:07:06Z</time></trkpt><trkpt lat="40.9115430034982" lon="8.969857914478876"><ele>751.0</ele><time>2026-04-04T11:07:07Z</time></trkpt><trkpt lat="40.91150120044388" lon="8.970083296596135"><ele>751.0</ele><time>2026-04-04T11:07:08Z</time></trkpt><trkpt lat="40.91147607527364" lon="8.9703238648204"><ele>751.0</ele><time>2026-04-04T11:07:09Z</time></trkpt><trkpt lat="40.91145726842987" lon="8.970525916562607"><ele>751.0</ele><time>2026-04-04T11:07:10Z</time></trkpt><trkpt lat="40.911424704949255" lon="8.97070704487766"><ele>751.0</ele><time>2026-04-04T11:07:11Z</time></trkpt><trkpt lat="40.911386137793805" lon="8.970879110835043"><ele>751.0</ele><time>2026-04-04T11:07:12Z</time></trkpt><trkpt lat="40.91134702340443" lon="8.971030382398675"><ele>751.0</ele><time>2026-04-04T11:07:13Z</time></trkpt><trkpt lat="40.91132107445114" lon="8.971181330647985"><ele>751.5</ele><time>2026-04-04T11:07:14Z</time></trkpt><trkpt lat="40.911329733863674" lon="8.971333972707553"><ele>752.0</ele><time>2026-04-04T11:07:15Z</time></trkpt><trkpt lat="40.91134830976425" lon="8.971482952514963"><ele>752.5</ele><time>2026-04-04T11:07:16Z</time></trkpt><trkpt lat="40.911384641395394" lon="8.971644598149524"><ele>753.0</ele><time>2026-04-04T11:07:17Z</time></trkpt><trkpt lat="40.91141409264255" lon="8.971796110500483"><ele>753.0</ele><time>2026-04-04T11:07:18Z</time></trkpt><trkpt lat="40.91140490958785" lon="8.971984867842924"><ele>753.0</ele><time>2026-04-04T11:07:19Z</time></trkpt><trkpt lat="40.91140615734635" lon="8.972165979810999"><ele>753.0</ele><time>2026-04-04T11:07:20Z</time></trkpt><trkpt lat="40.911428635735625" lon="8.972368924431526"><ele>753.0</ele><time>2026-04-04T11:07:21Z</time></trkpt><trkpt lat="40.91146023093572" lon="8.972593706751736"><ele>753.5</ele><time>2026-04-04T11:07:22Z</time></trkpt><trkpt lat="40.91149573864289" lon="8.972788519691182"><ele>754.0</ele><time>2026-04-04T11:07:23Z</time></trkpt><trkpt lat="40.911527630305784" lon="8.972943758897996"><ele>754.5</ele><time>2026-04-04T11:07:24Z</time></trkpt><trkpt lat="40.91156435952724" lon="8.9730606779943"><ele>755.0</ele><time>2026-04-04T11:07:25Z</time></trkpt><trkpt lat="40.911636742603434" lon="8.973191877325444"><ele>755.0</ele><time>2026-04-04T11:07:26Z</time></trkpt><trkpt lat="40.9117389278235" lon="8.973348169833816"><ele>755.0</ele><time>2026-04-04T11:07:27Z</time></trkpt><trkpt lat="40.911860848179124" lon="8.973514603733966"><ele>755.0</ele><time>2026-04-04T11:07:28Z</time></trkpt><trkpt lat="40.91198229018389" lon="8.973705822602676"><ele>757.0</ele><time>2026-04-04T11:07:29Z</time></trkpt><trkpt lat="40.91208670244729" lon="8.973888323160047"><ele>759.0</ele><time>2026-04-04T11:07:30Z</time></trkpt><trkpt lat="40.91217605413069" lon="8.974049138025398"><ele>761.0</ele><time>2026-04-04T11:07:31.001Z</time></trkpt><trkpt lat="40.91226161976131" lon="8.974221410638469"><ele>764.5</ele><time>2026-04-04T11:07:32.001Z</time></trkpt><trkpt lat="40.91234133353336" lon="8.974382318563306"><ele>768.0</ele><time>2026-04-04T11:07:33.001Z</time></trkpt><trkpt lat="40.912407085372" lon="8.97451744677666"><ele>771.5</ele><time>2026-04-04T11:07:34.001Z</time></trkpt><trkpt lat="40.912458969865796" lon="8.974633826734777"><ele>775.0</ele><time>2026-04-04T11:07:35.001Z</time></trkpt><trkpt lat="40.91249327788144" lon="8.974730712105883"><ele>775.0</ele><time>2026-04-04T11:07:36.001Z</time></trkpt><trkpt lat="40.912493901964204" lon="8.974824611819496"><ele>775.0</ele><time>2026-04-04T11:07:38.001Z</time></trkpt><trkpt lat="40.91230033510154" lon="8.975001906397708"><ele>775.0</ele><time>2026-04-04T11:07:42.001Z</time></trkpt><trkpt lat="40.91224267887082" lon="8.975114000498353"><ele>775.0</ele><time>2026-04-04T11:07:43.001Z</time></trkpt><trkpt lat="40.912195948752654" lon="8.975195241312298"><ele>777.0</ele><time>2026-04-04T11:07:44.001Z</time></trkpt><trkpt lat="40.91215430509166" lon="8.97527956609391"><ele>779.0</ele><time>2026-04-04T11:07:45.001Z</time></trkpt><trkpt lat="40.91210331342214" lon="8.975389228469455"><ele>781.0</ele><time>2026-04-04T11:07:46.001Z</time></trkpt><trkpt lat="40.912051753038675" lon="8.975520740007092"><ele>783.0</ele><time>2026-04-04T11:07:47.001Z</time></trkpt><trkpt lat="40.912001250576665" lon="8.975652154384463"><ele>785.0</ele><time>2026-04-04T11:07:48.001Z</time></trkpt><trkpt lat="40.91195579441962" lon="8.975773187518218"><ele>785.8</ele><time>2026-04-04T11:07:49.001Z</time></trkpt><trkpt lat="40.911900685076056" lon="8.975889670637144"><ele>786.6</ele><time>2026-04-04T11:07:50.001Z</time></trkpt><trkpt lat="40.91186001142333" lon="8.97602318709641"><ele>787.4000000000001</ele><time>2026-04-04T11:07:51.001Z</time></trkpt><trkpt lat="40.91183905198252" lon="8.976152374869232"><ele>788.2</ele><time>2026-04-04T11:07:52.001Z</time></trkpt><trkpt lat="40.91181317723673" lon="8.976285313559005"><ele>789.0</ele><time>2026-04-04T11:07:53.001Z</time></trkpt><trkpt lat="40.911779594785216" lon="8.976410775139488"><ele>789.0</ele><time>2026-04-04T11:07:54.001Z</time></trkpt><trkpt lat="40.91174296589909" lon="8.976536425584523"><ele>789.0</ele><time>2026-04-04T11:07:55.001Z</time></trkpt><trkpt lat="40.911711551083016" lon="8.976665592200375"><ele>789.0</ele><time>2026-04-04T11:07:56.001Z</time></trkpt><trkpt lat="40.91169109140602" lon="8.976785297478378"><ele>789.0</ele><time>2026-04-04T11:07:57.001Z</time></trkpt><trkpt lat="40.91169588200666" lon="8.97689783858717"><ele>789.0</ele><time>2026-04-04T11:07:58.001Z</time></trkpt><trkpt lat="40.911720507826274" lon="8.97700417397852"><ele>788.6</ele><time>2026-04-04T11:07:59.001Z</time></trkpt><trkpt lat="40.91176139768788" lon="8.977114980938952"><ele>788.2</ele><time>2026-04-04T11:08:00.001Z</time></trkpt><trkpt lat="40.91182416545825" lon="8.977237208814424"><ele>787.8000000000001</ele><time>2026-04-04T11:08:01.001Z</time></trkpt><trkpt lat="40.91188529299094" lon="8.977375195360505"><ele>787.4000000000001</ele><time>2026-04-04T11:08:02.001Z</time></trkpt><trkpt lat="40.91194152117871" lon="8.977509273108968"><ele>787.0</ele><time>2026-04-04T11:08:03.001Z</time></trkpt><trkpt lat="40.911988929425185" lon="8.977637269656261"><ele>787.6666666666666</ele><time>2026-04-04T11:08:04.001Z</time></trkpt><trkpt lat="40.912022901201546" lon="8.977772979991288"><ele>788.3333333333333</ele><time>2026-04-04T11:08:05.001Z</time></trkpt><trkpt lat="40.91203599181552" lon="8.977893774608843"><ele>789.0</ele><time>2026-04-04T11:08:06.001Z</time></trkpt><trkpt lat="40.912054190344556" lon="8.977995110889998"><ele>789.6666666666667</ele><time>2026-04-04T11:08:07.001Z</time></trkpt><trkpt lat="40.91202618336746" lon="8.978108637911888"><ele>790.3333333333334</ele><time>2026-04-04T11:08:09.001Z</time></trkpt><trkpt lat="40.91195995767544" lon="8.97814029325157"><ele>791.0</ele><time>2026-04-04T11:08:10.001Z</time></trkpt><trkpt lat="40.911859317369235" lon="8.978189437507886"><ele>791.0</ele><time>2026-04-04T11:08:11.001Z</time></trkpt><trkpt lat="40.91175544401815" lon="8.978259066643043"><ele>791.0</ele><time>2026-04-04T11:08:12.001Z</time></trkpt><trkpt lat="40.91167149658733" lon="8.978364569471907"><ele>791.0</ele><time>2026-04-04T11:08:13.001Z</time></trkpt><trkpt lat="40.91159136418066" lon="8.978496570589018"><ele>791.0</ele><time>2026-04-04T11:08:14.001Z</time></trkpt><trkpt lat="40.91147681800487" lon="8.978652643455158"><ele>789.6666666666667</ele><time>2026-04-04T11:08:15.001Z</time></trkpt><trkpt lat="40.9113642917059" lon="8.978794162209667"><ele>788.3333333333333</ele><time>2026-04-04T11:08:16.001Z</time></trkpt><trkpt lat="40.91125885676401" lon="8.978929924320932"><ele>787.0</ele><time>2026-04-04T11:08:17.001Z</time></trkpt><trkpt lat="40.911128728293185" lon="8.97904703152798"><ele>787.0</ele><time>2026-04-04T11:08:18.001Z</time></trkpt><trkpt lat="40.910989026618445" lon="8.97914974540637"><ele>787.0</ele><time>2026-04-04T11:08:19.001Z</time></trkpt><trkpt lat="40.91085240818338" lon="8.979237710252992"><ele>787.0</ele><time>2026-04-04T11:08:20.001Z</time></trkpt><trkpt lat="40.91071341632677" lon="8.979311960012344"><ele>788.5</ele><time>2026-04-04T11:08:21.001Z</time></trkpt><trkpt lat="40.91058235923806" lon="8.979382198242988"><ele>790.0</ele><time>2026-04-04T11:08:22.001Z</time></trkpt><trkpt lat="40.910456233914445" lon="8.979454763435326"><ele>791.5</ele><time>2026-04-04T11:08:23.001Z</time></trkpt><trkpt lat="40.910339648711265" lon="8.97954884742752"><ele>793.0</ele><time>2026-04-04T11:08:24.001Z</time></trkpt><trkpt lat="40.910227224504716" lon="8.97964715271628"><ele>793.0</ele><time>2026-04-04T11:08:25.001Z</time></trkpt><trkpt lat="40.91012242273537" lon="8.979753553525828"><ele>793.0</ele><time>2026-04-04T11:08:26.001Z</time></trkpt><trkpt lat="40.91002029759637" lon="8.979867312373186"><ele>793.0</ele><time>2026-04-04T11:08:27.001Z</time></trkpt><trkpt lat="40.909935674743444" lon="8.979984987804567"><ele>793.0</ele><time>2026-04-04T11:08:28.001Z</time></trkpt><trkpt lat="40.90984452745614" lon="8.980121749626859"><ele>794.75</ele><time>2026-04-04T11:08:29.001Z</time></trkpt><trkpt lat="40.909772309238896" lon="8.98024653370868"><ele>796.5</ele><time>2026-04-04T11:08:30.001Z</time></trkpt><trkpt lat="40.909712159414966" lon="8.980380564760118"><ele>798.25</ele><time>2026-04-04T11:08:31.001Z</time></trkpt><trkpt lat="40.90966638925166" lon="8.980530784949842"><ele>800.0</ele><time>2026-04-04T11:08:32.001Z</time></trkpt><trkpt lat="40.90963331479641" lon="8.98068090430364"><ele>800.0</ele><time>2026-04-04T11:08:33.001Z</time></trkpt><trkpt lat="40.90961339868958" lon="8.980823748955254"><ele>800.0</ele><time>2026-04-04T11:08:34.001Z</time></trkpt><trkpt lat="40.90961592668701" lon="8.980976427897197"><ele>800.0</ele><time>2026-04-04T11:08:35.001Z</time></trkpt><trkpt lat="40.90963015783449" lon="8.981145679005403"><ele>800.0</ele><time>2026-04-04T11:08:36.001Z</time></trkpt><trkpt lat="40.90964084959905" lon="8.98130880243048"><ele>801.0</ele><time>2026-04-04T11:08:37.001Z</time></trkpt><trkpt lat="40.909664242059165" lon="8.98144269598554"><ele>802.0</ele><time>2026-04-04T11:08:38.001Z</time></trkpt><trkpt lat="40.90971326680843" lon="8.981595656674735"><ele>803.0</ele><time>2026-04-04T11:08:39.001Z</time></trkpt><trkpt lat="40.90976885253409" lon="8.981774001455143"><ele>804.0</ele><time>2026-04-04T11:08:40.001Z</time></trkpt><trkpt lat="40.90981646968882" lon="8.981940954877004"><ele>801.5</ele><time>2026-04-04T11:08:41.001Z</time></trkpt><trkpt lat="40.909865871237166" lon="8.982073987759309"><ele>799.0</ele><time>2026-04-04T11:08:42.001Z</time></trkpt><trkpt lat="40.9099247585853" lon="8.982194107987496"><ele>796.5</ele><time>2026-04-04T11:08:43.001Z</time></trkpt><trkpt lat="40.909994056558276" lon="8.98232896459855"><ele>794.0</ele><time>2026-04-04T11:08:44.001Z</time></trkpt><trkpt lat="40.91007786375414" lon="8.98246546803627"><ele>801.0</ele><time>2026-04-04T11:08:45.001Z</time></trkpt><trkpt lat="40.910158810239395" lon="8.982596998445857"><ele>808.0</ele><time>2026-04-04T11:08:46.001Z</time></trkpt><trkpt lat="40.910230514134504" lon="8.982738257768336"><ele>815.0</ele><time>2026-04-04T11:08:47.001Z</time></trkpt><trkpt lat="40.910301382722245" lon="8.982877082315158"><ele>822.0</ele><time>2026-04-04T11:08:48.001Z</time></trkpt><trkpt lat="40.91037073624566" lon="8.983024858908726"><ele>822.0</ele><time>2026-04-04T11:08:49.001Z</time></trkpt><trkpt lat="40.910422547765705" lon="8.98317566941468"><ele>822.0</ele><time>2026-04-04T11:08:50.001Z</time></trkpt><trkpt lat="40.91045300380466" lon="8.983330232726667"><ele>822.0</ele><time>2026-04-04T11:08:51.001Z</time></trkpt><trkpt lat="40.91047557653338" lon="8.983493569976506"><ele>822.0</ele><time>2026-04-04T11:08:52.001Z</time></trkpt><trkpt lat="40.910483040175436" lon="8.983659491035649"><ele>821.0</ele><time>2026-04-04T11:08:53.001Z</time></trkpt><trkpt lat="40.910474579137535" lon="8.983840391429066"><ele>820.0</ele><time>2026-04-04T11:08:54.001Z</time></trkpt><trkpt lat="40.910464763934094" lon="8.98401447984008"><ele>819.0</ele><time>2026-04-04T11:08:55.001Z</time></trkpt><trkpt lat="40.91046911138166" lon="8.984157537649772"><ele>818.0</ele><time>2026-04-04T11:08:56.001Z</time></trkpt><trkpt lat="40.9104820289909" lon="8.984295883482575"><ele>818.0</ele><time>2026-04-04T11:08:57.001Z</time></trkpt><trkpt lat="40.910485782254554" lon="8.984441963289148"><ele>818.0</ele><time>2026-04-04T11:08:58.001Z</time></trkpt><trkpt lat="40.91045818066869" lon="8.984596819927784"><ele>818.0</ele><time>2026-04-04T11:08:59.001Z</time></trkpt><trkpt lat="40.91039742442327" lon="8.984767320565833"><ele>818.0</ele><time>2026-04-04T11:09:00.001Z</time></trkpt><trkpt lat="40.910322731561116" lon="8.984946156116653"><ele>818.8</ele><time>2026-04-04T11:09:01.001Z</time></trkpt><trkpt lat="40.91026924406709" lon="8.985100734007123"><ele>819.5999999999999</ele><time>2026-04-04T11:09:02.001Z</time></trkpt><trkpt lat="40.910249593223845" lon="8.98524058998778"><ele>820.4000000000001</ele><time>2026-04-04T11:09:03.002Z</time></trkpt><trkpt lat="40.910259972991796" lon="8.985364842209206"><ele>821.2</ele><time>2026-04-04T11:09:04.002Z</time></trkpt><trkpt lat="40.91029484590954" lon="8.985505411085878"><ele>822.0</ele><time>2026-04-04T11:09:05.002Z</time></trkpt><trkpt lat="40.91034880144662" lon="8.985679697366551"><ele>822.0</ele><time>2026-04-04T11:09:06.002Z</time></trkpt><trkpt lat="40.9103971721953" lon="8.985866580376342"><ele>822.0</ele><time>2026-04-04T11:09:07.002Z</time></trkpt><trkpt lat="40.91042558067303" lon="8.986035812368728"><ele>822.0</ele><time>2026-04-04T11:09:08.002Z</time></trkpt><trkpt lat="40.91045443849923" lon="8.986196505422836"><ele>822.0</ele><time>2026-04-04T11:09:09.002Z</time></trkpt><trkpt lat="40.910499109949534" lon="8.986363467761954"><ele>822.0</ele><time>2026-04-04T11:09:10.002Z</time></trkpt><trkpt lat="40.91054544398125" lon="8.986521377126117"><ele>822.0</ele><time>2026-04-04T11:09:11.002Z</time></trkpt><trkpt lat="40.910596514465425" lon="8.986648700662782"><ele>822.0</ele><time>2026-04-04T11:09:12Z</time></trkpt><trkpt lat="40.91066133467894" lon="8.986767774529724"><ele>822.0</ele><time>2026-04-04T11:09:13Z</time></trkpt><trkpt lat="40.91075038688134" lon="8.986889427352263"><ele>821.2</ele><time>2026-04-04T11:09:14Z</time></trkpt><trkpt lat="40.91085019605442" lon="8.986992885100046"><ele>820.4000000000001</ele><time>2026-04-04T11:09:15Z</time></trkpt><trkpt lat="40.91093182174629" lon="8.987078556130864"><ele>819.5999999999999</ele><time>2026-04-04T11:09:16Z</time></trkpt><trkpt lat="40.911015732249986" lon="8.987153574116576"><ele>818.8</ele><time>2026-04-04T11:09:17Z</time></trkpt><trkpt lat="40.911112470821074" lon="8.987213486084618"><ele>818.0</ele><time>2026-04-04T11:09:18Z</time></trkpt><trkpt lat="40.911244424619426" lon="8.987252254792768"><ele>823.0</ele><time>2026-04-04T11:09:19Z</time></trkpt><trkpt lat="40.911369349802776" lon="8.987308680677883"><ele>828.0</ele><time>2026-04-04T11:09:20Z</time></trkpt><trkpt lat="40.91150247411771" lon="8.98736990936495"><ele>833.0</ele><time>2026-04-04T11:09:21Z</time></trkpt><trkpt lat="40.911634013048364" lon="8.987440037408668"><ele>838.0</ele><time>2026-04-04T11:09:22Z</time></trkpt><trkpt lat="40.91176834293132" lon="8.987517287375905"><ele>839.0</ele><time>2026-04-04T11:09:23Z</time></trkpt><trkpt lat="40.9119096338636" lon="8.98760495422668"><ele>840.0</ele><time>2026-04-04T11:09:24Z</time></trkpt><trkpt lat="40.912029171699004" lon="8.987696601424249"><ele>841.0</ele><time>2026-04-04T11:09:25Z</time></trkpt><trkpt lat="40.91214083571491" lon="8.9878557960574"><ele>841.0</ele><time>2026-04-04T11:09:26Z</time></trkpt><trkpt lat="40.912266870540854" lon="8.988026707617156"><ele>841.0</ele><time>2026-04-04T11:09:27Z</time></trkpt><trkpt lat="40.91239719409523" lon="8.98817028512084"><ele>841.0</ele><time>2026-04-04T11:09:28Z</time></trkpt><trkpt lat="40.91251312034768" lon="8.988293357412918"><ele>844.0</ele><time>2026-04-04T11:09:29Z</time></trkpt><trkpt lat="40.91260878376626" lon="8.98842003280164"><ele>847.0</ele><time>2026-04-04T11:09:30Z</time></trkpt><trkpt lat="40.9126913088652" lon="8.988563415422597"><ele>850.0</ele><time>2026-04-04T11:09:31Z</time></trkpt><trkpt lat="40.91278227200013" lon="8.98870619055968"><ele>853.0</ele><time>2026-04-04T11:09:32Z</time></trkpt><trkpt lat="40.91287336284926" lon="8.988868207144217"><ele>853.0</ele><time>2026-04-04T11:09:33Z</time></trkpt><trkpt lat="40.91295782003333" lon="8.989019035625446"><ele>853.0</ele><time>2026-04-04T11:09:34Z</time></trkpt><trkpt lat="40.91304446616177" lon="8.989169351015155"><ele>853.0</ele><time>2026-04-04T11:09:35Z</time></trkpt><trkpt lat="40.91313406786881" lon="8.98930964124958"><ele>853.0</ele><time>2026-04-04T11:09:36Z</time></trkpt><trkpt lat="40.91322884352506" lon="8.989441209646746"><ele>851.0</ele><time>2026-04-04T11:09:37Z</time></trkpt><trkpt lat="40.913333805859985" lon="8.9895609445103"><ele>849.0</ele><time>2026-04-04T11:09:38.001Z</time></trkpt><trkpt lat="40.91345046443507" lon="8.989669246557606"><ele>847.0</ele><time>2026-04-04T11:09:39.001Z</time></trkpt><trkpt lat="40.913567680044935" lon="8.989779799035912"><ele>845.0</ele><time>2026-04-04T11:09:40.001Z</time></trkpt><trkpt lat="40.91368176821127" lon="8.989893003885847"><ele>846.25</ele><time>2026-04-04T11:09:41.001Z</time></trkpt><trkpt lat="40.91379516978631" lon="8.99000653275474"><ele>847.5</ele><time>2026-04-04T11:09:42.001Z</time></trkpt><trkpt lat="40.913907236387644" lon="8.990108984255583"><ele>848.75</ele><time>2026-04-04T11:09:43.001Z</time></trkpt><trkpt lat="40.91400894820077" lon="8.990221647205924"><ele>850.0</ele><time>2026-04-04T11:09:44.001Z</time></trkpt><trkpt lat="40.914114980255015" lon="8.990341731203877"><ele>850.0</ele><time>2026-04-04T11:09:45.001Z</time></trkpt><trkpt lat="40.91422435364835" lon="8.990484245711626"><ele>850.0</ele><time>2026-04-04T11:09:46.001Z</time></trkpt><trkpt lat="40.91434339036643" lon="8.990626758795107"><ele>850.0</ele><time>2026-04-04T11:09:47.001Z</time></trkpt><trkpt lat="40.91446795703686" lon="8.990762002638748"><ele>851.25</ele><time>2026-04-04T11:09:48.001Z</time></trkpt><trkpt lat="40.91459409083303" lon="8.990890786905952"><ele>852.5</ele><time>2026-04-04T11:09:49.001Z</time></trkpt><trkpt lat="40.91470951221242" lon="8.990994703511385"><ele>853.75</ele><time>2026-04-04T11:09:50.001Z</time></trkpt><trkpt lat="40.91482874942078" lon="8.991085762795299"><ele>855.0</ele><time>2026-04-04T11:09:51.001Z</time></trkpt><trkpt lat="40.914948162228" lon="8.991143132330594"><ele>859.75</ele><time>2026-04-04T11:09:52.001Z</time></trkpt><trkpt lat="40.91508123455234" lon="8.991196332028792"><ele>864.5</ele><time>2026-04-04T11:09:53.001Z</time></trkpt><trkpt lat="40.91520647225981" lon="8.991248223276692"><ele>869.25</ele><time>2026-04-04T11:09:54.001Z</time></trkpt><trkpt lat="40.915310164361834" lon="8.991315583582724"><ele>874.0</ele><time>2026-04-04T11:09:55.001Z</time></trkpt><trkpt lat="40.9153838782397" lon="8.991386042090255"><ele>874.0</ele><time>2026-04-04T11:09:56.001Z</time></trkpt><trkpt lat="40.915458326422176" lon="8.991444355787625"><ele>874.0000000000001</ele><time>2026-04-04T11:09:57.001Z</time></trkpt><trkpt lat="40.91554618948929" lon="8.991548579353"><ele>874.0000000000001</ele><time>2026-04-04T11:09:58.001Z</time></trkpt><trkpt lat="40.91565013676546" lon="8.991631653337683"><ele>874.0</ele><time>2026-04-04T11:09:59.001Z</time></trkpt><trkpt lat="40.91574787200344" lon="8.99169502821803"><ele>874.0</ele><time>2026-04-04T11:10:00.001Z</time></trkpt><trkpt lat="40.915847539677614" lon="8.991760529990545"><ele>874.25</ele><time>2026-04-04T11:10:01.001Z</time></trkpt><trkpt lat="40.91594750858453" lon="8.991847904039115"><ele>874.5</ele><time>2026-04-04T11:10:02.001Z</time></trkpt><trkpt lat="40.91604372615534" lon="8.991971072831493"><ele>874.75</ele><time>2026-04-04T11:10:03.001Z</time></trkpt><trkpt lat="40.91615073046992" lon="8.992072162571159"><ele>875.0</ele><time>2026-04-04T11:10:04.001Z</time></trkpt><trkpt lat="40.91625869602883" lon="8.992155565589032"><ele>875.0</ele><time>2026-04-04T11:10:05.001Z</time></trkpt><trkpt lat="40.916365180982794" lon="8.992256270313444"><ele>875.0</ele><time>2026-04-04T11:10:06.001Z</time></trkpt><trkpt lat="40.91645877037141" lon="8.992357597248734"><ele>875.0</ele><time>2026-04-04T11:10:07.001Z</time></trkpt><trkpt lat="40.91652845231451" lon="8.992493285496984"><ele>875.0</ele><time>2026-04-04T11:10:08.001Z</time></trkpt><trkpt lat="40.916597903803904" lon="8.992634604676356"><ele>876.3333333333334</ele><time>2026-04-04T11:10:09.001Z</time></trkpt><trkpt lat="40.916675404174434" lon="8.992798701766185"><ele>877.6666666666667</ele><time>2026-04-04T11:10:10.001Z</time></trkpt><trkpt lat="40.916774876931235" lon="8.992958517453458"><ele>879.0</ele><time>2026-04-04T11:10:11.001Z</time></trkpt><trkpt lat="40.91687748515737" lon="8.99312317284314"><ele>879.0</ele><time>2026-04-04T11:10:12.001Z</time></trkpt><trkpt lat="40.91697061417582" lon="8.993273365706452"><ele>879.0</ele><time>2026-04-04T11:10:13.001Z</time></trkpt><trkpt lat="40.91702585489203" lon="8.993410598212524"><ele>879.0</ele><time>2026-04-04T11:10:14.001Z</time></trkpt><trkpt lat="40.91704379017772" lon="8.993548843146895"><ele>879.0</ele><time>2026-04-04T11:10:15.001Z</time></trkpt><trkpt lat="40.91704134342856" lon="8.993699873335697"><ele>877.75</ele><time>2026-04-04T11:10:16.001Z</time></trkpt><trkpt lat="40.91703537224215" lon="8.993880981785695"><ele>876.5</ele><time>2026-04-04T11:10:17.001Z</time></trkpt><trkpt lat="40.91702834759956" lon="8.994097647697842"><ele>875.25</ele><time>2026-04-04T11:10:18.001Z</time></trkpt><trkpt lat="40.91703077488788" lon="8.994278904951736"><ele>874.0</ele><time>2026-04-04T11:10:19.001Z</time></trkpt><trkpt lat="40.9170500219046" lon="8.9944508590638"><ele>871.25</ele><time>2026-04-04T11:10:20.001Z</time></trkpt><trkpt lat="40.917090815270434" lon="8.994619583767914"><ele>868.5</ele><time>2026-04-04T11:10:21.001Z</time></trkpt><trkpt lat="40.917120885548755" lon="8.994799909951862"><ele>865.75</ele><time>2026-04-04T11:10:22.001Z</time></trkpt><trkpt lat="40.917173460572826" lon="8.994988718507539"><ele>863.0</ele><time>2026-04-04T11:10:23.001Z</time></trkpt><trkpt lat="40.917233171389604" lon="8.995162424965065"><ele>862.0</ele><time>2026-04-04T11:10:24.001Z</time></trkpt><trkpt lat="40.91729364664393" lon="8.99531732418357"><ele>861.0</ele><time>2026-04-04T11:10:25.001Z</time></trkpt><trkpt lat="40.917344813051066" lon="8.995458991177067"><ele>860.0</ele><time>2026-04-04T11:10:26.001Z</time></trkpt><trkpt lat="40.917385007362974" lon="8.995581386442865"><ele>859.0</ele><time>2026-04-04T11:10:27.001Z</time></trkpt><trkpt lat="40.91741061447006" lon="8.995703874140233"><ele>858.0</ele><time>2026-04-04T11:10:28.001Z</time></trkpt><trkpt lat="40.91737903741363" lon="8.995825367063452"><ele>858.0</ele><time>2026-04-04T11:10:29.001Z</time></trkpt><trkpt lat="40.91733341169404" lon="8.995945031631042"><ele>858.0</ele><time>2026-04-04T11:10:30.001Z</time></trkpt><trkpt lat="40.91728871533961" lon="8.996106629643709"><ele>858.0</ele><time>2026-04-04T11:10:31.001Z</time></trkpt><trkpt lat="40.91723542772941" lon="8.996309922594131"><ele>858.0</ele><time>2026-04-04T11:10:32.001Z</time></trkpt><trkpt lat="40.91718532869869" lon="8.996533825843395"><ele>859.6666666666667</ele><time>2026-04-04T11:10:33.001Z</time></trkpt><trkpt lat="40.917137599377625" lon="8.996747016244871"><ele>861.3333333333334</ele><time>2026-04-04T11:10:34.001Z</time></trkpt><trkpt lat="40.91708522707877" lon="8.996946715142224"><ele>863.0</ele><time>2026-04-04T11:10:35.001Z</time></trkpt><trkpt lat="40.91704330871546" lon="8.997138935377595"><ele>863.0</ele><time>2026-04-04T11:10:36.001Z</time></trkpt><trkpt lat="40.91700308353341" lon="8.997303642555883"><ele>863.0</ele><time>2026-04-04T11:10:37.001Z</time></trkpt><trkpt lat="40.916972100145756" lon="8.997440975655834"><ele>863.0</ele><time>2026-04-04T11:10:38.001Z</time></trkpt><trkpt lat="40.91696914314178" lon="8.997543745966603"><ele>863.0</ele><time>2026-04-04T11:10:39.001Z</time></trkpt><trkpt lat="40.916940779772574" lon="8.997639349441782"><ele>863.0</ele><time>2026-04-04T11:10:40.001Z</time></trkpt><trkpt lat="40.91694407888875" lon="8.997734746061846"><ele>864.25</ele><time>2026-04-04T11:10:41.001Z</time></trkpt><trkpt lat="40.91697320489972" lon="8.997905071938035"><ele>865.5</ele><time>2026-04-04T11:10:43.001Z</time></trkpt><trkpt lat="40.91697714549846" lon="8.998037974911483"><ele>866.75</ele><time>2026-04-04T11:10:44.001Z</time></trkpt><trkpt lat="40.917006587568395" lon="8.998180798038902"><ele>868.0</ele><time>2026-04-04T11:10:45.001Z</time></trkpt><trkpt lat="40.91702751313827" lon="8.998331870408354"><ele>869.25</ele><time>2026-04-04T11:10:46.001Z</time></trkpt><trkpt lat="40.917044006025634" lon="8.998478784041765"><ele>870.5</ele><time>2026-04-04T11:10:47.001Z</time></trkpt><trkpt lat="40.91706171176061" lon="8.998644031643819"><ele>871.75</ele><time>2026-04-04T11:10:48.001Z</time></trkpt><trkpt lat="40.91707944891218" lon="8.998817162202016"><ele>873.0</ele><time>2026-04-04T11:10:49.001Z</time></trkpt><trkpt lat="40.91709664847027" lon="8.998996455029257"><ele>872.25</ele><time>2026-04-04T11:10:50.001Z</time></trkpt><trkpt lat="40.91710407267615" lon="8.999181477210232"><ele>871.5</ele><time>2026-04-04T11:10:51.001Z</time></trkpt><trkpt lat="40.917109193953664" lon="8.999373201631961"><ele>870.75</ele><time>2026-04-04T11:10:52.001Z</time></trkpt><trkpt lat="40.917110917974554" lon="8.999559050313994"><ele>870.0</ele><time>2026-04-04T11:10:53.001Z</time></trkpt><trkpt lat="40.91711132325323" lon="8.999721971056843"><ele>870.0</ele><time>2026-04-04T11:10:54.001Z</time></trkpt><trkpt lat="40.91710294614741" lon="8.999865376122452"><ele>870.0</ele><time>2026-04-04T11:10:55.001Z</time></trkpt><trkpt lat="40.917057692967965" lon="8.999988050494748"><ele>870.0</ele><time>2026-04-04T11:10:56.001Z</time></trkpt><trkpt lat="40.9170201284976" lon="9.000117254763028"><ele>870.0</ele><time>2026-04-04T11:10:57.001Z</time></trkpt><trkpt lat="40.91697167011932" lon="9.000254501709634"><ele>870.0</ele><time>2026-04-04T11:10:58.001Z</time></trkpt><trkpt lat="40.91691156085117" lon="9.000399314468257"><ele>870.0</ele><time>2026-04-04T11:10:59.001Z</time></trkpt><trkpt lat="40.916845923052904" lon="9.000543484628743"><ele>870.0</ele><time>2026-04-04T11:11:00.001Z</time></trkpt><trkpt lat="40.91677839284181" lon="9.000685585858424"><ele>870.0</ele><time>2026-04-04T11:11:01.001Z</time></trkpt><trkpt lat="40.91671217729942" lon="9.000817812293036"><ele>870.0</ele><time>2026-04-04T11:11:02.001Z</time></trkpt><trkpt lat="40.91664168834658" lon="9.000942381270304"><ele>870.5</ele><time>2026-04-04T11:11:03.001Z</time></trkpt><trkpt lat="40.91656028805689" lon="9.001058320798377"><ele>871.0</ele><time>2026-04-04T11:11:04.001Z</time></trkpt><trkpt lat="40.91647290248451" lon="9.001177475326019"><ele>871.5</ele><time>2026-04-04T11:11:05.001Z</time></trkpt><trkpt lat="40.91637991648988" lon="9.001303774052456"><ele>872.0</ele><time>2026-04-04T11:11:06.001Z</time></trkpt><trkpt lat="40.91628600753377" lon="9.001433034059158"><ele>872.0</ele><time>2026-04-04T11:11:07.001Z</time></trkpt><trkpt lat="40.91619640946738" lon="9.001560288334842"><ele>872.0</ele><time>2026-04-04T11:11:08.001Z</time></trkpt><trkpt lat="40.91611347569275" lon="9.001684278267861"><ele>872.0</ele><time>2026-04-04T11:11:09.001Z</time></trkpt><trkpt lat="40.91604893895522" lon="9.001827366590513"><ele>872.0</ele><time>2026-04-04T11:11:10.001Z</time></trkpt><trkpt lat="40.915994519453506" lon="9.001966617295881"><ele>871.0</ele><time>2026-04-04T11:11:11.002Z</time></trkpt><trkpt lat="40.915926031998836" lon="9.002075179175742"><ele>870.0</ele><time>2026-04-04T11:11:12.002Z</time></trkpt><trkpt lat="40.91585367271246" lon="9.002187891560782"><ele>869.0</ele><time>2026-04-04T11:11:13.002Z</time></trkpt><trkpt lat="40.9157770610019" lon="9.002313405696825"><ele>868.0</ele><time>2026-04-04T11:11:14.002Z</time></trkpt><trkpt lat="40.915701074334656" lon="9.002435918289848"><ele>864.5</ele><time>2026-04-04T11:11:15.002Z</time></trkpt><trkpt lat="40.91562216428311" lon="9.002551094236614"><ele>861.0</ele><time>2026-04-04T11:11:16.002Z</time></trkpt><trkpt lat="40.915537462981256" lon="9.00267285848841"><ele>857.5</ele><time>2026-04-04T11:11:17.002Z</time></trkpt><trkpt lat="40.91545339959716" lon="9.002797922676368"><ele>854.0</ele><time>2026-04-04T11:11:18Z</time></trkpt><trkpt lat="40.91536590355059" lon="9.00292676266524"><ele>854.0</ele><time>2026-04-04T11:11:19Z</time></trkpt><trkpt lat="40.91528011186426" lon="9.003044456900534"><ele>854.0</ele><time>2026-04-04T11:11:20Z</time></trkpt><trkpt lat="40.915201873339775" lon="9.0031585495573"><ele>854.0</ele><time>2026-04-04T11:11:21Z</time></trkpt><trkpt lat="40.915162696837605" lon="9.003315178805469"><ele>854.0</ele><time>2026-04-04T11:11:22Z</time></trkpt><trkpt lat="40.91511286270946" lon="9.003474205637675"><ele>849.6666666666667</ele><time>2026-04-04T11:11:23Z</time></trkpt><trkpt lat="40.915060908491014" lon="9.003684424390617"><ele>845.3333333333333</ele><time>2026-04-04T11:11:24Z</time></trkpt><trkpt lat="40.91501434032947" lon="9.003916097161044"><ele>841.0</ele><time>2026-04-04T11:11:25Z</time></trkpt><trkpt lat="40.91495990427929" lon="9.00415143620736"><ele>840.6666666666666</ele><time>2026-04-04T11:11:26Z</time></trkpt><trkpt lat="40.91490237018689" lon="9.004385081473568"><ele>840.3333333333333</ele><time>2026-04-04T11:11:27Z</time></trkpt><trkpt lat="40.914851587177395" lon="9.004617563878218"><ele>840.0</ele><time>2026-04-04T11:11:28Z</time></trkpt><trkpt lat="40.91480364819869" lon="9.004847168985373"><ele>840.3333333333333</ele><time>2026-04-04T11:11:29Z</time></trkpt><trkpt lat="40.9147559398135" lon="9.00506809140667"><ele>840.6666666666666</ele><time>2026-04-04T11:11:30Z</time></trkpt><trkpt lat="40.91471875492229" lon="9.005290752534249"><ele>841.0</ele><time>2026-04-04T11:11:31Z</time></trkpt><trkpt lat="40.91467340182133" lon="9.005496393471049"><ele>841.0</ele><time>2026-04-04T11:11:32Z</time></trkpt><trkpt lat="40.91464179639171" lon="9.005683399032055"><ele>841.0</ele><time>2026-04-04T11:11:33Z</time></trkpt><trkpt lat="40.91460374116435" lon="9.005854932111896"><ele>841.0</ele><time>2026-04-04T11:11:34Z</time></trkpt><trkpt lat="40.91455827123837" lon="9.006024797923054"><ele>841.0</ele><time>2026-04-04T11:11:35Z</time></trkpt><trkpt lat="40.91450914335124" lon="9.006196989196004"><ele>842.5</ele><time>2026-04-04T11:11:36Z</time></trkpt><trkpt lat="40.914464254588914" lon="9.006376447076443"><ele>844.0</ele><time>2026-04-04T11:11:37Z</time></trkpt><trkpt lat="40.91440804871678" lon="9.006550850318298"><ele>845.5</ele><time>2026-04-04T11:11:38Z</time></trkpt><trkpt lat="40.91432939524112" lon="9.00671824176027"><ele>847.0</ele><time>2026-04-04T11:11:39Z</time></trkpt><trkpt lat="40.91424211282328" lon="9.006884481513113"><ele>845.3333333333333</ele><time>2026-04-04T11:11:40Z</time></trkpt><trkpt lat="40.914148136115884" lon="9.00705273018974"><ele>843.6666666666667</ele><time>2026-04-04T11:11:41Z</time></trkpt><trkpt lat="40.91404798914068" lon="9.007226488526037"><ele>842.0</ele><time>2026-04-04T11:11:42Z</time></trkpt><trkpt lat="40.9139491082733" lon="9.007398050113382"><ele>844.25</ele><time>2026-04-04T11:11:43.001Z</time></trkpt><trkpt lat="40.91386135976605" lon="9.00755242022935"><ele>846.5</ele><time>2026-04-04T11:11:44.001Z</time></trkpt><trkpt lat="40.91378905392828" lon="9.007710337254942"><ele>848.75</ele><time>2026-04-04T11:11:45.001Z</time></trkpt><trkpt lat="40.91373372691194" lon="9.007871664569867"><ele>851.0</ele><time>2026-04-04T11:11:46.001Z</time></trkpt><trkpt lat="40.91368681014861" lon="9.008059377182796"><ele>851.0</ele><time>2026-04-04T11:11:47.001Z</time></trkpt><trkpt lat="40.91364225479123" lon="9.008260392366031"><ele>851.0</ele><time>2026-04-04T11:11:48.001Z</time></trkpt><trkpt lat="40.913612236092966" lon="9.008458509466527"><ele>851.0</ele><time>2026-04-04T11:11:49.001Z</time></trkpt><trkpt lat="40.91356225122689" lon="9.00862632338399"><ele>851.0</ele><time>2026-04-04T11:11:50.001Z</time></trkpt><trkpt lat="40.91352475870718" lon="9.008792269988827"><ele>851.0</ele><time>2026-04-04T11:11:51.001Z</time></trkpt><trkpt lat="40.91349730704309" lon="9.008948746923297"><ele>851.0</ele><time>2026-04-04T11:11:52.001Z</time></trkpt><trkpt lat="40.91348350055106" lon="9.00909514539828"><ele>851.0</ele><time>2026-04-04T11:11:53.001Z</time></trkpt><trkpt lat="40.91349639044431" lon="9.009255921410283"><ele>851.0</ele><time>2026-04-04T11:11:54.001Z</time></trkpt><trkpt lat="40.91353594065089" lon="9.009452877543403"><ele>851.0</ele><time>2026-04-04T11:11:55.001Z</time></trkpt><trkpt lat="40.913591290328036" lon="9.009662716604307"><ele>851.0</ele><time>2026-04-04T11:11:56.001Z</time></trkpt><trkpt lat="40.91364546391096" lon="9.00986524887752"><ele>851.0</ele><time>2026-04-04T11:11:57.001Z</time></trkpt><trkpt lat="40.913696692274264" lon="9.010046726455627"><ele>850.1999999999999</ele><time>2026-04-04T11:11:58.001Z</time></trkpt><trkpt lat="40.913739558461884" lon="9.010188171467146"><ele>849.4</ele><time>2026-04-04T11:11:59.001Z</time></trkpt><trkpt lat="40.913776327600495" lon="9.010318588525342"><ele>848.6</ele><time>2026-04-04T11:12:00.001Z</time></trkpt><trkpt lat="40.9138113108093" lon="9.010455419559356"><ele>847.8</ele><time>2026-04-04T11:12:01.001Z</time></trkpt><trkpt lat="40.91385453134452" lon="9.010594866815206"><ele>847.0</ele><time>2026-04-04T11:12:02.001Z</time></trkpt><trkpt lat="40.913913290460414" lon="9.010733792139238"><ele>844.25</ele><time>2026-04-04T11:12:03.001Z</time></trkpt><trkpt lat="40.9139717359938" lon="9.010860535149973"><ele>841.5</ele><time>2026-04-04T11:12:04.001Z</time></trkpt><trkpt lat="40.91400587716534" lon="9.011019796901337"><ele>838.75</ele><time>2026-04-04T11:12:05.001Z</time></trkpt><trkpt lat="40.9140486155935" lon="9.011169621328749"><ele>836.0</ele><time>2026-04-04T11:12:06.001Z</time></trkpt><trkpt lat="40.914102920506316" lon="9.011318837763643"><ele>836.0</ele><time>2026-04-04T11:12:07.001Z</time></trkpt><trkpt lat="40.91414658823372" lon="9.0114794917118"><ele>836.0</ele><time>2026-04-04T11:12:08.001Z</time></trkpt><trkpt lat="40.91419194512407" lon="9.011638572236148"><ele>836.0</ele><time>2026-04-04T11:12:09.001Z</time></trkpt><trkpt lat="40.914205709348025" lon="9.011801442283797"><ele>836.0</ele><time>2026-04-04T11:12:10.001Z</time></trkpt><trkpt lat="40.914236490033545" lon="9.011964357723256"><ele>833.75</ele><time>2026-04-04T11:12:11.001Z</time></trkpt><trkpt lat="40.91426940130501" lon="9.012120638522012"><ele>831.5</ele><time>2026-04-04T11:12:12.001Z</time></trkpt><trkpt lat="40.91430619166262" lon="9.012275047150766"><ele>829.25</ele><time>2026-04-04T11:12:13.001Z</time></trkpt><trkpt lat="40.9143407198884" lon="9.012414526458967"><ele>827.0</ele><time>2026-04-04T11:12:14.001Z</time></trkpt><trkpt lat="40.91436768506261" lon="9.012546697874168"><ele>827.0000000000001</ele><time>2026-04-04T11:12:15.001Z</time></trkpt><trkpt lat="40.91440106440507" lon="9.012672497930627"><ele>827.0</ele><time>2026-04-04T11:12:16.001Z</time></trkpt><trkpt lat="40.91445316226496" lon="9.012773883817324"><ele>827.0</ele><time>2026-04-04T11:12:17.001Z</time></trkpt><trkpt lat="40.914486617050095" lon="9.012863340667234"><ele>827.0</ele><time>2026-04-04T11:12:18.001Z</time></trkpt><trkpt lat="40.914543664947594" lon="9.012948086347077"><ele>827.0000000000001</ele><time>2026-04-04T11:12:19.001Z</time></trkpt><trkpt lat="40.91461263994348" lon="9.013021787035202"><ele>827.0</ele><time>2026-04-04T11:12:20.001Z</time></trkpt><trkpt lat="40.91469679473107" lon="9.013081869128573"><ele>827.0</ele><time>2026-04-04T11:12:21.001Z</time></trkpt><trkpt lat="40.9147776216459" lon="9.013131797513905"><ele>827.0</ele><time>2026-04-04T11:12:22.001Z</time></trkpt><trkpt lat="40.91485133297949" lon="9.013199496270653"><ele>827.0</ele><time>2026-04-04T11:12:23.001Z</time></trkpt><trkpt lat="40.91493513892997" lon="9.013288362756931"><ele>827.0</ele><time>2026-04-04T11:12:24.001Z</time></trkpt><trkpt lat="40.91502299869115" lon="9.013382939663089"><ele>827.0</ele><time>2026-04-04T11:12:25.001Z</time></trkpt><trkpt lat="40.91511072674647" lon="9.013484839679185"><ele>825.4000000000001</ele><time>2026-04-04T11:12:26.001Z</time></trkpt><trkpt lat="40.91518864603726" lon="9.013580756769166"><ele>823.8000000000001</ele><time>2026-04-04T11:12:27.001Z</time></trkpt><trkpt lat="40.91525793054731" lon="9.013685105903804"><ele>822.2</ele><time>2026-04-04T11:12:28.001Z</time></trkpt><trkpt lat="40.915286268821305" lon="9.01381672664093"><ele>820.6</ele><time>2026-04-04T11:12:29.001Z</time></trkpt><trkpt lat="40.91531042827641" lon="9.013959314084458"><ele>819.0</ele><time>2026-04-04T11:12:30.001Z</time></trkpt><trkpt lat="40.91531826442352" lon="9.014108736520475"><ele>814.75</ele><time>2026-04-04T11:12:31.001Z</time></trkpt><trkpt lat="40.91531939670524" lon="9.014261902623941"><ele>810.5</ele><time>2026-04-04T11:12:32.001Z</time></trkpt><trkpt lat="40.91531225700308" lon="9.014415427106572"><ele>806.25</ele><time>2026-04-04T11:12:33.001Z</time></trkpt><trkpt lat="40.915319790765814" lon="9.014563795286517"><ele>802.0</ele><time>2026-04-04T11:12:34.001Z</time></trkpt><trkpt lat="40.91536084421447" lon="9.014721126849127"><ele>802.0</ele><time>2026-04-04T11:12:35.001Z</time></trkpt><trkpt lat="40.91541391420194" lon="9.014858851408057"><ele>802.0</ele><time>2026-04-04T11:12:36.001Z</time></trkpt><trkpt lat="40.9154435940076" lon="9.015025635306518"><ele>802.0</ele><time>2026-04-04T11:12:37.001Z</time></trkpt><trkpt lat="40.91550812765325" lon="9.015177209323891"><ele>802.0</ele><time>2026-04-04T11:12:38.001Z</time></trkpt><trkpt lat="40.915564278159614" lon="9.01533583276531"><ele>798.0</ele><time>2026-04-04T11:12:39.001Z</time></trkpt><trkpt lat="40.91562278891017" lon="9.015496847139726"><ele>794.0</ele><time>2026-04-04T11:12:40.001Z</time></trkpt><trkpt lat="40.91568418839254" lon="9.015646232153582"><ele>790.0</ele><time>2026-04-04T11:12:41.001Z</time></trkpt><trkpt lat="40.91573113715468" lon="9.015803215772245"><ele>786.0</ele><time>2026-04-04T11:12:42.001Z</time></trkpt><trkpt lat="40.915793338636234" lon="9.015939082753434"><ele>783.5</ele><time>2026-04-04T11:12:43.001Z</time></trkpt><trkpt lat="40.9158531875678" lon="9.01608002066715"><ele>781.0</ele><time>2026-04-04T11:12:44.001Z</time></trkpt><trkpt lat="40.91590682668805" lon="9.016226470387869"><ele>778.5</ele><time>2026-04-04T11:12:45.001Z</time></trkpt><trkpt lat="40.91595749950675" lon="9.016373732819336"><ele>776.0</ele><time>2026-04-04T11:12:46.001Z</time></trkpt><trkpt lat="40.91600904037873" lon="9.01652351793281"><ele>772.75</ele><time>2026-04-04T11:12:47.001Z</time></trkpt><trkpt lat="40.91607047062572" lon="9.01666833702084"><ele>769.5</ele><time>2026-04-04T11:12:48.001Z</time></trkpt><trkpt lat="40.916125107250856" lon="9.016820182455207"><ele>766.25</ele><time>2026-04-04T11:12:49.001Z</time></trkpt><trkpt lat="40.91617923109334" lon="9.016976034448593"><ele>763.0</ele><time>2026-04-04T11:12:50.001Z</time></trkpt><trkpt lat="40.91623344539999" lon="9.017130202658207"><ele>763.0</ele><time>2026-04-04T11:12:51.001Z</time></trkpt><trkpt lat="40.916283253329496" lon="9.0172838207982"><ele>763.0</ele><time>2026-04-04T11:12:52.001Z</time></trkpt><trkpt lat="40.91632466510015" lon="9.017435192801285"><ele>763.0</ele><time>2026-04-04T11:12:53.001Z</time></trkpt><trkpt lat="40.916359493685924" lon="9.017597804875379"><ele>763.0</ele><time>2026-04-04T11:12:54.001Z</time></trkpt><trkpt lat="40.91639119860789" lon="9.017743553510426"><ele>759.75</ele><time>2026-04-04T11:12:55.001Z</time></trkpt><trkpt lat="40.916421411269475" lon="9.01788839647836"><ele>756.5</ele><time>2026-04-04T11:12:56.001Z</time></trkpt><trkpt lat="40.916450719078284" lon="9.01802912054701"><ele>753.25</ele><time>2026-04-04T11:12:57.001Z</time></trkpt><trkpt lat="40.91649434192323" lon="9.018173802858017"><ele>750.0</ele><time>2026-04-04T11:12:58.001Z</time></trkpt><trkpt lat="40.916545177961304" lon="9.01831854298229"><ele>747.0</ele><time>2026-04-04T11:12:59.001Z</time></trkpt><trkpt lat="40.91662491370075" lon="9.018449230316623"><ele>744.0</ele><time>2026-04-04T11:13:00.001Z</time></trkpt><trkpt lat="40.9166957338376" lon="9.018579712000015"><ele>741.0</ele><time>2026-04-04T11:13:01.001Z</time></trkpt><trkpt lat="40.91672688595801" lon="9.018731175022884"><ele>738.0</ele><time>2026-04-04T11:13:02.001Z</time></trkpt><trkpt lat="40.916697497942536" lon="9.018908410581714"><ele>738.0</ele><time>2026-04-04T11:13:03.001Z</time></trkpt><trkpt lat="40.916675029073524" lon="9.019101081153376"><ele>738.0</ele><time>2026-04-04T11:13:04.001Z</time></trkpt><trkpt lat="40.916642312856624" lon="9.019321229221648"><ele>738.0</ele><time>2026-04-04T11:13:05.001Z</time></trkpt><trkpt lat="40.91659834555201" lon="9.01954449970326"><ele>736.25</ele><time>2026-04-04T11:13:06.001Z</time></trkpt><trkpt lat="40.91655741330839" lon="9.019741942560577"><ele>734.5</ele><time>2026-04-04T11:13:07.001Z</time></trkpt><trkpt lat="40.91650288337461" lon="9.019886322403256"><ele>732.75</ele><time>2026-04-04T11:13:08.001Z</time></trkpt><trkpt lat="40.91643374658649" lon="9.019986866771964"><ele>731.0</ele><time>2026-04-04T11:13:09.001Z</time></trkpt><trkpt lat="40.91634849271779" lon="9.020067962675475"><ele>730.5999999999999</ele><time>2026-04-04T11:13:10.001Z</time></trkpt><trkpt lat="40.916244007052384" lon="9.020161510682193"><ele>730.2</ele><time>2026-04-04T11:13:11.001Z</time></trkpt><trkpt lat="40.91613580833523" lon="9.020236392959454"><ele>729.8</ele><time>2026-04-04T11:13:12.001Z</time></trkpt><trkpt lat="40.91604787746462" lon="9.020305823691332"><ele>729.4000000000001</ele><time>2026-04-04T11:13:13.001Z</time></trkpt><trkpt lat="40.91598629277049" lon="9.020355744931782"><ele>729.0</ele><time>2026-04-04T11:13:14.001Z</time></trkpt><trkpt lat="40.91592281886775" lon="9.020409901581992"><ele>729.0</ele><time>2026-04-04T11:13:16.002Z</time></trkpt><trkpt lat="40.91598292265658" lon="9.020541662550153"><ele>729.0</ele><time>2026-04-04T11:13:20.002Z</time></trkpt><trkpt lat="40.91214083571491" lon="8.9878557960574"><ele>766.3333333333333</ele><time>2026-04-04T11:09:26Z</time></trkpt><trkpt lat="40.912266870540854" lon="8.988026707617156"><ele>803.6666666666666</ele><time>2026-04-04T11:09:27Z</time></trkpt><trkpt lat="40.91239719409523" lon="8.98817028512084"><ele>841.0</ele><time>2026-04-04T11:09:28Z</time></trkpt><trkpt lat="40.91251312034768" lon="8.988293357412918"><ele>844.0</ele><time>2026-04-04T11:09:29Z</time></trkpt><trkpt lat="40.91260878376626" lon="8.98842003280164"><ele>847.0</ele><time>2026-04-04T11:09:30Z</time></trkpt><trkpt lat="40.9126913088652" lon="8.988563415422597"><ele>850.0</ele><time>2026-04-04T11:09:31Z</time></trkpt><trkpt lat="40.91278227200013" lon="8.98870619055968"><ele>853.0</ele><time>2026-04-04T11:09:32Z</time></trkpt><trkpt lat="40.91287336284926" lon="8.988868207144217"><ele>853.0</ele><time>2026-04-04T11:09:33Z</time></trkpt><trkpt lat="40.91295782003333" lon="8.989019035625446"><ele>853.0</ele><time>2026-04-04T11:09:34Z</time></trkpt><trkpt lat="40.91304446616177" lon="8.989169351015155"><ele>853.0</ele><time>2026-04-04T11:09:35Z</time></trkpt><trkpt lat="40.91313406786881" lon="8.98930964124958"><ele>853.0</ele><time>2026-04-04T11:09:36Z</time></trkpt><trkpt lat="40.91322884352506" lon="8.989441209646746"><ele>851.0</ele><time>2026-04-04T11:09:37Z</time></trkpt><trkpt lat="40.913333805859985" lon="8.9895609445103"><ele>849.0</ele><time>2026-04-04T11:09:38.001Z</time></trkpt><trkpt lat="40.91345046443507" lon="8.989669246557606"><ele>847.0</ele><time>2026-04-04T11:09:39.001Z</time></trkpt><trkpt lat="40.913567680044935" lon="8.989779799035912"><ele>845.0</ele><time>2026-04-04T11:09:40.001Z</time></trkpt><trkpt lat="40.91368176821127" lon="8.989893003885847"><ele>846.25</ele><time>2026-04-04T11:09:41.001Z</time></trkpt><trkpt lat="40.91379516978631" lon="8.99000653275474"><ele>847.5</ele><time>2026-04-04T11:09:42.001Z</time></trkpt><trkpt lat="40.913907236387644" lon="8.990108984255583"><ele>848.75</ele><time>2026-04-04T11:09:43.001Z</time></trkpt><trkpt lat="40.91400894820077" lon="8.990221647205924"><ele>850.0</ele><time>2026-04-04T11:09:44.001Z</time></trkpt><trkpt lat="40.914114980255015" lon="8.990341731203877"><ele>850.0</ele><time>2026-04-04T11:09:45.001Z</time></trkpt><trkpt lat="40.91422435364835" lon="8.990484245711626"><ele>850.0</ele><time>2026-04-04T11:09:46.001Z</time></trkpt><trkpt lat="40.91434339036643" lon="8.990626758795107"><ele>850.0</ele><time>2026-04-04T11:09:47.001Z</time></trkpt><trkpt lat="40.91446795703686" lon="8.990762002638748"><ele>851.25</ele><time>2026-04-04T11:09:48.001Z</time></trkpt><trkpt lat="40.91459409083303" lon="8.990890786905952"><ele>852.5</ele><time>2026-04-04T11:09:49.001Z</time></trkpt><trkpt lat="40.91470951221242" lon="8.990994703511385"><ele>853.75</ele><time>2026-04-04T11:09:50.001Z</time></trkpt><trkpt lat="40.91482874942078" lon="8.991085762795299"><ele>855.0</ele><time>2026-04-04T11:09:51.001Z</time></trkpt><trkpt lat="40.914948162228" lon="8.991143132330594"><ele>859.75</ele><time>2026-04-04T11:09:52.001Z</time></trkpt><trkpt lat="40.91508123455234" lon="8.991196332028792"><ele>864.5</ele><time>2026-04-04T11:09:53.001Z</time></trkpt><trkpt lat="40.91520647225981" lon="8.991248223276692"><ele>869.25</ele><time>2026-04-04T11:09:54.001Z</time></trkpt><trkpt lat="40.915310164361834" lon="8.991315583582724"><ele>874.0</ele><time>2026-04-04T11:09:55.001Z</time></trkpt><trkpt lat="40.9153838782397" lon="8.991386042090255"><ele>874.0</ele><time>2026-04-04T11:09:56.001Z</time></trkpt><trkpt lat="40.915458326422176" lon="8.991444355787625"><ele>874.0000000000001</ele><time>2026-04-04T11:09:57.001Z</time></trkpt><trkpt lat="40.91554618948929" lon="8.991548579353"><ele>874.0000000000001</ele><time>2026-04-04T11:09:58.001Z</time></trkpt><trkpt lat="40.91565013676546" lon="8.991631653337683"><ele>874.0</ele><time>2026-04-04T11:09:59.001Z</time></trkpt><trkpt lat="40.91574787200344" lon="8.99169502821803"><ele>874.0</ele><time>2026-04-04T11:10:00.001Z</time></trkpt><trkpt lat="40.915847539677614" lon="8.991760529990545"><ele>874.25</ele><time>2026-04-04T11:10:01.001Z</time></trkpt><trkpt lat="40.91594750858453" lon="8.991847904039115"><ele>874.5</ele><time>2026-04-04T11:10:02.001Z</time></trkpt><trkpt lat="40.91604372615534" lon="8.991971072831493"><ele>874.75</ele><time>2026-04-04T11:10:03.001Z</time></trkpt><trkpt lat="40.91615073046992" lon="8.992072162571159"><ele>875.0</ele><time>2026-04-04T11:10:04.001Z</time></trkpt><trkpt lat="40.91625869602883" lon="8.992155565589032"><ele>875.0</ele><time>2026-04-04T11:10:05.001Z</time></trkpt><trkpt lat="40.916365180982794" lon="8.992256270313444"><ele>875.0</ele><time>2026-04-04T11:10:06.001Z</time></trkpt><trkpt lat="40.91645877037141" lon="8.992357597248734"><ele>875.0</ele><time>2026-04-04T11:10:07.001Z</time></trkpt><trkpt lat="40.91652845231451" lon="8.992493285496984"><ele>875.0</ele><time>2026-04-04T11:10:08.001Z</time></trkpt><trkpt lat="40.916597903803904" lon="8.992634604676356"><ele>876.3333333333334</ele><time>2026-04-04T11:10:09.001Z</time></trkpt><trkpt lat="40.916675404174434" lon="8.992798701766185"><ele>877.6666666666667</ele><time>2026-04-04T11:10:10.001Z</time></trkpt><trkpt lat="40.916774876931235" lon="8.992958517453458"><ele>879.0</ele><time>2026-04-04T11:10:11.001Z</time></trkpt><trkpt lat="40.91687748515737" lon="8.99312317284314"><ele>879.0</ele><time>2026-04-04T11:10:12.001Z</time></trkpt><trkpt lat="40.91697061417582" lon="8.993273365706452"><ele>879.0</ele><time>2026-04-04T11:10:13.001Z</time></trkpt><trkpt lat="40.91702585489203" lon="8.993410598212524"><ele>879.0</ele><time>2026-04-04T11:10:14.001Z</time></trkpt><trkpt lat="40.91704379017772" lon="8.993548843146895"><ele>879.0</ele><time>2026-04-04T11:10:15.001Z</time></trkpt><trkpt lat="40.91704134342856" lon="8.993699873335697"><ele>877.75</ele><time>2026-04-04T11:10:16.001Z</time></trkpt><trkpt lat="40.91703537224215" lon="8.993880981785695"><ele>876.5</ele><time>2026-04-04T11:10:17.001Z</time></trkpt><trkpt lat="40.91702834759956" lon="8.994097647697842"><ele>875.25</ele><time>2026-04-04T11:10:18.001Z</time></trkpt><trkpt lat="40.91703077488788" lon="8.994278904951736"><ele>874.0</ele><time>2026-04-04T11:10:19.001Z</time></trkpt><trkpt lat="40.9170500219046" lon="8.9944508590638"><ele>871.25</ele><time>2026-04-04T11:10:20.001Z</time></trkpt><trkpt lat="40.917090815270434" lon="8.994619583767914"><ele>868.5</ele><time>2026-04-04T11:10:21.001Z</time></trkpt><trkpt lat="40.917120885548755" lon="8.994799909951862"><ele>865.75</ele><time>2026-04-04T11:10:22.001Z</time></trkpt><trkpt lat="40.917173460572826" lon="8.994988718507539"><ele>863.0</ele><time>2026-04-04T11:10:23.001Z</time></trkpt><trkpt lat="40.917233171389604" lon="8.995162424965065"><ele>862.0</ele><time>2026-04-04T11:10:24.001Z</time></trkpt><trkpt lat="40.91729364664393" lon="8.99531732418357"><ele>861.0</ele><time>2026-04-04T11:10:25.001Z</time></trkpt><trkpt lat="40.917344813051066" lon="8.995458991177067"><ele>860.0</ele><time>2026-04-04T11:10:26.001Z</time></trkpt><trkpt lat="40.917385007362974" lon="8.995581386442865"><ele>859.0</ele><time>2026-04-04T11:10:27.001Z</time></trkpt><trkpt lat="40.91741061447006" lon="8.995703874140233"><ele>858.0</ele><time>2026-04-04T11:10:28.001Z</time></trkpt><trkpt lat="40.91737903741363" lon="8.995825367063452"><ele>858.0</ele><time>2026-04-04T11:10:29.001Z</time></trkpt><trkpt lat="40.91733341169404" lon="8.995945031631042"><ele>858.0</ele><time>2026-04-04T11:10:30.001Z</time></trkpt><trkpt lat="40.91728871533961" lon="8.996106629643709"><ele>858.0</ele><time>2026-04-04T11:10:31.001Z</time></trkpt><trkpt lat="40.91723542772941" lon="8.996309922594131"><ele>858.0</ele><time>2026-04-04T11:10:32.001Z</time></trkpt><trkpt lat="40.91718532869869" lon="8.996533825843395"><ele>859.6666666666667</ele><time>2026-04-04T11:10:33.001Z</time></trkpt><trkpt lat="40.917137599377625" lon="8.996747016244871"><ele>861.3333333333334</ele><time>2026-04-04T11:10:34.001Z</time></trkpt><trkpt lat="40.91708522707877" lon="8.996946715142224"><ele>863.0</ele><time>2026-04-04T11:10:35.001Z</time></trkpt><trkpt lat="40.91704330871546" lon="8.997138935377595"><ele>863.0</ele><time>2026-04-04T11:10:36.001Z</time></trkpt><trkpt lat="40.91700308353341" lon="8.997303642555883"><ele>863.0</ele><time>2026-04-04T11:10:37.001Z</time></trkpt><trkpt lat="40.916972100145756" lon="8.997440975655834"><ele>863.0</ele><time>2026-04-04T11:10:38.001Z</time></trkpt><trkpt lat="40.91696914314178" lon="8.997543745966603"><ele>863.0</ele><time>2026-04-04T11:10:39.001Z</time></trkpt><trkpt lat="40.916940779772574" lon="8.997639349441782"><ele>863.0</ele><time>2026-04-04T11:10:40.001Z</time></trkpt><trkpt lat="40.91694407888875" lon="8.997734746061846"><ele>864.25</ele><time>2026-04-04T11:10:41.001Z</time></trkpt><trkpt lat="40.91697320489972" lon="8.997905071938035"><ele>865.5</ele><time>2026-04-04T11:10:43.001Z</time></trkpt><trkpt lat="40.91697714549846" lon="8.998037974911483"><ele>866.75</ele><time>2026-04-04T11:10:44.001Z</time></trkpt><trkpt lat="40.917006587568395" lon="8.998180798038902"><ele>868.0</ele><time>2026-04-04T11:10:45.001Z</time></trkpt><trkpt lat="40.91702751313827" lon="8.998331870408354"><ele>869.25</ele><time>2026-04-04T11:10:46.001Z</time></trkpt><trkpt lat="40.917044006025634" lon="8.998478784041765"><ele>870.5</ele><time>2026-04-04T11:10:47.001Z</time></trkpt><trkpt lat="40.91706171176061" lon="8.998644031643819"><ele>871.75</ele><time>2026-04-04T11:10:48.001Z</time></trkpt><trkpt lat="40.91707944891218" lon="8.998817162202016"><ele>873.0</ele><time>2026-04-04T11:10:49.001Z</time></trkpt><trkpt lat="40.91709664847027" lon="8.998996455029257"><ele>872.25</ele><time>2026-04-04T11:10:50.001Z</time></trkpt><trkpt lat="40.91710407267615" lon="8.999181477210232"><ele>871.5</ele><time>2026-04-04T11:10:51.001Z</time></trkpt><trkpt lat="40.917109193953664" lon="8.999373201631961"><ele>870.75</ele><time>2026-04-04T11:10:52.001Z</time></trkpt><trkpt lat="40.917110917974554" lon="8.999559050313994"><ele>870.0</ele><time>2026-04-04T11:10:53.001Z</time></trkpt><trkpt lat="40.91711132325323" lon="8.999721971056843"><ele>870.0</ele><time>2026-04-04T11:10:54.001Z</time></trkpt><trkpt lat="40.91710294614741" lon="8.999865376122452"><ele>870.0</ele><time>2026-04-04T11:10:55.001Z</time></trkpt><trkpt lat="40.917057692967965" lon="8.999988050494748"><ele>870.0</ele><time>2026-04-04T11:10:56.001Z</time></trkpt><trkpt lat="40.9170201284976" lon="9.000117254763028"><ele>870.0</ele><time>2026-04-04T11:10:57.001Z</time></trkpt><trkpt lat="40.91697167011932" lon="9.000254501709634"><ele>870.0</ele><time>2026-04-04T11:10:58.001Z</time></trkpt><trkpt lat="40.91691156085117" lon="9.000399314468257"><ele>870.0</ele><time>2026-04-04T11:10:59.001Z</time></trkpt><trkpt lat="40.916845923052904" lon="9.000543484628743"><ele>870.0</ele><time>2026-04-04T11:11:00.001Z</time></trkpt><trkpt lat="40.91677839284181" lon="9.000685585858424"><ele>870.0</ele><time>2026-04-04T11:11:01.001Z</time></trkpt><trkpt lat="40.91671217729942" lon="9.000817812293036"><ele>870.0</ele><time>2026-04-04T11:11:02.001Z</time></trkpt><trkpt lat="40.91664168834658" lon="9.000942381270304"><ele>870.5</ele><time>2026-04-04T11:11:03.001Z</time></trkpt><trkpt lat="40.91656028805689" lon="9.001058320798377"><ele>871.0</ele><time>2026-04-04T11:11:04.001Z</time></trkpt><trkpt lat="40.91647290248451" lon="9.001177475326019"><ele>871.5</ele><time>2026-04-04T11:11:05.001Z</time></trkpt><trkpt lat="40.91637991648988" lon="9.001303774052456"><ele>872.0</ele><time>2026-04-04T11:11:06.001Z</time></trkpt><trkpt lat="40.91628600753377" lon="9.001433034059158"><ele>872.0</ele><time>2026-04-04T11:11:07.001Z</time></trkpt><trkpt lat="40.91619640946738" lon="9.001560288334842"><ele>872.0</ele><time>2026-04-04T11:11:08.001Z</time></trkpt><trkpt lat="40.91611347569275" lon="9.001684278267861"><ele>872.0</ele><time>2026-04-04T11:11:09.001Z</time></trkpt><trkpt lat="40.91604893895522" lon="9.001827366590513"><ele>872.0</ele><time>2026-04-04T11:11:10.001Z</time></trkpt><trkpt lat="40.915994519453506" lon="9.001966617295881"><ele>871.0</ele><time>2026-04-04T11:11:11.002Z</time></trkpt><trkpt lat="40.915926031998836" lon="9.002075179175742"><ele>870.0</ele><time>2026-04-04T11:11:12.002Z</time></trkpt><trkpt lat="40.91585367271246" lon="9.002187891560782"><ele>869.0</ele><time>2026-04-04T11:11:13.002Z</time></trkpt><trkpt lat="40.9157770610019" lon="9.002313405696825"><ele>868.0</ele><time>2026-04-04T11:11:14.002Z</time></trkpt><trkpt lat="40.915701074334656" lon="9.002435918289848"><ele>864.5</ele><time>2026-04-04T11:11:15.002Z</time></trkpt><trkpt lat="40.91562216428311" lon="9.002551094236614"><ele>861.0</ele><time>2026-04-04T11:11:16.002Z</time></trkpt><trkpt lat="40.915537462981256" lon="9.00267285848841"><ele>857.5</ele><time>2026-04-04T11:11:17.002Z</time></trkpt><trkpt lat="40.91545339959716" lon="9.002797922676368"><ele>854.0</ele><time>2026-04-04T11:11:18Z</time></trkpt><trkpt lat="40.91536590355059" lon="9.00292676266524"><ele>854.0</ele><time>2026-04-04T11:11:19Z</time></trkpt><trkpt lat="40.91528011186426" lon="9.003044456900534"><ele>854.0</ele><time>2026-04-04T11:11:20Z</time></trkpt><trkpt lat="40.915201873339775" lon="9.0031585495573"><ele>854.0</ele><time>2026-04-04T11:11:21Z</time></trkpt><trkpt lat="40.915162696837605" lon="9.003315178805469"><ele>854.0</ele><time>2026-04-04T11:11:22Z</time></trkpt><trkpt lat="40.91511286270946" lon="9.003474205637675"><ele>849.6666666666667</ele><time>2026-04-04T11:11:23Z</time></trkpt><trkpt lat="40.915060908491014" lon="9.003684424390617"><ele>845.3333333333333</ele><time>2026-04-04T11:11:24Z</time></trkpt><trkpt lat="40.91501434032947" lon="9.003916097161044"><ele>841.0</ele><time>2026-04-04T11:11:25Z</time></trkpt><trkpt lat="40.91495990427929" lon="9.00415143620736"><ele>840.6666666666666</ele><time>2026-04-04T11:11:26Z</time></trkpt><trkpt lat="40.91490237018689" lon="9.004385081473568"><ele>840.3333333333333</ele><time>2026-04-04T11:11:27Z</time></trkpt><trkpt lat="40.914851587177395" lon="9.004617563878218"><ele>840.0</ele><time>2026-04-04T11:11:28Z</time></trkpt><trkpt lat="40.91480364819869" lon="9.004847168985373"><ele>840.3333333333333</ele><time>2026-04-04T11:11:29Z</time></trkpt><trkpt lat="40.9147559398135" lon="9.00506809140667"><ele>840.6666666666666</ele><time>2026-04-04T11:11:30Z</time></trkpt><trkpt lat="40.91471875492229" lon="9.005290752534249"><ele>841.0</ele><time>2026-04-04T11:11:31Z</time></trkpt><trkpt lat="40.91467340182133" lon="9.005496393471049"><ele>841.0</ele><time>2026-04-04T11:11:32Z</time></trkpt><trkpt lat="40.91464179639171" lon="9.005683399032055"><ele>841.0</ele><time>2026-04-04T11:11:33Z</time></trkpt><trkpt lat="40.91460374116435" lon="9.005854932111896"><ele>841.0</ele><time>2026-04-04T11:11:34Z</time></trkpt><trkpt lat="40.91455827123837" lon="9.006024797923054"><ele>841.0</ele><time>2026-04-04T11:11:35Z</time></trkpt><trkpt lat="40.91450914335124" lon="9.006196989196004"><ele>842.5</ele><time>2026-04-04T11:11:36Z</time></trkpt><trkpt lat="40.914464254588914" lon="9.006376447076443"><ele>844.0</ele><time>2026-04-04T11:11:37Z</time></trkpt><trkpt lat="40.91440804871678" lon="9.006550850318298"><ele>845.5</ele><time>2026-04-04T11:11:38Z</time></trkpt><trkpt lat="40.91432939524112" lon="9.00671824176027"><ele>847.0</ele><time>2026-04-04T11:11:39Z</time></trkpt><trkpt lat="40.91424211282328" lon="9.006884481513113"><ele>845.3333333333333</ele><time>2026-04-04T11:11:40Z</time></trkpt><trkpt lat="40.914148136115884" lon="9.00705273018974"><ele>843.6666666666667</ele><time>2026-04-04T11:11:41Z</time></trkpt><trkpt lat="40.91404798914068" lon="9.007226488526037"><ele>842.0</ele><time>2026-04-04T11:11:42Z</time></trkpt><trkpt lat="40.9139491082733" lon="9.007398050113382"><ele>844.25</ele><time>2026-04-04T11:11:43.001Z</time></trkpt><trkpt lat="40.91386135976605" lon="9.00755242022935"><ele>846.5</ele><time>2026-04-04T11:11:44.001Z</time></trkpt><trkpt lat="40.91378905392828" lon="9.007710337254942"><ele>848.75</ele><time>2026-04-04T11:11:45.001Z</time></trkpt><trkpt lat="40.91373372691194" lon="9.007871664569867"><ele>851.0</ele><time>2026-04-04T11:11:46.001Z</time></trkpt><trkpt lat="40.91368681014861" lon="9.008059377182796"><ele>851.0</ele><time>2026-04-04T11:11:47.001Z</time></trkpt><trkpt lat="40.91364225479123" lon="9.008260392366031"><ele>851.0</ele><time>2026-04-04T11:11:48.001Z</time></trkpt><trkpt lat="40.913612236092966" lon="9.008458509466527"><ele>851.0</ele><time>2026-04-04T11:11:49.001Z</time></trkpt><trkpt lat="40.91356225122689" lon="9.00862632338399"><ele>851.0</ele><time>2026-04-04T11:11:50.001Z</time></trkpt><trkpt lat="40.91352475870718" lon="9.008792269988827"><ele>851.0</ele><time>2026-04-04T11:11:51.001Z</time></trkpt><trkpt lat="40.91349730704309" lon="9.008948746923297"><ele>851.0</ele><time>2026-04-04T11:11:52.001Z</time></trkpt><trkpt lat="40.91348350055106" lon="9.00909514539828"><ele>851.0</ele><time>2026-04-04T11:11:53.001Z</time></trkpt><trkpt lat="40.91349639044431" lon="9.009255921410283"><ele>851.0</ele><time>2026-04-04T11:11:54.001Z</time></trkpt><trkpt lat="40.91353594065089" lon="9.009452877543403"><ele>851.0</ele><time>2026-04-04T11:11:55.001Z</time></trkpt><trkpt lat="40.913591290328036" lon="9.009662716604307"><ele>851.0</ele><time>2026-04-04T11:11:56.001Z</time></trkpt><trkpt lat="40.91364546391096" lon="9.00986524887752"><ele>851.0</ele><time>2026-04-04T11:11:57.001Z</time></trkpt><trkpt lat="40.913696692274264" lon="9.010046726455627"><ele>850.1999999999999</ele><time>2026-04-04T11:11:58.001Z</time></trkpt><trkpt lat="40.913739558461884" lon="9.010188171467146"><ele>849.4</ele><time>2026-04-04T11:11:59.001Z</time></trkpt><trkpt lat="40.913776327600495" lon="9.010318588525342"><ele>848.6</ele><time>2026-04-04T11:12:00.001Z</time></trkpt><trkpt lat="40.9138113108093" lon="9.010455419559356"><ele>847.8</ele><time>2026-04-04T11:12:01.001Z</time></trkpt><trkpt lat="40.91385453134452" lon="9.010594866815206"><ele>847.0</ele><time>2026-04-04T11:12:02.001Z</time></trkpt><trkpt lat="40.913913290460414" lon="9.010733792139238"><ele>844.25</ele><time>2026-04-04T11:12:03.001Z</time></trkpt><trkpt lat="40.9139717359938" lon="9.010860535149973"><ele>841.5</ele><time>2026-04-04T11:12:04.001Z</time></trkpt><trkpt lat="40.91400587716534" lon="9.011019796901337"><ele>838.75</ele><time>2026-04-04T11:12:05.001Z</time></trkpt><trkpt lat="40.9140486155935" lon="9.011169621328749"><ele>836.0</ele><time>2026-04-04T11:12:06.001Z</time></trkpt><trkpt lat="40.914102920506316" lon="9.011318837763643"><ele>836.0</ele><time>2026-04-04T11:12:07.001Z</time></trkpt><trkpt lat="40.91414658823372" lon="9.0114794917118"><ele>836.0</ele><time>2026-04-04T11:12:08.001Z</time></trkpt><trkpt lat="40.91419194512407" lon="9.011638572236148"><ele>836.0</ele><time>2026-04-04T11:12:09.001Z</time></trkpt><trkpt lat="40.914205709348025" lon="9.011801442283797"><ele>836.0</ele><time>2026-04-04T11:12:10.001Z</time></trkpt><trkpt lat="40.914236490033545" lon="9.011964357723256"><ele>833.75</ele><time>2026-04-04T11:12:11.001Z</time></trkpt><trkpt lat="40.91426940130501" lon="9.012120638522012"><ele>831.5</ele><time>2026-04-04T11:12:12.001Z</time></trkpt><trkpt lat="40.91430619166262" lon="9.012275047150766"><ele>829.25</ele><time>2026-04-04T11:12:13.001Z</time></trkpt><trkpt lat="40.9143407198884" lon="9.012414526458967"><ele>827.0</ele><time>2026-04-04T11:12:14.001Z</time></trkpt><trkpt lat="40.91436768506261" lon="9.012546697874168"><ele>827.0000000000001</ele><time>2026-04-04T11:12:15.001Z</time></trkpt><trkpt lat="40.91440106440507" lon="9.012672497930627"><ele>827.0</ele><time>2026-04-04T11:12:16.001Z</time></trkpt><trkpt lat="40.91445316226496" lon="9.012773883817324"><ele>827.0</ele><time>2026-04-04T11:12:17.001Z</time></trkpt><trkpt lat="40.914486617050095" lon="9.012863340667234"><ele>827.0</ele><time>2026-04-04T11:12:18.001Z</time></trkpt><trkpt lat="40.914543664947594" lon="9.012948086347077"><ele>827.0000000000001</ele><time>2026-04-04T11:12:19.001Z</time></trkpt><trkpt lat="40.91461263994348" lon="9.013021787035202"><ele>827.0</ele><time>2026-04-04T11:12:20.001Z</time></trkpt><trkpt lat="40.91469679473107" lon="9.013081869128573"><ele>827.0</ele><time>2026-04-04T11:12:21.001Z</time></trkpt><trkpt lat="40.9147776216459" lon="9.013131797513905"><ele>827.0</ele><time>2026-04-04T11:12:22.001Z</time></trkpt><trkpt lat="40.91485133297949" lon="9.013199496270653"><ele>827.0</ele><time>2026-04-04T11:12:23.001Z</time></trkpt><trkpt lat="40.91493513892997" lon="9.013288362756931"><ele>827.0</ele><time>2026-04-04T11:12:24.001Z</time></trkpt><trkpt lat="40.91502299869115" lon="9.013382939663089"><ele>827.0</ele><time>2026-04-04T11:12:25.001Z</time></trkpt><trkpt lat="40.91511072674647" lon="9.013484839679185"><ele>825.4000000000001</ele><time>2026-04-04T11:12:26.001Z</time></trkpt><trkpt lat="40.91518864603726" lon="9.013580756769166"><ele>823.8000000000001</ele><time>2026-04-04T11:12:27.001Z</time></trkpt><trkpt lat="40.91525793054731" lon="9.013685105903804"><ele>822.2</ele><time>2026-04-04T11:12:28.001Z</time></trkpt><trkpt lat="40.915286268821305" lon="9.01381672664093"><ele>820.6</ele><time>2026-04-04T11:12:29.001Z</time></trkpt><trkpt lat="40.91531042827641" lon="9.013959314084458"><ele>819.0</ele><time>2026-04-04T11:12:30.001Z</time></trkpt><trkpt lat="40.91531826442352" lon="9.014108736520475"><ele>814.75</ele><time>2026-04-04T11:12:31.001Z</time></trkpt><trkpt lat="40.91531939670524" lon="9.014261902623941"><ele>810.5</ele><time>2026-04-04T11:12:32.001Z</time></trkpt><trkpt lat="40.91531225700308" lon="9.014415427106572"><ele>806.25</ele><time>2026-04-04T11:12:33.001Z</time></trkpt><trkpt lat="40.915319790765814" lon="9.014563795286517"><ele>802.0</ele><time>2026-04-04T11:12:34.001Z</time></trkpt><trkpt lat="40.91536084421447" lon="9.014721126849127"><ele>802.0</ele><time>2026-04-04T11:12:35.001Z</time></trkpt><trkpt lat="40.91541391420194" lon="9.014858851408057"><ele>802.0</ele><time>2026-04-04T11:12:36.001Z</time></trkpt><trkpt lat="40.9154435940076" lon="9.015025635306518"><ele>802.0</ele><time>2026-04-04T11:12:37.001Z</time></trkpt><trkpt lat="40.91550812765325" lon="9.015177209323891"><ele>802.0</ele><time>2026-04-04T11:12:38.001Z</time></trkpt><trkpt lat="40.915564278159614" lon="9.01533583276531"><ele>798.0</ele><time>2026-04-04T11:12:39.001Z</time></trkpt><trkpt lat="40.91562278891017" lon="9.015496847139726"><ele>794.0</ele><time>2026-04-04T11:12:40.001Z</time></trkpt><trkpt lat="40.91568418839254" lon="9.015646232153582"><ele>790.0</ele><time>2026-04-04T11:12:41.001Z</time></trkpt><trkpt lat="40.91573113715468" lon="9.015803215772245"><ele>786.0</ele><time>2026-04-04T11:12:42.001Z</time></trkpt><trkpt lat="40.915793338636234" lon="9.015939082753434"><ele>783.5</ele><time>2026-04-04T11:12:43.001Z</time></trkpt><trkpt lat="40.9158531875678" lon="9.01608002066715"><ele>781.0</ele><time>2026-04-04T11:12:44.001Z</time></trkpt><trkpt lat="40.91590682668805" lon="9.016226470387869"><ele>778.5</ele><time>2026-04-04T11:12:45.001Z</time></trkpt><trkpt lat="40.91595749950675" lon="9.016373732819336"><ele>776.0</ele><time>2026-04-04T11:12:46.001Z</time></trkpt><trkpt lat="40.91600904037873" lon="9.01652351793281"><ele>772.75</ele><time>2026-04-04T11:12:47.001Z</time></trkpt><trkpt lat="40.91607047062572" lon="9.01666833702084"><ele>769.5</ele><time>2026-04-04T11:12:48.001Z</time></trkpt><trkpt lat="40.916125107250856" lon="9.016820182455207"><ele>766.25</ele><time>2026-04-04T11:12:49.001Z</time></trkpt><trkpt lat="40.91617923109334" lon="9.016976034448593"><ele>763.0</ele><time>2026-04-04T11:12:50.001Z</time></trkpt><trkpt lat="40.91623344539999" lon="9.017130202658207"><ele>763.0</ele><time>2026-04-04T11:12:51.001Z</time></trkpt><trkpt lat="40.916283253329496" lon="9.0172838207982"><ele>763.0</ele><time>2026-04-04T11:12:52.001Z</time></trkpt><trkpt lat="40.91632466510015" lon="9.017435192801285"><ele>763.0</ele><time>2026-04-04T11:12:53.001Z</time></trkpt><trkpt lat="40.916359493685924" lon="9.017597804875379"><ele>763.0</ele><time>2026-04-04T11:12:54.001Z</time></trkpt><trkpt lat="40.91639119860789" lon="9.017743553510426"><ele>759.75</ele><time>2026-04-04T11:12:55.001Z</time></trkpt><trkpt lat="40.916421411269475" lon="9.01788839647836"><ele>756.5</ele><time>2026-04-04T11:12:56.001Z</time></trkpt><trkpt lat="40.916450719078284" lon="9.01802912054701"><ele>753.25</ele><time>2026-04-04T11:12:57.001Z</time></trkpt><trkpt lat="40.91649434192323" lon="9.018173802858017"><ele>750.0</ele><time>2026-04-04T11:12:58.001Z</time></trkpt><trkpt lat="40.916545177961304" lon="9.01831854298229"><ele>747.0</ele><time>2026-04-04T11:12:59.001Z</time></trkpt><trkpt lat="40.91662491370075" lon="9.018449230316623"><ele>744.0</ele><time>2026-04-04T11:13:00.001Z</time></trkpt><trkpt lat="40.9166957338376" lon="9.018579712000015"><ele>741.0</ele><time>2026-04-04T11:13:01.001Z</time></trkpt><trkpt lat="40.91672688595801" lon="9.018731175022884"><ele>738.0</ele><time>2026-04-04T11:13:02.001Z</time></trkpt><trkpt lat="40.916697497942536" lon="9.018908410581714"><ele>738.0</ele><time>2026-04-04T11:13:03.001Z</time></trkpt><trkpt lat="40.916675029073524" lon="9.019101081153376"><ele>738.0</ele><time>2026-04-04T11:13:04.001Z</time></trkpt><trkpt lat="40.916642312856624" lon="9.019321229221648"><ele>738.0</ele><time>2026-04-04T11:13:05.001Z</time></trkpt><trkpt lat="40.91659834555201" lon="9.01954449970326"><ele>736.25</ele><time>2026-04-04T11:13:06.001Z</time></trkpt><trkpt lat="40.91655741330839" lon="9.019741942560577"><ele>734.5</ele><time>2026-04-04T11:13:07.001Z</time></trkpt><trkpt lat="40.91650288337461" lon="9.019886322403256"><ele>732.75</ele><time>2026-04-04T11:13:08.001Z</time></trkpt><trkpt lat="40.91643374658649" lon="9.019986866771964"><ele>731.0</ele><time>2026-04-04T11:13:09.001Z</time></trkpt><trkpt lat="40.91634849271779" lon="9.020067962675475"><ele>730.5999999999999</ele><time>2026-04-04T11:13:10.001Z</time></trkpt><trkpt lat="40.916244007052384" lon="9.020161510682193"><ele>730.2</ele><time>2026-04-04T11:13:11.001Z</time></trkpt><trkpt lat="40.91613580833523" lon="9.020236392959454"><ele>729.8</ele><time>2026-04-04T11:13:12.001Z</time></trkpt><trkpt lat="40.91604787746462" lon="9.020305823691332"><ele>729.4000000000001</ele><time>2026-04-04T11:13:13.001Z</time></trkpt><trkpt lat="40.91598629277049" lon="9.020355744931782"><ele>729.0</ele><time>2026-04-04T11:13:14.001Z</time></trkpt><trkpt lat="40.91592281886775" lon="9.020409901581992"><ele>729.0</ele><time>2026-04-04T11:13:16.002Z</time></trkpt><trkpt lat="40.91598292265658" lon="9.020541662550153"><ele>729.0</ele><time>2026-04-04T11:13:20.002Z</time></trkpt><trkpt lat="40.91605321398364" lon="9.020616423663164"><ele>729.0</ele><time>2026-04-04T11:13:37Z</time></trkpt><trkpt lat="40.91610584637831" lon="9.020717963565767"><ele>729.0</ele><time>2026-04-04T11:13:38Z</time></trkpt><trkpt lat="40.9161654499257" lon="9.02086027224321"><ele>729.0</ele><time>2026-04-04T11:13:39Z</time></trkpt><trkpt lat="40.91621714551624" lon="9.02099503324122"><ele>727.8000000000001</ele><time>2026-04-04T11:13:40Z</time></trkpt><trkpt lat="40.916262526075315" lon="9.021109064535755"><ele>726.6</ele><time>2026-04-04T11:13:41Z</time></trkpt><trkpt lat="40.91631790305155" lon="9.021214329065565"><ele>725.4</ele><time>2026-04-04T11:13:42Z</time></trkpt><trkpt lat="40.916404640901845" lon="9.021307333630425"><ele>724.2</ele><time>2026-04-04T11:13:43Z</time></trkpt><trkpt lat="40.91652486399729" lon="9.02137192195585"><ele>723.0</ele><time>2026-04-04T11:13:44Z</time></trkpt><trkpt lat="40.91667111307428" lon="9.02140385299415"><ele>724.0</ele><time>2026-04-04T11:13:45Z</time></trkpt><trkpt lat="40.916826735290044" lon="9.021423488457286"><ele>725.0</ele><time>2026-04-04T11:13:46Z</time></trkpt><trkpt lat="40.91697645807734" lon="9.021455722300688"><ele>726.0</ele><time>2026-04-04T11:13:47Z</time></trkpt><trkpt lat="40.917108520287435" lon="9.021505281906773"><ele>727.0</ele><time>2026-04-04T11:13:48.001Z</time></trkpt><trkpt lat="40.91721275512235" lon="9.021556581573291"><ele>727.0</ele><time>2026-04-04T11:13:49.001Z</time></trkpt><trkpt lat="40.91730371883549" lon="9.021616291545083"><ele>727.0</ele><time>2026-04-04T11:13:50.001Z</time></trkpt><trkpt lat="40.917375340017394" lon="9.021740024148665"><ele>727.0</ele><time>2026-04-04T11:13:51.001Z</time></trkpt><trkpt lat="40.91746254216379" lon="9.021882438246239"><ele>727.0</ele><time>2026-04-04T11:13:52.001Z</time></trkpt><trkpt lat="40.91755914786142" lon="9.022054060178762"><ele>725.0</ele><time>2026-04-04T11:13:53.001Z</time></trkpt><trkpt lat="40.91767584112359" lon="9.022232562235013"><ele>723.0</ele><time>2026-04-04T11:13:54.001Z</time></trkpt><trkpt lat="40.91777900334811" lon="9.022416951017917"><ele>721.0</ele><time>2026-04-04T11:13:55.001Z</time></trkpt><trkpt lat="40.917850105541795" lon="9.022610987314724"><ele>716.75</ele><time>2026-04-04T11:13:56.001Z</time></trkpt><trkpt lat="40.91792126747366" lon="9.022747956562677"><ele>712.5</ele><time>2026-04-04T11:13:57.001Z</time></trkpt><trkpt lat="40.91797941695843" lon="9.022863422202377"><ele>708.25</ele><time>2026-04-04T11:13:58.001Z</time></trkpt><trkpt lat="40.918082400066695" lon="9.022929312842926"><ele>704.0</ele><time>2026-04-04T11:13:59.001Z</time></trkpt><trkpt lat="40.91819331119796" lon="9.022975824584995"><ele>704.0</ele><time>2026-04-04T11:14:00.001Z</time></trkpt><trkpt lat="40.918297679133744" lon="9.023015762311614"><ele>704.0</ele><time>2026-04-04T11:14:01.001Z</time></trkpt><trkpt lat="40.918354703376366" lon="9.023101058625068"><ele>704.0</ele><time>2026-04-04T11:14:02.001Z</time></trkpt><trkpt lat="40.918389810552625" lon="9.023172339811902"><ele>704.0</ele><time>2026-04-04T11:14:04.001Z</time></trkpt><trkpt lat="40.91826355620389" lon="9.02324580518668"><ele>704.0</ele><time>2026-04-04T11:14:06.001Z</time></trkpt><trkpt lat="40.918205091536926" lon="9.023285859593878"><ele>702.0</ele><time>2026-04-04T11:14:07.001Z</time></trkpt><trkpt lat="40.9181230718711" lon="9.023346887877336"><ele>700.0</ele><time>2026-04-04T11:14:08.001Z</time></trkpt><trkpt lat="40.91801595885567" lon="9.02341596593244"><ele>698.0</ele><time>2026-04-04T11:14:09.001Z</time></trkpt><trkpt lat="40.91789812013517" lon="9.023476081181489"><ele>696.0</ele><time>2026-04-04T11:14:10.001Z</time></trkpt><trkpt lat="40.91778685791667" lon="9.023496293570288"><ele>696.0</ele><time>2026-04-04T11:14:11.001Z</time></trkpt><trkpt lat="40.917680748925385" lon="9.023499061966548"><ele>696.0</ele><time>2026-04-04T11:14:12.001Z</time></trkpt><trkpt lat="40.91757575335751" lon="9.023505259114488"><ele>696.0</ele><time>2026-04-04T11:14:13.001Z</time></trkpt><trkpt lat="40.91747740987895" lon="9.023527184781214"><ele>696.0</ele><time>2026-04-04T11:14:14.001Z</time></trkpt><trkpt lat="40.91738636701203" lon="9.023576034223106"><ele>696.0</ele><time>2026-04-04T11:14:15.001Z</time></trkpt><trkpt lat="40.91730607677589" lon="9.023693096458073"><ele>694.75</ele><time>2026-04-04T11:14:16.001Z</time></trkpt><trkpt lat="40.91726176688136" lon="9.02384099751828"><ele>693.5</ele><time>2026-04-04T11:14:17.001Z</time></trkpt><trkpt lat="40.91721839129307" lon="9.023974980617389"><ele>692.25</ele><time>2026-04-04T11:14:18.001Z</time></trkpt><trkpt lat="40.9172030537576" lon="9.024126921833085"><ele>691.0</ele><time>2026-04-04T11:14:19.001Z</time></trkpt><trkpt lat="40.91720910195715" lon="9.024273669125575"><ele>691.0</ele><time>2026-04-04T11:14:20.001Z</time></trkpt><trkpt lat="40.917227118219046" lon="9.024408258504193"><ele>691.0</ele><time>2026-04-04T11:14:21.001Z</time></trkpt><trkpt lat="40.917257197361444" lon="9.024543237598712"><ele>691.0</ele><time>2026-04-04T11:14:22.001Z</time></trkpt><trkpt lat="40.91729318551992" lon="9.024672233631069"><ele>691.0</ele><time>2026-04-04T11:14:23.001Z</time></trkpt><trkpt lat="40.91734516238988" lon="9.024771862001977"><ele>691.0</ele><time>2026-04-04T11:14:24.001Z</time></trkpt><trkpt lat="40.91740724389278" lon="9.02485403140112"><ele>691.0</ele><time>2026-04-04T11:14:25.001Z</time></trkpt><trkpt lat="40.91748275681581" lon="9.024919931035466"><ele>691.0</ele><time>2026-04-04T11:14:26.001Z</time></trkpt><trkpt lat="40.9175550371741" lon="9.024976270252841"><ele>691.0</ele><time>2026-04-04T11:14:27.001Z</time></trkpt><trkpt lat="40.91761100483216" lon="9.025049069704709"><ele>691.0</ele><time>2026-04-04T11:14:28.001Z</time></trkpt><trkpt lat="40.917639418292964" lon="9.025136145067382"><ele>691.0</ele><time>2026-04-04T11:14:29.001Z</time></trkpt><trkpt lat="40.91762139343848" lon="9.025247794074161"><ele>691.0</ele><time>2026-04-04T11:14:30.001Z</time></trkpt><trkpt lat="40.91760159957551" lon="9.025377790699364"><ele>692.1999999999999</ele><time>2026-04-04T11:14:31.001Z</time></trkpt><trkpt lat="40.91758731961336" lon="9.025522885882792"><ele>693.4</ele><time>2026-04-04T11:14:32.001Z</time></trkpt><trkpt lat="40.917602279740755" lon="9.025670166011261"><ele>694.6</ele><time>2026-04-04T11:14:33.001Z</time></trkpt><trkpt lat="40.917617258096094" lon="9.025808576663447"><ele>695.8</ele><time>2026-04-04T11:14:34.001Z</time></trkpt><trkpt lat="40.9176540177229" lon="9.025927313214773"><ele>697.0</ele><time>2026-04-04T11:14:35.001Z</time></trkpt><trkpt lat="40.917710155354804" lon="9.026037513493595"><ele>697.0</ele><time>2026-04-04T11:14:36.001Z</time></trkpt><trkpt lat="40.9177821511765" lon="9.026141927887627"><ele>697.0</ele><time>2026-04-04T11:14:37.001Z</time></trkpt><trkpt lat="40.91785097253888" lon="9.026246904312515"><ele>697.0</ele><time>2026-04-04T11:14:38.001Z</time></trkpt><trkpt lat="40.91789942563428" lon="9.026366686854972"><ele>697.0</ele><time>2026-04-04T11:14:39.001Z</time></trkpt><trkpt lat="40.91789342072457" lon="9.026504691239554"><ele>697.0</ele><time>2026-04-04T11:14:40.001Z</time></trkpt><trkpt lat="40.91790550631311" lon="9.026650212957925"><ele>694.6</ele><time>2026-04-04T11:14:41.001Z</time></trkpt><trkpt lat="40.91793384612482" lon="9.026805165893988"><ele>692.2</ele><time>2026-04-04T11:14:42.001Z</time></trkpt><trkpt lat="40.917946439186956" lon="9.026957732781412"><ele>689.8</ele><time>2026-04-04T11:14:43.001Z</time></trkpt><trkpt lat="40.917974829652245" lon="9.027091017870084"><ele>687.4</ele><time>2026-04-04T11:14:44.001Z</time></trkpt><trkpt lat="40.917999829527275" lon="9.027216034294629"><ele>685.0</ele><time>2026-04-04T11:14:45.001Z</time></trkpt><trkpt lat="40.9180590003953" lon="9.027321845399431"><ele>685.0</ele><time>2026-04-04T11:14:46.001Z</time></trkpt><trkpt lat="40.91811753884134" lon="9.02741901486506"><ele>685.0</ele><time>2026-04-04T11:14:47.001Z</time></trkpt><trkpt lat="40.918189642139" lon="9.027504975783957"><ele>685.0</ele><time>2026-04-04T11:14:48.001Z</time></trkpt><trkpt lat="40.91826600089108" lon="9.02758285509072"><ele>685.0</ele><time>2026-04-04T11:14:49.001Z</time></trkpt><trkpt lat="40.91831707222426" lon="9.027654726871344"><ele>685.0</ele><time>2026-04-04T11:14:50.001Z</time></trkpt><trkpt lat="40.918345263244454" lon="9.027746752530195"><ele>685.0</ele><time>2026-04-04T11:14:51.001Z</time></trkpt><trkpt lat="40.91829482515345" lon="9.027838757537495"><ele>683.0</ele><time>2026-04-04T11:14:52.001Z</time></trkpt><trkpt lat="40.918255702008146" lon="9.027937783787493"><ele>681.0</ele><time>2026-04-04T11:14:53.001Z</time></trkpt><trkpt lat="40.918220371207056" lon="9.028080204314541"><ele>679.0</ele><time>2026-04-04T11:14:54.001Z</time></trkpt><trkpt lat="40.91821967944008" lon="9.028239770673729"><ele>677.0</ele><time>2026-04-04T11:14:55.001Z</time></trkpt><trkpt lat="40.918211626603984" lon="9.028384333807352"><ele>675.0</ele><time>2026-04-04T11:14:56.001Z</time></trkpt><trkpt lat="40.91821445943189" lon="9.028521597102603"><ele>673.4</ele><time>2026-04-04T11:14:57.001Z</time></trkpt><trkpt lat="40.91823275342886" lon="9.028659985196466"><ele>671.8</ele><time>2026-04-04T11:14:58.001Z</time></trkpt><trkpt lat="40.91826377493219" lon="9.028799697589413"><ele>670.2</ele><time>2026-04-04T11:14:59.001Z</time></trkpt><trkpt lat="40.9182846271404" lon="9.028936736581683"><ele>668.6</ele><time>2026-04-04T11:15:00.001Z</time></trkpt><trkpt lat="40.91833361292554" lon="9.029042964219627"><ele>667.0</ele><time>2026-04-04T11:15:01.001Z</time></trkpt><trkpt lat="40.91840606654775" lon="9.029107803271785"><ele>667.6</ele><time>2026-04-04T11:15:02.001Z</time></trkpt><trkpt lat="40.918471084976616" lon="9.02916239990386"><ele>668.2</ele><time>2026-04-04T11:15:03.001Z</time></trkpt><trkpt lat="40.918555747845275" lon="9.029222229078368"><ele>668.8</ele><time>2026-04-04T11:15:04.001Z</time></trkpt><trkpt lat="40.91865555025332" lon="9.029268142315413"><ele>669.4</ele><time>2026-04-04T11:15:05.001Z</time></trkpt><trkpt lat="40.91875899596801" lon="9.029336879684722"><ele>670.0</ele><time>2026-04-04T11:15:06.001Z</time></trkpt><trkpt lat="40.91882787375183" lon="9.029455935850878"><ele>670.0</ele><time>2026-04-04T11:15:07.001Z</time></trkpt><trkpt lat="40.918882907796494" lon="9.029568319351911"><ele>670.0</ele><time>2026-04-04T11:15:08.001Z</time></trkpt><trkpt lat="40.91892434197748" lon="9.029686558335325"><ele>670.0</ele><time>2026-04-04T11:15:09.001Z</time></trkpt><trkpt lat="40.91895386013435" lon="9.029822154809233"><ele>670.0</ele><time>2026-04-04T11:15:10.001Z</time></trkpt><trkpt lat="40.91897325435272" lon="9.02997787600409"><ele>670.0</ele><time>2026-04-04T11:15:11.001Z</time></trkpt><trkpt lat="40.9190157632092" lon="9.030133445142335"><ele>668.2</ele><time>2026-04-04T11:15:12.001Z</time></trkpt><trkpt lat="40.91904676508851" lon="9.030293078293548"><ele>666.4</ele><time>2026-04-04T11:15:13.001Z</time></trkpt><trkpt lat="40.919095784394926" lon="9.030439586408777"><ele>664.5999999999999</ele><time>2026-04-04T11:15:14.001Z</time></trkpt><trkpt lat="40.91914837486845" lon="9.030564379481142"><ele>662.8</ele><time>2026-04-04T11:15:15.001Z</time></trkpt><trkpt lat="40.919154290617236" lon="9.030685298396532"><ele>661.0</ele><time>2026-04-04T11:15:16.001Z</time></trkpt><trkpt lat="40.91913627555786" lon="9.030770181537326"><ele>660.4</ele><time>2026-04-04T11:15:17.001Z</time></trkpt><trkpt lat="40.91911624063854" lon="9.030871664234025"><ele>659.8</ele><time>2026-04-04T11:15:18.001Z</time></trkpt><trkpt lat="40.91907535233088" lon="9.030964877590634"><ele>659.1999999999999</ele><time>2026-04-04T11:15:19.001Z</time></trkpt><trkpt lat="40.918919875444246" lon="9.03107893396459"><ele>658.5999999999999</ele><time>2026-04-04T11:15:21.002Z</time></trkpt><trkpt lat="40.918866166457704" lon="9.031170338783086"><ele>658.0</ele><time>2026-04-04T11:15:22.002Z</time></trkpt><trkpt lat="40.91883644670025" lon="9.031282686471574"><ele>658.0</ele><time>2026-04-04T11:15:23.002Z</time></trkpt><trkpt lat="40.9188355064485" lon="9.031392437917955"><ele>658.0</ele><time>2026-04-04T11:15:24.002Z</time></trkpt><trkpt lat="40.91886226944681" lon="9.031478996122765"><ele>658.0</ele><time>2026-04-04T11:15:25.002Z</time></trkpt><trkpt lat="40.918905501536074" lon="9.031557214093818"><ele>658.0</ele><time>2026-04-04T11:15:26.002Z</time></trkpt><trkpt lat="40.918963857509056" lon="9.0316612466049"><ele>658.0</ele><time>2026-04-04T11:15:27.002Z</time></trkpt><trkpt lat="40.919032823933506" lon="9.031803704326588"><ele>656.5</ele><time>2026-04-04T11:15:28.002Z</time></trkpt><trkpt lat="40.91910535506019" lon="9.031973130518987"><ele>655.0</ele><time>2026-04-04T11:15:29.002Z</time></trkpt><trkpt lat="40.919182226385196" lon="9.032151776280108"><ele>653.5</ele><time>2026-04-04T11:15:30Z</time></trkpt><trkpt lat="40.919258210013375" lon="9.032307422897485"><ele>652.0</ele><time>2026-04-04T11:15:31Z</time></trkpt><trkpt lat="40.91932022521518" lon="9.032442964112082"><ele>656.25</ele><time>2026-04-04T11:15:32Z</time></trkpt><trkpt lat="40.9193714601594" lon="9.03258886580364"><ele>660.5</ele><time>2026-04-04T11:15:33Z</time></trkpt><trkpt lat="40.919409824088014" lon="9.032736873778852"><ele>664.75</ele><time>2026-04-04T11:15:34Z</time></trkpt><trkpt lat="40.9194355654164" lon="9.032889855528792"><ele>669.0</ele><time>2026-04-04T11:15:35Z</time></trkpt><trkpt lat="40.91943933289376" lon="9.033067780114486"><ele>669.0</ele><time>2026-04-04T11:15:36Z</time></trkpt><trkpt lat="40.919440912076254" lon="9.033262868479682"><ele>669.0</ele><time>2026-04-04T11:15:37Z</time></trkpt><trkpt lat="40.91944741263901" lon="9.033436639628228"><ele>669.0</ele><time>2026-04-04T11:15:38Z</time></trkpt><trkpt lat="40.9194556836206" lon="9.03359650554713"><ele>669.0</ele><time>2026-04-04T11:15:39Z</time></trkpt><trkpt lat="40.919464068294" lon="9.03373862276056"><ele>668.1666666666666</ele><time>2026-04-04T11:15:40Z</time></trkpt><trkpt lat="40.91947625093274" lon="9.033860743603901"><ele>667.3333333333334</ele><time>2026-04-04T11:15:41Z</time></trkpt><trkpt lat="40.91947745827047" lon="9.033970864398468"><ele>666.5</ele><time>2026-04-04T11:15:42Z</time></trkpt><trkpt lat="40.91947039431325" lon="9.034078189743418"><ele>665.6666666666667</ele><time>2026-04-04T11:15:43Z</time></trkpt><trkpt lat="40.919429722746735" lon="9.034174075647199"><ele>664.8333333333334</ele><time>2026-04-04T11:15:44Z</time></trkpt><trkpt lat="40.91934394229411" lon="9.034243302670022"><ele>664.0</ele><time>2026-04-04T11:15:45Z</time></trkpt><trkpt lat="40.91923047219995" lon="9.03429308063866"><ele>657.5</ele><time>2026-04-04T11:15:46Z</time></trkpt><trkpt lat="40.919147323071705" lon="9.034363002694555"><ele>651.0</ele><time>2026-04-04T11:15:47Z</time></trkpt><trkpt lat="40.919064721559344" lon="9.034469437563487"><ele>644.5</ele><time>2026-04-04T11:15:48Z</time></trkpt><trkpt lat="40.919003787048176" lon="9.034613371184326"><ele>638.0</ele><time>2026-04-04T11:15:49Z</time></trkpt><trkpt lat="40.918949928404814" lon="9.034793834553852"><ele>638.0</ele><time>2026-04-04T11:15:50Z</time></trkpt><trkpt lat="40.91891267385569" lon="9.034958124459315"><ele>638.0</ele><time>2026-04-04T11:15:51Z</time></trkpt><trkpt lat="40.91888978463788" lon="9.035113359740642"><ele>638.0</ele><time>2026-04-04T11:15:52Z</time></trkpt><trkpt lat="40.91890385516171" lon="9.035287524926925"><ele>638.0</ele><time>2026-04-04T11:15:53Z</time></trkpt><trkpt lat="40.91889775973679" lon="9.03550546238983"><ele>638.3333333333333</ele><time>2026-04-04T11:15:54Z</time></trkpt><trkpt lat="40.918885808615144" lon="9.035718497659161"><ele>638.6666666666666</ele><time>2026-04-04T11:15:55.001Z</time></trkpt><trkpt lat="40.91887858572795" lon="9.03592714434601"><ele>639.0</ele><time>2026-04-04T11:15:56.001Z</time></trkpt><trkpt lat="40.91885654875935" lon="9.036109840382293"><ele>639.0</ele><time>2026-04-04T11:15:57.001Z</time></trkpt><trkpt lat="40.91882665109142" lon="9.036268863023388"><ele>639.0</ele><time>2026-04-04T11:15:58.001Z</time></trkpt><trkpt lat="40.91879659919007" lon="9.036409515225419"><ele>639.0</ele><time>2026-04-04T11:15:59.001Z</time></trkpt><trkpt lat="40.91878202661385" lon="9.03652623358454"><ele>639.0</ele><time>2026-04-04T11:16:00.001Z</time></trkpt><trkpt lat="40.91878081503651" lon="9.036636174759252"><ele>639.0</ele><time>2026-04-04T11:16:01.001Z</time></trkpt><trkpt lat="40.918818414986305" lon="9.036765306886728"><ele>639.0</ele><time>2026-04-04T11:16:02.001Z</time></trkpt><trkpt lat="40.91888160930833" lon="9.03691553749848"><ele>639.0</ele><time>2026-04-04T11:16:03.001Z</time></trkpt><trkpt lat="40.91892860128631" lon="9.037066191193135"><ele>639.0</ele><time>2026-04-04T11:16:04.001Z</time></trkpt><trkpt lat="40.91895366531671" lon="9.037180082060706"><ele>639.0</ele><time>2026-04-04T11:16:05.001Z</time></trkpt><trkpt lat="40.918985059464944" lon="9.037277281858126"><ele>639.0</ele><time>2026-04-04T11:16:06.001Z</time></trkpt><trkpt lat="40.91904937033125" lon="9.037358002748809"><ele>639.0000000000001</ele><time>2026-04-04T11:16:07.001Z</time></trkpt><trkpt lat="40.91911532453532" lon="9.037431243062452"><ele>639.0</ele><time>2026-04-04T11:16:08.001Z</time></trkpt><trkpt lat="40.919150784636344" lon="9.037500116549383"><ele>639.0</ele><time>2026-04-04T11:16:09.001Z</time></trkpt><trkpt lat="40.91915067157629" lon="9.03759121004454"><ele>639.0</ele><time>2026-04-04T11:16:10.001Z</time></trkpt><trkpt lat="40.91911711053402" lon="9.03767196253684"><ele>639.0</ele><time>2026-04-04T11:16:11.001Z</time></trkpt><trkpt lat="40.91906342759478" lon="9.03772127673685"><ele>639.0000000000001</ele><time>2026-04-04T11:16:12.001Z</time></trkpt><trkpt lat="40.91898258464339" lon="9.037738909597016"><ele>639.0</ele><time>2026-04-04T11:16:13.001Z</time></trkpt><trkpt lat="40.9188591604208" lon="9.037747349397922"><ele>637.8</ele><time>2026-04-04T11:16:14.001Z</time></trkpt><trkpt lat="40.91871899457792" lon="9.037756540732664"><ele>636.5999999999999</ele><time>2026-04-04T11:16:15.001Z</time></trkpt><trkpt lat="40.91861535343561" lon="9.037716315653471"><ele>635.4</ele><time>2026-04-04T11:16:16.001Z</time></trkpt><trkpt lat="40.91853428615565" lon="9.03765935680079"><ele>634.1999999999999</ele><time>2026-04-04T11:16:17.001Z</time></trkpt><trkpt lat="40.91846605417667" lon="9.037562246052687"><ele>633.0</ele><time>2026-04-04T11:16:18.001Z</time></trkpt><trkpt lat="40.918388669255975" lon="9.03741829655988"><ele>630.1999999999999</ele><time>2026-04-04T11:16:19.001Z</time></trkpt><trkpt lat="40.918309745228065" lon="9.037278796321147"><ele>627.4</ele><time>2026-04-04T11:16:20.001Z</time></trkpt><trkpt lat="40.91822124480844" lon="9.037189575195223"><ele>624.5999999999999</ele><time>2026-04-04T11:16:21.001Z</time></trkpt><trkpt lat="40.918127279788536" lon="9.037141198775767"><ele>621.8</ele><time>2026-04-04T11:16:22.001Z</time></trkpt><trkpt lat="40.91803542720121" lon="9.037116505575616"><ele>619.0</ele><time>2026-04-04T11:16:23.001Z</time></trkpt><trkpt lat="40.917927056860606" lon="9.037108685191699"><ele>619.0</ele><time>2026-04-04T11:16:24.001Z</time></trkpt><trkpt lat="40.91779072438961" lon="9.037133016316796"><ele>619.0</ele><time>2026-04-04T11:16:25.001Z</time></trkpt><trkpt lat="40.91763741813902" lon="9.03717963872767"><ele>619.0</ele><time>2026-04-04T11:16:26.001Z</time></trkpt><trkpt lat="40.91746491075319" lon="9.037232119742583"><ele>616.25</ele><time>2026-04-04T11:16:27.001Z</time></trkpt><trkpt lat="40.91730146636123" lon="9.037299498802035"><ele>613.5</ele><time>2026-04-04T11:16:28.001Z</time></trkpt><trkpt lat="40.91717453215525" lon="9.037366260115009"><ele>610.75</ele><time>2026-04-04T11:16:29.001Z</time></trkpt><trkpt lat="40.917077295102345" lon="9.03741687322595"><ele>608.0</ele><time>2026-04-04T11:16:30.001Z</time></trkpt><trkpt lat="40.91698748214398" lon="9.037448817755568"><ele>608.0</ele><time>2026-04-04T11:16:31.001Z</time></trkpt><trkpt lat="40.91690624008269" lon="9.037441860353905"><ele>608.0</ele><time>2026-04-04T11:16:32.001Z</time></trkpt><trkpt lat="40.91682130091713" lon="9.037375826758025"><ele>608.0</ele><time>2026-04-04T11:16:33.001Z</time></trkpt><trkpt lat="40.91673428255409" lon="9.037256996079552"><ele>608.0</ele><time>2026-04-04T11:16:34.001Z</time></trkpt><trkpt lat="40.91662728250005" lon="9.037121812222052"><ele>606.3333333333333</ele><time>2026-04-04T11:16:35.001Z</time></trkpt><trkpt lat="40.916472273197634" lon="9.037002916142775"><ele>604.6666666666666</ele><time>2026-04-04T11:16:36.001Z</time></trkpt><trkpt lat="40.916318129608385" lon="9.036917596191014"><ele>603.0</ele><time>2026-04-04T11:16:37.001Z</time></trkpt><trkpt lat="40.91618095998005" lon="9.036840581473431"><ele>603.0</ele><time>2026-04-04T11:16:38.001Z</time></trkpt><trkpt lat="40.91602659648349" lon="9.036780715597244"><ele>603.0</ele><time>2026-04-04T11:16:39.001Z</time></trkpt><trkpt lat="40.91587985965786" lon="9.036742122709489"><ele>603.0</ele><time>2026-04-04T11:16:40.001Z</time></trkpt><trkpt lat="40.91573015568713" lon="9.03672536384575"><ele>602.3333333333334</ele><time>2026-04-04T11:16:41.001Z</time></trkpt><trkpt lat="40.91557241718939" lon="9.036720456482604"><ele>601.6666666666667</ele><time>2026-04-04T11:16:42.001Z</time></trkpt><trkpt lat="40.91539827775809" lon="9.036739975519664"><ele>601.0</ele><time>2026-04-04T11:16:43.001Z</time></trkpt><trkpt lat="40.91523937461348" lon="9.036758307390606"><ele>601.0</ele><time>2026-04-04T11:16:44.001Z</time></trkpt><trkpt lat="40.915099539647564" lon="9.036751243911198"><ele>601.0</ele><time>2026-04-04T11:16:45.001Z</time></trkpt><trkpt lat="40.914974058978515" lon="9.03672489332337"><ele>601.0</ele><time>2026-04-04T11:16:46.001Z</time></trkpt><trkpt lat="40.91486517173484" lon="9.03667972280406"><ele>601.0</ele><time>2026-04-04T11:16:47.001Z</time></trkpt><trkpt lat="40.91478473723844" lon="9.036665856117903"><ele>600.5</ele><time>2026-04-04T11:16:48.001Z</time></trkpt><trkpt lat="40.91469414781302" lon="9.036699964928339"><ele>600.0</ele><time>2026-04-04T11:16:49.001Z</time></trkpt><trkpt lat="40.91458949495587" lon="9.036799019185977"><ele>599.5</ele><time>2026-04-04T11:16:50.001Z</time></trkpt><trkpt lat="40.91448177203267" lon="9.036935538312818"><ele>599.0</ele><time>2026-04-04T11:16:51.001Z</time></trkpt><trkpt lat="40.914395076821705" lon="9.03703342020944"><ele>599.0</ele><time>2026-04-04T11:16:52.001Z</time></trkpt><trkpt lat="40.91429422386832" lon="9.037052540314956"><ele>599.0</ele><time>2026-04-04T11:16:53.001Z</time></trkpt><trkpt lat="40.91418909336611" lon="9.037008558617154"><ele>599.0</ele><time>2026-04-04T11:16:54.001Z</time></trkpt><trkpt lat="40.91409785546215" lon="9.036942338434152"><ele>599.0</ele><time>2026-04-04T11:16:55.001Z</time></trkpt><trkpt lat="40.91400852827318" lon="9.03690509731665"><ele>599.0</ele><time>2026-04-04T11:16:56.001Z</time></trkpt><trkpt lat="40.91391058522531" lon="9.036938416571875"><ele>597.0</ele><time>2026-04-04T11:16:57.001Z</time></trkpt><trkpt lat="40.913775376095174" lon="9.037003641831088"><ele>595.0</ele><time>2026-04-04T11:16:58.001Z</time></trkpt><trkpt lat="40.913639085229754" lon="9.03700199061427"><ele>593.0</ele><time>2026-04-04T11:16:59.001Z</time></trkpt><trkpt lat="40.91354721271936" lon="9.037007582962648"><ele>591.0</ele><time>2026-04-04T11:17:00.001Z</time></trkpt><trkpt lat="40.91345591408075" lon="9.037086156450508"><ele>587.3333333333334</ele><time>2026-04-04T11:17:01.001Z</time></trkpt><trkpt lat="40.91332743840915" lon="9.037214662463283"><ele>583.6666666666667</ele><time>2026-04-04T11:17:02.001Z</time></trkpt><trkpt lat="40.913161014112895" lon="9.03730915417991"><ele>580.0</ele><time>2026-04-04T11:17:03.001Z</time></trkpt><trkpt lat="40.912996568279986" lon="9.037368436706043"><ele>580.0</ele><time>2026-04-04T11:17:04.001Z</time></trkpt><trkpt lat="40.91286442386329" lon="9.037392748202599"><ele>580.0</ele><time>2026-04-04T11:17:05.001Z</time></trkpt><trkpt lat="40.91273996856949" lon="9.037386546374954"><ele>580.0</ele><time>2026-04-04T11:17:06.001Z</time></trkpt><trkpt lat="40.91259245088491" lon="9.037357115234425"><ele>580.0</ele><time>2026-04-04T11:17:07.001Z</time></trkpt><trkpt lat="40.91244821431203" lon="9.037335284584298"><ele>579.5</ele><time>2026-04-04T11:17:08.001Z</time></trkpt><trkpt lat="40.91233499186769" lon="9.037320985251114"><ele>579.0</ele><time>2026-04-04T11:17:09.001Z</time></trkpt><trkpt lat="40.912239362156576" lon="9.037351815020983"><ele>578.5</ele><time>2026-04-04T11:17:10.001Z</time></trkpt><trkpt lat="40.91213912504836" lon="9.037438733984906"><ele>578.0</ele><time>2026-04-04T11:17:11.001Z</time></trkpt><trkpt lat="40.91205397960908" lon="9.037569268723288"><ele>581.0</ele><time>2026-04-04T11:17:12.001Z</time></trkpt><trkpt lat="40.911983497973814" lon="9.037743926605145"><ele>584.0</ele><time>2026-04-04T11:17:13.001Z</time></trkpt><trkpt lat="40.91190795937947" lon="9.037939645399014"><ele>587.0</ele><time>2026-04-04T11:17:14.001Z</time></trkpt><trkpt lat="40.91183250120189" lon="9.038121111979299"><ele>587.0</ele><time>2026-04-04T11:17:15.001Z</time></trkpt><trkpt lat="40.9117677826058" lon="9.038273181949766"><ele>587.0</ele><time>2026-04-04T11:17:16.001Z</time></trkpt><trkpt lat="40.911713626133455" lon="9.038413400779366"><ele>587.0</ele><time>2026-04-04T11:17:17.001Z</time></trkpt><trkpt lat="40.911671565293226" lon="9.038574511826342"><ele>587.0</ele><time>2026-04-04T11:17:18.001Z</time></trkpt><trkpt lat="40.91165202243996" lon="9.038742120137913"><ele>586.0</ele><time>2026-04-04T11:17:19.001Z</time></trkpt><trkpt lat="40.911647734233846" lon="9.03892168138513"><ele>585.0</ele><time>2026-04-04T11:17:20.001Z</time></trkpt><trkpt lat="40.91165212470068" lon="9.039087409018409"><ele>584.0</ele><time>2026-04-04T11:17:21.001Z</time></trkpt><trkpt lat="40.911668194182596" lon="9.039221315999368"><ele>583.0</ele><time>2026-04-04T11:17:22.001Z</time></trkpt><trkpt lat="40.91169086996218" lon="9.039318082441016"><ele>582.0</ele><time>2026-04-04T11:17:23.001Z</time></trkpt><trkpt lat="40.911614538529875" lon="9.039436510177904"><ele>582.0</ele><time>2026-04-04T11:17:25.001Z</time></trkpt><trkpt lat="40.91154530632205" lon="9.039443761250476"><ele>582.0</ele><time>2026-04-04T11:17:26.001Z</time></trkpt><trkpt lat="40.91144972472139" lon="9.03940139193628"><ele>582.0</ele><time>2026-04-04T11:17:27.001Z</time></trkpt><trkpt lat="40.911340572503256" lon="9.03932108055771"><ele>582.0</ele><time>2026-04-04T11:17:28.002Z</time></trkpt><trkpt lat="40.911229142232294" lon="9.039243539996809"><ele>582.0</ele><time>2026-04-04T11:17:29.002Z</time></trkpt><trkpt lat="40.91113604063474" lon="9.03922267947453"><ele>582.0</ele><time>2026-04-04T11:17:30.002Z</time></trkpt><trkpt lat="40.91103151315801" lon="9.039250143374714"><ele>582.0</ele><time>2026-04-04T11:17:31.002Z</time></trkpt><trkpt lat="40.91092163241262" lon="9.039323965251793"><ele>582.0</ele><time>2026-04-04T11:17:32.002Z</time></trkpt><trkpt lat="40.910829113148665" lon="9.0394240783203"><ele>582.0</ele><time>2026-04-04T11:17:33.002Z</time></trkpt><trkpt lat="40.91075564145579" lon="9.039563389774127"><ele>581.0</ele><time>2026-04-04T11:17:34.002Z</time></trkpt><trkpt lat="40.910695632459316" lon="9.03973977491037"><ele>580.0</ele><time>2026-04-04T11:17:35.002Z</time></trkpt><trkpt lat="40.91063996449985" lon="9.039903892527018"><ele>579.0</ele><time>2026-04-04T11:17:36Z</time></trkpt><trkpt lat="40.91059474459805" lon="9.040050157518019"><ele>578.0</ele><time>2026-04-04T11:17:37Z</time></trkpt><trkpt lat="40.91056078892426" lon="9.040191220760988"><ele>578.0</ele><time>2026-04-04T11:17:38Z</time></trkpt><trkpt lat="40.91052736893839" lon="9.040333802515324"><ele>578.0</ele><time>2026-04-04T11:17:39Z</time></trkpt><trkpt lat="40.910486562731" lon="9.040492482014285"><ele>578.0</ele><time>2026-04-04T11:17:40Z</time></trkpt><trkpt lat="40.91044404767362" lon="9.04065684130217"><ele>578.0</ele><time>2026-04-04T11:17:41Z</time></trkpt><trkpt lat="40.9104123796962" lon="9.040823951255552"><ele>579.25</ele><time>2026-04-04T11:17:42Z</time></trkpt><trkpt lat="40.9103841815427" lon="9.040982412004364"><ele>580.5</ele><time>2026-04-04T11:17:43Z</time></trkpt><trkpt lat="40.9103896163367" lon="9.041129569366506"><ele>581.75</ele><time>2026-04-04T11:17:44Z</time></trkpt><trkpt lat="40.910434183487205" lon="9.041283088808314"><ele>583.0</ele><time>2026-04-04T11:17:45Z</time></trkpt><trkpt lat="40.910510296987425" lon="9.041450611680673"><ele>583.0</ele><time>2026-04-04T11:17:46Z</time></trkpt><trkpt lat="40.91058491659118" lon="9.041616274749096"><ele>583.0</ele><time>2026-04-04T11:17:47Z</time></trkpt><trkpt lat="40.910651846460254" lon="9.041779353337102"><ele>583.0</ele><time>2026-04-04T11:17:48Z</time></trkpt><trkpt lat="40.91077238979489" lon="9.04197804866097"><ele>581.8</ele><time>2026-04-04T11:17:49Z</time></trkpt><trkpt lat="40.91085584037981" lon="9.042124791691208"><ele>580.5999999999999</ele><time>2026-04-04T11:17:50Z</time></trkpt><trkpt lat="40.91091881050209" lon="9.042217498621476"><ele>579.4000000000001</ele><time>2026-04-04T11:17:51Z</time></trkpt><trkpt lat="40.910951504755616" lon="9.042324869057445"><ele>578.2</ele><time>2026-04-04T11:17:52Z</time></trkpt><trkpt lat="40.910928728926194" lon="9.042459893110601"><ele>577.0</ele><time>2026-04-04T11:17:53Z</time></trkpt><trkpt lat="40.910867254461415" lon="9.0425661182345"><ele>575.8000000000001</ele><time>2026-04-04T11:17:54Z</time></trkpt><trkpt lat="40.91076971385954" lon="9.04265768327851"><ele>574.6</ele><time>2026-04-04T11:17:55Z</time></trkpt><trkpt lat="40.91067344695918" lon="9.042708646621623"><ele>573.4000000000001</ele><time>2026-04-04T11:17:56Z</time></trkpt><trkpt lat="40.910568595273695" lon="9.042708261292711"><ele>572.2</ele><time>2026-04-04T11:17:57Z</time></trkpt><trkpt lat="40.91046484587863" lon="9.042684197051456"><ele>571.0</ele><time>2026-04-04T11:17:58Z</time></trkpt><trkpt lat="40.91033886756528" lon="9.04264882285333"><ele>571.0</ele><time>2026-04-04T11:17:59Z</time></trkpt><trkpt lat="40.91019058813039" lon="9.042624354717587"><ele>571.0</ele><time>2026-04-04T11:18:00Z</time></trkpt><trkpt lat="40.91003256326435" lon="9.042587869996096"><ele>571.0</ele><time>2026-04-04T11:18:01Z</time></trkpt><trkpt lat="40.90986161381635" lon="9.042512525707622"><ele>568.3333333333334</ele><time>2026-04-04T11:18:02.001Z</time></trkpt><trkpt lat="40.909684210094426" lon="9.04244037787475"><ele>565.6666666666666</ele><time>2026-04-04T11:18:03.001Z</time></trkpt><trkpt lat="40.909535292338994" lon="9.042382390714652"><ele>563.0</ele><time>2026-04-04T11:18:04.001Z</time></trkpt><trkpt lat="40.90941384997754" lon="9.042332820223054"><ele>563.0</ele><time>2026-04-04T11:18:05.001Z</time></trkpt><trkpt lat="40.9093114493827" lon="9.042305898200192"><ele>563.0</ele><time>2026-04-04T11:18:06.001Z</time></trkpt><trkpt lat="40.90919035949335" lon="9.04229627835178"><ele>563.0</ele><time>2026-04-04T11:18:07.001Z</time></trkpt><trkpt lat="40.90914169295848" lon="9.042361043332273"><ele>563.0</ele><time>2026-04-04T11:18:08.001Z</time></trkpt><trkpt lat="40.90913167947968" lon="9.042462146801"><ele>563.0</ele><time>2026-04-04T11:18:09.001Z</time></trkpt><trkpt lat="40.90916858706872" lon="9.042572040528768"><ele>565.25</ele><time>2026-04-04T11:18:10.001Z</time></trkpt><trkpt lat="40.90922997440665" lon="9.042701385954647"><ele>567.5</ele><time>2026-04-04T11:18:11.001Z</time></trkpt><trkpt lat="40.90931155550827" lon="9.04280496238149"><ele>569.75</ele><time>2026-04-04T11:18:12.001Z</time></trkpt><trkpt lat="40.909389093210095" lon="9.042943424995093"><ele>572.0</ele><time>2026-04-04T11:18:13.001Z</time></trkpt><trkpt lat="40.909484786543054" lon="9.043150634636639"><ele>575.6666666666666</ele><time>2026-04-04T11:18:14.001Z</time></trkpt><trkpt lat="40.90956833158224" lon="9.04333608719383"><ele>579.3333333333334</ele><time>2026-04-04T11:18:15.001Z</time></trkpt><trkpt lat="40.909640070449754" lon="9.043521978426053"><ele>583.0</ele><time>2026-04-04T11:18:16.001Z</time></trkpt><trkpt lat="40.90970985793398" lon="9.043717607869745"><ele>583.0</ele><time>2026-04-04T11:18:17.001Z</time></trkpt><trkpt lat="40.90975555048436" lon="9.043873203732039"><ele>583.0</ele><time>2026-04-04T11:18:18.001Z</time></trkpt><trkpt lat="40.909793875568546" lon="9.044040008203217"><ele>583.0</ele><time>2026-04-04T11:18:19.001Z</time></trkpt><trkpt lat="40.90975237008859" lon="9.04420116417826"><ele>583.0</ele><time>2026-04-04T11:18:20.001Z</time></trkpt><trkpt lat="40.90971324095301" lon="9.04435367001374"><ele>585.5</ele><time>2026-04-04T11:18:21.001Z</time></trkpt><trkpt lat="40.90967228418008" lon="9.044497868156853"><ele>588.0</ele><time>2026-04-04T11:18:22.001Z</time></trkpt><trkpt lat="40.909636369223826" lon="9.044640229950181"><ele>590.5</ele><time>2026-04-04T11:18:23.001Z</time></trkpt><trkpt lat="40.90960979595179" lon="9.044800498361525"><ele>593.0</ele><time>2026-04-04T11:18:24.001Z</time></trkpt><trkpt lat="40.909594833593815" lon="9.04498127973167"><ele>594.6666666666666</ele><time>2026-04-04T11:18:25.001Z</time></trkpt><trkpt lat="40.90960664389487" lon="9.04517255029195"><ele>596.3333333333334</ele><time>2026-04-04T11:18:26.001Z</time></trkpt><trkpt lat="40.909632321596355" lon="9.045376671748402"><ele>598.0</ele><time>2026-04-04T11:18:27.001Z</time></trkpt><trkpt lat="40.90963892155335" lon="9.045585411799618"><ele>598.0</ele><time>2026-04-04T11:18:28.001Z</time></trkpt><trkpt lat="40.90962444613855" lon="9.04579070467483"><ele>598.0</ele><time>2026-04-04T11:18:29.001Z</time></trkpt><trkpt lat="40.90959799238825" lon="9.045974779851885"><ele>598.0</ele><time>2026-04-04T11:18:30.001Z</time></trkpt><trkpt lat="40.90955921055237" lon="9.04614305936305"><ele>598.0</ele><time>2026-04-04T11:18:31.001Z</time></trkpt><trkpt lat="40.90950320818148" lon="9.046310862348086"><ele>599.75</ele><time>2026-04-04T11:18:32.001Z</time></trkpt><trkpt lat="40.90944386278693" lon="9.046475845660229"><ele>601.5</ele><time>2026-04-04T11:18:33.001Z</time></trkpt><trkpt lat="40.90938837940775" lon="9.04664435562793"><ele>603.25</ele><time>2026-04-04T11:18:34.001Z</time></trkpt><trkpt lat="40.90934841033019" lon="9.046812604380122"><ele>605.0</ele><time>2026-04-04T11:18:35.001Z</time></trkpt><trkpt lat="40.90932504951162" lon="9.046970564646493"><ele>605.8</ele><time>2026-04-04T11:18:36.001Z</time></trkpt><trkpt lat="40.909310718249024" lon="9.047112926758535"><ele>606.6</ele><time>2026-04-04T11:18:37.001Z</time></trkpt><trkpt lat="40.90928950999893" lon="9.047228688624198"><ele>607.4</ele><time>2026-04-04T11:18:38.001Z</time></trkpt><trkpt lat="40.90922350799789" lon="9.047367085712391"><ele>608.2</ele><time>2026-04-04T11:18:40.001Z</time></trkpt><trkpt lat="40.90915722153233" lon="9.047402339096243"><ele>609.0</ele><time>2026-04-04T11:18:41.001Z</time></trkpt><trkpt lat="40.909061693105016" lon="9.047409632480399"><ele>605.75</ele><time>2026-04-04T11:18:42.001Z</time></trkpt><trkpt lat="40.90893575498396" lon="9.047399080446175"><ele>602.5</ele><time>2026-04-04T11:18:43.001Z</time></trkpt><trkpt lat="40.908797870200196" lon="9.047382342133185"><ele>599.25</ele><time>2026-04-04T11:18:44.001Z</time></trkpt><trkpt lat="40.908650136973975" lon="9.047364451797248"><ele>596.0</ele><time>2026-04-04T11:18:45.001Z</time></trkpt><trkpt lat="40.908493791526574" lon="9.047347623375213"><ele>592.75</ele><time>2026-04-04T11:18:46.001Z</time></trkpt><trkpt lat="40.90835609537965" lon="9.047322765774247"><ele>589.5</ele><time>2026-04-04T11:18:47.001Z</time></trkpt><trkpt lat="40.908221054835735" lon="9.047303029552001"><ele>586.25</ele><time>2026-04-04T11:18:48.001Z</time></trkpt><trkpt lat="40.90810378874501" lon="9.04728976847692"><ele>583.0</ele><time>2026-04-04T11:18:49.001Z</time></trkpt><trkpt lat="40.90801526753346" lon="9.047293709622991"><ele>583.0</ele><time>2026-04-04T11:18:50.001Z</time></trkpt><trkpt lat="40.907923962561796" lon="9.04739919680852"><ele>583.0</ele><time>2026-04-04T11:18:52.001Z</time></trkpt><trkpt lat="40.90792711782594" lon="9.0475066081941"><ele>583.0</ele><time>2026-04-04T11:18:53.001Z</time></trkpt><trkpt lat="40.90796367224597" lon="9.047625463149618"><ele>583.0</ele><time>2026-04-04T11:18:54.001Z</time></trkpt><trkpt lat="40.90801663289418" lon="9.047760618064206"><ele>583.0</ele><time>2026-04-04T11:18:55.001Z</time></trkpt><trkpt lat="40.908052068526075" lon="9.047925251350739"><ele>586.6666666666667</ele><time>2026-04-04T11:18:56.001Z</time></trkpt><trkpt lat="40.90806360641548" lon="9.048125196172562"><ele>590.3333333333334</ele><time>2026-04-04T11:18:57.001Z</time></trkpt><trkpt lat="40.908067743325866" lon="9.048328651243812"><ele>594.0</ele><time>2026-04-04T11:18:58.001Z</time></trkpt><trkpt lat="40.90806075205008" lon="9.04852147911967"><ele>594.5</ele><time>2026-04-04T11:18:59.001Z</time></trkpt><trkpt lat="40.90801293921886" lon="9.048713950447791"><ele>595.0</ele><time>2026-04-04T11:19:00.001Z</time></trkpt><trkpt lat="40.907961217206804" lon="9.048900438314993"><ele>595.5</ele><time>2026-04-04T11:19:01.001Z</time></trkpt><trkpt lat="40.90793601957322" lon="9.049071680251242"><ele>596.0</ele><time>2026-04-04T11:19:02.001Z</time></trkpt><trkpt lat="40.90792365592747" lon="9.049240445036652"><ele>596.0</ele><time>2026-04-04T11:19:03.001Z</time></trkpt><trkpt lat="40.907939956590965" lon="9.049399504731046"><ele>596.0</ele><time>2026-04-04T11:19:04.001Z</time></trkpt><trkpt lat="40.90798153109752" lon="9.049558466125758"><ele>596.0</ele><time>2026-04-04T11:19:05.001Z</time></trkpt><trkpt lat="40.90802958838728" lon="9.049732931898884"><ele>596.0</ele><time>2026-04-04T11:19:06.001Z</time></trkpt><trkpt lat="40.908074442614094" lon="9.04990526443697"><ele>594.75</ele><time>2026-04-04T11:19:07.001Z</time></trkpt><trkpt lat="40.90811423784427" lon="9.050064997638565"><ele>593.5</ele><time>2026-04-04T11:19:08.001Z</time></trkpt><trkpt lat="40.908148545999715" lon="9.050216959880801"><ele>592.25</ele><time>2026-04-04T11:19:09.001Z</time></trkpt><trkpt lat="40.9081516380303" lon="9.05037789800794"><ele>591.0</ele><time>2026-04-04T11:19:10.001Z</time></trkpt><trkpt lat="40.90811248302252" lon="9.050538976553074"><ele>591.0</ele><time>2026-04-04T11:19:11.001Z</time></trkpt><trkpt lat="40.90808846725084" lon="9.050721165473925"><ele>591.0</ele><time>2026-04-04T11:19:12.001Z</time></trkpt><trkpt lat="40.908088491759074" lon="9.050906772198914"><ele>591.0</ele><time>2026-04-04T11:19:13.001Z</time></trkpt><trkpt lat="40.908111890697455" lon="9.051087606957262"><ele>591.0</ele><time>2026-04-04T11:19:14.001Z</time></trkpt><trkpt lat="40.908131451649325" lon="9.051265211576215"><ele>589.75</ele><time>2026-04-04T11:19:15.001Z</time></trkpt><trkpt lat="40.90815794815138" lon="9.051445107489341"><ele>588.5</ele><time>2026-04-04T11:19:16.001Z</time></trkpt><trkpt lat="40.90819622349391" lon="9.051603375894526"><ele>587.25</ele><time>2026-04-04T11:19:17.001Z</time></trkpt><trkpt lat="40.90823720621926" lon="9.051750545450837"><ele>586.0</ele><time>2026-04-04T11:19:18.001Z</time></trkpt><trkpt lat="40.90826330504839" lon="9.051902926002708"><ele>585.75</ele><time>2026-04-04T11:19:19.001Z</time></trkpt><trkpt lat="40.9082573059465" lon="9.05204632181178"><ele>585.5</ele><time>2026-04-04T11:19:20.001Z</time></trkpt><trkpt lat="40.90823075497671" lon="9.052208066138924"><ele>585.25</ele><time>2026-04-04T11:19:21.001Z</time></trkpt><trkpt lat="40.90818608747004" lon="9.052383297397665"><ele>585.0</ele><time>2026-04-04T11:19:22.001Z</time></trkpt><trkpt lat="40.908152881825245" lon="9.05257200789547"><ele>583.6666666666666</ele><time>2026-04-04T11:19:23.001Z</time></trkpt><trkpt lat="40.90813998919575" lon="9.052765988025715"><ele>582.3333333333333</ele><time>2026-04-04T11:19:24.001Z</time></trkpt><trkpt lat="40.9081355078924" lon="9.052965553223354"><ele>581.0</ele><time>2026-04-04T11:19:25.001Z</time></trkpt><trkpt lat="40.908140146123806" lon="9.05316586869072"><ele>580.5</ele><time>2026-04-04T11:19:26.001Z</time></trkpt><trkpt lat="40.90813224531424" lon="9.053352486804128"><ele>580.0</ele><time>2026-04-04T11:19:27.001Z</time></trkpt><trkpt lat="40.908096632843794" lon="9.053537636174184"><ele>579.5</ele><time>2026-04-04T11:19:28.001Z</time></trkpt><trkpt lat="40.90803936841533" lon="9.05371527647291"><ele>579.0</ele><time>2026-04-04T11:19:29.001Z</time></trkpt><trkpt lat="40.90799014923202" lon="9.053891371040763"><ele>579.0</ele><time>2026-04-04T11:19:30.001Z</time></trkpt><trkpt lat="40.90794597270035" lon="9.054063137090013"><ele>579.0</ele><time>2026-04-04T11:19:31.001Z</time></trkpt><trkpt lat="40.90790722778491" lon="9.054234718783663"><ele>579.0</ele><time>2026-04-04T11:19:32.001Z</time></trkpt><trkpt lat="40.907874742095586" lon="9.054416424448307"><ele>579.0</ele><time>2026-04-04T11:19:33.001Z</time></trkpt><trkpt lat="40.9078474757307" lon="9.054602102476014"><ele>579.75</ele><time>2026-04-04T11:19:34.001Z</time></trkpt><trkpt lat="40.907825344124234" lon="9.054794116698273"><ele>580.5</ele><time>2026-04-04T11:19:35.002Z</time></trkpt><trkpt lat="40.907789095665095" lon="9.054960430441144"><ele>581.25</ele><time>2026-04-04T11:19:36.002Z</time></trkpt><trkpt lat="40.90772779724545" lon="9.055095981601639"><ele>582.0</ele><time>2026-04-04T11:19:37.002Z</time></trkpt><trkpt lat="40.9076331800855" lon="9.055229684715824"><ele>577.3333333333334</ele><time>2026-04-04T11:19:38.002Z</time></trkpt><trkpt lat="40.90751755978091" lon="9.055388854464375"><ele>572.6666666666667</ele><time>2026-04-04T11:19:39.002Z</time></trkpt><trkpt lat="40.90739455242352" lon="9.055529981402549"><ele>568.0</ele><time>2026-04-04T11:19:40.002Z</time></trkpt><trkpt lat="40.90727891177132" lon="9.055645974716201"><ele>568.0</ele><time>2026-04-04T11:19:41.002Z</time></trkpt><trkpt lat="40.90717549470912" lon="9.055744885026735"><ele>568.0</ele><time>2026-04-04T11:19:42Z</time></trkpt><trkpt lat="40.9070811957648" lon="9.055847826657867"><ele>568.0</ele><time>2026-04-04T11:19:43Z</time></trkpt><trkpt lat="40.90703836744991" lon="9.055960425706003"><ele>568.0</ele><time>2026-04-04T11:19:44Z</time></trkpt><trkpt lat="40.907012184871206" lon="9.05607978538484"><ele>568.0</ele><time>2026-04-04T11:19:45Z</time></trkpt><trkpt lat="40.907021701745514" lon="9.056207390179528"><ele>570.0</ele><time>2026-04-04T11:19:46Z</time></trkpt><trkpt lat="40.90705817312701" lon="9.056333676736868"><ele>572.0</ele><time>2026-04-04T11:19:47Z</time></trkpt><trkpt lat="40.90713072087347" lon="9.056433712312446"><ele>574.0</ele><time>2026-04-04T11:19:48Z</time></trkpt><trkpt lat="40.907233155485265" lon="9.056518871317607"><ele>576.0</ele><time>2026-04-04T11:19:49Z</time></trkpt><trkpt lat="40.90735482793209" lon="9.05661583857673"><ele>574.6</ele><time>2026-04-04T11:19:50Z</time></trkpt><trkpt lat="40.9074665637392" lon="9.056710211228962"><ele>573.2</ele><time>2026-04-04T11:19:51Z</time></trkpt><trkpt lat="40.90754664048807" lon="9.056780725207304"><ele>571.8</ele><time>2026-04-04T11:19:52Z</time></trkpt><trkpt lat="40.90760727452334" lon="9.05691455883396"><ele>570.4</ele><time>2026-04-04T11:19:54Z</time></trkpt><trkpt lat="40.90757791812485" lon="9.057009451612426"><ele>569.0</ele><time>2026-04-04T11:19:55Z</time></trkpt><trkpt lat="40.90751193260321" lon="9.05709494835256"><ele>569.0</ele><time>2026-04-04T11:19:56Z</time></trkpt><trkpt lat="40.90741659635098" lon="9.057190577976224"><ele>569.0</ele><time>2026-04-04T11:19:57Z</time></trkpt><trkpt lat="40.90733706464899" lon="9.057275916967411"><ele>569.0</ele><time>2026-04-04T11:19:58Z</time></trkpt><trkpt lat="40.90728740051697" lon="9.057368261465747"><ele>569.0</ele><time>2026-04-04T11:19:59Z</time></trkpt><trkpt lat="40.90727983047483" lon="9.057493864121078"><ele>569.0</ele><time>2026-04-04T11:20:00Z</time></trkpt><trkpt lat="40.90730385150478" lon="9.057635690169148"><ele>567.5</ele><time>2026-04-04T11:20:01Z</time></trkpt><trkpt lat="40.90735436725044" lon="9.05779962024084"><ele>566.0</ele><time>2026-04-04T11:20:02Z</time></trkpt><trkpt lat="40.907415994377914" lon="9.057980834471362"><ele>564.5</ele><time>2026-04-04T11:20:03Z</time></trkpt><trkpt lat="40.90747864737526" lon="9.058173974709387"><ele>563.0</ele><time>2026-04-04T11:20:04Z</time></trkpt><trkpt lat="40.90754361802326" lon="9.05836030724497"><ele>568.75</ele><time>2026-04-04T11:20:05Z</time></trkpt><trkpt lat="40.9076153197702" lon="9.058531550681257"><ele>574.5</ele><time>2026-04-04T11:20:06Z</time></trkpt><trkpt lat="40.9076935220415" lon="9.058675197455171"><ele>580.25</ele><time>2026-04-04T11:20:07Z</time></trkpt><trkpt lat="40.90777346981869" lon="9.058816891199742"><ele>586.0</ele><time>2026-04-04T11:20:08Z</time></trkpt><trkpt lat="40.90785465603976" lon="9.058951828405066"><ele>586.0</ele><time>2026-04-04T11:20:09.001Z</time></trkpt><trkpt lat="40.90792704551856" lon="9.059086317004965"><ele>586.0</ele><time>2026-04-04T11:20:10.001Z</time></trkpt><trkpt lat="40.907969342442584" lon="9.059230893003491"><ele>586.0</ele><time>2026-04-04T11:20:11.001Z</time></trkpt><trkpt lat="40.90799208863791" lon="9.059394356499334"><ele>586.0</ele><time>2026-04-04T11:20:12.001Z</time></trkpt><trkpt lat="40.9080154482432" lon="9.059569433599954"><ele>581.75</ele><time>2026-04-04T11:20:13.001Z</time></trkpt><trkpt lat="40.90806132676213" lon="9.059733951022515"><ele>577.5</ele><time>2026-04-04T11:20:14.001Z</time></trkpt><trkpt lat="40.90811834893807" lon="9.059893304825032"><ele>573.25</ele><time>2026-04-04T11:20:15.001Z</time></trkpt><trkpt lat="40.90817426260686" lon="9.060046056496692"><ele>569.0</ele><time>2026-04-04T11:20:16.001Z</time></trkpt><trkpt lat="40.908236651986535" lon="9.060181100707666"><ele>566.25</ele><time>2026-04-04T11:20:17.001Z</time></trkpt><trkpt lat="40.908321814273506" lon="9.060305954468584"><ele>563.5</ele><time>2026-04-04T11:20:18.001Z</time></trkpt><trkpt lat="40.90842319671444" lon="9.060422674594427"><ele>560.75</ele><time>2026-04-04T11:20:19.001Z</time></trkpt><trkpt lat="40.90850134708755" lon="9.060548546941511"><ele>558.0</ele><time>2026-04-04T11:20:20.001Z</time></trkpt><trkpt lat="40.90855939676957" lon="9.060696275113948"><ele>560.5</ele><time>2026-04-04T11:20:21.001Z</time></trkpt><trkpt lat="40.90862044363357" lon="9.060848564085495"><ele>563.0</ele><time>2026-04-04T11:20:22.001Z</time></trkpt><trkpt lat="40.908701951584646" lon="9.060978152577535"><ele>565.5</ele><time>2026-04-04T11:20:23.001Z</time></trkpt><trkpt lat="40.908801055749755" lon="9.061092283813837"><ele>568.0</ele><time>2026-04-04T11:20:24.001Z</time></trkpt><trkpt lat="40.90889971054074" lon="9.061210161154925"><ele>568.0</ele><time>2026-04-04T11:20:25.001Z</time></trkpt><trkpt lat="40.9089979522283" lon="9.061336059810339"><ele>568.0</ele><time>2026-04-04T11:20:26.001Z</time></trkpt><trkpt lat="40.90909602289478" lon="9.061461926085526"><ele>568.0</ele><time>2026-04-04T11:20:27.001Z</time></trkpt><trkpt lat="40.90920189354823" lon="9.061579673645815"><ele>568.0</ele><time>2026-04-04T11:20:28.001Z</time></trkpt><trkpt lat="40.9093057145575" lon="9.061693424828137"><ele>565.75</ele><time>2026-04-04T11:20:29.001Z</time></trkpt><trkpt lat="40.9094101412492" lon="9.061799072034743"><ele>563.5</ele><time>2026-04-04T11:20:30.001Z</time></trkpt><trkpt lat="40.909529594845075" lon="9.061904593263888"><ele>561.25</ele><time>2026-04-04T11:20:31.001Z</time></trkpt><trkpt lat="40.90964764070123" lon="9.06199597641625"><ele>559.0</ele><time>2026-04-04T11:20:32.001Z</time></trkpt><trkpt lat="40.90975255378559" lon="9.062083490048762"><ele>559.0</ele><time>2026-04-04T11:20:33.001Z</time></trkpt><trkpt lat="40.909845332754664" lon="9.062173159529586"><ele>559.0</ele><time>2026-04-04T11:20:34.001Z</time></trkpt><trkpt lat="40.909919041567115" lon="9.06226105244114"><ele>559.0</ele><time>2026-04-04T11:20:35.001Z</time></trkpt><trkpt lat="40.90996419967546" lon="9.062385263763252"><ele>559.0</ele><time>2026-04-04T11:20:36.001Z</time></trkpt><trkpt lat="40.90998353993851" lon="9.062542841232252"><ele>559.0</ele><time>2026-04-04T11:20:37.001Z</time></trkpt><trkpt lat="40.9100012729829" lon="9.06272239215548"><ele>557.0</ele><time>2026-04-04T11:20:38.001Z</time></trkpt><trkpt lat="40.91000435819728" lon="9.06285965438459"><ele>555.0</ele><time>2026-04-04T11:20:39.001Z</time></trkpt><trkpt lat="40.91000181987238" lon="9.06296341141957"><ele>553.0</ele><time>2026-04-04T11:20:40.001Z</time></trkpt><trkpt lat="40.90997639086379" lon="9.063054599656526"><ele>551.0</ele><time>2026-04-04T11:20:41.001Z</time></trkpt><trkpt lat="40.90992871759301" lon="9.06314307341834"><ele>549.0</ele><time>2026-04-04T11:20:42.001Z</time></trkpt><trkpt lat="40.90984625892278" lon="9.063221559606308"><ele>547.0</ele><time>2026-04-04T11:20:43.001Z</time></trkpt><trkpt lat="40.909760170041885" lon="9.063295431965463"><ele>546.0</ele><time>2026-04-04T11:20:44.001Z</time></trkpt><trkpt lat="40.90970010543568" lon="9.063389396636419"><ele>545.0</ele><time>2026-04-04T11:20:45.001Z</time></trkpt><trkpt lat="40.909678866259775" lon="9.063483433229692"><ele>544.0</ele><time>2026-04-04T11:20:46.001Z</time></trkpt><trkpt lat="40.9096981922411" lon="9.063562888211925"><ele>543.0</ele><time>2026-04-04T11:20:47.001Z</time></trkpt><trkpt lat="40.9097612509234" lon="9.063643811002093"><ele>542.0</ele><time>2026-04-04T11:20:48.001Z</time></trkpt><trkpt lat="40.90985645948254" lon="9.063730125718477"><ele>541.0</ele><time>2026-04-04T11:20:49.001Z</time></trkpt><trkpt lat="40.90994206881941" lon="9.063834902002531"><ele>541.0</ele><time>2026-04-04T11:20:50.001Z</time></trkpt><trkpt lat="40.90995696618914" lon="9.063936697265133"><ele>541.0</ele><time>2026-04-04T11:20:51.001Z</time></trkpt><trkpt lat="40.90989078864719" lon="9.06404624882328"><ele>541.0</ele><time>2026-04-04T11:20:52.001Z</time></trkpt><trkpt lat="40.90984582052023" lon="9.064192205367295"><ele>541.0</ele><time>2026-04-04T11:20:53.001Z</time></trkpt><trkpt lat="40.90980058643054" lon="9.064390545698386"><ele>538.6</ele><time>2026-04-04T11:20:54.001Z</time></trkpt><trkpt lat="40.90973206727952" lon="9.06453628519275"><ele>536.2</ele><time>2026-04-04T11:20:55.001Z</time></trkpt><trkpt lat="40.90970522268819" lon="9.064642097589577"><ele>533.8</ele><time>2026-04-04T11:20:56.001Z</time></trkpt><trkpt lat="40.90970252532074" lon="9.064748977712837"><ele>531.4</ele><time>2026-04-04T11:20:57.001Z</time></trkpt><trkpt lat="40.90974384877423" lon="9.064845596338769"><ele>529.0</ele><time>2026-04-04T11:20:58.001Z</time></trkpt><trkpt lat="40.90978420612804" lon="9.064937284206225"><ele>527.3333333333334</ele><time>2026-04-04T11:21:00.001Z</time></trkpt><trkpt lat="40.90982962259261" lon="9.065014403337583"><ele>525.6666666666667</ele><time>2026-04-04T11:21:02.001Z</time></trkpt><trkpt lat="40.90990165551944" lon="9.065134206045615"><ele>524.0</ele><time>2026-04-04T11:21:04.001Z</time></trkpt><trkpt lat="40.90992637266916" lon="9.06522282522031"><ele>522.3333333333334</ele><time>2026-04-04T11:21:05.001Z</time></trkpt><trkpt lat="40.90997660928477" lon="9.065287122420743"><ele>520.6666666666666</ele><time>2026-04-04T11:21:06.001Z</time></trkpt><trkpt lat="40.91001482727276" lon="9.065365127424997"><ele>519.0</ele><time>2026-04-04T11:21:07.001Z</time></trkpt><trkpt lat="40.91006065344372" lon="9.065438967206058"><ele>519.6666666666666</ele><time>2026-04-04T11:21:08.001Z</time></trkpt><trkpt lat="40.91011252717024" lon="9.065495297636815"><ele>520.3333333333334</ele><time>2026-04-04T11:21:09.001Z</time></trkpt><trkpt lat="40.91017261885893" lon="9.065554911559605"><ele>521.0</ele><time>2026-04-04T11:21:10.001Z</time></trkpt><trkpt lat="40.91023701147731" lon="9.065607662395992"><ele>521.6666666666667</ele><time>2026-04-04T11:21:11.001Z</time></trkpt><trkpt lat="40.91030243907881" lon="9.065658030243597"><ele>522.3333333333334</ele><time>2026-04-04T11:21:12.001Z</time></trkpt><trkpt lat="40.91035730339576" lon="9.065700010120763"><ele>523.0</ele><time>2026-04-04T11:21:13.001Z</time></trkpt><trkpt lat="40.91046080464694" lon="9.065788516866409"><ele>520.4</ele><time>2026-04-04T11:21:15.001Z</time></trkpt><trkpt lat="40.91055533166918" lon="9.065879689946957"><ele>517.8</ele><time>2026-04-04T11:21:17.001Z</time></trkpt><trkpt lat="40.910641319525034" lon="9.06592124161226"><ele>515.2</ele><time>2026-04-04T11:21:19.001Z</time></trkpt><trkpt lat="40.91076456256871" lon="9.065978888978286"><ele>512.6</ele><time>2026-04-04T11:21:21.001Z</time></trkpt><trkpt lat="40.910839076169815" lon="9.066003737671414"><ele>510.0</ele><time>2026-04-04T11:21:22.001Z</time></trkpt><trkpt lat="40.910909677891176" lon="9.066032647694712"><ele>510.0</ele><time>2026-04-04T11:21:23.001Z</time></trkpt><trkpt lat="40.91097626366611" lon="9.066060181692242"><ele>510.0</ele><time>2026-04-04T11:21:24.001Z</time></trkpt><trkpt lat="40.91104070553331" lon="9.066085296946182"><ele>510.0</ele><time>2026-04-04T11:21:25.001Z</time></trkpt><trkpt lat="40.91110361822167" lon="9.06610783604217"><ele>510.0</ele><time>2026-04-04T11:21:26.001Z</time></trkpt><trkpt lat="40.91116510307522" lon="9.066128990876859"><ele>510.0</ele><time>2026-04-04T11:21:27.001Z</time></trkpt><trkpt lat="40.91127111390613" lon="9.066171506469937"><ele>510.0</ele><time>2026-04-04T11:21:29.001Z</time></trkpt><trkpt lat="40.911382320619836" lon="9.06621319777705"><ele>510.0</ele><time>2026-04-04T11:21:31.001Z</time></trkpt><trkpt lat="40.91150236385395" lon="9.066268080823788"><ele>510.0</ele><time>2026-04-04T11:21:33.001Z</time></trkpt><trkpt lat="40.911575279282026" lon="9.066305122204303"><ele>510.0</ele><time>2026-04-04T11:21:34.001Z</time></trkpt><trkpt lat="40.91165914563886" lon="9.06633285122493"><ele>510.0</ele><time>2026-04-04T11:21:35.001Z</time></trkpt><trkpt lat="40.91173445765804" lon="9.06636529954765"><ele>510.0</ele><time>2026-04-04T11:21:36.001Z</time></trkpt><trkpt lat="40.91181105953101" lon="9.066411420668167"><ele>510.0</ele><time>2026-04-04T11:21:37.001Z</time></trkpt><trkpt lat="40.911890991673445" lon="9.066461711954961"><ele>510.0</ele><time>2026-04-04T11:21:38.001Z</time></trkpt><trkpt lat="40.91196099862378" lon="9.06651934755931"><ele>510.0</ele><time>2026-04-04T11:21:39.001Z</time></trkpt><trkpt lat="40.91202558751904" lon="9.066588889518664"><ele>510.0</ele><time>2026-04-04T11:21:40.002Z</time></trkpt><trkpt lat="40.91209579172877" lon="9.066653830908095"><ele>510.0</ele><time>2026-04-04T11:21:41.002Z</time></trkpt><trkpt lat="40.91217637652578" lon="9.066719762755236"><ele>510.0</ele><time>2026-04-04T11:21:42.002Z</time></trkpt><trkpt lat="40.91226050499759" lon="9.066792589647005"><ele>507.25</ele><time>2026-04-04T11:21:43.002Z</time></trkpt><trkpt lat="40.91234757883911" lon="9.066873921453942"><ele>504.5</ele><time>2026-04-04T11:21:44.002Z</time></trkpt><trkpt lat="40.91243983544624" lon="9.06696068800206"><ele>501.75</ele><time>2026-04-04T11:21:45.002Z</time></trkpt><trkpt lat="40.91253800311749" lon="9.067047518872984"><ele>499.0</ele><time>2026-04-04T11:21:46.002Z</time></trkpt><trkpt lat="40.91263735127524" lon="9.067143115105683"><ele>498.5</ele><time>2026-04-04T11:21:47.002Z</time></trkpt><trkpt lat="40.91273070278776" lon="9.067245535626874"><ele>498.0</ele><time>2026-04-04T11:21:48Z</time></trkpt><trkpt lat="40.91282624716128" lon="9.067357303971551"><ele>497.5</ele><time>2026-04-04T11:21:49Z</time></trkpt><trkpt lat="40.91290969662583" lon="9.067488469569227"><ele>497.0</ele><time>2026-04-04T11:21:50Z</time></trkpt><trkpt lat="40.912986019700334" lon="9.067625373806706"><ele>495.5</ele><time>2026-04-04T11:21:51Z</time></trkpt><trkpt lat="40.91306987296455" lon="9.067754783992395"><ele>494.0</ele><time>2026-04-04T11:21:52Z</time></trkpt><trkpt lat="40.91315818927164" lon="9.067883732414767"><ele>492.5</ele><time>2026-04-04T11:21:53Z</time></trkpt><trkpt lat="40.9132556035437" lon="9.068009675857828"><ele>491.0</ele><time>2026-04-04T11:21:54Z</time></trkpt><trkpt lat="40.91335054086272" lon="9.068133301475806"><ele>491.5</ele><time>2026-04-04T11:21:55Z</time></trkpt><trkpt lat="40.9134363726868" lon="9.068252406930844"><ele>492.0</ele><time>2026-04-04T11:21:56Z</time></trkpt><trkpt lat="40.913527547951844" lon="9.068369900003177"><ele>492.5</ele><time>2026-04-04T11:21:57Z</time></trkpt><trkpt lat="40.91361627115837" lon="9.068494180154214"><ele>493.0</ele><time>2026-04-04T11:21:58Z</time></trkpt><trkpt lat="40.91369943662261" lon="9.068630880661354"><ele>493.0</ele><time>2026-04-04T11:21:59Z</time></trkpt><trkpt lat="40.913780148568776" lon="9.068768975488508"><ele>493.0</ele><time>2026-04-04T11:22:00Z</time></trkpt><trkpt lat="40.91385982315593" lon="9.068904236784256"><ele>493.0</ele><time>2026-04-04T11:22:01Z</time></trkpt><trkpt lat="40.91393633179954" lon="9.069042658541246"><ele>493.0</ele><time>2026-04-04T11:22:02Z</time></trkpt><trkpt lat="40.913998362730105" lon="9.069170406527965"><ele>492.0</ele><time>2026-04-04T11:22:03Z</time></trkpt><trkpt lat="40.914061571889675" lon="9.06930650763554"><ele>491.0</ele><time>2026-04-04T11:22:04Z</time></trkpt><trkpt lat="40.91413240941198" lon="9.069437151085443"><ele>490.0</ele><time>2026-04-04T11:22:05Z</time></trkpt><trkpt lat="40.91421461486422" lon="9.069555527333328"><ele>489.0</ele><time>2026-04-04T11:22:06Z</time></trkpt><trkpt lat="40.914305184214236" lon="9.069661055595438"><ele>489.0</ele><time>2026-04-04T11:22:07Z</time></trkpt><trkpt lat="40.914409638506314" lon="9.069763413728518"><ele>489.0</ele><time>2026-04-04T11:22:08Z</time></trkpt><trkpt lat="40.91452252756459" lon="9.069864191572524"><ele>489.0</ele><time>2026-04-04T11:22:09Z</time></trkpt><trkpt lat="40.914639339615995" lon="9.06995163080989"><ele>489.0</ele><time>2026-04-04T11:22:10Z</time></trkpt><trkpt lat="40.91475219126811" lon="9.07002130906928"><ele>487.6</ele><time>2026-04-04T11:22:11Z</time></trkpt><trkpt lat="40.91485861157749" lon="9.070080091432446"><ele>486.2</ele><time>2026-04-04T11:22:12Z</time></trkpt><trkpt lat="40.91493891754455" lon="9.07014203919347"><ele>484.80000000000007</ele><time>2026-04-04T11:22:13Z</time></trkpt><trkpt lat="40.91499789616194" lon="9.07023904959022"><ele>483.40000000000003</ele><time>2026-04-04T11:22:14.001Z</time></trkpt><trkpt lat="40.91501728905293" lon="9.070384016800926"><ele>482.0</ele><time>2026-04-04T11:22:15.001Z</time></trkpt><trkpt lat="40.91504815035923" lon="9.070553841709858"><ele>483.75</ele><time>2026-04-04T11:22:16.001Z</time></trkpt><trkpt lat="40.91509774771809" lon="9.07072959123123"><ele>485.5</ele><time>2026-04-04T11:22:17.001Z</time></trkpt><trkpt lat="40.91514749000616" lon="9.070893129269344"><ele>487.25</ele><time>2026-04-04T11:22:18.001Z</time></trkpt><trkpt lat="40.91521019550852" lon="9.07103167182385"><ele>489.0</ele><time>2026-04-04T11:22:19.001Z</time></trkpt><trkpt lat="40.91527886649107" lon="9.071172476067815"><ele>489.25</ele><time>2026-04-04T11:22:20.001Z</time></trkpt><trkpt lat="40.91535578315186" lon="9.071310666762583"><ele>489.5</ele><time>2026-04-04T11:22:21.001Z</time></trkpt><trkpt lat="40.91543080494144" lon="9.071444770048346"><ele>489.75</ele><time>2026-04-04T11:22:22.001Z</time></trkpt><trkpt lat="40.915495593273484" lon="9.071573695546393"><ele>490.0</ele><time>2026-04-04T11:22:23.001Z</time></trkpt><trkpt lat="40.91555048347316" lon="9.071693322629894"><ele>488.8</ele><time>2026-04-04T11:22:24.001Z</time></trkpt><trkpt lat="40.91560444547495" lon="9.071812748035804"><ele>487.6</ele><time>2026-04-04T11:22:25.001Z</time></trkpt><trkpt lat="40.915651318908424" lon="9.071913898443965"><ele>486.4</ele><time>2026-04-04T11:22:26.001Z</time></trkpt><trkpt lat="40.91569415355243" lon="9.071997977357313"><ele>485.2</ele><time>2026-04-04T11:22:27.001Z</time></trkpt><trkpt lat="40.91572105879135" lon="9.072126401290593"><ele>484.0</ele><time>2026-04-04T11:22:29.001Z</time></trkpt><trkpt lat="40.91554710572266" lon="9.072209130196718"><ele>484.0</ele><time>2026-04-04T11:22:34.001Z</time></trkpt><trkpt lat="40.91544455652223" lon="9.072273507365095"><ele>484.0</ele><time>2026-04-04T11:22:35.001Z</time></trkpt><trkpt lat="40.91534159923045" lon="9.072374408745004"><ele>484.0</ele><time>2026-04-04T11:22:36.001Z</time></trkpt><trkpt lat="40.91522510518509" lon="9.072490948850314"><ele>484.0</ele><time>2026-04-04T11:22:37.001Z</time></trkpt><trkpt lat="40.915106394778974" lon="9.072600455400178"><ele>481.6666666666667</ele><time>2026-04-04T11:22:38.001Z</time></trkpt><trkpt lat="40.915080384760074" lon="9.072830874482216"><ele>479.33333333333337</ele><time>2026-04-04T11:22:39.001Z</time></trkpt><trkpt lat="40.9150594638544" lon="9.073041254820195"><ele>477.0</ele><time>2026-04-04T11:22:40.001Z</time></trkpt><trkpt lat="40.91501087091899" lon="9.073227396793035"><ele>476.75</ele><time>2026-04-04T11:22:41.001Z</time></trkpt><trkpt lat="40.914974791302534" lon="9.07341434244009"><ele>476.5</ele><time>2026-04-04T11:22:42.001Z</time></trkpt><trkpt lat="40.9149511145648" lon="9.073603491972873"><ele>476.25</ele><time>2026-04-04T11:22:43.001Z</time></trkpt><trkpt lat="40.91490592248804" lon="9.073781986709568"><ele>476.0</ele><time>2026-04-04T11:22:44.001Z</time></trkpt><trkpt lat="40.91487446352778" lon="9.073964847013222"><ele>476.5</ele><time>2026-04-04T11:22:45.001Z</time></trkpt><trkpt lat="40.91485356262447" lon="9.074146867017387"><ele>477.0</ele><time>2026-04-04T11:22:46.001Z</time></trkpt><trkpt lat="40.914841276127284" lon="9.074323844285987"><ele>477.5</ele><time>2026-04-04T11:22:47.001Z</time></trkpt><trkpt lat="40.91485983484356" lon="9.074499647332594"><ele>478.0</ele><time>2026-04-04T11:22:48.001Z</time></trkpt><trkpt lat="40.91489398446422" lon="9.074678843921912"><ele>478.0</ele><time>2026-04-04T11:22:49.001Z</time></trkpt><trkpt lat="40.914932080952006" lon="9.074857251900589"><ele>478.0</ele><time>2026-04-04T11:22:50.001Z</time></trkpt><trkpt lat="40.91496771209871" lon="9.07503647542718"><ele>478.0</ele><time>2026-04-04T11:22:51.001Z</time></trkpt><trkpt lat="40.91499515254886" lon="9.075216910025716"><ele>478.0</ele><time>2026-04-04T11:22:52.001Z</time></trkpt><trkpt lat="40.91500092808765" lon="9.075401431977332"><ele>479.0</ele><time>2026-04-04T11:22:53.001Z</time></trkpt><trkpt lat="40.91499992305683" lon="9.07557771604189"><ele>480.0</ele><time>2026-04-04T11:22:54.001Z</time></trkpt><trkpt lat="40.91503189594238" lon="9.075737514482995"><ele>481.0</ele><time>2026-04-04T11:22:55.001Z</time></trkpt><trkpt lat="40.91511074714312" lon="9.075894037790661"><ele>482.0</ele><time>2026-04-04T11:22:56.001Z</time></trkpt><trkpt lat="40.91521106475234" lon="9.076038688597821"><ele>482.0</ele><time>2026-04-04T11:22:57.001Z</time></trkpt><trkpt lat="40.915317779561796" lon="9.076179630399897"><ele>482.0</ele><time>2026-04-04T11:22:58.001Z</time></trkpt><trkpt lat="40.91541922713878" lon="9.0763326129572"><ele>482.0</ele><time>2026-04-04T11:22:59.001Z</time></trkpt><trkpt lat="40.91551275564784" lon="9.076500628340428"><ele>485.66666666666663</ele><time>2026-04-04T11:23:00.001Z</time></trkpt><trkpt lat="40.91558595333687" lon="9.076680708298156"><ele>489.33333333333337</ele><time>2026-04-04T11:23:01.001Z</time></trkpt><trkpt lat="40.915629689759406" lon="9.076881772477611"><ele>493.0</ele><time>2026-04-04T11:23:02.001Z</time></trkpt><trkpt lat="40.915665884796255" lon="9.077089374927354"><ele>493.0</ele><time>2026-04-04T11:23:03.001Z</time></trkpt><trkpt lat="40.91569839163441" lon="9.077300086600406"><ele>493.0</ele><time>2026-04-04T11:23:04.001Z</time></trkpt><trkpt lat="40.9157324714835" lon="9.077510908603985"><ele>493.0</ele><time>2026-04-04T11:23:05.001Z</time></trkpt><trkpt lat="40.91576421404754" lon="9.07771677473553"><ele>496.0</ele><time>2026-04-04T11:23:06.001Z</time></trkpt><trkpt lat="40.91579330247581" lon="9.077920278365776"><ele>499.0</ele><time>2026-04-04T11:23:07.001Z</time></trkpt><trkpt lat="40.915817071223415" lon="9.078118071210985"><ele>502.0</ele><time>2026-04-04T11:23:08.001Z</time></trkpt><trkpt lat="40.91582352522643" lon="9.078314265335404"><ele>503.5</ele><time>2026-04-04T11:23:09.001Z</time></trkpt><trkpt lat="40.91580439177927" lon="9.078500742404799"><ele>505.0</ele><time>2026-04-04T11:23:10.001Z</time></trkpt><trkpt lat="40.91577848903335" lon="9.078681222444215"><ele>506.5</ele><time>2026-04-04T11:23:11.001Z</time></trkpt><trkpt lat="40.91574751518284" lon="9.078856812599598"><ele>508.0</ele><time>2026-04-04T11:23:12.001Z</time></trkpt><trkpt lat="40.91571730712639" lon="9.079025154258165"><ele>508.33333333333337</ele><time>2026-04-04T11:23:13.001Z</time></trkpt><trkpt lat="40.9156964755155" lon="9.079171031348706"><ele>508.6666666666667</ele><time>2026-04-04T11:23:14.001Z</time></trkpt><trkpt lat="40.91567591619078" lon="9.079303889491598"><ele>509.0</ele><time>2026-04-04T11:23:15.001Z</time></trkpt><trkpt lat="40.915652122864124" lon="9.079413768477378"><ele>509.33333333333337</ele><time>2026-04-04T11:23:16.001Z</time></trkpt><trkpt lat="40.91562121699027" lon="9.079503141461812"><ele>509.6666666666667</ele><time>2026-04-04T11:23:17.001Z</time></trkpt><trkpt lat="40.915562981971185" lon="9.079546382103313"><ele>510.0</ele><time>2026-04-04T11:23:18.001Z</time></trkpt><trkpt lat="40.91548780719738" lon="9.079611549228773"><ele>510.0</ele><time>2026-04-04T11:23:20.001Z</time></trkpt><trkpt lat="40.91540849663556" lon="9.079630488512828"><ele>510.0</ele><time>2026-04-04T11:23:24.001Z</time></trkpt><trkpt lat="40.915290635098046" lon="9.079598165602855"><ele>510.0</ele><time>2026-04-04T11:23:27.001Z</time></trkpt><trkpt lat="40.91518113899833" lon="9.079535691719112"><ele>510.0</ele><time>2026-04-04T11:23:29.001Z</time></trkpt><trkpt lat="40.91512353930935" lon="9.079500800301544"><ele>510.0</ele><time>2026-04-04T11:23:30.001Z</time></trkpt><trkpt lat="40.915063964305126" lon="9.079466167102485"><ele>510.0</ele><time>2026-04-04T11:23:31.001Z</time></trkpt><trkpt lat="40.91494126818782" lon="9.079394776591396"><ele>510.75</ele><time>2026-04-04T11:23:33.001Z</time></trkpt><trkpt lat="40.9148704578214" lon="9.079353370539769"><ele>511.5</ele><time>2026-04-04T11:23:34.001Z</time></trkpt><trkpt lat="40.914758931701485" lon="9.079288707483535"><ele>512.25</ele><time>2026-04-04T11:23:35.001Z</time></trkpt><trkpt lat="40.91463498665751" lon="9.079236825961685"><ele>513.0</ele><time>2026-04-04T11:23:36.001Z</time></trkpt><trkpt lat="40.91448469422765" lon="9.079207998389792"><ele>513.0</ele><time>2026-04-04T11:23:37.001Z</time></trkpt><trkpt lat="40.91437991780259" lon="9.07972602518391"><ele>513.0</ele><time>2026-04-04T11:23:38.001Z</time></trkpt><trkpt lat="40.91427098564203" lon="9.079905138551348"><ele>509.4</ele><time>2026-04-04T11:23:39.001Z</time></trkpt><trkpt lat="40.91418844316901" lon="9.07997960664364"><ele>505.79999999999995</ele><time>2026-04-04T11:23:40.001Z</time></trkpt><trkpt lat="40.91410308733725" lon="9.080056612742522"><ele>502.2</ele><time>2026-04-04T11:23:41.001Z</time></trkpt><trkpt lat="40.914013117028425" lon="9.0801451602997"><ele>498.6</ele><time>2026-04-04T11:23:42.001Z</time></trkpt><trkpt lat="40.91392283667368" lon="9.080234213513894"><ele>495.0</ele><time>2026-04-04T11:23:43.001Z</time></trkpt><trkpt lat="40.91383162759447" lon="9.080326304057014"><ele>495.0</ele><time>2026-04-04T11:23:44.001Z</time></trkpt><trkpt lat="40.913741061752" lon="9.080418793081705"><ele>495.0</ele><time>2026-04-04T11:23:45.001Z</time></trkpt><trkpt lat="40.91365362450622" lon="9.080509485131165"><ele>495.0</ele><time>2026-04-04T11:23:46.002Z</time></trkpt><trkpt lat="40.91356741864889" lon="9.08059889994892"><ele>495.0</ele><time>2026-04-04T11:23:47.002Z</time></trkpt><trkpt lat="40.91348252334806" lon="9.080687779615571"><ele>495.0</ele><time>2026-04-04T11:23:48.002Z</time></trkpt><trkpt lat="40.913397629685505" lon="9.080779394239116"><ele>490.75</ele><time>2026-04-04T11:23:49.002Z</time></trkpt><trkpt lat="40.913313190398426" lon="9.080872791270124"><ele>486.5</ele><time>2026-04-04T11:23:50.002Z</time></trkpt><trkpt lat="40.91322063959911" lon="9.080981540252546"><ele>482.25</ele><time>2026-04-04T11:23:51.002Z</time></trkpt><trkpt lat="40.91313157116508" lon="9.081091960721551"><ele>478.0</ele><time>2026-04-04T11:23:52.002Z</time></trkpt><trkpt lat="40.913048425797" lon="9.081197750146941"><ele>478.0</ele><time>2026-04-04T11:23:53.002Z</time></trkpt><trkpt lat="40.91297032313639" lon="9.081298410102745"><ele>477.99999999999994</ele><time>2026-04-04T11:23:54Z</time></trkpt><trkpt lat="40.912893956451946" lon="9.081390143568628"><ele>477.99999999999994</ele><time>2026-04-04T11:23:55Z</time></trkpt><trkpt lat="40.912816240353166" lon="9.081480215056839"><ele>478.0</ele><time>2026-04-04T11:23:56Z</time></trkpt><trkpt lat="40.912731421973795" lon="9.081568890635301"><ele>478.0</ele><time>2026-04-04T11:23:57Z</time></trkpt><trkpt lat="40.91264005689246" lon="9.08164846956704"><ele>476.5</ele><time>2026-04-04T11:23:58Z</time></trkpt><trkpt lat="40.912548929399364" lon="9.081733073398677"><ele>475.0</ele><time>2026-04-04T11:23:59Z</time></trkpt><trkpt lat="40.9124546541238" lon="9.081828952169474"><ele>473.5</ele><time>2026-04-04T11:24:00Z</time></trkpt><trkpt lat="40.91235889127728" lon="9.081928875043015"><ele>472.0</ele><time>2026-04-04T11:24:01Z</time></trkpt><trkpt lat="40.91226292660412" lon="9.082030647519929"><ele>472.0</ele><time>2026-04-04T11:24:02Z</time></trkpt><trkpt lat="40.91217943473083" lon="9.08212118804366"><ele>472.00000000000006</ele><time>2026-04-04T11:24:03Z</time></trkpt><trkpt lat="40.91210837830048" lon="9.082198243071096"><ele>472.00000000000006</ele><time>2026-04-04T11:24:04Z</time></trkpt><trkpt lat="40.912033213239624" lon="9.082266915384345"><ele>472.0</ele><time>2026-04-04T11:24:05Z</time></trkpt><trkpt lat="40.9119602963051" lon="9.082355419682186"><ele>472.0</ele><time>2026-04-04T11:24:06Z</time></trkpt><trkpt lat="40.9118630438374" lon="9.082433724648292"><ele>470.75</ele><time>2026-04-04T11:24:07Z</time></trkpt><trkpt lat="40.91177207520841" lon="9.082547184536352"><ele>469.5</ele><time>2026-04-04T11:24:08Z</time></trkpt><trkpt lat="40.91167850763271" lon="9.082688534837946"><ele>468.25</ele><time>2026-04-04T11:24:09Z</time></trkpt><trkpt lat="40.911593273207515" lon="9.082850162641947"><ele>467.0</ele><time>2026-04-04T11:24:10Z</time></trkpt><trkpt lat="40.911515137584736" lon="9.082998945454648"><ele>468.25</ele><time>2026-04-04T11:24:11Z</time></trkpt><trkpt lat="40.91143882811766" lon="9.083142363178563"><ele>469.5</ele><time>2026-04-04T11:24:12Z</time></trkpt><trkpt lat="40.91136285858646" lon="9.083273055119394"><ele>470.75</ele><time>2026-04-04T11:24:13Z</time></trkpt><trkpt lat="40.91127706814981" lon="9.08339571752237"><ele>472.0</ele><time>2026-04-04T11:24:14Z</time></trkpt><trkpt lat="40.91117561639545" lon="9.083492541508441"><ele>472.0</ele><time>2026-04-04T11:24:15Z</time></trkpt><trkpt lat="40.91106715138365" lon="9.083595612313074"><ele>472.0</ele><time>2026-04-04T11:24:16Z</time></trkpt><trkpt lat="40.91095662526407" lon="9.083693061629862"><ele>472.0</ele><time>2026-04-04T11:24:17Z</time></trkpt><trkpt lat="40.9108425666288" lon="9.083793033099557"><ele>472.0</ele><time>2026-04-04T11:24:18Z</time></trkpt><trkpt lat="40.91074149550345" lon="9.083884983021198"><ele>474.20000000000005</ele><time>2026-04-04T11:24:19Z</time></trkpt><trkpt lat="40.910642142271676" lon="9.083945624837867"><ele>476.40000000000003</ele><time>2026-04-04T11:24:20Z</time></trkpt><trkpt lat="40.910538760142394" lon="9.083973723966759"><ele>478.59999999999997</ele><time>2026-04-04T11:24:21.001Z</time></trkpt><trkpt lat="40.910432059469024" lon="9.08398972879453"><ele>480.79999999999995</ele><time>2026-04-04T11:24:22.001Z</time></trkpt><trkpt lat="40.91032520661392" lon="9.084022920089163"><ele>483.0</ele><time>2026-04-04T11:24:23.001Z</time></trkpt><trkpt lat="40.91022262679196" lon="9.084082597591626"><ele>481.0</ele><time>2026-04-04T11:24:24.001Z</time></trkpt><trkpt lat="40.91013322754457" lon="9.084172332018753"><ele>478.99999999999994</ele><time>2026-04-04T11:24:25.001Z</time></trkpt><trkpt lat="40.91005434922461" lon="9.08426483201722"><ele>476.99999999999994</ele><time>2026-04-04T11:24:26.001Z</time></trkpt><trkpt lat="40.909968311175646" lon="9.084345224688487"><ele>475.0</ele><time>2026-04-04T11:24:27.001Z</time></trkpt><trkpt lat="40.90987526728373" lon="9.08441674552794"><ele>473.0</ele><time>2026-04-04T11:24:28.001Z</time></trkpt><trkpt lat="40.909772157761125" lon="9.084463740767015"><ele>473.0</ele><time>2026-04-04T11:24:29.001Z</time></trkpt><trkpt lat="40.909680764176606" lon="9.084537588368445"><ele>472.99999999999994</ele><time>2026-04-04T11:24:30.001Z</time></trkpt><trkpt lat="40.90960331943486" lon="9.084631786222893"><ele>472.99999999999994</ele><time>2026-04-04T11:24:31.001Z</time></trkpt><trkpt lat="40.90953344644948" lon="9.084720201134997"><ele>473.0</ele><time>2026-04-04T11:24:32.001Z</time></trkpt><trkpt lat="40.9094695965387" lon="9.084806615943496"><ele>473.0</ele><time>2026-04-04T11:24:33.001Z</time></trkpt><trkpt lat="40.9094099539972" lon="9.084887466579941"><ele>471.59999999999997</ele><time>2026-04-04T11:24:34.001Z</time></trkpt><trkpt lat="40.9093523836329" lon="9.08495887477333"><ele>470.19999999999993</ele><time>2026-04-04T11:24:35.001Z</time></trkpt><trkpt lat="40.90929909225418" lon="9.08501837321762"><ele>468.8</ele><time>2026-04-04T11:24:36.001Z</time></trkpt><trkpt lat="40.909238092636116" lon="9.085082505186552"><ele>467.4</ele><time>2026-04-04T11:24:38.001Z</time></trkpt><trkpt lat="40.90933060210152" lon="9.085327335749914"><ele>466.0</ele><time>2026-04-04T11:24:41.001Z</time></trkpt><trkpt lat="40.90939580249209" lon="9.08541715243525"><ele>465.83333333333337</ele><time>2026-04-04T11:24:42.001Z</time></trkpt><trkpt lat="40.909443813676184" lon="9.085503664299148"><ele>465.6666666666667</ele><time>2026-04-04T11:24:43.001Z</time></trkpt><trkpt lat="40.90949258840614" lon="9.08559219268706"><ele>465.5</ele><time>2026-04-04T11:24:44.001Z</time></trkpt><trkpt lat="40.90953996468727" lon="9.085684480404186"><ele>465.33333333333337</ele><time>2026-04-04T11:24:45.001Z</time></trkpt><trkpt lat="40.90958519521871" lon="9.085780565796728"><ele>465.1666666666667</ele><time>2026-04-04T11:24:46.001Z</time></trkpt><trkpt lat="40.9096352771844" lon="9.08589647440582"><ele>465.0</ele><time>2026-04-04T11:24:47.001Z</time></trkpt><trkpt lat="40.90969136353882" lon="9.086017939913159"><ele>463.5</ele><time>2026-04-04T11:24:48.001Z</time></trkpt><trkpt lat="40.90974980730878" lon="9.086149147174483"><ele>462.0</ele><time>2026-04-04T11:24:49.001Z</time></trkpt><trkpt lat="40.909810057328734" lon="9.086287141392319"><ele>460.5</ele><time>2026-04-04T11:24:50.001Z</time></trkpt><trkpt lat="40.90986512800102" lon="9.086436810640548"><ele>459.0</ele><time>2026-04-04T11:24:51.001Z</time></trkpt><trkpt lat="40.90991416621753" lon="9.08659271978017"><ele>459.25</ele><time>2026-04-04T11:24:52.001Z</time></trkpt><trkpt lat="40.90995043821192" lon="9.086737889968365"><ele>459.5</ele><time>2026-04-04T11:24:53.001Z</time></trkpt><trkpt lat="40.909975257642884" lon="9.086891453527318"><ele>459.75</ele><time>2026-04-04T11:24:54.001Z</time></trkpt><trkpt lat="40.90996719673408" lon="9.08706486652165"><ele>460.0</ele><time>2026-04-04T11:24:55.001Z</time></trkpt><trkpt lat="40.910025143886294" lon="9.087220431650255"><ele>460.0</ele><time>2026-04-04T11:24:56.001Z</time></trkpt><trkpt lat="40.91007014500406" lon="9.087383355067304"><ele>460.0</ele><time>2026-04-04T11:24:57.001Z</time></trkpt><trkpt lat="40.91011266500598" lon="9.087547077566178"><ele>460.0</ele><time>2026-04-04T11:24:58.001Z</time></trkpt><trkpt lat="40.91014340419323" lon="9.087710473367977"><ele>460.0</ele><time>2026-04-04T11:24:59.001Z</time></trkpt><trkpt lat="40.91017849200541" lon="9.087871836096056"><ele>459.25</ele><time>2026-04-04T11:25:00.001Z</time></trkpt><trkpt lat="40.910218645470465" lon="9.088024915835241"><ele>458.5</ele><time>2026-04-04T11:25:01.001Z</time></trkpt><trkpt lat="40.910258233852005" lon="9.088179435766433"><ele>457.75</ele><time>2026-04-04T11:25:02.001Z</time></trkpt><trkpt lat="40.91029996107001" lon="9.08833074233469"><ele>457.0</ele><time>2026-04-04T11:25:03.001Z</time></trkpt><trkpt lat="40.9103419821758" lon="9.088489420338227"><ele>457.0</ele><time>2026-04-04T11:25:04.001Z</time></trkpt><trkpt lat="40.910382262338004" lon="9.088645143342982"><ele>457.0</ele><time>2026-04-04T11:25:05.001Z</time></trkpt><trkpt lat="40.91041077286239" lon="9.088801475175293"><ele>457.0</ele><time>2026-04-04T11:25:06.001Z</time></trkpt><trkpt lat="40.910435794812386" lon="9.08895940603349"><ele>457.0</ele><time>2026-04-04T11:25:07.001Z</time></trkpt><trkpt lat="40.91046179134685" lon="9.08910004347304"><ele>457.0</ele><time>2026-04-04T11:25:08.001Z</time></trkpt><trkpt lat="40.91050160251515" lon="9.08921749221236"><ele>457.00000000000006</ele><time>2026-04-04T11:25:09.001Z</time></trkpt><trkpt lat="40.91055273301537" lon="9.089341524503087"><ele>457.00000000000006</ele><time>2026-04-04T11:25:10.001Z</time></trkpt><trkpt lat="40.910594737041734" lon="9.089472099721707"><ele>457.0</ele><time>2026-04-04T11:25:11.001Z</time></trkpt><trkpt lat="40.91063949412507" lon="9.089596430142471"><ele>457.0</ele><time>2026-04-04T11:25:12.001Z</time></trkpt><trkpt lat="40.910683541828746" lon="9.089737407287668"><ele>457.0</ele><time>2026-04-04T11:25:13.001Z</time></trkpt><trkpt lat="40.9107177220823" lon="9.089888212343645"><ele>457.0</ele><time>2026-04-04T11:25:14.001Z</time></trkpt><trkpt lat="40.91074700733183" lon="9.090027938213524"><ele>457.0</ele><time>2026-04-04T11:25:15.001Z</time></trkpt><trkpt lat="40.91078528755589" lon="9.090172550659002"><ele>457.0</ele><time>2026-04-04T11:25:16.001Z</time></trkpt><trkpt lat="40.910831222638784" lon="9.090317384692085"><ele>457.0</ele><time>2026-04-04T11:25:17.001Z</time></trkpt><trkpt lat="40.91087783352517" lon="9.090472242742917"><ele>457.0</ele><time>2026-04-04T11:25:18.001Z</time></trkpt><trkpt lat="40.91092127649164" lon="9.090626408903603"><ele>457.0</ele><time>2026-04-04T11:25:19.001Z</time></trkpt><trkpt lat="40.91096153457365" lon="9.090780548256383"><ele>457.0</ele><time>2026-04-04T11:25:20.001Z</time></trkpt><trkpt lat="40.91100375819846" lon="9.090931164736583"><ele>457.0</ele><time>2026-04-04T11:25:21.001Z</time></trkpt><trkpt lat="40.911047308610506" lon="9.091084862971497"><ele>457.0</ele><time>2026-04-04T11:25:22.001Z</time></trkpt><trkpt lat="40.91109037076037" lon="9.091238173967028"><ele>457.0</ele><time>2026-04-04T11:25:23.001Z</time></trkpt><trkpt lat="40.911129107835826" lon="9.09140352066579"><ele>457.0</ele><time>2026-04-04T11:25:24.001Z</time></trkpt><trkpt lat="40.91117336779461" lon="9.09156742676134"><ele>459.0</ele><time>2026-04-04T11:25:25.001Z</time></trkpt><trkpt lat="40.91122182422278" lon="9.091720132900212"><ele>461.0</ele><time>2026-04-04T11:25:26.001Z</time></trkpt><trkpt lat="40.911262464240664" lon="9.091867633577357"><ele>463.0</ele><time>2026-04-04T11:25:27.001Z</time></trkpt><trkpt lat="40.911296138718384" lon="9.092014822101493"><ele>465.0</ele><time>2026-04-04T11:25:28.001Z</time></trkpt><trkpt lat="40.91135120352456" lon="9.09215867137262"><ele>465.0</ele><time>2026-04-04T11:25:29.001Z</time></trkpt><trkpt lat="40.9114217100299" lon="9.092293036638456"><ele>465.0</ele><time>2026-04-04T11:25:30.001Z</time></trkpt><trkpt lat="40.911499980704455" lon="9.092419708090695"><ele>465.0</ele><time>2026-04-04T11:25:31.001Z</time></trkpt><trkpt lat="40.911598665720575" lon="9.092507309646392"><ele>465.0</ele><time>2026-04-04T11:25:32.001Z</time></trkpt><trkpt lat="40.911703340771844" lon="9.092560847367892"><ele>466.33333333333337</ele><time>2026-04-04T11:25:33.001Z</time></trkpt><trkpt lat="40.911781939473116" lon="9.092569067593216"><ele>467.6666666666667</ele><time>2026-04-04T11:25:34.001Z</time></trkpt><trkpt lat="40.9118903331364" lon="9.092620403904954"><ele>469.0</ele><time>2026-04-04T11:25:36.001Z</time></trkpt><trkpt lat="40.91184637222635" lon="9.093056013635083"><ele>469.0</ele><time>2026-04-04T11:25:37.001Z</time></trkpt><trkpt lat="40.9118425697178" lon="9.093183207370558"><ele>469.0</ele><time>2026-04-04T11:25:38.001Z</time></trkpt><trkpt lat="40.9118340085893" lon="9.093309150538786"><ele>469.0</ele><time>2026-04-04T11:25:39.001Z</time></trkpt><trkpt lat="40.91182115799104" lon="9.093448493955439"><ele>469.0</ele><time>2026-04-04T11:25:40.001Z</time></trkpt><trkpt lat="40.911809685522" lon="9.09360753298619"><ele>469.0</ele><time>2026-04-04T11:25:41.001Z</time></trkpt><trkpt lat="40.911796750934066" lon="9.09377235925872"><ele>469.25</ele><time>2026-04-04T11:25:42.001Z</time></trkpt><trkpt lat="40.911802872631455" lon="9.093931130440993"><ele>469.5</ele><time>2026-04-04T11:25:43.001Z</time></trkpt><trkpt lat="40.91182123666736" lon="9.09409286368691"><ele>469.75</ele><time>2026-04-04T11:25:44.001Z</time></trkpt><trkpt lat="40.911853483358165" lon="9.094255031625572"><ele>470.0</ele><time>2026-04-04T11:25:45.001Z</time></trkpt><trkpt lat="40.91188705129899" lon="9.094417177403429"><ele>470.0</ele><time>2026-04-04T11:25:46.001Z</time></trkpt><trkpt lat="40.911922409324596" lon="9.094579380363092"><ele>470.0</ele><time>2026-04-04T11:25:47.001Z</time></trkpt><trkpt lat="40.91196187611217" lon="9.094741133716848"><ele>470.0</ele><time>2026-04-04T11:25:48.001Z</time></trkpt><trkpt lat="40.91200103193432" lon="9.094895848863418"><ele>470.0</ele><time>2026-04-04T11:25:49.001Z</time></trkpt><trkpt lat="40.91203856204629" lon="9.095038216072197"><ele>468.66666666666663</ele><time>2026-04-04T11:25:50.001Z</time></trkpt><trkpt lat="40.912074359113426" lon="9.095166986693936"><ele>467.3333333333333</ele><time>2026-04-04T11:25:51.001Z</time></trkpt><trkpt lat="40.91210578653689" lon="9.095279286386742"><ele>466.0</ele><time>2026-04-04T11:25:52.002Z</time></trkpt><trkpt lat="40.91213638984198" lon="9.095379658357716"><ele>464.66666666666663</ele><time>2026-04-04T11:25:53.002Z</time></trkpt><trkpt lat="40.91216797517763" lon="9.095478116328717"><ele>463.3333333333333</ele><time>2026-04-04T11:25:55.002Z</time></trkpt><trkpt lat="40.91207935382196" lon="9.09551202593445"><ele>462.0</ele><time>2026-04-04T11:25:59.002Z</time></trkpt><trkpt lat="40.91211146389805" lon="9.095623387203139"><ele>462.0</ele><time>2026-04-04T11:26:04Z</time></trkpt><trkpt lat="40.9121446077215" lon="9.09569702329281"><ele>462.0</ele><time>2026-04-04T11:26:05Z</time></trkpt><trkpt lat="40.9121678542381" lon="9.09580139722862"><ele>462.0</ele><time>2026-04-04T11:26:06Z</time></trkpt><trkpt lat="40.91218182342147" lon="9.095922476002315"><ele>462.0</ele><time>2026-04-04T11:26:07Z</time></trkpt><trkpt lat="40.91219454559109" lon="9.096044115114944"><ele>462.0</ele><time>2026-04-04T11:26:08Z</time></trkpt><trkpt lat="40.912198653912995" lon="9.09613094559006"><ele>462.0</ele><time>2026-04-04T11:26:09Z</time></trkpt><trkpt lat="40.91205899584967" lon="9.096210933318238"><ele>464.20000000000005</ele><time>2026-04-04T11:26:13Z</time></trkpt><trkpt lat="40.912000648835175" lon="9.096129214916708"><ele>466.40000000000003</ele><time>2026-04-04T11:26:14Z</time></trkpt><trkpt lat="40.91192038750951" lon="9.09611189510721"><ele>468.59999999999997</ele><time>2026-04-04T11:26:15Z</time></trkpt><trkpt lat="40.91180585380394" lon="9.096107368267527"><ele>470.79999999999995</ele><time>2026-04-04T11:26:16Z</time></trkpt><trkpt lat="40.91165928718159" lon="9.096055157179006"><ele>473.0</ele><time>2026-04-04T11:26:17Z</time></trkpt><trkpt lat="40.911514670414114" lon="9.096063058061944"><ele>474.5</ele><time>2026-04-04T11:26:18Z</time></trkpt><trkpt lat="40.91139396988826" lon="9.09607242299271"><ele>476.0</ele><time>2026-04-04T11:26:19Z</time></trkpt><trkpt lat="40.91130617239441" lon="9.096186503654684"><ele>477.5</ele><time>2026-04-04T11:26:20Z</time></trkpt><trkpt lat="40.911248119791274" lon="9.096313695189371"><ele>479.0</ele><time>2026-04-04T11:26:21Z</time></trkpt><trkpt lat="40.91120929769409" lon="9.096444385645183"><ele>479.0</ele><time>2026-04-04T11:26:22Z</time></trkpt><trkpt lat="40.91116861140198" lon="9.096567296035634"><ele>479.0</ele><time>2026-04-04T11:26:23Z</time></trkpt><trkpt lat="40.911121488137184" lon="9.096676464389255"><ele>479.0</ele><time>2026-04-04T11:26:24Z</time></trkpt><trkpt lat="40.9110619996721" lon="9.096769724664272"><ele>479.0</ele><time>2026-04-04T11:26:25Z</time></trkpt><trkpt lat="40.910990269469096" lon="9.096849023944579"><ele>479.0</ele><time>2026-04-04T11:26:26Z</time></trkpt><trkpt lat="40.91089013403273" lon="9.096863499731828"><ele>481.79999999999995</ele><time>2026-04-04T11:26:27Z</time></trkpt><trkpt lat="40.91079093034081" lon="9.096880861689627"><ele>484.59999999999997</ele><time>2026-04-04T11:26:28Z</time></trkpt><trkpt lat="40.91067377499582" lon="9.096890934706785"><ele>487.4</ele><time>2026-04-04T11:26:29.001Z</time></trkpt><trkpt lat="40.91055553896602" lon="9.09688516423498"><ele>490.2</ele><time>2026-04-04T11:26:30.001Z</time></trkpt><trkpt lat="40.910452497954736" lon="9.096837220009506"><ele>493.0</ele><time>2026-04-04T11:26:31.001Z</time></trkpt><trkpt lat="40.91035320360381" lon="9.096755272580724"><ele>493.0</ele><time>2026-04-04T11:26:32.001Z</time></trkpt><trkpt lat="40.91025994746109" lon="9.09664946354743"><ele>493.0</ele><time>2026-04-04T11:26:33.001Z</time></trkpt><trkpt lat="40.91016743783477" lon="9.096537386588924"><ele>493.0</ele><time>2026-04-04T11:26:34.001Z</time></trkpt><trkpt lat="40.910062698970016" lon="9.096434332265629"><ele>493.0</ele><time>2026-04-04T11:26:35.001Z</time></trkpt><trkpt lat="40.90994462543848" lon="9.096349608134535"><ele>493.5</ele><time>2026-04-04T11:26:36.001Z</time></trkpt><trkpt lat="40.90982296897218" lon="9.096262516148641"><ele>494.0</ele><time>2026-04-04T11:26:37.001Z</time></trkpt><trkpt lat="40.909703524948654" lon="9.096177485930507"><ele>494.5</ele><time>2026-04-04T11:26:38.001Z</time></trkpt><trkpt lat="40.909582337123666" lon="9.096091898686133"><ele>495.0</ele><time>2026-04-04T11:26:39.001Z</time></trkpt><trkpt lat="40.909448134630686" lon="9.096019442542646"><ele>495.0</ele><time>2026-04-04T11:26:40.001Z</time></trkpt><trkpt lat="40.909302670624385" lon="9.095979546116409"><ele>495.0</ele><time>2026-04-04T11:26:41.001Z</time></trkpt><trkpt lat="40.9091549843527" lon="9.095960773781337"><ele>495.0</ele><time>2026-04-04T11:26:42.001Z</time></trkpt><trkpt lat="40.90900949520136" lon="9.095942226733982"><ele>495.0</ele><time>2026-04-04T11:26:43.001Z</time></trkpt><trkpt lat="40.90886697095603" lon="9.095924021567848"><ele>496.75</ele><time>2026-04-04T11:26:44.001Z</time></trkpt><trkpt lat="40.90872125529041" lon="9.095905408750975"><ele>498.5</ele><time>2026-04-04T11:26:45.001Z</time></trkpt><trkpt lat="40.908575290509816" lon="9.095895843307272"><ele>500.25</ele><time>2026-04-04T11:26:46.001Z</time></trkpt><trkpt lat="40.90844412679742" lon="9.09591091397153"><ele>502.0</ele><time>2026-04-04T11:26:47.001Z</time></trkpt><trkpt lat="40.908325650873806" lon="9.09599545458106"><ele>503.5</ele><time>2026-04-04T11:26:48.001Z</time></trkpt><trkpt lat="40.90821454636731" lon="9.096065246837272"><ele>505.0</ele><time>2026-04-04T11:26:49.001Z</time></trkpt><trkpt lat="40.9081058262319" lon="9.096104056304105"><ele>506.5</ele><time>2026-04-04T11:26:50.001Z</time></trkpt><trkpt lat="40.90799293011284" lon="9.096115980940775"><ele>508.0</ele><time>2026-04-04T11:26:51.001Z</time></trkpt><trkpt lat="40.90788301756055" lon="9.096097844252089"><ele>508.0</ele><time>2026-04-04T11:26:52.001Z</time></trkpt><trkpt lat="40.9078003652246" lon="9.096017911175437"><ele>507.99999999999994</ele><time>2026-04-04T11:26:53.001Z</time></trkpt><trkpt lat="40.90773868513872" lon="9.095912269811425"><ele>507.99999999999994</ele><time>2026-04-04T11:26:54.001Z</time></trkpt><trkpt lat="40.90767129551377" lon="9.095796098736619"><ele>508.0</ele><time>2026-04-04T11:26:55.001Z</time></trkpt><trkpt lat="40.90758822608851" lon="9.095705209122368"><ele>508.0</ele><time>2026-04-04T11:26:56.001Z</time></trkpt><trkpt lat="40.90747752593267" lon="9.095652213266542"><ele>507.75</ele><time>2026-04-04T11:26:57.001Z</time></trkpt><trkpt lat="40.90736339772708" lon="9.095669224499924"><ele>507.5</ele><time>2026-04-04T11:26:58.001Z</time></trkpt><trkpt lat="40.907267908816465" lon="9.09579186100521"><ele>507.25</ele><time>2026-04-04T11:26:59.001Z</time></trkpt><trkpt lat="40.90718996518986" lon="9.095929327341022"><ele>507.0</ele><time>2026-04-04T11:27:00.001Z</time></trkpt><trkpt lat="40.90715472581199" lon="9.096119090211875"><ele>508.5</ele><time>2026-04-04T11:27:01.001Z</time></trkpt><trkpt lat="40.90715997772536" lon="9.096307572412574"><ele>510.0</ele><time>2026-04-04T11:27:02.001Z</time></trkpt><trkpt lat="40.907156774678924" lon="9.09650113986072"><ele>511.5</ele><time>2026-04-04T11:27:03.001Z</time></trkpt><trkpt lat="40.90713980936137" lon="9.096664972338838"><ele>513.0</ele><time>2026-04-04T11:27:04.001Z</time></trkpt><trkpt lat="40.907076114817215" lon="9.09678042177185"><ele>515.0</ele><time>2026-04-04T11:27:05.001Z</time></trkpt><trkpt lat="40.90698747098604" lon="9.096822417453783"><ele>517.0</ele><time>2026-04-04T11:27:06.001Z</time></trkpt><trkpt lat="40.9068889674824" lon="9.096833715048504"><ele>519.0</ele><time>2026-04-04T11:27:07.001Z</time></trkpt><trkpt lat="40.90676934884132" lon="9.096842843363055"><ele>521.0</ele><time>2026-04-04T11:27:08.001Z</time></trkpt><trkpt lat="40.90664584454894" lon="9.096810249578256"><ele>523.0</ele><time>2026-04-04T11:27:09.001Z</time></trkpt><trkpt lat="40.90651110163732" lon="9.096759345577016"><ele>523.5</ele><time>2026-04-04T11:27:10.001Z</time></trkpt><trkpt lat="40.906393025986965" lon="9.096721458445936"><ele>524.0</ele><time>2026-04-04T11:27:11.001Z</time></trkpt><trkpt lat="40.90627151567996" lon="9.09671674337203"><ele>524.5</ele><time>2026-04-04T11:27:12.001Z</time></trkpt><trkpt lat="40.906159004311824" lon="9.096804137726396"><ele>525.0</ele><time>2026-04-04T11:27:13.001Z</time></trkpt><trkpt lat="40.906073057375544" lon="9.096931761467586"><ele>525.0</ele><time>2026-04-04T11:27:14.001Z</time></trkpt><trkpt lat="40.90601335955265" lon="9.097122010275557"><ele>525.0</ele><time>2026-04-04T11:27:15.001Z</time></trkpt><trkpt lat="40.90592999737138" lon="9.097288861137146"><ele>525.0</ele><time>2026-04-04T11:27:16.001Z</time></trkpt><trkpt lat="40.90585043744954" lon="9.09744689929965"><ele>526.5</ele><time>2026-04-04T11:27:17.001Z</time></trkpt><trkpt lat="40.90577058483259" lon="9.097605518891196"><ele>528.0</ele><time>2026-04-04T11:27:18.001Z</time></trkpt><trkpt lat="40.905692105146336" lon="9.097761411293263"><ele>529.5</ele><time>2026-04-04T11:27:19.001Z</time></trkpt><trkpt lat="40.90561366825177" lon="9.097917218437395"><ele>531.0</ele><time>2026-04-04T11:27:20.001Z</time></trkpt><trkpt lat="40.90554025872201" lon="9.098076087819363"><ele>531.0</ele><time>2026-04-04T11:27:21.001Z</time></trkpt><trkpt lat="40.90550281561529" lon="9.098244441837892"><ele>531.0</ele><time>2026-04-04T11:27:22.001Z</time></trkpt><trkpt lat="40.90550158414434" lon="9.098417346854283"><ele>531.0</ele><time>2026-04-04T11:27:23.001Z</time></trkpt><trkpt lat="40.905490951317645" lon="9.098582123665516"><ele>531.0</ele><time>2026-04-04T11:27:24.001Z</time></trkpt><trkpt lat="40.90548716479629" lon="9.098746852575383"><ele>532.4</ele><time>2026-04-04T11:27:25.001Z</time></trkpt><trkpt lat="40.90546631692765" lon="9.09889935165173"><ele>533.8</ele><time>2026-04-04T11:27:26.001Z</time></trkpt><trkpt lat="40.90546146105054" lon="9.099051314502011"><ele>535.1999999999999</ele><time>2026-04-04T11:27:27.001Z</time></trkpt><trkpt lat="40.905478835715336" lon="9.099192042374753"><ele>536.6</ele><time>2026-04-04T11:27:28.001Z</time></trkpt><trkpt lat="40.90547933759585" lon="9.099314278630628"><ele>538.0</ele><time>2026-04-04T11:27:29.001Z</time></trkpt><trkpt lat="40.90547448631184" lon="9.09942617166057"><ele>538.6666666666667</ele><time>2026-04-04T11:27:30.001Z</time></trkpt><trkpt lat="40.90546551615322" lon="9.099521623063994"><ele>539.3333333333334</ele><time>2026-04-04T11:27:31.001Z</time></trkpt><trkpt lat="40.90543379278844" lon="9.099599371646113"><ele>540.0</ele><time>2026-04-04T11:27:32.001Z</time></trkpt><trkpt lat="40.905432759007645" lon="9.099715534418982"><ele>540.6666666666666</ele><time>2026-04-04T11:27:34.001Z</time></trkpt><trkpt lat="40.90541701999942" lon="9.099830133922447"><ele>541.3333333333333</ele><time>2026-04-04T11:27:37.001Z</time></trkpt><trkpt lat="40.905379030737066" lon="9.099914954936295"><ele>542.0</ele><time>2026-04-04T11:27:39.001Z</time></trkpt><trkpt lat="40.90530573224926" lon="9.100024386340564"><ele>543.0</ele><time>2026-04-04T11:27:41.001Z</time></trkpt><trkpt lat="40.90533552770776" lon="9.100168391144788"><ele>544.0</ele><time>2026-04-04T11:27:43.001Z</time></trkpt><trkpt lat="40.90540762749825" lon="9.10020044092763"><ele>545.0</ele><time>2026-04-04T11:27:45.001Z</time></trkpt><trkpt lat="40.90543362420345" lon="9.100291697061062"><ele>546.0</ele><time>2026-04-04T11:27:46.001Z</time></trkpt><trkpt lat="40.905532740283526" lon="9.100482830190028"><ele>547.0</ele><time>2026-04-04T11:31:41.001Z</time></trkpt><trkpt lat="40.905594207952404" lon="9.100552807120728"><ele>547.0</ele><time>2026-04-04T11:31:42.001Z</time></trkpt><trkpt lat="40.90565735283703" lon="9.100643950863047"><ele>547.0</ele><time>2026-04-04T11:31:43.001Z</time></trkpt><trkpt lat="40.905726744614356" lon="9.100753125346918"><ele>547.0</ele><time>2026-04-04T11:31:44.001Z</time></trkpt><trkpt lat="40.905801205968245" lon="9.100867116948338"><ele>547.0</ele><time>2026-04-04T11:31:45.001Z</time></trkpt><trkpt lat="40.905877236173396" lon="9.100983931513664"><ele>547.0</ele><time>2026-04-04T11:31:46.001Z</time></trkpt><trkpt lat="40.9059495577143" lon="9.101108050000926"><ele>546.4</ele><time>2026-04-04T11:31:47.001Z</time></trkpt><trkpt lat="40.90601611170357" lon="9.101231403966109"><ele>545.8000000000001</ele><time>2026-04-04T11:31:48.001Z</time></trkpt><trkpt lat="40.9060814452192" lon="9.101344167293734"><ele>545.2</ele><time>2026-04-04T11:31:49.001Z</time></trkpt><trkpt lat="40.906134195474486" lon="9.101456612764277"><ele>544.6</ele><time>2026-04-04T11:31:50.001Z</time></trkpt><trkpt lat="40.90616009265041" lon="9.101563359188612"><ele>544.0</ele><time>2026-04-04T11:31:51.001Z</time></trkpt><trkpt lat="40.90616870666872" lon="9.101678061786243"><ele>544.0</ele><time>2026-04-04T11:31:52.001Z</time></trkpt><trkpt lat="40.906154468770026" lon="9.101784909743044"><ele>544.0</ele><time>2026-04-04T11:31:53.001Z</time></trkpt><trkpt lat="40.90612532221793" lon="9.101897608490095"><ele>544.0</ele><time>2026-04-04T11:31:54.001Z</time></trkpt><trkpt lat="40.90608426452002" lon="9.102018301070064"><ele>544.0</ele><time>2026-04-04T11:31:55.001Z</time></trkpt><trkpt lat="40.90604562952285" lon="9.102141612008449"><ele>544.0</ele><time>2026-04-04T11:31:56.001Z</time></trkpt><trkpt lat="40.90601616117458" lon="9.102271209903932"><ele>544.0</ele><time>2026-04-04T11:31:57.001Z</time></trkpt><trkpt lat="40.90599847200304" lon="9.10240241524676"><ele>544.0</ele><time>2026-04-04T11:31:58.001Z</time></trkpt><trkpt lat="40.90599043390824" lon="9.102534597270433"><ele>544.0</ele><time>2026-04-04T11:31:59.001Z</time></trkpt><trkpt lat="40.90598955285265" lon="9.102667815599617"><ele>544.0</ele><time>2026-04-04T11:32:00.001Z</time></trkpt><trkpt lat="40.9059959179005" lon="9.102798969945777"><ele>544.0</ele><time>2026-04-04T11:32:01.001Z</time></trkpt><trkpt lat="40.90599759005991" lon="9.102928986755"><ele>544.1666666666667</ele><time>2026-04-04T11:32:02.001Z</time></trkpt><trkpt lat="40.905991133782756" lon="9.103056977725142"><ele>544.3333333333334</ele><time>2026-04-04T11:32:03.001Z</time></trkpt><trkpt lat="40.90597269878241" lon="9.103165728035929"><ele>544.5</ele><time>2026-04-04T11:32:04.001Z</time></trkpt><trkpt lat="40.90593691244351" lon="9.103256501317007"><ele>544.6666666666666</ele><time>2026-04-04T11:32:05.001Z</time></trkpt><trkpt lat="40.905888997144935" lon="9.103339503601672"><ele>544.8333333333333</ele><time>2026-04-04T11:32:06.001Z</time></trkpt><trkpt lat="40.90581609507374" lon="9.103391217790435"><ele>545.0</ele><time>2026-04-04T11:32:07.001Z</time></trkpt><trkpt lat="40.90573864009956" lon="9.103438713604916"><ele>546.8</ele><time>2026-04-04T11:32:08.001Z</time></trkpt><trkpt lat="40.905659335552656" lon="9.103476178149235"><ele>548.6</ele><time>2026-04-04T11:32:09.001Z</time></trkpt><trkpt lat="40.90558887982612" lon="9.103507787483107"><ele>550.4</ele><time>2026-04-04T11:32:10.001Z</time></trkpt><trkpt lat="40.90552493286547" lon="9.103536447742181"><ele>552.2</ele><time>2026-04-04T11:32:11.001Z</time></trkpt><trkpt lat="40.9054330632019" lon="9.103577622880188"><ele>554.0</ele><time>2026-04-04T11:32:13.002Z</time></trkpt><trkpt lat="40.90545830313563" lon="9.10377649611277"><ele>554.0</ele><time>2026-04-04T11:32:51.001Z</time></trkpt><trkpt lat="40.90536657497208" lon="9.10375488109926"><ele>554.0</ele><time>2026-04-04T11:33:45.001Z</time></trkpt><trkpt lat="40.9053082348336" lon="9.103702723098648"><ele>554.0</ele><time>2026-04-04T11:33:50.001Z</time></trkpt><trkpt lat="40.90524677390587" lon="9.103684638586008"><ele>554.0</ele><time>2026-04-04T11:34:09.001Z</time></trkpt><trkpt lat="40.905312199208915" lon="9.103692701916929"><ele>554.0</ele><time>2026-04-04T11:34:24Z</time></trkpt><trkpt lat="40.905213540086685" lon="9.103714213307686"><ele>554.0</ele><time>2026-04-04T11:36:01.001Z</time></trkpt><trkpt lat="40.90514352855547" lon="9.103772540557554"><ele>554.75</ele><time>2026-04-04T11:36:02.001Z</time></trkpt><trkpt lat="40.90505507203023" lon="9.103852689162828"><ele>555.5</ele><time>2026-04-04T11:36:03.001Z</time></trkpt><trkpt lat="40.90494494623066" lon="9.1038947721829"><ele>556.25</ele><time>2026-04-04T11:36:04.001Z</time></trkpt><trkpt lat="40.90489375633182" lon="9.104060770944553"><ele>557.0</ele><time>2026-04-04T11:36:05.001Z</time></trkpt><trkpt lat="40.904836828307225" lon="9.104200006375454"><ele>557.0</ele><time>2026-04-04T11:36:06.001Z</time></trkpt><trkpt lat="40.90477449445107" lon="9.10435145717269"><ele>557.0</ele><time>2026-04-04T11:36:07.001Z</time></trkpt><trkpt lat="40.90470875295838" lon="9.104510320432583"><ele>557.0</ele><time>2026-04-04T11:36:08.001Z</time></trkpt><trkpt lat="40.90465599587056" lon="9.104649991371982"><ele>557.0</ele><time>2026-04-04T11:36:09.001Z</time></trkpt><trkpt lat="40.904617458095025" lon="9.104777600333362"><ele>557.0</ele><time>2026-04-04T11:36:10.001Z</time></trkpt><trkpt lat="40.904603126742124" lon="9.104913482655189"><ele>557.0</ele><time>2026-04-04T11:36:11.001Z</time></trkpt><trkpt lat="40.904627352670175" lon="9.105041219565642"><ele>557.0</ele><time>2026-04-04T11:36:12.001Z</time></trkpt><trkpt lat="40.904661665989174" lon="9.10515844127488"><ele>557.0</ele><time>2026-04-04T11:36:13.001Z</time></trkpt><trkpt lat="40.90468226593982" lon="9.105276462753825"><ele>557.0</ele><time>2026-04-04T11:36:14.001Z</time></trkpt><trkpt lat="40.90470953816467" lon="9.105376889985749"><ele>557.0</ele><time>2026-04-04T11:36:15.001Z</time></trkpt><trkpt lat="40.904731007330156" lon="9.105462724687404"><ele>557.0</ele><time>2026-04-04T11:36:16.001Z</time></trkpt><trkpt lat="40.90474469280833" lon="9.105548933924068"><ele>557.0</ele><time>2026-04-04T11:36:17.002Z</time></trkpt><trkpt lat="40.9047765728556" lon="9.105643733586103"><ele>557.0</ele><time>2026-04-04T11:36:18.002Z</time></trkpt><trkpt lat="40.904773437918955" lon="9.105802041516199"><ele>557.0</ele><time>2026-04-04T11:36:20.002Z</time></trkpt><trkpt lat="40.90474056015309" lon="9.105934260845265"><ele>557.0</ele><time>2026-04-04T11:36:22.002Z</time></trkpt><trkpt lat="40.90473562089401" lon="9.1060446673329"><ele>557.5</ele><time>2026-04-04T11:36:24.002Z</time></trkpt><trkpt lat="40.904735785473186" lon="9.106138572109115"><ele>558.0</ele><time>2026-04-04T11:36:32Z</time></trkpt><trkpt lat="40.90473362530452" lon="9.106267390051942"><ele>558.5</ele><time>2026-04-04T11:38:25.002Z</time></trkpt><trkpt lat="40.904692784489356" lon="9.106341350046774"><ele>559.0</ele><time>2026-04-04T11:38:27.002Z</time></trkpt><trkpt lat="40.90470183820979" lon="9.106435279335537"><ele>559.5</ele><time>2026-04-04T11:38:44Z</time></trkpt><trkpt lat="40.90471013550766" lon="9.106528856455903"><ele>560.0</ele><time>2026-04-04T11:38:46Z</time></trkpt><trkpt lat="40.904699656001746" lon="9.106636413569806"><ele>560.0</ele><time>2026-04-04T11:38:48Z</time></trkpt><trkpt lat="40.90466257583237" lon="9.106719489420103"><ele>560.0</ele><time>2026-04-04T11:38:51Z</time></trkpt><trkpt lat="40.90460877690809" lon="9.10678688353286"><ele>560.0</ele><time>2026-04-04T11:41:09.001Z</time></trkpt><trkpt lat="40.90457599707661" lon="9.106713132673665"><ele>560.0</ele><time>2026-04-04T11:41:29.001Z</time></trkpt><trkpt lat="40.904635853751365" lon="9.106636817076595"><ele>560.0</ele><time>2026-04-04T11:41:44.001Z</time></trkpt><trkpt lat="40.90462733407143" lon="9.106539919700445"><ele>560.0</ele><time>2026-04-04T11:42:08.001Z</time></trkpt><trkpt lat="40.904576724265944" lon="9.106464448456995"><ele>560.0</ele><time>2026-04-04T11:42:24.001Z</time></trkpt><trkpt lat="40.90460496667954" lon="9.106385674890479"><ele>560.0</ele><time>2026-04-04T11:42:27.001Z</time></trkpt><trkpt lat="40.90462719356189" lon="9.106279125347163"><ele>560.0</ele><time>2026-04-04T11:42:29.001Z</time></trkpt><trkpt lat="40.904677660017384" lon="9.106211430255907"><ele>560.0</ele><time>2026-04-04T11:42:31.001Z</time></trkpt><trkpt lat="40.90457841993249" lon="9.106345051423672"><ele>560.0</ele><time>2026-04-04T11:42:53Z</time></trkpt><trkpt lat="40.90453714454567" lon="9.106420747373269"><ele>560.0</ele><time>2026-04-04T11:48:04.001Z</time></trkpt><trkpt lat="40.904594129824495" lon="9.10646759940197"><ele>560.0</ele><time>2026-04-04T11:49:05Z</time></trkpt><trkpt lat="40.90458595905778" lon="9.106557972352984"><ele>560.0</ele><time>2026-04-04T11:49:13Z</time></trkpt><trkpt lat="40.904621485774086" lon="9.106640653221085"><ele>560.0</ele><time>2026-04-04T11:49:19Z</time></trkpt><trkpt lat="40.90464477898548" lon="9.106741281786547"><ele>560.0</ele><time>2026-04-04T11:49:23Z</time></trkpt><trkpt lat="40.90456432390603" lon="9.106670056885982"><ele>560.0</ele><time>2026-04-04T11:50:19.034Z</time></trkpt><trkpt lat="40.90459719335458" lon="9.106749770152408"><ele>560.0</ele><time>2026-04-04T11:50:43.001Z</time></trkpt><trkpt lat="40.904614935771896" lon="9.106830556239956"><ele>560.0</ele><time>2026-04-04T11:52:35.001Z</time></trkpt><trkpt lat="40.90458261670725" lon="9.10675521901202"><ele>560.0</ele><time>2026-04-04T11:54:02.001Z</time></trkpt><trkpt lat="40.90463017195758" lon="9.106810953427615"><ele>560.0</ele><time>2026-04-04T11:56:40.001Z</time></trkpt><trkpt lat="40.904575501434955" lon="9.106744631260664"><ele>560.0</ele><time>2026-04-04T12:08:08Z</time></trkpt><trkpt lat="40.904612345489554" lon="9.106676559239018"><ele>560.0</ele><time>2026-04-04T12:08:32.001Z</time></trkpt><trkpt lat="40.90466399531556" lon="9.10662578880399"><ele>560.0</ele><time>2026-04-04T12:08:39.001Z</time></trkpt><trkpt lat="40.90467110364737" lon="9.106540177202039"><ele>560.0</ele><time>2026-04-04T12:08:45.001Z</time></trkpt><trkpt lat="40.904714327255235" lon="9.106469830249255"><ele>560.0</ele><time>2026-04-04T12:08:51.001Z</time></trkpt><trkpt lat="40.90471441340442" lon="9.106378620613793"><ele>560.0</ele><time>2026-04-04T12:08:58.001Z</time></trkpt><trkpt lat="40.90472004522681" lon="9.106279185706521"><ele>560.0</ele><time>2026-04-04T12:09:08.001Z</time></trkpt><trkpt lat="40.904738709409095" lon="9.106193861184588"><ele>560.0</ele><time>2026-04-04T12:09:16.001Z</time></trkpt><trkpt lat="40.90471360944975" lon="9.106270900235577"><ele>560.0</ele><time>2026-04-04T12:13:29.004Z</time></trkpt><trkpt lat="40.9047127007259" lon="9.106365685707212"><ele>560.0</ele><time>2026-04-04T12:13:41Z</time></trkpt><trkpt lat="40.90469912920198" lon="9.106456323942838"><ele>560.0</ele><time>2026-04-04T12:13:48Z</time></trkpt><trkpt lat="40.904677950901004" lon="9.106539034281521"><ele>560.0</ele><time>2026-04-04T12:13:57Z</time></trkpt><trkpt lat="40.904661260529885" lon="9.106626615750134"><ele>560.0</ele><time>2026-04-04T12:14:05.001Z</time></trkpt><trkpt lat="40.90460392917585" lon="9.10667794087114"><ele>560.0</ele><time>2026-04-04T12:14:13.001Z</time></trkpt><trkpt lat="40.90460261208855" lon="9.10676352186278"><ele>560.0</ele><time>2026-04-04T12:14:40.001Z</time></trkpt><trkpt lat="40.904540088696926" lon="9.106726834249157"><ele>560.0</ele><time>2026-04-04T12:18:29.001Z</time></trkpt><trkpt lat="40.9044796448034" lon="9.106700636159601"><ele>560.0</ele><time>2026-04-04T12:18:36.001Z</time></trkpt><trkpt lat="40.90444208700105" lon="9.106624377572349"><ele>560.0</ele><time>2026-04-04T12:18:44.001Z</time></trkpt><trkpt lat="40.90448957734655" lon="9.106686099846312"><ele>560.0</ele><time>2026-04-04T12:19:00.001Z</time></trkpt><trkpt lat="40.904551166328254" lon="9.106706609611743"><ele>560.0</ele><time>2026-04-04T12:19:08.001Z</time></trkpt><trkpt lat="40.90460138816522" lon="9.106656029220055"><ele>560.0</ele><time>2026-04-04T12:22:11Z</time></trkpt><trkpt lat="40.90464537171877" lon="9.106726378215308"><ele>560.0</ele><time>2026-04-04T12:22:14Z</time></trkpt><trkpt lat="40.90462948958421" lon="9.10681557701888"><ele>560.0</ele><time>2026-04-04T12:22:19Z</time></trkpt><trkpt lat="40.90459989152464" lon="9.106897228145629"><ele>560.0</ele><time>2026-04-04T12:22:24Z</time></trkpt><trkpt lat="40.904569166924325" lon="9.106977041746791"><ele>560.0</ele><time>2026-04-04T12:22:32Z</time></trkpt><trkpt lat="40.90452798943729" lon="9.107049074603102"><ele>560.0</ele><time>2026-04-04T12:22:37.001Z</time></trkpt><trkpt lat="40.904480721720205" lon="9.107128792979081"><ele>560.0</ele><time>2026-04-04T12:22:45.001Z</time></trkpt><trkpt lat="40.90442736881134" lon="9.107180372890193"><ele>560.0</ele><time>2026-04-04T12:22:47.001Z</time></trkpt><trkpt lat="40.90436432887105" lon="9.107225691007233"><ele>560.0</ele><time>2026-04-04T12:22:49.001Z</time></trkpt><trkpt lat="40.904267218984714" lon="9.107268668570491"><ele>560.0</ele><time>2026-04-04T12:22:51.001Z</time></trkpt><trkpt lat="40.904193101637745" lon="9.10725662572867"><ele>560.0</ele><time>2026-04-04T12:22:52.001Z</time></trkpt><trkpt lat="40.90411148083804" lon="9.10722810226408"><ele>560.0</ele><time>2026-04-04T12:22:53.001Z</time></trkpt><trkpt lat="40.90402750457633" lon="9.107184251447283"><ele>560.0</ele><time>2026-04-04T12:22:54.001Z</time></trkpt><trkpt lat="40.90394591149211" lon="9.107142583772625"><ele>560.1666666666666</ele><time>2026-04-04T12:22:55.001Z</time></trkpt><trkpt lat="40.903876648393826" lon="9.107101814997062"><ele>560.3333333333333</ele><time>2026-04-04T12:22:56.001Z</time></trkpt><trkpt lat="40.903814570890695" lon="9.107060587961985"><ele>560.5</ele><time>2026-04-04T12:22:57.001Z</time></trkpt><trkpt lat="40.90375666562355" lon="9.107023119523845"><ele>560.6666666666666</ele><time>2026-04-04T12:22:58.001Z</time></trkpt><trkpt lat="40.903645904532645" lon="9.106973861085457"><ele>560.8333333333334</ele><time>2026-04-04T12:23:00.001Z</time></trkpt><trkpt lat="40.90356287320941" lon="9.106946161595753"><ele>561.0</ele><time>2026-04-04T12:23:16.001Z</time></trkpt><trkpt lat="40.90343205001699" lon="9.106931332150127"><ele>560.25</ele><time>2026-04-04T12:23:18.001Z</time></trkpt><trkpt lat="40.90332787815548" lon="9.106915309871104"><ele>559.5</ele><time>2026-04-04T12:23:19.001Z</time></trkpt><trkpt lat="40.90320129206437" lon="9.106886621664833"><ele>558.75</ele><time>2026-04-04T12:23:20.001Z</time></trkpt><trkpt lat="40.903064300176275" lon="9.106840506601783"><ele>558.0</ele><time>2026-04-04T12:23:21.001Z</time></trkpt><trkpt lat="40.90295438376252" lon="9.106769139763221"><ele>558.0</ele><time>2026-04-04T12:23:22.001Z</time></trkpt><trkpt lat="40.90288823224713" lon="9.106654294897073"><ele>558.0</ele><time>2026-04-04T12:23:23.001Z</time></trkpt><trkpt lat="40.90283158667078" lon="9.10653213742527"><ele>558.0</ele><time>2026-04-04T12:23:24.001Z</time></trkpt><trkpt lat="40.9027941174556" lon="9.106376359213893"><ele>558.0</ele><time>2026-04-04T12:23:25.001Z</time></trkpt><trkpt lat="40.90274171872524" lon="9.106222489756798"><ele>557.1999999999999</ele><time>2026-04-04T12:23:26.001Z</time></trkpt><trkpt lat="40.902708428740176" lon="9.106088063164552"><ele>556.4</ele><time>2026-04-04T12:23:27.001Z</time></trkpt><trkpt lat="40.90264986666412" lon="9.105983874078369"><ele>555.5999999999999</ele><time>2026-04-04T12:23:28.001Z</time></trkpt><trkpt lat="40.90257215444496" lon="9.105895668308925"><ele>554.8</ele><time>2026-04-04T12:23:29.001Z</time></trkpt><trkpt lat="40.90248862949432" lon="9.10581486119033"><ele>554.0</ele><time>2026-04-04T12:23:30.001Z</time></trkpt><trkpt lat="40.902363813960775" lon="9.10585258014094"><ele>554.0</ele><time>2026-04-04T12:23:31.001Z</time></trkpt><trkpt lat="40.902255217478306" lon="9.105888092701763"><ele>554.0</ele><time>2026-04-04T12:23:32.001Z</time></trkpt><trkpt lat="40.90214174468864" lon="9.105929211966048"><ele>554.0</ele><time>2026-04-04T12:23:33.001Z</time></trkpt><trkpt lat="40.902044931117985" lon="9.106040941434705"><ele>554.0</ele><time>2026-04-04T12:23:34.001Z</time></trkpt><trkpt lat="40.901950887086876" lon="9.106158005990771"><ele>554.0</ele><time>2026-04-04T12:23:35.001Z</time></trkpt><trkpt lat="40.90186379226768" lon="9.106290544528504"><ele>554.0</ele><time>2026-04-04T12:23:36.001Z</time></trkpt><trkpt lat="40.9017931688996" lon="9.10643770122312"><ele>554.0</ele><time>2026-04-04T12:23:37.001Z</time></trkpt><trkpt lat="40.90173979906003" lon="9.106574854432123"><ele>554.0</ele><time>2026-04-04T12:23:38.001Z</time></trkpt><trkpt lat="40.901702554483876" lon="9.10670717186735"><ele>553.25</ele><time>2026-04-04T12:23:39.001Z</time></trkpt><trkpt lat="40.90168249103039" lon="9.10685374107433"><ele>552.5</ele><time>2026-04-04T12:23:40.001Z</time></trkpt><trkpt lat="40.90167364895611" lon="9.107018238902853"><ele>551.75</ele><time>2026-04-04T12:23:41.001Z</time></trkpt><trkpt lat="40.901670456680506" lon="9.107184060537682"><ele>551.0</ele><time>2026-04-04T12:23:42.001Z</time></trkpt><trkpt lat="40.90168429535651" lon="9.107349678829"><ele>549.75</ele><time>2026-04-04T12:23:43.001Z</time></trkpt><trkpt lat="40.90170641251461" lon="9.107508101103512"><ele>548.5</ele><time>2026-04-04T12:23:44.001Z</time></trkpt><trkpt lat="40.90173556793705" lon="9.107661001301926"><ele>547.25</ele><time>2026-04-04T12:23:45.001Z</time></trkpt><trkpt lat="40.90176564737697" lon="9.10780774879512"><ele>546.0</ele><time>2026-04-04T12:23:46.001Z</time></trkpt><trkpt lat="40.90179389928437" lon="9.107948764800843"><ele>544.4</ele><time>2026-04-04T12:23:47.001Z</time></trkpt><trkpt lat="40.90182339337068" lon="9.108088701823545"><ele>542.8</ele><time>2026-04-04T12:23:48.001Z</time></trkpt><trkpt lat="40.901859012406156" lon="9.108225543134923"><ele>541.1999999999999</ele><time>2026-04-04T12:23:49.001Z</time></trkpt><trkpt lat="40.90189523673778" lon="9.108361249558206"><ele>539.6</ele><time>2026-04-04T12:23:50.001Z</time></trkpt><trkpt lat="40.90193551688114" lon="9.10849504867789"><ele>538.0</ele><time>2026-04-04T12:23:51.001Z</time></trkpt><trkpt lat="40.901985489557525" lon="9.10862155800079"><ele>537.0</ele><time>2026-04-04T12:23:52.001Z</time></trkpt><trkpt lat="40.902042793583156" lon="9.108743686889103"><ele>536.0</ele><time>2026-04-04T12:23:53.001Z</time></trkpt><trkpt lat="40.90209960539972" lon="9.108862965494358"><ele>535.0</ele><time>2026-04-04T12:23:54.001Z</time></trkpt><trkpt lat="40.90215808825682" lon="9.108981481740686"><ele>534.0</ele><time>2026-04-04T12:23:55.001Z</time></trkpt><trkpt lat="40.90222092969051" lon="9.109094256472153"><ele>533.0</ele><time>2026-04-04T12:23:56.001Z</time></trkpt><trkpt lat="40.90228790505074" lon="9.109202217733928"><ele>533.0</ele><time>2026-04-04T12:23:57.001Z</time></trkpt><trkpt lat="40.90235910253184" lon="9.109309515538316"><ele>533.0</ele><time>2026-04-04T12:23:58.001Z</time></trkpt><trkpt lat="40.902438442289444" lon="9.109411331618118"><ele>533.0</ele><time>2026-04-04T12:23:59.001Z</time></trkpt><trkpt lat="40.902524296241" lon="9.109511559446483"><ele>533.0</ele><time>2026-04-04T12:24:00.001Z</time></trkpt><trkpt lat="40.902611885952375" lon="9.109611421507532"><ele>533.0</ele><time>2026-04-04T12:24:01.001Z</time></trkpt><trkpt lat="40.90269976018003" lon="9.109712504092412"><ele>530.5</ele><time>2026-04-04T12:24:02Z</time></trkpt><trkpt lat="40.90278692877636" lon="9.109812906839204"><ele>528.0</ele><time>2026-04-04T12:24:03Z</time></trkpt><trkpt lat="40.90287863943325" lon="9.109906378884332"><ele>525.5</ele><time>2026-04-04T12:24:04Z</time></trkpt><trkpt lat="40.90297323699005" lon="9.109997651431295"><ele>523.0</ele><time>2026-04-04T12:24:05Z</time></trkpt><trkpt lat="40.90306912236555" lon="9.11008104459544"><ele>523.0</ele><time>2026-04-04T12:24:06Z</time></trkpt><trkpt lat="40.903166460767665" lon="9.110159861011358"><ele>523.0</ele><time>2026-04-04T12:24:07Z</time></trkpt><trkpt lat="40.90326451528838" lon="9.110238107484623"><ele>523.0</ele><time>2026-04-04T12:24:08Z</time></trkpt><trkpt lat="40.903363492754124" lon="9.110310569543339"><ele>523.0</ele><time>2026-04-04T12:24:09Z</time></trkpt><trkpt lat="40.903464029736895" lon="9.11037762760618"><ele>522.1999999999999</ele><time>2026-04-04T12:24:10Z</time></trkpt><trkpt lat="40.9035625643987" lon="9.110447491892058"><ele>521.4</ele><time>2026-04-04T12:24:11Z</time></trkpt><trkpt lat="40.9036450961872" lon="9.110530147983798"><ele>520.5999999999999</ele><time>2026-04-04T12:24:12Z</time></trkpt><trkpt lat="40.90371129546775" lon="9.110628561754233"><ele>519.8</ele><time>2026-04-04T12:24:13Z</time></trkpt><trkpt lat="40.90376396837594" lon="9.11074288510866"><ele>519.0</ele><time>2026-04-04T12:24:14Z</time></trkpt><trkpt lat="40.90380601216873" lon="9.110874793053162"><ele>518.8</ele><time>2026-04-04T12:24:15Z</time></trkpt><trkpt lat="40.90384183629427" lon="9.111012219246868"><ele>518.5999999999999</ele><time>2026-04-04T12:24:16Z</time></trkpt><trkpt lat="40.90387495284356" lon="9.111154793213586"><ele>518.4</ele><time>2026-04-04T12:24:17Z</time></trkpt><trkpt lat="40.90390958185121" lon="9.111296978026592"><ele>518.1999999999999</ele><time>2026-04-04T12:24:18Z</time></trkpt><trkpt lat="40.903942733330446" lon="9.111432003982365"><ele>518.0</ele><time>2026-04-04T12:24:19Z</time></trkpt><trkpt lat="40.90397581572541" lon="9.111559068388106"><ele>517.0</ele><time>2026-04-04T12:24:20Z</time></trkpt><trkpt lat="40.90400645388124" lon="9.111684476543068"><ele>516.0</ele><time>2026-04-04T12:24:21Z</time></trkpt><trkpt lat="40.904033260533744" lon="9.111812829561375"><ele>515.0</ele><time>2026-04-04T12:24:22Z</time></trkpt><trkpt lat="40.904063790408124" lon="9.111942019281473"><ele>514.0</ele><time>2026-04-04T12:24:23Z</time></trkpt><trkpt lat="40.90409529201381" lon="9.11207136689107"><ele>513.0</ele><time>2026-04-04T12:24:24Z</time></trkpt><trkpt lat="40.904124467462374" lon="9.11220471045378"><ele>513.0</ele><time>2026-04-04T12:24:25Z</time></trkpt><trkpt lat="40.904154304749724" lon="9.112342368061228"><ele>513.0</ele><time>2026-04-04T12:24:26Z</time></trkpt><trkpt lat="40.90418765408339" lon="9.112483632985414"><ele>513.0</ele><time>2026-04-04T12:24:27Z</time></trkpt><trkpt lat="40.90422423934711" lon="9.112628310797051"><ele>513.0</ele><time>2026-04-04T12:24:28Z</time></trkpt><trkpt lat="40.90426515262197" lon="9.112774625542581"><ele>511.0</ele><time>2026-04-04T12:24:29Z</time></trkpt><trkpt lat="40.904310992541916" lon="9.112921668425086"><ele>509.0</ele><time>2026-04-04T12:24:30Z</time></trkpt><trkpt lat="40.90436033203426" lon="9.113069177845992"><ele>507.0</ele><time>2026-04-04T12:24:31Z</time></trkpt><trkpt lat="40.90441356549998" lon="9.113209378831408"><ele>505.0</ele><time>2026-04-04T12:24:32Z</time></trkpt><trkpt lat="40.90447083095775" lon="9.113352867868496"><ele>503.5</ele><time>2026-04-04T12:24:33Z</time></trkpt><trkpt lat="40.90452998602484" lon="9.113496628049576"><ele>502.0</ele><time>2026-04-04T12:24:34Z</time></trkpt><trkpt lat="40.90459691093688" lon="9.113634494497122"><ele>500.5</ele><time>2026-04-04T12:24:35Z</time></trkpt><trkpt lat="40.904666262200244" lon="9.113767144320468"><ele>499.0</ele><time>2026-04-04T12:24:36Z</time></trkpt><trkpt lat="40.90473718932189" lon="9.113895351008695"><ele>499.0</ele><time>2026-04-04T12:24:37Z</time></trkpt><trkpt lat="40.90480759545079" lon="9.114021060737862"><ele>499.0</ele><time>2026-04-04T12:24:38Z</time></trkpt><trkpt lat="40.904877170580775" lon="9.11414460770378"><ele>499.0</ele><time>2026-04-04T12:24:39.001Z</time></trkpt><trkpt lat="40.904947639954415" lon="9.114265074989705"><ele>499.0</ele><time>2026-04-04T12:24:40.001Z</time></trkpt><trkpt lat="40.905016476926406" lon="9.114384727305982"><ele>499.0</ele><time>2026-04-04T12:24:41.001Z</time></trkpt><trkpt lat="40.9050772543669" lon="9.114509620978312"><ele>499.0</ele><time>2026-04-04T12:24:42.001Z</time></trkpt><trkpt lat="40.905126291532" lon="9.114642351350893"><ele>499.0</ele><time>2026-04-04T12:24:43.001Z</time></trkpt><trkpt lat="40.90516601434493" lon="9.114783598490568"><ele>499.0</ele><time>2026-04-04T12:24:44.001Z</time></trkpt><trkpt lat="40.90519821783679" lon="9.114931312771684"><ele>497.75</ele><time>2026-04-04T12:24:45.001Z</time></trkpt><trkpt lat="40.905222379190874" lon="9.11508603880147"><ele>496.5</ele><time>2026-04-04T12:24:46.001Z</time></trkpt><trkpt lat="40.90523627046505" lon="9.115246564207721"><ele>495.25</ele><time>2026-04-04T12:24:47.001Z</time></trkpt><trkpt lat="40.90523690011479" lon="9.115410720209198"><ele>494.0</ele><time>2026-04-04T12:24:48.001Z</time></trkpt><trkpt lat="40.905219739940755" lon="9.115575573351354"><ele>494.0</ele><time>2026-04-04T12:24:49.001Z</time></trkpt><trkpt lat="40.905194481305564" lon="9.115735343431298"><ele>494.0</ele><time>2026-04-04T12:24:50.001Z</time></trkpt><trkpt lat="40.90517528586576" lon="9.11589307918807"><ele>494.0</ele><time>2026-04-04T12:24:51.001Z</time></trkpt><trkpt lat="40.90516882354147" lon="9.116048733311962"><ele>494.0</ele><time>2026-04-04T12:24:52.001Z</time></trkpt><trkpt lat="40.90517654328483" lon="9.116201376546178"><ele>492.25</ele><time>2026-04-04T12:24:53.001Z</time></trkpt><trkpt lat="40.90519250774013" lon="9.116354787690756"><ele>490.5</ele><time>2026-04-04T12:24:54.001Z</time></trkpt><trkpt lat="40.90521790048911" lon="9.116508385376605"><ele>488.75</ele><time>2026-04-04T12:24:55.001Z</time></trkpt><trkpt lat="40.905250173796894" lon="9.116655924568917"><ele>487.0</ele><time>2026-04-04T12:24:56.001Z</time></trkpt><trkpt lat="40.905287544379114" lon="9.116797116117546"><ele>487.0</ele><time>2026-04-04T12:24:57.001Z</time></trkpt><trkpt lat="40.90532633255305" lon="9.11693610101252"><ele>487.00000000000006</ele><time>2026-04-04T12:24:58.001Z</time></trkpt><trkpt lat="40.90535758988259" lon="9.117076270076224"><ele>487.00000000000006</ele><time>2026-04-04T12:24:59.001Z</time></trkpt><trkpt lat="40.90537932617452" lon="9.117218600684321"><ele>487.0</ele><time>2026-04-04T12:25:00.001Z</time></trkpt><trkpt lat="40.9053824465203" lon="9.117362860546045"><ele>487.0</ele><time>2026-04-04T12:25:01.001Z</time></trkpt><trkpt lat="40.90536195229757" lon="9.117507890546138"><ele>485.6</ele><time>2026-04-04T12:25:02.001Z</time></trkpt><trkpt lat="40.90532897375071" lon="9.117652088398811"><ele>484.20000000000005</ele><time>2026-04-04T12:25:03.001Z</time></trkpt><trkpt lat="40.90529996127104" lon="9.117795944678777"><ele>482.8</ele><time>2026-04-04T12:25:04.001Z</time></trkpt><trkpt lat="40.905272822710614" lon="9.117935982839256"><ele>481.4</ele><time>2026-04-04T12:25:05.001Z</time></trkpt><trkpt lat="40.905243546655925" lon="9.118074155061734"><ele>480.0</ele><time>2026-04-04T12:25:06.001Z</time></trkpt><trkpt lat="40.90521605057143" lon="9.118211808524352"><ele>479.8</ele><time>2026-04-04T12:25:07.001Z</time></trkpt><trkpt lat="40.90519121065808" lon="9.118348836255274"><ele>479.6</ele><time>2026-04-04T12:25:08.001Z</time></trkpt><trkpt lat="40.90516521388389" lon="9.118481710225874"><ele>479.4</ele><time>2026-04-04T12:25:09.001Z</time></trkpt><trkpt lat="40.90513992222888" lon="9.11861097880242"><ele>479.2</ele><time>2026-04-04T12:25:10.001Z</time></trkpt><trkpt lat="40.90510951316095" lon="9.118735473051888"><ele>479.0</ele><time>2026-04-04T12:25:11.001Z</time></trkpt><trkpt lat="40.90507772292725" lon="9.118864765005"><ele>479.0</ele><time>2026-04-04T12:25:12.001Z</time></trkpt><trkpt lat="40.90505126641042" lon="9.119000983107837"><ele>479.0</ele><time>2026-04-04T12:25:13.001Z</time></trkpt><trkpt lat="40.90502310301025" lon="9.119139936504002"><ele>479.0</ele><time>2026-04-04T12:25:14.001Z</time></trkpt><trkpt lat="40.904992544471106" lon="9.11928092287688"><ele>479.0</ele><time>2026-04-04T12:25:15.001Z</time></trkpt><trkpt lat="40.90496433951128" lon="9.119424024994482"><ele>479.0</ele><time>2026-04-04T12:25:16.001Z</time></trkpt><trkpt lat="40.90493700666422" lon="9.11956884900556"><ele>478.2</ele><time>2026-04-04T12:25:17.001Z</time></trkpt><trkpt lat="40.90490898367046" lon="9.11971247367045"><ele>477.4</ele><time>2026-04-04T12:25:18.001Z</time></trkpt><trkpt lat="40.904880316882355" lon="9.119856706618432"><ele>476.6</ele><time>2026-04-04T12:25:19.001Z</time></trkpt><trkpt lat="40.90485021577217" lon="9.119997623595406"><ele>475.8</ele><time>2026-04-04T12:25:20.001Z</time></trkpt><trkpt lat="40.90482009201588" lon="9.120135469855295"><ele>475.0</ele><time>2026-04-04T12:25:21.001Z</time></trkpt><trkpt lat="40.904794354760575" lon="9.120269636169594"><ele>474.4</ele><time>2026-04-04T12:25:22.001Z</time></trkpt><trkpt lat="40.90476947330166" lon="9.12039732264593"><ele>473.8</ele><time>2026-04-04T12:25:23.001Z</time></trkpt><trkpt lat="40.904747373363854" lon="9.120517155016257"><ele>473.20000000000005</ele><time>2026-04-04T12:25:24.001Z</time></trkpt><trkpt lat="40.90472337395368" lon="9.120627600351805"><ele>472.6</ele><time>2026-04-04T12:25:25.001Z</time></trkpt><trkpt lat="40.90469747049406" lon="9.120741009137783"><ele>472.0</ele><time>2026-04-04T12:25:26.001Z</time></trkpt><trkpt lat="40.90466997255639" lon="9.120859694888102"><ele>472.00000000000006</ele><time>2026-04-04T12:25:27.001Z</time></trkpt><trkpt lat="40.90464177316034" lon="9.120977136982486"><ele>472.0</ele><time>2026-04-04T12:25:28.001Z</time></trkpt><trkpt lat="40.904616924019074" lon="9.12107863531969"><ele>472.0</ele><time>2026-04-04T12:25:29.001Z</time></trkpt><trkpt lat="40.90459583384387" lon="9.121171425937975"><ele>472.0</ele><time>2026-04-04T12:25:30.001Z</time></trkpt><trkpt lat="40.90457584242804" lon="9.121259016135188"><ele>472.00000000000006</ele><time>2026-04-04T12:25:31.001Z</time></trkpt><trkpt lat="40.904555264151696" lon="9.121344359104656"><ele>472.0</ele><time>2026-04-04T12:25:32.001Z</time></trkpt><trkpt lat="40.904531294080805" lon="9.12143026246239"><ele>472.0</ele><time>2026-04-04T12:25:33.001Z</time></trkpt><trkpt lat="40.904492380080434" lon="9.121510715508224"><ele>472.0</ele><time>2026-04-04T12:25:34.001Z</time></trkpt><trkpt lat="40.90444376936325" lon="9.12157780659133"><ele>472.0</ele><time>2026-04-04T12:25:35.001Z</time></trkpt><trkpt lat="40.90438649510019" lon="9.121632886891673"><ele>472.0</ele><time>2026-04-04T12:25:36.001Z</time></trkpt><trkpt lat="40.90431835480044" lon="9.12167149848597"><ele>472.0</ele><time>2026-04-04T12:25:37.001Z</time></trkpt><trkpt lat="40.90424515464099" lon="9.121691113511082"><ele>472.0</ele><time>2026-04-04T12:25:38.001Z</time></trkpt><trkpt lat="40.90417144983724" lon="9.121680165221301"><ele>472.0</ele><time>2026-04-04T12:25:39.001Z</time></trkpt><trkpt lat="40.90410003600779" lon="9.12163840283667"><ele>473.40000000000003</ele><time>2026-04-04T12:25:40.001Z</time></trkpt><trkpt lat="40.904028140660095" lon="9.121577647058174"><ele>474.80000000000007</ele><time>2026-04-04T12:25:41.001Z</time></trkpt><trkpt lat="40.903943898351095" lon="9.121557694168745"><ele>476.2</ele><time>2026-04-04T12:25:42.001Z</time></trkpt><trkpt lat="40.90389293498961" lon="9.121397520792335"><ele>477.6</ele><time>2026-04-04T12:25:43.001Z</time></trkpt><trkpt lat="40.90383596465343" lon="9.121289436314393"><ele>479.0</ele><time>2026-04-04T12:25:44.001Z</time></trkpt><trkpt lat="40.90377566950456" lon="9.121173836266541"><ele>479.0</ele><time>2026-04-04T12:25:45.001Z</time></trkpt><trkpt lat="40.903717435143434" lon="9.121050564670444"><ele>479.0</ele><time>2026-04-04T12:25:46.001Z</time></trkpt><trkpt lat="40.90366003095034" lon="9.120917900109202"><ele>479.0</ele><time>2026-04-04T12:25:47.001Z</time></trkpt><trkpt lat="40.90359742476539" lon="9.120778253881655"><ele>479.0</ele><time>2026-04-04T12:25:48.001Z</time></trkpt><trkpt lat="40.903534976058836" lon="9.12063472883606"><ele>478.5</ele><time>2026-04-04T12:25:49.001Z</time></trkpt><trkpt lat="40.90347007969944" lon="9.12048748666496"><ele>478.0</ele><time>2026-04-04T12:25:50.001Z</time></trkpt><trkpt lat="40.90339761979002" lon="9.12033869994232"><ele>477.5</ele><time>2026-04-04T12:25:51.001Z</time></trkpt><trkpt lat="40.903315833673894" lon="9.120191856932827"><ele>477.0</ele><time>2026-04-04T12:25:52.001Z</time></trkpt><trkpt lat="40.90323040929016" lon="9.120045326924407"><ele>477.0</ele><time>2026-04-04T12:25:53.001Z</time></trkpt><trkpt lat="40.903140094442875" lon="9.119901705106153"><ele>477.0</ele><time>2026-04-04T12:25:54.001Z</time></trkpt><trkpt lat="40.9030451136224" lon="9.119762149712836"><ele>477.0</ele><time>2026-04-04T12:25:55.001Z</time></trkpt><trkpt lat="40.90295078302568" lon="9.11962311416007"><ele>477.0</ele><time>2026-04-04T12:25:56.001Z</time></trkpt><trkpt lat="40.90285820813289" lon="9.119491036605462"><ele>477.0</ele><time>2026-04-04T12:25:57.001Z</time></trkpt><trkpt lat="40.9027658166971" lon="9.11937074014203"><ele>477.0</ele><time>2026-04-04T12:25:58.001Z</time></trkpt><trkpt lat="40.90267334885404" lon="9.119259350639966"><ele>477.0</ele><time>2026-04-04T12:25:59.001Z</time></trkpt><trkpt lat="40.902580224409405" lon="9.119149895569047"><ele>477.0</ele><time>2026-04-04T12:26:00.001Z</time></trkpt><trkpt lat="40.902483657993166" lon="9.119034282467483"><ele>477.0</ele><time>2026-04-04T12:26:01.001Z</time></trkpt><trkpt lat="40.90238448880229" lon="9.118918296654046"><ele>477.0</ele><time>2026-04-04T12:26:02.001Z</time></trkpt><trkpt lat="40.90227808088561" lon="9.118807159508993"><ele>477.0</ele><time>2026-04-04T12:26:03.001Z</time></trkpt><trkpt lat="40.90216681944719" lon="9.11870554942588"><ele>477.0</ele><time>2026-04-04T12:26:04.001Z</time></trkpt><trkpt lat="40.90204939313399" lon="9.118613633061939"><ele>477.0</ele><time>2026-04-04T12:26:05.001Z</time></trkpt><trkpt lat="40.90193013861761" lon="9.118523906342674"><ele>477.0</ele><time>2026-04-04T12:26:06.001Z</time></trkpt><trkpt lat="40.90181318272956" lon="9.11842833544411"><ele>477.0</ele><time>2026-04-04T12:26:07.001Z</time></trkpt><trkpt lat="40.90169476649231" lon="9.11833424568785"><ele>477.0</ele><time>2026-04-04T12:26:08Z</time></trkpt><trkpt lat="40.901575570919356" lon="9.11824176536749"><ele>477.25</ele><time>2026-04-04T12:26:09Z</time></trkpt><trkpt lat="40.90145695122378" lon="9.118148900185739"><ele>477.5</ele><time>2026-04-04T12:26:10Z</time></trkpt><trkpt lat="40.90134015908398" lon="9.118053766695859"><ele>477.75</ele><time>2026-04-04T12:26:11Z</time></trkpt><trkpt lat="40.901225089078984" lon="9.117956423500628"><ele>478.0</ele><time>2026-04-04T12:26:12Z</time></trkpt><trkpt lat="40.90111117179923" lon="9.117859342844518"><ele>478.0</ele><time>2026-04-04T12:26:13Z</time></trkpt><trkpt lat="40.900998711007595" lon="9.117765213833977"><ele>478.0</ele><time>2026-04-04T12:26:14Z</time></trkpt><trkpt lat="40.900883808218445" lon="9.117671697145193"><ele>478.0</ele><time>2026-04-04T12:26:15Z</time></trkpt><trkpt lat="40.900778284952295" lon="9.117584895919732"><ele>478.0</ele><time>2026-04-04T12:26:16Z</time></trkpt><trkpt lat="40.90068344705575" lon="9.117508851368674"><ele>478.0</ele><time>2026-04-04T12:26:17Z</time></trkpt><trkpt lat="40.900598078967164" lon="9.117440962428265"><ele>477.99999999999994</ele><time>2026-04-04T12:26:18Z</time></trkpt><trkpt lat="40.900521359813816" lon="9.117383579528724"><ele>477.99999999999994</ele><time>2026-04-04T12:26:19Z</time></trkpt><trkpt lat="40.90045276249834" lon="9.11733634118069"><ele>478.0</ele><time>2026-04-04T12:26:20Z</time></trkpt><trkpt lat="40.90040185102604" lon="9.117270261216543"><ele>478.0</ele><time>2026-04-04T12:26:21Z</time></trkpt><trkpt lat="40.900278504323104" lon="9.117286007241422"><ele>478.0</ele><time>2026-04-04T12:26:23Z</time></trkpt><trkpt lat="40.90019995648422" lon="9.11732483129636"><ele>478.0</ele><time>2026-04-04T12:26:25Z</time></trkpt><trkpt lat="40.90030435147191" lon="9.117366632344398"><ele>478.0</ele><time>2026-04-04T12:26:28Z</time></trkpt><trkpt lat="40.90026107404244" lon="9.117617448895048"><ele>478.0</ele><time>2026-04-04T12:26:29Z</time></trkpt><trkpt lat="40.900194795290666" lon="9.117792636380798"><ele>478.0</ele><time>2026-04-04T12:26:31Z</time></trkpt><trkpt lat="40.900156280854304" lon="9.117922423451114"><ele>478.0</ele><time>2026-04-04T12:26:32Z</time></trkpt><trkpt lat="40.90008938349553" lon="9.118051145606167"><ele>478.0</ele><time>2026-04-04T12:26:33Z</time></trkpt><trkpt lat="40.900013541746134" lon="9.118184584167212"><ele>478.0</ele><time>2026-04-04T12:26:34Z</time></trkpt><trkpt lat="40.899933097131914" lon="9.118320918986404"><ele>478.25</ele><time>2026-04-04T12:26:35Z</time></trkpt><trkpt lat="40.89985449105809" lon="9.118443191412753"><ele>478.5</ele><time>2026-04-04T12:26:36Z</time></trkpt><trkpt lat="40.89977810142306" lon="9.118557888420769"><ele>478.75</ele><time>2026-04-04T12:26:37Z</time></trkpt><trkpt lat="40.899700691033175" lon="9.118677839040739"><ele>479.0</ele><time>2026-04-04T12:26:38Z</time></trkpt><trkpt lat="40.89962913584357" lon="9.118797977191727"><ele>479.0</ele><time>2026-04-04T12:26:39Z</time></trkpt><trkpt lat="40.899553991814365" lon="9.118915485367088"><ele>479.0</ele><time>2026-04-04T12:26:40Z</time></trkpt><trkpt lat="40.899479152299875" lon="9.119031843550344"><ele>479.0</ele><time>2026-04-04T12:26:41Z</time></trkpt><trkpt lat="40.899400773645965" lon="9.11915569560763"><ele>479.0</ele><time>2026-04-04T12:26:42Z</time></trkpt><trkpt lat="40.899327482200405" lon="9.119266591967138"><ele>479.0</ele><time>2026-04-04T12:26:43Z</time></trkpt><trkpt lat="40.89926013755109" lon="9.119377141820825"><ele>479.0</ele><time>2026-04-04T12:26:44Z</time></trkpt><trkpt lat="40.89919310708839" lon="9.119486385056318"><ele>479.0</ele><time>2026-04-04T12:26:45Z</time></trkpt><trkpt lat="40.89912720149263" lon="9.119603252109806"><ele>479.0</ele><time>2026-04-04T12:26:46.001Z</time></trkpt><trkpt lat="40.89906444686221" lon="9.11972213055014"><ele>479.0</ele><time>2026-04-04T12:26:47.001Z</time></trkpt><trkpt lat="40.899017951374965" lon="9.119855884991578"><ele>479.0</ele><time>2026-04-04T12:26:48.001Z</time></trkpt><trkpt lat="40.898967939952435" lon="9.12000330665535"><ele>479.0</ele><time>2026-04-04T12:26:49.001Z</time></trkpt><trkpt lat="40.8989342182683" lon="9.12014714898596"><ele>479.0</ele><time>2026-04-04T12:26:50.001Z</time></trkpt><trkpt lat="40.89889457283596" lon="9.120281346902418"><ele>479.0</ele><time>2026-04-04T12:26:51.001Z</time></trkpt><trkpt lat="40.898826883151074" lon="9.120380393501613"><ele>479.0</ele><time>2026-04-04T12:26:52.001Z</time></trkpt><trkpt lat="40.89875397211935" lon="9.120446021286664"><ele>479.0</ele><time>2026-04-04T12:26:53.001Z</time></trkpt><trkpt lat="40.8986635930023" lon="9.120504325936613"><ele>479.0</ele><time>2026-04-04T12:26:54.001Z</time></trkpt><trkpt lat="40.89855341089783" lon="9.120543367316058"><ele>479.0</ele><time>2026-04-04T12:26:55.001Z</time></trkpt><trkpt lat="40.89843648871749" lon="9.120572714145842"><ele>479.0</ele><time>2026-04-04T12:26:56.001Z</time></trkpt><trkpt lat="40.898315448281465" lon="9.120591601210272"><ele>479.75</ele><time>2026-04-04T12:26:57.001Z</time></trkpt><trkpt lat="40.89819698811698" lon="9.120609399219305"><ele>480.5</ele><time>2026-04-04T12:26:58.001Z</time></trkpt><trkpt lat="40.89808488592668" lon="9.120642677225048"><ele>481.25</ele><time>2026-04-04T12:26:59.001Z</time></trkpt><trkpt lat="40.8979700568892" lon="9.120668433437976"><ele>482.0</ele><time>2026-04-04T12:27:00.001Z</time></trkpt><trkpt lat="40.89786822807258" lon="9.120747595918338"><ele>482.0</ele><time>2026-04-04T12:27:01.001Z</time></trkpt><trkpt lat="40.897773514473556" lon="9.120840957995346"><ele>482.0</ele><time>2026-04-04T12:27:02.001Z</time></trkpt><trkpt lat="40.89767120632908" lon="9.120934198086438"><ele>482.0</ele><time>2026-04-04T12:27:03.001Z</time></trkpt><trkpt lat="40.89756864131663" lon="9.121049183223246"><ele>482.0</ele><time>2026-04-04T12:27:04.001Z</time></trkpt><trkpt lat="40.89745373502044" lon="9.121148166279248"><ele>482.5</ele><time>2026-04-04T12:27:05.001Z</time></trkpt><trkpt lat="40.89733000076963" lon="9.121227945409354"><ele>483.0</ele><time>2026-04-04T12:27:06.001Z</time></trkpt><trkpt lat="40.89722970172553" lon="9.121346359820414"><ele>483.5</ele><time>2026-04-04T12:27:07.001Z</time></trkpt><trkpt lat="40.89712049996976" lon="9.12144981146018"><ele>484.0</ele><time>2026-04-04T12:27:08.001Z</time></trkpt><trkpt lat="40.896998951503456" lon="9.121535633326756"><ele>484.5</ele><time>2026-04-04T12:27:09.001Z</time></trkpt><trkpt lat="40.896892628587175" lon="9.121631371844094"><ele>485.0</ele><time>2026-04-04T12:27:10.001Z</time></trkpt><trkpt lat="40.8968002792072" lon="9.12172184417929"><ele>485.5</ele><time>2026-04-04T12:27:11.001Z</time></trkpt><trkpt lat="40.89672258898648" lon="9.121815554383623"><ele>486.0</ele><time>2026-04-04T12:27:12.001Z</time></trkpt><trkpt lat="40.896688282947245" lon="9.121946552454553"><ele>486.0</ele><time>2026-04-04T12:27:13.001Z</time></trkpt><trkpt lat="40.896653753851595" lon="9.122069467054759"><ele>486.0</ele><time>2026-04-04T12:27:14.001Z</time></trkpt><trkpt lat="40.896629653409654" lon="9.122204172624011"><ele>486.0</ele><time>2026-04-04T12:27:15.001Z</time></trkpt><trkpt lat="40.89661600109158" lon="9.122337841909168"><ele>486.0</ele><time>2026-04-04T12:27:16.001Z</time></trkpt><trkpt lat="40.896585665374644" lon="9.122458258300789"><ele>486.0</ele><time>2026-04-04T12:27:17.001Z</time></trkpt><trkpt lat="40.89652990236567" lon="9.122564950840289"><ele>485.8</ele><time>2026-04-04T12:27:18.001Z</time></trkpt><trkpt lat="40.89646694903054" lon="9.122667043998469"><ele>485.6</ele><time>2026-04-04T12:27:19.001Z</time></trkpt><trkpt lat="40.89639830853663" lon="9.12276466131131"><ele>485.4</ele><time>2026-04-04T12:27:20.001Z</time></trkpt><trkpt lat="40.89632974175927" lon="9.122848413713756"><ele>485.2</ele><time>2026-04-04T12:27:21.001Z</time></trkpt><trkpt lat="40.89626682333691" lon="9.122913657486917"><ele>485.0</ele><time>2026-04-04T12:27:22.001Z</time></trkpt><trkpt lat="40.89620698445402" lon="9.122975500748595"><ele>484.99999999999994</ele><time>2026-04-04T12:27:23.001Z</time></trkpt><trkpt lat="40.89614608111753" lon="9.123021494728224"><ele>485.0</ele><time>2026-04-04T12:27:24.001Z</time></trkpt><trkpt lat="40.896133440716795" lon="9.123150813660144"><ele>485.0</ele><time>2026-04-04T12:27:25.001Z</time></trkpt><trkpt lat="40.89611275545333" lon="9.123266022773608"><ele>485.0</ele><time>2026-04-04T12:27:26.001Z</time></trkpt><trkpt lat="40.89609154436046" lon="9.123367108305185"><ele>484.99999999999994</ele><time>2026-04-04T12:27:27.001Z</time></trkpt><trkpt lat="40.89606367965691" lon="9.123472324864373"><ele>485.0</ele><time>2026-04-04T12:27:28.001Z</time></trkpt><trkpt lat="40.89600723569619" lon="9.123565674879355"><ele>484.66666666666663</ele><time>2026-04-04T12:27:29.001Z</time></trkpt><trkpt lat="40.89596004116863" lon="9.123648055349319"><ele>484.3333333333333</ele><time>2026-04-04T12:27:30.001Z</time></trkpt><trkpt lat="40.89590627501373" lon="9.12371476498308"><ele>484.0</ele><time>2026-04-04T12:27:31.001Z</time></trkpt><trkpt lat="40.89584100726636" lon="9.123780293127208"><ele>483.66666666666663</ele><time>2026-04-04T12:27:32.001Z</time></trkpt><trkpt lat="40.895764944043584" lon="9.123854593395869"><ele>483.3333333333333</ele><time>2026-04-04T12:27:33.001Z</time></trkpt><trkpt lat="40.89568456053226" lon="9.123938378982384"><ele>483.0</ele><time>2026-04-04T12:27:34.001Z</time></trkpt><trkpt lat="40.89558526367687" lon="9.124011301149267"><ele>482.79999999999995</ele><time>2026-04-04T12:27:35.001Z</time></trkpt><trkpt lat="40.89548833944004" lon="9.124096204347653"><ele>482.59999999999997</ele><time>2026-04-04T12:27:36.001Z</time></trkpt><trkpt lat="40.89539377495487" lon="9.124193079692448"><ele>482.40000000000003</ele><time>2026-04-04T12:27:37.001Z</time></trkpt><trkpt lat="40.895308487556875" lon="9.124283630182685"><ele>482.20000000000005</ele><time>2026-04-04T12:27:38.001Z</time></trkpt><trkpt lat="40.89521830610204" lon="9.124344727208454"><ele>482.0</ele><time>2026-04-04T12:27:39.001Z</time></trkpt><trkpt lat="40.89514324278559" lon="9.124419668467777"><ele>482.6</ele><time>2026-04-04T12:27:40.001Z</time></trkpt><trkpt lat="40.895064447566796" lon="9.124503263453477"><ele>483.20000000000005</ele><time>2026-04-04T12:27:41.001Z</time></trkpt><trkpt lat="40.89498299091725" lon="9.124590674331612"><ele>483.8</ele><time>2026-04-04T12:27:42.001Z</time></trkpt><trkpt lat="40.894907253904684" lon="9.124696883282338"><ele>484.4</ele><time>2026-04-04T12:27:43.001Z</time></trkpt><trkpt lat="40.89481163222454" lon="9.12476952535917"><ele>485.0</ele><time>2026-04-04T12:27:44.001Z</time></trkpt><trkpt lat="40.894726900752865" lon="9.124855517922148"><ele>484.2</ele><time>2026-04-04T12:27:45.001Z</time></trkpt><trkpt lat="40.89464391338329" lon="9.124948560478195"><ele>483.4</ele><time>2026-04-04T12:27:46.001Z</time></trkpt><trkpt lat="40.894568998628" lon="9.125054092607801"><ele>482.6</ele><time>2026-04-04T12:27:47.001Z</time></trkpt><trkpt lat="40.89450486972196" lon="9.125175642207665"><ele>481.8</ele><time>2026-04-04T12:27:48.001Z</time></trkpt><trkpt lat="40.89441985087465" lon="9.125280589173066"><ele>481.0</ele><time>2026-04-04T12:27:49.001Z</time></trkpt><trkpt lat="40.894336869902936" lon="9.125377566811496"><ele>482.0</ele><time>2026-04-04T12:27:50.001Z</time></trkpt><trkpt lat="40.89424786793209" lon="9.125468471321756"><ele>483.0</ele><time>2026-04-04T12:27:51.001Z</time></trkpt><trkpt lat="40.89415435217304" lon="9.125556921197965"><ele>484.0</ele><time>2026-04-04T12:27:52.001Z</time></trkpt><trkpt lat="40.894047611960595" lon="9.125624882854098"><ele>485.0</ele><time>2026-04-04T12:27:53.001Z</time></trkpt><trkpt lat="40.89395613347549" lon="9.125729483714013"><ele>485.0</ele><time>2026-04-04T12:27:54.001Z</time></trkpt><trkpt lat="40.8938548313376" lon="9.125820596512341"><ele>485.0</ele><time>2026-04-04T12:27:55.001Z</time></trkpt><trkpt lat="40.89375711193559" lon="9.125925735557518"><ele>485.0</ele><time>2026-04-04T12:27:56.001Z</time></trkpt><trkpt lat="40.893663911285614" lon="9.126043960036819"><ele>485.0</ele><time>2026-04-04T12:27:57.001Z</time></trkpt><trkpt lat="40.89357205261986" lon="9.126169627371992"><ele>485.0</ele><time>2026-04-04T12:27:58.001Z</time></trkpt><trkpt lat="40.89348287250596" lon="9.126283746935469"><ele>485.0</ele><time>2026-04-04T12:27:59.001Z</time></trkpt><trkpt lat="40.89339674064711" lon="9.126380297187637"><ele>485.0</ele><time>2026-04-04T12:28:00.001Z</time></trkpt><trkpt lat="40.893308026875864" lon="9.126456645750237"><ele>485.0</ele><time>2026-04-04T12:28:01.001Z</time></trkpt><trkpt lat="40.89321673658285" lon="9.12653180826331"><ele>485.8</ele><time>2026-04-04T12:28:02.001Z</time></trkpt><trkpt lat="40.89313372980425" lon="9.126612022564306"><ele>486.6</ele><time>2026-04-04T12:28:03.001Z</time></trkpt><trkpt lat="40.893062283868474" lon="9.126695889182406"><ele>487.4</ele><time>2026-04-04T12:28:04.001Z</time></trkpt><trkpt lat="40.8929801458484" lon="9.126784027759625"><ele>488.2</ele><time>2026-04-04T12:28:05.001Z</time></trkpt><trkpt lat="40.89292601376876" lon="9.126916789657901"><ele>489.0</ele><time>2026-04-04T12:28:06.001Z</time></trkpt><trkpt lat="40.89288013796602" lon="9.127064980654556"><ele>489.0</ele><time>2026-04-04T12:28:07.001Z</time></trkpt><trkpt lat="40.89284928772524" lon="9.127226439971583"><ele>489.0</ele><time>2026-04-04T12:28:08.001Z</time></trkpt><trkpt lat="40.892797657168266" lon="9.127383931737258"><ele>489.0</ele><time>2026-04-04T12:28:09.001Z</time></trkpt><trkpt lat="40.892736972825894" lon="9.127523675188407"><ele>489.0</ele><time>2026-04-04T12:28:10.001Z</time></trkpt><trkpt lat="40.89266892534976" lon="9.127644694408295"><ele>488.6</ele><time>2026-04-04T12:28:11.001Z</time></trkpt><trkpt lat="40.89259304709445" lon="9.127764646192404"><ele>488.2</ele><time>2026-04-04T12:28:12.001Z</time></trkpt><trkpt lat="40.892511799933025" lon="9.127877595090617"><ele>487.80000000000007</ele><time>2026-04-04T12:28:13.001Z</time></trkpt><trkpt lat="40.892435516712375" lon="9.127976722810638"><ele>487.40000000000003</ele><time>2026-04-04T12:28:14Z</time></trkpt><trkpt lat="40.89237056155538" lon="9.128063626956576"><ele>487.0</ele><time>2026-04-04T12:28:15Z</time></trkpt><trkpt lat="40.89231558587016" lon="9.128136891243253"><ele>487.40000000000003</ele><time>2026-04-04T12:28:16Z</time></trkpt><trkpt lat="40.89224782522282" lon="9.128235600083247"><ele>487.80000000000007</ele><time>2026-04-04T12:28:18Z</time></trkpt><trkpt lat="40.8921714311572" lon="9.12834144966691"><ele>488.2</ele><time>2026-04-04T12:30:54Z</time></trkpt><trkpt lat="40.89205869886131" lon="9.128411999701594"><ele>488.6</ele><time>2026-04-04T12:30:56Z</time></trkpt><trkpt lat="40.89200102668083" lon="9.128477202246199"><ele>489.0</ele><time>2026-04-04T12:30:57Z</time></trkpt><trkpt lat="40.89193297817637" lon="9.128539086589443"><ele>489.0</ele><time>2026-04-04T12:30:58.001Z</time></trkpt><trkpt lat="40.89186206066241" lon="9.128598866592682"><ele>489.0</ele><time>2026-04-04T12:30:59.001Z</time></trkpt><trkpt lat="40.891797775928445" lon="9.128648922034458"><ele>489.0</ele><time>2026-04-04T12:31:00.001Z</time></trkpt><trkpt lat="40.89169851269701" lon="9.128722863134437"><ele>489.0</ele><time>2026-04-04T12:31:02.001Z</time></trkpt><trkpt lat="40.89162912397346" lon="9.128774839292548"><ele>489.0</ele><time>2026-04-04T12:31:04.001Z</time></trkpt><trkpt lat="40.89156116319158" lon="9.12883706813542"><ele>489.0</ele><time>2026-04-04T12:31:07.001Z</time></trkpt><trkpt lat="40.89148336806165" lon="9.128911270246329"><ele>488.8333333333333</ele><time>2026-04-04T12:31:10.001Z</time></trkpt><trkpt lat="40.89142424653369" lon="9.128966383294147"><ele>488.66666666666663</ele><time>2026-04-04T12:31:11.001Z</time></trkpt><trkpt lat="40.89136558829006" lon="9.129023823041859"><ele>488.5</ele><time>2026-04-04T12:31:12.001Z</time></trkpt><trkpt lat="40.891311273061" lon="9.129082788985528"><ele>488.3333333333333</ele><time>2026-04-04T12:31:13.001Z</time></trkpt><trkpt lat="40.89124772339099" lon="9.129138983570835"><ele>488.16666666666663</ele><time>2026-04-04T12:31:14.001Z</time></trkpt><trkpt lat="40.8911722936765" lon="9.129201682553587"><ele>488.0</ele><time>2026-04-04T12:31:15.001Z</time></trkpt><trkpt lat="40.891095084342496" lon="9.129276171309735"><ele>488.0</ele><time>2026-04-04T12:31:16.001Z</time></trkpt><trkpt lat="40.891019476179785" lon="9.12937049202319"><ele>487.99999999999994</ele><time>2026-04-04T12:31:17.001Z</time></trkpt><trkpt lat="40.890951049085174" lon="9.12947558818129"><ele>487.99999999999994</ele><time>2026-04-04T12:31:18.001Z</time></trkpt><trkpt lat="40.89088493784069" lon="9.129583706386672"><ele>488.0</ele><time>2026-04-04T12:31:19.001Z</time></trkpt><trkpt lat="40.89082247019492" lon="9.129681568600496"><ele>488.0</ele><time>2026-04-04T12:31:20.001Z</time></trkpt><trkpt lat="40.89076194857098" lon="9.129783317673079"><ele>488.2</ele><time>2026-04-04T12:31:21.001Z</time></trkpt><trkpt lat="40.89070552462136" lon="9.129885580254022"><ele>488.4</ele><time>2026-04-04T12:31:22.001Z</time></trkpt><trkpt lat="40.89064827806652" lon="9.129975746673187"><ele>488.59999999999997</ele><time>2026-04-04T12:31:23.001Z</time></trkpt><trkpt lat="40.890586693052114" lon="9.130054348280801"><ele>488.79999999999995</ele><time>2026-04-04T12:31:24.001Z</time></trkpt><trkpt lat="40.890521488138354" lon="9.130133630725894"><ele>489.0</ele><time>2026-04-04T12:31:25.001Z</time></trkpt><trkpt lat="40.890447480149604" lon="9.130204324562088"><ele>490.79999999999995</ele><time>2026-04-04T12:31:26.001Z</time></trkpt><trkpt lat="40.890367724141846" lon="9.13027670372387"><ele>492.59999999999997</ele><time>2026-04-04T12:31:27.001Z</time></trkpt><trkpt lat="40.890280010592214" lon="9.130356375268548"><ele>494.4</ele><time>2026-04-04T12:31:28.001Z</time></trkpt><trkpt lat="40.89017877410573" lon="9.130411526072082"><ele>496.2</ele><time>2026-04-04T12:31:29.001Z</time></trkpt><trkpt lat="40.8900774234833" lon="9.130477736323607"><ele>498.0</ele><time>2026-04-04T12:31:30.001Z</time></trkpt><trkpt lat="40.88997151365194" lon="9.13053634480775"><ele>498.25</ele><time>2026-04-04T12:31:31.001Z</time></trkpt><trkpt lat="40.889869468606605" lon="9.130627630268432"><ele>498.5</ele><time>2026-04-04T12:31:32.001Z</time></trkpt><trkpt lat="40.88975366374434" lon="9.130713336078259"><ele>498.75</ele><time>2026-04-04T12:31:33.001Z</time></trkpt><trkpt lat="40.889637180373896" lon="9.130798771125955"><ele>499.0</ele><time>2026-04-04T12:31:34.001Z</time></trkpt><trkpt lat="40.889546902982005" lon="9.130865683618717"><ele>499.0</ele><time>2026-04-04T12:31:35.001Z</time></trkpt><trkpt lat="40.88945631728241" lon="9.130928966892906"><ele>499.0</ele><time>2026-04-04T12:31:36.001Z</time></trkpt><trkpt lat="40.88937484900931" lon="9.130986622513774"><ele>499.0</ele><time>2026-04-04T12:31:37.001Z</time></trkpt><trkpt lat="40.8892977394514" lon="9.13103958948512"><ele>499.0</ele><time>2026-04-04T12:31:38.001Z</time></trkpt><trkpt lat="40.889219772398604" lon="9.131089403059235"><ele>499.0</ele><time>2026-04-04T12:31:39.001Z</time></trkpt><trkpt lat="40.88913323166134" lon="9.131153168684595"><ele>499.6</ele><time>2026-04-04T12:31:40.001Z</time></trkpt><trkpt lat="40.889048044369424" lon="9.131234341490773"><ele>500.2</ele><time>2026-04-04T12:31:41.001Z</time></trkpt><trkpt lat="40.88896857414496" lon="9.131322809617023"><ele>500.80000000000007</ele><time>2026-04-04T12:31:42.001Z</time></trkpt><trkpt lat="40.888893956676846" lon="9.131420234997446"><ele>501.40000000000003</ele><time>2026-04-04T12:31:43.001Z</time></trkpt><trkpt lat="40.88882669990146" lon="9.131531784332982"><ele>502.0</ele><time>2026-04-04T12:31:44.001Z</time></trkpt><trkpt lat="40.888746515132674" lon="9.131623888540332"><ele>502.0</ele><time>2026-04-04T12:31:45.001Z</time></trkpt><trkpt lat="40.88869018754387" lon="9.131737803434607"><ele>502.00000000000006</ele><time>2026-04-04T12:31:46.001Z</time></trkpt><trkpt lat="40.88862562909705" lon="9.131827054510671"><ele>502.00000000000006</ele><time>2026-04-04T12:31:47.001Z</time></trkpt><trkpt lat="40.88854927850107" lon="9.131925537279129"><ele>502.0</ele><time>2026-04-04T12:31:48.001Z</time></trkpt><trkpt lat="40.888479113752865" lon="9.132032782592953"><ele>502.0</ele><time>2026-04-04T12:31:49.001Z</time></trkpt><trkpt lat="40.888402202975044" lon="9.132132955429757"><ele>502.40000000000003</ele><time>2026-04-04T12:31:50.001Z</time></trkpt><trkpt lat="40.88833739229145" lon="9.132254474381734"><ele>502.80000000000007</ele><time>2026-04-04T12:31:51.001Z</time></trkpt><trkpt lat="40.88827818955061" lon="9.132371295869138"><ele>503.2</ele><time>2026-04-04T12:31:52.001Z</time></trkpt><trkpt lat="40.88822154409862" lon="9.132488738024621"><ele>503.6</ele><time>2026-04-04T12:31:53.001Z</time></trkpt><trkpt lat="40.8881648321229" lon="9.132606318082729"><ele>504.0</ele><time>2026-04-04T12:31:54.001Z</time></trkpt><trkpt lat="40.88811635421693" lon="9.132732028286789"><ele>504.0</ele><time>2026-04-04T12:31:55.001Z</time></trkpt><trkpt lat="40.888054993885596" lon="9.132840653764298"><ele>504.0</ele><time>2026-04-04T12:31:56.001Z</time></trkpt><trkpt lat="40.887992245424364" lon="9.132952104588966"><ele>504.0</ele><time>2026-04-04T12:31:57.001Z</time></trkpt><trkpt lat="40.887939204600194" lon="9.133072315509473"><ele>504.0</ele><time>2026-04-04T12:31:58.001Z</time></trkpt><trkpt lat="40.88788607507577" lon="9.133197598489533"><ele>504.0</ele><time>2026-04-04T12:31:59.001Z</time></trkpt><trkpt lat="40.88783975133097" lon="9.133308374268426"><ele>503.5</ele><time>2026-04-04T12:32:00.001Z</time></trkpt><trkpt lat="40.88779644271346" lon="9.133442968000157"><ele>503.0</ele><time>2026-04-04T12:32:01.001Z</time></trkpt><trkpt lat="40.887742487889646" lon="9.133593563299014"><ele>502.5</ele><time>2026-04-04T12:32:02.001Z</time></trkpt><trkpt lat="40.887671190977784" lon="9.133759528840356"><ele>502.0</ele><time>2026-04-04T12:32:03.001Z</time></trkpt><trkpt lat="40.88759175364478" lon="9.13392919256903"><ele>503.0</ele><time>2026-04-04T12:32:04.001Z</time></trkpt><trkpt lat="40.88751670536619" lon="9.134090940906782"><ele>504.0</ele><time>2026-04-04T12:32:05.001Z</time></trkpt><trkpt lat="40.887463256738805" lon="9.134235628782914"><ele>505.0</ele><time>2026-04-04T12:32:06.001Z</time></trkpt><trkpt lat="40.887432058864036" lon="9.134376415771904"><ele>506.0</ele><time>2026-04-04T12:32:07.001Z</time></trkpt><trkpt lat="40.88741251085467" lon="9.134526974652454"><ele>506.0</ele><time>2026-04-04T12:32:08.001Z</time></trkpt><trkpt lat="40.88739368545848" lon="9.134679363045933"><ele>506.0</ele><time>2026-04-04T12:32:09.001Z</time></trkpt><trkpt lat="40.88737658688383" lon="9.134818524513733"><ele>506.0</ele><time>2026-04-04T12:32:10.001Z</time></trkpt><trkpt lat="40.88734573201244" lon="9.13493455184424"><ele>506.0</ele><time>2026-04-04T12:32:11.001Z</time></trkpt><trkpt lat="40.8873010468763" lon="9.135039771101237"><ele>506.0</ele><time>2026-04-04T12:32:12.001Z</time></trkpt><trkpt lat="40.88724861268962" lon="9.135139678209324"><ele>505.20000000000005</ele><time>2026-04-04T12:32:13.001Z</time></trkpt><trkpt lat="40.887199313848164" lon="9.135251172444345"><ele>504.40000000000003</ele><time>2026-04-04T12:32:14.001Z</time></trkpt><trkpt lat="40.88714560081958" lon="9.135357157911322"><ele>503.6</ele><time>2026-04-04T12:32:15.001Z</time></trkpt><trkpt lat="40.88708913796048" lon="9.13545153654402"><ele>502.8</ele><time>2026-04-04T12:32:16.001Z</time></trkpt><trkpt lat="40.88703706126996" lon="9.135540753699537"><ele>502.0</ele><time>2026-04-04T12:32:17.001Z</time></trkpt><trkpt lat="40.88699109186569" lon="9.135629693251088"><ele>502.0</ele><time>2026-04-04T12:32:18.001Z</time></trkpt><trkpt lat="40.88694640517916" lon="9.135709613143113"><ele>502.00000000000006</ele><time>2026-04-04T12:32:19.001Z</time></trkpt><trkpt lat="40.886901255163906" lon="9.135786495991516"><ele>502.00000000000006</ele><time>2026-04-04T12:32:20.001Z</time></trkpt><trkpt lat="40.88682934418315" lon="9.135906240023674"><ele>502.0</ele><time>2026-04-04T12:32:22.001Z</time></trkpt><trkpt lat="40.88680070689044" lon="9.135984894992514"><ele>502.0</ele><time>2026-04-04T12:32:25.001Z</time></trkpt><trkpt lat="40.88670647426261" lon="9.136119272863823"><ele>501.25</ele><time>2026-04-04T12:32:27Z</time></trkpt><trkpt lat="40.88663951177867" lon="9.13622144811512"><ele>500.5</ele><time>2026-04-04T12:32:28Z</time></trkpt><trkpt lat="40.88654622485128" lon="9.13631310436147"><ele>499.75</ele><time>2026-04-04T12:32:29Z</time></trkpt><trkpt lat="40.886461513188756" lon="9.136428722784803"><ele>499.0</ele><time>2026-04-04T12:32:30Z</time></trkpt><trkpt lat="40.88637848351641" lon="9.136546849386635"><ele>497.75</ele><time>2026-04-04T12:32:31Z</time></trkpt><trkpt lat="40.886294914178514" lon="9.136669655846683"><ele>496.5</ele><time>2026-04-04T12:32:32Z</time></trkpt><trkpt lat="40.8862118101533" lon="9.136803116227007"><ele>495.25</ele><time>2026-04-04T12:32:33Z</time></trkpt><trkpt lat="40.88613277047123" lon="9.13694318593109"><ele>494.0</ele><time>2026-04-04T12:32:34Z</time></trkpt><trkpt lat="40.88605768750713" lon="9.137088827708805"><ele>494.0</ele><time>2026-04-04T12:32:35Z</time></trkpt><trkpt lat="40.885982570885744" lon="9.137236044755815"><ele>494.0</ele><time>2026-04-04T12:32:36Z</time></trkpt><trkpt lat="40.88590464389268" lon="9.13739337459267"><ele>494.0</ele><time>2026-04-04T12:32:37Z</time></trkpt><trkpt lat="40.88582901664894" lon="9.13755707451291"><ele>494.0</ele><time>2026-04-04T12:32:38Z</time></trkpt><trkpt lat="40.88576066662898" lon="9.137720242080306"><ele>492.75</ele><time>2026-04-04T12:32:39Z</time></trkpt><trkpt lat="40.88570367212122" lon="9.137885494289591"><ele>491.5</ele><time>2026-04-04T12:32:40Z</time></trkpt><trkpt lat="40.88566167371264" lon="9.138068298886628"><ele>490.25</ele><time>2026-04-04T12:32:41Z</time></trkpt><trkpt lat="40.88562697485735" lon="9.138255619357063"><ele>489.0</ele><time>2026-04-04T12:32:42Z</time></trkpt><trkpt lat="40.8855932054658" lon="9.138439943631997"><ele>487.75</ele><time>2026-04-04T12:32:43Z</time></trkpt><trkpt lat="40.885561413821854" lon="9.13862514327529"><ele>486.5</ele><time>2026-04-04T12:32:44Z</time></trkpt><trkpt lat="40.885527642679065" lon="9.138802470782778"><ele>485.25</ele><time>2026-04-04T12:32:45Z</time></trkpt><trkpt lat="40.8854738444442" lon="9.138966538495884"><ele>484.0</ele><time>2026-04-04T12:32:46Z</time></trkpt><trkpt lat="40.885411463234085" lon="9.139132809644188"><ele>483.75</ele><time>2026-04-04T12:32:47Z</time></trkpt><trkpt lat="40.88534986846089" lon="9.139304591524601"><ele>483.5</ele><time>2026-04-04T12:32:48Z</time></trkpt><trkpt lat="40.88530466363602" lon="9.13948445797031"><ele>483.25</ele><time>2026-04-04T12:32:49Z</time></trkpt><trkpt lat="40.885246061908056" lon="9.139654398552754"><ele>483.0</ele><time>2026-04-04T12:32:50Z</time></trkpt><trkpt lat="40.885188432938264" lon="9.139816040948764"><ele>482.5</ele><time>2026-04-04T12:32:51Z</time></trkpt><trkpt lat="40.885114238157506" lon="9.13995396597701"><ele>482.0</ele><time>2026-04-04T12:32:52Z</time></trkpt><trkpt lat="40.88505036073023" lon="9.140100811878384"><ele>481.5</ele><time>2026-04-04T12:32:53Z</time></trkpt><trkpt lat="40.88497191590596" lon="9.140247542858368"><ele>481.0</ele><time>2026-04-04T12:32:54Z</time></trkpt><trkpt lat="40.88487841149214" lon="9.14038615039423"><ele>480.75</ele><time>2026-04-04T12:32:55Z</time></trkpt><trkpt lat="40.88477593311212" lon="9.14052287955496"><ele>480.5</ele><time>2026-04-04T12:32:56Z</time></trkpt><trkpt lat="40.88467839352167" lon="9.140650236598132"><ele>480.25</ele><time>2026-04-04T12:32:57Z</time></trkpt><trkpt lat="40.88459568619407" lon="9.140783258437883"><ele>480.0</ele><time>2026-04-04T12:32:58Z</time></trkpt><trkpt lat="40.88450321466348" lon="9.140905255565151"><ele>479.4</ele><time>2026-04-04T12:32:59Z</time></trkpt><trkpt lat="40.88440929141959" lon="9.141002890543339"><ele>478.8</ele><time>2026-04-04T12:33:00Z</time></trkpt><trkpt lat="40.884333702276514" lon="9.141106882819136"><ele>478.20000000000005</ele><time>2026-04-04T12:33:01Z</time></trkpt><trkpt lat="40.88426779772075" lon="9.141205671391017"><ele>477.6</ele><time>2026-04-04T12:33:02Z</time></trkpt><trkpt lat="40.8842099625639" lon="9.141302876222674"><ele>477.0</ele><time>2026-04-04T12:33:03.001Z</time></trkpt><trkpt lat="40.88413073797525" lon="9.141345033039725"><ele>477.0</ele><time>2026-04-04T12:33:04.001Z</time></trkpt><trkpt lat="40.88405979595779" lon="9.141388996986825"><ele>477.00000000000006</ele><time>2026-04-04T12:33:05.001Z</time></trkpt><trkpt lat="40.88398732597891" lon="9.141431098109974"><ele>477.00000000000006</ele><time>2026-04-04T12:33:06.001Z</time></trkpt><trkpt lat="40.883908166828014" lon="9.141479449464434"><ele>477.0</ele><time>2026-04-04T12:33:07.001Z</time></trkpt><trkpt lat="40.883822886507545" lon="9.141543184465673"><ele>477.0</ele><time>2026-04-04T12:33:08.001Z</time></trkpt><trkpt lat="40.88375157460793" lon="9.141650411821267"><ele>477.0</ele><time>2026-04-04T12:33:09.001Z</time></trkpt><trkpt lat="40.883709034782605" lon="9.14178343688245"><ele>477.00000000000006</ele><time>2026-04-04T12:33:10.001Z</time></trkpt><trkpt lat="40.88365967147701" lon="9.141897598474275"><ele>477.00000000000006</ele><time>2026-04-04T12:33:11.001Z</time></trkpt><trkpt lat="40.88359642966831" lon="9.14196979829189"><ele>477.0</ele><time>2026-04-04T12:33:12.001Z</time></trkpt><trkpt lat="40.883506481578564" lon="9.14204432411361"><ele>477.0</ele><time>2026-04-04T12:33:13.001Z</time></trkpt><trkpt lat="40.88341158492482" lon="9.142121687717527"><ele>477.5</ele><time>2026-04-04T12:33:14.001Z</time></trkpt><trkpt lat="40.883316032686054" lon="9.142216532862308"><ele>478.0</ele><time>2026-04-04T12:33:15.001Z</time></trkpt><trkpt lat="40.88322328377137" lon="9.142344687656204"><ele>478.5</ele><time>2026-04-04T12:33:16.001Z</time></trkpt><trkpt lat="40.88313175923329" lon="9.14249801405369"><ele>479.0</ele><time>2026-04-04T12:33:17.001Z</time></trkpt><trkpt lat="40.88302605533752" lon="9.142651829522165"><ele>480.3333333333333</ele><time>2026-04-04T12:33:18.001Z</time></trkpt><trkpt lat="40.88292351672279" lon="9.142812308044249"><ele>481.66666666666663</ele><time>2026-04-04T12:33:19.001Z</time></trkpt><trkpt lat="40.88282392215646" lon="9.14296817897679"><ele>483.0</ele><time>2026-04-04T12:33:20.001Z</time></trkpt><trkpt lat="40.882719881263476" lon="9.14313100917457"><ele>484.33333333333337</ele><time>2026-04-04T12:33:21.001Z</time></trkpt><trkpt lat="40.88261828187865" lon="9.143293794163963"><ele>485.6666666666667</ele><time>2026-04-04T12:33:22.001Z</time></trkpt><trkpt lat="40.88252198456127" lon="9.143449368131273"><ele>487.0</ele><time>2026-04-04T12:33:23.001Z</time></trkpt><trkpt lat="40.882430057011014" lon="9.143601773802665"><ele>488.0</ele><time>2026-04-04T12:33:24.001Z</time></trkpt><trkpt lat="40.88234018056492" lon="9.14375776106339"><ele>489.0</ele><time>2026-04-04T12:33:25.001Z</time></trkpt><trkpt lat="40.88224830160999" lon="9.14391779018279"><ele>490.0</ele><time>2026-04-04T12:33:26.001Z</time></trkpt><trkpt lat="40.882172192214014" lon="9.144053286058215"><ele>491.0</ele><time>2026-04-04T12:33:27.001Z</time></trkpt><trkpt lat="40.88210622321927" lon="9.144205945690372"><ele>491.8</ele><time>2026-04-04T12:33:28.001Z</time></trkpt><trkpt lat="40.88202282785283" lon="9.144355646024088"><ele>492.6</ele><time>2026-04-04T12:33:29.001Z</time></trkpt><trkpt lat="40.881952641490884" lon="9.144495469199386"><ele>493.4</ele><time>2026-04-04T12:33:30.001Z</time></trkpt><trkpt lat="40.88188573516365" lon="9.144604187035348"><ele>494.2</ele><time>2026-04-04T12:33:31.001Z</time></trkpt><trkpt lat="40.88184639739707" lon="9.144671444586038"><ele>495.0</ele><time>2026-04-04T12:33:32.001Z</time></trkpt><trkpt lat="40.88177327168399" lon="9.144753578462954"><ele>496.2</ele><time>2026-04-04T12:33:34.001Z</time></trkpt><trkpt lat="40.88171017007797" lon="9.144804130614583"><ele>497.4</ele><time>2026-04-04T12:33:35.001Z</time></trkpt><trkpt lat="40.88160702047365" lon="9.144813774196901"><ele>498.6</ele><time>2026-04-04T12:33:36.001Z</time></trkpt><trkpt lat="40.88150296447546" lon="9.14486609985858"><ele>499.8</ele><time>2026-04-04T12:33:37.001Z</time></trkpt><trkpt lat="40.88140071972708" lon="9.144927900736615"><ele>501.0</ele><time>2026-04-04T12:33:38.001Z</time></trkpt><trkpt lat="40.881323527186886" lon="9.145025389194359"><ele>501.0</ele><time>2026-04-04T12:33:39.001Z</time></trkpt><trkpt lat="40.88129066374562" lon="9.14514658157703"><ele>501.0</ele><time>2026-04-04T12:33:40.001Z</time></trkpt><trkpt lat="40.88127058419822" lon="9.145261920292413"><ele>501.0</ele><time>2026-04-04T12:33:41.001Z</time></trkpt><trkpt lat="40.88126330034527" lon="9.145401659846524"><ele>501.0</ele><time>2026-04-04T12:33:42.001Z</time></trkpt><trkpt lat="40.88121209149758" lon="9.145522399419633"><ele>501.0</ele><time>2026-04-04T12:33:43.001Z</time></trkpt><trkpt lat="40.88115189626163" lon="9.145626173568935"><ele>501.0</ele><time>2026-04-04T12:33:44.001Z</time></trkpt><trkpt lat="40.88105973454718" lon="9.145708758540612"><ele>501.0</ele><time>2026-04-04T12:33:45.001Z</time></trkpt><trkpt lat="40.880948886161285" lon="9.145801808385693"><ele>501.0</ele><time>2026-04-04T12:33:46.001Z</time></trkpt><trkpt lat="40.880831852222656" lon="9.145881307208723"><ele>501.0</ele><time>2026-04-04T12:33:47.001Z</time></trkpt><trkpt lat="40.880726668572905" lon="9.145945049316982"><ele>504.0</ele><time>2026-04-04T12:33:48.001Z</time></trkpt><trkpt lat="40.8806356891563" lon="9.146017770721524"><ele>507.0</ele><time>2026-04-04T12:33:49.001Z</time></trkpt><trkpt lat="40.880563281028046" lon="9.14611731345153"><ele>510.0</ele><time>2026-04-04T12:33:50.001Z</time></trkpt><trkpt lat="40.88051579767601" lon="9.146266747151328"><ele>513.0</ele><time>2026-04-04T12:33:51.001Z</time></trkpt><trkpt lat="40.88052602010382" lon="9.146446183809697"><ele>512.0</ele><time>2026-04-04T12:33:52.001Z</time></trkpt><trkpt lat="40.880557458762546" lon="9.14660865041799"><ele>511.0</ele><time>2026-04-04T12:33:53.001Z</time></trkpt><trkpt lat="40.88058511646634" lon="9.146795027940001"><ele>510.0</ele><time>2026-04-04T12:33:54.001Z</time></trkpt><trkpt lat="40.88058519503278" lon="9.146979319838726"><ele>509.0</ele><time>2026-04-04T12:33:55.001Z</time></trkpt><trkpt lat="40.88058560850319" lon="9.147134051007795"><ele>509.0</ele><time>2026-04-04T12:33:56.001Z</time></trkpt><trkpt lat="40.88057741018071" lon="9.147275721993562"><ele>509.0</ele><time>2026-04-04T12:33:57.001Z</time></trkpt><trkpt lat="40.88055437822085" lon="9.14744987226834"><ele>509.0</ele><time>2026-04-04T12:33:58.001Z</time></trkpt><trkpt lat="40.880510779479714" lon="9.147627894250851"><ele>509.0</ele><time>2026-04-04T12:33:59.001Z</time></trkpt><trkpt lat="40.88046393595062" lon="9.147762933462499"><ele>509.75</ele><time>2026-04-04T12:34:00.001Z</time></trkpt><trkpt lat="40.880401553432925" lon="9.147881228246879"><ele>510.5</ele><time>2026-04-04T12:34:01.001Z</time></trkpt><trkpt lat="40.88032273076205" lon="9.147984889255875"><ele>511.25</ele><time>2026-04-04T12:34:02.001Z</time></trkpt><trkpt lat="40.880240400286105" lon="9.148088333855137"><ele>512.0</ele><time>2026-04-04T12:34:03.001Z</time></trkpt><trkpt lat="40.880092237807624" lon="9.14828087753238"><ele>513.0</ele><time>2026-04-04T12:34:04.001Z</time></trkpt><trkpt lat="40.88002938981975" lon="9.148387580996042"><ele>514.0</ele><time>2026-04-04T12:34:05.001Z</time></trkpt><trkpt lat="40.88001023297287" lon="9.148489594924609"><ele>515.0</ele><time>2026-04-04T12:34:06.001Z</time></trkpt><trkpt lat="40.88003033412623" lon="9.148585939626585"><ele>516.0</ele><time>2026-04-04T12:34:07.001Z</time></trkpt><trkpt lat="40.88007966948905" lon="9.148679889598988"><ele>517.0</ele><time>2026-04-04T12:34:08.001Z</time></trkpt><trkpt lat="40.88015773894354" lon="9.148744722206724"><ele>518.0</ele><time>2026-04-04T12:34:09.001Z</time></trkpt><trkpt lat="40.88022757145064" lon="9.148843927296962"><ele>518.0</ele><time>2026-04-04T12:34:10.001Z</time></trkpt><trkpt lat="40.880227418952416" lon="9.148953705490303"><ele>518.0</ele><time>2026-04-04T12:34:11.001Z</time></trkpt><trkpt lat="40.88017358322173" lon="9.149025071574382"><ele>518.0</ele><time>2026-04-04T12:34:12.001Z</time></trkpt><trkpt lat="40.880101837660966" lon="9.14903729911832"><ele>518.0</ele><time>2026-04-04T12:34:13.001Z</time></trkpt><trkpt lat="40.880012446545415" lon="9.148928343639502"><ele>518.0</ele><time>2026-04-04T12:34:15.001Z</time></trkpt><trkpt lat="40.879917826744176" lon="9.14890072871763"><ele>520.6</ele><time>2026-04-04T12:34:16.001Z</time></trkpt><trkpt lat="40.87980238299828" lon="9.14890052868225"><ele>523.1999999999999</ele><time>2026-04-04T12:34:17.001Z</time></trkpt><trkpt lat="40.87969158538979" lon="9.148878652900729"><ele>525.8</ele><time>2026-04-04T12:34:18.001Z</time></trkpt><trkpt lat="40.87960556090488" lon="9.148900075875611"><ele>528.4</ele><time>2026-04-04T12:34:19.001Z</time></trkpt><trkpt lat="40.8795358634673" lon="9.14898980354568"><ele>531.0</ele><time>2026-04-04T12:34:20.001Z</time></trkpt><trkpt lat="40.87949908468419" lon="9.149104541971498"><ele>531.0</ele><time>2026-04-04T12:34:21.001Z</time></trkpt><trkpt lat="40.879491696243306" lon="9.149243405760032"><ele>531.0</ele><time>2026-04-04T12:34:22.001Z</time></trkpt><trkpt lat="40.87946700924828" lon="9.149398558243956"><ele>531.0</ele><time>2026-04-04T12:34:23.001Z</time></trkpt><trkpt lat="40.87944223889028" lon="9.149547300879565"><ele>531.0</ele><time>2026-04-04T12:34:24.001Z</time></trkpt><trkpt lat="40.879342638815146" lon="9.149672228404805"><ele>531.0</ele><time>2026-04-04T12:34:25.001Z</time></trkpt><trkpt lat="40.879305813558034" lon="9.149783664415024"><ele>531.0</ele><time>2026-04-04T12:34:26.001Z</time></trkpt><trkpt lat="40.879282222451714" lon="9.149904509487792"><ele>531.0</ele><time>2026-04-04T12:34:27.001Z</time></trkpt><trkpt lat="40.879254515274944" lon="9.150030981457432"><ele>531.0</ele><time>2026-04-04T12:34:28.001Z</time></trkpt><trkpt lat="40.879227148063244" lon="9.150155879402803"><ele>531.0</ele><time>2026-04-04T12:34:29.001Z</time></trkpt><trkpt lat="40.87917546390349" lon="9.150231803821892"><ele>534.6666666666666</ele><time>2026-04-04T12:34:30.001Z</time></trkpt><trkpt lat="40.87906137846628" lon="9.150262206987845"><ele>538.3333333333334</ele><time>2026-04-04T12:34:32Z</time></trkpt><trkpt lat="40.87900768550209" lon="9.150213693909945"><ele>542.0</ele><time>2026-04-04T12:34:33Z</time></trkpt><trkpt lat="40.87895257406571" lon="9.150135030835287"><ele>545.6666666666667</ele><time>2026-04-04T12:34:34Z</time></trkpt><trkpt lat="40.87886117132704" lon="9.150088304691687"><ele>549.3333333333334</ele><time>2026-04-04T12:34:35Z</time></trkpt><trkpt lat="40.878796564134696" lon="9.150061760934733"><ele>553.0</ele><time>2026-04-04T12:34:36Z</time></trkpt><trkpt lat="40.8787262816939" lon="9.150110227511396"><ele>553.0</ele><time>2026-04-04T12:34:37Z</time></trkpt><trkpt lat="40.87872502883195" lon="9.150227626096855"><ele>553.0</ele><time>2026-04-04T12:34:38Z</time></trkpt><trkpt lat="40.87873251296828" lon="9.150345213321431"><ele>553.0</ele><time>2026-04-04T12:34:39Z</time></trkpt><trkpt lat="40.87876363301747" lon="9.150490203789358"><ele>553.0</ele><time>2026-04-04T12:34:40Z</time></trkpt><trkpt lat="40.87879594275733" lon="9.150630364321364"><ele>553.0</ele><time>2026-04-04T12:34:41Z</time></trkpt><trkpt lat="40.87871712423449" lon="9.150728099472996"><ele>553.0</ele><time>2026-04-04T12:34:43Z</time></trkpt><trkpt lat="40.87861472369157" lon="9.150532165624673"><ele>553.0</ele><time>2026-04-04T12:34:47Z</time></trkpt><trkpt lat="40.878584022215" lon="9.150457237434274"><ele>553.0</ele><time>2026-04-04T12:34:48Z</time></trkpt><trkpt lat="40.87851262703234" lon="9.150393609003753"><ele>553.0</ele><time>2026-04-04T12:34:50Z</time></trkpt><trkpt lat="40.87841596692846" lon="9.15047203323956"><ele>553.0</ele><time>2026-04-04T12:34:51Z</time></trkpt><trkpt lat="40.87838884069114" lon="9.150608694722452"><ele>555.75</ele><time>2026-04-04T12:34:52Z</time></trkpt><trkpt lat="40.87842404878225" lon="9.150745068859838"><ele>558.5</ele><time>2026-04-04T12:34:53Z</time></trkpt><trkpt lat="40.87842507550929" lon="9.150896905191162"><ele>561.25</ele><time>2026-04-04T12:34:54Z</time></trkpt><trkpt lat="40.87843920053704" lon="9.151058867578165"><ele>564.0</ele><time>2026-04-04T12:34:55Z</time></trkpt><trkpt lat="40.87845004340719" lon="9.151241047527144"><ele>564.0</ele><time>2026-04-04T12:34:56Z</time></trkpt><trkpt lat="40.87847231459694" lon="9.151415796902553"><ele>564.0</ele><time>2026-04-04T12:34:57Z</time></trkpt><trkpt lat="40.87847839855726" lon="9.151569454377825"><ele>564.0</ele><time>2026-04-04T12:34:58Z</time></trkpt><trkpt lat="40.87846671356121" lon="9.151731019580875"><ele>564.0</ele><time>2026-04-04T12:34:59Z</time></trkpt><trkpt lat="40.87845209194543" lon="9.151865736522684"><ele>569.4</ele><time>2026-04-04T12:35:00Z</time></trkpt><trkpt lat="40.878429946044655" lon="9.151999069913337"><ele>574.8</ele><time>2026-04-04T12:35:01Z</time></trkpt><trkpt lat="40.878392464115656" lon="9.152108017913378"><ele>580.2</ele><time>2026-04-04T12:35:02Z</time></trkpt><trkpt lat="40.878335142198" lon="9.152206701628266"><ele>585.6</ele><time>2026-04-04T12:35:03Z</time></trkpt><trkpt lat="40.87829841655118" lon="9.152350537159174"><ele>591.0</ele><time>2026-04-04T12:35:05Z</time></trkpt><trkpt lat="40.87834548342698" lon="9.152439708848716"><ele>591.3333333333334</ele><time>2026-04-04T12:35:06Z</time></trkpt><trkpt lat="40.878436109016214" lon="9.1524649778092"><ele>591.6666666666666</ele><time>2026-04-04T12:35:07Z</time></trkpt><trkpt lat="40.878523171940685" lon="9.152476645139487"><ele>592.0</ele><time>2026-04-04T12:35:08Z</time></trkpt><trkpt lat="40.87861705553248" lon="9.152512511497624"><ele>592.3333333333333</ele><time>2026-04-04T12:35:09Z</time></trkpt><trkpt lat="40.87869068416011" lon="9.152548121085779"><ele>592.6666666666666</ele><time>2026-04-04T12:35:10.001Z</time></trkpt><trkpt lat="40.8787424161896" lon="9.15261619953823"><ele>593.0</ele><time>2026-04-04T12:35:11.001Z</time></trkpt><trkpt lat="40.87875745782902" lon="9.152727424651752"><ele>593.0</ele><time>2026-04-04T12:35:12.001Z</time></trkpt><trkpt lat="40.87877993476173" lon="9.152846976460228"><ele>593.0</ele><time>2026-04-04T12:35:13.001Z</time></trkpt><trkpt lat="40.878815874004246" lon="9.152988688257935"><ele>593.0</ele><time>2026-04-04T12:35:14.001Z</time></trkpt><trkpt lat="40.87885262374164" lon="9.153129960744705"><ele>593.0</ele><time>2026-04-04T12:35:15.001Z</time></trkpt><trkpt lat="40.87891837786154" lon="9.153251989429613"><ele>593.0</ele><time>2026-04-04T12:35:16.001Z</time></trkpt><trkpt lat="40.879005062644126" lon="9.153388851273919"><ele>596.5</ele><time>2026-04-04T12:35:17.001Z</time></trkpt><trkpt lat="40.8790949606442" lon="9.153533444983378"><ele>600.0</ele><time>2026-04-04T12:35:18.001Z</time></trkpt><trkpt lat="40.87918171476408" lon="9.153634267670396"><ele>603.5</ele><time>2026-04-04T12:35:19.001Z</time></trkpt><trkpt lat="40.87924818086501" lon="9.153725715779979"><ele>607.0</ele><time>2026-04-04T12:35:20.001Z</time></trkpt><trkpt lat="40.87935264324549" lon="9.153807643643377"><ele>608.5</ele><time>2026-04-04T12:35:21.001Z</time></trkpt><trkpt lat="40.87947862786493" lon="9.153886232434408"><ele>610.0</ele><time>2026-04-04T12:35:22.001Z</time></trkpt><trkpt lat="40.87960170444461" lon="9.153960772918051"><ele>611.5</ele><time>2026-04-04T12:35:23.001Z</time></trkpt><trkpt lat="40.87971008787343" lon="9.154021309579209"><ele>613.0</ele><time>2026-04-04T12:35:24.001Z</time></trkpt><trkpt lat="40.87977972280431" lon="9.154070195473732"><ele>613.4</ele><time>2026-04-04T12:35:25.001Z</time></trkpt><trkpt lat="40.87982959148624" lon="9.154131076843004"><ele>613.8</ele><time>2026-04-04T12:35:26.001Z</time></trkpt><trkpt lat="40.87985620382593" lon="9.154231962764468"><ele>614.2</ele><time>2026-04-04T12:35:27.001Z</time></trkpt><trkpt lat="40.87986042071328" lon="9.154365026614276"><ele>614.6</ele><time>2026-04-04T12:35:28.001Z</time></trkpt><trkpt lat="40.8799018089158" lon="9.154490116525587"><ele>615.0</ele><time>2026-04-04T12:35:29.001Z</time></trkpt><trkpt lat="40.879967664915085" lon="9.154599148502063"><ele>615.0</ele><time>2026-04-04T12:35:30.001Z</time></trkpt><trkpt lat="40.880048275825054" lon="9.154673424694014"><ele>615.0</ele><time>2026-04-04T12:35:31.001Z</time></trkpt><trkpt lat="40.880127514883526" lon="9.15469509213114"><ele>615.0</ele><time>2026-04-04T12:35:32.001Z</time></trkpt><trkpt lat="40.880250603317556" lon="9.15466253313359"><ele>615.0</ele><time>2026-04-04T12:35:34.001Z</time></trkpt><trkpt lat="40.88027548346373" lon="9.154511013489756"><ele>615.0</ele><time>2026-04-04T12:35:35.001Z</time></trkpt><trkpt lat="40.88033019875064" lon="9.154397234094466"><ele>613.75</ele><time>2026-04-04T12:35:36.001Z</time></trkpt><trkpt lat="40.88036935286776" lon="9.154271241722995"><ele>612.5</ele><time>2026-04-04T12:35:37.001Z</time></trkpt><trkpt lat="40.88042805778452" lon="9.154098974360851"><ele>611.25</ele><time>2026-04-04T12:35:38.001Z</time></trkpt><trkpt lat="40.88048831738271" lon="9.153959734386756"><ele>610.0</ele><time>2026-04-04T12:35:39.001Z</time></trkpt><trkpt lat="40.88054802157892" lon="9.153831623473549"><ele>610.0</ele><time>2026-04-04T12:35:40.001Z</time></trkpt><trkpt lat="40.88059390554858" lon="9.153756692826647"><ele>610.0</ele><time>2026-04-04T12:35:41.001Z</time></trkpt><trkpt lat="40.88069012907965" lon="9.15372277537264"><ele>610.0</ele><time>2026-04-04T12:35:43.001Z</time></trkpt><trkpt lat="40.880748078682245" lon="9.153847188662581"><ele>610.0</ele><time>2026-04-04T12:35:45.001Z</time></trkpt><trkpt lat="40.88069648850369" lon="9.153932623064382"><ele>610.0</ele><time>2026-04-04T12:35:46.001Z</time></trkpt><trkpt lat="40.880672113287055" lon="9.154032125756736"><ele>610.0</ele><time>2026-04-04T12:35:47.001Z</time></trkpt><trkpt lat="40.88064536985119" lon="9.154137916999185"><ele>613.8</ele><time>2026-04-04T12:35:48.001Z</time></trkpt><trkpt lat="40.88063580366983" lon="9.154246044907989"><ele>617.6</ele><time>2026-04-04T12:35:49.001Z</time></trkpt><trkpt lat="40.880648931685464" lon="9.154357620596679"><ele>621.4</ele><time>2026-04-04T12:35:50.001Z</time></trkpt><trkpt lat="40.88070739008558" lon="9.15446872514518"><ele>625.2</ele><time>2026-04-04T12:35:51.001Z</time></trkpt><trkpt lat="40.88080396276833" lon="9.154572332353585"><ele>629.0</ele><time>2026-04-04T12:35:52.001Z</time></trkpt><trkpt lat="40.88089289042403" lon="9.154698676871497"><ele>628.75</ele><time>2026-04-04T12:35:53.001Z</time></trkpt><trkpt lat="40.88098289020854" lon="9.15481274871258"><ele>628.5</ele><time>2026-04-04T12:35:54.001Z</time></trkpt><trkpt lat="40.88109510549229" lon="9.154924485261676"><ele>628.25</ele><time>2026-04-04T12:35:55.001Z</time></trkpt><trkpt lat="40.881189168945944" lon="9.155062508394295"><ele>628.0</ele><time>2026-04-04T12:35:56.001Z</time></trkpt><trkpt lat="40.88128616397555" lon="9.155200833095822"><ele>632.0</ele><time>2026-04-04T12:35:57.001Z</time></trkpt><trkpt lat="40.881373562758974" lon="9.155329444702591"><ele>636.0</ele><time>2026-04-04T12:35:58.001Z</time></trkpt><trkpt lat="40.8814574744834" lon="9.155456913545406"><ele>640.0</ele><time>2026-04-04T12:35:59.001Z</time></trkpt><trkpt lat="40.881523848996274" lon="9.155563209880471"><ele>644.0</ele><time>2026-04-04T12:36:00.001Z</time></trkpt><trkpt lat="40.88158576122519" lon="9.155665946281218"><ele>646.0</ele><time>2026-04-04T12:36:01.001Z</time></trkpt><trkpt lat="40.88163873241372" lon="9.155754468366842"><ele>648.0</ele><time>2026-04-04T12:36:02.001Z</time></trkpt><trkpt lat="40.88168198360966" lon="9.155828263090708"><ele>650.0</ele><time>2026-04-04T12:36:03.001Z</time></trkpt><trkpt lat="40.8817506807278" lon="9.155948495761946"><ele>652.0</ele><time>2026-04-04T12:36:05.001Z</time></trkpt><trkpt lat="40.8818019812194" lon="9.156038497918495"><ele>654.0</ele><time>2026-04-04T12:36:08.001Z</time></trkpt><trkpt lat="40.88170452748083" lon="9.1560445940914"><ele>654.0</ele><time>2026-04-04T12:36:33.001Z</time></trkpt><trkpt lat="40.88161944520334" lon="9.156024562198889"><ele>654.0</ele><time>2026-04-04T12:36:34.001Z</time></trkpt><trkpt lat="40.881528277399454" lon="9.15601549714401"><ele>654.0</ele><time>2026-04-04T12:36:35.001Z</time></trkpt><trkpt lat="40.881429353998165" lon="9.156032269311227"><ele>654.0</ele><time>2026-04-04T12:36:36.001Z</time></trkpt><trkpt lat="40.88134563065202" lon="9.156064302317361"><ele>654.0</ele><time>2026-04-04T12:36:37.001Z</time></trkpt><trkpt lat="40.88125723458792" lon="9.156134124570018"><ele>654.0</ele><time>2026-04-04T12:36:38Z</time></trkpt><trkpt lat="40.88115355863855" lon="9.156228695350443"><ele>654.0</ele><time>2026-04-04T12:36:39Z</time></trkpt><trkpt lat="40.88106821533471" lon="9.156281728700556"><ele>654.0</ele><time>2026-04-04T12:36:40Z</time></trkpt><trkpt lat="40.88097051952471" lon="9.156301423458514"><ele>654.0</ele><time>2026-04-04T12:36:41Z</time></trkpt><trkpt lat="40.880891940660774" lon="9.156305916479068"><ele>654.0</ele><time>2026-04-04T12:36:42Z</time></trkpt><trkpt lat="40.88083000596261" lon="9.156336217254143"><ele>653.2</ele><time>2026-04-04T12:36:43Z</time></trkpt><trkpt lat="40.8807857961461" lon="9.156396429275652"><ele>652.4000000000001</ele><time>2026-04-04T12:36:44Z</time></trkpt><trkpt lat="40.8807324026647" lon="9.156502343087055"><ele>651.6</ele><time>2026-04-04T12:36:45Z</time></trkpt><trkpt lat="40.88067260310581" lon="9.156625578166032"><ele>650.8</ele><time>2026-04-04T12:36:46Z</time></trkpt><trkpt lat="40.88059688979785" lon="9.156748366444145"><ele>650.0</ele><time>2026-04-04T12:36:47Z</time></trkpt><trkpt lat="40.880506306467105" lon="9.156854721403597"><ele>651.3333333333333</ele><time>2026-04-04T12:36:48Z</time></trkpt><trkpt lat="40.88042258145849" lon="9.156947924978423"><ele>652.6666666666666</ele><time>2026-04-04T12:36:49Z</time></trkpt><trkpt lat="40.8803387818451" lon="9.157017428233722"><ele>654.0</ele><time>2026-04-04T12:36:50Z</time></trkpt><trkpt lat="40.88026196091149" lon="9.157062369807347"><ele>655.3333333333334</ele><time>2026-04-04T12:36:51Z</time></trkpt><trkpt lat="40.88019747175768" lon="9.157084302100598"><ele>656.6666666666667</ele><time>2026-04-04T12:36:52Z</time></trkpt><trkpt lat="40.88012465805041" lon="9.157087125712271"><ele>658.0</ele><time>2026-04-04T12:36:53Z</time></trkpt><trkpt lat="40.880054404874976" lon="9.157081706638856"><ele>658.0</ele><time>2026-04-04T12:36:54Z</time></trkpt><trkpt lat="40.879959733240106" lon="9.157064975530142"><ele>658.0</ele><time>2026-04-04T12:36:55Z</time></trkpt><trkpt lat="40.87983539320714" lon="9.157045781970849"><ele>658.0</ele><time>2026-04-04T12:36:56Z</time></trkpt><trkpt lat="40.87970133208728" lon="9.157074636739635"><ele>658.0</ele><time>2026-04-04T12:36:57Z</time></trkpt><trkpt lat="40.87958366662136" lon="9.15712148456756"><ele>658.0</ele><time>2026-04-04T12:36:58Z</time></trkpt><trkpt lat="40.879479816169905" lon="9.157141774421829"><ele>658.0</ele><time>2026-04-04T12:36:59Z</time></trkpt><trkpt lat="40.87936394855954" lon="9.157148122421663"><ele>658.0</ele><time>2026-04-04T12:37:00Z</time></trkpt><trkpt lat="40.87923995292883" lon="9.1571450847818"><ele>658.0</ele><time>2026-04-04T12:37:01Z</time></trkpt><trkpt lat="40.87912130987846" lon="9.157146918203628"><ele>658.2</ele><time>2026-04-04T12:37:02Z</time></trkpt><trkpt lat="40.879011651481" lon="9.15716630325326"><ele>658.4</ele><time>2026-04-04T12:37:03Z</time></trkpt><trkpt lat="40.878902140072576" lon="9.157206006052666"><ele>658.6</ele><time>2026-04-04T12:37:04Z</time></trkpt><trkpt lat="40.87880479794074" lon="9.157261014835782"><ele>658.8000000000001</ele><time>2026-04-04T12:37:05Z</time></trkpt><trkpt lat="40.87871096569518" lon="9.157291248673408"><ele>659.0</ele><time>2026-04-04T12:37:06Z</time></trkpt><trkpt lat="40.87864091511754" lon="9.157321623107725"><ele>661.8333333333333</ele><time>2026-04-04T12:37:07Z</time></trkpt><trkpt lat="40.87855806170286" lon="9.157386650366258"><ele>664.6666666666666</ele><time>2026-04-04T12:37:08Z</time></trkpt><trkpt lat="40.878483489097995" lon="9.157452618772991"><ele>667.5</ele><time>2026-04-04T12:37:09Z</time></trkpt><trkpt lat="40.87841637768402" lon="9.157450642604767"><ele>670.3333333333334</ele><time>2026-04-04T12:37:10Z</time></trkpt><trkpt lat="40.878345363917326" lon="9.15739106987983"><ele>673.1666666666667</ele><time>2026-04-04T12:37:11Z</time></trkpt><trkpt lat="40.878266915449814" lon="9.15730715466242"><ele>676.0</ele><time>2026-04-04T12:37:12Z</time></trkpt><trkpt lat="40.878206073099385" lon="9.15718766026072"><ele>676.5</ele><time>2026-04-04T12:37:13Z</time></trkpt><trkpt lat="40.87815818802408" lon="9.157063829257506"><ele>677.0</ele><time>2026-04-04T12:37:14Z</time></trkpt><trkpt lat="40.87812144039889" lon="9.156973138969482"><ele>677.5</ele><time>2026-04-04T12:37:15Z</time></trkpt><trkpt lat="40.878009121197685" lon="9.156962500059123"><ele>678.0</ele><time>2026-04-04T12:37:17.001Z</time></trkpt><trkpt lat="40.8779352781665" lon="9.157006030405396"><ele>678.5</ele><time>2026-04-04T12:37:18.001Z</time></trkpt><trkpt lat="40.87787059276197" lon="9.156974222409794"><ele>679.0</ele><time>2026-04-04T12:37:20.001Z</time></trkpt><trkpt lat="40.87790299330766" lon="9.15680231790543"><ele>679.0</ele><time>2026-04-04T12:37:22.001Z</time></trkpt><trkpt lat="40.87791726022521" lon="9.156697005327338"><ele>679.0</ele><time>2026-04-04T12:37:23.001Z</time></trkpt><trkpt lat="40.877893482476246" lon="9.156607465088815"><ele>679.0</ele><time>2026-04-04T12:37:24.001Z</time></trkpt><trkpt lat="40.87784729411721" lon="9.156545218568272"><ele>679.0</ele><time>2026-04-04T12:37:25.001Z</time></trkpt><trkpt lat="40.87778875986909" lon="9.156498684468184"><ele>679.0</ele><time>2026-04-04T12:37:26.001Z</time></trkpt><trkpt lat="40.87773300913488" lon="9.156446526232834"><ele>679.0</ele><time>2026-04-04T12:37:27.001Z</time></trkpt><trkpt lat="40.87770334225054" lon="9.156362959077823"><ele>679.0</ele><time>2026-04-04T12:37:28.001Z</time></trkpt><trkpt lat="40.87766103117705" lon="9.156234382188842"><ele>679.75</ele><time>2026-04-04T12:37:29.001Z</time></trkpt><trkpt lat="40.877602874251494" lon="9.156106822438824"><ele>680.5</ele><time>2026-04-04T12:37:30.001Z</time></trkpt><trkpt lat="40.877513333939085" lon="9.15600285082552"><ele>681.25</ele><time>2026-04-04T12:37:31.001Z</time></trkpt><trkpt lat="40.87741624272242" lon="9.155916138705825"><ele>682.0</ele><time>2026-04-04T12:37:32.001Z</time></trkpt><trkpt lat="40.877314025887" lon="9.155809369015286"><ele>684.8</ele><time>2026-04-04T12:37:33.001Z</time></trkpt><trkpt lat="40.87720972424753" lon="9.155719595851261"><ele>687.6</ele><time>2026-04-04T12:37:34.001Z</time></trkpt><trkpt lat="40.87712960578116" lon="9.155669956991394"><ele>690.4</ele><time>2026-04-04T12:37:35.001Z</time></trkpt><trkpt lat="40.877056073474954" lon="9.155657598987792"><ele>693.1999999999999</ele><time>2026-04-04T12:37:36.001Z</time></trkpt><trkpt lat="40.876950844850924" lon="9.155683276368661"><ele>696.0</ele><time>2026-04-04T12:37:37.001Z</time></trkpt><trkpt lat="40.87687445366127" lon="9.155691501862924"><ele>696.0</ele><time>2026-04-04T12:37:38.001Z</time></trkpt><trkpt lat="40.876808424671886" lon="9.155631863519735"><ele>696.0</ele><time>2026-04-04T12:37:39.001Z</time></trkpt><trkpt lat="40.87671921976973" lon="9.155529710476916"><ele>696.0</ele><time>2026-04-04T12:37:40.001Z</time></trkpt><trkpt lat="40.87663683338573" lon="9.155383687908307"><ele>696.0</ele><time>2026-04-04T12:37:41.001Z</time></trkpt><trkpt lat="40.87656763104257" lon="9.155257210959983"><ele>695.5999999999999</ele><time>2026-04-04T12:37:42.001Z</time></trkpt><trkpt lat="40.87653087646958" lon="9.155142320600985"><ele>695.2</ele><time>2026-04-04T12:37:43.001Z</time></trkpt><trkpt lat="40.87650080856317" lon="9.154966327915371"><ele>694.8</ele><time>2026-04-04T12:37:44.001Z</time></trkpt><trkpt lat="40.87646893988816" lon="9.154821745453775"><ele>694.4000000000001</ele><time>2026-04-04T12:37:45.001Z</time></trkpt><trkpt lat="40.876449379057654" lon="9.154711421505239"><ele>694.0</ele><time>2026-04-04T12:37:46.001Z</time></trkpt><trkpt lat="40.87646311752849" lon="9.154580783748818"><ele>694.0</ele><time>2026-04-04T12:37:47.001Z</time></trkpt><trkpt lat="40.87648588080618" lon="9.154417055648663"><ele>694.0</ele><time>2026-04-04T12:37:48.001Z</time></trkpt><trkpt lat="40.876474791546435" lon="9.154272008656761"><ele>694.0</ele><time>2026-04-04T12:37:49.001Z</time></trkpt><trkpt lat="40.87642377370867" lon="9.154147257159991"><ele>694.0</ele><time>2026-04-04T12:37:50.001Z</time></trkpt><trkpt lat="40.87636497089837" lon="9.154028676477186"><ele>691.4000000000001</ele><time>2026-04-04T12:37:51.001Z</time></trkpt><trkpt lat="40.87628963741102" lon="9.153903318682701"><ele>688.8</ele><time>2026-04-04T12:37:52.001Z</time></trkpt><trkpt lat="40.87622407823167" lon="9.153779154801308"><ele>686.2</ele><time>2026-04-04T12:37:53.001Z</time></trkpt><trkpt lat="40.87617780386004" lon="9.153669264560392"><ele>683.5999999999999</ele><time>2026-04-04T12:37:54.001Z</time></trkpt><trkpt lat="40.87613921199741" lon="9.153579799388986"><ele>681.0</ele><time>2026-04-04T12:37:55.001Z</time></trkpt><trkpt lat="40.87612007033275" lon="9.153492701626302"><ele>681.0</ele><time>2026-04-04T12:37:56.001Z</time></trkpt><trkpt lat="40.87613359934677" lon="9.153402497095152"><ele>681.0</ele><time>2026-04-04T12:37:57.001Z</time></trkpt><trkpt lat="40.87614113494" lon="9.153288939473697"><ele>681.0</ele><time>2026-04-04T12:37:58.001Z</time></trkpt><trkpt lat="40.87609698435916" lon="9.153172383545073"><ele>681.0</ele><time>2026-04-04T12:37:59.001Z</time></trkpt><trkpt lat="40.876033179343224" lon="9.153064108072556"><ele>681.0</ele><time>2026-04-04T12:38:00.001Z</time></trkpt><trkpt lat="40.87599109824776" lon="9.152943563026799"><ele>679.5</ele><time>2026-04-04T12:38:01.001Z</time></trkpt><trkpt lat="40.8759972525902" lon="9.152825990553946"><ele>678.0</ele><time>2026-04-04T12:38:02.001Z</time></trkpt><trkpt lat="40.87600683148465" lon="9.152654783545222"><ele>676.5</ele><time>2026-04-04T12:38:03.001Z</time></trkpt><trkpt lat="40.87599305460768" lon="9.152487722915174"><ele>675.0</ele><time>2026-04-04T12:38:04.001Z</time></trkpt><trkpt lat="40.87596470145397" lon="9.152352372689501"><ele>683.6</ele><time>2026-04-04T12:38:05.001Z</time></trkpt><trkpt lat="40.875921944532074" lon="9.152270496880174"><ele>692.2</ele><time>2026-04-04T12:38:06.001Z</time></trkpt><trkpt lat="40.87586291714092" lon="9.152179300841533"><ele>700.8</ele><time>2026-04-04T12:38:07.001Z</time></trkpt><trkpt lat="40.87577950828762" lon="9.152074095444064"><ele>709.4</ele><time>2026-04-04T12:38:08.001Z</time></trkpt><trkpt lat="40.875709617097" lon="9.15193630547583"><ele>718.0</ele><time>2026-04-04T12:38:09.001Z</time></trkpt><trkpt lat="40.87566628323501" lon="9.151784246179584"><ele>718.0</ele><time>2026-04-04T12:38:10.001Z</time></trkpt><trkpt lat="40.87562565144974" lon="9.151629598427537"><ele>718.0</ele><time>2026-04-04T12:38:11.001Z</time></trkpt><trkpt lat="40.8755871367752" lon="9.15150065514711"><ele>718.0</ele><time>2026-04-04T12:38:12.001Z</time></trkpt><trkpt lat="40.87557858796903" lon="9.151394877395854"><ele>718.0</ele><time>2026-04-04T12:38:13.001Z</time></trkpt><trkpt lat="40.875602845147775" lon="9.151266896601824"><ele>718.0</ele><time>2026-04-04T12:38:14.001Z</time></trkpt><trkpt lat="40.875628870474195" lon="9.151124879504872"><ele>719.2</ele><time>2026-04-04T12:38:15.001Z</time></trkpt><trkpt lat="40.87565005627597" lon="9.150980051107043"><ele>720.4</ele><time>2026-04-04T12:38:16.001Z</time></trkpt><trkpt lat="40.87566651603025" lon="9.150837751950553"><ele>721.6</ele><time>2026-04-04T12:38:17.001Z</time></trkpt><trkpt lat="40.87567162003362" lon="9.150695335409866"><ele>722.8000000000001</ele><time>2026-04-04T12:38:18.001Z</time></trkpt><trkpt lat="40.875647079971706" lon="9.150597627815074"><ele>724.0</ele><time>2026-04-04T12:38:19.001Z</time></trkpt><trkpt lat="40.87559491607494" lon="9.150500690608261"><ele>724.5</ele><time>2026-04-04T12:38:20.001Z</time></trkpt><trkpt lat="40.87552175561116" lon="9.150390359050652"><ele>725.0</ele><time>2026-04-04T12:38:21.001Z</time></trkpt><trkpt lat="40.875425979225" lon="9.150292470475538"><ele>725.5</ele><time>2026-04-04T12:38:22.001Z</time></trkpt><trkpt lat="40.875325842907614" lon="9.150192813811078"><ele>726.0</ele><time>2026-04-04T12:38:23.001Z</time></trkpt><trkpt lat="40.8752529245322" lon="9.15005358052159"><ele>725.5</ele><time>2026-04-04T12:38:24.001Z</time></trkpt><trkpt lat="40.87519076333764" lon="9.149870223761575"><ele>725.0</ele><time>2026-04-04T12:38:25.001Z</time></trkpt><trkpt lat="40.87513295371435" lon="9.149714453720108"><ele>724.5</ele><time>2026-04-04T12:38:26.001Z</time></trkpt><trkpt lat="40.875097706506565" lon="9.149598247014774"><ele>724.0</ele><time>2026-04-04T12:38:27.001Z</time></trkpt><trkpt lat="40.87505776602867" lon="9.14947374239347"><ele>731.25</ele><time>2026-04-04T12:38:28.001Z</time></trkpt><trkpt lat="40.87498343901037" lon="9.149359824914653"><ele>738.5</ele><time>2026-04-04T12:38:29.001Z</time></trkpt><trkpt lat="40.87491627201692" lon="9.149235278487117"><ele>745.75</ele><time>2026-04-04T12:38:30.001Z</time></trkpt><trkpt lat="40.87486775136245" lon="9.149095505674245"><ele>753.0</ele><time>2026-04-04T12:38:31.001Z</time></trkpt><trkpt lat="40.874834107049594" lon="9.148951135886229"><ele>753.0</ele><time>2026-04-04T12:38:32.001Z</time></trkpt><trkpt lat="40.87481159034158" lon="9.14880921926075"><ele>753.0</ele><time>2026-04-04T12:38:33.001Z</time></trkpt><trkpt lat="40.87477684189665" lon="9.148715671347313"><ele>753.0</ele><time>2026-04-04T12:38:34.001Z</time></trkpt><trkpt lat="40.87472327262484" lon="9.148642775647447"><ele>753.0</ele><time>2026-04-04T12:38:35.001Z</time></trkpt><trkpt lat="40.874642082662085" lon="9.14857275697967"><ele>753.0</ele><time>2026-04-04T12:38:36.001Z</time></trkpt><trkpt lat="40.87455729505503" lon="9.14848463142563"><ele>753.0</ele><time>2026-04-04T12:38:37.001Z</time></trkpt><trkpt lat="40.87448383210806" lon="9.148352500352173"><ele>753.0</ele><time>2026-04-04T12:38:38.001Z</time></trkpt><trkpt lat="40.87441734410847" lon="9.148195715856756"><ele>753.0</ele><time>2026-04-04T12:38:39.001Z</time></trkpt><trkpt lat="40.87434361414773" lon="9.14803453911375"><ele>753.0</ele><time>2026-04-04T12:38:40.001Z</time></trkpt><trkpt lat="40.87425211078962" lon="9.147903675807257"><ele>756.5999999999999</ele><time>2026-04-04T12:38:41.001Z</time></trkpt><trkpt lat="40.87415981912483" lon="9.147797944724882"><ele>760.1999999999999</ele><time>2026-04-04T12:38:42.001Z</time></trkpt><trkpt lat="40.87409768355442" lon="9.147687753962002"><ele>763.8</ele><time>2026-04-04T12:38:43.001Z</time></trkpt><trkpt lat="40.874047878071835" lon="9.147569533464926"><ele>767.4</ele><time>2026-04-04T12:38:44Z</time></trkpt><trkpt lat="40.87397916269543" lon="9.147490580503165"><ele>771.0</ele><time>2026-04-04T12:38:45Z</time></trkpt><trkpt lat="40.87390350569656" lon="9.147432933984462"><ele>771.0</ele><time>2026-04-04T12:38:46Z</time></trkpt><trkpt lat="40.87379649983364" lon="9.14741425308696"><ele>771.0</ele><time>2026-04-04T12:38:47Z</time></trkpt><trkpt lat="40.87369852332444" lon="9.147395383689744"><ele>771.0</ele><time>2026-04-04T12:38:48Z</time></trkpt><trkpt lat="40.873636935330026" lon="9.147347900030788"><ele>771.0</ele><time>2026-04-04T12:38:49Z</time></trkpt><trkpt lat="40.873552974425515" lon="9.147246270282045"><ele>771.0</ele><time>2026-04-04T12:38:50Z</time></trkpt><trkpt lat="40.87346094989997" lon="9.147112189546466"><ele>771.8333333333334</ele><time>2026-04-04T12:38:51Z</time></trkpt><trkpt lat="40.87338360396558" lon="9.147000795710584"><ele>772.6666666666667</ele><time>2026-04-04T12:38:52Z</time></trkpt><trkpt lat="40.87330817509596" lon="9.146919934282325"><ele>773.5</ele><time>2026-04-04T12:38:53Z</time></trkpt><trkpt lat="40.87325506762151" lon="9.146859431905098"><ele>774.3333333333334</ele><time>2026-04-04T12:38:54Z</time></trkpt><trkpt lat="40.87322285511019" lon="9.146780796427127"><ele>775.1666666666667</ele><time>2026-04-04T12:38:55Z</time></trkpt><trkpt lat="40.87321377551172" lon="9.146673137194536"><ele>776.0</ele><time>2026-04-04T12:38:56Z</time></trkpt><trkpt lat="40.873203882792254" lon="9.146512916785277"><ele>773.8</ele><time>2026-04-04T12:38:57Z</time></trkpt><trkpt lat="40.87321545570523" lon="9.14634534239016"><ele>771.5999999999999</ele><time>2026-04-04T12:38:58Z</time></trkpt><trkpt lat="40.8732272878064" lon="9.146179083791267"><ele>769.4</ele><time>2026-04-04T12:38:59Z</time></trkpt><trkpt lat="40.8732331854008" lon="9.1460384199007"><ele>767.2</ele><time>2026-04-04T12:39:00Z</time></trkpt><trkpt lat="40.87323278327023" lon="9.14592990215199"><ele>765.0</ele><time>2026-04-04T12:39:01Z</time></trkpt><trkpt lat="40.87318886072477" lon="9.14579216970311"><ele>765.0</ele><time>2026-04-04T12:39:03Z</time></trkpt><trkpt lat="40.8731209994575" lon="9.145727522701572"><ele>765.0</ele><time>2026-04-04T12:39:04Z</time></trkpt><trkpt lat="40.87302907140836" lon="9.14568840900383"><ele>765.0</ele><time>2026-04-04T12:39:05Z</time></trkpt><trkpt lat="40.87293741066961" lon="9.145664836867304"><ele>765.0</ele><time>2026-04-04T12:39:06Z</time></trkpt><trkpt lat="40.87282621751311" lon="9.145683493542371"><ele>765.0</ele><time>2026-04-04T12:39:07Z</time></trkpt><trkpt lat="40.87268072217791" lon="9.145713758776738"><ele>763.6666666666666</ele><time>2026-04-04T12:39:08Z</time></trkpt><trkpt lat="40.87251914068468" lon="9.145722433850645"><ele>762.3333333333333</ele><time>2026-04-04T12:39:09Z</time></trkpt><trkpt lat="40.87236924791104" lon="9.145692596099146"><ele>761.0</ele><time>2026-04-04T12:39:10Z</time></trkpt><trkpt lat="40.87222217432582" lon="9.145701800634628"><ele>761.0</ele><time>2026-04-04T12:39:11Z</time></trkpt><trkpt lat="40.87208247289101" lon="9.145706832597291"><ele>761.0</ele><time>2026-04-04T12:39:12Z</time></trkpt><trkpt lat="40.87197488082246" lon="9.145680231293495"><ele>761.0</ele><time>2026-04-04T12:39:13Z</time></trkpt><trkpt lat="40.87186189947207" lon="9.145649723462569"><ele>761.0</ele><time>2026-04-04T12:39:14Z</time></trkpt><trkpt lat="40.87173824877254" lon="9.145604593430315"><ele>764.5</ele><time>2026-04-04T12:39:15Z</time></trkpt><trkpt lat="40.87161156869868" lon="9.145560137196483"><ele>768.0</ele><time>2026-04-04T12:39:16Z</time></trkpt><trkpt lat="40.87148702522365" lon="9.145516524590276"><ele>771.5</ele><time>2026-04-04T12:39:17Z</time></trkpt><trkpt lat="40.871360625575214" lon="9.145469838261166"><ele>775.0</ele><time>2026-04-04T12:39:18Z</time></trkpt><trkpt lat="40.87123041539003" lon="9.145414726996723"><ele>775.0</ele><time>2026-04-04T12:39:19Z</time></trkpt><trkpt lat="40.87110530607405" lon="9.145362016583311"><ele>775.0</ele><time>2026-04-04T12:39:20Z</time></trkpt><trkpt lat="40.870974092789105" lon="9.145313206716231"><ele>775.0</ele><time>2026-04-04T12:39:21Z</time></trkpt><trkpt lat="40.87088116806677" lon="9.14527929583157"><ele>775.0</ele><time>2026-04-04T12:39:22Z</time></trkpt><trkpt lat="40.87078509059742" lon="9.145254479162157"><ele>777.8</ele><time>2026-04-04T12:39:23Z</time></trkpt><trkpt lat="40.870700485291856" lon="9.145301401052656"><ele>780.6</ele><time>2026-04-04T12:39:25.001Z</time></trkpt><trkpt lat="40.870746934396465" lon="9.145459086021534"><ele>783.4000000000001</ele><time>2026-04-04T12:39:27.001Z</time></trkpt><trkpt lat="40.870805071505096" lon="9.145522493925201"><ele>786.2</ele><time>2026-04-04T12:39:28.001Z</time></trkpt><trkpt lat="40.87085393812606" lon="9.145616981632475"><ele>789.0</ele><time>2026-04-04T12:39:29.001Z</time></trkpt><trkpt lat="40.87080413540673" lon="9.14574432526729"><ele>789.0</ele><time>2026-04-04T12:39:31.001Z</time></trkpt><trkpt lat="40.87073026264945" lon="9.14575657532642"><ele>789.0</ele><time>2026-04-04T12:39:32.001Z</time></trkpt><trkpt lat="40.87063767761476" lon="9.145698501926592"><ele>789.0</ele><time>2026-04-04T12:39:33.001Z</time></trkpt><trkpt lat="40.870562971958655" lon="9.145621071086396"><ele>789.0</ele><time>2026-04-04T12:39:34.001Z</time></trkpt><trkpt lat="40.870505024154134" lon="9.145559891287297"><ele>789.0</ele><time>2026-04-04T12:39:35.001Z</time></trkpt><trkpt lat="40.87042612143764" lon="9.14563636733192"><ele>789.0</ele><time>2026-04-04T12:39:37.001Z</time></trkpt><trkpt lat="40.87040378902555" lon="9.145740105532502"><ele>791.3333333333334</ele><time>2026-04-04T12:39:38.001Z</time></trkpt><trkpt lat="40.87040121031453" lon="9.145838994363102"><ele>793.6666666666667</ele><time>2026-04-04T12:39:39.001Z</time></trkpt><trkpt lat="40.8704074063018" lon="9.145930738449005"><ele>796.0</ele><time>2026-04-04T12:39:40.001Z</time></trkpt><trkpt lat="40.87036124572177" lon="9.146030100540443"><ele>798.3333333333334</ele><time>2026-04-04T12:39:42.001Z</time></trkpt><trkpt lat="40.87029350045654" lon="9.146039938288824"><ele>800.6666666666667</ele><time>2026-04-04T12:39:43.001Z</time></trkpt><trkpt lat="40.87021332600151" lon="9.146036274709871"><ele>803.0</ele><time>2026-04-04T12:39:44.001Z</time></trkpt><trkpt lat="40.87012607146008" lon="9.145922888795903"><ele>806.0000000000001</ele><time>2026-04-04T12:39:46.001Z</time></trkpt><trkpt lat="40.87010399039773" lon="9.145843845465947"><ele>809.0</ele><time>2026-04-04T12:39:47.001Z</time></trkpt><trkpt lat="40.87006222008662" lon="9.145775477564282"><ele>812.0</ele><time>2026-04-04T12:39:48.001Z</time></trkpt><trkpt lat="40.869961065223606" lon="9.145789096219874"><ele>815.0</ele><time>2026-04-04T12:39:50.001Z</time></trkpt><trkpt lat="40.86989424460486" lon="9.145856655803575"><ele>818.0000000000001</ele><time>2026-04-04T12:39:51.001Z</time></trkpt><trkpt lat="40.86982222347013" lon="9.145936989271645"><ele>821.0</ele><time>2026-04-04T12:39:52.001Z</time></trkpt><trkpt lat="40.86975039231743" lon="9.146012499906652"><ele>821.0</ele><time>2026-04-04T12:39:53.001Z</time></trkpt><trkpt lat="40.86967058334043" lon="9.146068452546118"><ele>821.0</ele><time>2026-04-04T12:39:54.001Z</time></trkpt><trkpt lat="40.869596343586984" lon="9.14612017370285"><ele>821.0</ele><time>2026-04-04T12:39:55.001Z</time></trkpt><trkpt lat="40.86951504517851" lon="9.146179083744682"><ele>821.0</ele><time>2026-04-04T12:39:56.001Z</time></trkpt><trkpt lat="40.869411955735806" lon="9.146273632898511"><ele>821.0</ele><time>2026-04-04T12:39:57.001Z</time></trkpt><trkpt lat="40.86932785774495" lon="9.146324995305472"><ele>823.8</ele><time>2026-04-04T12:39:58.001Z</time></trkpt><trkpt lat="40.869235505137844" lon="9.146349916677194"><ele>826.5999999999999</ele><time>2026-04-04T12:39:59.001Z</time></trkpt><trkpt lat="40.86914839052669" lon="9.146344061087342"><ele>829.4</ele><time>2026-04-04T12:40:00.001Z</time></trkpt><trkpt lat="40.86906383784948" lon="9.146377733443032"><ele>832.2</ele><time>2026-04-04T12:40:01.001Z</time></trkpt><trkpt lat="40.86897773636976" lon="9.146448195576813"><ele>835.0</ele><time>2026-04-04T12:40:02.001Z</time></trkpt><trkpt lat="40.868898036992235" lon="9.146498751683307"><ele>834.9999999999999</ele><time>2026-04-04T12:40:03.001Z</time></trkpt><trkpt lat="40.86882606864084" lon="9.146518781505346"><ele>835.0</ele><time>2026-04-04T12:40:04.001Z</time></trkpt><trkpt lat="40.86875803521534" lon="9.14650624058945"><ele>835.0</ele><time>2026-04-04T12:40:05.001Z</time></trkpt><trkpt lat="40.868706368790285" lon="9.146450813709748"><ele>835.0</ele><time>2026-04-04T12:40:06.001Z</time></trkpt><trkpt lat="40.86866959162712" lon="9.146359513368035"><ele>834.9999999999999</ele><time>2026-04-04T12:40:07.001Z</time></trkpt><trkpt lat="40.86863322194943" lon="9.146227691157556"><ele>835.0</ele><time>2026-04-04T12:40:08.001Z</time></trkpt><trkpt lat="40.86859741242125" lon="9.146088492912682"><ele>835.0</ele><time>2026-04-04T12:40:09.001Z</time></trkpt><trkpt lat="40.86857028207163" lon="9.145998212619718"><ele>835.0</ele><time>2026-04-04T12:40:10.001Z</time></trkpt><trkpt lat="40.86852284635665" lon="9.14594300972919"><ele>835.0</ele><time>2026-04-04T12:40:11.001Z</time></trkpt><trkpt lat="40.868391772190826" lon="9.145942404116145"><ele>835.0</ele><time>2026-04-04T12:40:13.001Z</time></trkpt><trkpt lat="40.86830175030001" lon="9.145986690062744"><ele>835.0</ele><time>2026-04-04T12:40:14.001Z</time></trkpt><trkpt lat="40.86821528342168" lon="9.14601538806452"><ele>837.4999999999999</ele><time>2026-04-04T12:40:15.001Z</time></trkpt><trkpt lat="40.868139433486405" lon="9.14600674807825"><ele>840.0</ele><time>2026-04-04T12:40:16.001Z</time></trkpt><trkpt lat="40.86806070665209" lon="9.145946843896576"><ele>842.5</ele><time>2026-04-04T12:40:17.001Z</time></trkpt><trkpt lat="40.86795562844913" lon="9.14590812506982"><ele>845.0</ele><time>2026-04-04T12:40:18.001Z</time></trkpt><trkpt lat="40.86786672453607" lon="9.145910195661147"><ele>847.4999999999999</ele><time>2026-04-04T12:40:19.001Z</time></trkpt><trkpt lat="40.86781081187935" lon="9.145948711159505"><ele>850.0</ele><time>2026-04-04T12:40:20.001Z</time></trkpt><trkpt lat="40.86776193100259" lon="9.146107845998072"><ele>850.0</ele><time>2026-04-04T12:40:22.001Z</time></trkpt><trkpt lat="40.86776919566645" lon="9.146248475672545"><ele>850.0</ele><time>2026-04-04T12:40:23.001Z</time></trkpt><trkpt lat="40.867791987950056" lon="9.146383400317129"><ele>850.0</ele><time>2026-04-04T12:40:24.001Z</time></trkpt><trkpt lat="40.86780381826758" lon="9.14649880633397"><ele>850.0</ele><time>2026-04-04T12:40:25.001Z</time></trkpt><trkpt lat="40.867789843906955" lon="9.146599897251633"><ele>850.0</ele><time>2026-04-04T12:40:26.001Z</time></trkpt><trkpt lat="40.86773332347938" lon="9.14668538167075"><ele>850.6</ele><time>2026-04-04T12:40:27.001Z</time></trkpt><trkpt lat="40.86765839517147" lon="9.146782731759648"><ele>851.2</ele><time>2026-04-04T12:40:28.001Z</time></trkpt><trkpt lat="40.86757824723217" lon="9.14686422779449"><ele>851.8</ele><time>2026-04-04T12:40:29.001Z</time></trkpt><trkpt lat="40.86750804329814" lon="9.146978069905098"><ele>852.4</ele><time>2026-04-04T12:40:30.001Z</time></trkpt><trkpt lat="40.86743867670332" lon="9.147095937445291"><ele>853.0</ele><time>2026-04-04T12:40:31.001Z</time></trkpt><trkpt lat="40.867369279546" lon="9.14720593504685"><ele>855.6666666666666</ele><time>2026-04-04T12:40:32.001Z</time></trkpt><trkpt lat="40.867312744502655" lon="9.147316146458332"><ele>858.3333333333333</ele><time>2026-04-04T12:40:33.001Z</time></trkpt><trkpt lat="40.86727041244916" lon="9.147405392127808"><ele>861.0</ele><time>2026-04-04T12:40:34.001Z</time></trkpt><trkpt lat="40.867254366503566" lon="9.147499470268222"><ele>863.6666666666667</ele><time>2026-04-04T12:40:35.001Z</time></trkpt><trkpt lat="40.86725238327591" lon="9.147604921421479"><ele>866.3333333333334</ele><time>2026-04-04T12:40:36.001Z</time></trkpt><trkpt lat="40.86725778004579" lon="9.14771868081081"><ele>869.0</ele><time>2026-04-04T12:40:37.001Z</time></trkpt><trkpt lat="40.86726441950525" lon="9.147828888895884"><ele>869.2</ele><time>2026-04-04T12:40:38.001Z</time></trkpt><trkpt lat="40.8672484331397" lon="9.147923511291923"><ele>869.4000000000001</ele><time>2026-04-04T12:40:39.001Z</time></trkpt><trkpt lat="40.86721189357348" lon="9.148002678901387"><ele>869.6</ele><time>2026-04-04T12:40:40.001Z</time></trkpt><trkpt lat="40.86711146868139" lon="9.14800127512978"><ele>869.8</ele><time>2026-04-04T12:40:42.001Z</time></trkpt><trkpt lat="40.86701962717763" lon="9.147874280532445"><ele>870.0</ele><time>2026-04-04T12:40:44.001Z</time></trkpt><trkpt lat="40.86695924327986" lon="9.147776050192384"><ele>870.0</ele><time>2026-04-04T12:40:45.001Z</time></trkpt><trkpt lat="40.86689811274884" lon="9.147686764899413"><ele>870.0</ele><time>2026-04-04T12:40:46.001Z</time></trkpt><trkpt lat="40.866828380601355" lon="9.147617947066365"><ele>870.0</ele><time>2026-04-04T12:40:47.001Z</time></trkpt><trkpt lat="40.8667493244175" lon="9.147545555501786"><ele>870.0</ele><time>2026-04-04T12:40:48.001Z</time></trkpt><trkpt lat="40.866670923217846" lon="9.147438196049432"><ele>870.0</ele><time>2026-04-04T12:40:49.001Z</time></trkpt><trkpt lat="40.866599096365185" lon="9.14730273690468"><ele>874.3333333333334</ele><time>2026-04-04T12:40:50Z</time></trkpt><trkpt lat="40.86656096601164" lon="9.147178801066742"><ele>878.6666666666667</ele><time>2026-04-04T12:40:51Z</time></trkpt><trkpt lat="40.86657278334969" lon="9.14707853040075"><ele>883.0</ele><time>2026-04-04T12:40:52Z</time></trkpt><trkpt lat="40.86660428270321" lon="9.14697108938131"><ele>887.3333333333334</ele><time>2026-04-04T12:40:53Z</time></trkpt><trkpt lat="40.86662139850037" lon="9.146867366020379"><ele>891.6666666666667</ele><time>2026-04-04T12:40:54Z</time></trkpt><trkpt lat="40.86663854671611" lon="9.146735386564439"><ele>896.0</ele><time>2026-04-04T12:40:56Z</time></trkpt><trkpt lat="40.86656756498276" lon="9.146696672202808"><ele>896.0000000000001</ele><time>2026-04-04T12:40:58Z</time></trkpt><trkpt lat="40.86646997565969" lon="9.146735027161835"><ele>896.0</ele><time>2026-04-04T12:41:00Z</time></trkpt><trkpt lat="40.86641889804186" lon="9.146803022100945"><ele>896.0</ele><time>2026-04-04T12:41:01Z</time></trkpt><trkpt lat="40.86636645990007" lon="9.146860792618753"><ele>896.0</ele><time>2026-04-04T12:41:02Z</time></trkpt><trkpt lat="40.86629393216644" lon="9.146870905660693"><ele>896.0000000000001</ele><time>2026-04-04T12:41:03Z</time></trkpt><trkpt lat="40.86621969806912" lon="9.14687264781219"><ele>896.0</ele><time>2026-04-04T12:41:04Z</time></trkpt><trkpt lat="40.86609713397837" lon="9.146868937327007"><ele>896.0</ele><time>2026-04-04T12:41:06Z</time></trkpt><trkpt lat="40.86603495482246" lon="9.14685032772253"><ele>895.9999999999999</ele><time>2026-04-04T12:41:07Z</time></trkpt><trkpt lat="40.86597081237954" lon="9.146803101292017"><ele>895.9999999999999</ele><time>2026-04-04T12:41:08Z</time></trkpt><trkpt lat="40.86588185736099" lon="9.146687592011336"><ele>896.0</ele><time>2026-04-04T12:41:09Z</time></trkpt><trkpt lat="40.8657887633902" lon="9.14657277778644"><ele>896.0</ele><time>2026-04-04T12:41:10Z</time></trkpt><trkpt lat="40.865685703674465" lon="9.146433460954219"><ele>899.0</ele><time>2026-04-04T12:41:11Z</time></trkpt><trkpt lat="40.86556462281601" lon="9.146283225616417"><ele>902.0</ele><time>2026-04-04T12:41:12Z</time></trkpt><trkpt lat="40.865457129895454" lon="9.146158672934543"><ele>905.0</ele><time>2026-04-04T12:41:13Z</time></trkpt><trkpt lat="40.8653579392197" lon="9.146069808747047"><ele>908.0</ele><time>2026-04-04T12:41:14Z</time></trkpt><trkpt lat="40.865255680892076" lon="9.145993795295448"><ele>908.0</ele><time>2026-04-04T12:41:15Z</time></trkpt><trkpt lat="40.86515663085989" lon="9.145905836701774"><ele>908.0</ele><time>2026-04-04T12:41:16Z</time></trkpt><trkpt lat="40.8650770457723" lon="9.145834343425934"><ele>908.0</ele><time>2026-04-04T12:41:17Z</time></trkpt><trkpt lat="40.86503106503827" lon="9.145907225808044"><ele>908.0</ele><time>2026-04-04T12:41:40.001Z</time></trkpt><trkpt lat="40.865033315065084" lon="9.14600509073161"><ele>908.0</ele><time>2026-04-04T12:41:41.001Z</time></trkpt><trkpt lat="40.86504341962835" lon="9.14613047935998"><ele>910.75</ele><time>2026-04-04T12:41:42.001Z</time></trkpt><trkpt lat="40.86506095551761" lon="9.146300020377105"><ele>913.5</ele><time>2026-04-04T12:41:43.001Z</time></trkpt><trkpt lat="40.86507467725746" lon="9.14646763807362"><ele>916.25</ele><time>2026-04-04T12:41:44.001Z</time></trkpt><trkpt lat="40.86507431934299" lon="9.146624342175242"><ele>919.0</ele><time>2026-04-04T12:41:45.001Z</time></trkpt><trkpt lat="40.86506428184026" lon="9.146793486854845"><ele>920.25</ele><time>2026-04-04T12:41:46.001Z</time></trkpt><trkpt lat="40.865047593981195" lon="9.146952415276417"><ele>921.5</ele><time>2026-04-04T12:41:47.001Z</time></trkpt><trkpt lat="40.865011078813396" lon="9.147115687162362"><ele>922.75</ele><time>2026-04-04T12:41:48.001Z</time></trkpt><trkpt lat="40.86498907708403" lon="9.14728483893173"><ele>924.0</ele><time>2026-04-04T12:41:49.001Z</time></trkpt><trkpt lat="40.8649735391287" lon="9.147456196053767"><ele>926.25</ele><time>2026-04-04T12:41:50.001Z</time></trkpt><trkpt lat="40.86498238017797" lon="9.147623324432399"><ele>928.5</ele><time>2026-04-04T12:41:51.001Z</time></trkpt><trkpt lat="40.86498651067428" lon="9.14777675869176"><ele>930.75</ele><time>2026-04-04T12:41:52.001Z</time></trkpt><trkpt lat="40.86497971596914" lon="9.147936448834166"><ele>933.0</ele><time>2026-04-04T12:41:53.001Z</time></trkpt><trkpt lat="40.864980810189294" lon="9.148079096491315"><ele>934.5</ele><time>2026-04-04T12:41:54.001Z</time></trkpt><trkpt lat="40.864978833337645" lon="9.148237507783707"><ele>936.0</ele><time>2026-04-04T12:41:55.001Z</time></trkpt><trkpt lat="40.86496791430689" lon="9.14837705908431"><ele>937.5</ele><time>2026-04-04T12:41:56.001Z</time></trkpt><trkpt lat="40.86495315663162" lon="9.148523851061652"><ele>939.0</ele><time>2026-04-04T12:41:57.001Z</time></trkpt><trkpt lat="40.86494339093851" lon="9.148680070849474"><ele>939.0</ele><time>2026-04-04T12:41:58.001Z</time></trkpt><trkpt lat="40.86493914396804" lon="9.148846981492563"><ele>939.0</ele><time>2026-04-04T12:41:59.001Z</time></trkpt><trkpt lat="40.86494948558988" lon="9.149009732617662"><ele>939.0</ele><time>2026-04-04T12:42:00.001Z</time></trkpt><trkpt lat="40.86497742775017" lon="9.149156006029493"><ele>939.0</ele><time>2026-04-04T12:42:01.001Z</time></trkpt><trkpt lat="40.865013964462" lon="9.149265544580611"><ele>940.3333333333334</ele><time>2026-04-04T12:42:02.001Z</time></trkpt><trkpt lat="40.865053963863346" lon="9.14934655265821"><ele>941.6666666666667</ele><time>2026-04-04T12:42:03.001Z</time></trkpt><trkpt lat="40.86500638084979" lon="9.149424751050088"><ele>943.0</ele><time>2026-04-04T12:42:05.001Z</time></trkpt><trkpt lat="40.864925120828204" lon="9.149416957637055"><ele>944.3333333333334</ele><time>2026-04-04T12:42:06.001Z</time></trkpt><trkpt lat="40.86486328581639" lon="9.149391452388832"><ele>945.6666666666667</ele><time>2026-04-04T12:42:07.001Z</time></trkpt><trkpt lat="40.86480087097281" lon="9.149326314237467"><ele>947.0</ele><time>2026-04-04T12:42:08.001Z</time></trkpt><trkpt lat="40.86470072578395" lon="9.14918781006341"><ele>944.3333333333334</ele><time>2026-04-04T12:42:09.001Z</time></trkpt><trkpt lat="40.86457777610946" lon="9.149037166110167"><ele>941.6666666666667</ele><time>2026-04-04T12:42:10.001Z</time></trkpt><trkpt lat="40.864455559893244" lon="9.14890552434132"><ele>939.0</ele><time>2026-04-04T12:42:11.001Z</time></trkpt><trkpt lat="40.864354494494435" lon="9.148806632230043"><ele>943.25</ele><time>2026-04-04T12:42:12.001Z</time></trkpt><trkpt lat="40.864250017010484" lon="9.148758452912062"><ele>947.5</ele><time>2026-04-04T12:42:13.001Z</time></trkpt><trkpt lat="40.86413281250596" lon="9.14873551631666"><ele>951.75</ele><time>2026-04-04T12:42:14.001Z</time></trkpt><trkpt lat="40.86403095019315" lon="9.148711767107537"><ele>956.0</ele><time>2026-04-04T12:42:15.001Z</time></trkpt><trkpt lat="40.8639172698248" lon="9.148670788008555"><ele>956.0</ele><time>2026-04-04T12:42:16.001Z</time></trkpt><trkpt lat="40.863806842921335" lon="9.148627513145453"><ele>955.9999999999999</ele><time>2026-04-04T12:42:17.001Z</time></trkpt><trkpt lat="40.86370625862559" lon="9.148603598014121"><ele>955.9999999999999</ele><time>2026-04-04T12:42:18.001Z</time></trkpt><trkpt lat="40.863612442912164" lon="9.148590469534465"><ele>956.0</ele><time>2026-04-04T12:42:19.001Z</time></trkpt><trkpt lat="40.86351724526813" lon="9.148564705620666"><ele>956.0</ele><time>2026-04-04T12:42:20.001Z</time></trkpt><trkpt lat="40.8634142884359" lon="9.148549779780522"><ele>957.4</ele><time>2026-04-04T12:42:21.001Z</time></trkpt><trkpt lat="40.86330701973136" lon="9.148536874351356"><ele>958.8</ele><time>2026-04-04T12:42:22.001Z</time></trkpt><trkpt lat="40.86320298231203" lon="9.148514639879323"><ele>960.1999999999999</ele><time>2026-04-04T12:42:23.001Z</time></trkpt><trkpt lat="40.86309555841779" lon="9.148499817611446"><ele>961.5999999999999</ele><time>2026-04-04T12:42:24.001Z</time></trkpt><trkpt lat="40.862995536980954" lon="9.148503129027924"><ele>963.0</ele><time>2026-04-04T12:42:25.001Z</time></trkpt><trkpt lat="40.86289762520669" lon="9.148527935462543"><ele>963.0</ele><time>2026-04-04T12:42:26.001Z</time></trkpt><trkpt lat="40.86280003543887" lon="9.14857977365572"><ele>963.0</ele><time>2026-04-04T12:42:27.001Z</time></trkpt><trkpt lat="40.86269078388404" lon="9.14864984932438"><ele>963.0</ele><time>2026-04-04T12:42:28.001Z</time></trkpt><trkpt lat="40.86259291247875" lon="9.148721417347698"><ele>963.0</ele><time>2026-04-04T12:42:29.001Z</time></trkpt><trkpt lat="40.862522201867044" lon="9.148784747074842"><ele>963.0</ele><time>2026-04-04T12:42:30.001Z</time></trkpt><trkpt lat="40.86247678879865" lon="9.148843090292951"><ele>963.8</ele><time>2026-04-04T12:42:31.001Z</time></trkpt><trkpt lat="40.86242730102273" lon="9.148965825401973"><ele>964.5999999999999</ele><time>2026-04-04T12:42:33.001Z</time></trkpt><trkpt lat="40.86243990164856" lon="9.149070513531878"><ele>965.4000000000001</ele><time>2026-04-04T12:42:40.001Z</time></trkpt><trkpt lat="40.86246086354234" lon="9.149184889615757"><ele>966.2</ele><time>2026-04-04T12:42:42.001Z</time></trkpt><trkpt lat="40.862480703311434" lon="9.149337810721672"><ele>967.0</ele><time>2026-04-04T12:42:44.001Z</time></trkpt><trkpt lat="40.86249358936471" lon="9.149434920873407"><ele>968.1666666666666</ele><time>2026-04-04T12:42:45.001Z</time></trkpt><trkpt lat="40.86252815661781" lon="9.149533122656699"><ele>969.3333333333333</ele><time>2026-04-04T12:42:46.001Z</time></trkpt><trkpt lat="40.86257518115839" lon="9.149637182823437"><ele>970.5</ele><time>2026-04-04T12:42:47.001Z</time></trkpt><trkpt lat="40.86262298492863" lon="9.14973585700134"><ele>971.6666666666667</ele><time>2026-04-04T12:42:48.001Z</time></trkpt><trkpt lat="40.86268501521303" lon="9.149825089788717"><ele>972.8333333333334</ele><time>2026-04-04T12:42:49.001Z</time></trkpt><trkpt lat="40.86274857559088" lon="9.149905147230623"><ele>974.0</ele><time>2026-04-04T12:42:50.001Z</time></trkpt><trkpt lat="40.862808249021796" lon="9.149987693788166"><ele>976.1666666666667</ele><time>2026-04-04T12:42:51.001Z</time></trkpt><trkpt lat="40.86285829084008" lon="9.150080857267305"><ele>978.3333333333334</ele><time>2026-04-04T12:42:52.001Z</time></trkpt><trkpt lat="40.8629138189217" lon="9.150171445627036"><ele>980.5</ele><time>2026-04-04T12:42:53.001Z</time></trkpt><trkpt lat="40.86297795492087" lon="9.150255102616594"><ele>982.6666666666667</ele><time>2026-04-04T12:42:54.001Z</time></trkpt><trkpt lat="40.8630422649427" lon="9.150332888641197"><ele>984.8333333333334</ele><time>2026-04-04T12:42:55.001Z</time></trkpt><trkpt lat="40.863101160073114" lon="9.150412689126457"><ele>987.0</ele><time>2026-04-04T12:42:56Z</time></trkpt><trkpt lat="40.86315253229713" lon="9.150492382193978"><ele>987.0</ele><time>2026-04-04T12:42:57Z</time></trkpt><trkpt lat="40.86319426183621" lon="9.150571705270053"><ele>987.0</ele><time>2026-04-04T12:42:58Z</time></trkpt><trkpt lat="40.863247921392116" lon="9.150656659234901"><ele>987.0</ele><time>2026-04-04T12:42:59Z</time></trkpt><trkpt lat="40.86333932951843" lon="9.150766967261488"><ele>987.0</ele><time>2026-04-04T12:43:00Z</time></trkpt><trkpt lat="40.86344589255771" lon="9.150891190279589"><ele>987.0</ele><time>2026-04-04T12:43:01Z</time></trkpt><trkpt lat="40.86353816354827" lon="9.150999721535223"><ele>988.0</ele><time>2026-04-04T12:43:02Z</time></trkpt><trkpt lat="40.863609351187414" lon="9.151075609435757"><ele>989.0</ele><time>2026-04-04T12:43:03Z</time></trkpt><trkpt lat="40.86368021037414" lon="9.151176204784948"><ele>990.0</ele><time>2026-04-04T12:43:04Z</time></trkpt><trkpt lat="40.86375177004527" lon="9.151304907986917"><ele>991.0</ele><time>2026-04-04T12:43:05Z</time></trkpt><trkpt lat="40.863816462623156" lon="9.151416201021387"><ele>992.0</ele><time>2026-04-04T12:43:06Z</time></trkpt><trkpt lat="40.86387250605625" lon="9.151518192149197"><ele>993.2</ele><time>2026-04-04T12:43:07Z</time></trkpt><trkpt lat="40.86391547083196" lon="9.151630026820625"><ele>994.4000000000001</ele><time>2026-04-04T12:43:08Z</time></trkpt><trkpt lat="40.863949842677464" lon="9.151744491012018"><ele>995.5999999999999</ele><time>2026-04-04T12:43:09Z</time></trkpt><trkpt lat="40.864003837576256" lon="9.151858676798469"><ele>996.8</ele><time>2026-04-04T12:43:10Z</time></trkpt><trkpt lat="40.86405272524386" lon="9.15198366157304"><ele>998.0</ele><time>2026-04-04T12:43:11Z</time></trkpt><trkpt lat="40.86410782850149" lon="9.152101349427392"><ele>998.0</ele><time>2026-04-04T12:43:12Z</time></trkpt><trkpt lat="40.86416728104812" lon="9.152216259828903"><ele>998.0</ele><time>2026-04-04T12:43:13Z</time></trkpt><trkpt lat="40.86421990618971" lon="9.152326067799843"><ele>998.0</ele><time>2026-04-04T12:43:14Z</time></trkpt><trkpt lat="40.86427033557351" lon="9.15244008850155"><ele>998.0</ele><time>2026-04-04T12:43:15Z</time></trkpt><trkpt lat="40.864306494774254" lon="9.152529437931225"><ele>998.0</ele><time>2026-04-04T12:43:16Z</time></trkpt><trkpt lat="40.8643231301752" lon="9.152700256113889"><ele>1000.4</ele><time>2026-04-04T12:43:18Z</time></trkpt><trkpt lat="40.86429964430726" lon="9.152874091928103"><ele>1002.8</ele><time>2026-04-04T12:43:20Z</time></trkpt><trkpt lat="40.864297630134686" lon="9.15297019534781"><ele>1005.2</ele><time>2026-04-04T12:43:21Z</time></trkpt><trkpt lat="40.8642966526543" lon="9.153064865308853"><ele>1007.6</ele><time>2026-04-04T12:43:22Z</time></trkpt><trkpt lat="40.864289083154254" lon="9.15323580131967"><ele>1010.0</ele><time>2026-04-04T12:43:24Z</time></trkpt><trkpt lat="40.864299465756865" lon="9.153319062304787"><ele>1011.3333333333334</ele><time>2026-04-04T12:43:25Z</time></trkpt><trkpt lat="40.8643832912476" lon="9.153417586859529"><ele>1012.6666666666667</ele><time>2026-04-04T12:43:27Z</time></trkpt><trkpt lat="40.86444668368299" lon="9.153437620947914"><ele>1014.0</ele><time>2026-04-04T12:43:28Z</time></trkpt><trkpt lat="40.864517707315045" lon="9.153458168632719"><ele>1015.3333333333333</ele><time>2026-04-04T12:43:29Z</time></trkpt><trkpt lat="40.864597597685574" lon="9.153493707141783"><ele>1016.6666666666666</ele><time>2026-04-04T12:43:30Z</time></trkpt><trkpt lat="40.86466325938863" lon="9.153527938279748"><ele>1018.0</ele><time>2026-04-04T12:43:31Z</time></trkpt><trkpt lat="40.864743595001514" lon="9.153577552321115"><ele>1017.9999999999999</ele><time>2026-04-04T12:43:33Z</time></trkpt><trkpt lat="40.864782380928865" lon="9.15366189052229"><ele>1018.0</ele><time>2026-04-04T12:43:36Z</time></trkpt><trkpt lat="40.864799409912166" lon="9.153746892902232"><ele>1017.9999999999999</ele><time>2026-04-04T12:43:38.001Z</time></trkpt><trkpt lat="40.86481734743013" lon="9.153842689485836"><ele>1017.9999999999999</ele><time>2026-04-04T12:43:53.001Z</time></trkpt><trkpt lat="40.86483913942012" lon="9.153946659462974"><ele>1018.0</ele><time>2026-04-04T12:43:57.001Z</time></trkpt><trkpt lat="40.864869640672765" lon="9.154032407235366"><ele>1017.9999999999999</ele><time>2026-04-04T12:43:59.001Z</time></trkpt><trkpt lat="40.86491938431286" lon="9.154091785865136"><ele>1017.9999999999999</ele><time>2026-04-04T12:44:02.001Z</time></trkpt><trkpt lat="40.864963571904994" lon="9.154177813336956"><ele>1018.9999999999999</ele><time>2026-04-04T12:44:05.001Z</time></trkpt><trkpt lat="40.865014077656255" lon="9.154275600625622"><ele>1020.0</ele><time>2026-04-04T12:44:07.001Z</time></trkpt><trkpt lat="40.86502773447544" lon="9.154362944352041"><ele>1021.0</ele><time>2026-04-04T12:44:09.001Z</time></trkpt><trkpt lat="40.86497517453665" lon="9.154455849949818"><ele>1022.0</ele><time>2026-04-04T12:44:11.001Z</time></trkpt><trkpt lat="40.86492425978902" lon="9.154568110528338"><ele>1022.9999999999999</ele><time>2026-04-04T12:44:13.001Z</time></trkpt><trkpt lat="40.86489033626347" lon="9.154658845680913"><ele>1024.0</ele><time>2026-04-04T12:44:15.001Z</time></trkpt><trkpt lat="40.86485070025756" lon="9.154743942466697"><ele>1023.9999999999999</ele><time>2026-04-04T12:44:29.001Z</time></trkpt><trkpt lat="40.86480936664127" lon="9.154817224798427"><ele>1024.0</ele><time>2026-04-04T12:44:31.001Z</time></trkpt><trkpt lat="40.86476086103138" lon="9.154894293055031"><ele>1024.0</ele><time>2026-04-04T12:44:33.001Z</time></trkpt><trkpt lat="40.86467966129855" lon="9.154979634891866"><ele>1024.0</ele><time>2026-04-04T12:44:35.001Z</time></trkpt><trkpt lat="40.864622158233736" lon="9.155067958546386"><ele>1023.9999999999999</ele><time>2026-04-04T12:44:37.001Z</time></trkpt><trkpt lat="40.864546974937525" lon="9.155154674102844"><ele>1024.0</ele><time>2026-04-04T12:44:39.001Z</time></trkpt><trkpt lat="40.86450218534828" lon="9.155293775247678"><ele>1025.8</ele><time>2026-04-04T12:44:41.001Z</time></trkpt><trkpt lat="40.864537881913755" lon="9.155405225035166"><ele>1027.6000000000001</ele><time>2026-04-04T12:44:43.001Z</time></trkpt><trkpt lat="40.864635460630836" lon="9.155392137440835"><ele>1029.4</ele><time>2026-04-04T12:44:45.001Z</time></trkpt><trkpt lat="40.86472011128067" lon="9.15531813177015"><ele>1031.2</ele><time>2026-04-04T12:44:47.001Z</time></trkpt><trkpt lat="40.86481064672498" lon="9.15528213366256"><ele>1033.0</ele><time>2026-04-04T12:44:49.001Z</time></trkpt><trkpt lat="40.86488763094249" lon="9.155271803521726"><ele>1033.0</ele><time>2026-04-04T12:44:51.001Z</time></trkpt><trkpt lat="40.86496372808187" lon="9.155329646123057"><ele>1033.0</ele><time>2026-04-04T12:44:53.001Z</time></trkpt><trkpt lat="40.86494865515024" lon="9.15543074838331"><ele>1033.0</ele><time>2026-04-04T12:44:55.001Z</time></trkpt><trkpt lat="40.86487540999215" lon="9.155520160280192"><ele>1033.0</ele><time>2026-04-04T12:44:57.001Z</time></trkpt><trkpt lat="40.864811505134625" lon="9.155605139553565"><ele>1033.0</ele><time>2026-04-04T12:44:59.001Z</time></trkpt><trkpt lat="40.864772689287484" lon="9.155731766532012"><ele>1035.6666666666665</ele><time>2026-04-04T12:45:02Z</time></trkpt><trkpt lat="40.864749973963896" lon="9.155841483159467"><ele>1038.3333333333333</ele><time>2026-04-04T12:45:04Z</time></trkpt><trkpt lat="40.86472165935631" lon="9.15594723873905"><ele>1041.0</ele><time>2026-04-04T12:45:07Z</time></trkpt><trkpt lat="40.864725981936616" lon="9.156043779315487"><ele>1043.6666666666667</ele><time>2026-04-04T12:45:45.001Z</time></trkpt><trkpt lat="40.86472010128561" lon="9.156128993716166"><ele>1046.3333333333335</ele><time>2026-04-04T12:45:49.001Z</time></trkpt><trkpt lat="40.864709787207985" lon="9.156248669892449"><ele>1049.0</ele><time>2026-04-04T12:45:54.001Z</time></trkpt><trkpt lat="40.86467128668201" lon="9.15638757154175"><ele>1049.0</ele><time>2026-04-04T12:45:56.001Z</time></trkpt><trkpt lat="40.86465174669251" lon="9.156492584705374"><ele>1049.0</ele><time>2026-04-04T12:45:58.001Z</time></trkpt><trkpt lat="40.864655477468865" lon="9.156577437734198"><ele>1049.0</ele><time>2026-04-04T12:46:00.001Z</time></trkpt><trkpt lat="40.86467735238812" lon="9.156655744463192"><ele>1049.0</ele><time>2026-04-04T12:46:03.001Z</time></trkpt><trkpt lat="40.864676402708206" lon="9.156745555167689"><ele>1049.0</ele><time>2026-04-04T12:46:12.001Z</time></trkpt><trkpt lat="40.86468132680986" lon="9.156842693523668"><ele>1049.0</ele><time>2026-04-04T12:46:15.001Z</time></trkpt><trkpt lat="40.8647069595097" lon="9.156982083404454"><ele>1050.3333333333335</ele><time>2026-04-04T12:46:17.001Z</time></trkpt><trkpt lat="40.864723229566984" lon="9.157077250273947"><ele>1051.6666666666667</ele><time>2026-04-04T12:46:20.001Z</time></trkpt><trkpt lat="40.8647518624509" lon="9.157176003834774"><ele>1053.0</ele><time>2026-04-04T12:46:23.001Z</time></trkpt><trkpt lat="40.86480581214028" lon="9.157264400287538"><ele>1054.3333333333333</ele><time>2026-04-04T12:46:31.001Z</time></trkpt><trkpt lat="40.86485305606308" lon="9.15734808475904"><ele>1055.6666666666665</ele><time>2026-04-04T12:46:34.001Z</time></trkpt><trkpt lat="40.86488376169386" lon="9.15744963282898"><ele>1057.0</ele><time>2026-04-04T12:46:36.001Z</time></trkpt><trkpt lat="40.864918819262975" lon="9.15754119087952"><ele>1058.3333333333333</ele><time>2026-04-04T12:46:38.001Z</time></trkpt><trkpt lat="40.864943319002805" lon="9.157655857425032"><ele>1059.6666666666665</ele><time>2026-04-04T12:46:40.001Z</time></trkpt><trkpt lat="40.8649605030821" lon="9.15774200374545"><ele>1061.0</ele><time>2026-04-04T12:46:43.001Z</time></trkpt><trkpt lat="40.86495497918997" lon="9.157852078765881"><ele>1062.3333333333333</ele><time>2026-04-04T12:46:46.001Z</time></trkpt><trkpt lat="40.86494644253035" lon="9.157973282901885"><ele>1063.6666666666667</ele><time>2026-04-04T12:46:48.001Z</time></trkpt><trkpt lat="40.864954478747066" lon="9.158088199126441"><ele>1065.0</ele><time>2026-04-04T12:46:50.001Z</time></trkpt><trkpt lat="40.86496038852869" lon="9.158205075210176"><ele>1066.5</ele><time>2026-04-04T12:46:52.001Z</time></trkpt><trkpt lat="40.864937852383015" lon="9.158331364050673"><ele>1068.0</ele><time>2026-04-04T12:46:54.001Z</time></trkpt><trkpt lat="40.86490751437908" lon="9.158492329499817"><ele>1069.5</ele><time>2026-04-04T12:46:56.001Z</time></trkpt><trkpt lat="40.86490659437492" lon="9.15866101105675"><ele>1071.0</ele><time>2026-04-04T12:46:58.001Z</time></trkpt><trkpt lat="40.86489001587992" lon="9.158796449276755"><ele>1071.0</ele><time>2026-04-04T12:47:00.001Z</time></trkpt><trkpt lat="40.86485674975408" lon="9.158868284661278"><ele>1071.0</ele><time>2026-04-04T12:47:02.001Z</time></trkpt><trkpt lat="40.864836891335564" lon="9.159010276907873"><ele>1071.0</ele><time>2026-04-04T12:47:04.001Z</time></trkpt><trkpt lat="40.86481065873285" lon="9.159120171332718"><ele>1071.0</ele><time>2026-04-04T12:47:06.001Z</time></trkpt><trkpt lat="40.86477126015013" lon="9.159252274455861"><ele>1071.0</ele><time>2026-04-04T12:47:08Z</time></trkpt><trkpt lat="40.86474251542532" lon="9.159388603243551"><ele>1072.3999999999999</ele><time>2026-04-04T12:47:10Z</time></trkpt><trkpt lat="40.864707408717244" lon="9.159537071790064"><ele>1073.8</ele><time>2026-04-04T12:47:12Z</time></trkpt><trkpt lat="40.864662936079135" lon="9.159659217975033"><ele>1075.1999999999998</ele><time>2026-04-04T12:47:14Z</time></trkpt><trkpt lat="40.86463222608277" lon="9.159768476509699"><ele>1076.6</ele><time>2026-04-04T12:47:16Z</time></trkpt><trkpt lat="40.864604610121226" lon="9.159862671248506"><ele>1078.0</ele><time>2026-04-04T12:47:18Z</time></trkpt><trkpt lat="40.8645565488774" lon="9.159995417199882"><ele>1079.2</ele><time>2026-04-04T12:47:20Z</time></trkpt><trkpt lat="40.86450442939841" lon="9.160135636801524"><ele>1080.4</ele><time>2026-04-04T12:47:22Z</time></trkpt><trkpt lat="40.86445479687333" lon="9.160277795667888"><ele>1081.6000000000001</ele><time>2026-04-04T12:47:24Z</time></trkpt><trkpt lat="40.8644171437598" lon="9.160351410688227"><ele>1082.8</ele><time>2026-04-04T12:47:25Z</time></trkpt><trkpt lat="40.86437451913557" lon="9.160427232066377"><ele>1084.0</ele><time>2026-04-04T12:47:26Z</time></trkpt><trkpt lat="40.86431629828398" lon="9.16051575733685"><ele>1083.6666666666665</ele><time>2026-04-04T12:47:27Z</time></trkpt><trkpt lat="40.86425440520329" lon="9.160604473753496"><ele>1083.3333333333333</ele><time>2026-04-04T12:47:28Z</time></trkpt><trkpt lat="40.86419192537224" lon="9.160677851668831"><ele>1083.0</ele><time>2026-04-04T12:47:29Z</time></trkpt><trkpt lat="40.864130550890856" lon="9.160712580252362"><ele>1082.6666666666667</ele><time>2026-04-04T12:47:30Z</time></trkpt><trkpt lat="40.864061340560134" lon="9.160720756260584"><ele>1082.3333333333335</ele><time>2026-04-04T12:47:31Z</time></trkpt><trkpt lat="40.863980837827825" lon="9.160717727147409"><ele>1082.0</ele><time>2026-04-04T12:47:32Z</time></trkpt><trkpt lat="40.863883753110855" lon="9.160692396258277"><ele>1082.0</ele><time>2026-04-04T12:47:33Z</time></trkpt><trkpt lat="40.863772225574316" lon="9.1606677268291"><ele>1082.0</ele><time>2026-04-04T12:47:34Z</time></trkpt><trkpt lat="40.863666102273385" lon="9.160650648361338"><ele>1082.0</ele><time>2026-04-04T12:47:35Z</time></trkpt><trkpt lat="40.863583229352486" lon="9.160636218131925"><ele>1082.0</ele><time>2026-04-04T12:47:36Z</time></trkpt><trkpt lat="40.86351244871242" lon="9.16063992142492"><ele>1082.0</ele><time>2026-04-04T12:47:37Z</time></trkpt><trkpt lat="40.86343689144607" lon="9.160671255949751"><ele>1082.3333333333335</ele><time>2026-04-04T12:47:38Z</time></trkpt><trkpt lat="40.86336379528006" lon="9.160707455090888"><ele>1082.6666666666667</ele><time>2026-04-04T12:47:39Z</time></trkpt><trkpt lat="40.86329738533883" lon="9.160736769045213"><ele>1083.0</ele><time>2026-04-04T12:47:40Z</time></trkpt><trkpt lat="40.86319345693205" lon="9.16079206926532"><ele>1083.3333333333333</ele><time>2026-04-04T12:47:42Z</time></trkpt><trkpt lat="40.86314172164753" lon="9.160868568227556"><ele>1083.6666666666665</ele><time>2026-04-04T12:47:43Z</time></trkpt><trkpt lat="40.86309236535795" lon="9.160966763988547"><ele>1084.0</ele><time>2026-04-04T12:47:44Z</time></trkpt><trkpt lat="40.86303297228983" lon="9.161074237885312"><ele>1084.0</ele><time>2026-04-04T12:47:45Z</time></trkpt><trkpt lat="40.86297055540584" lon="9.161181405455885"><ele>1084.0</ele><time>2026-04-04T12:47:46Z</time></trkpt><trkpt lat="40.86290369564499" lon="9.161289275922934"><ele>1084.0</ele><time>2026-04-04T12:47:47Z</time></trkpt><trkpt lat="40.86285006372552" lon="9.161391772729651"><ele>1084.0</ele><time>2026-04-04T12:47:48Z</time></trkpt><trkpt lat="40.86279585540604" lon="9.161485438554054"><ele>1084.0</ele><time>2026-04-04T12:47:49.001Z</time></trkpt><trkpt lat="40.86273900503924" lon="9.1615485850628"><ele>1083.6666666666665</ele><time>2026-04-04T12:47:50.001Z</time></trkpt><trkpt lat="40.86268493958027" lon="9.16160351728396"><ele>1083.3333333333333</ele><time>2026-04-04T12:47:51.001Z</time></trkpt><trkpt lat="40.86262224748548" lon="9.161656627126163"><ele>1083.0</ele><time>2026-04-04T12:47:52.001Z</time></trkpt><trkpt lat="40.86254143448779" lon="9.161679736083435"><ele>1082.6666666666667</ele><time>2026-04-04T12:47:53.001Z</time></trkpt><trkpt lat="40.86243849467231" lon="9.161694212582942"><ele>1082.3333333333335</ele><time>2026-04-04T12:47:54.001Z</time></trkpt><trkpt lat="40.862331219052585" lon="9.16171121798592"><ele>1082.0</ele><time>2026-04-04T12:47:55.001Z</time></trkpt><trkpt lat="40.8622357365464" lon="9.1617193548999"><ele>1080.6666666666667</ele><time>2026-04-04T12:47:56.001Z</time></trkpt><trkpt lat="40.86214454246224" lon="9.16171351387243"><ele>1079.3333333333335</ele><time>2026-04-04T12:47:57.001Z</time></trkpt><trkpt lat="40.86206589994377" lon="9.161694854998164"><ele>1078.0</ele><time>2026-04-04T12:47:58.001Z</time></trkpt><trkpt lat="40.86198308969059" lon="9.16171576794089"><ele>1076.6666666666667</ele><time>2026-04-04T12:47:59.001Z</time></trkpt><trkpt lat="40.861899514345126" lon="9.161745669495126"><ele>1075.3333333333333</ele><time>2026-04-04T12:48:00.001Z</time></trkpt><trkpt lat="40.86180789243777" lon="9.161778502876011"><ele>1074.0</ele><time>2026-04-04T12:48:01.001Z</time></trkpt><trkpt lat="40.86171423899761" lon="9.16180547641946"><ele>1072.4</ele><time>2026-04-04T12:48:02.001Z</time></trkpt><trkpt lat="40.86162139851421" lon="9.161839958774248"><ele>1070.8000000000002</ele><time>2026-04-04T12:48:03.001Z</time></trkpt><trkpt lat="40.861540655787444" lon="9.161886005506059"><ele>1069.1999999999998</ele><time>2026-04-04T12:48:04.001Z</time></trkpt><trkpt lat="40.86144459243462" lon="9.161953008825341"><ele>1067.6</ele><time>2026-04-04T12:48:05.001Z</time></trkpt><trkpt lat="40.86133219508795" lon="9.162034846919846"><ele>1066.0</ele><time>2026-04-04T12:48:06.001Z</time></trkpt><trkpt lat="40.86121543981033" lon="9.162101248094901"><ele>1066.0</ele><time>2026-04-04T12:48:07.001Z</time></trkpt><trkpt lat="40.861103236356996" lon="9.162170771561964"><ele>1066.0</ele><time>2026-04-04T12:48:08.001Z</time></trkpt><trkpt lat="40.86102387130872" lon="9.162235757764643"><ele>1066.0</ele><time>2026-04-04T12:48:09.001Z</time></trkpt><trkpt lat="40.86097109130046" lon="9.162295847634693"><ele>1066.0</ele><time>2026-04-04T12:48:10.001Z</time></trkpt><trkpt lat="40.86093723464568" lon="9.162387580456807"><ele>1066.0</ele><time>2026-04-04T12:48:12.001Z</time></trkpt><trkpt lat="40.86087554428991" lon="9.162450851213903"><ele>1066.0</ele><time>2026-04-04T12:49:45Z</time></trkpt><trkpt lat="40.86082988871144" lon="9.162515741297266"><ele>1066.3999999999999</ele><time>2026-04-04T12:49:46Z</time></trkpt><trkpt lat="40.86074444308603" lon="9.162555583156543"><ele>1066.8</ele><time>2026-04-04T12:49:48Z</time></trkpt><trkpt lat="40.8606171334819" lon="9.16252414804884"><ele>1067.1999999999998</ele><time>2026-04-04T12:49:50Z</time></trkpt><trkpt lat="40.86054610401448" lon="9.16251101860018"><ele>1067.6</ele><time>2026-04-04T12:49:51Z</time></trkpt><trkpt lat="40.86046657485157" lon="9.162484699005384"><ele>1068.0</ele><time>2026-04-04T12:49:52Z</time></trkpt><trkpt lat="40.860388312746785" lon="9.162449792837586"><ele>1068.0</ele><time>2026-04-04T12:49:53Z</time></trkpt><trkpt lat="40.860322235983595" lon="9.162434531222091"><ele>1068.0</ele><time>2026-04-04T12:49:54Z</time></trkpt><trkpt lat="40.860236857870795" lon="9.162405910188248"><ele>1068.0</ele><time>2026-04-04T12:49:57.001Z</time></trkpt><trkpt lat="40.860170935336036" lon="9.162401220961845"><ele>1068.0</ele><time>2026-04-04T12:49:58.001Z</time></trkpt><trkpt lat="40.860084263858" lon="9.162390180032048"><ele>1068.0</ele><time>2026-04-04T12:49:59.001Z</time></trkpt><trkpt lat="40.85999354559417" lon="9.162372643277335"><ele>1068.0</ele><time>2026-04-04T12:50:00.001Z</time></trkpt><trkpt lat="40.859900459020835" lon="9.162352860399604"><ele>1067.8333333333333</ele><time>2026-04-04T12:50:01.001Z</time></trkpt><trkpt lat="40.85982418570703" lon="9.16231902539002"><ele>1067.6666666666667</ele><time>2026-04-04T12:50:02.001Z</time></trkpt><trkpt lat="40.859750527901696" lon="9.162304034661299"><ele>1067.5</ele><time>2026-04-04T12:50:03.001Z</time></trkpt><trkpt lat="40.85967211557363" lon="9.162285781848812"><ele>1067.3333333333335</ele><time>2026-04-04T12:50:04.001Z</time></trkpt><trkpt lat="40.85959227370296" lon="9.162269462027055"><ele>1067.1666666666667</ele><time>2026-04-04T12:50:05.001Z</time></trkpt><trkpt lat="40.85952589310731" lon="9.162256312515925"><ele>1067.0</ele><time>2026-04-04T12:50:06.001Z</time></trkpt><trkpt lat="40.85944246936854" lon="9.162240449739423"><ele>1067.0</ele><time>2026-04-04T12:50:08.001Z</time></trkpt><trkpt lat="40.85936320065069" lon="9.162257349821576"><ele>1067.0</ele><time>2026-04-04T12:50:11.001Z</time></trkpt><trkpt lat="40.859353580826" lon="9.162388375587545"><ele>1067.0</ele><time>2026-04-04T12:50:14.001Z</time></trkpt><trkpt lat="40.85937093225366" lon="9.16249300339318"><ele>1067.0</ele><time>2026-04-04T12:50:16.001Z</time></trkpt><trkpt lat="40.8594074923729" lon="9.162600530112146"><ele>1067.0</ele><time>2026-04-04T12:50:18.001Z</time></trkpt><trkpt lat="40.859439514126876" lon="9.16272239823096"><ele>1067.0</ele><time>2026-04-04T12:50:22.001Z</time></trkpt><trkpt lat="40.85946662796323" lon="9.162813348269351"><ele>1067.8333333333335</ele><time>2026-04-04T12:50:24.001Z</time></trkpt><trkpt lat="40.85949625795485" lon="9.162909637997195"><ele>1068.6666666666667</ele><time>2026-04-04T12:51:51Z</time></trkpt><trkpt lat="40.859530314900844" lon="9.163008203096373"><ele>1069.5</ele><time>2026-04-04T12:51:54Z</time></trkpt><trkpt lat="40.859551455853385" lon="9.163101729022516"><ele>1070.3333333333333</ele><time>2026-04-04T12:52:01.001Z</time></trkpt><trkpt lat="40.85957844175015" lon="9.163183255583235"><ele>1071.1666666666665</ele><time>2026-04-04T12:52:04.001Z</time></trkpt><trkpt lat="40.859597978562675" lon="9.163283255678678"><ele>1072.0</ele><time>2026-04-04T12:52:27.001Z</time></trkpt><trkpt lat="40.85956946258241" lon="9.16338264347329"><ele>1073.2857142857142</ele><time>2026-04-04T12:52:39.001Z</time></trkpt><trkpt lat="40.85950513181002" lon="9.163390993171301"><ele>1074.5714285714284</ele><time>2026-04-04T12:52:42.001Z</time></trkpt><trkpt lat="40.859433663790384" lon="9.163375064071264"><ele>1075.8571428571427</ele><time>2026-04-04T12:52:47.001Z</time></trkpt><trkpt lat="40.85937027689194" lon="9.163345554503676"><ele>1077.142857142857</ele><time>2026-04-04T12:52:56.001Z</time></trkpt><trkpt lat="40.859299678575994" lon="9.163334063854137"><ele>1078.4285714285713</ele><time>2026-04-04T12:53:01.001Z</time></trkpt><trkpt lat="40.85923493732422" lon="9.163307725837955"><ele>1079.7142857142856</ele><time>2026-04-04T12:53:03.001Z</time></trkpt><trkpt lat="40.859170328632615" lon="9.163278784187016"><ele>1081.0</ele><time>2026-04-04T12:53:06.001Z</time></trkpt><trkpt lat="40.859110441081576" lon="9.16324311934255"><ele>1081.1666666666665</ele><time>2026-04-04T12:53:08.001Z</time></trkpt><trkpt lat="40.859007976689945" lon="9.163182098756575"><ele>1081.3333333333333</ele><time>2026-04-04T12:53:10.001Z</time></trkpt><trkpt lat="40.858944961859684" lon="9.16313599858034"><ele>1081.5</ele><time>2026-04-04T12:53:13.001Z</time></trkpt><trkpt lat="40.858879139606586" lon="9.163102659870578"><ele>1081.6666666666667</ele><time>2026-04-04T12:53:30Z</time></trkpt><trkpt lat="40.858821095704315" lon="9.16305837836384"><ele>1081.8333333333335</ele><time>2026-04-04T12:53:35Z</time></trkpt><trkpt lat="40.85873461591712" lon="9.163041205364017"><ele>1082.0</ele><time>2026-04-04T12:53:38Z</time></trkpt><trkpt lat="40.85867969966761" lon="9.163126637956852"><ele>1084.0</ele><time>2026-04-04T12:53:41Z</time></trkpt><trkpt lat="40.85867878180808" lon="9.163218125799238"><ele>1086.0</ele><time>2026-04-04T12:53:43Z</time></trkpt><trkpt lat="40.858698462125446" lon="9.163309071975371"><ele>1088.0</ele><time>2026-04-04T12:54:28.001Z</time></trkpt><trkpt lat="40.85868915394987" lon="9.163411547713379"><ele>1090.0</ele><time>2026-04-04T12:54:35.001Z</time></trkpt><trkpt lat="40.858683592687086" lon="9.163497379342518"><ele>1092.0</ele><time>2026-04-04T12:54:37.001Z</time></trkpt><trkpt lat="40.8586703576239" lon="9.163591887202282"><ele>1094.0</ele><time>2026-04-04T12:54:39.001Z</time></trkpt><trkpt lat="40.858684897241645" lon="9.163716520389618"><ele>1094.0</ele><time>2026-04-04T12:54:41.001Z</time></trkpt><trkpt lat="40.85869752368816" lon="9.163813802547972"><ele>1094.0</ele><time>2026-04-04T12:54:43.001Z</time></trkpt><trkpt lat="40.858694282015854" lon="9.163946874993169"><ele>1094.0</ele><time>2026-04-04T12:54:45.001Z</time></trkpt><trkpt lat="40.85869026502451" lon="9.164073543868989"><ele>1094.0</ele><time>2026-04-04T12:54:47.001Z</time></trkpt><trkpt lat="40.858705189744676" lon="9.16420635018096"><ele>1094.0</ele><time>2026-04-04T12:54:49.001Z</time></trkpt><trkpt lat="40.858715823919184" lon="9.164310751212598"><ele>1096.0</ele><time>2026-04-04T12:54:51.001Z</time></trkpt><trkpt lat="40.858715342273726" lon="9.164423104707337"><ele>1098.0</ele><time>2026-04-04T12:54:53.001Z</time></trkpt><trkpt lat="40.85873565127865" lon="9.164520683297548"><ele>1100.0</ele><time>2026-04-04T12:54:55.001Z</time></trkpt><trkpt lat="40.85876685759698" lon="9.164602123125919"><ele>1102.0</ele><time>2026-04-04T12:54:57.001Z</time></trkpt><trkpt lat="40.858790969790114" lon="9.164695579152804"><ele>1104.0</ele><time>2026-04-04T12:55:00.001Z</time></trkpt><trkpt lat="40.858798959066874" lon="9.16478824885265"><ele>1106.0</ele><time>2026-04-04T12:55:02.001Z</time></trkpt><trkpt lat="40.85881676324549" lon="9.164913787219243"><ele>1108.0</ele><time>2026-04-04T12:55:06.001Z</time></trkpt><trkpt lat="40.85885334749589" lon="9.16504735316252"><ele>1110.0</ele><time>2026-04-04T12:55:08.001Z</time></trkpt><trkpt lat="40.858905650371945" lon="9.165197695992635"><ele>1112.0</ele><time>2026-04-04T12:55:10.001Z</time></trkpt><trkpt lat="40.85893576285766" lon="9.165276778746739"><ele>1114.0</ele><time>2026-04-04T12:55:11.001Z</time></trkpt><trkpt lat="40.85898437531452" lon="9.165419783363992"><ele>1116.0</ele><time>2026-04-04T12:55:13.001Z</time></trkpt><trkpt lat="40.85903274608547" lon="9.165560480144698"><ele>1116.0</ele><time>2026-04-04T12:55:15.001Z</time></trkpt><trkpt lat="40.8590785235" lon="9.165666005604285"><ele>1116.0</ele><time>2026-04-04T12:55:17.001Z</time></trkpt><trkpt lat="40.85911533814636" lon="9.165741926672746"><ele>1116.0</ele><time>2026-04-04T12:55:19.001Z</time></trkpt><trkpt lat="40.859138257337094" lon="9.165863485007081"><ele>1116.0</ele><time>2026-04-04T12:55:22.001Z</time></trkpt><trkpt lat="40.85918188828556" lon="9.165982146560188"><ele>1116.0</ele><time>2026-04-04T12:55:24.001Z</time></trkpt><trkpt lat="40.85924656871193" lon="9.166105303154211"><ele>1116.6</ele><time>2026-04-04T12:55:26.001Z</time></trkpt><trkpt lat="40.85929266529173" lon="9.166182573004683"><ele>1117.1999999999998</ele><time>2026-04-04T12:55:28.001Z</time></trkpt><trkpt lat="40.8593266725978" lon="9.1662572791147"><ele>1117.8000000000002</ele><time>2026-04-04T12:55:31Z</time></trkpt><trkpt lat="40.85936081953365" lon="9.16635398860826"><ele>1118.4</ele><time>2026-04-04T12:55:45Z</time></trkpt><trkpt lat="40.85938808524773" lon="9.166463007532702"><ele>1119.0</ele><time>2026-04-04T12:55:47Z</time></trkpt><trkpt lat="40.8594521052977" lon="9.166641256946935"><ele>1120.6666666666667</ele><time>2026-04-04T12:55:49Z</time></trkpt><trkpt lat="40.85948908547039" lon="9.166745380417415"><ele>1122.3333333333333</ele><time>2026-04-04T12:55:50Z</time></trkpt><trkpt lat="40.85952082838591" lon="9.166818748614988"><ele>1124.0</ele><time>2026-04-04T12:55:51Z</time></trkpt><trkpt lat="40.85956400371953" lon="9.166882237617815"><ele>1125.6666666666665</ele><time>2026-04-04T12:55:52Z</time></trkpt><trkpt lat="40.8596089561372" lon="9.167029984374244"><ele>1127.3333333333333</ele><time>2026-04-04T12:55:54Z</time></trkpt><trkpt lat="40.859641441961195" lon="9.167135813135285"><ele>1129.0</ele><time>2026-04-04T12:55:55Z</time></trkpt><trkpt lat="40.859676676409336" lon="9.167245823274344"><ele>1130.6666666666665</ele><time>2026-04-04T12:55:56Z</time></trkpt><trkpt lat="40.859721939272106" lon="9.167363706231537"><ele>1132.3333333333333</ele><time>2026-04-04T12:55:57Z</time></trkpt><trkpt lat="40.859761106456055" lon="9.167482373140897"><ele>1134.0</ele><time>2026-04-04T12:55:58Z</time></trkpt><trkpt lat="40.85979617379283" lon="9.167580505274836"><ele>1135.6666666666667</ele><time>2026-04-04T12:55:59Z</time></trkpt><trkpt lat="40.859829029340844" lon="9.167671156497063"><ele>1137.3333333333335</ele><time>2026-04-04T12:56:00Z</time></trkpt><trkpt lat="40.85986717368397" lon="9.16775889421465"><ele>1139.0</ele><time>2026-04-04T12:56:01Z</time></trkpt><trkpt lat="40.85990799256684" lon="9.167857849799931"><ele>1139.0</ele><time>2026-04-04T12:56:02Z</time></trkpt><trkpt lat="40.859951036951166" lon="9.167971862140451"><ele>1139.0</ele><time>2026-04-04T12:56:03Z</time></trkpt><trkpt lat="40.86000179552341" lon="9.16808659031932"><ele>1139.0</ele><time>2026-04-04T12:56:04Z</time></trkpt><trkpt lat="40.860050470185456" lon="9.168190414291342"><ele>1139.0</ele><time>2026-04-04T12:56:05Z</time></trkpt><trkpt lat="40.86008630564447" lon="9.168299703537592"><ele>1139.0</ele><time>2026-04-04T12:56:06Z</time></trkpt><trkpt lat="40.860133050012045" lon="9.168404760483648"><ele>1140.2</ele><time>2026-04-04T12:56:07Z</time></trkpt><trkpt lat="40.86017572682968" lon="9.168517115495305"><ele>1141.4</ele><time>2026-04-04T12:56:08Z</time></trkpt><trkpt lat="40.86023275918242" lon="9.168637456994182"><ele>1142.6</ele><time>2026-04-04T12:56:09Z</time></trkpt><trkpt lat="40.860303519260036" lon="9.168742211426574"><ele>1143.8</ele><time>2026-04-04T12:56:10.001Z</time></trkpt><trkpt lat="40.860383952071885" lon="9.16884966487155"><ele>1145.0</ele><time>2026-04-04T12:56:11.001Z</time></trkpt><trkpt lat="40.860474546947906" lon="9.168937320505155"><ele>1145.0</ele><time>2026-04-04T12:56:12.001Z</time></trkpt><trkpt lat="40.86055142580772" lon="9.168990826569436"><ele>1145.0</ele><time>2026-04-04T12:56:13.001Z</time></trkpt><trkpt lat="40.86062911690376" lon="9.169017626673307"><ele>1145.0</ele><time>2026-04-04T12:56:14.001Z</time></trkpt><trkpt lat="40.86071337005884" lon="9.169033700329948"><ele>1145.0</ele><time>2026-04-04T12:56:15.001Z</time></trkpt><trkpt lat="40.86078084026952" lon="9.169083889568046"><ele>1145.0</ele><time>2026-04-04T12:56:16.001Z</time></trkpt><trkpt lat="40.86083514604934" lon="9.169173292519712"><ele>1145.0</ele><time>2026-04-04T12:56:17.001Z</time></trkpt><trkpt lat="40.86087203849133" lon="9.169294809007361"><ele>1145.5</ele><time>2026-04-04T12:56:18.001Z</time></trkpt><trkpt lat="40.860893593081826" lon="9.169398447634952"><ele>1146.0</ele><time>2026-04-04T12:56:19.001Z</time></trkpt><trkpt lat="40.860910636106155" lon="9.169491720201496"><ele>1146.5</ele><time>2026-04-04T12:56:20.001Z</time></trkpt><trkpt lat="40.86093707217056" lon="9.169578007886983"><ele>1147.0</ele><time>2026-04-04T12:56:21.001Z</time></trkpt><trkpt lat="40.86097638330633" lon="9.1696673868345"><ele>1147.5</ele><time>2026-04-04T12:56:22.001Z</time></trkpt><trkpt lat="40.86102308373879" lon="9.169758870422436"><ele>1148.0</ele><time>2026-04-04T12:56:23.001Z</time></trkpt><trkpt lat="40.861063954403335" lon="9.169845357753646"><ele>1145.3333333333335</ele><time>2026-04-04T12:56:24.001Z</time></trkpt><trkpt lat="40.86109815497978" lon="9.169940432191016"><ele>1142.6666666666667</ele><time>2026-04-04T12:56:25.001Z</time></trkpt><trkpt lat="40.861132806904564" lon="9.170037002330792"><ele>1140.0</ele><time>2026-04-04T12:56:26.001Z</time></trkpt><trkpt lat="40.86117291574454" lon="9.170131829465719"><ele>1137.3333333333333</ele><time>2026-04-04T12:56:27.001Z</time></trkpt><trkpt lat="40.86120358507405" lon="9.170226879019227"><ele>1134.6666666666665</ele><time>2026-04-04T12:56:28.001Z</time></trkpt><trkpt lat="40.861225492995096" lon="9.170319945698374"><ele>1132.0</ele><time>2026-04-04T12:56:29.001Z</time></trkpt><trkpt lat="40.86124635159456" lon="9.17040595505768"><ele>1132.0</ele><time>2026-04-04T12:56:30.001Z</time></trkpt><trkpt lat="40.861289557394315" lon="9.170488702988473"><ele>1132.0</ele><time>2026-04-04T12:56:31.001Z</time></trkpt><trkpt lat="40.86133483758832" lon="9.170584950082521"><ele>1132.0</ele><time>2026-04-04T12:56:32.001Z</time></trkpt><trkpt lat="40.861381619881946" lon="9.170675649894573"><ele>1132.0</ele><time>2026-04-04T12:56:33.001Z</time></trkpt><trkpt lat="40.86143186288797" lon="9.170747430746827"><ele>1132.0</ele><time>2026-04-04T12:56:34.001Z</time></trkpt><trkpt lat="40.8614541253143" lon="9.170830185747594"><ele>1132.0</ele><time>2026-04-04T12:56:35.001Z</time></trkpt><trkpt lat="40.86152882463571" lon="9.170950179601805"><ele>1130.8</ele><time>2026-04-04T12:56:37.001Z</time></trkpt><trkpt lat="40.86159050897733" lon="9.171089778410849"><ele>1129.6</ele><time>2026-04-04T12:56:39.001Z</time></trkpt><trkpt lat="40.86162842710968" lon="9.17118369342589"><ele>1128.3999999999999</ele><time>2026-04-04T12:56:40.001Z</time></trkpt><trkpt lat="40.86167711341608" lon="9.171271958804676"><ele>1127.2</ele><time>2026-04-04T12:56:41.001Z</time></trkpt><trkpt lat="40.86172490396633" lon="9.171356766459812"><ele>1126.0</ele><time>2026-04-04T12:56:42.001Z</time></trkpt><trkpt lat="40.86177077644911" lon="9.171462581479092"><ele>1122.5</ele><time>2026-04-04T12:56:43.001Z</time></trkpt><trkpt lat="40.861841072065886" lon="9.171611038590537"><ele>1119.0</ele><time>2026-04-04T12:56:44.001Z</time></trkpt><trkpt lat="40.8619216598784" lon="9.171761431518515"><ele>1115.5</ele><time>2026-04-04T12:56:45.001Z</time></trkpt><trkpt lat="40.861990802411384" lon="9.17190616733064"><ele>1112.0</ele><time>2026-04-04T12:56:46.001Z</time></trkpt><trkpt lat="40.86206879111974" lon="9.172035784168992"><ele>1112.0</ele><time>2026-04-04T12:56:47.001Z</time></trkpt><trkpt lat="40.86214212609434" lon="9.172169139880573"><ele>1112.0</ele><time>2026-04-04T12:56:48.001Z</time></trkpt><trkpt lat="40.86221739801832" lon="9.172294400020993"><ele>1112.0</ele><time>2026-04-04T12:56:49.001Z</time></trkpt><trkpt lat="40.86228324415741" lon="9.172402419003303"><ele>1112.0</ele><time>2026-04-04T12:56:50.001Z</time></trkpt><trkpt lat="40.862331376529475" lon="9.17250760715653"><ele>1112.0</ele><time>2026-04-04T12:56:51.001Z</time></trkpt><trkpt lat="40.86236694223308" lon="9.172612227915668"><ele>1112.2</ele><time>2026-04-04T12:56:52.001Z</time></trkpt><trkpt lat="40.86238829141376" lon="9.1727185363924"><ele>1112.4</ele><time>2026-04-04T12:56:53.001Z</time></trkpt><trkpt lat="40.86237605478836" lon="9.17284423756803"><ele>1112.6</ele><time>2026-04-04T12:56:54.001Z</time></trkpt><trkpt lat="40.86232918054941" lon="9.172999223290772"><ele>1112.8</ele><time>2026-04-04T12:56:55.001Z</time></trkpt><trkpt lat="40.862281771240426" lon="9.173162545328099"><ele>1113.0</ele><time>2026-04-04T12:56:56.001Z</time></trkpt><trkpt lat="40.86223623255738" lon="9.173302644049285"><ele>1113.0</ele><time>2026-04-04T12:56:57.001Z</time></trkpt><trkpt lat="40.86217135658328" lon="9.173411901675768"><ele>1113.0</ele><time>2026-04-04T12:56:58.001Z</time></trkpt><trkpt lat="40.86210014312742" lon="9.17347535701039"><ele>1113.0</ele><time>2026-04-04T12:56:59.001Z</time></trkpt><trkpt lat="40.862037737059595" lon="9.173505175528607"><ele>1113.0</ele><time>2026-04-04T12:57:00.001Z</time></trkpt><trkpt lat="40.86196271371799" lon="9.173527351818732"><ele>1113.0</ele><time>2026-04-04T12:57:01.001Z</time></trkpt><trkpt lat="40.86186118310419" lon="9.173544043973966"><ele>1113.0</ele><time>2026-04-04T12:57:02.001Z</time></trkpt><trkpt lat="40.86174953574898" lon="9.173558941463082"><ele>1115.0</ele><time>2026-04-04T12:57:03.001Z</time></trkpt><trkpt lat="40.86165212526719" lon="9.17358453394474"><ele>1117.0</ele><time>2026-04-04T12:57:04.001Z</time></trkpt><trkpt lat="40.861562745988216" lon="9.173599082966335"><ele>1119.0</ele><time>2026-04-04T12:57:05.001Z</time></trkpt><trkpt lat="40.86147040208963" lon="9.173579645139572"><ele>1121.0</ele><time>2026-04-04T12:57:06.001Z</time></trkpt><trkpt lat="40.86135858092171" lon="9.173542026836195"><ele>1123.0</ele><time>2026-04-04T12:57:07.001Z</time></trkpt><trkpt lat="40.861245688553645" lon="9.173514066268392"><ele>1123.0</ele><time>2026-04-04T12:57:08.001Z</time></trkpt><trkpt lat="40.861138465923574" lon="9.173529861114307"><ele>1123.0</ele><time>2026-04-04T12:57:09.001Z</time></trkpt><trkpt lat="40.86101314394141" lon="9.173531143301606"><ele>1123.0</ele><time>2026-04-04T12:57:10.001Z</time></trkpt><trkpt lat="40.860899963078325" lon="9.173541140359855"><ele>1123.0</ele><time>2026-04-04T12:57:11.001Z</time></trkpt><trkpt lat="40.8608096475871" lon="9.173550031108304"><ele>1123.0</ele><time>2026-04-04T12:57:12.001Z</time></trkpt><trkpt lat="40.86072940308583" lon="9.173562557077403"><ele>1122.1666666666665</ele><time>2026-04-04T12:57:13.001Z</time></trkpt><trkpt lat="40.860647499807115" lon="9.17354960513089"><ele>1121.3333333333333</ele><time>2026-04-04T12:57:14.001Z</time></trkpt><trkpt lat="40.860572377351005" lon="9.173531629510915"><ele>1120.5</ele><time>2026-04-04T12:57:15.001Z</time></trkpt><trkpt lat="40.86049065083344" lon="9.173537366951445"><ele>1119.6666666666667</ele><time>2026-04-04T12:57:16.001Z</time></trkpt><trkpt lat="40.86041648841223" lon="9.173572759274332"><ele>1118.8333333333335</ele><time>2026-04-04T12:57:17.001Z</time></trkpt><trkpt lat="40.86034804701281" lon="9.173621212061848"><ele>1118.0</ele><time>2026-04-04T12:57:18.001Z</time></trkpt><trkpt lat="40.860274985248644" lon="9.173665119866467"><ele>1118.0</ele><time>2026-04-04T12:57:20.001Z</time></trkpt><trkpt lat="40.86024791083601" lon="9.17374303405684"><ele>1118.0</ele><time>2026-04-04T12:57:24.001Z</time></trkpt><trkpt lat="40.86018463764955" lon="9.173840528452091"><ele>1118.0</ele><time>2026-04-04T12:57:39Z</time></trkpt><trkpt lat="40.86016857046727" lon="9.173995975253094"><ele>1118.0</ele><time>2026-04-04T12:57:41Z</time></trkpt><trkpt lat="40.86019813963973" lon="9.174091523599488"><ele>1118.0</ele><time>2026-04-04T12:57:42Z</time></trkpt><trkpt lat="40.860229949123166" lon="9.174192838370551"><ele>1118.0</ele><time>2026-04-04T12:57:43Z</time></trkpt><trkpt lat="40.86025286865734" lon="9.174302219438339"><ele>1116.5</ele><time>2026-04-04T12:57:44Z</time></trkpt><trkpt lat="40.86026048243467" lon="9.174418513681278"><ele>1115.0</ele><time>2026-04-04T12:57:45Z</time></trkpt><trkpt lat="40.86025507895853" lon="9.174540912284463"><ele>1113.5</ele><time>2026-04-04T12:57:46Z</time></trkpt><trkpt lat="40.860237633790916" lon="9.17465524525427"><ele>1112.0</ele><time>2026-04-04T12:57:47Z</time></trkpt><trkpt lat="40.86020461077083" lon="9.174757442911915"><ele>1110.5</ele><time>2026-04-04T12:57:48Z</time></trkpt><trkpt lat="40.86015401333846" lon="9.174850044290014"><ele>1109.0</ele><time>2026-04-04T12:57:49Z</time></trkpt><trkpt lat="40.86009626076372" lon="9.174933221781838"><ele>1109.0</ele><time>2026-04-04T12:57:50Z</time></trkpt><trkpt lat="40.86003832209326" lon="9.175015464837784"><ele>1109.0</ele><time>2026-04-04T12:57:51Z</time></trkpt><trkpt lat="40.85997687494815" lon="9.175077025855282"><ele>1109.0</ele><time>2026-04-04T12:57:52Z</time></trkpt><trkpt lat="40.859879303383245" lon="9.175158157216735"><ele>1109.0</ele><time>2026-04-04T12:57:54Z</time></trkpt><trkpt lat="40.859787602413796" lon="9.17522858328547"><ele>1109.0</ele><time>2026-04-04T12:57:56Z</time></trkpt><trkpt lat="40.85970514168692" lon="9.175254612359034"><ele>1109.0</ele><time>2026-04-04T12:57:58Z</time></trkpt><trkpt lat="40.85962396003421" lon="9.175291363279452"><ele>1109.0</ele><time>2026-04-04T12:58:00Z</time></trkpt><trkpt lat="40.85956472774437" lon="9.175334948668725"><ele>1109.0</ele><time>2026-04-04T12:58:02Z</time></trkpt><trkpt lat="40.85950448470743" lon="9.17538684927375"><ele>1109.0</ele><time>2026-04-04T12:58:04Z</time></trkpt><trkpt lat="40.85941568529833" lon="9.17542801904681"><ele>1109.0</ele><time>2026-04-04T12:58:06Z</time></trkpt><trkpt lat="40.85930452867393" lon="9.175489072875518"><ele>1109.0</ele><time>2026-04-04T12:58:08Z</time></trkpt><trkpt lat="40.859243867886626" lon="9.175524203722459"><ele>1111.8333333333335</ele><time>2026-04-04T12:58:09Z</time></trkpt><trkpt lat="40.859181575716704" lon="9.175557001750466"><ele>1114.6666666666667</ele><time>2026-04-04T12:58:10Z</time></trkpt><trkpt lat="40.859122333143645" lon="9.17559716358428"><ele>1117.5</ele><time>2026-04-04T12:58:11Z</time></trkpt><trkpt lat="40.85907323188932" lon="9.175663285399994"><ele>1120.3333333333333</ele><time>2026-04-04T12:58:12Z</time></trkpt><trkpt lat="40.859042230861355" lon="9.175747819680947"><ele>1123.1666666666665</ele><time>2026-04-04T12:58:13Z</time></trkpt><trkpt lat="40.859012271087934" lon="9.175868534703422"><ele>1126.0</ele><time>2026-04-04T12:58:14Z</time></trkpt><trkpt lat="40.858955194567955" lon="9.176008269657778"><ele>1126.0</ele><time>2026-04-04T12:58:15Z</time></trkpt><trkpt lat="40.858853061171075" lon="9.176157723807503"><ele>1126.0</ele><time>2026-04-04T12:58:16Z</time></trkpt><trkpt lat="40.85876178431006" lon="9.176297998499589"><ele>1126.0</ele><time>2026-04-04T12:58:17.001Z</time></trkpt><trkpt lat="40.85869077030361" lon="9.176430511752345"><ele>1126.0</ele><time>2026-04-04T12:58:18.001Z</time></trkpt><trkpt lat="40.85862175585398" lon="9.176540402365527"><ele>1127.0</ele><time>2026-04-04T12:58:19.001Z</time></trkpt><trkpt lat="40.85854101521981" lon="9.17662191616851"><ele>1128.0</ele><time>2026-04-04T12:58:20.001Z</time></trkpt><trkpt lat="40.85843576723653" lon="9.176680018325484"><ele>1129.0</ele><time>2026-04-04T12:58:21.001Z</time></trkpt><trkpt lat="40.85832586971035" lon="9.17672641336789"><ele>1130.0</ele><time>2026-04-04T12:58:22.001Z</time></trkpt><trkpt lat="40.858215438367274" lon="9.176744289560464"><ele>1131.0</ele><time>2026-04-04T12:58:23.001Z</time></trkpt><trkpt lat="40.85809432506113" lon="9.176741497934868"><ele>1131.0</ele><time>2026-04-04T12:58:24.001Z</time></trkpt><trkpt lat="40.8579755973862" lon="9.176743397407044"><ele>1131.0</ele><time>2026-04-04T12:58:25.001Z</time></trkpt><trkpt lat="40.85785739767235" lon="9.176780330899561"><ele>1131.0</ele><time>2026-04-04T12:58:26.001Z</time></trkpt><trkpt lat="40.85774471373843" lon="9.176814685429546"><ele>1131.0</ele><time>2026-04-04T12:58:27.001Z</time></trkpt><trkpt lat="40.85764472589463" lon="9.176846905154996"><ele>1134.6666666666667</ele><time>2026-04-04T12:58:28.001Z</time></trkpt><trkpt lat="40.857561016783144" lon="9.176897911184367"><ele>1138.3333333333333</ele><time>2026-04-04T12:58:29.001Z</time></trkpt><trkpt lat="40.857499161737714" lon="9.17696071981153"><ele>1142.0</ele><time>2026-04-04T12:58:30.001Z</time></trkpt><trkpt lat="40.85745399399797" lon="9.177052505976535"><ele>1145.6666666666665</ele><time>2026-04-04T12:58:31.001Z</time></trkpt><trkpt lat="40.85741905211532" lon="9.177144579910156"><ele>1149.3333333333333</ele><time>2026-04-04T12:58:32.001Z</time></trkpt><trkpt lat="40.857400883136016" lon="9.17724357466374"><ele>1153.0</ele><time>2026-04-04T12:58:33.001Z</time></trkpt><trkpt lat="40.8573816808663" lon="9.177341860578892"><ele>1150.8333333333333</ele><time>2026-04-04T12:58:34.001Z</time></trkpt><trkpt lat="40.85736300739145" lon="9.177441092726157"><ele>1148.6666666666665</ele><time>2026-04-04T12:58:35.001Z</time></trkpt><trkpt lat="40.85734709289535" lon="9.17754538528665"><ele>1146.5</ele><time>2026-04-04T12:58:36.001Z</time></trkpt><trkpt lat="40.85734963209855" lon="9.177652831419463"><ele>1144.3333333333333</ele><time>2026-04-04T12:58:37.001Z</time></trkpt><trkpt lat="40.85736115806686" lon="9.177753774272144"><ele>1142.1666666666667</ele><time>2026-04-04T12:58:38.001Z</time></trkpt><trkpt lat="40.857377734533166" lon="9.17785255210752"><ele>1140.0</ele><time>2026-04-04T12:58:39.001Z</time></trkpt><trkpt lat="40.857393522577" lon="9.177962959087372"><ele>1140.0</ele><time>2026-04-04T12:58:40.001Z</time></trkpt><trkpt lat="40.857396323390205" lon="9.178075222393906"><ele>1140.0</ele><time>2026-04-04T12:58:41.001Z</time></trkpt><trkpt lat="40.857381538936544" lon="9.178179679461708"><ele>1140.0</ele><time>2026-04-04T12:58:42.001Z</time></trkpt><trkpt lat="40.857350374389036" lon="9.178278170845177"><ele>1140.0</ele><time>2026-04-04T12:58:43.001Z</time></trkpt><trkpt lat="40.857322408746334" lon="9.17837706547447"><ele>1140.0</ele><time>2026-04-04T12:58:44.001Z</time></trkpt><trkpt lat="40.85729664051394" lon="9.178465935195028"><ele>1140.0</ele><time>2026-04-04T12:58:45.001Z</time></trkpt><trkpt lat="40.85727280811578" lon="9.178546981842548"><ele>1141.0</ele><time>2026-04-04T12:58:46.001Z</time></trkpt><trkpt lat="40.85718919190715" lon="9.178646695657857"><ele>1142.0</ele><time>2026-04-04T12:58:48.001Z</time></trkpt><trkpt lat="40.85712742583489" lon="9.17879401747365"><ele>1143.0</ele><time>2026-04-04T12:58:50.001Z</time></trkpt><trkpt lat="40.857105261537576" lon="9.178882578867068"><ele>1144.0</ele><time>2026-04-04T12:58:51.001Z</time></trkpt><trkpt lat="40.85710525988643" lon="9.178985034310442"><ele>1145.0</ele><time>2026-04-04T12:58:52.001Z</time></trkpt><trkpt lat="40.85712302910544" lon="9.17907415005487"><ele>1145.1666666666667</ele><time>2026-04-04T12:58:53.001Z</time></trkpt><trkpt lat="40.857149281157504" lon="9.179176129243785"><ele>1145.3333333333335</ele><time>2026-04-04T12:58:54.001Z</time></trkpt><trkpt lat="40.85717286660757" lon="9.179267514848304"><ele>1145.5</ele><time>2026-04-04T12:58:55.001Z</time></trkpt><trkpt lat="40.85719065685494" lon="9.179416018392146"><ele>1145.6666666666667</ele><time>2026-04-04T12:58:57.001Z</time></trkpt><trkpt lat="40.85720217672444" lon="9.179499975458578"><ele>1145.8333333333333</ele><time>2026-04-04T12:58:58.001Z</time></trkpt><trkpt lat="40.85721726617001" lon="9.179648512586509"><ele>1146.0</ele><time>2026-04-04T12:59:00.001Z</time></trkpt><trkpt lat="40.85724879422801" lon="9.179766159134195"><ele>1147.857142857143</ele><time>2026-04-04T12:59:02.001Z</time></trkpt><trkpt lat="40.857272013260854" lon="9.17985989864201"><ele>1149.7142857142858</ele><time>2026-04-04T12:59:03.001Z</time></trkpt><trkpt lat="40.85730091209154" lon="9.179943594857134"><ele>1151.5714285714287</ele><time>2026-04-04T12:59:04.001Z</time></trkpt><trkpt lat="40.857313666346535" lon="9.180030051046238"><ele>1153.4285714285716</ele><time>2026-04-04T12:59:05.001Z</time></trkpt><trkpt lat="40.85731974993668" lon="9.18012419954356"><ele>1155.2857142857142</ele><time>2026-04-04T12:59:06.001Z</time></trkpt><trkpt lat="40.8573382537603" lon="9.180219293118695"><ele>1157.1428571428573</ele><time>2026-04-04T12:59:07.001Z</time></trkpt><trkpt lat="40.8573658587596" lon="9.18030754151328"><ele>1159.0</ele><time>2026-04-04T12:59:08.001Z</time></trkpt><trkpt lat="40.85738206179053" lon="9.180398153996475"><ele>1159.0</ele><time>2026-04-04T12:59:09.001Z</time></trkpt><trkpt lat="40.85739851752831" lon="9.180478500785863"><ele>1159.0</ele><time>2026-04-04T12:59:10.001Z</time></trkpt><trkpt lat="40.857418192053274" lon="9.180641689079112"><ele>1159.0</ele><time>2026-04-04T12:59:12.001Z</time></trkpt><trkpt lat="40.857424919064236" lon="9.18079183152782"><ele>1159.0</ele><time>2026-04-04T12:59:14.001Z</time></trkpt><trkpt lat="40.85741875261106" lon="9.180878771484728"><ele>1159.0</ele><time>2026-04-04T12:59:15.001Z</time></trkpt><trkpt lat="40.85740448212798" lon="9.180966640087007"><ele>1159.0</ele><time>2026-04-04T12:59:16.001Z</time></trkpt><trkpt lat="40.85742449607458" lon="9.181149317034981"><ele>1162.4</ele><time>2026-04-04T12:59:18.001Z</time></trkpt><trkpt lat="40.85747027187275" lon="9.181293413211908"><ele>1165.8000000000002</ele><time>2026-04-04T12:59:19.001Z</time></trkpt><trkpt lat="40.85750359767048" lon="9.181431887985442"><ele>1169.1999999999998</ele><time>2026-04-04T12:59:20.001Z</time></trkpt><trkpt lat="40.85751740380251" lon="9.181559066012804"><ele>1172.6</ele><time>2026-04-04T12:59:21.001Z</time></trkpt><trkpt lat="40.85751637829092" lon="9.181687858104347"><ele>1176.0</ele><time>2026-04-04T12:59:22.001Z</time></trkpt><trkpt lat="40.85749973233762" lon="9.181817370988746"><ele>1176.3999999999999</ele><time>2026-04-04T12:59:23.001Z</time></trkpt><trkpt lat="40.857484248585465" lon="9.181960816481677"><ele>1176.8</ele><time>2026-04-04T12:59:24.001Z</time></trkpt><trkpt lat="40.85747559702533" lon="9.182096578614944"><ele>1177.1999999999998</ele><time>2026-04-04T12:59:25.001Z</time></trkpt><trkpt lat="40.8574779303702" lon="9.182218626510695"><ele>1177.6</ele><time>2026-04-04T12:59:26.001Z</time></trkpt><trkpt lat="40.857502348613565" lon="9.182360144611387"><ele>1178.0</ele><time>2026-04-04T12:59:27.001Z</time></trkpt><trkpt lat="40.85753539031204" lon="9.182508209653603"><ele>1177.6</ele><time>2026-04-04T12:59:28.001Z</time></trkpt><trkpt lat="40.857545235676405" lon="9.182653159320996"><ele>1177.1999999999998</ele><time>2026-04-04T12:59:29.001Z</time></trkpt><trkpt lat="40.85754074822349" lon="9.182800808037454"><ele>1176.8</ele><time>2026-04-04T12:59:30.001Z</time></trkpt><trkpt lat="40.85753463239487" lon="9.18295671276233"><ele>1176.3999999999999</ele><time>2026-04-04T12:59:31.001Z</time></trkpt><trkpt lat="40.85753812853601" lon="9.18309926726601"><ele>1176.0</ele><time>2026-04-04T12:59:32.001Z</time></trkpt><trkpt lat="40.85755094022778" lon="9.183229655829331"><ele>1176.0</ele><time>2026-04-04T12:59:33.001Z</time></trkpt><trkpt lat="40.857569006370866" lon="9.183353436356331"><ele>1176.0</ele><time>2026-04-04T12:59:34.001Z</time></trkpt><trkpt lat="40.857589066064676" lon="9.183481362897957"><ele>1176.0</ele><time>2026-04-04T12:59:35.001Z</time></trkpt><trkpt lat="40.85759757518924" lon="9.183615367215799"><ele>1176.0</ele><time>2026-04-04T12:59:36.001Z</time></trkpt><trkpt lat="40.85759127227684" lon="9.183748931453119"><ele>1176.0</ele><time>2026-04-04T12:59:37.001Z</time></trkpt><trkpt lat="40.85759018855806" lon="9.183866578898108"><ele>1176.0</ele><time>2026-04-04T12:59:38.001Z</time></trkpt><trkpt lat="40.857611863040646" lon="9.183986901073613"><ele>1176.0</ele><time>2026-04-04T12:59:39.001Z</time></trkpt><trkpt lat="40.85762665819248" lon="9.184111981574835"><ele>1176.0</ele><time>2026-04-04T12:59:40.001Z</time></trkpt><trkpt lat="40.857631676845244" lon="9.184224143963423"><ele>1176.0</ele><time>2026-04-04T12:59:41.001Z</time></trkpt><trkpt lat="40.85761854891804" lon="9.184339514529489"><ele>1176.0</ele><time>2026-04-04T12:59:42.001Z</time></trkpt><trkpt lat="40.85758391507974" lon="9.184457213682057"><ele>1175.8333333333333</ele><time>2026-04-04T12:59:43Z</time></trkpt><trkpt lat="40.857541401925516" lon="9.184560068565771"><ele>1175.6666666666667</ele><time>2026-04-04T12:59:44Z</time></trkpt><trkpt lat="40.85749247575686" lon="9.184627312957337"><ele>1175.5</ele><time>2026-04-04T12:59:45Z</time></trkpt><trkpt lat="40.85743264065076" lon="9.184685472567024"><ele>1175.3333333333335</ele><time>2026-04-04T12:59:46Z</time></trkpt><trkpt lat="40.85736732355056" lon="9.18473616462158"><ele>1175.1666666666667</ele><time>2026-04-04T12:59:47Z</time></trkpt><trkpt lat="40.85729896920391" lon="9.184788905468997"><ele>1175.0</ele><time>2026-04-04T12:59:48Z</time></trkpt><trkpt lat="40.85722633391658" lon="9.184849083485549"><ele>1174.8</ele><time>2026-04-04T12:59:49Z</time></trkpt><trkpt lat="40.85715258159746" lon="9.184926635083382"><ele>1174.6</ele><time>2026-04-04T12:59:50Z</time></trkpt><trkpt lat="40.857072433750396" lon="9.184985708640562"><ele>1174.4</ele><time>2026-04-04T12:59:51Z</time></trkpt><trkpt lat="40.856987669529666" lon="9.185033148570648"><ele>1174.2</ele><time>2026-04-04T12:59:52Z</time></trkpt><trkpt lat="40.85690640758879" lon="9.185081479317356"><ele>1174.0</ele><time>2026-04-04T12:59:53Z</time></trkpt><trkpt lat="40.85683701218354" lon="9.185160171611606"><ele>1176.8333333333333</ele><time>2026-04-04T12:59:54Z</time></trkpt><trkpt lat="40.85676930168106" lon="9.18520317908177"><ele>1179.6666666666665</ele><time>2026-04-04T12:59:55Z</time></trkpt><trkpt lat="40.856703210052075" lon="9.185236578515495"><ele>1182.5</ele><time>2026-04-04T12:59:56Z</time></trkpt><trkpt lat="40.85663262773657" lon="9.185267963280033"><ele>1185.3333333333333</ele><time>2026-04-04T12:59:57Z</time></trkpt><trkpt lat="40.856557876178634" lon="9.185290570186359"><ele>1188.1666666666667</ele><time>2026-04-04T12:59:58Z</time></trkpt><trkpt lat="40.856478620819466" lon="9.185311985070545"><ele>1191.0</ele><time>2026-04-04T12:59:59Z</time></trkpt><trkpt lat="40.856400202262535" lon="9.185349128079906"><ele>1191.0</ele><time>2026-04-04T13:00:00Z</time></trkpt><trkpt lat="40.856330647264535" lon="9.185370640372367"><ele>1191.0</ele><time>2026-04-04T13:00:01Z</time></trkpt><trkpt lat="40.85623950170287" lon="9.185437215726926"><ele>1191.0</ele><time>2026-04-04T13:00:03Z</time></trkpt><trkpt lat="40.85622565109189" lon="9.18551982216998"><ele>1191.0</ele><time>2026-04-04T13:00:05Z</time></trkpt><trkpt lat="40.85618716258825" lon="9.18568103923479"><ele>1191.0</ele><time>2026-04-04T13:00:07Z</time></trkpt><trkpt lat="40.856170603490895" lon="9.185774212926525"><ele>1191.0</ele><time>2026-04-04T13:00:08Z</time></trkpt><trkpt lat="40.85614799493784" lon="9.185861475573061"><ele>1189.8333333333333</ele><time>2026-04-04T13:00:09Z</time></trkpt><trkpt lat="40.85613297039409" lon="9.185963495974592"><ele>1188.6666666666667</ele><time>2026-04-04T13:00:10Z</time></trkpt><trkpt lat="40.85612100725076" lon="9.186065834427803"><ele>1187.5</ele><time>2026-04-04T13:00:11Z</time></trkpt><trkpt lat="40.85610953746681" lon="9.186149673360443"><ele>1186.3333333333335</ele><time>2026-04-04T13:00:12Z</time></trkpt><trkpt lat="40.85604171599688" lon="9.1862590897091"><ele>1185.1666666666667</ele><time>2026-04-04T13:00:14Z</time></trkpt><trkpt lat="40.855946397155904" lon="9.186216621533857"><ele>1184.0</ele><time>2026-04-04T13:00:16Z</time></trkpt><trkpt lat="40.85585493179051" lon="9.186108628950926"><ele>1188.0</ele><time>2026-04-04T13:00:18Z</time></trkpt><trkpt lat="40.855809707224694" lon="9.18603778774559"><ele>1192.0</ele><time>2026-04-04T13:00:19Z</time></trkpt><trkpt lat="40.85572253238689" lon="9.185930152633661"><ele>1196.0</ele><time>2026-04-04T13:00:21Z</time></trkpt><trkpt lat="40.85564498011546" lon="9.185814384765038"><ele>1200.0</ele><time>2026-04-04T13:00:23Z</time></trkpt><trkpt lat="40.855598403764915" lon="9.185689976362603"><ele>1204.0</ele><time>2026-04-04T13:00:25.001Z</time></trkpt><trkpt lat="40.8555681810006" lon="9.185590564457994"><ele>1204.0</ele><time>2026-04-04T13:00:28.001Z</time></trkpt><trkpt lat="40.855520484573645" lon="9.18551667971939"><ele>1204.0</ele><time>2026-04-04T13:00:30.001Z</time></trkpt><trkpt lat="40.85546881154008" lon="9.185421114222864"><ele>1204.0</ele><time>2026-04-04T13:00:32.001Z</time></trkpt><trkpt lat="40.855415652748604" lon="9.185339492292599"><ele>1204.0</ele><time>2026-04-04T13:00:34.001Z</time></trkpt><trkpt lat="40.85536775027365" lon="9.18526308680043"><ele>1204.0</ele><time>2026-04-04T13:00:38.001Z</time></trkpt><trkpt lat="40.85532876427597" lon="9.18519700379309"><ele>1204.0</ele><time>2026-04-04T13:00:40.001Z</time></trkpt><trkpt lat="40.85528890625812" lon="9.18511617266403"><ele>1204.0</ele><time>2026-04-04T13:00:42.001Z</time></trkpt><trkpt lat="40.85525577807022" lon="9.185011241097078"><ele>1204.0</ele><time>2026-04-04T13:00:44.001Z</time></trkpt><trkpt lat="40.85521932496221" lon="9.184933343055468"><ele>1204.0</ele><time>2026-04-04T13:00:45.001Z</time></trkpt><trkpt lat="40.855185907269025" lon="9.184850404186314"><ele>1204.0</ele><time>2026-04-04T13:00:46.001Z</time></trkpt><trkpt lat="40.85515308517563" lon="9.184769637694288"><ele>1204.0</ele><time>2026-04-04T13:00:47.001Z</time></trkpt><trkpt lat="40.85513125316806" lon="9.184682105249863"><ele>1204.0</ele><time>2026-04-04T13:00:48.001Z</time></trkpt><trkpt lat="40.855112213409846" lon="9.184599271458396"><ele>1204.0</ele><time>2026-04-04T13:00:49.001Z</time></trkpt><trkpt lat="40.85508224136745" lon="9.184514905874542"><ele>1207.3333333333333</ele><time>2026-04-04T13:00:50.001Z</time></trkpt><trkpt lat="40.855049480609395" lon="9.184422654396426"><ele>1210.6666666666665</ele><time>2026-04-04T13:00:51.001Z</time></trkpt><trkpt lat="40.855013374567214" lon="9.184332755283238"><ele>1214.0</ele><time>2026-04-04T13:00:52.001Z</time></trkpt><trkpt lat="40.85498033595562" lon="9.184250686178421"><ele>1217.3333333333333</ele><time>2026-04-04T13:00:53.001Z</time></trkpt><trkpt lat="40.8549308197469" lon="9.184116757487729"><ele>1220.6666666666667</ele><time>2026-04-04T13:00:55.001Z</time></trkpt><trkpt lat="40.85488704355021" lon="9.183999819702915"><ele>1224.0</ele><time>2026-04-04T13:00:57.001Z</time></trkpt><trkpt lat="40.85484819446528" lon="9.183851668314283"><ele>1224.2857142857142</ele><time>2026-04-04T13:00:59.001Z</time></trkpt><trkpt lat="40.854820249259845" lon="9.183774440297745"><ele>1224.5714285714287</ele><time>2026-04-04T13:01:00.001Z</time></trkpt><trkpt lat="40.85479393505084" lon="9.183689200029631"><ele>1224.857142857143</ele><time>2026-04-04T13:01:01.001Z</time></trkpt><trkpt lat="40.854763428565484" lon="9.183612705294486"><ele>1225.142857142857</ele><time>2026-04-04T13:01:02.001Z</time></trkpt><trkpt lat="40.854726517520405" lon="9.18353482545878"><ele>1225.4285714285713</ele><time>2026-04-04T13:01:03.001Z</time></trkpt><trkpt lat="40.85467934613093" lon="9.183471699129736"><ele>1225.7142857142858</ele><time>2026-04-04T13:01:04.001Z</time></trkpt><trkpt lat="40.85461438723995" lon="9.183431050757337"><ele>1226.0</ele><time>2026-04-04T13:01:05.001Z</time></trkpt><trkpt lat="40.85454897733058" lon="9.183402487206866"><ele>1226.0</ele><time>2026-04-04T13:01:06.001Z</time></trkpt><trkpt lat="40.854486887800704" lon="9.183372287981616"><ele>1226.0</ele><time>2026-04-04T13:01:07.001Z</time></trkpt><trkpt lat="40.854426279420366" lon="9.183334276025384"><ele>1226.0</ele><time>2026-04-04T13:01:08.001Z</time></trkpt><trkpt lat="40.85431319126677" lon="9.183250925856244"><ele>1226.0</ele><time>2026-04-04T13:01:10.001Z</time></trkpt><trkpt lat="40.85424867331004" lon="9.183203077356007"><ele>1226.0</ele><time>2026-04-04T13:01:11.001Z</time></trkpt><trkpt lat="40.85419075209387" lon="9.183163494816123"><ele>1226.0</ele><time>2026-04-04T13:01:12.001Z</time></trkpt><trkpt lat="40.854093908852725" lon="9.183094311109526"><ele>1227.8333333333335</ele><time>2026-04-04T13:01:14.001Z</time></trkpt><trkpt lat="40.85400458538885" lon="9.183025450281493"><ele>1229.6666666666667</ele><time>2026-04-04T13:01:16.001Z</time></trkpt><trkpt lat="40.853921936656334" lon="9.182963070850924"><ele>1231.5</ele><time>2026-04-04T13:01:18.001Z</time></trkpt><trkpt lat="40.85385373915848" lon="9.182910567621626"><ele>1233.3333333333333</ele><time>2026-04-04T13:01:21.001Z</time></trkpt><trkpt lat="40.85378721511726" lon="9.182853627248418"><ele>1235.1666666666665</ele><time>2026-04-04T13:01:23.001Z</time></trkpt><trkpt lat="40.85370341782508" lon="9.182802006024223"><ele>1237.0</ele><time>2026-04-04T13:01:25.001Z</time></trkpt><trkpt lat="40.85364162040362" lon="9.182775696570635"><ele>1237.0</ele><time>2026-04-04T13:01:27.001Z</time></trkpt><trkpt lat="40.853558205737535" lon="9.18274124870846"><ele>1237.0</ele><time>2026-04-04T13:01:30.001Z</time></trkpt><trkpt lat="40.85349537822469" lon="9.182667141207585"><ele>1237.0</ele><time>2026-04-04T13:01:32.001Z</time></trkpt><trkpt lat="40.85340628095869" lon="9.182511632057444"><ele>1237.0</ele><time>2026-04-04T13:01:34.001Z</time></trkpt><trkpt lat="40.85336148389125" lon="9.182379753689128"><ele>1237.0</ele><time>2026-04-04T13:01:36.001Z</time></trkpt><trkpt lat="40.853312888181975" lon="9.182272751426288"><ele>1241.3333333333333</ele><time>2026-04-04T13:01:38.001Z</time></trkpt><trkpt lat="40.853249344205935" lon="9.182180884219445"><ele>1245.6666666666665</ele><time>2026-04-04T13:01:40.001Z</time></trkpt><trkpt lat="40.853205435003154" lon="9.182062482634533"><ele>1250.0</ele><time>2026-04-04T13:01:42.001Z</time></trkpt><trkpt lat="40.85318716832738" lon="9.181955764174784"><ele>1254.3333333333333</ele><time>2026-04-04T13:01:44.001Z</time></trkpt><trkpt lat="40.8531589131327" lon="9.18186618339095"><ele>1258.6666666666667</ele><time>2026-04-04T13:01:46.001Z</time></trkpt><trkpt lat="40.85314134057015" lon="9.181766573684369"><ele>1263.0</ele><time>2026-04-04T13:01:48.001Z</time></trkpt><trkpt lat="40.853141042677485" lon="9.181678983124593"><ele>1263.0</ele><time>2026-04-04T13:01:56Z</time></trkpt><trkpt lat="40.853143550869596" lon="9.181586214590624"><ele>1263.0</ele><time>2026-04-04T13:01:58Z</time></trkpt><trkpt lat="40.853143261098566" lon="9.18146909365861"><ele>1263.0</ele><time>2026-04-04T13:02:01Z</time></trkpt><trkpt lat="40.85307494584318" lon="9.181421175436975"><ele>1263.0</ele><time>2026-04-04T13:02:03Z</time></trkpt><trkpt lat="40.853010027016914" lon="9.181468876127086"><ele>1263.0</ele><time>2026-04-04T13:02:05Z</time></trkpt><trkpt lat="40.85295822488064" lon="9.181554085097702"><ele>1263.0</ele><time>2026-04-04T13:02:08Z</time></trkpt><trkpt lat="40.852885412122205" lon="9.181636006262849"><ele>1263.0</ele><time>2026-04-04T13:02:10Z</time></trkpt><trkpt lat="40.85278627976378" lon="9.181712748017594"><ele>1263.0</ele><time>2026-04-04T13:02:12Z</time></trkpt><trkpt lat="40.852708667875305" lon="9.181838964609247"><ele>1263.0</ele><time>2026-04-04T13:02:14Z</time></trkpt><trkpt lat="40.85269532499378" lon="9.181933540611535"><ele>1263.0</ele><time>2026-04-04T13:02:15Z</time></trkpt><trkpt lat="40.85268934606758" lon="9.182028570709765"><ele>1263.0</ele><time>2026-04-04T13:02:16Z</time></trkpt><trkpt lat="40.852681154202905" lon="9.182129003768317"><ele>1263.0</ele><time>2026-04-04T13:02:17Z</time></trkpt><trkpt lat="40.852660706371736" lon="9.182221378927332"><ele>1263.0</ele><time>2026-04-04T13:02:18Z</time></trkpt><trkpt lat="40.85264205635767" lon="9.182305523205967"><ele>1263.0</ele><time>2026-04-04T13:02:19Z</time></trkpt><trkpt lat="40.8526408775098" lon="9.182457507209401"><ele>1263.0</ele><time>2026-04-04T13:02:21Z</time></trkpt><trkpt lat="40.852576325321856" lon="9.182550201142723"><ele>1263.0</ele><time>2026-04-04T13:02:23Z</time></trkpt><trkpt lat="40.85247071835406" lon="9.182499221039313"><ele>1265.3333333333333</ele><time>2026-04-04T13:02:25Z</time></trkpt><trkpt lat="40.8524369576095" lon="9.18241613088483"><ele>1267.6666666666667</ele><time>2026-04-04T13:02:26Z</time></trkpt><trkpt lat="40.852406019559695" lon="9.182310955061755"><ele>1270.0</ele><time>2026-04-04T13:02:27Z</time></trkpt><trkpt lat="40.85236046429138" lon="9.182226232490178"><ele>1272.3333333333335</ele><time>2026-04-04T13:02:28Z</time></trkpt><trkpt lat="40.85231056314834" lon="9.182127930370294"><ele>1274.6666666666667</ele><time>2026-04-04T13:02:29Z</time></trkpt><trkpt lat="40.852265192058134" lon="9.181987996628182"><ele>1277.0</ele><time>2026-04-04T13:02:30Z</time></trkpt><trkpt lat="40.852218179146185" lon="9.181807134888771"><ele>1277.0</ele><time>2026-04-04T13:02:31Z</time></trkpt><trkpt lat="40.8521576563225" lon="9.181639421688992"><ele>1277.0</ele><time>2026-04-04T13:02:32.001Z</time></trkpt><trkpt lat="40.8520859951586" lon="9.181483844258644"><ele>1277.0</ele><time>2026-04-04T13:02:33.001Z</time></trkpt><trkpt lat="40.852022289148124" lon="9.181334073835744"><ele>1277.0</ele><time>2026-04-04T13:02:34.001Z</time></trkpt><trkpt lat="40.85198549059782" lon="9.18118319204961"><ele>1278.8</ele><time>2026-04-04T13:02:35.001Z</time></trkpt><trkpt lat="40.85195173751597" lon="9.181027275160824"><ele>1280.6</ele><time>2026-04-04T13:02:36.001Z</time></trkpt><trkpt lat="40.85191581021913" lon="9.18088219449421"><ele>1282.3999999999999</ele><time>2026-04-04T13:02:37.001Z</time></trkpt><trkpt lat="40.85189997797844" lon="9.180763538550133"><ele>1284.2</ele><time>2026-04-04T13:02:38.001Z</time></trkpt><trkpt lat="40.851899896737336" lon="9.180664709538478"><ele>1286.0</ele><time>2026-04-04T13:02:39.001Z</time></trkpt><trkpt lat="40.8519225831778" lon="9.18051010322714"><ele>1287.4285714285713</ele><time>2026-04-04T13:02:41.001Z</time></trkpt><trkpt lat="40.851937294549266" lon="9.180403529368183"><ele>1288.857142857143</ele><time>2026-04-04T13:02:42.001Z</time></trkpt><trkpt lat="40.851957701252076" lon="9.180286245860954"><ele>1290.2857142857142</ele><time>2026-04-04T13:02:43.001Z</time></trkpt><trkpt lat="40.851979720406256" lon="9.180190266481235"><ele>1291.7142857142858</ele><time>2026-04-04T13:02:44.001Z</time></trkpt><trkpt lat="40.85200750626399" lon="9.180100158804745"><ele>1293.142857142857</ele><time>2026-04-04T13:02:45.001Z</time></trkpt><trkpt lat="40.85204122183717" lon="9.180029093239014"><ele>1294.5714285714287</ele><time>2026-04-04T13:02:46.001Z</time></trkpt><trkpt lat="40.85208957829393" lon="9.17997503733846"><ele>1296.0</ele><time>2026-04-04T13:02:47.001Z</time></trkpt><trkpt lat="40.852158533129256" lon="9.179930719783009"><ele>1296.0</ele><time>2026-04-04T13:02:48.001Z</time></trkpt><trkpt lat="40.85221646971178" lon="9.179883729334733"><ele>1296.0</ele><time>2026-04-04T13:02:49.001Z</time></trkpt><trkpt lat="40.85225576532309" lon="9.179813658492451"><ele>1296.0</ele><time>2026-04-04T13:02:50.001Z</time></trkpt><trkpt lat="40.85228772357151" lon="9.179714237094744"><ele>1296.0</ele><time>2026-04-04T13:02:51.001Z</time></trkpt><trkpt lat="40.852321820674966" lon="9.179611824865399"><ele>1296.0</ele><time>2026-04-04T13:02:52.001Z</time></trkpt><trkpt lat="40.85236668298483" lon="9.1795033625676"><ele>1296.0</ele><time>2026-04-04T13:02:53.001Z</time></trkpt><trkpt lat="40.85241160511923" lon="9.179391503917893"><ele>1296.8</ele><time>2026-04-04T13:02:54.001Z</time></trkpt><trkpt lat="40.85245629786696" lon="9.17927218518051"><ele>1297.6</ele><time>2026-04-04T13:02:55.001Z</time></trkpt><trkpt lat="40.85250427937302" lon="9.179145647115604"><ele>1298.4</ele><time>2026-04-04T13:02:56.001Z</time></trkpt><trkpt lat="40.852549623989525" lon="9.179019771457629"><ele>1299.2</ele><time>2026-04-04T13:02:57.001Z</time></trkpt><trkpt lat="40.852603129568315" lon="9.17890154272768"><ele>1300.0</ele><time>2026-04-04T13:02:58.001Z</time></trkpt><trkpt lat="40.852685667524334" lon="9.178806512529068"><ele>1300.5</ele><time>2026-04-04T13:02:59.001Z</time></trkpt><trkpt lat="40.85277630068393" lon="9.178716525440379"><ele>1301.0</ele><time>2026-04-04T13:03:00.001Z</time></trkpt><trkpt lat="40.85287852869475" lon="9.178639657966464"><ele>1301.5</ele><time>2026-04-04T13:03:01.001Z</time></trkpt><trkpt lat="40.85297821212926" lon="9.178569419518505"><ele>1302.0</ele><time>2026-04-04T13:03:02.001Z</time></trkpt><trkpt lat="40.85308627689491" lon="9.178500017274402"><ele>1302.0</ele><time>2026-04-04T13:03:03.001Z</time></trkpt><trkpt lat="40.85318757002545" lon="9.178420588893587"><ele>1302.0</ele><time>2026-04-04T13:03:04.001Z</time></trkpt><trkpt lat="40.8532861023157" lon="9.178331791863876"><ele>1302.0</ele><time>2026-04-04T13:03:05.001Z</time></trkpt><trkpt lat="40.85339398286569" lon="9.178255867005218"><ele>1302.0</ele><time>2026-04-04T13:03:06.001Z</time></trkpt><trkpt lat="40.85349824285554" lon="9.178186576800172"><ele>1300.3333333333333</ele><time>2026-04-04T13:03:07.001Z</time></trkpt><trkpt lat="40.85358750375034" lon="9.178131892335177"><ele>1298.6666666666667</ele><time>2026-04-04T13:03:08.001Z</time></trkpt><trkpt lat="40.85366270638396" lon="9.178065283877217"><ele>1297.0</ele><time>2026-04-04T13:03:09.001Z</time></trkpt><trkpt lat="40.853717436094094" lon="9.177973907553628"><ele>1295.3333333333335</ele><time>2026-04-04T13:03:10.001Z</time></trkpt><trkpt lat="40.85374733651593" lon="9.177873181465111"><ele>1293.6666666666667</ele><time>2026-04-04T13:03:11.001Z</time></trkpt><trkpt lat="40.85374360906011" lon="9.177775719963297"><ele>1292.0</ele><time>2026-04-04T13:03:12.001Z</time></trkpt><trkpt lat="40.853725877609975" lon="9.177677098525647"><ele>1292.0</ele><time>2026-04-04T13:03:13.001Z</time></trkpt><trkpt lat="40.85370454203045" lon="9.177561037395865"><ele>1292.0</ele><time>2026-04-04T13:03:14.001Z</time></trkpt><trkpt lat="40.853711131166946" lon="9.177439236839787"><ele>1292.0</ele><time>2026-04-04T13:03:15.001Z</time></trkpt><trkpt lat="40.85372984654495" lon="9.177317340638997"><ele>1292.0</ele><time>2026-04-04T13:03:16.001Z</time></trkpt><trkpt lat="40.85374914429546" lon="9.17723636488016"><ele>1292.0</ele><time>2026-04-04T13:03:17.001Z</time></trkpt><trkpt lat="40.8537547748215" lon="9.177147632194178"><ele>1292.0</ele><time>2026-04-04T13:03:19.001Z</time></trkpt><trkpt lat="40.853732630446544" lon="9.177228241277824"><ele>1292.6666666666667</ele><time>2026-04-04T13:03:39.001Z</time></trkpt><trkpt lat="40.853749539106545" lon="9.177145374284835"><ele>1293.3333333333335</ele><time>2026-04-04T13:14:48Z</time></trkpt><trkpt lat="40.853740321638746" lon="9.176998981886863"><ele>1294.0</ele><time>2026-04-04T13:16:18.001Z</time></trkpt><trkpt lat="40.85375580561618" lon="9.176917371588587"><ele>1294.6666666666667</ele><time>2026-04-04T13:16:19.001Z</time></trkpt><trkpt lat="40.853759500487655" lon="9.176762387112692"><ele>1295.3333333333333</ele><time>2026-04-04T13:16:21.001Z</time></trkpt><trkpt lat="40.85376860483491" lon="9.176658811143728"><ele>1296.0</ele><time>2026-04-04T13:16:23.001Z</time></trkpt><trkpt lat="40.85379244925697" lon="9.176511254395718"><ele>1296.3333333333333</ele><time>2026-04-04T13:16:25.001Z</time></trkpt><trkpt lat="40.85381434799106" lon="9.176419383758512"><ele>1296.6666666666667</ele><time>2026-04-04T13:16:26.001Z</time></trkpt><trkpt lat="40.853839826359035" lon="9.17632386697701"><ele>1297.0</ele><time>2026-04-04T13:16:27.001Z</time></trkpt><trkpt lat="40.85385791562375" lon="9.176222792887915"><ele>1297.3333333333335</ele><time>2026-04-04T13:16:28.001Z</time></trkpt><trkpt lat="40.853871184042944" lon="9.176135909707005"><ele>1297.6666666666667</ele><time>2026-04-04T13:16:29Z</time></trkpt><trkpt lat="40.85389339192" lon="9.175980333503274"><ele>1298.0</ele><time>2026-04-04T13:16:31Z</time></trkpt><trkpt lat="40.85390096796788" lon="9.175896681619298"><ele>1298.0</ele><time>2026-04-04T13:16:32Z</time></trkpt><trkpt lat="40.853916018370896" lon="9.175799270576354"><ele>1298.0</ele><time>2026-04-04T13:16:33Z</time></trkpt><trkpt lat="40.853926931249774" lon="9.17569929629451"><ele>1298.0</ele><time>2026-04-04T13:16:34Z</time></trkpt><trkpt lat="40.85393056875349" lon="9.17559149998958"><ele>1298.0</ele><time>2026-04-04T13:16:35Z</time></trkpt><trkpt lat="40.85393027051217" lon="9.175480509016227"><ele>1298.0</ele><time>2026-04-04T13:16:36Z</time></trkpt><trkpt lat="40.85393465799743" lon="9.175383124577035"><ele>1298.0</ele><time>2026-04-04T13:16:37Z</time></trkpt><trkpt lat="40.853935618905425" lon="9.175297949057274"><ele>1298.8333333333335</ele><time>2026-04-04T13:16:38Z</time></trkpt><trkpt lat="40.85391874066691" lon="9.1751716873359"><ele>1299.6666666666667</ele><time>2026-04-04T13:16:40Z</time></trkpt><trkpt lat="40.85391215577349" lon="9.175072624748847"><ele>1300.5</ele><time>2026-04-04T13:17:21.001Z</time></trkpt><trkpt lat="40.853864752057625" lon="9.174959170529073"><ele>1301.3333333333333</ele><time>2026-04-04T13:17:23.001Z</time></trkpt><trkpt lat="40.85384583673868" lon="9.17486270176682"><ele>1302.1666666666665</ele><time>2026-04-04T13:17:24.001Z</time></trkpt><trkpt lat="40.8538283129334" lon="9.174768253096987"><ele>1303.0</ele><time>2026-04-04T13:17:25.001Z</time></trkpt><trkpt lat="40.85379938222375" lon="9.174668180487124"><ele>1303.3333333333333</ele><time>2026-04-04T13:17:26.001Z</time></trkpt><trkpt lat="40.85376589567587" lon="9.17457629378453"><ele>1303.6666666666665</ele><time>2026-04-04T13:17:27.001Z</time></trkpt><trkpt lat="40.853737343048" lon="9.174489305386022"><ele>1304.0</ele><time>2026-04-04T13:17:28.001Z</time></trkpt><trkpt lat="40.853685701493745" lon="9.174348357351102"><ele>1304.3333333333333</ele><time>2026-04-04T13:17:30.001Z</time></trkpt><trkpt lat="40.853657265385834" lon="9.174274038935026"><ele>1304.6666666666667</ele><time>2026-04-04T13:17:31.001Z</time></trkpt><trkpt lat="40.853593008793375" lon="9.174143610753442"><ele>1305.0</ele><time>2026-04-04T13:17:33.001Z</time></trkpt><trkpt lat="40.853554586088265" lon="9.17405390739477"><ele>1305.8333333333333</ele><time>2026-04-04T13:17:36.001Z</time></trkpt><trkpt lat="40.85350824170211" lon="9.173991550085121"><ele>1306.6666666666667</ele><time>2026-04-04T13:17:38.001Z</time></trkpt><trkpt lat="40.85345831023872" lon="9.173904107859357"><ele>1307.5</ele><time>2026-04-04T13:17:40.001Z</time></trkpt><trkpt lat="40.85341903469527" lon="9.173812790764472"><ele>1308.3333333333335</ele><time>2026-04-04T13:17:42.001Z</time></trkpt><trkpt lat="40.85337724010018" lon="9.173716125461254"><ele>1309.1666666666667</ele><time>2026-04-04T13:17:44.001Z</time></trkpt><trkpt lat="40.85333709238704" lon="9.173641554990708"><ele>1310.0</ele><time>2026-04-04T13:17:46.001Z</time></trkpt><trkpt lat="40.85330199537693" lon="9.173551803566644"><ele>1310.0</ele><time>2026-04-04T13:17:49.001Z</time></trkpt><trkpt lat="40.853374602569595" lon="9.17350713286623"><ele>1310.0</ele><time>2026-04-04T13:18:06.001Z</time></trkpt><trkpt lat="40.85348047299618" lon="9.173477643820995"><ele>1310.0</ele><time>2026-04-04T13:18:08.001Z</time></trkpt><trkpt lat="40.85355029203673" lon="9.17343449022352"><ele>1310.0</ele><time>2026-04-04T13:18:10.001Z</time></trkpt><trkpt lat="40.85352299898401" lon="9.173314908480359"><ele>1310.0</ele><time>2026-04-04T13:18:13.001Z</time></trkpt><trkpt lat="40.853404391354395" lon="9.173285324233985"><ele>1310.0</ele><time>2026-04-04T13:18:15.001Z</time></trkpt><trkpt lat="40.853327515643294" lon="9.173270326116556"><ele>1310.0</ele><time>2026-04-04T13:18:16.001Z</time></trkpt><trkpt lat="40.853253548705375" lon="9.173237456228579"><ele>1310.0</ele><time>2026-04-04T13:18:17.001Z</time></trkpt><trkpt lat="40.85317673115595" lon="9.173196406901422"><ele>1310.0</ele><time>2026-04-04T13:18:18.001Z</time></trkpt><trkpt lat="40.85311527756383" lon="9.173124783809342"><ele>1310.0</ele><time>2026-04-04T13:18:19.001Z</time></trkpt><trkpt lat="40.85304624271899" lon="9.17309606261839"><ele>1310.0</ele><time>2026-04-04T13:18:20.001Z</time></trkpt><trkpt lat="40.853013959183684" lon="9.173007212395726"><ele>1307.6666666666667</ele><time>2026-04-04T13:18:21.001Z</time></trkpt><trkpt lat="40.853019698351815" lon="9.172902415114152"><ele>1305.3333333333335</ele><time>2026-04-04T13:18:22.001Z</time></trkpt><trkpt lat="40.85306626376068" lon="9.172817757198516"><ele>1303.0</ele><time>2026-04-04T13:18:23.001Z</time></trkpt><trkpt lat="40.853135087149056" lon="9.172772936447226"><ele>1300.6666666666667</ele><time>2026-04-04T13:18:24.001Z</time></trkpt><trkpt lat="40.85320976288547" lon="9.172742593104282"><ele>1298.3333333333333</ele><time>2026-04-04T13:18:25.001Z</time></trkpt><trkpt lat="40.853285510433366" lon="9.17270344784512"><ele>1296.0</ele><time>2026-04-04T13:18:26.001Z</time></trkpt><trkpt lat="40.85335618431422" lon="9.172647072566038"><ele>1296.0</ele><time>2026-04-04T13:18:27.001Z</time></trkpt><trkpt lat="40.853419410523145" lon="9.172583531842882"><ele>1296.0</ele><time>2026-04-04T13:18:28.001Z</time></trkpt><trkpt lat="40.85347169370936" lon="9.172513015011038"><ele>1296.0</ele><time>2026-04-04T13:18:29.001Z</time></trkpt><trkpt lat="40.85349971125639" lon="9.172436737616142"><ele>1296.0</ele><time>2026-04-04T13:18:30.001Z</time></trkpt><trkpt lat="40.8535006617321" lon="9.17228021527996"><ele>1296.0</ele><time>2026-04-04T13:18:32.001Z</time></trkpt><trkpt lat="40.853485659499306" lon="9.17217969977237"><ele>1296.0</ele><time>2026-04-04T13:18:34.001Z</time></trkpt><trkpt lat="40.85356158174017" lon="9.172190584568616"><ele>1294.1666666666667</ele><time>2026-04-04T13:18:37Z</time></trkpt><trkpt lat="40.853607130152575" lon="9.172264764952637"><ele>1292.3333333333333</ele><time>2026-04-04T13:18:38Z</time></trkpt><trkpt lat="40.85371163232147" lon="9.17215223981219"><ele>1290.5</ele><time>2026-04-04T13:18:41Z</time></trkpt><trkpt lat="40.85379757236597" lon="9.172119342920352"><ele>1288.6666666666665</ele><time>2026-04-04T13:18:42Z</time></trkpt><trkpt lat="40.85386504520535" lon="9.17209026160093"><ele>1286.8333333333333</ele><time>2026-04-04T13:18:43Z</time></trkpt><trkpt lat="40.85392488582301" lon="9.172043976161207"><ele>1285.0</ele><time>2026-04-04T13:18:44Z</time></trkpt><trkpt lat="40.85398291765635" lon="9.17197946918725"><ele>1285.0</ele><time>2026-04-04T13:18:45Z</time></trkpt><trkpt lat="40.85403902533426" lon="9.171914698631618"><ele>1285.0</ele><time>2026-04-04T13:18:46Z</time></trkpt><trkpt lat="40.85409857153392" lon="9.171879337914746"><ele>1285.0</ele><time>2026-04-04T13:18:47Z</time></trkpt><trkpt lat="40.85420755243825" lon="9.171867513598173"><ele>1285.0</ele><time>2026-04-04T13:18:49Z</time></trkpt><trkpt lat="40.85431730424903" lon="9.171889826881966"><ele>1285.0</ele><time>2026-04-04T13:18:51Z</time></trkpt><trkpt lat="40.85439630325197" lon="9.171918039819957"><ele>1285.0</ele><time>2026-04-04T13:18:53Z</time></trkpt><trkpt lat="40.8544516986474" lon="9.171872059957614"><ele>1285.0</ele><time>2026-04-04T13:19:24.001Z</time></trkpt><trkpt lat="40.85433563649363" lon="9.171815042509749"><ele>1285.0</ele><time>2026-04-04T13:19:28.001Z</time></trkpt><trkpt lat="40.854237453816374" lon="9.171801173499949"><ele>1285.0</ele><time>2026-04-04T13:19:29.001Z</time></trkpt><trkpt lat="40.854155589417175" lon="9.171799270981857"><ele>1285.0</ele><time>2026-04-04T13:19:30.001Z</time></trkpt><trkpt lat="40.854079783367055" lon="9.171801965502032"><ele>1285.0</ele><time>2026-04-04T13:19:31.001Z</time></trkpt><trkpt lat="40.854019469556576" lon="9.171829718513846"><ele>1285.0</ele><time>2026-04-04T13:19:32.001Z</time></trkpt><trkpt lat="40.853961606761075" lon="9.171888257653302"><ele>1285.0</ele><time>2026-04-04T13:19:33.001Z</time></trkpt><trkpt lat="40.853911059142625" lon="9.171938160335758"><ele>1285.0</ele><time>2026-04-04T13:19:34.001Z</time></trkpt><trkpt lat="40.85384025339208" lon="9.172013035036883"><ele>1285.0</ele><time>2026-04-04T13:19:36.001Z</time></trkpt><trkpt lat="40.85374534833149" lon="9.172059851799515"><ele>1285.0</ele><time>2026-04-04T13:19:38.001Z</time></trkpt><trkpt lat="40.853642686827556" lon="9.17208688772747"><ele>1285.0</ele><time>2026-04-04T13:19:40.001Z</time></trkpt><trkpt lat="40.85357172060281" lon="9.172117209553488"><ele>1285.0</ele><time>2026-04-04T13:19:42.001Z</time></trkpt><trkpt lat="40.85348194704805" lon="9.172146999516494"><ele>1283.8333333333333</ele><time>2026-04-04T13:19:45.001Z</time></trkpt><trkpt lat="40.85338264528238" lon="9.17215968027145"><ele>1282.6666666666665</ele><time>2026-04-04T13:19:48.001Z</time></trkpt><trkpt lat="40.853327022847225" lon="9.172252780699907"><ele>1281.5</ele><time>2026-04-04T13:19:59.001Z</time></trkpt><trkpt lat="40.85323867500394" lon="9.172259193727427"><ele>1280.3333333333333</ele><time>2026-04-04T13:20:01.001Z</time></trkpt><trkpt lat="40.85316126124204" lon="9.172252644289737"><ele>1279.1666666666667</ele><time>2026-04-04T13:20:03.001Z</time></trkpt><trkpt lat="40.85308766635244" lon="9.172257270303966"><ele>1278.0</ele><time>2026-04-04T13:20:05.001Z</time></trkpt><trkpt lat="40.853015339592666" lon="9.172252050495919"><ele>1278.0</ele><time>2026-04-04T13:20:07.001Z</time></trkpt><trkpt lat="40.8529402117435" lon="9.172251153462925"><ele>1278.0</ele><time>2026-04-04T13:20:09.001Z</time></trkpt><trkpt lat="40.85280906184832" lon="9.172232913625203"><ele>1278.0</ele><time>2026-04-04T13:20:11.001Z</time></trkpt><trkpt lat="40.85273126682176" lon="9.172226000978661"><ele>1278.0</ele><time>2026-04-04T13:20:12.001Z</time></trkpt><trkpt lat="40.85263805537697" lon="9.172212375104664"><ele>1278.0</ele><time>2026-04-04T13:20:13.001Z</time></trkpt><trkpt lat="40.85253379244035" lon="9.172193157301594"><ele>1277.3333333333333</ele><time>2026-04-04T13:20:14.001Z</time></trkpt><trkpt lat="40.85243233819275" lon="9.17216816997787"><ele>1276.6666666666667</ele><time>2026-04-04T13:20:15.001Z</time></trkpt><trkpt lat="40.85234232610107" lon="9.172138321915023"><ele>1276.0</ele><time>2026-04-04T13:20:16.001Z</time></trkpt><trkpt lat="40.85226119899219" lon="9.172110015441822"><ele>1275.3333333333335</ele><time>2026-04-04T13:20:17.001Z</time></trkpt><trkpt lat="40.852185352056814" lon="9.172078355355634"><ele>1274.6666666666667</ele><time>2026-04-04T13:20:18.001Z</time></trkpt><trkpt lat="40.852114263857054" lon="9.172052367956635"><ele>1274.0</ele><time>2026-04-04T13:20:19.001Z</time></trkpt><trkpt lat="40.85204669906975" lon="9.172035709436503"><ele>1274.0</ele><time>2026-04-04T13:20:20.001Z</time></trkpt><trkpt lat="40.85192533431885" lon="9.172009342879651"><ele>1274.0</ele><time>2026-04-04T13:20:22.001Z</time></trkpt><trkpt lat="40.85181590609301" lon="9.171973820132676"><ele>1274.0</ele><time>2026-04-04T13:20:24.001Z</time></trkpt><trkpt lat="40.85172571306171" lon="9.171904646706746"><ele>1274.0</ele><time>2026-04-04T13:20:26.001Z</time></trkpt><trkpt lat="40.85164601720778" lon="9.171823368692275"><ele>1274.0</ele><time>2026-04-04T13:20:28.001Z</time></trkpt><trkpt lat="40.85158615128991" lon="9.171719898626748"><ele>1274.1666666666667</ele><time>2026-04-04T13:20:30.001Z</time></trkpt><trkpt lat="40.85152099168812" lon="9.171589714719499"><ele>1274.3333333333335</ele><time>2026-04-04T13:20:32.001Z</time></trkpt><trkpt lat="40.85148417781791" lon="9.171517000411473"><ele>1274.5</ele><time>2026-04-04T13:20:33.001Z</time></trkpt><trkpt lat="40.85144602573106" lon="9.17143187070147"><ele>1274.6666666666667</ele><time>2026-04-04T13:20:34.001Z</time></trkpt><trkpt lat="40.85139510475009" lon="9.17135770511916"><ele>1274.8333333333333</ele><time>2026-04-04T13:20:35.001Z</time></trkpt><trkpt lat="40.85135510729898" lon="9.171277171275332"><ele>1275.0</ele><time>2026-04-04T13:20:36.001Z</time></trkpt><trkpt lat="40.85130997548448" lon="9.171182933489831"><ele>1273.3333333333333</ele><time>2026-04-04T13:20:37.001Z</time></trkpt><trkpt lat="40.85127765302051" lon="9.171086408456112"><ele>1271.6666666666667</ele><time>2026-04-04T13:20:38.001Z</time></trkpt><trkpt lat="40.85126162875752" lon="9.170984588719394"><ele>1270.0</ele><time>2026-04-04T13:20:39.001Z</time></trkpt><trkpt lat="40.85126311347934" lon="9.17088087234517"><ele>1268.3333333333335</ele><time>2026-04-04T13:20:40.001Z</time></trkpt><trkpt lat="40.851291978629014" lon="9.170769621419637"><ele>1266.6666666666667</ele><time>2026-04-04T13:20:41Z</time></trkpt><trkpt lat="40.851328344395704" lon="9.17067224051277"><ele>1265.0</ele><time>2026-04-04T13:20:42Z</time></trkpt><trkpt lat="40.851387063603426" lon="9.17059321147892"><ele>1263.1666666666667</ele><time>2026-04-04T13:20:43Z</time></trkpt><trkpt lat="40.8514454116848" lon="9.170512130286903"><ele>1261.3333333333335</ele><time>2026-04-04T13:20:44Z</time></trkpt><trkpt lat="40.85149490039848" lon="9.170437488936898"><ele>1259.5</ele><time>2026-04-04T13:20:45Z</time></trkpt><trkpt lat="40.85154691600424" lon="9.17038001292995"><ele>1257.6666666666667</ele><time>2026-04-04T13:20:46Z</time></trkpt><trkpt lat="40.85160381170985" lon="9.170314742936476"><ele>1255.8333333333333</ele><time>2026-04-04T13:20:47Z</time></trkpt><trkpt lat="40.85168642690761" lon="9.170200902821216"><ele>1254.0</ele><time>2026-04-04T13:20:49Z</time></trkpt><trkpt lat="40.851760561264996" lon="9.170137124109361"><ele>1254.0</ele><time>2026-04-04T13:20:51Z</time></trkpt><trkpt lat="40.85167065198127" lon="9.170192267010583"><ele>1254.0</ele><time>2026-04-04T13:21:04Z</time></trkpt><trkpt lat="40.85155848396396" lon="9.170319526983633"><ele>1254.0</ele><time>2026-04-04T13:21:06Z</time></trkpt><trkpt lat="40.85149782756665" lon="9.170401324259712"><ele>1254.0</ele><time>2026-04-04T13:21:07Z</time></trkpt><trkpt lat="40.851401421037224" lon="9.17045370446398"><ele>1254.0</ele><time>2026-04-04T13:21:08Z</time></trkpt><trkpt lat="40.85133141221969" lon="9.17055564108852"><ele>1256.75</ele><time>2026-04-04T13:21:09Z</time></trkpt><trkpt lat="40.851263752523806" lon="9.170695905668072"><ele>1259.5</ele><time>2026-04-04T13:21:10Z</time></trkpt><trkpt lat="40.85122206141936" lon="9.170840958931256"><ele>1262.25</ele><time>2026-04-04T13:21:11Z</time></trkpt><trkpt lat="40.85121201518754" lon="9.171004528747899"><ele>1265.0</ele><time>2026-04-04T13:21:12Z</time></trkpt><trkpt lat="40.85124147858095" lon="9.171163711505262"><ele>1265.0</ele><time>2026-04-04T13:21:13Z</time></trkpt><trkpt lat="40.85130856712611" lon="9.171303689615101"><ele>1265.0</ele><time>2026-04-04T13:21:14Z</time></trkpt><trkpt lat="40.851375056052575" lon="9.17143757623399"><ele>1265.0</ele><time>2026-04-04T13:21:15Z</time></trkpt><trkpt lat="40.85144808966507" lon="9.171584125665317"><ele>1265.0</ele><time>2026-04-04T13:21:16Z</time></trkpt><trkpt lat="40.85152567464211" lon="9.171735104445496"><ele>1267.25</ele><time>2026-04-04T13:21:17Z</time></trkpt><trkpt lat="40.851612396201375" lon="9.171869816795994"><ele>1269.5</ele><time>2026-04-04T13:21:18Z</time></trkpt><trkpt lat="40.85171227098079" lon="9.171969410229005"><ele>1271.75</ele><time>2026-04-04T13:21:19Z</time></trkpt><trkpt lat="40.85181776068437" lon="9.172017327473053"><ele>1274.0</ele><time>2026-04-04T13:21:20Z</time></trkpt><trkpt lat="40.85192011566756" lon="9.172060434134787"><ele>1274.0</ele><time>2026-04-04T13:21:21Z</time></trkpt><trkpt lat="40.85202517433573" lon="9.172097231015403"><ele>1274.0</ele><time>2026-04-04T13:21:22Z</time></trkpt><trkpt lat="40.8521398827609" lon="9.172117513935662"><ele>1274.0</ele><time>2026-04-04T13:21:23Z</time></trkpt><trkpt lat="40.85226945358744" lon="9.172158713564537"><ele>1274.0</ele><time>2026-04-04T13:21:24Z</time></trkpt><trkpt lat="40.85239885354697" lon="9.172198798439558"><ele>1274.0</ele><time>2026-04-04T13:21:25Z</time></trkpt><trkpt lat="40.852529610755084" lon="9.172235070714697"><ele>1274.0</ele><time>2026-04-04T13:21:26Z</time></trkpt><trkpt lat="40.85265968812032" lon="9.172262471047054"><ele>1274.0</ele><time>2026-04-04T13:21:27Z</time></trkpt><trkpt lat="40.852788224370755" lon="9.172284308406667"><ele>1274.0</ele><time>2026-04-04T13:21:28Z</time></trkpt><trkpt lat="40.852910223126834" lon="9.172298707622732"><ele>1274.8</ele><time>2026-04-04T13:21:29.001Z</time></trkpt><trkpt lat="40.853028492413294" lon="9.172306063813306"><ele>1275.6000000000001</ele><time>2026-04-04T13:21:30.001Z</time></trkpt><trkpt lat="40.85314223136125" lon="9.172322623656322"><ele>1276.4</ele><time>2026-04-04T13:21:31.001Z</time></trkpt><trkpt lat="40.85325262062633" lon="9.172300953174675"><ele>1277.2</ele><time>2026-04-04T13:21:32.001Z</time></trkpt><trkpt lat="40.85334647604135" lon="9.172258168548144"><ele>1278.0</ele><time>2026-04-04T13:21:33.001Z</time></trkpt><trkpt lat="40.85342453389017" lon="9.17225695339093"><ele>1279.1666666666667</ele><time>2026-04-04T13:21:34.001Z</time></trkpt><trkpt lat="40.853482550288575" lon="9.172295153373753"><ele>1280.3333333333333</ele><time>2026-04-04T13:21:35.001Z</time></trkpt><trkpt lat="40.853501276548926" lon="9.172452989371035"><ele>1281.5</ele><time>2026-04-04T13:21:37.001Z</time></trkpt><trkpt lat="40.853440118702416" lon="9.172526258189219"><ele>1282.6666666666665</ele><time>2026-04-04T13:21:38.001Z</time></trkpt><trkpt lat="40.853362016628765" lon="9.172564089605487"><ele>1283.8333333333333</ele><time>2026-04-04T13:21:39.001Z</time></trkpt><trkpt lat="40.85328425983844" lon="9.172616678284282"><ele>1285.0</ele><time>2026-04-04T13:21:40.001Z</time></trkpt><trkpt lat="40.85321277072246" lon="9.17269386706144"><ele>1286.8333333333333</ele><time>2026-04-04T13:21:41.001Z</time></trkpt><trkpt lat="40.85312866489387" lon="9.172731672123628"><ele>1288.6666666666665</ele><time>2026-04-04T13:21:42.001Z</time></trkpt><trkpt lat="40.853062567360894" lon="9.172785183529747"><ele>1290.5</ele><time>2026-04-04T13:21:43.001Z</time></trkpt><trkpt lat="40.85300396243313" lon="9.172842980365031"><ele>1292.3333333333333</ele><time>2026-04-04T13:21:44.001Z</time></trkpt><trkpt lat="40.852967544429056" lon="9.172924541753297"><ele>1294.1666666666667</ele><time>2026-04-04T13:21:45.001Z</time></trkpt><trkpt lat="40.85296884213688" lon="9.173049732515551"><ele>1296.0</ele><time>2026-04-04T13:21:46.001Z</time></trkpt><trkpt lat="40.85305782410579" lon="9.17315486891548"><ele>1298.8</ele><time>2026-04-04T13:21:47.001Z</time></trkpt><trkpt lat="40.853140887711064" lon="9.173215321000049"><ele>1301.6</ele><time>2026-04-04T13:21:48.001Z</time></trkpt><trkpt lat="40.853238335020315" lon="9.173238334298189"><ele>1304.4</ele><time>2026-04-04T13:21:49.001Z</time></trkpt><trkpt lat="40.853339711558235" lon="9.173252933015624"><ele>1307.2</ele><time>2026-04-04T13:21:50.001Z</time></trkpt><trkpt lat="40.853430886032015" lon="9.17327942159077"><ele>1310.0</ele><time>2026-04-04T13:21:51.001Z</time></trkpt><trkpt lat="40.8534991780697" lon="9.17330478407943"><ele>1310.0</ele><time>2026-04-04T13:21:52.001Z</time></trkpt><trkpt lat="40.85357219163675" lon="9.173360601235604"><ele>1310.0</ele><time>2026-04-04T13:21:54.001Z</time></trkpt><trkpt lat="40.853528383645596" lon="9.173438283015884"><ele>1310.0</ele><time>2026-04-04T13:21:56.001Z</time></trkpt><trkpt lat="40.85344908915609" lon="9.173425784800045"><ele>1310.0</ele><time>2026-04-04T13:21:58.001Z</time></trkpt><trkpt lat="40.85338387050632" lon="9.173450331178808"><ele>1310.0</ele><time>2026-04-04T13:21:59.001Z</time></trkpt><trkpt lat="40.853311242709374" lon="9.173485680090884"><ele>1310.0</ele><time>2026-04-04T13:22:00.001Z</time></trkpt><trkpt lat="40.85323417592795" lon="9.173517908095883"><ele>1310.0</ele><time>2026-04-04T13:22:01.001Z</time></trkpt><trkpt lat="40.853152073046886" lon="9.173539629340512"><ele>1310.0</ele><time>2026-04-04T13:22:02.001Z</time></trkpt><trkpt lat="40.853059042584405" lon="9.173570464105081"><ele>1310.0</ele><time>2026-04-04T13:22:03.001Z</time></trkpt><trkpt lat="40.85295857203111" lon="9.173606145930375"><ele>1310.0</ele><time>2026-04-04T13:22:04.001Z</time></trkpt><trkpt lat="40.8528677216829" lon="9.173625717009683"><ele>1310.0</ele><time>2026-04-04T13:22:05.001Z</time></trkpt><trkpt lat="40.85277753363467" lon="9.173629436038434"><ele>1310.0</ele><time>2026-04-04T13:22:06.001Z</time></trkpt><trkpt lat="40.85269232320601" lon="9.17365492900972"><ele>1310.0</ele><time>2026-04-04T13:22:07.001Z</time></trkpt><trkpt lat="40.852608833102586" lon="9.173658047082599"><ele>1310.0</ele><time>2026-04-04T13:22:08.001Z</time></trkpt><trkpt lat="40.85253082074816" lon="9.173756181390708"><ele>1310.0</ele><time>2026-04-04T13:22:09.001Z</time></trkpt><trkpt lat="40.85244717157084" lon="9.173868166355033"><ele>1310.0</ele><time>2026-04-04T13:22:10.001Z</time></trkpt><trkpt lat="40.85234778212446" lon="9.173971032063895"><ele>1311.5</ele><time>2026-04-04T13:22:11.001Z</time></trkpt><trkpt lat="40.8522566655325" lon="9.17408095429249"><ele>1313.0</ele><time>2026-04-04T13:22:12.001Z</time></trkpt><trkpt lat="40.85215473095953" lon="9.174192485328541"><ele>1314.5</ele><time>2026-04-04T13:22:13.001Z</time></trkpt><trkpt lat="40.85204435348089" lon="9.174301263782473"><ele>1316.0</ele><time>2026-04-04T13:22:14.001Z</time></trkpt><trkpt lat="40.85193624374502" lon="9.174407909366153"><ele>1316.0</ele><time>2026-04-04T13:22:15.001Z</time></trkpt><trkpt lat="40.85182531330044" lon="9.174514342632229"><ele>1316.0</ele><time>2026-04-04T13:22:16.001Z</time></trkpt><trkpt lat="40.851716749798435" lon="9.174618147190541"><ele>1316.0</ele><time>2026-04-04T13:22:17.001Z</time></trkpt><trkpt lat="40.85161204587214" lon="9.174723196610067"><ele>1316.0</ele><time>2026-04-04T13:22:18.001Z</time></trkpt><trkpt lat="40.85152425762371" lon="9.17484214292395"><ele>1318.0</ele><time>2026-04-04T13:22:19.001Z</time></trkpt><trkpt lat="40.85146641460758" lon="9.174973538174113"><ele>1320.0</ele><time>2026-04-04T13:22:20.001Z</time></trkpt><trkpt lat="40.851428987505614" lon="9.175108740439592"><ele>1322.0</ele><time>2026-04-04T13:22:21.001Z</time></trkpt><trkpt lat="40.85139906904365" lon="9.175228145250202"><ele>1324.0</ele><time>2026-04-04T13:22:22.001Z</time></trkpt><trkpt lat="40.85142853196268" lon="9.1753642038835"><ele>1326.0</ele><time>2026-04-04T13:22:23.001Z</time></trkpt><trkpt lat="40.85151061064426" lon="9.175471828884529"><ele>1326.0</ele><time>2026-04-04T13:22:24.001Z</time></trkpt><trkpt lat="40.85159487320941" lon="9.175550417407724"><ele>1326.0</ele><time>2026-04-04T13:22:25.001Z</time></trkpt><trkpt lat="40.851693588571784" lon="9.175578616429746"><ele>1326.0</ele><time>2026-04-04T13:22:26.001Z</time></trkpt><trkpt lat="40.8517948625291" lon="9.175580695731263"><ele>1326.0</ele><time>2026-04-04T13:22:27.001Z</time></trkpt><trkpt lat="40.851895822220335" lon="9.175585674318683"><ele>1326.0</ele><time>2026-04-04T13:22:28.001Z</time></trkpt><trkpt lat="40.85197910515553" lon="9.175600918413558"><ele>1326.4</ele><time>2026-04-04T13:22:29.001Z</time></trkpt><trkpt lat="40.85203008995835" lon="9.17565111975411"><ele>1326.8</ele><time>2026-04-04T13:22:31.001Z</time></trkpt><trkpt lat="40.85193791336015" lon="9.175741097533722"><ele>1327.2</ele><time>2026-04-04T13:22:36.001Z</time></trkpt><trkpt lat="40.8518568579645" lon="9.175852591867017"><ele>1327.6000000000001</ele><time>2026-04-04T13:22:38.001Z</time></trkpt><trkpt lat="40.85182414829667" lon="9.17597638154801"><ele>1328.0</ele><time>2026-04-04T13:22:40.001Z</time></trkpt><trkpt lat="40.851820861543395" lon="9.17612493320184"><ele>1330.3333333333335</ele><time>2026-04-04T13:22:42.001Z</time></trkpt><trkpt lat="40.851836949444454" lon="9.176209189274916"><ele>1332.6666666666667</ele><time>2026-04-04T13:22:43.001Z</time></trkpt><trkpt lat="40.851850721814614" lon="9.176326807553282"><ele>1335.0</ele><time>2026-04-04T13:22:44.001Z</time></trkpt><trkpt lat="40.851858275921636" lon="9.176445835965003"><ele>1337.3333333333333</ele><time>2026-04-04T13:22:45.001Z</time></trkpt><trkpt lat="40.85186359076961" lon="9.176540388574471"><ele>1339.6666666666665</ele><time>2026-04-04T13:22:46.001Z</time></trkpt><trkpt lat="40.85189482047351" lon="9.17667704298659"><ele>1342.0</ele><time>2026-04-04T13:22:48Z</time></trkpt><trkpt lat="40.851933333129416" lon="9.176810610005322"><ele>1342.8333333333333</ele><time>2026-04-04T13:22:50Z</time></trkpt><trkpt lat="40.851927304576506" lon="9.17693760652642"><ele>1343.6666666666665</ele><time>2026-04-04T13:22:52Z</time></trkpt><trkpt lat="40.85198033389766" lon="9.1770506237084"><ele>1344.5</ele><time>2026-04-04T13:22:54Z</time></trkpt><trkpt lat="40.852031947727696" lon="9.177129101364844"><ele>1345.3333333333333</ele><time>2026-04-04T13:22:57Z</time></trkpt><trkpt lat="40.85210706527798" lon="9.17712838670725"><ele>1346.1666666666667</ele><time>2026-04-04T13:22:59Z</time></trkpt><trkpt lat="40.852181697480134" lon="9.177108935811193"><ele>1347.0</ele><time>2026-04-04T13:23:01Z</time></trkpt><trkpt lat="40.85223259789524" lon="9.177200743363613"><ele>1347.0</ele><time>2026-04-04T13:23:03Z</time></trkpt><trkpt lat="40.852271490024805" lon="9.177300494930691"><ele>1347.0</ele><time>2026-04-04T13:23:05Z</time></trkpt><trkpt lat="40.85231409772872" lon="9.177384046600883"><ele>1347.0</ele><time>2026-04-04T13:23:08Z</time></trkpt><trkpt lat="40.85245186108016" lon="9.177365654857311"><ele>1347.0</ele><time>2026-04-04T13:23:11Z</time></trkpt><trkpt lat="40.852555794689096" lon="9.17734130085124"><ele>1347.0</ele><time>2026-04-04T13:23:12Z</time></trkpt><trkpt lat="40.85266177519034" lon="9.177323409243199"><ele>1347.0</ele><time>2026-04-04T13:23:13Z</time></trkpt><trkpt lat="40.85274862296633" lon="9.177302240985647"><ele>1347.0</ele><time>2026-04-04T13:23:14Z</time></trkpt><trkpt lat="40.85281332658373" lon="9.177282911895224"><ele>1347.0</ele><time>2026-04-04T13:23:15Z</time></trkpt><trkpt lat="40.85287858873123" lon="9.177272702416303"><ele>1347.0</ele><time>2026-04-04T13:23:22Z</time></trkpt><trkpt lat="40.85278742406816" lon="9.177296573721627"><ele>1347.0</ele><time>2026-04-04T13:23:44.001Z</time></trkpt><trkpt lat="40.85270397952678" lon="9.177287615475358"><ele>1347.0</ele><time>2026-04-04T13:23:46.001Z</time></trkpt><trkpt lat="40.8526048730848" lon="9.177325357092306"><ele>1347.0</ele><time>2026-04-04T13:23:48.001Z</time></trkpt><trkpt lat="40.85250237681196" lon="9.1773550917944"><ele>1347.0</ele><time>2026-04-04T13:23:50.001Z</time></trkpt><trkpt lat="40.85240642386466" lon="9.177363660347476"><ele>1347.0</ele><time>2026-04-04T13:23:52.001Z</time></trkpt><trkpt lat="40.85232836330243" lon="9.177379611169586"><ele>1347.0</ele><time>2026-04-04T13:23:54.001Z</time></trkpt><trkpt lat="40.852266234131484" lon="9.177311360126408"><ele>1347.0</ele><time>2026-04-04T13:23:57.001Z</time></trkpt><trkpt lat="40.85221655040373" lon="9.177195508343086"><ele>1347.0</ele><time>2026-04-04T13:23:59.001Z</time></trkpt><trkpt lat="40.85215671049309" lon="9.17709800585929"><ele>1347.0</ele><time>2026-04-04T13:24:01.001Z</time></trkpt><trkpt lat="40.852066818141004" lon="9.17709872586127"><ele>1347.0</ele><time>2026-04-04T13:24:03.001Z</time></trkpt><trkpt lat="40.85199996503197" lon="9.177082857630909"><ele>1347.0</ele><time>2026-04-04T13:24:05.001Z</time></trkpt><trkpt lat="40.851938947242274" lon="9.176963052014585"><ele>1347.0</ele><time>2026-04-04T13:24:07.001Z</time></trkpt><trkpt lat="40.85192079502328" lon="9.176831399703897"><ele>1347.0</ele><time>2026-04-04T13:24:09.001Z</time></trkpt><trkpt lat="40.85192253230207" lon="9.176697451085502"><ele>1347.0</ele><time>2026-04-04T13:24:11.001Z</time></trkpt><trkpt lat="40.851879391905086" lon="9.176577459717056"><ele>1347.0</ele><time>2026-04-04T13:24:13.001Z</time></trkpt><trkpt lat="40.851852585068364" lon="9.176452325000689"><ele>1347.0</ele><time>2026-04-04T13:24:15.001Z</time></trkpt><trkpt lat="40.85184455515764" lon="9.176325387884368"><ele>1347.0</ele><time>2026-04-04T13:24:17.001Z</time></trkpt><trkpt lat="40.85183643337165" lon="9.176188215386357"><ele>1346.0</ele><time>2026-04-04T13:24:19.001Z</time></trkpt><trkpt lat="40.85181992610904" lon="9.176049312946295"><ele>1345.0</ele><time>2026-04-04T13:24:21.001Z</time></trkpt><trkpt lat="40.8518401610343" lon="9.175908497464933"><ele>1344.0</ele><time>2026-04-04T13:24:23.001Z</time></trkpt><trkpt lat="40.85187673093281" lon="9.175836923175401"><ele>1343.0</ele><time>2026-04-04T13:24:24.001Z</time></trkpt><trkpt lat="40.85191548632102" lon="9.1757679368917"><ele>1342.0</ele><time>2026-04-04T13:24:25.001Z</time></trkpt><trkpt lat="40.852011404438954" lon="9.175685443437045"><ele>1339.6666666666665</ele><time>2026-04-04T13:24:27.001Z</time></trkpt><trkpt lat="40.85205963546688" lon="9.175605249312024"><ele>1337.3333333333333</ele><time>2026-04-04T13:24:29.001Z</time></trkpt><trkpt lat="40.85214752653549" lon="9.175617014536149"><ele>1335.0</ele><time>2026-04-04T13:24:31.001Z</time></trkpt><trkpt lat="40.85221961924653" lon="9.175636885249478"><ele>1332.6666666666667</ele><time>2026-04-04T13:24:32.001Z</time></trkpt><trkpt lat="40.852302325742585" lon="9.17564401617785"><ele>1330.3333333333335</ele><time>2026-04-04T13:24:33.001Z</time></trkpt><trkpt lat="40.8523912069456" lon="9.175633237999188"><ele>1328.0</ele><time>2026-04-04T13:24:34.001Z</time></trkpt><trkpt lat="40.85248400566071" lon="9.175610303967794"><ele>1328.0</ele><time>2026-04-04T13:24:35.001Z</time></trkpt><trkpt lat="40.852567376339906" lon="9.175579875945163"><ele>1328.0</ele><time>2026-04-04T13:24:36.001Z</time></trkpt><trkpt lat="40.852629832765935" lon="9.1755402072216"><ele>1328.0</ele><time>2026-04-04T13:24:37.001Z</time></trkpt><trkpt lat="40.85272892315307" lon="9.175470034400167"><ele>1328.0</ele><time>2026-04-04T13:24:39.001Z</time></trkpt><trkpt lat="40.85280411210012" lon="9.17543910091461"><ele>1328.0</ele><time>2026-04-04T13:24:41.001Z</time></trkpt><trkpt lat="40.852740674913605" lon="9.175438916642282"><ele>1328.0</ele><time>2026-04-04T13:25:16Z</time></trkpt><trkpt lat="40.85274085471027" lon="9.175344714495223"><ele>1327.6666666666667</ele><time>2026-04-04T13:25:20Z</time></trkpt><trkpt lat="40.85279991842061" lon="9.175292318671968"><ele>1327.3333333333335</ele><time>2026-04-04T13:25:22Z</time></trkpt><trkpt lat="40.852887866191296" lon="9.175224222832314"><ele>1327.0</ele><time>2026-04-04T13:25:24Z</time></trkpt><trkpt lat="40.85296226677012" lon="9.17519604970626"><ele>1326.6666666666667</ele><time>2026-04-04T13:25:26Z</time></trkpt><trkpt lat="40.85304551569682" lon="9.1751828955886"><ele>1326.3333333333333</ele><time>2026-04-04T13:25:32Z</time></trkpt><trkpt lat="40.853118398976214" lon="9.175221612415607"><ele>1326.0</ele><time>2026-04-04T13:25:35Z</time></trkpt><trkpt lat="40.85318051630278" lon="9.175264969245967"><ele>1326.0</ele><time>2026-04-04T13:25:37Z</time></trkpt><trkpt lat="40.853238811043404" lon="9.175296886010239"><ele>1326.0</ele><time>2026-04-04T13:25:39Z</time></trkpt><trkpt lat="40.85329812420222" lon="9.175326618872889"><ele>1326.0</ele><time>2026-04-04T13:25:42Z</time></trkpt><trkpt lat="40.85323536391842" lon="9.175310902212802"><ele>1326.0</ele><time>2026-04-04T13:25:49.001Z</time></trkpt><trkpt lat="40.853136096090374" lon="9.175227611519047"><ele>1326.0</ele><time>2026-04-04T13:25:51.001Z</time></trkpt><trkpt lat="40.85303648367277" lon="9.175179408885155"><ele>1326.0</ele><time>2026-04-04T13:25:53.001Z</time></trkpt><trkpt lat="40.85293087399959" lon="9.175214486326258"><ele>1326.0</ele><time>2026-04-04T13:25:55.001Z</time></trkpt><trkpt lat="40.85286707617132" lon="9.175260157672948"><ele>1326.0</ele><time>2026-04-04T13:25:56.001Z</time></trkpt><trkpt lat="40.852800605471536" lon="9.175318805026913"><ele>1326.0</ele><time>2026-04-04T13:25:57.001Z</time></trkpt><trkpt lat="40.852729998065165" lon="9.175420974594624"><ele>1326.0</ele><time>2026-04-04T13:25:59.001Z</time></trkpt><trkpt lat="40.85270123309375" lon="9.175517718351784"><ele>1326.0</ele><time>2026-04-04T13:26:01.001Z</time></trkpt><trkpt lat="40.85262709090924" lon="9.175572714520554"><ele>1326.0</ele><time>2026-04-04T13:26:02.001Z</time></trkpt><trkpt lat="40.85251652645207" lon="9.175616457311019"><ele>1326.5</ele><time>2026-04-04T13:26:03.001Z</time></trkpt><trkpt lat="40.85238904818948" lon="9.175643190458667"><ele>1327.0</ele><time>2026-04-04T13:26:04.001Z</time></trkpt><trkpt lat="40.85223919084675" lon="9.175644627029639"><ele>1327.5</ele><time>2026-04-04T13:26:05.001Z</time></trkpt><trkpt lat="40.85208106432751" lon="9.17562879411839"><ele>1328.0</ele><time>2026-04-04T13:26:06.001Z</time></trkpt><trkpt lat="40.85193591143443" lon="9.175605903015095"><ele>1328.0</ele><time>2026-04-04T13:26:07.001Z</time></trkpt><trkpt lat="40.8518205683136" lon="9.175586445681876"><ele>1328.0</ele><time>2026-04-04T13:26:08.001Z</time></trkpt><trkpt lat="40.85172275590967" lon="9.1755662241558"><ele>1328.0</ele><time>2026-04-04T13:26:09.001Z</time></trkpt><trkpt lat="40.851636695390226" lon="9.175543595607984"><ele>1328.0</ele><time>2026-04-04T13:26:10.001Z</time></trkpt><trkpt lat="40.85155658040352" lon="9.17550310766301"><ele>1328.0</ele><time>2026-04-04T13:26:11.001Z</time></trkpt><trkpt lat="40.85149172007932" lon="9.175428520259"><ele>1327.6000000000001</ele><time>2026-04-04T13:26:12.001Z</time></trkpt><trkpt lat="40.85145152886216" lon="9.175324496697458"><ele>1327.2</ele><time>2026-04-04T13:26:13.001Z</time></trkpt><trkpt lat="40.85144681023152" lon="9.175208232319896"><ele>1326.8</ele><time>2026-04-04T13:26:14.001Z</time></trkpt><trkpt lat="40.85146941592841" lon="9.175080997727596"><ele>1326.4</ele><time>2026-04-04T13:26:15.001Z</time></trkpt><trkpt lat="40.85151906014759" lon="9.17496070222123"><ele>1326.0</ele><time>2026-04-04T13:26:16.001Z</time></trkpt><trkpt lat="40.851590652474826" lon="9.174842676973883"><ele>1323.5</ele><time>2026-04-04T13:26:17.001Z</time></trkpt><trkpt lat="40.85168372636364" lon="9.174726087585103"><ele>1321.0</ele><time>2026-04-04T13:26:18.001Z</time></trkpt><trkpt lat="40.85179363548355" lon="9.174609619802052"><ele>1318.5</ele><time>2026-04-04T13:26:19.001Z</time></trkpt><trkpt lat="40.85192411375127" lon="9.174489529030266"><ele>1316.0</ele><time>2026-04-04T13:26:20.001Z</time></trkpt><trkpt lat="40.85206990780244" lon="9.174350121830567"><ele>1316.0</ele><time>2026-04-04T13:26:21.001Z</time></trkpt><trkpt lat="40.8522012655414" lon="9.174204508199844"><ele>1316.0</ele><time>2026-04-04T13:26:22.001Z</time></trkpt><trkpt lat="40.85231334970936" lon="9.174070999826707"><ele>1316.0</ele><time>2026-04-04T13:26:23.001Z</time></trkpt><trkpt lat="40.85240857186347" lon="9.17395000760872"><ele>1314.8</ele><time>2026-04-04T13:26:24.001Z</time></trkpt><trkpt lat="40.85248818109939" lon="9.17385026436132"><ele>1313.6</ele><time>2026-04-04T13:26:25.001Z</time></trkpt><trkpt lat="40.852562496502486" lon="9.173768598258386"><ele>1312.4</ele><time>2026-04-04T13:26:26.001Z</time></trkpt><trkpt lat="40.85264781129627" lon="9.173710350821148"><ele>1311.2</ele><time>2026-04-04T13:26:27.001Z</time></trkpt><trkpt lat="40.85273458729363" lon="9.173682182045956"><ele>1310.0</ele><time>2026-04-04T13:26:28.001Z</time></trkpt><trkpt lat="40.85282155115218" lon="9.173676925199192"><ele>1310.0</ele><time>2026-04-04T13:26:29.001Z</time></trkpt><trkpt lat="40.85289338912741" lon="9.173671885777512"><ele>1310.0</ele><time>2026-04-04T13:26:30.001Z</time></trkpt><trkpt lat="40.85296756082208" lon="9.173646501174339"><ele>1310.0</ele><time>2026-04-04T13:26:31.001Z</time></trkpt><trkpt lat="40.853034817574475" lon="9.173616887556182"><ele>1310.0</ele><time>2026-04-04T13:26:32.001Z</time></trkpt><trkpt lat="40.85309933096652" lon="9.173592652373568"><ele>1310.0</ele><time>2026-04-04T13:26:33.001Z</time></trkpt><trkpt lat="40.853170249889374" lon="9.17357181091737"><ele>1310.0</ele><time>2026-04-04T13:26:34.001Z</time></trkpt><trkpt lat="40.85328053597591" lon="9.173544082700804"><ele>1310.0</ele><time>2026-04-04T13:26:36.001Z</time></trkpt><trkpt lat="40.853402031104004" lon="9.1734924380181"><ele>1310.0</ele><time>2026-04-04T13:26:38.001Z</time></trkpt><trkpt lat="40.85346131589155" lon="9.17346166312682"><ele>1310.0</ele><time>2026-04-04T13:26:39.001Z</time></trkpt><trkpt lat="40.853541980911" lon="9.17340677966147"><ele>1310.0</ele><time>2026-04-04T13:26:41.001Z</time></trkpt><trkpt lat="40.85354049371224" lon="9.173317936177101"><ele>1310.0</ele><time>2026-04-04T13:26:43.001Z</time></trkpt><trkpt lat="40.85346897777684" lon="9.173289305627206"><ele>1310.0</ele><time>2026-04-04T13:26:45.001Z</time></trkpt><trkpt lat="40.853329550621964" lon="9.173275876857424"><ele>1310.0</ele><time>2026-04-04T13:26:47.001Z</time></trkpt><trkpt lat="40.853242991765356" lon="9.173229645612155"><ele>1310.0</ele><time>2026-04-04T13:26:48.001Z</time></trkpt><trkpt lat="40.853152965732335" lon="9.173186242016238"><ele>1310.0</ele><time>2026-04-04T13:26:49.001Z</time></trkpt><trkpt lat="40.853074116141435" lon="9.173130703412166"><ele>1310.0</ele><time>2026-04-04T13:26:50.001Z</time></trkpt><trkpt lat="40.853018616633264" lon="9.173054652984302"><ele>1310.0</ele><time>2026-04-04T13:26:51.001Z</time></trkpt><trkpt lat="40.852991251204934" lon="9.17296059750063"><ele>1310.0</ele><time>2026-04-04T13:26:52.001Z</time></trkpt><trkpt lat="40.852996962391686" lon="9.172862097842511"><ele>1307.6666666666667</ele><time>2026-04-04T13:26:53.001Z</time></trkpt><trkpt lat="40.85304821880853" lon="9.172785216296525"><ele>1305.3333333333335</ele><time>2026-04-04T13:26:54.001Z</time></trkpt><trkpt lat="40.85312423846154" lon="9.172744976792519"><ele>1303.0</ele><time>2026-04-04T13:26:55.001Z</time></trkpt><trkpt lat="40.85320731861091" lon="9.172712548031667"><ele>1300.6666666666667</ele><time>2026-04-04T13:26:56.001Z</time></trkpt><trkpt lat="40.853295308924615" lon="9.172657969766563"><ele>1298.3333333333333</ele><time>2026-04-04T13:26:57.001Z</time></trkpt><trkpt lat="40.853370585852275" lon="9.172598477182689"><ele>1296.0</ele><time>2026-04-04T13:26:58.001Z</time></trkpt><trkpt lat="40.8534300169617" lon="9.172540642651855"><ele>1297.2857142857142</ele><time>2026-04-04T13:26:59Z</time></trkpt><trkpt lat="40.85347964515272" lon="9.172474672899787"><ele>1298.5714285714284</ele><time>2026-04-04T13:27:00Z</time></trkpt><trkpt lat="40.85349776288721" lon="9.172388468107654"><ele>1299.8571428571427</ele><time>2026-04-04T13:27:01Z</time></trkpt><trkpt lat="40.8534810828147" lon="9.172297760706849"><ele>1301.142857142857</ele><time>2026-04-04T13:27:02Z</time></trkpt><trkpt lat="40.8534282080817" lon="9.172234292814982"><ele>1302.4285714285713</ele><time>2026-04-04T13:27:03Z</time></trkpt><trkpt lat="40.853362362753714" lon="9.172220701908124"><ele>1303.7142857142856</ele><time>2026-04-04T13:27:04Z</time></trkpt><trkpt lat="40.85329345353664" lon="9.17224811003819"><ele>1305.0</ele><time>2026-04-04T13:27:05Z</time></trkpt><trkpt lat="40.853215954811034" lon="9.172287425855313"><ele>1300.5</ele><time>2026-04-04T13:27:06Z</time></trkpt><trkpt lat="40.85313702482702" lon="9.172309497659487"><ele>1296.0</ele><time>2026-04-04T13:27:07Z</time></trkpt><trkpt lat="40.853061130211636" lon="9.172310262146693"><ele>1291.5</ele><time>2026-04-04T13:27:08Z</time></trkpt><trkpt lat="40.852990632424905" lon="9.172303117901208"><ele>1287.0</ele><time>2026-04-04T13:27:09Z</time></trkpt><trkpt lat="40.85291754324682" lon="9.172299582748396"><ele>1282.5</ele><time>2026-04-04T13:27:10Z</time></trkpt><trkpt lat="40.85281101465236" lon="9.172294611975412"><ele>1278.0</ele><time>2026-04-04T13:27:11Z</time></trkpt><trkpt lat="40.85268643286247" lon="9.172276848908902"><ele>1277.0</ele><time>2026-04-04T13:27:12Z</time></trkpt><trkpt lat="40.85255498546797" lon="9.172246559518818"><ele>1276.0</ele><time>2026-04-04T13:27:13Z</time></trkpt><trkpt lat="40.85241963039476" lon="9.17221462876949"><ele>1275.0</ele><time>2026-04-04T13:27:14Z</time></trkpt><trkpt lat="40.85228433419255" lon="9.172170781910978"><ele>1274.0</ele><time>2026-04-04T13:27:15Z</time></trkpt><trkpt lat="40.85215707029818" lon="9.172125075889403"><ele>1274.0</ele><time>2026-04-04T13:27:16Z</time></trkpt><trkpt lat="40.85203554879301" lon="9.172085628018845"><ele>1274.0</ele><time>2026-04-04T13:27:17Z</time></trkpt><trkpt lat="40.85192201657277" lon="9.172055432049934"><ele>1274.0</ele><time>2026-04-04T13:27:18Z</time></trkpt><trkpt lat="40.85181464673896" lon="9.172014287520568"><ele>1274.0</ele><time>2026-04-04T13:27:19Z</time></trkpt><trkpt lat="40.85171470223666" lon="9.171962997470553"><ele>1274.25</ele><time>2026-04-04T13:27:20Z</time></trkpt><trkpt lat="40.85162557360398" lon="9.17188669760435"><ele>1274.5</ele><time>2026-04-04T13:27:21Z</time></trkpt><trkpt lat="40.851545442309344" lon="9.171782429075952"><ele>1274.75</ele><time>2026-04-04T13:27:22Z</time></trkpt><trkpt lat="40.85148253254973" lon="9.171639223259671"><ele>1275.0</ele><time>2026-04-04T13:27:23Z</time></trkpt><trkpt lat="40.851412027292895" lon="9.17149399530658"><ele>1273.0</ele><time>2026-04-04T13:27:24Z</time></trkpt><trkpt lat="40.8513446720942" lon="9.171360499697432"><ele>1271.0</ele><time>2026-04-04T13:27:25Z</time></trkpt><trkpt lat="40.851285669499305" lon="9.171241356058426"><ele>1269.0</ele><time>2026-04-04T13:27:26Z</time></trkpt><trkpt lat="40.851237911663034" lon="9.17112645431246"><ele>1267.0</ele><time>2026-04-04T13:27:27Z</time></trkpt><trkpt lat="40.851216754544566" lon="9.171006623613891"><ele>1265.0</ele><time>2026-04-04T13:27:28Z</time></trkpt><trkpt lat="40.85122611406333" lon="9.170877169237752"><ele>1265.0</ele><time>2026-04-04T13:27:29Z</time></trkpt><trkpt lat="40.85126080006667" lon="9.170742875821357"><ele>1265.0</ele><time>2026-04-04T13:27:30Z</time></trkpt><trkpt lat="40.85131866647357" lon="9.170605138824577"><ele>1265.0</ele><time>2026-04-04T13:27:31Z</time></trkpt><trkpt lat="40.85138662642596" lon="9.170475235069844"><ele>1265.0</ele><time>2026-04-04T13:27:32Z</time></trkpt><trkpt lat="40.851453683386026" lon="9.170361850626655"><ele>1263.1666666666667</ele><time>2026-04-04T13:27:33Z</time></trkpt><trkpt lat="40.85151429001441" lon="9.170272756564565"><ele>1261.3333333333335</ele><time>2026-04-04T13:27:34Z</time></trkpt><trkpt lat="40.85157296340798" lon="9.170212927367567"><ele>1259.5</ele><time>2026-04-04T13:27:35Z</time></trkpt><trkpt lat="40.85166070971769" lon="9.17013214916313"><ele>1257.6666666666667</ele><time>2026-04-04T13:27:37Z</time></trkpt><trkpt lat="40.85172846364917" lon="9.17011858585199"><ele>1255.8333333333333</ele><time>2026-04-04T13:27:40Z</time></trkpt><trkpt lat="40.851701187168864" lon="9.170195453204961"><ele>1254.0</ele><time>2026-04-04T13:27:43Z</time></trkpt><trkpt lat="40.85160156359935" lon="9.17021234712715"><ele>1254.0</ele><time>2026-04-04T13:27:45Z</time></trkpt><trkpt lat="40.851530569315955" lon="9.17027629199071"><ele>1254.0</ele><time>2026-04-04T13:27:46Z</time></trkpt><trkpt lat="40.85144658154734" lon="9.170380214341726"><ele>1254.0</ele><time>2026-04-04T13:27:47.001Z</time></trkpt><trkpt lat="40.85136482044405" lon="9.170506683299676"><ele>1254.0</ele><time>2026-04-04T13:27:48.001Z</time></trkpt><trkpt lat="40.85128727456271" lon="9.170647797992915"><ele>1256.75</ele><time>2026-04-04T13:27:49.001Z</time></trkpt><trkpt lat="40.85122329319976" lon="9.170804941273577"><ele>1259.5</ele><time>2026-04-04T13:27:50.001Z</time></trkpt><trkpt lat="40.85120475090238" lon="9.170969920131984"><ele>1262.25</ele><time>2026-04-04T13:27:51.001Z</time></trkpt><trkpt lat="40.85122569850181" lon="9.171138467775869"><ele>1265.0</ele><time>2026-04-04T13:27:52.001Z</time></trkpt><trkpt lat="40.85128958970104" lon="9.171305809393212"><ele>1265.0</ele><time>2026-04-04T13:27:53.001Z</time></trkpt><trkpt lat="40.851373912925276" lon="9.171480728887781"><ele>1265.0</ele><time>2026-04-04T13:27:54.001Z</time></trkpt><trkpt lat="40.85147405602455" lon="9.171656900668484"><ele>1265.0</ele><time>2026-04-04T13:27:55.001Z</time></trkpt><trkpt lat="40.85157166671578" lon="9.171818008769497"><ele>1267.25</ele><time>2026-04-04T13:27:56.001Z</time></trkpt><trkpt lat="40.85166234123569" lon="9.171933311658234"><ele>1269.5</ele><time>2026-04-04T13:27:57.001Z</time></trkpt><trkpt lat="40.851777920121656" lon="9.172016674014136"><ele>1271.75</ele><time>2026-04-04T13:27:58.001Z</time></trkpt><trkpt lat="40.851911741818476" lon="9.172082346761096"><ele>1274.0</ele><time>2026-04-04T13:27:59.001Z</time></trkpt><trkpt lat="40.852080339616215" lon="9.172133489597428"><ele>1274.0</ele><time>2026-04-04T13:28:00.001Z</time></trkpt><trkpt lat="40.852270618636155" lon="9.172177066748759"><ele>1274.0</ele><time>2026-04-04T13:28:01.001Z</time></trkpt><trkpt lat="40.85246714467898" lon="9.172228343295997"><ele>1274.0</ele><time>2026-04-04T13:28:02.001Z</time></trkpt><trkpt lat="40.8526713274133" lon="9.172269836749228"><ele>1275.3333333333335</ele><time>2026-04-04T13:28:03.001Z</time></trkpt><trkpt lat="40.85288427817794" lon="9.172295316872672"><ele>1276.6666666666667</ele><time>2026-04-04T13:28:04.001Z</time></trkpt><trkpt lat="40.853071607383185" lon="9.17229271490942"><ele>1278.0</ele><time>2026-04-04T13:28:05.001Z</time></trkpt><trkpt lat="40.85320998117935" lon="9.172275174736455"><ele>1278.0</ele><time>2026-04-04T13:28:06.001Z</time></trkpt><trkpt lat="40.85331404831809" lon="9.172262003236561"><ele>1278.0</ele><time>2026-04-04T13:28:07.001Z</time></trkpt><trkpt lat="40.85339094132944" lon="9.17226280190627"><ele>1278.0</ele><time>2026-04-04T13:28:08.001Z</time></trkpt><trkpt lat="40.853462583044035" lon="9.172375595040961"><ele>1278.0</ele><time>2026-04-04T13:28:10.001Z</time></trkpt><trkpt lat="40.853442879000426" lon="9.17247251286636"><ele>1278.0</ele><time>2026-04-04T13:28:11.001Z</time></trkpt><trkpt lat="40.85338083337637" lon="9.172571202025875"><ele>1282.5</ele><time>2026-04-04T13:28:12.001Z</time></trkpt><trkpt lat="40.853281975443345" lon="9.172650684984163"><ele>1287.0</ele><time>2026-04-04T13:28:13.001Z</time></trkpt><trkpt lat="40.853160320938954" lon="9.172714431304794"><ele>1291.5</ele><time>2026-04-04T13:28:14.001Z</time></trkpt><trkpt lat="40.85305222387121" lon="9.172779741917115"><ele>1296.0</ele><time>2026-04-04T13:28:15.001Z</time></trkpt><trkpt lat="40.852983669083955" lon="9.172852426004194"><ele>1296.0</ele><time>2026-04-04T13:28:16.001Z</time></trkpt><trkpt lat="40.85295476127338" lon="9.172953448994727"><ele>1296.0</ele><time>2026-04-04T13:28:17.001Z</time></trkpt><trkpt lat="40.85297003669056" lon="9.17306869300071"><ele>1296.0</ele><time>2026-04-04T13:28:18.001Z</time></trkpt><trkpt lat="40.853026618053555" lon="9.17316122011805"><ele>1296.0</ele><time>2026-04-04T13:28:19.001Z</time></trkpt><trkpt lat="40.8531158775943" lon="9.173216694578233"><ele>1296.0</ele><time>2026-04-04T13:28:20.001Z</time></trkpt><trkpt lat="40.853237981731525" lon="9.173238954792346"><ele>1298.8</ele><time>2026-04-04T13:28:21.001Z</time></trkpt><trkpt lat="40.853376570567576" lon="9.173263542545929"><ele>1301.6</ele><time>2026-04-04T13:28:22.001Z</time></trkpt><trkpt lat="40.85347565326141" lon="9.17329786606297"><ele>1304.4</ele><time>2026-04-04T13:28:23.001Z</time></trkpt><trkpt lat="40.8535501078275" lon="9.173374427641999"><ele>1307.2</ele><time>2026-04-04T13:28:25.001Z</time></trkpt><trkpt lat="40.85350964047754" lon="9.173440282032463"><ele>1310.0</ele><time>2026-04-04T13:28:27.001Z</time></trkpt><trkpt lat="40.85341275471216" lon="9.173489405502483"><ele>1310.0</ele><time>2026-04-04T13:28:29.001Z</time></trkpt><trkpt lat="40.85330109933027" lon="9.173517335468345"><ele>1310.0</ele><time>2026-04-04T13:28:31.001Z</time></trkpt><trkpt lat="40.85327633446557" lon="9.173605328363886"><ele>1310.0</ele><time>2026-04-04T13:28:34.001Z</time></trkpt><trkpt lat="40.85332782333555" lon="9.173682289886333"><ele>1310.0</ele><time>2026-04-04T13:28:36.001Z</time></trkpt><trkpt lat="40.85341185503513" lon="9.17382066821722"><ele>1310.0</ele><time>2026-04-04T13:28:38.001Z</time></trkpt><trkpt lat="40.85345260539108" lon="9.173902211522119"><ele>1309.0</ele><time>2026-04-04T13:28:39.001Z</time></trkpt><trkpt lat="40.85352317222404" lon="9.17404470169262"><ele>1308.0</ele><time>2026-04-04T13:28:41.001Z</time></trkpt><trkpt lat="40.85356290057081" lon="9.174135852782154"><ele>1307.0</ele><time>2026-04-04T13:28:42.001Z</time></trkpt><trkpt lat="40.8536041286632" lon="9.174234342818883"><ele>1306.0</ele><time>2026-04-04T13:28:43.001Z</time></trkpt><trkpt lat="40.85364945636344" lon="9.174344109761732"><ele>1305.0</ele><time>2026-04-04T13:28:44.001Z</time></trkpt><trkpt lat="40.853694234546495" lon="9.174464269442993"><ele>1305.0</ele><time>2026-04-04T13:28:45.001Z</time></trkpt><trkpt lat="40.853737578659526" lon="9.174587393481339"><ele>1305.0</ele><time>2026-04-04T13:28:46.001Z</time></trkpt><trkpt lat="40.8537756217659" lon="9.174707875365133"><ele>1305.0</ele><time>2026-04-04T13:28:47.001Z</time></trkpt><trkpt lat="40.853805408480405" lon="9.174823003153149"><ele>1305.0</ele><time>2026-04-04T13:28:48.001Z</time></trkpt><trkpt lat="40.853831743865236" lon="9.174938732207968"><ele>1305.0</ele><time>2026-04-04T13:28:49.001Z</time></trkpt><trkpt lat="40.85385262960113" lon="9.175043175050693"><ele>1304.6</ele><time>2026-04-04T13:28:50.001Z</time></trkpt><trkpt lat="40.85387091014898" lon="9.175147926342625"><ele>1304.2</ele><time>2026-04-04T13:28:51.001Z</time></trkpt><trkpt lat="40.85388928959093" lon="9.175257108296291"><ele>1303.8000000000002</ele><time>2026-04-04T13:28:52.001Z</time></trkpt><trkpt lat="40.853898263107446" lon="9.175379318149592"><ele>1303.4</ele><time>2026-04-04T13:28:53.001Z</time></trkpt><trkpt lat="40.85389592287917" lon="9.175512927702066"><ele>1303.0</ele><time>2026-04-04T13:28:54.001Z</time></trkpt><trkpt lat="40.85388789089925" lon="9.17565533807341"><ele>1302.0</ele><time>2026-04-04T13:28:55.001Z</time></trkpt><trkpt lat="40.85387661855635" lon="9.17580969738229"><ele>1301.0</ele><time>2026-04-04T13:28:56.001Z</time></trkpt><trkpt lat="40.85385831192283" lon="9.17595692846865"><ele>1300.0</ele><time>2026-04-04T13:28:57.001Z</time></trkpt><trkpt lat="40.853837215558634" lon="9.176072194213106"><ele>1299.0</ele><time>2026-04-04T13:28:58.001Z</time></trkpt><trkpt lat="40.85382083422349" lon="9.17618799894582"><ele>1298.0</ele><time>2026-04-04T13:28:59.001Z</time></trkpt><trkpt lat="40.853805403586186" lon="9.17631249173845"><ele>1298.0</ele><time>2026-04-04T13:29:00.001Z</time></trkpt><trkpt lat="40.85378703278661" lon="9.176431813402537"><ele>1298.0</ele><time>2026-04-04T13:29:01.001Z</time></trkpt><trkpt lat="40.85376160749266" lon="9.176555155282077"><ele>1298.0</ele><time>2026-04-04T13:29:02.001Z</time></trkpt><trkpt lat="40.85374268206432" lon="9.176667018817254"><ele>1298.0</ele><time>2026-04-04T13:29:03.001Z</time></trkpt><trkpt lat="40.85373337866511" lon="9.176762402056278"><ele>1298.0</ele><time>2026-04-04T13:29:04.001Z</time></trkpt><trkpt lat="40.85373037100607" lon="9.176849031820707"><ele>1298.0</ele><time>2026-04-04T13:29:05Z</time></trkpt><trkpt lat="40.853724008813394" lon="9.177006504418115"><ele>1297.6000000000001</ele><time>2026-04-04T13:29:07Z</time></trkpt><trkpt lat="40.85371894972997" lon="9.177091800434715"><ele>1297.2</ele><time>2026-04-04T13:29:08Z</time></trkpt><trkpt lat="40.85372508741168" lon="9.176995049926601"><ele>1296.8</ele><time>2026-04-04T13:30:15.001Z</time></trkpt><trkpt lat="40.853737638385404" lon="9.176860052121484"><ele>1296.4</ele><time>2026-04-04T13:30:16.001Z</time></trkpt><trkpt lat="40.853739780988974" lon="9.176716720737765"><ele>1296.0</ele><time>2026-04-04T13:30:17.001Z</time></trkpt><trkpt lat="40.853756525496784" lon="9.176563840340343"><ele>1296.5</ele><time>2026-04-04T13:30:18.001Z</time></trkpt><trkpt lat="40.853784942419786" lon="9.176409062830022"><ele>1297.0</ele><time>2026-04-04T13:30:19.001Z</time></trkpt><trkpt lat="40.853820574302624" lon="9.176254915075328"><ele>1297.5</ele><time>2026-04-04T13:30:20.001Z</time></trkpt><trkpt lat="40.85384648080153" lon="9.176101496775305"><ele>1298.0</ele><time>2026-04-04T13:30:21.001Z</time></trkpt><trkpt lat="40.85385542319066" lon="9.175977846037254"><ele>1298.0</ele><time>2026-04-04T13:30:22.001Z</time></trkpt><trkpt lat="40.85386237945607" lon="9.175867828114033"><ele>1298.0</ele><time>2026-04-04T13:30:23.001Z</time></trkpt><trkpt lat="40.85388316073879" lon="9.175752407382628"><ele>1298.0</ele><time>2026-04-04T13:30:24.001Z</time></trkpt><trkpt lat="40.85389774879367" lon="9.175620024076904"><ele>1298.0</ele><time>2026-04-04T13:30:25.001Z</time></trkpt><trkpt lat="40.85389974413669" lon="9.175472130598688"><ele>1298.0</ele><time>2026-04-04T13:30:26.001Z</time></trkpt><trkpt lat="40.85390124290755" lon="9.175328255582752"><ele>1299.0</ele><time>2026-04-04T13:30:27.001Z</time></trkpt><trkpt lat="40.853889600627625" lon="9.175197209451422"><ele>1300.0</ele><time>2026-04-04T13:30:28.001Z</time></trkpt><trkpt lat="40.853866991023004" lon="9.175069473351932"><ele>1301.0</ele><time>2026-04-04T13:30:29.001Z</time></trkpt><trkpt lat="40.85383821290213" lon="9.17494315199605"><ele>1302.0</ele><time>2026-04-04T13:30:30.001Z</time></trkpt><trkpt lat="40.85380406057316" lon="9.174812334269422"><ele>1303.0</ele><time>2026-04-04T13:30:31.001Z</time></trkpt><trkpt lat="40.85376282591472" lon="9.174679959413902"><ele>1303.4</ele><time>2026-04-04T13:30:32.001Z</time></trkpt><trkpt lat="40.85372000967751" lon="9.174537219310421"><ele>1303.8000000000002</ele><time>2026-04-04T13:30:33.001Z</time></trkpt><trkpt lat="40.85366049056449" lon="9.174388649562855"><ele>1304.2</ele><time>2026-04-04T13:30:34.001Z</time></trkpt><trkpt lat="40.85361379914512" lon="9.174265723290013"><ele>1304.6</ele><time>2026-04-04T13:30:35.001Z</time></trkpt><trkpt lat="40.85356566249831" lon="9.174148263904437"><ele>1305.0</ele><time>2026-04-04T13:30:36.001Z</time></trkpt><trkpt lat="40.85350318975897" lon="9.174024895853181"><ele>1306.0</ele><time>2026-04-04T13:30:37.001Z</time></trkpt><trkpt lat="40.85343824850578" lon="9.173903212929671"><ele>1307.0</ele><time>2026-04-04T13:30:38.001Z</time></trkpt><trkpt lat="40.8533887823826" lon="9.17380764564149"><ele>1308.0</ele><time>2026-04-04T13:30:39.001Z</time></trkpt><trkpt lat="40.85334779048419" lon="9.17372268248525"><ele>1309.0</ele><time>2026-04-04T13:30:40.001Z</time></trkpt><trkpt lat="40.85329110786846" lon="9.173601887248807"><ele>1310.0</ele><time>2026-04-04T13:30:42.001Z</time></trkpt><trkpt lat="40.853312284324645" lon="9.173494020411196"><ele>1310.0</ele><time>2026-04-04T13:30:45.001Z</time></trkpt><trkpt lat="40.85343828627619" lon="9.17344526560566"><ele>1310.0</ele><time>2026-04-04T13:30:47.001Z</time></trkpt><trkpt lat="40.85350596688954" lon="9.173420971513556"><ele>1310.0</ele><time>2026-04-04T13:30:48.001Z</time></trkpt><trkpt lat="40.85349615855724" lon="9.173301642728934"><ele>1310.0</ele><time>2026-04-04T13:30:51.001Z</time></trkpt><trkpt lat="40.853357533380525" lon="9.173246263023145"><ele>1310.0</ele><time>2026-04-04T13:30:53.001Z</time></trkpt><trkpt lat="40.85324130106013" lon="9.173215310066466"><ele>1307.2</ele><time>2026-04-04T13:30:54.001Z</time></trkpt><trkpt lat="40.85311825654705" lon="9.173171128817597"><ele>1304.4</ele><time>2026-04-04T13:30:55.001Z</time></trkpt><trkpt lat="40.853026771339636" lon="9.173106958140204"><ele>1301.6</ele><time>2026-04-04T13:30:56.001Z</time></trkpt><trkpt lat="40.85298013863414" lon="9.173011772267095"><ele>1298.8</ele><time>2026-04-04T13:30:57.001Z</time></trkpt><trkpt lat="40.85298129147969" lon="9.172901670362274"><ele>1296.0</ele><time>2026-04-04T13:30:58.001Z</time></trkpt><trkpt lat="40.853019873466884" lon="9.17280841024799"><ele>1296.0</ele><time>2026-04-04T13:30:59.001Z</time></trkpt><trkpt lat="40.85310665095953" lon="9.172741859802024"><ele>1296.0</ele><time>2026-04-04T13:31:00.001Z</time></trkpt><trkpt lat="40.85321731950837" lon="9.172690867707768"><ele>1296.0</ele><time>2026-04-04T13:31:01.001Z</time></trkpt><trkpt lat="40.853337604659465" lon="9.172624346752622"><ele>1296.0</ele><time>2026-04-04T13:31:02.001Z</time></trkpt><trkpt lat="40.8534229785996" lon="9.172550177248976"><ele>1297.5</ele><time>2026-04-04T13:31:03.001Z</time></trkpt><trkpt lat="40.85348068249467" lon="9.1724797214169"><ele>1299.0</ele><time>2026-04-04T13:31:04.001Z</time></trkpt><trkpt lat="40.85350465389495" lon="9.172387031004096"><ele>1300.5</ele><time>2026-04-04T13:31:05.001Z</time></trkpt><trkpt lat="40.85348431639232" lon="9.17228884046977"><ele>1302.0</ele><time>2026-04-04T13:31:06.001Z</time></trkpt><trkpt lat="40.85342242925594" lon="9.17222567125317"><ele>1303.5</ele><time>2026-04-04T13:31:07.001Z</time></trkpt><trkpt lat="40.853342003033056" lon="9.172221188527377"><ele>1305.0</ele><time>2026-04-04T13:31:08.001Z</time></trkpt><trkpt lat="40.85324067075229" lon="9.172257371775247"><ele>1298.25</ele><time>2026-04-04T13:31:09.001Z</time></trkpt><trkpt lat="40.85311130688031" lon="9.172304831553111"><ele>1291.5</ele><time>2026-04-04T13:31:10.001Z</time></trkpt><trkpt lat="40.85296786188618" lon="9.172311618959144"><ele>1284.75</ele><time>2026-04-04T13:31:11Z</time></trkpt><trkpt lat="40.8528099202834" lon="9.17228658882276"><ele>1278.0</ele><time>2026-04-04T13:31:12Z</time></trkpt><trkpt lat="40.85266043630382" lon="9.17225284813293"><ele>1277.0</ele><time>2026-04-04T13:31:13Z</time></trkpt><trkpt lat="40.85252401140425" lon="9.172220154836333"><ele>1276.0</ele><time>2026-04-04T13:31:14Z</time></trkpt><trkpt lat="40.852385282530854" lon="9.172189042422708"><ele>1275.0</ele><time>2026-04-04T13:31:15Z</time></trkpt><trkpt lat="40.85225349630935" lon="9.172150981503593"><ele>1274.0</ele><time>2026-04-04T13:31:16Z</time></trkpt><trkpt lat="40.8521302784736" lon="9.17211201165008"><ele>1274.0</ele><time>2026-04-04T13:31:17Z</time></trkpt><trkpt lat="40.85201231115502" lon="9.17207239180772"><ele>1274.0</ele><time>2026-04-04T13:31:18Z</time></trkpt><trkpt lat="40.851905543628014" lon="9.17204196524602"><ele>1274.0</ele><time>2026-04-04T13:31:19Z</time></trkpt><trkpt lat="40.85180568517385" lon="9.172011204314815"><ele>1274.0</ele><time>2026-04-04T13:31:20Z</time></trkpt><trkpt lat="40.85171144527337" lon="9.171963980098703"><ele>1274.0</ele><time>2026-04-04T13:31:21Z</time></trkpt><trkpt lat="40.85161318684686" lon="9.171868186138147"><ele>1274.25</ele><time>2026-04-04T13:31:22Z</time></trkpt><trkpt lat="40.851536010182755" lon="9.171740813700454"><ele>1274.5</ele><time>2026-04-04T13:31:23Z</time></trkpt><trkpt lat="40.85146212209828" lon="9.171586413048596"><ele>1274.75</ele><time>2026-04-04T13:31:24Z</time></trkpt><trkpt lat="40.85138351186693" lon="9.171429558354442"><ele>1275.0</ele><time>2026-04-04T13:31:25Z</time></trkpt><trkpt lat="40.851318065624376" lon="9.17129010478561"><ele>1273.0</ele><time>2026-04-04T13:31:26Z</time></trkpt><trkpt lat="40.851261378659146" lon="9.171164742632431"><ele>1271.0</ele><time>2026-04-04T13:31:27Z</time></trkpt><trkpt lat="40.85122711338247" lon="9.171042918926991"><ele>1269.0</ele><time>2026-04-04T13:31:28Z</time></trkpt><trkpt lat="40.85121788829766" lon="9.17090731806253"><ele>1267.0</ele><time>2026-04-04T13:31:29Z</time></trkpt><trkpt lat="40.851253588059" lon="9.170759015192269"><ele>1265.0</ele><time>2026-04-04T13:31:30Z</time></trkpt><trkpt lat="40.85131449272355" lon="9.170609791647342"><ele>1262.25</ele><time>2026-04-04T13:31:31Z</time></trkpt><trkpt lat="40.85139575908929" lon="9.170471086453995"><ele>1259.5</ele><time>2026-04-04T13:31:32Z</time></trkpt><trkpt lat="40.851486657185" lon="9.170358317837767"><ele>1256.75</ele><time>2026-04-04T13:31:33Z</time></trkpt><trkpt lat="40.85157363317658" lon="9.170245485722196"><ele>1254.0</ele><time>2026-04-04T13:31:34Z</time></trkpt><trkpt lat="40.85166678362561" lon="9.170153824376149"><ele>1254.0</ele><time>2026-04-04T13:31:35Z</time></trkpt><trkpt lat="40.851765037133674" lon="9.17006822745022"><ele>1254.0</ele><time>2026-04-04T13:31:36Z</time></trkpt><trkpt lat="40.851868306939195" lon="9.169984859700461"><ele>1254.0</ele><time>2026-04-04T13:31:37Z</time></trkpt><trkpt lat="40.851978033685846" lon="9.169916992564731"><ele>1254.0</ele><time>2026-04-04T13:31:38Z</time></trkpt><trkpt lat="40.852092361759425" lon="9.169851254331903"><ele>1251.75</ele><time>2026-04-04T13:31:39Z</time></trkpt><trkpt lat="40.852208526306796" lon="9.169783610353159"><ele>1249.5</ele><time>2026-04-04T13:31:40Z</time></trkpt><trkpt lat="40.85231976400421" lon="9.16972439952387"><ele>1247.25</ele><time>2026-04-04T13:31:41Z</time></trkpt><trkpt lat="40.85243376024297" lon="9.169669779383987"><ele>1245.0</ele><time>2026-04-04T13:31:42Z</time></trkpt><trkpt lat="40.852549487972254" lon="9.169624482144588"><ele>1241.75</ele><time>2026-04-04T13:31:43Z</time></trkpt><trkpt lat="40.85266806848901" lon="9.169593635014413"><ele>1238.5</ele><time>2026-04-04T13:31:44Z</time></trkpt><trkpt lat="40.852789200412715" lon="9.169576152888595"><ele>1235.25</ele><time>2026-04-04T13:31:45Z</time></trkpt><trkpt lat="40.85291257189968" lon="9.169569414281028"><ele>1232.0</ele><time>2026-04-04T13:31:46Z</time></trkpt><trkpt lat="40.853036218342474" lon="9.169587832541279"><ele>1232.0</ele><time>2026-04-04T13:31:47Z</time></trkpt><trkpt lat="40.853160941748364" lon="9.169609229120923"><ele>1232.0</ele><time>2026-04-04T13:31:48Z</time></trkpt><trkpt lat="40.85328612284684" lon="9.169606032336269"><ele>1232.0</ele><time>2026-04-04T13:31:49Z</time></trkpt><trkpt lat="40.853413899773045" lon="9.169562479248588"><ele>1232.0</ele><time>2026-04-04T13:31:50Z</time></trkpt><trkpt lat="40.85354791615561" lon="9.169481668301149"><ele>1229.6666666666667</ele><time>2026-04-04T13:31:51Z</time></trkpt><trkpt lat="40.853680924282926" lon="9.169383468335996"><ele>1227.3333333333333</ele><time>2026-04-04T13:31:52Z</time></trkpt><trkpt lat="40.85382471477907" lon="9.169287216090723"><ele>1225.0</ele><time>2026-04-04T13:31:53Z</time></trkpt><trkpt lat="40.853973561397915" lon="9.169204908118319"><ele>1225.0</ele><time>2026-04-04T13:31:54Z</time></trkpt><trkpt lat="40.854121239867865" lon="9.169130070835974"><ele>1225.0</ele><time>2026-04-04T13:31:55Z</time></trkpt><trkpt lat="40.85426715849947" lon="9.169062339808095"><ele>1225.0</ele><time>2026-04-04T13:31:56Z</time></trkpt><trkpt lat="40.85441586617327" lon="9.169009666162504"><ele>1218.0</ele><time>2026-04-04T13:31:57Z</time></trkpt><trkpt lat="40.85456654508404" lon="9.168955750718064"><ele>1211.0</ele><time>2026-04-04T13:31:58Z</time></trkpt><trkpt lat="40.854712196134" lon="9.168881511427726"><ele>1204.0</ele><time>2026-04-04T13:31:59Z</time></trkpt><trkpt lat="40.854856977550604" lon="9.168791305575112"><ele>1204.0</ele><time>2026-04-04T13:32:00.001Z</time></trkpt><trkpt lat="40.85499716106256" lon="9.168691481666892"><ele>1204.0</ele><time>2026-04-04T13:32:01.001Z</time></trkpt><trkpt lat="40.85512879677736" lon="9.16859805333007"><ele>1204.0</ele><time>2026-04-04T13:32:02.001Z</time></trkpt><trkpt lat="40.855264043950626" lon="9.168535590779648"><ele>1202.5</ele><time>2026-04-04T13:32:03.001Z</time></trkpt><trkpt lat="40.85541004237501" lon="9.168506599031678"><ele>1201.0</ele><time>2026-04-04T13:32:04.001Z</time></trkpt><trkpt lat="40.85555513105958" lon="9.168498409610432"><ele>1199.5</ele><time>2026-04-04T13:32:05.001Z</time></trkpt><trkpt lat="40.85570197894336" lon="9.168499371005732"><ele>1198.0</ele><time>2026-04-04T13:32:06.001Z</time></trkpt><trkpt lat="40.855842698698225" lon="9.168500966156795"><ele>1198.25</ele><time>2026-04-04T13:32:07.001Z</time></trkpt><trkpt lat="40.85596998132748" lon="9.168500366836678"><ele>1198.5</ele><time>2026-04-04T13:32:08.001Z</time></trkpt><trkpt lat="40.85609028964" lon="9.168491405703625"><ele>1198.75</ele><time>2026-04-04T13:32:09.001Z</time></trkpt><trkpt lat="40.85619892981591" lon="9.168468413509785"><ele>1199.0</ele><time>2026-04-04T13:32:10.001Z</time></trkpt><trkpt lat="40.856288996260524" lon="9.168417983695948"><ele>1199.0</ele><time>2026-04-04T13:32:11.001Z</time></trkpt><trkpt lat="40.85635476626969" lon="9.168333520035373"><ele>1199.0</ele><time>2026-04-04T13:32:12.001Z</time></trkpt><trkpt lat="40.85638738626476" lon="9.16824899116329"><ele>1199.0</ele><time>2026-04-04T13:32:13.001Z</time></trkpt><trkpt lat="40.85635958397698" lon="9.168107427781935"><ele>1199.0</ele><time>2026-04-04T13:32:15.001Z</time></trkpt><trkpt lat="40.85629905463267" lon="9.168070656891201"><ele>1199.0</ele><time>2026-04-04T13:32:16.001Z</time></trkpt><trkpt lat="40.85620034806972" lon="9.168062352787103"><ele>1199.0</ele><time>2026-04-04T13:32:17.001Z</time></trkpt><trkpt lat="40.85608249904478" lon="9.168047260493992"><ele>1196.3333333333335</ele><time>2026-04-04T13:32:18.001Z</time></trkpt><trkpt lat="40.85597995821257" lon="9.168014141469776"><ele>1193.6666666666667</ele><time>2026-04-04T13:32:19.001Z</time></trkpt><trkpt lat="40.85589553693283" lon="9.1679847547564"><ele>1191.0</ele><time>2026-04-04T13:32:20.001Z</time></trkpt><trkpt lat="40.855828662876476" lon="9.167958814766688"><ele>1188.3333333333333</ele><time>2026-04-04T13:32:21.001Z</time></trkpt><trkpt lat="40.85578210056892" lon="9.16789719315006"><ele>1185.6666666666665</ele><time>2026-04-04T13:32:22.001Z</time></trkpt><trkpt lat="40.85576549553726" lon="9.167801076044658"><ele>1183.0</ele><time>2026-04-04T13:32:23.001Z</time></trkpt><trkpt lat="40.85578108773566" lon="9.167707405388914"><ele>1183.0</ele><time>2026-04-04T13:32:24.001Z</time></trkpt><trkpt lat="40.855828424580096" lon="9.167639561865455"><ele>1183.0</ele><time>2026-04-04T13:32:25.001Z</time></trkpt><trkpt lat="40.855902060733" lon="9.16759979908761"><ele>1183.0</ele><time>2026-04-04T13:32:26.001Z</time></trkpt><trkpt lat="40.856005624301694" lon="9.167573454342726"><ele>1183.0</ele><time>2026-04-04T13:32:27.001Z</time></trkpt><trkpt lat="40.856130960470175" lon="9.16754693444302"><ele>1183.0</ele><time>2026-04-04T13:32:28.001Z</time></trkpt><trkpt lat="40.85626896816052" lon="9.167511728426318"><ele>1182.5</ele><time>2026-04-04T13:32:29.001Z</time></trkpt><trkpt lat="40.856409954273" lon="9.16748384958993"><ele>1182.0</ele><time>2026-04-04T13:32:30.001Z</time></trkpt><trkpt lat="40.8565482475239" lon="9.167458409685683"><ele>1181.5</ele><time>2026-04-04T13:32:31.001Z</time></trkpt><trkpt lat="40.8566712226791" lon="9.167426999416072"><ele>1181.0</ele><time>2026-04-04T13:32:32.001Z</time></trkpt><trkpt lat="40.85676528649504" lon="9.16739767284974"><ele>1181.3333333333335</ele><time>2026-04-04T13:32:33.001Z</time></trkpt><trkpt lat="40.85683752696998" lon="9.167364412145115"><ele>1181.6666666666667</ele><time>2026-04-04T13:32:34.001Z</time></trkpt><trkpt lat="40.8568942730099" lon="9.167307648347888"><ele>1182.0</ele><time>2026-04-04T13:32:35.001Z</time></trkpt><trkpt lat="40.85692668965077" lon="9.167227479251377"><ele>1182.3333333333333</ele><time>2026-04-04T13:32:36.001Z</time></trkpt><trkpt lat="40.85692958723757" lon="9.16713167402079"><ele>1182.6666666666665</ele><time>2026-04-04T13:32:37.001Z</time></trkpt><trkpt lat="40.85688304405076" lon="9.167045009481566"><ele>1183.0</ele><time>2026-04-04T13:32:38.001Z</time></trkpt><trkpt lat="40.85680282811524" lon="9.1669830979775"><ele>1178.5</ele><time>2026-04-04T13:32:39.001Z</time></trkpt><trkpt lat="40.85669130699498" lon="9.16693662611517"><ele>1174.0</ele><time>2026-04-04T13:32:40.001Z</time></trkpt><trkpt lat="40.85656542660839" lon="9.166894414245"><ele>1169.5</ele><time>2026-04-04T13:32:41.001Z</time></trkpt><trkpt lat="40.85643805906546" lon="9.16683291768741"><ele>1165.0</ele><time>2026-04-04T13:32:42.001Z</time></trkpt><trkpt lat="40.85631291793157" lon="9.166761545980172"><ele>1165.0</ele><time>2026-04-04T13:32:43.001Z</time></trkpt><trkpt lat="40.85619563533547" lon="9.166702220991098"><ele>1165.0</ele><time>2026-04-04T13:32:44.001Z</time></trkpt><trkpt lat="40.856079483611886" lon="9.166666942002323"><ele>1165.0</ele><time>2026-04-04T13:32:45.001Z</time></trkpt><trkpt lat="40.85595959361404" lon="9.166654936558698"><ele>1165.0</ele><time>2026-04-04T13:32:46.001Z</time></trkpt><trkpt lat="40.8558388184553" lon="9.166664343102399"><ele>1164.6</ele><time>2026-04-04T13:32:47.001Z</time></trkpt><trkpt lat="40.85572151344196" lon="9.166675606082926"><ele>1164.2</ele><time>2026-04-04T13:32:48.001Z</time></trkpt><trkpt lat="40.855611503270254" lon="9.16668008829524"><ele>1163.8</ele><time>2026-04-04T13:32:49.001Z</time></trkpt><trkpt lat="40.855516438279004" lon="9.166685197882012"><ele>1163.4</ele><time>2026-04-04T13:32:50.001Z</time></trkpt><trkpt lat="40.85543337387061" lon="9.166686913957331"><ele>1163.0</ele><time>2026-04-04T13:32:51.001Z</time></trkpt><trkpt lat="40.855359000537916" lon="9.166654418328813"><ele>1163.0</ele><time>2026-04-04T13:32:52.001Z</time></trkpt><trkpt lat="40.855314900273996" lon="9.166580830259678"><ele>1163.0</ele><time>2026-04-04T13:32:53.001Z</time></trkpt><trkpt lat="40.8553078657182" lon="9.166490940058567"><ele>1163.0</ele><time>2026-04-04T13:32:54.001Z</time></trkpt><trkpt lat="40.855340254915774" lon="9.166397738549621"><ele>1163.0</ele><time>2026-04-04T13:32:55.001Z</time></trkpt><trkpt lat="40.855408220020465" lon="9.166314477309852"><ele>1163.0</ele><time>2026-04-04T13:32:56.001Z</time></trkpt><trkpt lat="40.855515216228575" lon="9.166231165253006"><ele>1163.0</ele><time>2026-04-04T13:32:57.001Z</time></trkpt><trkpt lat="40.855638554516744" lon="9.166137406192801"><ele>1160.5</ele><time>2026-04-04T13:32:58.001Z</time></trkpt><trkpt lat="40.8557589717226" lon="9.166025403649172"><ele>1158.0</ele><time>2026-04-04T13:32:59.001Z</time></trkpt><trkpt lat="40.85587950863987" lon="9.165906530194233"><ele>1155.5</ele><time>2026-04-04T13:33:00.001Z</time></trkpt><trkpt lat="40.8559945123676" lon="9.165786366786577"><ele>1153.0</ele><time>2026-04-04T13:33:01.001Z</time></trkpt><trkpt lat="40.856116838075934" lon="9.165677373544302"><ele>1145.3333333333333</ele><time>2026-04-04T13:33:02.001Z</time></trkpt><trkpt lat="40.856251039452935" lon="9.165580227001985"><ele>1137.6666666666667</ele><time>2026-04-04T13:33:03.001Z</time></trkpt><trkpt lat="40.85639365430513" lon="9.165483829773336"><ele>1130.0</ele><time>2026-04-04T13:33:04.001Z</time></trkpt><trkpt lat="40.856537316966154" lon="9.165392713551785"><ele>1130.0</ele><time>2026-04-04T13:33:05.001Z</time></trkpt><trkpt lat="40.85667059769721" lon="9.165291978638663"><ele>1130.0</ele><time>2026-04-04T13:33:06.001Z</time></trkpt><trkpt lat="40.85680349739402" lon="9.16519215477597"><ele>1130.0</ele><time>2026-04-04T13:33:07.001Z</time></trkpt><trkpt lat="40.85693367135531" lon="9.165090895179883"><ele>1131.25</ele><time>2026-04-04T13:33:08.001Z</time></trkpt><trkpt lat="40.85706113793789" lon="9.164990887280526"><ele>1132.5</ele><time>2026-04-04T13:33:09.001Z</time></trkpt><trkpt lat="40.857180050005766" lon="9.164883225937832"><ele>1133.75</ele><time>2026-04-04T13:33:10.001Z</time></trkpt><trkpt lat="40.857289585147484" lon="9.164752564314755"><ele>1135.0</ele><time>2026-04-04T13:33:11.001Z</time></trkpt><trkpt lat="40.85739881717255" lon="9.164604801921422"><ele>1131.5</ele><time>2026-04-04T13:33:12.001Z</time></trkpt><trkpt lat="40.857500335990245" lon="9.164459357338552"><ele>1128.0</ele><time>2026-04-04T13:33:13.001Z</time></trkpt><trkpt lat="40.85759329555186" lon="9.164330704745426"><ele>1124.5</ele><time>2026-04-04T13:33:14.001Z</time></trkpt><trkpt lat="40.8576814636653" lon="9.164213575079387"><ele>1121.0</ele><time>2026-04-04T13:33:15.001Z</time></trkpt><trkpt lat="40.85775589890874" lon="9.16410556320122"><ele>1119.1666666666667</ele><time>2026-04-04T13:33:16.001Z</time></trkpt><trkpt lat="40.85782374916535" lon="9.164002575997888"><ele>1117.3333333333335</ele><time>2026-04-04T13:33:17Z</time></trkpt><trkpt lat="40.85787437021927" lon="9.163914659593761"><ele>1115.5</ele><time>2026-04-04T13:33:18Z</time></trkpt><trkpt lat="40.857897842601886" lon="9.16382319251695"><ele>1113.6666666666667</ele><time>2026-04-04T13:33:19Z</time></trkpt><trkpt lat="40.857883716255145" lon="9.163723593530234"><ele>1111.8333333333333</ele><time>2026-04-04T13:33:20Z</time></trkpt><trkpt lat="40.85783757556612" lon="9.163614852109463"><ele>1110.0</ele><time>2026-04-04T13:33:21Z</time></trkpt><trkpt lat="40.85777467634551" lon="9.16353527694579"><ele>1110.0</ele><time>2026-04-04T13:33:22Z</time></trkpt><trkpt lat="40.857703905500856" lon="9.163484024398189"><ele>1110.0</ele><time>2026-04-04T13:33:23Z</time></trkpt><trkpt lat="40.857641650725185" lon="9.163459582885682"><ele>1110.0</ele><time>2026-04-04T13:33:24Z</time></trkpt><trkpt lat="40.85756749678662" lon="9.163480367764846"><ele>1110.0</ele><time>2026-04-04T13:33:25Z</time></trkpt><trkpt lat="40.85748524816255" lon="9.163548317577849"><ele>1110.0</ele><time>2026-04-04T13:33:26Z</time></trkpt><trkpt lat="40.85740399612228" lon="9.163626688546449"><ele>1110.0</ele><time>2026-04-04T13:33:27Z</time></trkpt><trkpt lat="40.857313338883635" lon="9.163650933333045"><ele>1109.8</ele><time>2026-04-04T13:33:28Z</time></trkpt><trkpt lat="40.85721294094737" lon="9.16362950837586"><ele>1109.6</ele><time>2026-04-04T13:33:29Z</time></trkpt><trkpt lat="40.85712553536459" lon="9.16357415016413"><ele>1109.4</ele><time>2026-04-04T13:33:30Z</time></trkpt><trkpt lat="40.857057442320595" lon="9.163473941297536"><ele>1109.2</ele><time>2026-04-04T13:33:31Z</time></trkpt><trkpt lat="40.85701905625229" lon="9.163352144850888"><ele>1109.0</ele><time>2026-04-04T13:33:32Z</time></trkpt><trkpt lat="40.85701872084339" lon="9.163221767537026"><ele>1105.75</ele><time>2026-04-04T13:33:33Z</time></trkpt><trkpt lat="40.8570578448664" lon="9.16308578504664"><ele>1102.5</ele><time>2026-04-04T13:33:34Z</time></trkpt><trkpt lat="40.85712448584549" lon="9.162945073792972"><ele>1099.25</ele><time>2026-04-04T13:33:35Z</time></trkpt><trkpt lat="40.85719482792599" lon="9.16279749015486"><ele>1096.0</ele><time>2026-04-04T13:33:36Z</time></trkpt><trkpt lat="40.857265482349064" lon="9.1626403681502"><ele>1096.0</ele><time>2026-04-04T13:33:37Z</time></trkpt><trkpt lat="40.85733378440192" lon="9.162482699808077"><ele>1096.0</ele><time>2026-04-04T13:33:38Z</time></trkpt><trkpt lat="40.85739954045014" lon="9.162329443106113"><ele>1096.0</ele><time>2026-04-04T13:33:39Z</time></trkpt><trkpt lat="40.8574685486014" lon="9.16217712653826"><ele>1096.0</ele><time>2026-04-04T13:33:40Z</time></trkpt><trkpt lat="40.85754773716977" lon="9.16203445098351"><ele>1092.75</ele><time>2026-04-04T13:33:41Z</time></trkpt><trkpt lat="40.85763885577611" lon="9.1618991682394"><ele>1089.5</ele><time>2026-04-04T13:33:42Z</time></trkpt><trkpt lat="40.857734671842756" lon="9.161767172165042"><ele>1086.25</ele><time>2026-04-04T13:33:43Z</time></trkpt><trkpt lat="40.85783008086134" lon="9.161633509846368"><ele>1083.0</ele><time>2026-04-04T13:33:44Z</time></trkpt><trkpt lat="40.85792283032575" lon="9.161497736345483"><ele>1080.0</ele><time>2026-04-04T13:33:45Z</time></trkpt><trkpt lat="40.85801627827588" lon="9.161359304091702"><ele>1077.0</ele><time>2026-04-04T13:33:46Z</time></trkpt><trkpt lat="40.85811152140732" lon="9.161222771535153"><ele>1074.0</ele><time>2026-04-04T13:33:47Z</time></trkpt><trkpt lat="40.858204808617195" lon="9.16108568099083"><ele>1071.0</ele><time>2026-04-04T13:33:48Z</time></trkpt><trkpt lat="40.85829531055967" lon="9.160949126792294"><ele>1071.0</ele><time>2026-04-04T13:33:49Z</time></trkpt><trkpt lat="40.858385988677675" lon="9.160817002377224"><ele>1071.0</ele><time>2026-04-04T13:33:50Z</time></trkpt><trkpt lat="40.85847861531701" lon="9.160691524511584"><ele>1071.0</ele><time>2026-04-04T13:33:51Z</time></trkpt><trkpt lat="40.85856383665213" lon="9.160579911920074"><ele>1071.0</ele><time>2026-04-04T13:33:52Z</time></trkpt><trkpt lat="40.858642247287754" lon="9.160496769753513"><ele>1068.0</ele><time>2026-04-04T13:33:53Z</time></trkpt><trkpt lat="40.858731618878785" lon="9.160448691296217"><ele>1065.0</ele><time>2026-04-04T13:33:54Z</time></trkpt><trkpt lat="40.85882628918193" lon="9.160440777600769"><ele>1062.0</ele><time>2026-04-04T13:33:55Z</time></trkpt><trkpt lat="40.85893440073454" lon="9.16046907348573"><ele>1059.0</ele><time>2026-04-04T13:33:56Z</time></trkpt><trkpt lat="40.8590465043601" lon="9.160522452349621"><ele>1056.0</ele><time>2026-04-04T13:33:57Z</time></trkpt><trkpt lat="40.859158519349826" lon="9.160605147089575"><ele>1056.75</ele><time>2026-04-04T13:33:58Z</time></trkpt><trkpt lat="40.85926799997283" lon="9.160708877730176"><ele>1057.5</ele><time>2026-04-04T13:33:59Z</time></trkpt><trkpt lat="40.85936817543427" lon="9.160835967869076"><ele>1058.25</ele><time>2026-04-04T13:34:00Z</time></trkpt><trkpt lat="40.85946301107289" lon="9.160966992646848"><ele>1059.0</ele><time>2026-04-04T13:34:01Z</time></trkpt><trkpt lat="40.85956369199323" lon="9.161093966996013"><ele>1059.0</ele><time>2026-04-04T13:34:02Z</time></trkpt><trkpt lat="40.859672729665704" lon="9.1612100941719"><ele>1059.0</ele><time>2026-04-04T13:34:03Z</time></trkpt><trkpt lat="40.85979420660084" lon="9.16131158988726"><ele>1059.0</ele><time>2026-04-04T13:34:04Z</time></trkpt><trkpt lat="40.85990736514741" lon="9.161402485769631"><ele>1059.0</ele><time>2026-04-04T13:34:05Z</time></trkpt><trkpt lat="40.860013665498954" lon="9.161486188561799"><ele>1059.8</ele><time>2026-04-04T13:34:06.001Z</time></trkpt><trkpt lat="40.860107701130524" lon="9.161554979970145"><ele>1060.6000000000001</ele><time>2026-04-04T13:34:07.001Z</time></trkpt><trkpt lat="40.860198093708775" lon="9.161600123974345"><ele>1061.4</ele><time>2026-04-04T13:34:08.001Z</time></trkpt><trkpt lat="40.86028347540472" lon="9.161610755070106"><ele>1062.2</ele><time>2026-04-04T13:34:09.001Z</time></trkpt><trkpt lat="40.86036960400804" lon="9.161601521059213"><ele>1063.0</ele><time>2026-04-04T13:34:10.001Z</time></trkpt><trkpt lat="40.86044449068888" lon="9.161555837497119"><ele>1062.8</ele><time>2026-04-04T13:34:11.001Z</time></trkpt><trkpt lat="40.86052010707469" lon="9.161481552740717"><ele>1062.6</ele><time>2026-04-04T13:34:12.001Z</time></trkpt><trkpt lat="40.86057800251209" lon="9.161385027876607"><ele>1062.4</ele><time>2026-04-04T13:34:13.001Z</time></trkpt><trkpt lat="40.86060480140311" lon="9.16127510476372"><ele>1062.2</ele><time>2026-04-04T13:34:14.001Z</time></trkpt><trkpt lat="40.86060749339348" lon="9.161152418172524"><ele>1062.0</ele><time>2026-04-04T13:34:15.001Z</time></trkpt><trkpt lat="40.86059225167872" lon="9.161016013971334"><ele>1062.0</ele><time>2026-04-04T13:34:16.001Z</time></trkpt><trkpt lat="40.86054644656496" lon="9.160862062964295"><ele>1062.0</ele><time>2026-04-04T13:34:17.001Z</time></trkpt><trkpt lat="40.860484293434126" lon="9.16070641535527"><ele>1062.0</ele><time>2026-04-04T13:34:18.001Z</time></trkpt><trkpt lat="40.860399624686906" lon="9.160558383611018"><ele>1062.0</ele><time>2026-04-04T13:34:19.001Z</time></trkpt><trkpt lat="40.86028269250656" lon="9.160411803847495"><ele>1063.6666666666667</ele><time>2026-04-04T13:34:20.001Z</time></trkpt><trkpt lat="40.860150080549694" lon="9.160258657971061"><ele>1065.3333333333335</ele><time>2026-04-04T13:34:21.001Z</time></trkpt><trkpt lat="40.86001647818469" lon="9.160103672051047"><ele>1067.0</ele><time>2026-04-04T13:34:22.001Z</time></trkpt><trkpt lat="40.85987765592573" lon="9.15993953204076"><ele>1063.0</ele><time>2026-04-04T13:34:23.001Z</time></trkpt><trkpt lat="40.85974998920106" lon="9.159785018351556"><ele>1059.0</ele><time>2026-04-04T13:34:24.001Z</time></trkpt><trkpt lat="40.8596375901713" lon="9.159648440913896"><ele>1055.0</ele><time>2026-04-04T13:34:25.001Z</time></trkpt><trkpt lat="40.85952170077811" lon="9.159519201662954"><ele>1055.0</ele><time>2026-04-04T13:34:26.001Z</time></trkpt><trkpt lat="40.85941638321113" lon="9.159398465294899"><ele>1055.0</ele><time>2026-04-04T13:34:27.001Z</time></trkpt><trkpt lat="40.859327138389894" lon="9.159275137296907"><ele>1055.0</ele><time>2026-04-04T13:34:28.001Z</time></trkpt><trkpt lat="40.85924539458154" lon="9.159137084079013"><ele>1055.0</ele><time>2026-04-04T13:34:29.001Z</time></trkpt><trkpt lat="40.85916900160672" lon="9.1589877001248"><ele>1052.25</ele><time>2026-04-04T13:34:30.001Z</time></trkpt><trkpt lat="40.859095808397946" lon="9.158822509847964"><ele>1049.5</ele><time>2026-04-04T13:34:31.001Z</time></trkpt><trkpt lat="40.859023124477886" lon="9.158644203242266"><ele>1046.75</ele><time>2026-04-04T13:34:32.001Z</time></trkpt><trkpt lat="40.858963184873815" lon="9.158469793358385"><ele>1044.0</ele><time>2026-04-04T13:34:33.001Z</time></trkpt><trkpt lat="40.85890597788998" lon="9.158300661294318"><ele>1044.75</ele><time>2026-04-04T13:34:34.001Z</time></trkpt><trkpt lat="40.85884465422565" lon="9.158142185852128"><ele>1045.5</ele><time>2026-04-04T13:34:35.001Z</time></trkpt><trkpt lat="40.85877603429944" lon="9.157997034359312"><ele>1046.25</ele><time>2026-04-04T13:34:36.001Z</time></trkpt><trkpt lat="40.85869518941939" lon="9.157864646204988"><ele>1047.0</ele><time>2026-04-04T13:34:37.001Z</time></trkpt><trkpt lat="40.858599010265124" lon="9.157748845330385"><ele>1047.0</ele><time>2026-04-04T13:34:38.001Z</time></trkpt><trkpt lat="40.85848493261476" lon="9.1576528593621"><ele>1047.0</ele><time>2026-04-04T13:34:39.001Z</time></trkpt><trkpt lat="40.85835612545031" lon="9.157567728760922"><ele>1047.0</ele><time>2026-04-04T13:34:40.001Z</time></trkpt><trkpt lat="40.85822105963932" lon="9.157484533715692"><ele>1047.0</ele><time>2026-04-04T13:34:41.001Z</time></trkpt><trkpt lat="40.85809300343201" lon="9.157403001351074"><ele>1044.25</ele><time>2026-04-04T13:34:42.001Z</time></trkpt><trkpt lat="40.85798825883224" lon="9.15732823210538"><ele>1041.5</ele><time>2026-04-04T13:34:43.001Z</time></trkpt><trkpt lat="40.85789777636372" lon="9.15724802327815"><ele>1038.75</ele><time>2026-04-04T13:34:44.001Z</time></trkpt><trkpt lat="40.85780681699011" lon="9.157139710356335"><ele>1036.0</ele><time>2026-04-04T13:34:45.001Z</time></trkpt><trkpt lat="40.857722848699424" lon="9.157005339662671"><ele>1036.0</ele><time>2026-04-04T13:34:46.001Z</time></trkpt><trkpt lat="40.85763068931244" lon="9.156858564540936"><ele>1036.0</ele><time>2026-04-04T13:34:47.001Z</time></trkpt><trkpt lat="40.85753731837169" lon="9.156709030617337"><ele>1036.0</ele><time>2026-04-04T13:34:48.001Z</time></trkpt><trkpt lat="40.85744691506006" lon="9.156563492234584"><ele>1036.0</ele><time>2026-04-04T13:34:49.001Z</time></trkpt><trkpt lat="40.857357237444674" lon="9.156443044064853"><ele>1035.3999999999999</ele><time>2026-04-04T13:34:50.001Z</time></trkpt><trkpt lat="40.85727112604649" lon="9.156347629250202"><ele>1034.8</ele><time>2026-04-04T13:34:51.001Z</time></trkpt><trkpt lat="40.85719712275586" lon="9.156271116291212"><ele>1034.1999999999998</ele><time>2026-04-04T13:34:52.001Z</time></trkpt><trkpt lat="40.85713186879613" lon="9.15620237062288"><ele>1033.6</ele><time>2026-04-04T13:34:53.001Z</time></trkpt><trkpt lat="40.8570672104978" lon="9.1561380307432"><ele>1033.0</ele><time>2026-04-04T13:34:54.001Z</time></trkpt><trkpt lat="40.85697648816187" lon="9.156067182635793"><ele>1033.0</ele><time>2026-04-04T13:34:55.001Z</time></trkpt><trkpt lat="40.856865756081696" lon="9.155997592724333"><ele>1033.0</ele><time>2026-04-04T13:34:56.001Z</time></trkpt><trkpt lat="40.85673942034671" lon="9.155937530710764"><ele>1033.0</ele><time>2026-04-04T13:34:57.001Z</time></trkpt><trkpt lat="40.856603768688245" lon="9.15588032874634"><ele>1033.0</ele><time>2026-04-04T13:34:58.001Z</time></trkpt><trkpt lat="40.85645961620731" lon="9.15583337497319"><ele>1034.6666666666665</ele><time>2026-04-04T13:34:59.001Z</time></trkpt><trkpt lat="40.85630999165816" lon="9.155803215162056"><ele>1036.3333333333333</ele><time>2026-04-04T13:35:00.001Z</time></trkpt><trkpt lat="40.856156151072106" lon="9.155788846256248"><ele>1038.0</ele><time>2026-04-04T13:35:01.001Z</time></trkpt><trkpt lat="40.85599933417235" lon="9.155793638045587"><ele>1042.6666666666667</ele><time>2026-04-04T13:35:02.001Z</time></trkpt><trkpt lat="40.85583837345555" lon="9.155808093332501"><ele>1047.3333333333335</ele><time>2026-04-04T13:35:03.001Z</time></trkpt><trkpt lat="40.85568053011901" lon="9.155828211813146"><ele>1052.0</ele><time>2026-04-04T13:35:04.001Z</time></trkpt><trkpt lat="40.8555329575478" lon="9.155830732125864"><ele>1052.0</ele><time>2026-04-04T13:35:05.001Z</time></trkpt><trkpt lat="40.85538347022826" lon="9.15580648354853"><ele>1052.0</ele><time>2026-04-04T13:35:06.001Z</time></trkpt><trkpt lat="40.85522233585828" lon="9.15577399048126"><ele>1052.0</ele><time>2026-04-04T13:35:07.001Z</time></trkpt><trkpt lat="40.85505538465811" lon="9.155740404406819"><ele>1051.6666666666667</ele><time>2026-04-04T13:35:08.001Z</time></trkpt><trkpt lat="40.8548828474051" lon="9.155709757864612"><ele>1051.3333333333333</ele><time>2026-04-04T13:35:09.001Z</time></trkpt><trkpt lat="40.85470388018744" lon="9.155686051031307"><ele>1051.0</ele><time>2026-04-04T13:35:10.001Z</time></trkpt><trkpt lat="40.85452726529171" lon="9.155663309718081"><ele>1051.0</ele><time>2026-04-04T13:35:11.001Z</time></trkpt><trkpt lat="40.85435447495899" lon="9.155642386036218"><ele>1051.0</ele><time>2026-04-04T13:35:12.001Z</time></trkpt><trkpt lat="40.85418325341304" lon="9.155622130556889"><ele>1051.0</ele><time>2026-04-04T13:35:13.001Z</time></trkpt><trkpt lat="40.85401616586612" lon="9.155602396704596"><ele>1054.25</ele><time>2026-04-04T13:35:14.001Z</time></trkpt><trkpt lat="40.85385317639721" lon="9.155583308952178"><ele>1057.5</ele><time>2026-04-04T13:35:15.001Z</time></trkpt><trkpt lat="40.853704113839974" lon="9.155565490404774"><ele>1060.75</ele><time>2026-04-04T13:35:16.001Z</time></trkpt><trkpt lat="40.853573385611334" lon="9.155538735053598"><ele>1064.0</ele><time>2026-04-04T13:35:17.001Z</time></trkpt><trkpt lat="40.85344371361432" lon="9.155491896224891"><ele>1067.3333333333335</ele><time>2026-04-04T13:35:18.001Z</time></trkpt><trkpt lat="40.85330297344338" lon="9.155419310056496"><ele>1070.6666666666667</ele><time>2026-04-04T13:35:19.001Z</time></trkpt><trkpt lat="40.85316286373319" lon="9.155315386558472"><ele>1074.0</ele><time>2026-04-04T13:35:20.001Z</time></trkpt><trkpt lat="40.8530205585424" lon="9.155186031104455"><ele>1074.0</ele><time>2026-04-04T13:35:21.001Z</time></trkpt><trkpt lat="40.852878057610674" lon="9.155038147230606"><ele>1074.0</ele><time>2026-04-04T13:35:22.001Z</time></trkpt><trkpt lat="40.85272088007683" lon="9.154891426804921"><ele>1074.0</ele><time>2026-04-04T13:35:23Z</time></trkpt><trkpt lat="40.852580401462276" lon="9.15475886372354"><ele>1073.0</ele><time>2026-04-04T13:35:24Z</time></trkpt><trkpt lat="40.85245709384163" lon="9.154638892455978"><ele>1072.0</ele><time>2026-04-04T13:35:25Z</time></trkpt><trkpt lat="40.85233436479201" lon="9.154511168019106"><ele>1071.0</ele><time>2026-04-04T13:35:26Z</time></trkpt><trkpt lat="40.852213886818255" lon="9.154393532100244"><ele>1071.0</ele><time>2026-04-04T13:35:27Z</time></trkpt><trkpt lat="40.85209314918892" lon="9.154277402881345"><ele>1071.0</ele><time>2026-04-04T13:35:28Z</time></trkpt><trkpt lat="40.85196948030429" lon="9.154158674798044"><ele>1071.0</ele><time>2026-04-04T13:35:29Z</time></trkpt><trkpt lat="40.851852957352236" lon="9.154042678565522"><ele>1071.0</ele><time>2026-04-04T13:35:30Z</time></trkpt><trkpt lat="40.85174529111948" lon="9.153944037781368"><ele>1069.2</ele><time>2026-04-04T13:35:31Z</time></trkpt><trkpt lat="40.85164926430341" lon="9.153853719202996"><ele>1067.3999999999999</ele><time>2026-04-04T13:35:32Z</time></trkpt><trkpt lat="40.8515577616575" lon="9.153766617452524"><ele>1065.6</ele><time>2026-04-04T13:35:33Z</time></trkpt><trkpt lat="40.85147706769147" lon="9.1536819903928"><ele>1063.8</ele><time>2026-04-04T13:35:34Z</time></trkpt><trkpt lat="40.851405960270554" lon="9.153594890276034"><ele>1062.0</ele><time>2026-04-04T13:35:35Z</time></trkpt><trkpt lat="40.85135361566396" lon="9.153487509444021"><ele>1062.0</ele><time>2026-04-04T13:35:36Z</time></trkpt><trkpt lat="40.85133061923506" lon="9.15337200216091"><ele>1062.0</ele><time>2026-04-04T13:35:37Z</time></trkpt><trkpt lat="40.85134166963488" lon="9.15325472833123"><ele>1062.0</ele><time>2026-04-04T13:35:38Z</time></trkpt><trkpt lat="40.85137947997647" lon="9.153147724507141"><ele>1062.0</ele><time>2026-04-04T13:35:39Z</time></trkpt><trkpt lat="40.8514085569662" lon="9.153027528383811"><ele>1062.0</ele><time>2026-04-04T13:35:40Z</time></trkpt><trkpt lat="40.85142579447389" lon="9.15290462327395"><ele>1061.2</ele><time>2026-04-04T13:35:41Z</time></trkpt><trkpt lat="40.85141758041808" lon="9.152769089450105"><ele>1060.4</ele><time>2026-04-04T13:35:42Z</time></trkpt><trkpt lat="40.85140513299411" lon="9.152637881046356"><ele>1059.6</ele><time>2026-04-04T13:35:43Z</time></trkpt><trkpt lat="40.851392376411766" lon="9.152508784757785"><ele>1058.8</ele><time>2026-04-04T13:35:44Z</time></trkpt><trkpt lat="40.85138107582441" lon="9.152387124023916"><ele>1058.0</ele><time>2026-04-04T13:35:45Z</time></trkpt><trkpt lat="40.85137360130638" lon="9.152276978422107"><ele>1057.5</ele><time>2026-04-04T13:35:46Z</time></trkpt><trkpt lat="40.851380413945705" lon="9.152136856147049"><ele>1057.0</ele><time>2026-04-04T13:35:48Z</time></trkpt><trkpt lat="40.851456773168564" lon="9.152066446812876"><ele>1056.5</ele><time>2026-04-04T13:35:51Z</time></trkpt><trkpt lat="40.8515174745225" lon="9.152095353326326"><ele>1056.0</ele><time>2026-04-04T13:35:52Z</time></trkpt><trkpt lat="40.851572463319684" lon="9.152139241802512"><ele>1055.5</ele><time>2026-04-04T13:35:53Z</time></trkpt><trkpt lat="40.85168492553099" lon="9.152154308793337"><ele>1055.0</ele><time>2026-04-04T13:35:55Z</time></trkpt><trkpt lat="40.85174712231122" lon="9.15212685152113"><ele>1053.6666666666667</ele><time>2026-04-04T13:35:56Z</time></trkpt><trkpt lat="40.85180937539428" lon="9.152085886020265"><ele>1052.3333333333335</ele><time>2026-04-04T13:35:57Z</time></trkpt><trkpt lat="40.85187664080507" lon="9.152046382116069"><ele>1051.0</ele><time>2026-04-04T13:35:58Z</time></trkpt><trkpt lat="40.851953810984455" lon="9.152015620308681"><ele>1049.6666666666667</ele><time>2026-04-04T13:35:59Z</time></trkpt><trkpt lat="40.85203501906232" lon="9.151995704818457"><ele>1048.3333333333333</ele><time>2026-04-04T13:36:00Z</time></trkpt><trkpt lat="40.85211308884142" lon="9.151984933500513"><ele>1047.0</ele><time>2026-04-04T13:36:01Z</time></trkpt><trkpt lat="40.85218929587741" lon="9.15196363178251"><ele>1047.0</ele><time>2026-04-04T13:36:02Z</time></trkpt><trkpt lat="40.85224871997927" lon="9.151934209985312"><ele>1047.0</ele><time>2026-04-04T13:36:03Z</time></trkpt><trkpt lat="40.852303321442854" lon="9.151882605864477"><ele>1047.0</ele><time>2026-04-04T13:36:04Z</time></trkpt><trkpt lat="40.85235580572211" lon="9.15180310293106"><ele>1047.0</ele><time>2026-04-04T13:36:05Z</time></trkpt><trkpt lat="40.85239508187693" lon="9.151704060071937"><ele>1047.0</ele><time>2026-04-04T13:36:06Z</time></trkpt><trkpt lat="40.852424129021834" lon="9.151593319071592"><ele>1047.0</ele><time>2026-04-04T13:36:07Z</time></trkpt><trkpt lat="40.852447020553946" lon="9.15148012295556"><ele>1046.5</ele><time>2026-04-04T13:36:08Z</time></trkpt><trkpt lat="40.85246444015444" lon="9.151372476773865"><ele>1046.0</ele><time>2026-04-04T13:36:09Z</time></trkpt><trkpt lat="40.85247570940079" lon="9.151256110658524"><ele>1045.5</ele><time>2026-04-04T13:36:10Z</time></trkpt><trkpt lat="40.8524785075692" lon="9.151142564578835"><ele>1045.0</ele><time>2026-04-04T13:36:11Z</time></trkpt><trkpt lat="40.85248445276241" lon="9.151036170961843"><ele>1044.5</ele><time>2026-04-04T13:36:12.001Z</time></trkpt><trkpt lat="40.852491444140284" lon="9.150932228032259"><ele>1044.0</ele><time>2026-04-04T13:36:13.001Z</time></trkpt><trkpt lat="40.85248745921312" lon="9.150848151695778"><ele>1042.8</ele><time>2026-04-04T13:36:14.001Z</time></trkpt><trkpt lat="40.85249441685397" lon="9.150707275138563"><ele>1041.6000000000001</ele><time>2026-04-04T13:36:16.001Z</time></trkpt><trkpt lat="40.852586117677816" lon="9.150634424032724"><ele>1040.4</ele><time>2026-04-04T13:36:18.001Z</time></trkpt><trkpt lat="40.852676619949186" lon="9.150636359272942"><ele>1039.2</ele><time>2026-04-04T13:36:19.001Z</time></trkpt><trkpt lat="40.85277725783222" lon="9.150652274921622"><ele>1038.0</ele><time>2026-04-04T13:36:20.001Z</time></trkpt><trkpt lat="40.85287429932292" lon="9.150649902990903"><ele>1035.4</ele><time>2026-04-04T13:36:21.001Z</time></trkpt><trkpt lat="40.85295998493253" lon="9.150639301152125"><ele>1032.8</ele><time>2026-04-04T13:36:22.001Z</time></trkpt><trkpt lat="40.853031399566774" lon="9.150648176852997"><ele>1030.2</ele><time>2026-04-04T13:36:23.001Z</time></trkpt><trkpt lat="40.85314546703497" lon="9.150705993233524"><ele>1027.6</ele><time>2026-04-04T13:36:25.001Z</time></trkpt><trkpt lat="40.85326137709398" lon="9.15073947443862"><ele>1025.0</ele><time>2026-04-04T13:36:27.001Z</time></trkpt><trkpt lat="40.85332259074777" lon="9.150769225911576"><ele>1025.0</ele><time>2026-04-04T13:36:28.001Z</time></trkpt><trkpt lat="40.85339776931685" lon="9.15083882166546"><ele>1025.0</ele><time>2026-04-04T13:36:29.001Z</time></trkpt><trkpt lat="40.853490071664694" lon="9.150927607486143"><ele>1025.0</ele><time>2026-04-04T13:36:30.001Z</time></trkpt><trkpt lat="40.853573996282094" lon="9.151009740037725"><ele>1025.0</ele><time>2026-04-04T13:36:31.001Z</time></trkpt><trkpt lat="40.85363740299434" lon="9.15107421942914"><ele>1025.0</ele><time>2026-04-04T13:36:32.001Z</time></trkpt><trkpt lat="40.853704286335685" lon="9.151141836706094"><ele>1024.2</ele><time>2026-04-04T13:36:33.001Z</time></trkpt><trkpt lat="40.85378201935934" lon="9.15121712161574"><ele>1023.4</ele><time>2026-04-04T13:36:34.001Z</time></trkpt><trkpt lat="40.85386335097778" lon="9.151299362243144"><ele>1022.5999999999999</ele><time>2026-04-04T13:36:35.001Z</time></trkpt><trkpt lat="40.853933826362095" lon="9.151384620634913"><ele>1021.8</ele><time>2026-04-04T13:36:36.001Z</time></trkpt><trkpt lat="40.85401374986228" lon="9.151471783506253"><ele>1021.0</ele><time>2026-04-04T13:36:37.001Z</time></trkpt><trkpt lat="40.85409937733267" lon="9.15156785054003"><ele>1021.0</ele><time>2026-04-04T13:36:38.001Z</time></trkpt><trkpt lat="40.854193625155254" lon="9.151666032083781"><ele>1021.0</ele><time>2026-04-04T13:36:39.001Z</time></trkpt><trkpt lat="40.854296293695576" lon="9.151752533439872"><ele>1021.0</ele><time>2026-04-04T13:36:40.001Z</time></trkpt><trkpt lat="40.85440156740847" lon="9.151840025210095"><ele>1021.0</ele><time>2026-04-04T13:36:41.001Z</time></trkpt><trkpt lat="40.85453726487041" lon="9.151935229488199"><ele>1017.5</ele><time>2026-04-04T13:36:42.001Z</time></trkpt><trkpt lat="40.85464615854488" lon="9.152023150224396"><ele>1014.0</ele><time>2026-04-04T13:36:43.001Z</time></trkpt><trkpt lat="40.85474320400859" lon="9.152112251164903"><ele>1010.5</ele><time>2026-04-04T13:36:44.001Z</time></trkpt><trkpt lat="40.85483200821747" lon="9.152200649645126"><ele>1007.0</ele><time>2026-04-04T13:36:45.001Z</time></trkpt><trkpt lat="40.85491184718988" lon="9.152280859599202"><ele>1007.0</ele><time>2026-04-04T13:36:46.001Z</time></trkpt><trkpt lat="40.85499065830856" lon="9.152356296017379"><ele>1007.0</ele><time>2026-04-04T13:36:47.001Z</time></trkpt><trkpt lat="40.85507486678221" lon="9.152443168867986"><ele>1007.0</ele><time>2026-04-04T13:36:48.001Z</time></trkpt><trkpt lat="40.8551445524685" lon="9.15254979818318"><ele>1007.0</ele><time>2026-04-04T13:36:49.001Z</time></trkpt><trkpt lat="40.85522526327967" lon="9.152669481368576"><ele>1007.0</ele><time>2026-04-04T13:36:50.001Z</time></trkpt><trkpt lat="40.85531580779116" lon="9.15280618544184"><ele>1007.25</ele><time>2026-04-04T13:36:51.001Z</time></trkpt><trkpt lat="40.85540933921828" lon="9.152931612272"><ele>1007.5</ele><time>2026-04-04T13:36:52.001Z</time></trkpt><trkpt lat="40.855494619235046" lon="9.153045944033092"><ele>1007.75</ele><time>2026-04-04T13:36:53.001Z</time></trkpt><trkpt lat="40.85557460710237" lon="9.153157874964565"><ele>1008.0</ele><time>2026-04-04T13:36:54.001Z</time></trkpt><trkpt lat="40.85564977526454" lon="9.153261643737904"><ele>1008.1666666666666</ele><time>2026-04-04T13:36:55.001Z</time></trkpt><trkpt lat="40.85570443556681" lon="9.153338429032157"><ele>1008.3333333333333</ele><time>2026-04-04T13:36:56.001Z</time></trkpt><trkpt lat="40.85575392933384" lon="9.153419101437569"><ele>1008.5</ele><time>2026-04-04T13:36:57.001Z</time></trkpt><trkpt lat="40.85579765893932" lon="9.153496760421392"><ele>1008.6666666666666</ele><time>2026-04-04T13:36:58.001Z</time></trkpt><trkpt lat="40.85590515035501" lon="9.15355584366611"><ele>1008.8333333333333</ele><time>2026-04-04T13:37:00.001Z</time></trkpt><trkpt lat="40.85596798208473" lon="9.153540473178218"><ele>1009.0</ele><time>2026-04-04T13:37:01.001Z</time></trkpt><trkpt lat="40.85606404480957" lon="9.153455935578965"><ele>1013.5</ele><time>2026-04-04T13:37:03.001Z</time></trkpt><trkpt lat="40.85607660433374" lon="9.153275602204438"><ele>1018.0</ele><time>2026-04-04T13:37:05.001Z</time></trkpt><trkpt lat="40.85607438719699" lon="9.153141770644288"><ele>1022.5</ele><time>2026-04-04T13:37:06.001Z</time></trkpt><trkpt lat="40.85606263198661" lon="9.15295963761958"><ele>1027.0</ele><time>2026-04-04T13:37:07.001Z</time></trkpt><trkpt lat="40.8560624650934" lon="9.152779936790001"><ele>1027.6666666666665</ele><time>2026-04-04T13:37:08.001Z</time></trkpt><trkpt lat="40.8560606511924" lon="9.15262374789251"><ele>1028.3333333333333</ele><time>2026-04-04T13:37:09.001Z</time></trkpt><trkpt lat="40.85606215096018" lon="9.152492524406624"><ele>1029.0</ele><time>2026-04-04T13:37:10.001Z</time></trkpt><trkpt lat="40.85604722053495" lon="9.15237912447707"><ele>1029.6666666666667</ele><time>2026-04-04T13:37:11.001Z</time></trkpt><trkpt lat="40.85605011153697" lon="9.152293401863531"><ele>1030.3333333333335</ele><time>2026-04-04T13:37:12.001Z</time></trkpt><trkpt lat="40.85609066944482" lon="9.152213666641456"><ele>1031.0</ele><time>2026-04-04T13:37:13.001Z</time></trkpt><trkpt lat="40.856145683127856" lon="9.152127397742424"><ele>1031.0</ele><time>2026-04-04T13:37:14.001Z</time></trkpt><trkpt lat="40.856203320379095" lon="9.152074872306416"><ele>1031.0</ele><time>2026-04-04T13:37:15.001Z</time></trkpt><trkpt lat="40.85631579627379" lon="9.151964815049448"><ele>1031.0</ele><time>2026-04-04T13:37:17.001Z</time></trkpt><trkpt lat="40.85637413313789" lon="9.151873458055004"><ele>1031.0</ele><time>2026-04-04T13:37:18.001Z</time></trkpt><trkpt lat="40.85644215226875" lon="9.151735672313231"><ele>1031.0</ele><time>2026-04-04T13:37:19.001Z</time></trkpt><trkpt lat="40.856491342709084" lon="9.151592085186897"><ele>1030.75</ele><time>2026-04-04T13:37:20.001Z</time></trkpt><trkpt lat="40.85653922931981" lon="9.151449238030768"><ele>1030.5</ele><time>2026-04-04T13:37:21.001Z</time></trkpt><trkpt lat="40.856568423878564" lon="9.151313600584958"><ele>1030.25</ele><time>2026-04-04T13:37:22.001Z</time></trkpt><trkpt lat="40.856573578721886" lon="9.151165385552353"><ele>1030.0</ele><time>2026-04-04T13:37:23.001Z</time></trkpt><trkpt lat="40.8565663704187" lon="9.15100223260865"><ele>1030.0</ele><time>2026-04-04T13:37:24.001Z</time></trkpt><trkpt lat="40.856555337728835" lon="9.150819918556818"><ele>1030.0</ele><time>2026-04-04T13:37:25.001Z</time></trkpt><trkpt lat="40.856546101396866" lon="9.150643728191955"><ele>1030.0</ele><time>2026-04-04T13:37:26.001Z</time></trkpt><trkpt lat="40.856538118493454" lon="9.150472224970414"><ele>1030.0</ele><time>2026-04-04T13:37:27.001Z</time></trkpt><trkpt lat="40.856513822626134" lon="9.150315071497065"><ele>1031.6</ele><time>2026-04-04T13:37:28.001Z</time></trkpt><trkpt lat="40.85649254888015" lon="9.15016349818968"><ele>1033.2</ele><time>2026-04-04T13:37:29Z</time></trkpt><trkpt lat="40.85646329343073" lon="9.150056030852602"><ele>1034.8</ele><time>2026-04-04T13:37:30Z</time></trkpt><trkpt lat="40.85646168305137" lon="9.149954829048252"><ele>1036.4</ele><time>2026-04-04T13:37:32Z</time></trkpt><trkpt lat="40.856543066532275" lon="9.149963623174429"><ele>1038.0</ele><time>2026-04-04T13:37:34Z</time></trkpt><trkpt lat="40.85665536436296" lon="9.150029969617389"><ele>1038.0</ele><time>2026-04-04T13:37:36Z</time></trkpt><trkpt lat="40.856721226450155" lon="9.150051444710853"><ele>1038.0</ele><time>2026-04-04T13:37:37Z</time></trkpt><trkpt lat="40.85682068017722" lon="9.150045280978834"><ele>1038.0</ele><time>2026-04-04T13:37:38Z</time></trkpt><trkpt lat="40.8569249626971" lon="9.15002808878249"><ele>1038.0</ele><time>2026-04-04T13:37:39Z</time></trkpt><trkpt lat="40.85702705617329" lon="9.150024043658942"><ele>1038.0</ele><time>2026-04-04T13:37:40Z</time></trkpt><trkpt lat="40.85715640257984" lon="9.150022675683784"><ele>1040.75</ele><time>2026-04-04T13:37:41Z</time></trkpt><trkpt lat="40.857267023412874" lon="9.150040268535111"><ele>1043.5</ele><time>2026-04-04T13:37:42Z</time></trkpt><trkpt lat="40.85733962354135" lon="9.15007148242193"><ele>1046.25</ele><time>2026-04-04T13:37:43Z</time></trkpt><trkpt lat="40.8574956529322" lon="9.15008839158402"><ele>1049.0</ele><time>2026-04-04T13:37:45Z</time></trkpt><trkpt lat="40.857620767540205" lon="9.150117241895133"><ele>1049.0</ele><time>2026-04-04T13:37:46Z</time></trkpt><trkpt lat="40.85776170170941" lon="9.150141286958412"><ele>1049.0</ele><time>2026-04-04T13:37:47Z</time></trkpt><trkpt lat="40.85787784261601" lon="9.150176888389673"><ele>1049.0</ele><time>2026-04-04T13:37:48Z</time></trkpt><trkpt lat="40.857968474259685" lon="9.150212225014362"><ele>1049.0</ele><time>2026-04-04T13:37:49Z</time></trkpt><trkpt lat="40.85804613222606" lon="9.150219122389142"><ele>1049.0</ele><time>2026-04-04T13:37:50Z</time></trkpt><trkpt lat="40.858124259746006" lon="9.150197084007832"><ele>1049.0</ele><time>2026-04-04T13:37:51Z</time></trkpt><trkpt lat="40.858203413345194" lon="9.15015121900884"><ele>1049.0</ele><time>2026-04-04T13:37:52Z</time></trkpt><trkpt lat="40.858276180751965" lon="9.150120663131439"><ele>1049.0</ele><time>2026-04-04T13:37:53Z</time></trkpt><trkpt lat="40.85837695907178" lon="9.150159312957113"><ele>1049.0</ele><time>2026-04-04T13:37:55Z</time></trkpt><trkpt lat="40.85842287477047" lon="9.150232320923585"><ele>1049.0</ele><time>2026-04-04T13:37:56Z</time></trkpt><trkpt lat="40.858483157858934" lon="9.150350814848938"><ele>1049.0</ele><time>2026-04-04T13:37:57Z</time></trkpt><trkpt lat="40.858547962645176" lon="9.150465705205237"><ele>1045.8</ele><time>2026-04-04T13:37:58Z</time></trkpt><trkpt lat="40.85861413366156" lon="9.150563516976487"><ele>1042.6000000000001</ele><time>2026-04-04T13:37:59Z</time></trkpt><trkpt lat="40.858671852108536" lon="9.150658264491653"><ele>1039.4</ele><time>2026-04-04T13:38:00Z</time></trkpt><trkpt lat="40.858732673945205" lon="9.150749077062931"><ele>1036.2</ele><time>2026-04-04T13:38:01Z</time></trkpt><trkpt lat="40.85880247922641" lon="9.150837569653435"><ele>1033.0</ele><time>2026-04-04T13:38:02Z</time></trkpt><trkpt lat="40.85887736876852" lon="9.150920939096595"><ele>1033.0</ele><time>2026-04-04T13:38:03Z</time></trkpt><trkpt lat="40.85894620235852" lon="9.151007877011125"><ele>1033.0</ele><time>2026-04-04T13:38:04Z</time></trkpt><trkpt lat="40.85901542153912" lon="9.1510981770278"><ele>1033.0</ele><time>2026-04-04T13:38:05Z</time></trkpt><trkpt lat="40.85909337223898" lon="9.151185938535033"><ele>1033.0</ele><time>2026-04-04T13:38:06Z</time></trkpt><trkpt lat="40.859179533325" lon="9.151269981809051"><ele>1033.0</ele><time>2026-04-04T13:38:07Z</time></trkpt><trkpt lat="40.85926441657367" lon="9.15134603925388"><ele>1030.4</ele><time>2026-04-04T13:38:08Z</time></trkpt><trkpt lat="40.85934663999459" lon="9.15141700572714"><ele>1027.8</ele><time>2026-04-04T13:38:09Z</time></trkpt><trkpt lat="40.85942332338275" lon="9.151494522966862"><ele>1025.2</ele><time>2026-04-04T13:38:10Z</time></trkpt><trkpt lat="40.859500655832285" lon="9.15157587311472"><ele>1022.6</ele><time>2026-04-04T13:38:11Z</time></trkpt><trkpt lat="40.859580508805706" lon="9.151650070986134"><ele>1020.0</ele><time>2026-04-04T13:38:12Z</time></trkpt><trkpt lat="40.85966124172834" lon="9.15173440854647"><ele>1020.0</ele><time>2026-04-04T13:38:13Z</time></trkpt><trkpt lat="40.85973685651085" lon="9.151826685776225"><ele>1020.0</ele><time>2026-04-04T13:38:14Z</time></trkpt><trkpt lat="40.859810054801194" lon="9.151932469222112"><ele>1020.0</ele><time>2026-04-04T13:38:15Z</time></trkpt><trkpt lat="40.85987737690792" lon="9.152020845227176"><ele>1020.0</ele><time>2026-04-04T13:38:16Z</time></trkpt><trkpt lat="40.85995458866838" lon="9.152085940194603"><ele>1020.0</ele><time>2026-04-04T13:38:17Z</time></trkpt><trkpt lat="40.860059974180054" lon="9.152144562840917"><ele>1017.8</ele><time>2026-04-04T13:38:18Z</time></trkpt><trkpt lat="40.86016632207147" lon="9.152197047355267"><ele>1015.6</ele><time>2026-04-04T13:38:19Z</time></trkpt><trkpt lat="40.86025902458215" lon="9.15226402887971"><ele>1013.4000000000001</ele><time>2026-04-04T13:38:20Z</time></trkpt><trkpt lat="40.860355032196686" lon="9.152336370135979"><ele>1011.2</ele><time>2026-04-04T13:38:21.001Z</time></trkpt><trkpt lat="40.86044994819838" lon="9.15240159100085"><ele>1009.0</ele><time>2026-04-04T13:38:22.001Z</time></trkpt><trkpt lat="40.86053735277012" lon="9.15246162525777"><ele>1009.0</ele><time>2026-04-04T13:38:23.001Z</time></trkpt><trkpt lat="40.860607827549806" lon="9.152496941204419"><ele>1009.0000000000001</ele><time>2026-04-04T13:38:24.001Z</time></trkpt><trkpt lat="40.860680371811604" lon="9.152525999697858"><ele>1009.0000000000001</ele><time>2026-04-04T13:38:25.001Z</time></trkpt><trkpt lat="40.86074468865084" lon="9.15254792055796"><ele>1009.0</ele><time>2026-04-04T13:38:26.001Z</time></trkpt><trkpt lat="40.86084684729853" lon="9.15251354776739"><ele>1009.0</ele><time>2026-04-04T13:38:28.001Z</time></trkpt><trkpt lat="40.86086595791164" lon="9.152340246027318"><ele>1007.2</ele><time>2026-04-04T13:38:30.001Z</time></trkpt><trkpt lat="40.86084901217967" lon="9.152240874722374"><ele>1005.4000000000001</ele><time>2026-04-04T13:38:31.001Z</time></trkpt><trkpt lat="40.860825225016114" lon="9.152124911886395"><ele>1003.6</ele><time>2026-04-04T13:38:32.001Z</time></trkpt><trkpt lat="40.86081454245668" lon="9.151991366498619"><ele>1001.8</ele><time>2026-04-04T13:38:33.001Z</time></trkpt><trkpt lat="40.86080994272936" lon="9.15185746809625"><ele>1000.0</ele><time>2026-04-04T13:38:34.001Z</time></trkpt><trkpt lat="40.860806245074905" lon="9.15170138224"><ele>1000.0</ele><time>2026-04-04T13:38:35.001Z</time></trkpt><trkpt lat="40.86078940733322" lon="9.151560597642725"><ele>1000.0</ele><time>2026-04-04T13:38:36.001Z</time></trkpt><trkpt lat="40.86078739775885" lon="9.151417667858055"><ele>1000.0</ele><time>2026-04-04T13:38:37.001Z</time></trkpt><trkpt lat="40.86078937598412" lon="9.151289930746788"><ele>1000.0</ele><time>2026-04-04T13:38:38.001Z</time></trkpt><trkpt lat="40.86079131620275" lon="9.151163626060345"><ele>1000.0</ele><time>2026-04-04T13:38:39.001Z</time></trkpt><trkpt lat="40.860797667516636" lon="9.151035982391448"><ele>998.75</ele><time>2026-04-04T13:38:40.001Z</time></trkpt><trkpt lat="40.86082692936631" lon="9.150907749588306"><ele>997.5</ele><time>2026-04-04T13:38:41.001Z</time></trkpt><trkpt lat="40.8608766595468" lon="9.150765408451068"><ele>996.25</ele><time>2026-04-04T13:38:42.001Z</time></trkpt><trkpt lat="40.860948950112764" lon="9.150625440121269"><ele>995.0</ele><time>2026-04-04T13:38:43.001Z</time></trkpt><trkpt lat="40.86101426882008" lon="9.15048912483725"><ele>992.5000000000001</ele><time>2026-04-04T13:38:44.001Z</time></trkpt><trkpt lat="40.86106521512482" lon="9.150359715706234"><ele>990.0</ele><time>2026-04-04T13:38:45.001Z</time></trkpt><trkpt lat="40.8611123865627" lon="9.150254334008842"><ele>987.5</ele><time>2026-04-04T13:38:46.001Z</time></trkpt><trkpt lat="40.861148493391255" lon="9.150172206476826"><ele>985.0</ele><time>2026-04-04T13:38:47.001Z</time></trkpt><trkpt lat="40.86119316919809" lon="9.15011134160947"><ele>982.5000000000001</ele><time>2026-04-04T13:38:48.001Z</time></trkpt><trkpt lat="40.86124967581912" lon="9.150073100446733"><ele>980.0</ele><time>2026-04-04T13:38:49.001Z</time></trkpt><trkpt lat="40.86134699564227" lon="9.150036692902434"><ele>980.0</ele><time>2026-04-04T13:38:51.001Z</time></trkpt><trkpt lat="40.86143258639823" lon="9.150075975616513"><ele>980.0</ele><time>2026-04-04T13:38:53.001Z</time></trkpt><trkpt lat="40.861506023493654" lon="9.150170298494936"><ele>980.0</ele><time>2026-04-04T13:38:54.001Z</time></trkpt><trkpt lat="40.86158770177817" lon="9.1502536809846"><ele>980.0</ele><time>2026-04-04T13:38:55.001Z</time></trkpt><trkpt lat="40.861650984211956" lon="9.150321501490659"><ele>980.0</ele><time>2026-04-04T13:38:56.001Z</time></trkpt><trkpt lat="40.86170651067786" lon="9.150428770214273"><ele>980.0</ele><time>2026-04-04T13:38:57.001Z</time></trkpt><trkpt lat="40.86176401621647" lon="9.150583543880346"><ele>980.0</ele><time>2026-04-04T13:38:58.001Z</time></trkpt><trkpt lat="40.86182922167684" lon="9.150716137216277"><ele>980.0</ele><time>2026-04-04T13:38:59.001Z</time></trkpt><trkpt lat="40.86186384021785" lon="9.150792814755471"><ele>980.0</ele><time>2026-04-04T13:39:00.001Z</time></trkpt><trkpt lat="40.86194968413229" lon="9.150949890960892"><ele>980.8333333333334</ele><time>2026-04-04T13:39:02.001Z</time></trkpt><trkpt lat="40.86202074397517" lon="9.151009424775316"><ele>981.6666666666667</ele><time>2026-04-04T13:39:03.001Z</time></trkpt><trkpt lat="40.86209235564562" lon="9.151009878783906"><ele>982.5</ele><time>2026-04-04T13:39:04.001Z</time></trkpt><trkpt lat="40.862161029073604" lon="9.151007992026088"><ele>983.3333333333333</ele><time>2026-04-04T13:39:05.001Z</time></trkpt><trkpt lat="40.86223110742807" lon="9.150967077974602"><ele>984.1666666666666</ele><time>2026-04-04T13:39:07.001Z</time></trkpt><trkpt lat="40.86230810594568" lon="9.150879113462636"><ele>985.0</ele><time>2026-04-04T13:39:08.001Z</time></trkpt><trkpt lat="40.86237450251335" lon="9.15077617327617"><ele>984.8</ele><time>2026-04-04T13:39:09.001Z</time></trkpt><trkpt lat="40.86241829609292" lon="9.15064475119308"><ele>984.6</ele><time>2026-04-04T13:39:10.001Z</time></trkpt><trkpt lat="40.86241078424103" lon="9.150491461746759"><ele>984.4000000000001</ele><time>2026-04-04T13:39:11.001Z</time></trkpt><trkpt lat="40.8623560926977" lon="9.150393850483646"><ele>984.2</ele><time>2026-04-04T13:39:12.001Z</time></trkpt><trkpt lat="40.86229044723892" lon="9.150301204317428"><ele>984.0</ele><time>2026-04-04T13:39:13.001Z</time></trkpt><trkpt lat="40.86225758311388" lon="9.150180845446238"><ele>984.0</ele><time>2026-04-04T13:39:14.001Z</time></trkpt><trkpt lat="40.86224228602793" lon="9.150056938876643"><ele>984.0</ele><time>2026-04-04T13:39:15.001Z</time></trkpt><trkpt lat="40.862235504315635" lon="9.149908728701305"><ele>984.0</ele><time>2026-04-04T13:39:16.001Z</time></trkpt><trkpt lat="40.86223710590934" lon="9.149742004417943"><ele>984.0</ele><time>2026-04-04T13:39:17.001Z</time></trkpt><trkpt lat="40.862232118085224" lon="9.14955209903261"><ele>982.4000000000001</ele><time>2026-04-04T13:39:18.001Z</time></trkpt><trkpt lat="40.8622332829981" lon="9.149407376588641"><ele>980.8000000000001</ele><time>2026-04-04T13:39:19.001Z</time></trkpt><trkpt lat="40.86224863960245" lon="9.149275793128789"><ele>979.1999999999999</ele><time>2026-04-04T13:39:20.001Z</time></trkpt><trkpt lat="40.862286065530604" lon="9.14917045159783"><ele>977.5999999999999</ele><time>2026-04-04T13:39:21.001Z</time></trkpt><trkpt lat="40.86233976900084" lon="9.14906805486414"><ele>976.0</ele><time>2026-04-04T13:39:22.001Z</time></trkpt><trkpt lat="40.86239274827776" lon="9.148971951754547"><ele>974.1999999999999</ele><time>2026-04-04T13:39:24.001Z</time></trkpt><trkpt lat="40.86245780477239" lon="9.148836373804855"><ele>972.3999999999999</ele><time>2026-04-04T13:39:26.001Z</time></trkpt><trkpt lat="40.862517746771616" lon="9.148760384952562"><ele>970.6</ele><time>2026-04-04T13:39:27.001Z</time></trkpt><trkpt lat="40.8625949346439" lon="9.148687014577918"><ele>968.8</ele><time>2026-04-04T13:39:28.001Z</time></trkpt><trkpt lat="40.86267800731648" lon="9.148632258439205"><ele>967.0</ele><time>2026-04-04T13:39:29.001Z</time></trkpt><trkpt lat="40.86277217568065" lon="9.148584044345693"><ele>966.2</ele><time>2026-04-04T13:39:30.001Z</time></trkpt><trkpt lat="40.862870999724194" lon="9.148543831405476"><ele>965.4000000000001</ele><time>2026-04-04T13:39:31.001Z</time></trkpt><trkpt lat="40.86295283223871" lon="9.14850743748375"><ele>964.5999999999999</ele><time>2026-04-04T13:39:32.001Z</time></trkpt><trkpt lat="40.86304157915894" lon="9.148481626402804"><ele>963.8</ele><time>2026-04-04T13:39:33.001Z</time></trkpt><trkpt lat="40.863142046504215" lon="9.148477780603516"><ele>963.0</ele><time>2026-04-04T13:39:34.001Z</time></trkpt><trkpt lat="40.8632482574861" lon="9.148492835348192"><ele>963.0</ele><time>2026-04-04T13:39:35Z</time></trkpt><trkpt lat="40.8633434061098" lon="9.14851306377119"><ele>963.0</ele><time>2026-04-04T13:39:36Z</time></trkpt><trkpt lat="40.86343423676411" lon="9.148540817148602"><ele>963.0</ele><time>2026-04-04T13:39:37Z</time></trkpt><trkpt lat="40.863518282213526" lon="9.148579919298232"><ele>963.0</ele><time>2026-04-04T13:39:38Z</time></trkpt><trkpt lat="40.86363203381089" lon="9.148588157680784"><ele>963.0</ele><time>2026-04-04T13:39:39Z</time></trkpt><trkpt lat="40.863743497064895" lon="9.148601938281114"><ele>961.8333333333334</ele><time>2026-04-04T13:39:40Z</time></trkpt><trkpt lat="40.86383331700989" lon="9.148622862472285"><ele>960.6666666666667</ele><time>2026-04-04T13:39:41Z</time></trkpt><trkpt lat="40.86392065057149" lon="9.148656513320997"><ele>959.5</ele><time>2026-04-04T13:39:42Z</time></trkpt><trkpt lat="40.86400722696547" lon="9.148688376335238"><ele>958.3333333333334</ele><time>2026-04-04T13:39:43Z</time></trkpt><trkpt lat="40.86408563781025" lon="9.148727825187636"><ele>957.1666666666667</ele><time>2026-04-04T13:39:44Z</time></trkpt><trkpt lat="40.864166901360925" lon="9.148758833361006"><ele>956.0</ele><time>2026-04-04T13:39:45Z</time></trkpt><trkpt lat="40.86426617679532" lon="9.148800473266249"><ele>954.1999999999999</ele><time>2026-04-04T13:39:46Z</time></trkpt><trkpt lat="40.86434620437475" lon="9.148836954672579"><ele>952.3999999999999</ele><time>2026-04-04T13:39:47Z</time></trkpt><trkpt lat="40.8644335090658" lon="9.148896233968452"><ele>950.6</ele><time>2026-04-04T13:39:48Z</time></trkpt><trkpt lat="40.864501914485224" lon="9.148968839119748"><ele>948.8</ele><time>2026-04-04T13:39:49Z</time></trkpt><trkpt lat="40.864581861861836" lon="9.149067283164626"><ele>947.0</ele><time>2026-04-04T13:39:50Z</time></trkpt><trkpt lat="40.86465791212936" lon="9.149159197313196"><ele>947.0</ele><time>2026-04-04T13:39:51Z</time></trkpt><trkpt lat="40.86475052362381" lon="9.149251857091501"><ele>947.0</ele><time>2026-04-04T13:39:52Z</time></trkpt><trkpt lat="40.86483476462665" lon="9.149317459486419"><ele>947.0</ele><time>2026-04-04T13:39:53Z</time></trkpt><trkpt lat="40.86489954676358" lon="9.149375086926005"><ele>947.0</ele><time>2026-04-04T13:39:54Z</time></trkpt><trkpt lat="40.86496825863424" lon="9.149402421539248"><ele>947.0</ele><time>2026-04-04T13:39:55Z</time></trkpt><trkpt lat="40.86505459939218" lon="9.149359564412807"><ele>947.0000000000001</ele><time>2026-04-04T13:39:57Z</time></trkpt><trkpt lat="40.86505973636648" lon="9.149220647162057"><ele>947.0</ele><time>2026-04-04T13:39:59Z</time></trkpt><trkpt lat="40.86501826435279" lon="9.149141294560495"><ele>947.0</ele><time>2026-04-04T13:40:00Z</time></trkpt><trkpt lat="40.86497401369543" lon="9.149048948418388"><ele>947.0</ele><time>2026-04-04T13:40:01Z</time></trkpt><trkpt lat="40.864945438030084" lon="9.14895359360044"><ele>947.0000000000001</ele><time>2026-04-04T13:40:02Z</time></trkpt><trkpt lat="40.86493761682801" lon="9.148832616112601"><ele>947.0</ele><time>2026-04-04T13:40:03Z</time></trkpt><trkpt lat="40.8649326010112" lon="9.14869144303626"><ele>945.4000000000001</ele><time>2026-04-04T13:40:04Z</time></trkpt><trkpt lat="40.86493007663987" lon="9.148571484879295"><ele>943.8000000000001</ele><time>2026-04-04T13:40:05Z</time></trkpt><trkpt lat="40.864935052458755" lon="9.148426809525276"><ele>942.2</ele><time>2026-04-04T13:40:06Z</time></trkpt><trkpt lat="40.86494900562841" lon="9.148286267624409"><ele>940.6</ele><time>2026-04-04T13:40:07Z</time></trkpt><trkpt lat="40.864957016060956" lon="9.148143727738715"><ele>939.0</ele><time>2026-04-04T13:40:08Z</time></trkpt><trkpt lat="40.86496982293257" lon="9.147998393512875"><ele>937.8000000000001</ele><time>2026-04-04T13:40:09Z</time></trkpt><trkpt lat="40.864975794601754" lon="9.147872271047907"><ele>936.6000000000001</ele><time>2026-04-04T13:40:10Z</time></trkpt><trkpt lat="40.86496590203421" lon="9.147714125164395"><ele>935.4</ele><time>2026-04-04T13:40:11Z</time></trkpt><trkpt lat="40.86497099962362" lon="9.147565077949858"><ele>934.2</ele><time>2026-04-04T13:40:12Z</time></trkpt><trkpt lat="40.864983766268146" lon="9.147424764050784"><ele>933.0</ele><time>2026-04-04T13:40:13Z</time></trkpt><trkpt lat="40.86499147648857" lon="9.147282742467539"><ele>931.2</ele><time>2026-04-04T13:40:14Z</time></trkpt><trkpt lat="40.86500216772571" lon="9.147145034861156"><ele>929.4</ele><time>2026-04-04T13:40:15Z</time></trkpt><trkpt lat="40.86501936555741" lon="9.14701799576887"><ele>927.6000000000001</ele><time>2026-04-04T13:40:16Z</time></trkpt><trkpt lat="40.865040895210335" lon="9.146886754575121"><ele>925.8000000000001</ele><time>2026-04-04T13:40:17Z</time></trkpt><trkpt lat="40.865050672040525" lon="9.146766768875851"><ele>924.0</ele><time>2026-04-04T13:40:18Z</time></trkpt><trkpt lat="40.865060623128684" lon="9.146647476255653"><ele>923.0</ele><time>2026-04-04T13:40:19Z</time></trkpt><trkpt lat="40.86505283132067" lon="9.146514205809149"><ele>922.0000000000001</ele><time>2026-04-04T13:40:20Z</time></trkpt><trkpt lat="40.86503732323037" lon="9.146358988674157"><ele>921.0000000000001</ele><time>2026-04-04T13:40:21Z</time></trkpt><trkpt lat="40.865031113572414" lon="9.146210514644316"><ele>920.0</ele><time>2026-04-04T13:40:22Z</time></trkpt><trkpt lat="40.865034157782894" lon="9.14607431248983"><ele>919.0</ele><time>2026-04-04T13:40:23Z</time></trkpt><trkpt lat="40.86502867735302" lon="9.14596840651057"><ele>918.9999999999999</ele><time>2026-04-04T13:40:24Z</time></trkpt><trkpt lat="40.86502733140185" lon="9.145846878635062"><ele>919.0</ele><time>2026-04-04T13:40:26.001Z</time></trkpt><trkpt lat="40.86512200281372" lon="9.145873694036444"><ele>919.0</ele><time>2026-04-04T13:40:29.001Z</time></trkpt><trkpt lat="40.865172912334295" lon="9.145930253767105"><ele>919.0</ele><time>2026-04-04T13:40:30.001Z</time></trkpt><trkpt lat="40.86523513115977" lon="9.145981692691379"><ele>918.9999999999999</ele><time>2026-04-04T13:40:31.001Z</time></trkpt><trkpt lat="40.86531798848456" lon="9.146051405378264"><ele>919.0</ele><time>2026-04-04T13:40:32.001Z</time></trkpt><trkpt lat="40.86539990237901" lon="9.14613020716259"><ele>918.2</ele><time>2026-04-04T13:40:33.001Z</time></trkpt><trkpt lat="40.86548022187895" lon="9.146205009533654"><ele>917.4000000000001</ele><time>2026-04-04T13:40:34.001Z</time></trkpt><trkpt lat="40.86557393138036" lon="9.146310632506426"><ele>916.6</ele><time>2026-04-04T13:40:35.001Z</time></trkpt><trkpt lat="40.8656603128931" lon="9.146402839099354"><ele>915.8</ele><time>2026-04-04T13:40:36.001Z</time></trkpt><trkpt lat="40.86574421113635" lon="9.146506673229748"><ele>915.0</ele><time>2026-04-04T13:40:37.001Z</time></trkpt><trkpt lat="40.86581295570525" lon="9.146607347820124"><ele>915.0</ele><time>2026-04-04T13:40:38.001Z</time></trkpt><trkpt lat="40.865881794575294" lon="9.146693077653994"><ele>915.0</ele><time>2026-04-04T13:40:39.001Z</time></trkpt><trkpt lat="40.86594013804626" lon="9.146740439958794"><ele>915.0</ele><time>2026-04-04T13:40:40.001Z</time></trkpt><trkpt lat="40.866051846649036" lon="9.146816199279293"><ele>915.0</ele><time>2026-04-04T13:40:42.001Z</time></trkpt><trkpt lat="40.86617638023945" lon="9.146821280869517"><ele>915.0</ele><time>2026-04-04T13:40:44.001Z</time></trkpt><trkpt lat="40.866243603431776" lon="9.146812792774847"><ele>911.2</ele><time>2026-04-04T13:40:45.001Z</time></trkpt><trkpt lat="40.866360164659405" lon="9.146803165072447"><ele>907.4</ele><time>2026-04-04T13:40:47.001Z</time></trkpt><trkpt lat="40.866458437882144" lon="9.14674188611298"><ele>903.5999999999999</ele><time>2026-04-04T13:40:49.001Z</time></trkpt><trkpt lat="40.866549665549385" lon="9.14667162588659"><ele>899.8</ele><time>2026-04-04T13:40:51.001Z</time></trkpt><trkpt lat="40.86661473191991" lon="9.146719678497119"><ele>896.0</ele><time>2026-04-04T13:40:53.001Z</time></trkpt><trkpt lat="40.866619692346724" lon="9.146852035144741"><ele>896.0</ele><time>2026-04-04T13:40:55.001Z</time></trkpt><trkpt lat="40.86659670125614" lon="9.146982237610919"><ele>895.9999999999999</ele><time>2026-04-04T13:40:57.001Z</time></trkpt><trkpt lat="40.866583118158196" lon="9.147173227692864"><ele>895.9999999999999</ele><time>2026-04-04T13:40:59.001Z</time></trkpt><trkpt lat="40.86658929379564" lon="9.147268120122169"><ele>896.0</ele><time>2026-04-04T13:41:00.001Z</time></trkpt><trkpt lat="40.86662426534277" lon="9.147362941731059"><ele>896.0</ele><time>2026-04-04T13:41:01.001Z</time></trkpt><trkpt lat="40.86668489396725" lon="9.14745587711852"><ele>896.0000000000001</ele><time>2026-04-04T13:41:02.001Z</time></trkpt><trkpt lat="40.86674471214482" lon="9.147534206340177"><ele>896.0</ele><time>2026-04-04T13:41:03.001Z</time></trkpt><trkpt lat="40.866803661011154" lon="9.147607071939005"><ele>896.0</ele><time>2026-04-04T13:41:04.001Z</time></trkpt><trkpt lat="40.86687405991368" lon="9.147664487810987"><ele>896.0</ele><time>2026-04-04T13:41:05.001Z</time></trkpt><trkpt lat="40.86694127160557" lon="9.147722420914757"><ele>896.0000000000001</ele><time>2026-04-04T13:41:06.001Z</time></trkpt><trkpt lat="40.86700651657706" lon="9.147785868170082"><ele>896.0</ele><time>2026-04-04T13:41:07.001Z</time></trkpt><trkpt lat="40.86704872186146" lon="9.147850039227897"><ele>891.6666666666667</ele><time>2026-04-04T13:41:08.001Z</time></trkpt><trkpt lat="40.86707437642575" lon="9.147927344796978"><ele>887.3333333333334</ele><time>2026-04-04T13:41:09.001Z</time></trkpt><trkpt lat="40.86715977861018" lon="9.148007050207967"><ele>883.0</ele><time>2026-04-04T13:41:11.001Z</time></trkpt><trkpt lat="40.867232505671744" lon="9.147965510656727"><ele>878.6666666666667</ele><time>2026-04-04T13:41:13.001Z</time></trkpt><trkpt lat="40.86725790972547" lon="9.14787531050103"><ele>874.3333333333334</ele><time>2026-04-04T13:41:14.001Z</time></trkpt><trkpt lat="40.86726959650937" lon="9.147758042523284"><ele>870.0</ele><time>2026-04-04T13:41:15.001Z</time></trkpt><trkpt lat="40.867273238299184" lon="9.147645902484536"><ele>870.0</ele><time>2026-04-04T13:41:16.001Z</time></trkpt><trkpt lat="40.86727105956081" lon="9.147539351099947"><ele>870.0</ele><time>2026-04-04T13:41:17.001Z</time></trkpt><trkpt lat="40.86726255482291" lon="9.147441312421057"><ele>870.0</ele><time>2026-04-04T13:41:18.001Z</time></trkpt><trkpt lat="40.867264860749714" lon="9.147344351785817"><ele>870.0</ele><time>2026-04-04T13:41:19.001Z</time></trkpt><trkpt lat="40.86735172437241" lon="9.14718239965607"><ele>870.0</ele><time>2026-04-04T13:41:21.001Z</time></trkpt><trkpt lat="40.867428586814036" lon="9.14707478755599"><ele>869.8333333333334</ele><time>2026-04-04T13:41:22.001Z</time></trkpt><trkpt lat="40.86749350138872" lon="9.146966426466836"><ele>869.6666666666667</ele><time>2026-04-04T13:41:23.001Z</time></trkpt><trkpt lat="40.86755498245204" lon="9.146875591427747"><ele>869.5</ele><time>2026-04-04T13:41:24.001Z</time></trkpt><trkpt lat="40.86760827341898" lon="9.146792472580776"><ele>869.3333333333334</ele><time>2026-04-04T13:41:25.001Z</time></trkpt><trkpt lat="40.86766029617397" lon="9.146707744189543"><ele>869.1666666666667</ele><time>2026-04-04T13:41:26.001Z</time></trkpt><trkpt lat="40.8677224240851" lon="9.146631225697183"><ele>869.0</ele><time>2026-04-04T13:41:27.001Z</time></trkpt><trkpt lat="40.8677752719447" lon="9.146556184679111"><ele>865.8333333333334</ele><time>2026-04-04T13:41:28.001Z</time></trkpt><trkpt lat="40.86780515185964" lon="9.146458831155964"><ele>862.6666666666667</ele><time>2026-04-04T13:41:29.001Z</time></trkpt><trkpt lat="40.86780350852518" lon="9.146351636998835"><ele>859.5</ele><time>2026-04-04T13:41:30.001Z</time></trkpt><trkpt lat="40.86777695985232" lon="9.14621623813231"><ele>856.3333333333333</ele><time>2026-04-04T13:41:31.001Z</time></trkpt><trkpt lat="40.86775950676554" lon="9.146094598072173"><ele>853.1666666666666</ele><time>2026-04-04T13:41:32.001Z</time></trkpt><trkpt lat="40.867767668052146" lon="9.14600571076677"><ele>850.0</ele><time>2026-04-04T13:41:33.001Z</time></trkpt><trkpt lat="40.867805020476126" lon="9.145937098069735"><ele>849.9999999999999</ele><time>2026-04-04T13:41:34.001Z</time></trkpt><trkpt lat="40.867865498296254" lon="9.145892804682772"><ele>850.0</ele><time>2026-04-04T13:41:35.001Z</time></trkpt><trkpt lat="40.867941735591124" lon="9.14588115318728"><ele>850.0</ele><time>2026-04-04T13:41:36.001Z</time></trkpt><trkpt lat="40.868019436422145" lon="9.145888285104173"><ele>850.0</ele><time>2026-04-04T13:41:37.001Z</time></trkpt><trkpt lat="40.868103535006355" lon="9.145935985852518"><ele>849.9999999999999</ele><time>2026-04-04T13:41:38.001Z</time></trkpt><trkpt lat="40.8681786132185" lon="9.145969833743116"><ele>850.0</ele><time>2026-04-04T13:41:39.001Z</time></trkpt><trkpt lat="40.868254418584335" lon="9.145976628452138"><ele>850.0</ele><time>2026-04-04T13:41:40.001Z</time></trkpt><trkpt lat="40.86834797791028" lon="9.1459595021545"><ele>850.0</ele><time>2026-04-04T13:41:41Z</time></trkpt><trkpt lat="40.868428017763286" lon="9.145931211839551"><ele>850.0</ele><time>2026-04-04T13:41:42Z</time></trkpt><trkpt lat="40.868525527350094" lon="9.14594204145413"><ele>850.0</ele><time>2026-04-04T13:41:44Z</time></trkpt><trkpt lat="40.868600343073375" lon="9.146059828677766"><ele>850.0</ele><time>2026-04-04T13:41:46Z</time></trkpt><trkpt lat="40.868625931574414" lon="9.146154911602288"><ele>847.0</ele><time>2026-04-04T13:41:47Z</time></trkpt><trkpt lat="40.86865828324036" lon="9.146289655819961"><ele>844.0</ele><time>2026-04-04T13:41:48Z</time></trkpt><trkpt lat="40.8686872362244" lon="9.146406421700267"><ele>841.0</ele><time>2026-04-04T13:41:49Z</time></trkpt><trkpt lat="40.86872519481933" lon="9.146476161825383"><ele>838.0</ele><time>2026-04-04T13:41:50Z</time></trkpt><trkpt lat="40.86885887274815" lon="9.146516512338938"><ele>835.0</ele><time>2026-04-04T13:41:52Z</time></trkpt><trkpt lat="40.86893858703389" lon="9.146493617687222"><ele>834.9999999999999</ele><time>2026-04-04T13:41:53Z</time></trkpt><trkpt lat="40.8690105104585" lon="9.146434819759232"><ele>835.0</ele><time>2026-04-04T13:41:54Z</time></trkpt><trkpt lat="40.869092942847914" lon="9.146356125143537"><ele>835.0</ele><time>2026-04-04T13:41:55Z</time></trkpt><trkpt lat="40.869174697758396" lon="9.146306476414532"><ele>835.0</ele><time>2026-04-04T13:41:56Z</time></trkpt><trkpt lat="40.86925775454038" lon="9.146300431575645"><ele>834.9999999999999</ele><time>2026-04-04T13:41:57Z</time></trkpt><trkpt lat="40.86933633716126" lon="9.146306290775613"><ele>835.0</ele><time>2026-04-04T13:41:58Z</time></trkpt><trkpt lat="40.869422196209605" lon="9.146258263710793"><ele>831.5</ele><time>2026-04-04T13:41:59Z</time></trkpt><trkpt lat="40.86952494912736" lon="9.146164043400386"><ele>828.0</ele><time>2026-04-04T13:42:00Z</time></trkpt><trkpt lat="40.869628170863784" lon="9.146075864370825"><ele>824.5</ele><time>2026-04-04T13:42:01Z</time></trkpt><trkpt lat="40.86971578914623" lon="9.145995092698326"><ele>821.0</ele><time>2026-04-04T13:42:02Z</time></trkpt><trkpt lat="40.869798693743554" lon="9.145926624084236"><ele>821.0000000000001</ele><time>2026-04-04T13:42:03Z</time></trkpt><trkpt lat="40.869863041861755" lon="9.145867452359326"><ele>821.0</ele><time>2026-04-04T13:42:04Z</time></trkpt><trkpt lat="40.8699348926646" lon="9.145804612590489"><ele>821.0</ele><time>2026-04-04T13:42:05Z</time></trkpt><trkpt lat="40.86999251084242" lon="9.145760490897233"><ele>821.0</ele><time>2026-04-04T13:42:06Z</time></trkpt><trkpt lat="40.87007243173335" lon="9.145769926416786"><ele>821.0000000000001</ele><time>2026-04-04T13:42:08Z</time></trkpt><trkpt lat="40.87012593001016" lon="9.14586344993376"><ele>821.0</ele><time>2026-04-04T13:42:10Z</time></trkpt><trkpt lat="40.87018588081569" lon="9.146004085911304"><ele>817.4</ele><time>2026-04-04T13:42:12Z</time></trkpt><trkpt lat="40.87028407773319" lon="9.14601997334156"><ele>813.8</ele><time>2026-04-04T13:42:14Z</time></trkpt><trkpt lat="40.870377752754834" lon="9.14597165153614"><ele>810.1999999999999</ele><time>2026-04-04T13:42:16Z</time></trkpt><trkpt lat="40.87040687887375" lon="9.145882935978063"><ele>806.5999999999999</ele><time>2026-04-04T13:42:18Z</time></trkpt><trkpt lat="40.87041858520673" lon="9.145743925659897"><ele>803.0</ele><time>2026-04-04T13:42:20Z</time></trkpt><trkpt lat="40.87043011148366" lon="9.14562879763724"><ele>803.0</ele><time>2026-04-04T13:42:22Z</time></trkpt><trkpt lat="40.87050817125598" lon="9.145558951914378"><ele>803.0</ele><time>2026-04-04T13:42:24Z</time></trkpt><trkpt lat="40.87059907095911" lon="9.145632982471433"><ele>803.0</ele><time>2026-04-04T13:42:26Z</time></trkpt><trkpt lat="40.870657734623734" lon="9.145694563071558"><ele>803.0</ele><time>2026-04-04T13:42:27Z</time></trkpt><trkpt lat="40.87072641672252" lon="9.145737528934534"><ele>803.0</ele><time>2026-04-04T13:42:28Z</time></trkpt><trkpt lat="40.870829562146" lon="9.145698563007398"><ele>800.6666666666667</ele><time>2026-04-04T13:42:30Z</time></trkpt><trkpt lat="40.8708348904054" lon="9.14553660966298"><ele>798.3333333333334</ele><time>2026-04-04T13:42:32.001Z</time></trkpt><trkpt lat="40.87079609160067" lon="9.145458341160769"><ele>796.0</ele><time>2026-04-04T13:42:33.001Z</time></trkpt><trkpt lat="40.87074813560317" lon="9.145390789406118"><ele>793.6666666666667</ele><time>2026-04-04T13:42:34.001Z</time></trkpt><trkpt lat="40.8707508311865" lon="9.145286284686483"><ele>791.3333333333334</ele><time>2026-04-04T13:42:36.001Z</time></trkpt><trkpt lat="40.870850843580804" lon="9.145256032033517"><ele>789.0</ele><time>2026-04-04T13:42:38.001Z</time></trkpt><trkpt lat="40.8709180836125" lon="9.145275139458452"><ele>786.6666666666666</ele><time>2026-04-04T13:42:39.001Z</time></trkpt><trkpt lat="40.87099397520091" lon="9.145313585016513"><ele>784.3333333333333</ele><time>2026-04-04T13:42:40.001Z</time></trkpt><trkpt lat="40.87107439180259" lon="9.14535472246831"><ele>782.0</ele><time>2026-04-04T13:42:41.001Z</time></trkpt><trkpt lat="40.87115637053503" lon="9.14538859409903"><ele>779.6666666666666</ele><time>2026-04-04T13:42:42.001Z</time></trkpt><trkpt lat="40.87123382067581" lon="9.145416460588716"><ele>777.3333333333333</ele><time>2026-04-04T13:42:43.001Z</time></trkpt><trkpt lat="40.87130526359624" lon="9.145441653295181"><ele>775.0</ele><time>2026-04-04T13:42:44.001Z</time></trkpt><trkpt lat="40.871376342186714" lon="9.14547347333868"><ele>774.9999999999999</ele><time>2026-04-04T13:42:45.001Z</time></trkpt><trkpt lat="40.87144542930401" lon="9.14550560965289"><ele>775.0</ele><time>2026-04-04T13:42:46.001Z</time></trkpt><trkpt lat="40.87151520233185" lon="9.145538811840886"><ele>775.0</ele><time>2026-04-04T13:42:47.001Z</time></trkpt><trkpt lat="40.87158947842341" lon="9.145558479106947"><ele>775.0</ele><time>2026-04-04T13:42:48.001Z</time></trkpt><trkpt lat="40.87165595359777" lon="9.145573193393343"><ele>774.9999999999999</ele><time>2026-04-04T13:42:49.001Z</time></trkpt><trkpt lat="40.871731969227056" lon="9.145595025596483"><ele>775.0</ele><time>2026-04-04T13:42:50.001Z</time></trkpt><trkpt lat="40.871811503991886" lon="9.145622352409307"><ele>775.8333333333333</ele><time>2026-04-04T13:42:51.001Z</time></trkpt><trkpt lat="40.87189481799989" lon="9.145650598030292"><ele>776.6666666666666</ele><time>2026-04-04T13:42:52.001Z</time></trkpt><trkpt lat="40.87197909497212" lon="9.14567239957849"><ele>777.5</ele><time>2026-04-04T13:42:53.001Z</time></trkpt><trkpt lat="40.8720649960648" lon="9.145692018372033"><ele>778.3333333333333</ele><time>2026-04-04T13:42:54.001Z</time></trkpt><trkpt lat="40.87214312028772" lon="9.145702635112574"><ele>779.1666666666666</ele><time>2026-04-04T13:42:55.001Z</time></trkpt><trkpt lat="40.87222017587328" lon="9.145714446240751"><ele>780.0</ele><time>2026-04-04T13:42:56.001Z</time></trkpt><trkpt lat="40.87230752140453" lon="9.14570407119365"><ele>776.2</ele><time>2026-04-04T13:42:57.001Z</time></trkpt><trkpt lat="40.872404884956495" lon="9.145691220792653"><ele>772.4</ele><time>2026-04-04T13:42:58.001Z</time></trkpt><trkpt lat="40.87249726693606" lon="9.145694621803262"><ele>768.5999999999999</ele><time>2026-04-04T13:42:59.001Z</time></trkpt><trkpt lat="40.87259793199584" lon="9.14569999775081"><ele>764.8</ele><time>2026-04-04T13:43:00.001Z</time></trkpt><trkpt lat="40.872721007757974" lon="9.145697643084585"><ele>761.0</ele><time>2026-04-04T13:43:01.001Z</time></trkpt><trkpt lat="40.872834887636614" lon="9.145683417560244"><ele>761.6666666666666</ele><time>2026-04-04T13:43:02.001Z</time></trkpt><trkpt lat="40.8729300022053" lon="9.145679225463748"><ele>762.3333333333333</ele><time>2026-04-04T13:43:03.001Z</time></trkpt><trkpt lat="40.87299293320999" lon="9.145671755891271"><ele>763.0</ele><time>2026-04-04T13:43:04.001Z</time></trkpt><trkpt lat="40.87308329309396" lon="9.145723197951588"><ele>763.6666666666666</ele><time>2026-04-04T13:43:06.001Z</time></trkpt><trkpt lat="40.873143109636935" lon="9.145791340355593"><ele>764.3333333333334</ele><time>2026-04-04T13:43:07.001Z</time></trkpt><trkpt lat="40.873195672816266" lon="9.145852385458486"><ele>765.0</ele><time>2026-04-04T13:43:08.001Z</time></trkpt><trkpt lat="40.873224972451894" lon="9.14592962160495"><ele>765.0</ele><time>2026-04-04T13:43:09.001Z</time></trkpt><trkpt lat="40.873226457752" lon="9.146020007486673"><ele>765.0</ele><time>2026-04-04T13:43:10.001Z</time></trkpt><trkpt lat="40.87320857429412" lon="9.146140332441453"><ele>765.0</ele><time>2026-04-04T13:43:11.001Z</time></trkpt><trkpt lat="40.87319620205181" lon="9.14628007541888"><ele>765.0</ele><time>2026-04-04T13:43:12.001Z</time></trkpt><trkpt lat="40.87319812592984" lon="9.146439947934379"><ele>765.0</ele><time>2026-04-04T13:43:13.001Z</time></trkpt><trkpt lat="40.873198090791945" lon="9.146575636309803"><ele>763.2</ele><time>2026-04-04T13:43:14.001Z</time></trkpt><trkpt lat="40.87321497379072" lon="9.146690538654022"><ele>761.4</ele><time>2026-04-04T13:43:15.001Z</time></trkpt><trkpt lat="40.87322727987975" lon="9.146786222301138"><ele>759.5999999999999</ele><time>2026-04-04T13:43:16.001Z</time></trkpt><trkpt lat="40.8733014781279" lon="9.146936813984125"><ele>757.8</ele><time>2026-04-04T13:43:18.001Z</time></trkpt><trkpt lat="40.87337015869878" lon="9.147017406006196"><ele>756.0</ele><time>2026-04-04T13:43:19.001Z</time></trkpt><trkpt lat="40.873470133297786" lon="9.147110399893553"><ele>756.0</ele><time>2026-04-04T13:43:20.001Z</time></trkpt><trkpt lat="40.873562542944256" lon="9.147207357373988"><ele>756.0</ele><time>2026-04-04T13:43:21.001Z</time></trkpt><trkpt lat="40.87362726240061" lon="9.147289473099532"><ele>756.0</ele><time>2026-04-04T13:43:22.001Z</time></trkpt><trkpt lat="40.87369009108438" lon="9.147369233832817"><ele>756.0</ele><time>2026-04-04T13:43:23.001Z</time></trkpt><trkpt lat="40.8737506495283" lon="9.147424575453691"><ele>756.0</ele><time>2026-04-04T13:43:24.001Z</time></trkpt><trkpt lat="40.87382284513288" lon="9.14744518258333"><ele>756.0</ele><time>2026-04-04T13:43:25.001Z</time></trkpt><trkpt lat="40.87390177366613" lon="9.147452735494193"><ele>759.0</ele><time>2026-04-04T13:43:26.001Z</time></trkpt><trkpt lat="40.873977873599756" lon="9.147488433276918"><ele>762.0</ele><time>2026-04-04T13:43:27.001Z</time></trkpt><trkpt lat="40.874045505072814" lon="9.1475513051024"><ele>765.0</ele><time>2026-04-04T13:43:28.001Z</time></trkpt><trkpt lat="40.87410100453062" lon="9.147646083015776"><ele>768.0</ele><time>2026-04-04T13:43:29.001Z</time></trkpt><trkpt lat="40.87416146740939" lon="9.147776382546088"><ele>771.0</ele><time>2026-04-04T13:43:30.001Z</time></trkpt><trkpt lat="40.87423486909656" lon="9.147915625761383"><ele>766.5</ele><time>2026-04-04T13:43:31.001Z</time></trkpt><trkpt lat="40.87431258456197" lon="9.148045558783169"><ele>762.0</ele><time>2026-04-04T13:43:32.001Z</time></trkpt><trkpt lat="40.87441125091601" lon="9.148166514163815"><ele>757.5</ele><time>2026-04-04T13:43:33.001Z</time></trkpt><trkpt lat="40.874506574677575" lon="9.148297160971989"><ele>753.0</ele><time>2026-04-04T13:43:34.001Z</time></trkpt><trkpt lat="40.87456113605041" lon="9.148461218193289"><ele>753.0</ele><time>2026-04-04T13:43:35.001Z</time></trkpt><trkpt lat="40.87460213072155" lon="9.148550379888345"><ele>753.0</ele><time>2026-04-04T13:43:36.001Z</time></trkpt><trkpt lat="40.87467012004573" lon="9.148623147384956"><ele>753.0</ele><time>2026-04-04T13:43:37.001Z</time></trkpt><trkpt lat="40.87473933888413" lon="9.148691033184171"><ele>753.0</ele><time>2026-04-04T13:43:38.001Z</time></trkpt><trkpt lat="40.87479225599012" lon="9.148764872358912"><ele>753.0</ele><time>2026-04-04T13:43:39.001Z</time></trkpt><trkpt lat="40.874838432455874" lon="9.148847387076579"><ele>753.0</ele><time>2026-04-04T13:43:40.001Z</time></trkpt><trkpt lat="40.87486110031726" lon="9.148955640752634"><ele>754.2</ele><time>2026-04-04T13:43:41.001Z</time></trkpt><trkpt lat="40.87487961777438" lon="9.149084145521936"><ele>755.4</ele><time>2026-04-04T13:43:42.001Z</time></trkpt><trkpt lat="40.8749088941374" lon="9.149206417389754"><ele>756.6</ele><time>2026-04-04T13:43:43.001Z</time></trkpt><trkpt lat="40.874945012979765" lon="9.149317157998025"><ele>757.8000000000001</ele><time>2026-04-04T13:43:44.001Z</time></trkpt><trkpt lat="40.8749838705615" lon="9.149418495679631"><ele>759.0</ele><time>2026-04-04T13:43:45.001Z</time></trkpt><trkpt lat="40.87504602004097" lon="9.14952368287838"><ele>759.0</ele><time>2026-04-04T13:43:46.001Z</time></trkpt><trkpt lat="40.87509291647775" lon="9.14960498188521"><ele>759.0</ele><time>2026-04-04T13:43:47Z</time></trkpt><trkpt lat="40.87514738244065" lon="9.14972572038426"><ele>759.0</ele><time>2026-04-04T13:43:48Z</time></trkpt><trkpt lat="40.875183355369145" lon="9.149862411147698"><ele>759.0</ele><time>2026-04-04T13:43:49Z</time></trkpt><trkpt lat="40.87523051088638" lon="9.14997943300166"><ele>759.0</ele><time>2026-04-04T13:43:50Z</time></trkpt><trkpt lat="40.875287337509725" lon="9.15008949372587"><ele>753.5</ele><time>2026-04-04T13:43:51Z</time></trkpt><trkpt lat="40.87534583921743" lon="9.150195532106803"><ele>748.0</ele><time>2026-04-04T13:43:52Z</time></trkpt><trkpt lat="40.87538906690148" lon="9.150287618170829"><ele>742.5</ele><time>2026-04-04T13:43:53Z</time></trkpt><trkpt lat="40.87545438384349" lon="9.150366020896564"><ele>737.0</ele><time>2026-04-04T13:43:54Z</time></trkpt><trkpt lat="40.875522498797245" lon="9.150425000846127"><ele>731.5</ele><time>2026-04-04T13:43:55Z</time></trkpt><trkpt lat="40.87558319702099" lon="9.150493006625931"><ele>726.0</ele><time>2026-04-04T13:43:56Z</time></trkpt><trkpt lat="40.87563513887203" lon="9.150581865817307"><ele>726.0</ele><time>2026-04-04T13:43:57Z</time></trkpt><trkpt lat="40.87566181002944" lon="9.150692673469713"><ele>726.0</ele><time>2026-04-04T13:43:58Z</time></trkpt><trkpt lat="40.87566526629182" lon="9.150795298365871"><ele>726.0</ele><time>2026-04-04T13:43:59Z</time></trkpt><trkpt lat="40.875654859791155" lon="9.150918944137636"><ele>726.0</ele><time>2026-04-04T13:44:00Z</time></trkpt><trkpt lat="40.875642294901866" lon="9.151066922479254"><ele>726.0</ele><time>2026-04-04T13:44:01Z</time></trkpt><trkpt lat="40.87561943083922" lon="9.151214891644265"><ele>725.6666666666666</ele><time>2026-04-04T13:44:02Z</time></trkpt><trkpt lat="40.87560737097422" lon="9.15134497617598"><ele>725.3333333333334</ele><time>2026-04-04T13:44:03Z</time></trkpt><trkpt lat="40.875604013000654" lon="9.151470594918425"><ele>725.0</ele><time>2026-04-04T13:44:04Z</time></trkpt><trkpt lat="40.875606437205356" lon="9.151577998700692"><ele>724.6666666666667</ele><time>2026-04-04T13:44:05Z</time></trkpt><trkpt lat="40.87562192365871" lon="9.151672331548486"><ele>724.3333333333334</ele><time>2026-04-04T13:44:06Z</time></trkpt><trkpt lat="40.87565545420584" lon="9.151781236318538"><ele>724.0</ele><time>2026-04-04T13:44:07Z</time></trkpt><trkpt lat="40.8757155589268" lon="9.151889207721162"><ele>722.8000000000001</ele><time>2026-04-04T13:44:08Z</time></trkpt><trkpt lat="40.875765765592696" lon="9.15199088382534"><ele>721.6</ele><time>2026-04-04T13:44:09Z</time></trkpt><trkpt lat="40.87580567641437" lon="9.152085872397022"><ele>720.4</ele><time>2026-04-04T13:44:10Z</time></trkpt><trkpt lat="40.87587182785077" lon="9.152201156881874"><ele>719.2</ele><time>2026-04-04T13:44:11Z</time></trkpt><trkpt lat="40.87593044417812" lon="9.152303311748824"><ele>718.0</ele><time>2026-04-04T13:44:12Z</time></trkpt><trkpt lat="40.875974136382176" lon="9.15239717526113"><ele>710.8333333333334</ele><time>2026-04-04T13:44:13Z</time></trkpt><trkpt lat="40.87600471279146" lon="9.152486683769089"><ele>703.6666666666667</ele><time>2026-04-04T13:44:14Z</time></trkpt><trkpt lat="40.87601414597207" lon="9.15258176759462"><ele>696.5</ele><time>2026-04-04T13:44:15Z</time></trkpt><trkpt lat="40.876011001408344" lon="9.152699679477198"><ele>689.3333333333334</ele><time>2026-04-04T13:44:16Z</time></trkpt><trkpt lat="40.87601631658283" lon="9.152821974543562"><ele>682.1666666666666</ele><time>2026-04-04T13:44:17Z</time></trkpt><trkpt lat="40.87602120748048" lon="9.152928855518072"><ele>675.0</ele><time>2026-04-04T13:44:18Z</time></trkpt><trkpt lat="40.87601950327486" lon="9.153038974095649"><ele>675.0</ele><time>2026-04-04T13:44:19Z</time></trkpt><trkpt lat="40.8760434263751" lon="9.153131531685379"><ele>675.0</ele><time>2026-04-04T13:44:20Z</time></trkpt><trkpt lat="40.87610304369855" lon="9.153229238166867"><ele>675.0</ele><time>2026-04-04T13:44:21Z</time></trkpt><trkpt lat="40.87615493576709" lon="9.153330894119824"><ele>675.0</ele><time>2026-04-04T13:44:22Z</time></trkpt><trkpt lat="40.87618858586976" lon="9.153492062758696"><ele>675.0</ele><time>2026-04-04T13:44:24Z</time></trkpt><trkpt lat="40.87618066889047" lon="9.153605699739458"><ele>676.2</ele><time>2026-04-04T13:44:25Z</time></trkpt><trkpt lat="40.87619932927352" lon="9.153704878978836"><ele>677.4</ele><time>2026-04-04T13:44:26Z</time></trkpt><trkpt lat="40.87625154068099" lon="9.153803208901548"><ele>678.5999999999999</ele><time>2026-04-04T13:44:27Z</time></trkpt><trkpt lat="40.87632258385884" lon="9.153911216595958"><ele>679.8</ele><time>2026-04-04T13:44:28Z</time></trkpt><trkpt lat="40.87637885285691" lon="9.15402741854141"><ele>681.0</ele><time>2026-04-04T13:44:29Z</time></trkpt><trkpt lat="40.8764236697567" lon="9.154141901629044"><ele>683.5999999999999</ele><time>2026-04-04T13:44:30Z</time></trkpt><trkpt lat="40.876466142001505" lon="9.154262836022156"><ele>686.2</ele><time>2026-04-04T13:44:31Z</time></trkpt><trkpt lat="40.876494879071544" lon="9.154395957333094"><ele>688.8</ele><time>2026-04-04T13:44:32Z</time></trkpt><trkpt lat="40.8765011164844" lon="9.154520234475564"><ele>691.4000000000001</ele><time>2026-04-04T13:44:33Z</time></trkpt><trkpt lat="40.87649271387129" lon="9.154644337912407"><ele>694.0</ele><time>2026-04-04T13:44:34Z</time></trkpt><trkpt lat="40.87646911234931" lon="9.15476512187433"><ele>696.8000000000001</ele><time>2026-04-04T13:44:35Z</time></trkpt><trkpt lat="40.876464924255934" lon="9.154872622921813"><ele>699.6</ele><time>2026-04-04T13:44:36Z</time></trkpt><trkpt lat="40.876497596216765" lon="9.154978463308488"><ele>702.4</ele><time>2026-04-04T13:44:37Z</time></trkpt><trkpt lat="40.87655127295534" lon="9.155111409870242"><ele>705.2</ele><time>2026-04-04T13:44:38.001Z</time></trkpt><trkpt lat="40.87657902505604" lon="9.15524333036173"><ele>708.0</ele><time>2026-04-04T13:44:39.001Z</time></trkpt><trkpt lat="40.87661036970708" lon="9.155340157234427"><ele>708.0</ele><time>2026-04-04T13:44:40.001Z</time></trkpt><trkpt lat="40.87667494005724" lon="9.15542999817372"><ele>708.0</ele><time>2026-04-04T13:44:41.001Z</time></trkpt><trkpt lat="40.876740878996316" lon="9.155522690006284"><ele>708.0</ele><time>2026-04-04T13:44:42.001Z</time></trkpt><trkpt lat="40.87680302830628" lon="9.15560877531705"><ele>708.0</ele><time>2026-04-04T13:44:43.001Z</time></trkpt><trkpt lat="40.87686640968203" lon="9.155662551250709"><ele>708.0</ele><time>2026-04-04T13:44:44.001Z</time></trkpt><trkpt lat="40.87693731450148" lon="9.155687502912913"><ele>708.0</ele><time>2026-04-04T13:44:45.001Z</time></trkpt><trkpt lat="40.877012993424216" lon="9.155681682581225"><ele>706.8</ele><time>2026-04-04T13:44:46.001Z</time></trkpt><trkpt lat="40.87709545875563" lon="9.155654925376277"><ele>705.5999999999999</ele><time>2026-04-04T13:44:47.001Z</time></trkpt><trkpt lat="40.87719892163527" lon="9.155644699416133"><ele>704.4000000000001</ele><time>2026-04-04T13:44:48.001Z</time></trkpt><trkpt lat="40.877281123665334" lon="9.155685773792392"><ele>703.2</ele><time>2026-04-04T13:44:49.001Z</time></trkpt><trkpt lat="40.877324417810094" lon="9.15579713934874"><ele>702.0</ele><time>2026-04-04T13:44:50.001Z</time></trkpt><trkpt lat="40.87740145716548" lon="9.155894821352192"><ele>702.0</ele><time>2026-04-04T13:44:51.001Z</time></trkpt><trkpt lat="40.877470986453694" lon="9.155954297704762"><ele>702.0</ele><time>2026-04-04T13:44:52.001Z</time></trkpt><trkpt lat="40.87752907214228" lon="9.15601542311207"><ele>702.0</ele><time>2026-04-04T13:44:53.001Z</time></trkpt><trkpt lat="40.87757013769831" lon="9.156100128153547"><ele>702.0</ele><time>2026-04-04T13:44:54.001Z</time></trkpt><trkpt lat="40.87763410687658" lon="9.15617902233117"><ele>702.0</ele><time>2026-04-04T13:44:55.001Z</time></trkpt><trkpt lat="40.87768196755971" lon="9.156265990213157"><ele>702.0</ele><time>2026-04-04T13:44:56.001Z</time></trkpt><trkpt lat="40.87770663998529" lon="9.156376792806658"><ele>698.0</ele><time>2026-04-04T13:44:57.001Z</time></trkpt><trkpt lat="40.87772996357314" lon="9.156466755722736"><ele>694.0</ele><time>2026-04-04T13:44:58.001Z</time></trkpt><trkpt lat="40.87778182389663" lon="9.156536611280677"><ele>690.0</ele><time>2026-04-04T13:44:59.001Z</time></trkpt><trkpt lat="40.87787509175284" lon="9.156634097702096"><ele>686.0</ele><time>2026-04-04T13:45:01.001Z</time></trkpt><trkpt lat="40.877920695173465" lon="9.156769427874378"><ele>682.0</ele><time>2026-04-04T13:45:03.001Z</time></trkpt><trkpt lat="40.87791426677139" lon="9.156871588202806"><ele>681.4000000000001</ele><time>2026-04-04T13:45:04.001Z</time></trkpt><trkpt lat="40.877899103765365" lon="9.15696103932073"><ele>680.8000000000001</ele><time>2026-04-04T13:45:05.001Z</time></trkpt><trkpt lat="40.87795183215749" lon="9.157044763068907"><ele>680.2</ele><time>2026-04-04T13:45:07.001Z</time></trkpt><trkpt lat="40.878022650859435" lon="9.157017964543313"><ele>679.6</ele><time>2026-04-04T13:45:09.001Z</time></trkpt><trkpt lat="40.87811157168666" lon="9.156972196042155"><ele>679.0</ele><time>2026-04-04T13:45:11.001Z</time></trkpt><trkpt lat="40.87820618871915" lon="9.1571032478563"><ele>679.0</ele><time>2026-04-04T13:45:13.001Z</time></trkpt><trkpt lat="40.87824550589611" lon="9.157198066323176"><ele>679.0</ele><time>2026-04-04T13:45:14.001Z</time></trkpt><trkpt lat="40.87828860204756" lon="9.157293413268652"><ele>679.0</ele><time>2026-04-04T13:45:15.001Z</time></trkpt><trkpt lat="40.878342167366995" lon="9.157375788340074"><ele>679.0</ele><time>2026-04-04T13:45:16.001Z</time></trkpt><trkpt lat="40.878412989533985" lon="9.157448729507067"><ele>679.0</ele><time>2026-04-04T13:45:17.001Z</time></trkpt><trkpt lat="40.87847678924566" lon="9.157480467683008"><ele>679.0</ele><time>2026-04-04T13:45:18.001Z</time></trkpt><trkpt lat="40.87860104196812" lon="9.157416150663613"><ele>675.0</ele><time>2026-04-04T13:45:20.001Z</time></trkpt><trkpt lat="40.878682009867376" lon="9.157350376204443"><ele>671.0</ele><time>2026-04-04T13:45:21.001Z</time></trkpt><trkpt lat="40.878734401374345" lon="9.157291296203812"><ele>667.0</ele><time>2026-04-04T13:45:22.001Z</time></trkpt><trkpt lat="40.878883712853856" lon="9.157246445037316"><ele>663.0</ele><time>2026-04-04T13:45:24.001Z</time></trkpt><trkpt lat="40.87898300516176" lon="9.157188285595256"><ele>659.0</ele><time>2026-04-04T13:45:25.001Z</time></trkpt><trkpt lat="40.879067430849496" lon="9.157135591355004"><ele>659.0</ele><time>2026-04-04T13:45:26.001Z</time></trkpt><trkpt lat="40.87917139755426" lon="9.15712801786"><ele>659.0</ele><time>2026-04-04T13:45:27.001Z</time></trkpt><trkpt lat="40.87933590879062" lon="9.157133766052727"><ele>659.0</ele><time>2026-04-04T13:45:28.001Z</time></trkpt><trkpt lat="40.87945995599267" lon="9.157130503561007"><ele>659.0</ele><time>2026-04-04T13:45:29.001Z</time></trkpt><trkpt lat="40.87954321309838" lon="9.157105947596504"><ele>658.8333333333333</ele><time>2026-04-04T13:45:30.001Z</time></trkpt><trkpt lat="40.879631965895356" lon="9.157086797149042"><ele>658.6666666666666</ele><time>2026-04-04T13:45:31.001Z</time></trkpt><trkpt lat="40.87973356675583" lon="9.157068368550869"><ele>658.5</ele><time>2026-04-04T13:45:32.001Z</time></trkpt><trkpt lat="40.879822273377286" lon="9.157044163097623"><ele>658.3333333333334</ele><time>2026-04-04T13:45:33.001Z</time></trkpt><trkpt lat="40.879900398087955" lon="9.15703277668925"><ele>658.1666666666667</ele><time>2026-04-04T13:45:34.001Z</time></trkpt><trkpt lat="40.87997248108983" lon="9.157036736545383"><ele>658.0</ele><time>2026-04-04T13:45:35.001Z</time></trkpt><trkpt lat="40.88005198604581" lon="9.15706442662525"><ele>658.5999999999999</ele><time>2026-04-04T13:45:36.001Z</time></trkpt><trkpt lat="40.88013182939958" lon="9.157079938211593"><ele>659.1999999999999</ele><time>2026-04-04T13:45:37.001Z</time></trkpt><trkpt lat="40.88023641537464" lon="9.157048414458956"><ele>659.8</ele><time>2026-04-04T13:45:38.001Z</time></trkpt><trkpt lat="40.88034380520914" lon="9.156974940244709"><ele>660.4</ele><time>2026-04-04T13:45:39.001Z</time></trkpt><trkpt lat="40.880433236126194" lon="9.156885424877602"><ele>661.0</ele><time>2026-04-04T13:45:40.001Z</time></trkpt><trkpt lat="40.880516942508635" lon="9.15678083933126"><ele>661.0</ele><time>2026-04-04T13:45:41.001Z</time></trkpt><trkpt lat="40.880606419403385" lon="9.156657009653841"><ele>661.0</ele><time>2026-04-04T13:45:42.001Z</time></trkpt><trkpt lat="40.88068932992204" lon="9.15654393901252"><ele>661.0</ele><time>2026-04-04T13:45:43.001Z</time></trkpt><trkpt lat="40.88074548603192" lon="9.156431269686866"><ele>661.0</ele><time>2026-04-04T13:45:44.001Z</time></trkpt><trkpt lat="40.88078198773873" lon="9.156352361527492"><ele>661.0</ele><time>2026-04-04T13:45:45.001Z</time></trkpt><trkpt lat="40.880878418851886" lon="9.15628160895586"><ele>659.5999999999999</ele><time>2026-04-04T13:45:47.001Z</time></trkpt><trkpt lat="40.88096446734665" lon="9.156260358807835"><ele>658.2</ele><time>2026-04-04T13:45:48.001Z</time></trkpt><trkpt lat="40.88106866990295" lon="9.15622029598207"><ele>656.8</ele><time>2026-04-04T13:45:49.001Z</time></trkpt><trkpt lat="40.88117387452152" lon="9.156188156130405"><ele>655.4000000000001</ele><time>2026-04-04T13:45:50.001Z</time></trkpt><trkpt lat="40.88127516192613" lon="9.15613156640354"><ele>654.0</ele><time>2026-04-04T13:45:51.001Z</time></trkpt><trkpt lat="40.88136323197706" lon="9.15606656643305"><ele>654.0</ele><time>2026-04-04T13:45:52.001Z</time></trkpt><trkpt lat="40.88143821027842" lon="9.156013534478989"><ele>654.0</ele><time>2026-04-04T13:45:53Z</time></trkpt><trkpt lat="40.88150984807552" lon="9.156006963022977"><ele>654.0</ele><time>2026-04-04T13:45:54Z</time></trkpt><trkpt lat="40.88158917934537" lon="9.156015556204109"><ele>654.0</ele><time>2026-04-04T13:45:55Z</time></trkpt><trkpt lat="40.881664208684384" lon="9.156036693115615"><ele>654.0</ele><time>2026-04-04T13:45:56Z</time></trkpt><trkpt lat="40.881766865751615" lon="9.156023618357956"><ele>654.0</ele><time>2026-04-04T13:45:58Z</time></trkpt><trkpt lat="40.88180745847279" lon="9.15595682769693"><ele>654.0</ele><time>2026-04-04T13:46:00Z</time></trkpt><trkpt lat="40.88177344947575" lon="9.155864737800266"><ele>654.0</ele><time>2026-04-04T13:46:02Z</time></trkpt><trkpt lat="40.88171225173059" lon="9.155793323086337"><ele>654.0</ele><time>2026-04-04T13:46:03Z</time></trkpt><trkpt lat="40.881643558297604" lon="9.155690463533013"><ele>654.0</ele><time>2026-04-04T13:46:04Z</time></trkpt><trkpt lat="40.88153039952253" lon="9.155532663740765"><ele>654.0</ele><time>2026-04-04T13:46:05Z</time></trkpt><trkpt lat="40.88143028822572" lon="9.155370218310159"><ele>652.0</ele><time>2026-04-04T13:46:06Z</time></trkpt><trkpt lat="40.88134200988611" lon="9.155239084177454"><ele>650.0</ele><time>2026-04-04T13:46:07Z</time></trkpt><trkpt lat="40.88126790961931" lon="9.155125065666367"><ele>648.0</ele><time>2026-04-04T13:46:08Z</time></trkpt><trkpt lat="40.881199704747054" lon="9.155031550921448"><ele>646.0</ele><time>2026-04-04T13:46:09Z</time></trkpt><trkpt lat="40.881130978264125" lon="9.154950269025822"><ele>644.0</ele><time>2026-04-04T13:46:10Z</time></trkpt><trkpt lat="40.881055453719675" lon="9.154870997126869"><ele>641.0</ele><time>2026-04-04T13:46:11Z</time></trkpt><trkpt lat="40.88098482155324" lon="9.15479186004708"><ele>638.0</ele><time>2026-04-04T13:46:12Z</time></trkpt><trkpt lat="40.88090090600132" lon="9.154717990350374"><ele>635.0</ele><time>2026-04-04T13:46:13Z</time></trkpt><trkpt lat="40.88084057392851" lon="9.154631564788614"><ele>632.0</ele><time>2026-04-04T13:46:14Z</time></trkpt><trkpt lat="40.8807728200627" lon="9.15451963578615"><ele>629.0</ele><time>2026-04-04T13:46:15Z</time></trkpt><trkpt lat="40.880732172109326" lon="9.154423296122223"><ele>629.0</ele><time>2026-04-04T13:46:16Z</time></trkpt><trkpt lat="40.88069070757303" lon="9.154344112533346"><ele>629.0</ele><time>2026-04-04T13:46:17Z</time></trkpt><trkpt lat="40.88064757285711" lon="9.154192022419737"><ele>629.0</ele><time>2026-04-04T13:46:19Z</time></trkpt><trkpt lat="40.88066664801763" lon="9.154099674578552"><ele>629.0</ele><time>2026-04-04T13:46:20Z</time></trkpt><trkpt lat="40.88069151845276" lon="9.154007106822569"><ele>629.0</ele><time>2026-04-04T13:46:21Z</time></trkpt><trkpt lat="40.880725179431316" lon="9.15391798180979"><ele>629.0</ele><time>2026-04-04T13:46:22Z</time></trkpt><trkpt lat="40.8807405372122" lon="9.153833852962418"><ele>625.2</ele><time>2026-04-04T13:46:23Z</time></trkpt><trkpt lat="40.88069612691726" lon="9.15370655344494"><ele>621.4</ele><time>2026-04-04T13:46:25Z</time></trkpt><trkpt lat="40.88058285273953" lon="9.15370907841799"><ele>617.6</ele><time>2026-04-04T13:46:27Z</time></trkpt><trkpt lat="40.88053775105571" lon="9.153767852026931"><ele>613.8</ele><time>2026-04-04T13:46:28Z</time></trkpt><trkpt lat="40.880496495653546" lon="9.15389079101782"><ele>610.0</ele><time>2026-04-04T13:46:29Z</time></trkpt><trkpt lat="40.880439356766566" lon="9.154037331954827"><ele>613.1666666666667</ele><time>2026-04-04T13:46:30Z</time></trkpt><trkpt lat="40.880385666839814" lon="9.154160406228161"><ele>616.3333333333334</ele><time>2026-04-04T13:46:31Z</time></trkpt><trkpt lat="40.8803542127768" lon="9.154246866920706"><ele>619.5</ele><time>2026-04-04T13:46:32Z</time></trkpt><trkpt lat="40.88031854605779" lon="9.154361062634473"><ele>622.6666666666666</ele><time>2026-04-04T13:46:33Z</time></trkpt><trkpt lat="40.88027039556661" lon="9.154451857839"><ele>625.8333333333333</ele><time>2026-04-04T13:46:34Z</time></trkpt><trkpt lat="40.88021972654796" lon="9.154545273452515"><ele>629.0</ele><time>2026-04-04T13:46:35Z</time></trkpt><trkpt lat="40.88016673936928" lon="9.154657734249355"><ele>626.2</ele><time>2026-04-04T13:46:37Z</time></trkpt><trkpt lat="40.880082792067014" lon="9.15466380501106"><ele>623.4</ele><time>2026-04-04T13:46:38Z</time></trkpt><trkpt lat="40.88000615060575" lon="9.154618932677067"><ele>620.6</ele><time>2026-04-04T13:46:39Z</time></trkpt><trkpt lat="40.879938891766706" lon="9.15453088797915"><ele>617.8</ele><time>2026-04-04T13:46:40Z</time></trkpt><trkpt lat="40.879888972487215" lon="9.154415560119057"><ele>615.0</ele><time>2026-04-04T13:46:41Z</time></trkpt><trkpt lat="40.879859660637074" lon="9.154257339574132"><ele>615.0</ele><time>2026-04-04T13:46:42Z</time></trkpt><trkpt lat="40.87984686507624" lon="9.154119562608065"><ele>615.0</ele><time>2026-04-04T13:46:43.001Z</time></trkpt><trkpt lat="40.879801871481135" lon="9.1540413492521"><ele>615.0</ele><time>2026-04-04T13:46:44.001Z</time></trkpt><trkpt lat="40.87972632498616" lon="9.153986913310659"><ele>615.0</ele><time>2026-04-04T13:46:45.001Z</time></trkpt><trkpt lat="40.879605236934076" lon="9.153924582502603"><ele>615.0</ele><time>2026-04-04T13:46:46.001Z</time></trkpt><trkpt lat="40.87946595573789" lon="9.15385303934705"><ele>614.5</ele><time>2026-04-04T13:46:47.001Z</time></trkpt><trkpt lat="40.87933561837345" lon="9.153784757108555"><ele>614.0</ele><time>2026-04-04T13:46:48.001Z</time></trkpt><trkpt lat="40.87923657382342" lon="9.153705212192616"><ele>613.5</ele><time>2026-04-04T13:46:49.001Z</time></trkpt><trkpt lat="40.87914380821811" lon="9.153625427465894"><ele>613.0</ele><time>2026-04-04T13:46:50.001Z</time></trkpt><trkpt lat="40.87906716159818" lon="9.153498943526632"><ele>611.5</ele><time>2026-04-04T13:46:51.001Z</time></trkpt><trkpt lat="40.878990300716296" lon="9.153356057338426"><ele>610.0</ele><time>2026-04-04T13:46:52.001Z</time></trkpt><trkpt lat="40.87892572790848" lon="9.15323103007064"><ele>608.5</ele><time>2026-04-04T13:46:53.001Z</time></trkpt><trkpt lat="40.87885590969144" lon="9.153112543874206"><ele>607.0</ele><time>2026-04-04T13:46:54.001Z</time></trkpt><trkpt lat="40.878801931527846" lon="9.15299071476251"><ele>604.2</ele><time>2026-04-04T13:46:55.001Z</time></trkpt><trkpt lat="40.87877550071068" lon="9.152849372555773"><ele>601.4000000000001</ele><time>2026-04-04T13:46:56.001Z</time></trkpt><trkpt lat="40.878749991326764" lon="9.152712760482489"><ele>598.5999999999999</ele><time>2026-04-04T13:46:57.001Z</time></trkpt><trkpt lat="40.878722766988375" lon="9.152603897814693"><ele>595.8</ele><time>2026-04-04T13:46:58.001Z</time></trkpt><trkpt lat="40.87861904174783" lon="9.152490051959091"><ele>593.0</ele><time>2026-04-04T13:47:00.001Z</time></trkpt><trkpt lat="40.87852185318524" lon="9.152466944322871"><ele>592.6</ele><time>2026-04-04T13:47:01.001Z</time></trkpt><trkpt lat="40.87842288121395" lon="9.152455168417648"><ele>592.1999999999999</ele><time>2026-04-04T13:47:02.001Z</time></trkpt><trkpt lat="40.87835746331973" lon="9.152415984165566"><ele>591.8</ele><time>2026-04-04T13:47:03.001Z</time></trkpt><trkpt lat="40.878323029410495" lon="9.152281270762867"><ele>591.4</ele><time>2026-04-04T13:47:05.001Z</time></trkpt><trkpt lat="40.878359515456495" lon="9.152189895819975"><ele>591.0</ele><time>2026-04-04T13:47:06.001Z</time></trkpt><trkpt lat="40.87842270833264" lon="9.152078291620548"><ele>588.5</ele><time>2026-04-04T13:47:07.001Z</time></trkpt><trkpt lat="40.87846975029485" lon="9.151928179251437"><ele>586.0</ele><time>2026-04-04T13:47:08.001Z</time></trkpt><trkpt lat="40.87848742228156" lon="9.151741037048323"><ele>583.5</ele><time>2026-04-04T13:47:09.001Z</time></trkpt><trkpt lat="40.878492492426396" lon="9.151547817656992"><ele>581.0</ele><time>2026-04-04T13:47:10.001Z</time></trkpt><trkpt lat="40.87848032403253" lon="9.151364281404865"><ele>581.6</ele><time>2026-04-04T13:47:11.001Z</time></trkpt><trkpt lat="40.878456577159064" lon="9.151192457205644"><ele>582.2</ele><time>2026-04-04T13:47:12.001Z</time></trkpt><trkpt lat="40.878443808090104" lon="9.15103421957981"><ele>582.8</ele><time>2026-04-04T13:47:13.001Z</time></trkpt><trkpt lat="40.87843722724451" lon="9.150896269144695"><ele>583.4</ele><time>2026-04-04T13:47:14.001Z</time></trkpt><trkpt lat="40.87843168693914" lon="9.150776040762011"><ele>584.0</ele><time>2026-04-04T13:47:15.001Z</time></trkpt><trkpt lat="40.8784286688752" lon="9.150667708791834"><ele>584.0</ele><time>2026-04-04T13:47:16.001Z</time></trkpt><trkpt lat="40.87843080876742" lon="9.150581128498954"><ele>584.0</ele><time>2026-04-04T13:47:17.001Z</time></trkpt><trkpt lat="40.878496012546634" lon="9.150460411760497"><ele>584.0</ele><time>2026-04-04T13:47:19.001Z</time></trkpt><trkpt lat="40.878603383310434" lon="9.150480133369618"><ele>584.0</ele><time>2026-04-04T13:47:21.001Z</time></trkpt><trkpt lat="40.87864886649925" lon="9.150645042942923"><ele>584.0</ele><time>2026-04-04T13:47:23.001Z</time></trkpt><trkpt lat="40.87873201486434" lon="9.150716982583173"><ele>577.8</ele><time>2026-04-04T13:47:25.001Z</time></trkpt><trkpt lat="40.87881783094861" lon="9.150605555935327"><ele>571.5999999999999</ele><time>2026-04-04T13:47:27.001Z</time></trkpt><trkpt lat="40.87881545040039" lon="9.15050828369336"><ele>565.4</ele><time>2026-04-04T13:47:28.001Z</time></trkpt><trkpt lat="40.87878165380663" lon="9.150392344378304"><ele>559.1999999999999</ele><time>2026-04-04T13:47:29.001Z</time></trkpt><trkpt lat="40.87873992031167" lon="9.150281594987957"><ele>553.0</ele><time>2026-04-04T13:47:30.001Z</time></trkpt><trkpt lat="40.8787359286236" lon="9.150185060383077"><ele>553.0</ele><time>2026-04-04T13:47:31.001Z</time></trkpt><trkpt lat="40.87881669541283" lon="9.15007955811463"><ele>553.0</ele><time>2026-04-04T13:47:33.001Z</time></trkpt><trkpt lat="40.878888012095054" lon="9.150092606460001"><ele>553.0</ele><time>2026-04-04T13:47:34.001Z</time></trkpt><trkpt lat="40.87897648273675" lon="9.150146979779377"><ele>553.0</ele><time>2026-04-04T13:47:35.001Z</time></trkpt><trkpt lat="40.87905404700977" lon="9.150211919963802"><ele>553.0</ele><time>2026-04-04T13:47:36.001Z</time></trkpt><trkpt lat="40.87910912880672" lon="9.150260769172197"><ele>553.0</ele><time>2026-04-04T13:47:37.001Z</time></trkpt><trkpt lat="40.87919542708507" lon="9.150254143524222"><ele>553.0</ele><time>2026-04-04T13:47:39.001Z</time></trkpt><trkpt lat="40.879241471562246" lon="9.1501748273683"><ele>553.0</ele><time>2026-04-04T13:47:40.001Z</time></trkpt><trkpt lat="40.87928327790489" lon="9.15003905845505"><ele>553.0</ele><time>2026-04-04T13:47:41.001Z</time></trkpt><trkpt lat="40.87930955477061" lon="9.14989410712503"><ele>553.0</ele><time>2026-04-04T13:47:42.001Z</time></trkpt><trkpt lat="40.87933047038439" lon="9.149751525779854"><ele>553.0</ele><time>2026-04-04T13:47:43.001Z</time></trkpt><trkpt lat="40.8793743811123" lon="9.149626893324532"><ele>548.6</ele><time>2026-04-04T13:47:44.001Z</time></trkpt><trkpt lat="40.879452150678404" lon="9.14951318498873"><ele>544.1999999999999</ele><time>2026-04-04T13:47:45.001Z</time></trkpt><trkpt lat="40.879486112474105" lon="9.1493617883578"><ele>539.8</ele><time>2026-04-04T13:47:46.001Z</time></trkpt><trkpt lat="40.87951259555267" lon="9.149205982292154"><ele>535.4</ele><time>2026-04-04T13:47:47.001Z</time></trkpt><trkpt lat="40.8795366694117" lon="9.149087543343551"><ele>531.0</ele><time>2026-04-04T13:47:48.001Z</time></trkpt><trkpt lat="40.8795906412438" lon="9.14896492308437"><ele>531.0</ele><time>2026-04-04T13:47:50.001Z</time></trkpt><trkpt lat="40.87969026038705" lon="9.148910297886797"><ele>531.0</ele><time>2026-04-04T13:47:52.001Z</time></trkpt><trkpt lat="40.87977237909609" lon="9.14891718144774"><ele>531.0</ele><time>2026-04-04T13:47:53.001Z</time></trkpt><trkpt lat="40.87987635109438" lon="9.148931359247868"><ele>531.0</ele><time>2026-04-04T13:47:54.001Z</time></trkpt><trkpt lat="40.87997256340961" lon="9.148949573156921"><ele>531.0</ele><time>2026-04-04T13:47:55.001Z</time></trkpt><trkpt lat="40.880034968407195" lon="9.148992279754541"><ele>528.8333333333334</ele><time>2026-04-04T13:47:56.001Z</time></trkpt><trkpt lat="40.880136691995" lon="9.149040794632462"><ele>526.6666666666666</ele><time>2026-04-04T13:47:58.001Z</time></trkpt><trkpt lat="40.88019168556004" lon="9.148986443591479"><ele>524.5</ele><time>2026-04-04T13:47:59Z</time></trkpt><trkpt lat="40.88021119102931" lon="9.148901806103485"><ele>522.3333333333333</ele><time>2026-04-04T13:48:00Z</time></trkpt><trkpt lat="40.88020354030325" lon="9.148799331202792"><ele>520.1666666666666</ele><time>2026-04-04T13:48:01Z</time></trkpt><trkpt lat="40.88016476841894" lon="9.148700528254063"><ele>518.0</ele><time>2026-04-04T13:48:02Z</time></trkpt><trkpt lat="40.8801037573565" lon="9.148633053704774"><ele>518.0</ele><time>2026-04-04T13:48:03Z</time></trkpt><trkpt lat="40.88003871608286" lon="9.14856582812968"><ele>518.0</ele><time>2026-04-04T13:48:04Z</time></trkpt><trkpt lat="40.880022134184145" lon="9.148479192375227"><ele>518.0</ele><time>2026-04-04T13:48:05Z</time></trkpt><trkpt lat="40.8800571739051" lon="9.148367296054973"><ele>518.0</ele><time>2026-04-04T13:48:06Z</time></trkpt><trkpt lat="40.88011767080939" lon="9.148270390968744"><ele>518.0</ele><time>2026-04-04T13:48:07Z</time></trkpt><trkpt lat="40.8802037270067" lon="9.148170053011912"><ele>516.8</ele><time>2026-04-04T13:48:08Z</time></trkpt><trkpt lat="40.88027541323131" lon="9.148058364799928"><ele>515.5999999999999</ele><time>2026-04-04T13:48:09Z</time></trkpt><trkpt lat="40.8803571646771" lon="9.147970805838094"><ele>514.4000000000001</ele><time>2026-04-04T13:48:10Z</time></trkpt><trkpt lat="40.8804431869614" lon="9.147884824724958"><ele>513.2</ele><time>2026-04-04T13:48:11Z</time></trkpt><trkpt lat="40.88050359496983" lon="9.147748832813582"><ele>512.0</ele><time>2026-04-04T13:48:12Z</time></trkpt><trkpt lat="40.8805486997718" lon="9.147581517607058"><ele>512.0</ele><time>2026-04-04T13:48:13Z</time></trkpt><trkpt lat="40.88057417240255" lon="9.147389832386905"><ele>512.0</ele><time>2026-04-04T13:48:14Z</time></trkpt><trkpt lat="40.88058902507747" lon="9.147220199122286"><ele>512.0</ele><time>2026-04-04T13:48:15Z</time></trkpt><trkpt lat="40.88058518950115" lon="9.147059109113593"><ele>512.0</ele><time>2026-04-04T13:48:16Z</time></trkpt><trkpt lat="40.880574128521644" lon="9.146875686875317"><ele>512.2</ele><time>2026-04-04T13:48:17Z</time></trkpt><trkpt lat="40.880564184498674" lon="9.146702560830759"><ele>512.4000000000001</ele><time>2026-04-04T13:48:18Z</time></trkpt><trkpt lat="40.88055054499545" lon="9.146556435905469"><ele>512.5999999999999</ele><time>2026-04-04T13:48:19Z</time></trkpt><trkpt lat="40.880541745157615" lon="9.146430025084186"><ele>512.8</ele><time>2026-04-04T13:48:20Z</time></trkpt><trkpt lat="40.880543457209654" lon="9.14631668525116"><ele>513.0</ele><time>2026-04-04T13:48:21Z</time></trkpt><trkpt lat="40.88057182913456" lon="9.146194530654531"><ele>513.0</ele><time>2026-04-04T13:48:22Z</time></trkpt><trkpt lat="40.88063585302652" lon="9.146084162865098"><ele>513.0</ele><time>2026-04-04T13:48:23Z</time></trkpt><trkpt lat="40.880742190157335" lon="9.14600558826692"><ele>513.0</ele><time>2026-04-04T13:48:24Z</time></trkpt><trkpt lat="40.880854886693065" lon="9.145931366667117"><ele>513.0</ele><time>2026-04-04T13:48:25Z</time></trkpt><trkpt lat="40.88097025681241" lon="9.145848154393606"><ele>510.59999999999997</ele><time>2026-04-04T13:48:26Z</time></trkpt><trkpt lat="40.88107983332963" lon="9.145744902846566"><ele>508.19999999999993</ele><time>2026-04-04T13:48:27Z</time></trkpt><trkpt lat="40.881163176659655" lon="9.145655334689264"><ele>505.8</ele><time>2026-04-04T13:48:28Z</time></trkpt><trkpt lat="40.88122617189051" lon="9.145572725353293"><ele>503.4</ele><time>2026-04-04T13:48:29Z</time></trkpt><trkpt lat="40.881270797173954" lon="9.145482217936724"><ele>501.0</ele><time>2026-04-04T13:48:30Z</time></trkpt><trkpt lat="40.88129525491903" lon="9.145379065827093"><ele>501.0</ele><time>2026-04-04T13:48:31Z</time></trkpt><trkpt lat="40.88130855079158" lon="9.145264544710018"><ele>501.0</ele><time>2026-04-04T13:48:32Z</time></trkpt><trkpt lat="40.88132054313106" lon="9.145156726455895"><ele>501.0</ele><time>2026-04-04T13:48:33Z</time></trkpt><trkpt lat="40.88134467205531" lon="9.145064208814057"><ele>501.0</ele><time>2026-04-04T13:48:34Z</time></trkpt><trkpt lat="40.88140159213136" lon="9.144992020622066"><ele>501.0</ele><time>2026-04-04T13:48:35Z</time></trkpt><trkpt lat="40.8814649767436" lon="9.144934260434711"><ele>501.0</ele><time>2026-04-04T13:48:36Z</time></trkpt><trkpt lat="40.88153152913592" lon="9.14487537245165"><ele>502.0</ele><time>2026-04-04T13:48:37Z</time></trkpt><trkpt lat="40.88158879718514" lon="9.14482823216092"><ele>503.0</ele><time>2026-04-04T13:48:38Z</time></trkpt><trkpt lat="40.88165490901341" lon="9.144797696859435"><ele>504.0</ele><time>2026-04-04T13:48:39Z</time></trkpt><trkpt lat="40.881728893769456" lon="9.144778534027887"><ele>505.0</ele><time>2026-04-04T13:48:40Z</time></trkpt><trkpt lat="40.881804038929864" lon="9.144772209444103"><ele>506.0</ele><time>2026-04-04T13:48:41Z</time></trkpt><trkpt lat="40.88186674671574" lon="9.144758400149147"><ele>507.0</ele><time>2026-04-04T13:48:42Z</time></trkpt><trkpt lat="40.881928167658685" lon="9.144632007801572"><ele>505.0</ele><time>2026-04-04T13:48:44Z</time></trkpt><trkpt lat="40.881950732232085" lon="9.144543061219856"><ele>503.0</ele><time>2026-04-04T13:48:45Z</time></trkpt><trkpt lat="40.88198453237463" lon="9.14443083379839"><ele>501.0</ele><time>2026-04-04T13:48:46Z</time></trkpt><trkpt lat="40.882025454475155" lon="9.144327567889443"><ele>499.0</ele><time>2026-04-04T13:48:47Z</time></trkpt><trkpt lat="40.88207435497178" lon="9.144246749309637"><ele>497.0</ele><time>2026-04-04T13:48:48Z</time></trkpt><trkpt lat="40.88212326273806" lon="9.14417509627291"><ele>495.0</ele><time>2026-04-04T13:48:49Z</time></trkpt><trkpt lat="40.882173008801814" lon="9.14410991721815"><ele>494.2</ele><time>2026-04-04T13:48:50.001Z</time></trkpt><trkpt lat="40.88222510140008" lon="9.144033840571844"><ele>493.4</ele><time>2026-04-04T13:48:52.001Z</time></trkpt><trkpt lat="40.88227909768476" lon="9.14394906222297"><ele>492.6</ele><time>2026-04-04T14:19:58Z</time></trkpt><trkpt lat="40.88235295855308" lon="9.143834260861272"><ele>491.8</ele><time>2026-04-04T14:19:59Z</time></trkpt><trkpt lat="40.88243136540469" lon="9.143717143256078"><ele>491.0</ele><time>2026-04-04T14:20:00Z</time></trkpt><trkpt lat="40.88251252411841" lon="9.143578199397613"><ele>490.0</ele><time>2026-04-04T14:20:01Z</time></trkpt><trkpt lat="40.882598367607464" lon="9.143447300186747"><ele>489.0</ele><time>2026-04-04T14:20:02Z</time></trkpt><trkpt lat="40.882678162430906" lon="9.14331354453817"><ele>488.0</ele><time>2026-04-04T14:20:03Z</time></trkpt><trkpt lat="40.88276105393981" lon="9.143173893487374"><ele>487.0</ele><time>2026-04-04T14:20:04Z</time></trkpt><trkpt lat="40.88286402626317" lon="9.143020327898455"><ele>486.0</ele><time>2026-04-04T14:20:05.001Z</time></trkpt><trkpt lat="40.88295698582973" lon="9.142860613555056"><ele>485.0</ele><time>2026-04-04T14:20:06.001Z</time></trkpt><trkpt lat="40.883037092403434" lon="9.142721622656012"><ele>484.0</ele><time>2026-04-04T14:20:07.001Z</time></trkpt><trkpt lat="40.883122197253634" lon="9.1425623218067"><ele>483.0</ele><time>2026-04-04T14:20:08.001Z</time></trkpt><trkpt lat="40.883207117507254" lon="9.142434258847336"><ele>482.2</ele><time>2026-04-04T14:20:09.001Z</time></trkpt><trkpt lat="40.883281137611895" lon="9.14230710025175"><ele>481.4</ele><time>2026-04-04T14:20:10.001Z</time></trkpt><trkpt lat="40.883361752078535" lon="9.142185160605754"><ele>480.59999999999997</ele><time>2026-04-04T14:20:11.001Z</time></trkpt><trkpt lat="40.88344855519468" lon="9.142129903407874"><ele>479.79999999999995</ele><time>2026-04-04T14:20:12.001Z</time></trkpt><trkpt lat="40.88352284746051" lon="9.142065425489468"><ele>479.0</ele><time>2026-04-04T14:20:13.001Z</time></trkpt><trkpt lat="40.883600545402956" lon="9.141993253967062"><ele>478.66666666666663</ele><time>2026-04-04T14:20:14.001Z</time></trkpt><trkpt lat="40.88367344200172" lon="9.141923981692608"><ele>478.3333333333333</ele><time>2026-04-04T14:20:15.001Z</time></trkpt><trkpt lat="40.88373010461016" lon="9.141854251283803"><ele>478.0</ele><time>2026-04-04T14:20:16.001Z</time></trkpt><trkpt lat="40.88375386288508" lon="9.141747096261795"><ele>477.66666666666663</ele><time>2026-04-04T14:20:17.001Z</time></trkpt><trkpt lat="40.883789730049465" lon="9.141638908128728"><ele>477.3333333333333</ele><time>2026-04-04T14:20:18.001Z</time></trkpt><trkpt lat="40.88384656624762" lon="9.141536634087986"><ele>477.0</ele><time>2026-04-04T14:20:19.001Z</time></trkpt><trkpt lat="40.88394806738445" lon="9.141502181190926"><ele>477.0</ele><time>2026-04-04T14:20:20.001Z</time></trkpt><trkpt lat="40.88403696859692" lon="9.141450405881649"><ele>477.00000000000006</ele><time>2026-04-04T14:20:21.001Z</time></trkpt><trkpt lat="40.88411073464914" lon="9.141387601987176"><ele>477.00000000000006</ele><time>2026-04-04T14:20:22.001Z</time></trkpt><trkpt lat="40.88418703056224" lon="9.141327770223848"><ele>477.0</ele><time>2026-04-04T14:20:23.001Z</time></trkpt><trkpt lat="40.88428383399871" lon="9.141249143580282"><ele>477.0</ele><time>2026-04-04T14:20:24.001Z</time></trkpt><trkpt lat="40.88436273644201" lon="9.141113684787106"><ele>477.0</ele><time>2026-04-04T14:20:25.001Z</time></trkpt><trkpt lat="40.88445815277911" lon="9.140979766121816"><ele>477.0</ele><time>2026-04-04T14:20:26.001Z</time></trkpt><trkpt lat="40.884564566568216" lon="9.1408387362475"><ele>477.0</ele><time>2026-04-04T14:20:27.001Z</time></trkpt><trkpt lat="40.884678826818984" lon="9.1406913266934"><ele>477.0</ele><time>2026-04-04T14:20:28.001Z</time></trkpt><trkpt lat="40.88478926510136" lon="9.140549525223474"><ele>477.75</ele><time>2026-04-04T14:20:29.001Z</time></trkpt><trkpt lat="40.884890904478056" lon="9.14041548082965"><ele>478.5</ele><time>2026-04-04T14:20:30.001Z</time></trkpt><trkpt lat="40.88497639848637" lon="9.14028424665292"><ele>479.25</ele><time>2026-04-04T14:20:31.001Z</time></trkpt><trkpt lat="40.8850550834579" lon="9.140170279943389"><ele>480.0</ele><time>2026-04-04T14:20:32.001Z</time></trkpt><trkpt lat="40.88510373763625" lon="9.140038529935095"><ele>480.2</ele><time>2026-04-04T14:20:33.001Z</time></trkpt><trkpt lat="40.88515765563613" lon="9.139916207974997"><ele>480.4</ele><time>2026-04-04T14:20:34.001Z</time></trkpt><trkpt lat="40.885206881881956" lon="9.139782202176747"><ele>480.6</ele><time>2026-04-04T14:20:35.001Z</time></trkpt><trkpt lat="40.88525218708078" lon="9.139653705221596"><ele>480.8</ele><time>2026-04-04T14:20:36.001Z</time></trkpt><trkpt lat="40.885301198794885" lon="9.139532032853394"><ele>481.0</ele><time>2026-04-04T14:20:37.001Z</time></trkpt><trkpt lat="40.885348080813785" lon="9.139412416432894"><ele>481.4</ele><time>2026-04-04T14:20:38.001Z</time></trkpt><trkpt lat="40.885389258742535" lon="9.139287538663167"><ele>481.8</ele><time>2026-04-04T14:20:39.001Z</time></trkpt><trkpt lat="40.88543293827152" lon="9.139165957342723"><ele>482.19999999999993</ele><time>2026-04-04T14:20:40.001Z</time></trkpt><trkpt lat="40.885477249499395" lon="9.139043875625577"><ele>482.59999999999997</ele><time>2026-04-04T14:20:41.001Z</time></trkpt><trkpt lat="40.88552172469747" lon="9.138923885610172"><ele>483.0</ele><time>2026-04-04T14:20:42.001Z</time></trkpt><trkpt lat="40.88556125338739" lon="9.138801388883321"><ele>483.2</ele><time>2026-04-04T14:20:43.001Z</time></trkpt><trkpt lat="40.88559176491336" lon="9.1386748961593"><ele>483.4</ele><time>2026-04-04T14:20:44.001Z</time></trkpt><trkpt lat="40.88561713199346" lon="9.138548000583098"><ele>483.59999999999997</ele><time>2026-04-04T14:20:45.001Z</time></trkpt><trkpt lat="40.885641490048556" lon="9.138421952608349"><ele>483.79999999999995</ele><time>2026-04-04T14:20:46.001Z</time></trkpt><trkpt lat="40.88566306783016" lon="9.138299519505413"><ele>484.0</ele><time>2026-04-04T14:20:47.001Z</time></trkpt><trkpt lat="40.885684864926986" lon="9.138181264177318"><ele>485.0</ele><time>2026-04-04T14:20:48.001Z</time></trkpt><trkpt lat="40.8857122075978" lon="9.13806774776186"><ele>486.0</ele><time>2026-04-04T14:20:49.001Z</time></trkpt><trkpt lat="40.88574812123136" lon="9.137958200671832"><ele>487.0</ele><time>2026-04-04T14:20:50.001Z</time></trkpt><trkpt lat="40.88578398906064" lon="9.137848513093667"><ele>488.0</ele><time>2026-04-04T14:20:51.001Z</time></trkpt><trkpt lat="40.88582427918036" lon="9.137735801258732"><ele>489.0</ele><time>2026-04-04T14:20:52.001Z</time></trkpt><trkpt lat="40.88587255415828" lon="9.137624925712364"><ele>489.0</ele><time>2026-04-04T14:20:53.001Z</time></trkpt><trkpt lat="40.88590905152122" lon="9.137508469488333"><ele>489.0</ele><time>2026-04-04T14:20:54.001Z</time></trkpt><trkpt lat="40.88596088516439" lon="9.137400161598979"><ele>489.0</ele><time>2026-04-04T14:20:55.001Z</time></trkpt><trkpt lat="40.886025701757525" lon="9.137305711325716"><ele>489.0</ele><time>2026-04-04T14:20:56.001Z</time></trkpt><trkpt lat="40.88607706040744" lon="9.137197769381046"><ele>489.0</ele><time>2026-04-04T14:20:57.001Z</time></trkpt><trkpt lat="40.88613236612372" lon="9.137081225962854"><ele>490.25</ele><time>2026-04-04T14:20:58.001Z</time></trkpt><trkpt lat="40.88619534640711" lon="9.136962635917175"><ele>491.5</ele><time>2026-04-04T14:20:59.001Z</time></trkpt><trkpt lat="40.88626161351262" lon="9.136847221297748"><ele>492.75</ele><time>2026-04-04T14:21:00.001Z</time></trkpt><trkpt lat="40.88633273005111" lon="9.13672992126647"><ele>494.0</ele><time>2026-04-04T14:21:01.001Z</time></trkpt><trkpt lat="40.88641174862777" lon="9.136609193590015"><ele>495.25</ele><time>2026-04-04T14:21:02.001Z</time></trkpt><trkpt lat="40.88649223988801" lon="9.136487463920256"><ele>496.5</ele><time>2026-04-04T14:21:03.001Z</time></trkpt><trkpt lat="40.88657115590131" lon="9.136362726395207"><ele>497.75</ele><time>2026-04-04T14:21:04.001Z</time></trkpt><trkpt lat="40.88665323316574" lon="9.136242820550448"><ele>499.0</ele><time>2026-04-04T14:21:05.001Z</time></trkpt><trkpt lat="40.88672166494757" lon="9.13614023052427"><ele>499.00000000000006</ele><time>2026-04-04T14:21:06.001Z</time></trkpt><trkpt lat="40.88676669353369" lon="9.136078695507038"><ele>499.0</ele><time>2026-04-04T14:21:08.001Z</time></trkpt><trkpt lat="40.88684556372665" lon="9.135957970829821"><ele>499.0</ele><time>2026-04-04T14:21:11.001Z</time></trkpt><trkpt lat="40.88690102792018" lon="9.13588287135733"><ele>499.0</ele><time>2026-04-04T14:21:12.001Z</time></trkpt><trkpt lat="40.886944163418214" lon="9.135802356548975"><ele>499.00000000000006</ele><time>2026-04-04T14:21:13.001Z</time></trkpt><trkpt lat="40.886988675972006" lon="9.135710019173512"><ele>499.0</ele><time>2026-04-04T14:21:14.001Z</time></trkpt><trkpt lat="40.88703675222164" lon="9.135608928153832"><ele>499.4285714285715</ele><time>2026-04-04T14:21:15.001Z</time></trkpt><trkpt lat="40.887083264603284" lon="9.13550847862415"><ele>499.8571428571429</ele><time>2026-04-04T14:21:16.001Z</time></trkpt><trkpt lat="40.88712835402283" lon="9.135423871909907"><ele>500.2857142857143</ele><time>2026-04-04T14:21:17.001Z</time></trkpt><trkpt lat="40.88717148090866" lon="9.135352858382745"><ele>500.7142857142857</ele><time>2026-04-04T14:21:18.001Z</time></trkpt><trkpt lat="40.887216851665755" lon="9.135280621289741"><ele>501.1428571428571</ele><time>2026-04-04T14:21:19.001Z</time></trkpt><trkpt lat="40.88725798912429" lon="9.135204994476188"><ele>501.5714285714285</ele><time>2026-04-04T14:21:20.001Z</time></trkpt><trkpt lat="40.887290101606744" lon="9.135126564477176"><ele>501.99999999999994</ele><time>2026-04-04T14:21:21.001Z</time></trkpt><trkpt lat="40.88732057556429" lon="9.135039935964782"><ele>501.99999999999994</ele><time>2026-04-04T14:21:22.001Z</time></trkpt><trkpt lat="40.88734979426635" lon="9.134959591710407"><ele>502.0</ele><time>2026-04-04T14:21:23.001Z</time></trkpt><trkpt lat="40.887385763077056" lon="9.134882982439036"><ele>501.99999999999994</ele><time>2026-04-04T14:21:24.001Z</time></trkpt><trkpt lat="40.88741354582683" lon="9.134803010364571"><ele>501.99999999999994</ele><time>2026-04-04T14:21:25.001Z</time></trkpt><trkpt lat="40.887430548953205" lon="9.134710588447865"><ele>502.0</ele><time>2026-04-04T14:21:26.001Z</time></trkpt><trkpt lat="40.88744188392055" lon="9.134613840113584"><ele>501.99999999999994</ele><time>2026-04-04T14:21:27.001Z</time></trkpt><trkpt lat="40.88744636010169" lon="9.134523368680858"><ele>501.99999999999994</ele><time>2026-04-04T14:21:28.001Z</time></trkpt><trkpt lat="40.887456944283" lon="9.134430074504907"><ele>502.0</ele><time>2026-04-04T14:21:29.002Z</time></trkpt><trkpt lat="40.88746801279546" lon="9.134334505257796"><ele>502.00000000000006</ele><time>2026-04-04T14:21:30.002Z</time></trkpt><trkpt lat="40.88749427518813" lon="9.134223519568145"><ele>502.00000000000006</ele><time>2026-04-04T14:21:31.002Z</time></trkpt><trkpt lat="40.88754426880566" lon="9.13409759995899"><ele>502.0</ele><time>2026-04-04T14:21:32.002Z</time></trkpt><trkpt lat="40.88760812469022" lon="9.133963339296672"><ele>502.0</ele><time>2026-04-04T14:21:33.002Z</time></trkpt><trkpt lat="40.88767193101089" lon="9.133822396405956"><ele>502.0</ele><time>2026-04-04T14:21:34Z</time></trkpt><trkpt lat="40.88772582804608" lon="9.133705280176057"><ele>502.00000000000006</ele><time>2026-04-04T14:21:35Z</time></trkpt><trkpt lat="40.887778083350405" lon="9.133592261983939"><ele>502.00000000000006</ele><time>2026-04-04T14:21:36Z</time></trkpt><trkpt lat="40.887833709229106" lon="9.13346002587867"><ele>502.0</ele><time>2026-04-04T14:21:37Z</time></trkpt><trkpt lat="40.8878893927045" lon="9.133309577122988"><ele>502.0</ele><time>2026-04-04T14:21:38Z</time></trkpt><trkpt lat="40.88794575941348" lon="9.13314965235718"><ele>502.5</ele><time>2026-04-04T14:21:39Z</time></trkpt><trkpt lat="40.88800795132082" lon="9.132996505117468"><ele>503.0</ele><time>2026-04-04T14:21:40Z</time></trkpt><trkpt lat="40.888077821984346" lon="9.132845584063642"><ele>503.5</ele><time>2026-04-04T14:21:41Z</time></trkpt><trkpt lat="40.88815297525577" lon="9.13270281110952"><ele>504.0</ele><time>2026-04-04T14:21:42Z</time></trkpt><trkpt lat="40.88822217242379" lon="9.132565263262968"><ele>504.0</ele><time>2026-04-04T14:21:43Z</time></trkpt><trkpt lat="40.88828307477019" lon="9.132430315696533"><ele>504.0</ele><time>2026-04-04T14:21:44Z</time></trkpt><trkpt lat="40.88834287644237" lon="9.132309257686133"><ele>504.0</ele><time>2026-04-04T14:21:45Z</time></trkpt><trkpt lat="40.88840890559598" lon="9.132185125593116"><ele>504.0</ele><time>2026-04-04T14:21:46Z</time></trkpt><trkpt lat="40.88847752584487" lon="9.132052962684336"><ele>503.5</ele><time>2026-04-04T14:21:47Z</time></trkpt><trkpt lat="40.88855824801667" lon="9.13193646899331"><ele>503.0</ele><time>2026-04-04T14:21:48Z</time></trkpt><trkpt lat="40.88864219546388" lon="9.131828568934477"><ele>502.5</ele><time>2026-04-04T14:21:49Z</time></trkpt><trkpt lat="40.88872819114074" lon="9.13171686940381"><ele>502.0</ele><time>2026-04-04T14:21:50Z</time></trkpt><trkpt lat="40.88880669477467" lon="9.131591512203954"><ele>502.0</ele><time>2026-04-04T14:21:51Z</time></trkpt><trkpt lat="40.888880437484204" lon="9.1314758947408"><ele>502.0</ele><time>2026-04-04T14:21:52Z</time></trkpt><trkpt lat="40.88896551848735" lon="9.131362852500843"><ele>502.0</ele><time>2026-04-04T14:21:53Z</time></trkpt><trkpt lat="40.88906905999462" lon="9.131243044815555"><ele>502.0</ele><time>2026-04-04T14:21:54Z</time></trkpt><trkpt lat="40.88918342699145" lon="9.131133899354563"><ele>501.25</ele><time>2026-04-04T14:21:55Z</time></trkpt><trkpt lat="40.8893117473011" lon="9.131071159721067"><ele>500.5</ele><time>2026-04-04T14:21:56Z</time></trkpt><trkpt lat="40.88942684872588" lon="9.130973435667322"><ele>499.75</ele><time>2026-04-04T14:21:57Z</time></trkpt><trkpt lat="40.88955189985215" lon="9.130890700795202"><ele>499.0</ele><time>2026-04-04T14:21:58Z</time></trkpt><trkpt lat="40.889673632999944" lon="9.130796012290084"><ele>498.75</ele><time>2026-04-04T14:21:59Z</time></trkpt><trkpt lat="40.88979440464376" lon="9.130707582147421"><ele>498.5</ele><time>2026-04-04T14:22:00Z</time></trkpt><trkpt lat="40.8899018450722" lon="9.130628279289928"><ele>498.25</ele><time>2026-04-04T14:22:01Z</time></trkpt><trkpt lat="40.890003216904425" lon="9.130554609221143"><ele>498.0</ele><time>2026-04-04T14:22:02Z</time></trkpt><trkpt lat="40.89010319239203" lon="9.130490178242502"><ele>498.0</ele><time>2026-04-04T14:22:03Z</time></trkpt><trkpt lat="40.89019798588087" lon="9.130428572072363"><ele>497.99999999999994</ele><time>2026-04-04T14:22:04Z</time></trkpt><trkpt lat="40.89028200346292" lon="9.1303800506391"><ele>497.99999999999994</ele><time>2026-04-04T14:22:05Z</time></trkpt><trkpt lat="40.890374569147305" lon="9.130293025185066"><ele>498.0</ele><time>2026-04-04T14:22:06Z</time></trkpt><trkpt lat="40.89046378918112" lon="9.130211224514577"><ele>498.0</ele><time>2026-04-04T14:22:07Z</time></trkpt><trkpt lat="40.89054916160281" lon="9.130120346813065"><ele>498.0</ele><time>2026-04-04T14:22:08Z</time></trkpt><trkpt lat="40.8906330036837" lon="9.13002980745466"><ele>498.0</ele><time>2026-04-04T14:22:09Z</time></trkpt><trkpt lat="40.89071279615097" lon="9.129916973308655"><ele>498.0</ele><time>2026-04-04T14:22:10Z</time></trkpt><trkpt lat="40.89079007983243" lon="9.129792207105096"><ele>498.0</ele><time>2026-04-04T14:22:11Z</time></trkpt><trkpt lat="40.89086181692611" lon="9.12967422783987"><ele>495.5</ele><time>2026-04-04T14:22:12Z</time></trkpt><trkpt lat="40.890941512842126" lon="9.129557717122605"><ele>493.0</ele><time>2026-04-04T14:22:13Z</time></trkpt><trkpt lat="40.89101824987252" lon="9.129442592839448"><ele>490.5</ele><time>2026-04-04T14:22:14Z</time></trkpt><trkpt lat="40.89110234538954" lon="9.129324837137316"><ele>488.0</ele><time>2026-04-04T14:22:15.001Z</time></trkpt><trkpt lat="40.89119100262603" lon="9.129233153376237"><ele>487.99999999999994</ele><time>2026-04-04T14:22:16.001Z</time></trkpt><trkpt lat="40.89127381656215" lon="9.129157013868808"><ele>488.0</ele><time>2026-04-04T14:22:17.001Z</time></trkpt><trkpt lat="40.89134709124899" lon="9.129102114406983"><ele>488.0</ele><time>2026-04-04T14:22:18.001Z</time></trkpt><trkpt lat="40.891418444801104" lon="9.129026229678303"><ele>488.0</ele><time>2026-04-04T14:22:19.001Z</time></trkpt><trkpt lat="40.891482391190806" lon="9.12896740141574"><ele>487.99999999999994</ele><time>2026-04-04T14:22:20.001Z</time></trkpt><trkpt lat="40.89154845088671" lon="9.128879740910886"><ele>488.0</ele><time>2026-04-04T14:22:22.001Z</time></trkpt><trkpt lat="40.891632505398285" lon="9.128830671505828"><ele>488.0</ele><time>2026-04-04T14:22:25.001Z</time></trkpt><trkpt lat="40.891727588038066" lon="9.128753604739316"><ele>488.0</ele><time>2026-04-04T14:22:27.001Z</time></trkpt><trkpt lat="40.89181904303952" lon="9.128668308294188"><ele>488.0</ele><time>2026-04-04T14:22:28.001Z</time></trkpt><trkpt lat="40.891930519997295" lon="9.128582388870228"><ele>488.0</ele><time>2026-04-04T14:22:29.001Z</time></trkpt><trkpt lat="40.892041708171995" lon="9.12849833047288"><ele>488.25</ele><time>2026-04-04T14:22:30.001Z</time></trkpt><trkpt lat="40.8921334412981" lon="9.128413938417246"><ele>488.5</ele><time>2026-04-04T14:22:31.001Z</time></trkpt><trkpt lat="40.89222407063896" lon="9.128309117849787"><ele>488.75</ele><time>2026-04-04T14:22:32.001Z</time></trkpt><trkpt lat="40.89231323168986" lon="9.128177137521046"><ele>489.0</ele><time>2026-04-04T14:22:33.001Z</time></trkpt><trkpt lat="40.89239951658271" lon="9.128039922217926"><ele>488.5</ele><time>2026-04-04T14:22:34.001Z</time></trkpt><trkpt lat="40.89249065424103" lon="9.127918373281615"><ele>488.0</ele><time>2026-04-04T14:22:35.001Z</time></trkpt><trkpt lat="40.89256929973585" lon="9.12781015587588"><ele>487.5</ele><time>2026-04-04T14:22:36.001Z</time></trkpt><trkpt lat="40.892646746823566" lon="9.127701442718376"><ele>487.0</ele><time>2026-04-04T14:22:37.001Z</time></trkpt><trkpt lat="40.89272861898627" lon="9.127576536512473"><ele>487.0</ele><time>2026-04-04T14:22:38.001Z</time></trkpt><trkpt lat="40.89279674157372" lon="9.127435145594726"><ele>487.0</ele><time>2026-04-04T14:22:39.001Z</time></trkpt><trkpt lat="40.892852035261804" lon="9.127285256475298"><ele>487.0</ele><time>2026-04-04T14:22:40.001Z</time></trkpt><trkpt lat="40.892897318001616" lon="9.127134512152955"><ele>487.0</ele><time>2026-04-04T14:22:41.001Z</time></trkpt><trkpt lat="40.8929340972289" lon="9.127004802106764"><ele>487.40000000000003</ele><time>2026-04-04T14:22:42.001Z</time></trkpt><trkpt lat="40.89297898474424" lon="9.12687576550483"><ele>487.80000000000007</ele><time>2026-04-04T14:22:43.001Z</time></trkpt><trkpt lat="40.89303194853429" lon="9.126749573358813"><ele>488.2</ele><time>2026-04-04T14:22:44.001Z</time></trkpt><trkpt lat="40.89311701191015" lon="9.126663297809271"><ele>488.6</ele><time>2026-04-04T14:22:45.001Z</time></trkpt><trkpt lat="40.89319613973174" lon="9.126599324233485"><ele>489.0</ele><time>2026-04-04T14:22:46.001Z</time></trkpt><trkpt lat="40.8932925904498" lon="9.126517645075998"><ele>489.4</ele><time>2026-04-04T14:22:47.001Z</time></trkpt><trkpt lat="40.89338801715007" lon="9.126426838583567"><ele>489.79999999999995</ele><time>2026-04-04T14:22:48.001Z</time></trkpt><trkpt lat="40.89347410846348" lon="9.126340747350275"><ele>490.20000000000005</ele><time>2026-04-04T14:22:49.001Z</time></trkpt><trkpt lat="40.893556969010554" lon="9.126251130834131"><ele>490.6</ele><time>2026-04-04T14:22:50.001Z</time></trkpt><trkpt lat="40.89363083632885" lon="9.126158576622839"><ele>491.0</ele><time>2026-04-04T14:22:51.001Z</time></trkpt><trkpt lat="40.89369351558343" lon="9.1260586296208"><ele>490.0</ele><time>2026-04-04T14:22:52.001Z</time></trkpt><trkpt lat="40.89375772525175" lon="9.125960848587225"><ele>489.0</ele><time>2026-04-04T14:22:53.001Z</time></trkpt><trkpt lat="40.89382628705562" lon="9.125879213434674"><ele>488.0</ele><time>2026-04-04T14:22:54.001Z</time></trkpt><trkpt lat="40.89390429244546" lon="9.125802848613445"><ele>487.0</ele><time>2026-04-04T14:22:55.001Z</time></trkpt><trkpt lat="40.893988056261485" lon="9.12572855493021"><ele>486.0</ele><time>2026-04-04T14:22:56.001Z</time></trkpt><trkpt lat="40.894070554454714" lon="9.125657575286938"><ele>486.0</ele><time>2026-04-04T14:22:57.001Z</time></trkpt><trkpt lat="40.89415620317679" lon="9.125583885038568"><ele>486.0</ele><time>2026-04-04T14:22:58.001Z</time></trkpt><trkpt lat="40.894246444360796" lon="9.12550275812214"><ele>486.0</ele><time>2026-04-04T14:22:59.001Z</time></trkpt><trkpt lat="40.894333659056954" lon="9.125415244937464"><ele>486.0</ele><time>2026-04-04T14:23:00.001Z</time></trkpt><trkpt lat="40.89441889692983" lon="9.125323338869745"><ele>486.0</ele><time>2026-04-04T14:23:01.001Z</time></trkpt><trkpt lat="40.89449125067674" lon="9.125234959536423"><ele>485.8</ele><time>2026-04-04T14:23:02.001Z</time></trkpt><trkpt lat="40.89454099460592" lon="9.125135136378127"><ele>485.6</ele><time>2026-04-04T14:23:03.001Z</time></trkpt><trkpt lat="40.8945982509537" lon="9.125058629388699"><ele>485.4</ele><time>2026-04-04T14:23:04.001Z</time></trkpt><trkpt lat="40.894665762141344" lon="9.124967100450274"><ele>485.2</ele><time>2026-04-04T14:23:05.001Z</time></trkpt><trkpt lat="40.894742441902416" lon="9.124885218731162"><ele>485.0</ele><time>2026-04-04T14:23:06.001Z</time></trkpt><trkpt lat="40.894813511431956" lon="9.124810587153139"><ele>485.0</ele><time>2026-04-04T14:23:07.001Z</time></trkpt><trkpt lat="40.894884594034444" lon="9.124732827995928"><ele>485.0</ele><time>2026-04-04T14:23:08.001Z</time></trkpt><trkpt lat="40.89496031690744" lon="9.124648237782003"><ele>485.0</ele><time>2026-04-04T14:23:09.001Z</time></trkpt><trkpt lat="40.89504004044004" lon="9.124565795197139"><ele>485.0</ele><time>2026-04-04T14:23:10.001Z</time></trkpt><trkpt lat="40.89511816320275" lon="9.12448646528405"><ele>485.0</ele><time>2026-04-04T14:23:11.001Z</time></trkpt><trkpt lat="40.89519739592311" lon="9.124410457867056"><ele>484.6</ele><time>2026-04-04T14:23:12.001Z</time></trkpt><trkpt lat="40.895276534958796" lon="9.124327180147276"><ele>484.2</ele><time>2026-04-04T14:23:13.001Z</time></trkpt><trkpt lat="40.895362459637184" lon="9.124244338494874"><ele>483.79999999999995</ele><time>2026-04-04T14:23:14.001Z</time></trkpt><trkpt lat="40.89544610620519" lon="9.12416736111203"><ele>483.4</ele><time>2026-04-04T14:23:15.001Z</time></trkpt><trkpt lat="40.89553764032491" lon="9.124111727625186"><ele>483.0</ele><time>2026-04-04T14:23:16.001Z</time></trkpt><trkpt lat="40.89562458766553" lon="9.124036878890047"><ele>483.0</ele><time>2026-04-04T14:23:17.001Z</time></trkpt><trkpt lat="40.89571651957804" lon="9.123954970834074"><ele>482.99999999999994</ele><time>2026-04-04T14:23:18.001Z</time></trkpt><trkpt lat="40.89579805923808" lon="9.123858275092715"><ele>482.99999999999994</ele><time>2026-04-04T14:23:19.001Z</time></trkpt><trkpt lat="40.89588703347987" lon="9.123793015914927"><ele>483.0</ele><time>2026-04-04T14:23:20.001Z</time></trkpt><trkpt lat="40.89596400789618" lon="9.123721015484305"><ele>483.0</ele><time>2026-04-04T14:23:21.001Z</time></trkpt><trkpt lat="40.89602317439545" lon="9.12364372107494"><ele>482.6666666666667</ele><time>2026-04-04T14:23:22.001Z</time></trkpt><trkpt lat="40.896062870881295" lon="9.1235649165469"><ele>482.33333333333337</ele><time>2026-04-04T14:23:23.001Z</time></trkpt><trkpt lat="40.896094553750636" lon="9.123420448737626"><ele>482.0</ele><time>2026-04-04T14:23:25.001Z</time></trkpt><trkpt lat="40.89611995178649" lon="9.123326823778223"><ele>481.6666666666667</ele><time>2026-04-04T14:23:26.001Z</time></trkpt><trkpt lat="40.89614624628319" lon="9.123218082601952"><ele>481.33333333333337</ele><time>2026-04-04T14:23:27.001Z</time></trkpt><trkpt lat="40.89615488770439" lon="9.123105515672574"><ele>481.0</ele><time>2026-04-04T14:23:28.001Z</time></trkpt><trkpt lat="40.89618696788786" lon="9.123009730320264"><ele>481.8</ele><time>2026-04-04T14:23:29.001Z</time></trkpt><trkpt lat="40.896233714341896" lon="9.122945328038858"><ele>482.6</ele><time>2026-04-04T14:23:30.001Z</time></trkpt><trkpt lat="40.896322350680904" lon="9.122902766266032"><ele>483.4</ele><time>2026-04-04T14:23:31.001Z</time></trkpt><trkpt lat="40.896384388086155" lon="9.122795453939096"><ele>484.2</ele><time>2026-04-04T14:23:32.001Z</time></trkpt><trkpt lat="40.89645743109384" lon="9.122696962351975"><ele>485.0</ele><time>2026-04-04T14:23:33.001Z</time></trkpt><trkpt lat="40.89652148640731" lon="9.122594175386446"><ele>484.99999999999994</ele><time>2026-04-04T14:23:34.001Z</time></trkpt><trkpt lat="40.896575027306426" lon="9.122491075019676"><ele>485.0</ele><time>2026-04-04T14:23:35.001Z</time></trkpt><trkpt lat="40.89663231411323" lon="9.12241637516466"><ele>485.0</ele><time>2026-04-04T14:23:36.001Z</time></trkpt><trkpt lat="40.89664292797326" lon="9.122311711327557"><ele>485.0</ele><time>2026-04-04T14:23:37.001Z</time></trkpt><trkpt lat="40.89665486924137" lon="9.122200071145867"><ele>484.99999999999994</ele><time>2026-04-04T14:23:38.001Z</time></trkpt><trkpt lat="40.89667053290026" lon="9.122074452546629"><ele>485.0</ele><time>2026-04-04T14:23:39.001Z</time></trkpt><trkpt lat="40.896700373769704" lon="9.12195401355885"><ele>485.2</ele><time>2026-04-04T14:23:40Z</time></trkpt><trkpt lat="40.8967336168367" lon="9.121856852952188"><ele>485.4</ele><time>2026-04-04T14:23:41Z</time></trkpt><trkpt lat="40.89678578382073" lon="9.121763697315131"><ele>485.6</ele><time>2026-04-04T14:23:42Z</time></trkpt><trkpt lat="40.89686160120685" lon="9.12167721941761"><ele>485.8</ele><time>2026-04-04T14:23:43Z</time></trkpt><trkpt lat="40.89696111078191" lon="9.121610101393712"><ele>486.0</ele><time>2026-04-04T14:23:44Z</time></trkpt><trkpt lat="40.897050025366674" lon="9.121531131981632"><ele>485.6</ele><time>2026-04-04T14:23:45Z</time></trkpt><trkpt lat="40.89713554079185" lon="9.12144890921418"><ele>485.20000000000005</ele><time>2026-04-04T14:23:46Z</time></trkpt><trkpt lat="40.897222253589014" lon="9.12136363374247"><ele>484.79999999999995</ele><time>2026-04-04T14:23:47Z</time></trkpt><trkpt lat="40.89732071388552" lon="9.121290770334864"><ele>484.4</ele><time>2026-04-04T14:23:48Z</time></trkpt><trkpt lat="40.89741014290199" lon="9.121213316214888"><ele>484.0</ele><time>2026-04-04T14:23:49Z</time></trkpt><trkpt lat="40.897483201620446" lon="9.12112852460243"><ele>484.0</ele><time>2026-04-04T14:23:50Z</time></trkpt><trkpt lat="40.89756584768174" lon="9.121072796160096"><ele>484.0</ele><time>2026-04-04T14:23:51Z</time></trkpt><trkpt lat="40.89763879855477" lon="9.121002279622749"><ele>484.0</ele><time>2026-04-04T14:23:52Z</time></trkpt><trkpt lat="40.8977194630588" lon="9.120926687040209"><ele>484.0</ele><time>2026-04-04T14:23:53Z</time></trkpt><trkpt lat="40.89780525642033" lon="9.12085024670572"><ele>484.0</ele><time>2026-04-04T14:23:54Z</time></trkpt><trkpt lat="40.89788919757742" lon="9.120761714693602"><ele>483.6</ele><time>2026-04-04T14:23:55Z</time></trkpt><trkpt lat="40.89798516539463" lon="9.120710214111899"><ele>483.2</ele><time>2026-04-04T14:23:56Z</time></trkpt><trkpt lat="40.89807388722089" lon="9.120660464350031"><ele>482.80000000000007</ele><time>2026-04-04T14:23:57Z</time></trkpt><trkpt lat="40.898162968003646" lon="9.120626839590763"><ele>482.40000000000003</ele><time>2026-04-04T14:23:58Z</time></trkpt><trkpt lat="40.898255304070986" lon="9.120613146082679"><ele>482.0</ele><time>2026-04-04T14:23:59Z</time></trkpt><trkpt lat="40.89835321645741" lon="9.120603053282297"><ele>481.40000000000003</ele><time>2026-04-04T14:24:00Z</time></trkpt><trkpt lat="40.8984516424349" lon="9.12057625394258"><ele>480.80000000000007</ele><time>2026-04-04T14:24:01Z</time></trkpt><trkpt lat="40.89855957752962" lon="9.120549042591497"><ele>480.2</ele><time>2026-04-04T14:24:02Z</time></trkpt><trkpt lat="40.89866357561433" lon="9.120515479786098"><ele>479.6</ele><time>2026-04-04T14:24:03Z</time></trkpt><trkpt lat="40.89876123666533" lon="9.120486291694183"><ele>479.0</ele><time>2026-04-04T14:24:04Z</time></trkpt><trkpt lat="40.898846271474085" lon="9.120395612299633"><ele>479.0</ele><time>2026-04-04T14:24:05Z</time></trkpt><trkpt lat="40.89890753605833" lon="9.120300526177035"><ele>479.0</ele><time>2026-04-04T14:24:06Z</time></trkpt><trkpt lat="40.89894466904753" lon="9.12018038334654"><ele>479.0</ele><time>2026-04-04T14:24:07Z</time></trkpt><trkpt lat="40.898998044736075" lon="9.12004553404633"><ele>479.0</ele><time>2026-04-04T14:24:08Z</time></trkpt><trkpt lat="40.89902035790946" lon="9.119903416461726"><ele>479.0</ele><time>2026-04-04T14:24:09Z</time></trkpt><trkpt lat="40.89907955064998" lon="9.119764568201795"><ele>479.0</ele><time>2026-04-04T14:24:10Z</time></trkpt><trkpt lat="40.89913956968565" lon="9.11963838828772"><ele>479.0</ele><time>2026-04-04T14:24:11Z</time></trkpt><trkpt lat="40.89921306763868" lon="9.119519164811626"><ele>479.0</ele><time>2026-04-04T14:24:12Z</time></trkpt><trkpt lat="40.89928438118537" lon="9.119400021295734"><ele>479.0</ele><time>2026-04-04T14:24:13Z</time></trkpt><trkpt lat="40.899355802914876" lon="9.119278559633965"><ele>479.0</ele><time>2026-04-04T14:24:14Z</time></trkpt><trkpt lat="40.89943189960837" lon="9.119162147966069"><ele>479.0</ele><time>2026-04-04T14:24:15Z</time></trkpt><trkpt lat="40.89950930800985" lon="9.11903851947726"><ele>479.0</ele><time>2026-04-04T14:24:16Z</time></trkpt><trkpt lat="40.89958682402036" lon="9.118913021360568"><ele>479.0</ele><time>2026-04-04T14:24:17Z</time></trkpt><trkpt lat="40.89966547770733" lon="9.11877931423839"><ele>479.0</ele><time>2026-04-04T14:24:18Z</time></trkpt><trkpt lat="40.89974714119102" lon="9.118646202266108"><ele>479.0</ele><time>2026-04-04T14:24:19Z</time></trkpt><trkpt lat="40.89983212042061" lon="9.118516985570313"><ele>479.0</ele><time>2026-04-04T14:24:20Z</time></trkpt><trkpt lat="40.899912172657785" lon="9.11839574055655"><ele>479.0</ele><time>2026-04-04T14:24:21Z</time></trkpt><trkpt lat="40.89998410878135" lon="9.118276950800013"><ele>478.79999999999995</ele><time>2026-04-04T14:24:22Z</time></trkpt><trkpt lat="40.90004523664223" lon="9.118166874521975"><ele>478.59999999999997</ele><time>2026-04-04T14:24:23Z</time></trkpt><trkpt lat="40.900105151190346" lon="9.118069033418598"><ele>478.4</ele><time>2026-04-04T14:24:24Z</time></trkpt><trkpt lat="40.90015616081212" lon="9.117966704887731"><ele>478.2</ele><time>2026-04-04T14:24:25Z</time></trkpt><trkpt lat="40.900194327538046" lon="9.117859242267619"><ele>478.0</ele><time>2026-04-04T14:24:26.001Z</time></trkpt><trkpt lat="40.900228382672886" lon="9.117752222617115"><ele>478.0</ele><time>2026-04-04T14:24:27.001Z</time></trkpt><trkpt lat="40.90025617867807" lon="9.117662150316255"><ele>477.99999999999994</ele><time>2026-04-04T14:24:28.001Z</time></trkpt><trkpt lat="40.90028130565434" lon="9.117574894453995"><ele>477.99999999999994</ele><time>2026-04-04T14:24:29.001Z</time></trkpt><trkpt lat="40.900301619008694" lon="9.117495927708475"><ele>478.0</ele><time>2026-04-04T14:24:30.001Z</time></trkpt><trkpt lat="40.90026715507731" lon="9.117264647160196"><ele>478.0</ele><time>2026-04-04T14:24:32.001Z</time></trkpt><trkpt lat="40.900459885751346" lon="9.117362684672601"><ele>478.0</ele><time>2026-04-04T14:24:34.001Z</time></trkpt><trkpt lat="40.900539906855194" lon="9.117428342899727"><ele>477.99999999999994</ele><time>2026-04-04T14:24:35.001Z</time></trkpt><trkpt lat="40.90062515641062" lon="9.117508734478571"><ele>477.99999999999994</ele><time>2026-04-04T14:24:36.001Z</time></trkpt><trkpt lat="40.900721674516355" lon="9.11758913983297"><ele>478.0</ele><time>2026-04-04T14:24:37.001Z</time></trkpt><trkpt lat="40.90082536704839" lon="9.11767053641728"><ele>478.0</ele><time>2026-04-04T14:24:38.001Z</time></trkpt><trkpt lat="40.900927197992445" lon="9.117753856640055"><ele>478.0</ele><time>2026-04-04T14:24:39.001Z</time></trkpt><trkpt lat="40.90102974185603" lon="9.117839356521788"><ele>478.0</ele><time>2026-04-04T14:24:40.001Z</time></trkpt><trkpt lat="40.90113111159509" lon="9.117923058720043"><ele>478.0</ele><time>2026-04-04T14:24:41.001Z</time></trkpt><trkpt lat="40.90123478667731" lon="9.11800526490762"><ele>478.0</ele><time>2026-04-04T14:24:42.001Z</time></trkpt><trkpt lat="40.901343110409705" lon="9.118089919677058"><ele>478.0</ele><time>2026-04-04T14:24:43.001Z</time></trkpt><trkpt lat="40.90145313179525" lon="9.118179249318514"><ele>478.0</ele><time>2026-04-04T14:24:44.001Z</time></trkpt><trkpt lat="40.90156570467677" lon="9.118270349961445"><ele>478.0</ele><time>2026-04-04T14:24:45.001Z</time></trkpt><trkpt lat="40.90167886778454" lon="9.118363706766221"><ele>478.0</ele><time>2026-04-04T14:24:46.001Z</time></trkpt><trkpt lat="40.901792782620454" lon="9.118457026444942"><ele>477.75</ele><time>2026-04-04T14:24:47.001Z</time></trkpt><trkpt lat="40.90190676492383" lon="9.118548976997028"><ele>477.5</ele><time>2026-04-04T14:24:48.001Z</time></trkpt><trkpt lat="40.90201942791787" lon="9.118641287107382"><ele>477.25</ele><time>2026-04-04T14:24:49.001Z</time></trkpt><trkpt lat="40.902127927775695" lon="9.11873498226731"><ele>477.0</ele><time>2026-04-04T14:24:50.001Z</time></trkpt><trkpt lat="40.902232918129734" lon="9.118828092096212"><ele>477.0</ele><time>2026-04-04T14:24:51.001Z</time></trkpt><trkpt lat="40.90233860515178" lon="9.118929890152506"><ele>477.0</ele><time>2026-04-04T14:24:52.001Z</time></trkpt><trkpt lat="40.90244086528083" lon="9.119036269350286"><ele>477.0</ele><time>2026-04-04T14:24:53.001Z</time></trkpt><trkpt lat="40.90254305933885" lon="9.119147433464736"><ele>477.0</ele><time>2026-04-04T14:24:54.001Z</time></trkpt><trkpt lat="40.90264166637473" lon="9.119266034786472"><ele>477.0</ele><time>2026-04-04T14:24:55.001Z</time></trkpt><trkpt lat="40.90274064758222" lon="9.11939077892715"><ele>477.0</ele><time>2026-04-04T14:24:56.001Z</time></trkpt><trkpt lat="40.90283804852626" lon="9.119519010636417"><ele>477.0</ele><time>2026-04-04T14:24:57.001Z</time></trkpt><trkpt lat="40.902934184756965" lon="9.119650395272439"><ele>477.0</ele><time>2026-04-04T14:24:58.001Z</time></trkpt><trkpt lat="40.90302862670251" lon="9.119785080771337"><ele>476.75</ele><time>2026-04-04T14:24:59.001Z</time></trkpt><trkpt lat="40.903119151666104" lon="9.119922322187085"><ele>476.5</ele><time>2026-04-04T14:25:00.001Z</time></trkpt><trkpt lat="40.90320892246174" lon="9.120063122494185"><ele>476.25</ele><time>2026-04-04T14:25:01.001Z</time></trkpt><trkpt lat="40.9032960030917" lon="9.120206861696328"><ele>476.0</ele><time>2026-04-04T14:25:02.001Z</time></trkpt><trkpt lat="40.90337803763189" lon="9.120356694453916"><ele>476.25</ele><time>2026-04-04T14:25:03.001Z</time></trkpt><trkpt lat="40.903450935659635" lon="9.120511861692938"><ele>476.5</ele><time>2026-04-04T14:25:04.001Z</time></trkpt><trkpt lat="40.90351808764799" lon="9.120665810493458"><ele>476.75</ele><time>2026-04-04T14:25:05.001Z</time></trkpt><trkpt lat="40.903588707652574" lon="9.120818382695173"><ele>477.0</ele><time>2026-04-04T14:25:06.001Z</time></trkpt><trkpt lat="40.9036564612321" lon="9.12097026909255"><ele>477.5</ele><time>2026-04-04T14:25:07.001Z</time></trkpt><trkpt lat="40.903722352934686" lon="9.121119583282502"><ele>478.0</ele><time>2026-04-04T14:25:08.001Z</time></trkpt><trkpt lat="40.90378602526021" lon="9.121261187572156"><ele>478.5</ele><time>2026-04-04T14:25:09.001Z</time></trkpt><trkpt lat="40.90384336298405" lon="9.121392855794864"><ele>479.0</ele><time>2026-04-04T14:25:10.001Z</time></trkpt><trkpt lat="40.903896749322946" lon="9.121514728669489"><ele>479.0</ele><time>2026-04-04T14:25:11.001Z</time></trkpt><trkpt lat="40.90395291626083" lon="9.121626428004625"><ele>479.0</ele><time>2026-04-04T14:25:12.001Z</time></trkpt><trkpt lat="40.90400795028301" lon="9.1217375722187"><ele>479.0</ele><time>2026-04-04T14:25:13.001Z</time></trkpt><trkpt lat="40.90405502386696" lon="9.121853172993777"><ele>479.0</ele><time>2026-04-04T14:25:14.001Z</time></trkpt><trkpt lat="40.90409747142564" lon="9.121965647601877"><ele>479.0</ele><time>2026-04-04T14:25:15.001Z</time></trkpt><trkpt lat="40.90414659211478" lon="9.122056487834634"><ele>478.99999999999994</ele><time>2026-04-04T14:25:16.001Z</time></trkpt><trkpt lat="40.90421043676895" lon="9.122128791184867"><ele>479.0</ele><time>2026-04-04T14:25:17.001Z</time></trkpt><trkpt lat="40.90428624244322" lon="9.122156237248948"><ele>479.0</ele><time>2026-04-04T14:25:18.001Z</time></trkpt><trkpt lat="40.90436574933719" lon="9.122138908349662"><ele>479.0</ele><time>2026-04-04T14:25:19.001Z</time></trkpt><trkpt lat="40.90443557802217" lon="9.122071821394758"><ele>478.99999999999994</ele><time>2026-04-04T14:25:20.001Z</time></trkpt><trkpt lat="40.90449014914602" lon="9.121958408039404"><ele>479.0</ele><time>2026-04-04T14:25:21.001Z</time></trkpt><trkpt lat="40.904524181076" lon="9.121820083113706"><ele>478.25</ele><time>2026-04-04T14:25:22.001Z</time></trkpt><trkpt lat="40.9045556431044" lon="9.121667636523068"><ele>477.5</ele><time>2026-04-04T14:25:23.001Z</time></trkpt><trkpt lat="40.904599032386706" lon="9.121504621718136"><ele>476.75</ele><time>2026-04-04T14:25:24.001Z</time></trkpt><trkpt lat="40.904645147841194" lon="9.121329561017664"><ele>476.0</ele><time>2026-04-04T14:25:25.001Z</time></trkpt><trkpt lat="40.904689190831256" lon="9.121138945285727"><ele>475.0</ele><time>2026-04-04T14:25:26.001Z</time></trkpt><trkpt lat="40.904727810555286" lon="9.120941788308178"><ele>474.0</ele><time>2026-04-04T14:25:27.001Z</time></trkpt><trkpt lat="40.90476348753709" lon="9.120745684144383"><ele>473.0</ele><time>2026-04-04T14:25:28.001Z</time></trkpt><trkpt lat="40.9047941265034" lon="9.120560774979149"><ele>472.0</ele><time>2026-04-04T14:25:29.001Z</time></trkpt><trkpt lat="40.90482826087929" lon="9.120387249030923"><ele>472.0</ele><time>2026-04-04T14:25:30.001Z</time></trkpt><trkpt lat="40.90486263430451" lon="9.12022166653866"><ele>472.0</ele><time>2026-04-04T14:25:31.001Z</time></trkpt><trkpt lat="40.90489293691624" lon="9.120066512322989"><ele>472.0</ele><time>2026-04-04T14:25:32.001Z</time></trkpt><trkpt lat="40.90492194931045" lon="9.119922901240786"><ele>472.0</ele><time>2026-04-04T14:25:33.001Z</time></trkpt><trkpt lat="40.904945308747294" lon="9.119795335132963"><ele>472.50000000000006</ele><time>2026-04-04T14:25:34.001Z</time></trkpt><trkpt lat="40.90496326022606" lon="9.119686419588495"><ele>473.0</ele><time>2026-04-04T14:25:35.001Z</time></trkpt><trkpt lat="40.90498465911276" lon="9.119597896032575"><ele>473.5</ele><time>2026-04-04T14:25:36.001Z</time></trkpt><trkpt lat="40.90501154351139" lon="9.119463060681337"><ele>474.0</ele><time>2026-04-04T14:25:38.001Z</time></trkpt><trkpt lat="40.90502854749435" lon="9.119377844255578"><ele>474.50000000000006</ele><time>2026-04-04T14:25:40.001Z</time></trkpt><trkpt lat="40.90504617828775" lon="9.119289486521971"><ele>475.0</ele><time>2026-04-04T14:25:43.001Z</time></trkpt><trkpt lat="40.90506463056596" lon="9.119197011908454"><ele>475.0</ele><time>2026-04-04T14:25:46Z</time></trkpt><trkpt lat="40.90488416613096" lon="9.119141505123357"><ele>475.0</ele><time>2026-04-04T14:26:15Z</time></trkpt><trkpt lat="40.9049832768388" lon="9.119096889568825"><ele>475.0</ele><time>2026-04-04T14:34:23Z</time></trkpt><trkpt lat="40.90503632617846" lon="9.119044484637431"><ele>475.0</ele><time>2026-04-04T14:34:57Z</time></trkpt><trkpt lat="40.9050932591934" lon="9.118974233269343"><ele>475.0</ele><time>2026-04-04T14:35:06Z</time></trkpt><trkpt lat="40.90512553281818" lon="9.118884694885125"><ele>475.4</ele><time>2026-04-04T14:35:07Z</time></trkpt><trkpt lat="40.90515501422631" lon="9.11876381514887"><ele>475.8</ele><time>2026-04-04T14:35:08Z</time></trkpt><trkpt lat="40.90518155839787" lon="9.118634466131002"><ele>476.20000000000005</ele><time>2026-04-04T14:35:09Z</time></trkpt><trkpt lat="40.905206984483094" lon="9.118508050123722"><ele>476.6</ele><time>2026-04-04T14:35:10Z</time></trkpt><trkpt lat="40.90523466898859" lon="9.11837728399169"><ele>477.0</ele><time>2026-04-04T14:35:11Z</time></trkpt><trkpt lat="40.90526290126045" lon="9.11822297424444"><ele>477.75</ele><time>2026-04-04T14:35:12Z</time></trkpt><trkpt lat="40.90529385342873" lon="9.118041618007128"><ele>478.5</ele><time>2026-04-04T14:35:13Z</time></trkpt><trkpt lat="40.905327130874035" lon="9.11784555124597"><ele>479.25</ele><time>2026-04-04T14:35:14.001Z</time></trkpt><trkpt lat="40.90535942842365" lon="9.117678737451875"><ele>480.0</ele><time>2026-04-04T14:35:15.001Z</time></trkpt><trkpt lat="40.90538874490212" lon="9.11752983547724"><ele>481.75</ele><time>2026-04-04T14:35:16.001Z</time></trkpt><trkpt lat="40.905410213092495" lon="9.117377721486367"><ele>483.5</ele><time>2026-04-04T14:35:17.001Z</time></trkpt><trkpt lat="40.90542605758586" lon="9.117201598317317"><ele>485.25</ele><time>2026-04-04T14:35:18.001Z</time></trkpt><trkpt lat="40.90539377563287" lon="9.11698329122191"><ele>487.0</ele><time>2026-04-04T14:35:19.001Z</time></trkpt><trkpt lat="40.90532061631832" lon="9.11676943926721"><ele>487.0</ele><time>2026-04-04T14:35:20.001Z</time></trkpt><trkpt lat="40.90527461800586" lon="9.11653255728061"><ele>487.0</ele><time>2026-04-04T14:35:21.001Z</time></trkpt><trkpt lat="40.90523526750485" lon="9.116305916701316"><ele>487.0</ele><time>2026-04-04T14:35:22.001Z</time></trkpt><trkpt lat="40.905217233514" lon="9.116093800021472"><ele>487.0</ele><time>2026-04-04T14:35:23.001Z</time></trkpt><trkpt lat="40.905188936787894" lon="9.115875077578547"><ele>487.0</ele><time>2026-04-04T14:35:24.001Z</time></trkpt><trkpt lat="40.90523035559599" lon="9.115653215496076"><ele>487.0</ele><time>2026-04-04T14:35:25.001Z</time></trkpt><trkpt lat="40.90527630362926" lon="9.11544827001409"><ele>489.33333333333337</ele><time>2026-04-04T14:35:26.001Z</time></trkpt><trkpt lat="40.905282336938235" lon="9.115246561640477"><ele>491.66666666666663</ele><time>2026-04-04T14:35:27.001Z</time></trkpt><trkpt lat="40.90525916811861" lon="9.11502273112935"><ele>494.0</ele><time>2026-04-04T14:35:28.001Z</time></trkpt><trkpt lat="40.90523177983471" lon="9.114792388399655"><ele>495.66666666666663</ele><time>2026-04-04T14:35:29.001Z</time></trkpt><trkpt lat="40.90516557635764" lon="9.114568651633663"><ele>497.33333333333337</ele><time>2026-04-04T14:35:30.001Z</time></trkpt><trkpt lat="40.905070390639516" lon="9.11434952924929"><ele>499.0</ele><time>2026-04-04T14:35:31.001Z</time></trkpt><trkpt lat="40.90495277019724" lon="9.114145317851685"><ele>499.0</ele><time>2026-04-04T14:35:32.001Z</time></trkpt><trkpt lat="40.90482008742382" lon="9.113955277794442"><ele>499.0</ele><time>2026-04-04T14:35:33.001Z</time></trkpt><trkpt lat="40.90470468240382" lon="9.11374922375352"><ele>499.0</ele><time>2026-04-04T14:35:34.001Z</time></trkpt><trkpt lat="40.904609718467846" lon="9.113565357209616"><ele>499.0</ele><time>2026-04-04T14:35:35.001Z</time></trkpt><trkpt lat="40.90452413048815" lon="9.113380847588104"><ele>499.0</ele><time>2026-04-04T14:35:36.001Z</time></trkpt><trkpt lat="40.904450430522324" lon="9.113193572431086"><ele>499.0</ele><time>2026-04-04T14:35:37.001Z</time></trkpt><trkpt lat="40.90438318155152" lon="9.113007397378865"><ele>500.5</ele><time>2026-04-04T14:35:38.001Z</time></trkpt><trkpt lat="40.90432562462368" lon="9.112819781927659"><ele>502.0</ele><time>2026-04-04T14:35:39.001Z</time></trkpt><trkpt lat="40.904273044961904" lon="9.112635484501068"><ele>503.5</ele><time>2026-04-04T14:35:40.001Z</time></trkpt><trkpt lat="40.904223905493346" lon="9.112451756847763"><ele>505.0</ele><time>2026-04-04T14:35:41.001Z</time></trkpt><trkpt lat="40.904177488899144" lon="9.112266661775745"><ele>507.6666666666667</ele><time>2026-04-04T14:35:42.001Z</time></trkpt><trkpt lat="40.90413850079779" lon="9.112074517250923"><ele>510.33333333333337</ele><time>2026-04-04T14:35:43.001Z</time></trkpt><trkpt lat="40.90409726342139" lon="9.111883832674678"><ele>513.0</ele><time>2026-04-04T14:35:44.001Z</time></trkpt><trkpt lat="40.90405221345991" lon="9.11169446597144"><ele>514.25</ele><time>2026-04-04T14:35:45.001Z</time></trkpt><trkpt lat="40.90400441797577" lon="9.111509887190515"><ele>515.5</ele><time>2026-04-04T14:35:46.001Z</time></trkpt><trkpt lat="40.90395606308609" lon="9.111322980308929"><ele>516.75</ele><time>2026-04-04T14:35:47.001Z</time></trkpt><trkpt lat="40.90391129502251" lon="9.111136440820607"><ele>518.0</ele><time>2026-04-04T14:35:48.001Z</time></trkpt><trkpt lat="40.90386670946764" lon="9.110949511024765"><ele>518.0</ele><time>2026-04-04T14:35:49.001Z</time></trkpt><trkpt lat="40.90381755004161" lon="9.110785970950138"><ele>518.0</ele><time>2026-04-04T14:35:50.001Z</time></trkpt><trkpt lat="40.90375862345452" lon="9.110630631546583"><ele>518.0</ele><time>2026-04-04T14:35:51.001Z</time></trkpt><trkpt lat="40.90367015943334" lon="9.110506313970914"><ele>518.0</ele><time>2026-04-04T14:35:52.001Z</time></trkpt><trkpt lat="40.90355779641692" lon="9.110402397796546"><ele>518.25</ele><time>2026-04-04T14:35:53.001Z</time></trkpt><trkpt lat="40.903431335541796" lon="9.110311057119334"><ele>518.5</ele><time>2026-04-04T14:35:54.001Z</time></trkpt><trkpt lat="40.90330038734843" lon="9.110218707650306"><ele>518.75</ele><time>2026-04-04T14:35:55.001Z</time></trkpt><trkpt lat="40.90317751200025" lon="9.110105542449993"><ele>519.0</ele><time>2026-04-04T14:35:56.001Z</time></trkpt><trkpt lat="40.903050859321574" lon="9.109997077777315"><ele>519.25</ele><time>2026-04-04T14:35:57.001Z</time></trkpt><trkpt lat="40.9029239083084" lon="9.10989157097991"><ele>519.5</ele><time>2026-04-04T14:35:58.001Z</time></trkpt><trkpt lat="40.90280996535587" lon="9.109770392595138"><ele>519.75</ele><time>2026-04-04T14:35:59.001Z</time></trkpt><trkpt lat="40.902698952031045" lon="9.109650605576583"><ele>520.0</ele><time>2026-04-04T14:36:00.001Z</time></trkpt><trkpt lat="40.90259164441812" lon="9.109527977020221"><ele>523.25</ele><time>2026-04-04T14:36:01.001Z</time></trkpt><trkpt lat="40.90248680755876" lon="9.10940254125249"><ele>526.5</ele><time>2026-04-04T14:36:02.001Z</time></trkpt><trkpt lat="40.90238533585247" lon="9.1092693219192"><ele>529.75</ele><time>2026-04-04T14:36:03.001Z</time></trkpt><trkpt lat="40.902290991268345" lon="9.109124249773712"><ele>533.0</ele><time>2026-04-04T14:36:04.001Z</time></trkpt><trkpt lat="40.90220199692023" lon="9.108972543946937"><ele>533.0</ele><time>2026-04-04T14:36:05.001Z</time></trkpt><trkpt lat="40.902119700264954" lon="9.108816181457582"><ele>533.0</ele><time>2026-04-04T14:36:06.001Z</time></trkpt><trkpt lat="40.90205188100127" lon="9.108669555853929"><ele>533.0</ele><time>2026-04-04T14:36:07.001Z</time></trkpt><trkpt lat="40.901994856256195" lon="9.108531417437806"><ele>533.0</ele><time>2026-04-04T14:36:08.001Z</time></trkpt><trkpt lat="40.90193562842859" lon="9.10838161778705"><ele>534.25</ele><time>2026-04-04T14:36:09.001Z</time></trkpt><trkpt lat="40.90188792708377" lon="9.108219482971823"><ele>535.5</ele><time>2026-04-04T14:36:10.001Z</time></trkpt><trkpt lat="40.901853161636026" lon="9.108054587867981"><ele>536.75</ele><time>2026-04-04T14:36:11.001Z</time></trkpt><trkpt lat="40.90182489097846" lon="9.107905804005592"><ele>538.0</ele><time>2026-04-04T14:36:12.001Z</time></trkpt><trkpt lat="40.90179591017019" lon="9.107770450674082"><ele>538.0</ele><time>2026-04-04T14:36:13.001Z</time></trkpt><trkpt lat="40.901769527298505" lon="9.107630512476344"><ele>538.0</ele><time>2026-04-04T14:36:14.001Z</time></trkpt><trkpt lat="40.90175207131666" lon="9.107492557861823"><ele>538.0</ele><time>2026-04-04T14:36:15.001Z</time></trkpt><trkpt lat="40.901738579545174" lon="9.107354291194294"><ele>538.0</ele><time>2026-04-04T14:36:16Z</time></trkpt><trkpt lat="40.90172767304203" lon="9.107217240305873"><ele>538.0</ele><time>2026-04-04T14:36:17Z</time></trkpt><trkpt lat="40.90173035492035" lon="9.107076743103994"><ele>540.0</ele><time>2026-04-04T14:36:18Z</time></trkpt><trkpt lat="40.901742647665216" lon="9.106936249673087"><ele>542.0</ele><time>2026-04-04T14:36:19Z</time></trkpt><trkpt lat="40.901758363917466" lon="9.106797861659691"><ele>544.0</ele><time>2026-04-04T14:36:20Z</time></trkpt><trkpt lat="40.90177961905834" lon="9.106661679992555"><ele>546.0</ele><time>2026-04-04T14:36:21Z</time></trkpt><trkpt lat="40.90181429377452" lon="9.106548496046642"><ele>548.0</ele><time>2026-04-04T14:36:22Z</time></trkpt><trkpt lat="40.901855104419525" lon="9.106449945747153"><ele>549.0</ele><time>2026-04-04T14:36:23Z</time></trkpt><trkpt lat="40.90189795311214" lon="9.106364986241877"><ele>550.0</ele><time>2026-04-04T14:36:24Z</time></trkpt><trkpt lat="40.90194374151189" lon="9.106280656872853"><ele>551.0</ele><time>2026-04-04T14:36:25Z</time></trkpt><trkpt lat="40.901990088424206" lon="9.1062081789602"><ele>552.0</ele><time>2026-04-04T14:36:26Z</time></trkpt><trkpt lat="40.90203639763668" lon="9.106145901381344"><ele>553.0</ele><time>2026-04-04T14:36:27Z</time></trkpt><trkpt lat="40.902134029864335" lon="9.10604100450417"><ele>554.0</ele><time>2026-04-04T14:36:29Z</time></trkpt><trkpt lat="40.902235397323444" lon="9.105962212778612"><ele>554.0</ele><time>2026-04-04T14:36:31Z</time></trkpt><trkpt lat="40.90235720138523" lon="9.105916381382492"><ele>554.0</ele><time>2026-04-04T14:36:33Z</time></trkpt><trkpt lat="40.902425601992846" lon="9.105916817604266"><ele>554.0</ele><time>2026-04-04T14:36:34Z</time></trkpt><trkpt lat="40.9024931348392" lon="9.105922645759383"><ele>554.0</ele><time>2026-04-04T14:36:35Z</time></trkpt><trkpt lat="40.90255737462536" lon="9.105949487828338"><ele>554.0</ele><time>2026-04-04T14:36:36Z</time></trkpt><trkpt lat="40.90261725272105" lon="9.106003048577138"><ele>554.0</ele><time>2026-04-04T14:36:37Z</time></trkpt><trkpt lat="40.90266494659645" lon="9.106083326122818"><ele>554.5714285714286</ele><time>2026-04-04T14:36:38Z</time></trkpt><trkpt lat="40.90269763990101" lon="9.106172963741185"><ele>555.1428571428571</ele><time>2026-04-04T14:36:39Z</time></trkpt><trkpt lat="40.90272773097095" lon="9.10626058918626"><ele>555.7142857142857</ele><time>2026-04-04T14:36:40Z</time></trkpt><trkpt lat="40.90275363750506" lon="9.10634956380388"><ele>556.2857142857142</ele><time>2026-04-04T14:36:41Z</time></trkpt><trkpt lat="40.90277982508524" lon="9.106438000334812"><ele>556.8571428571429</ele><time>2026-04-04T14:36:42Z</time></trkpt><trkpt lat="40.90281053388152" lon="9.106524357362556"><ele>557.4285714285713</ele><time>2026-04-04T14:36:43Z</time></trkpt><trkpt lat="40.902840691715554" lon="9.10661009173946"><ele>558.0</ele><time>2026-04-04T14:36:44Z</time></trkpt><trkpt lat="40.90287631181954" lon="9.106688889047767"><ele>558.0</ele><time>2026-04-04T14:36:45Z</time></trkpt><trkpt lat="40.90292834433621" lon="9.106754718235072"><ele>558.0</ele><time>2026-04-04T14:36:46Z</time></trkpt><trkpt lat="40.90299430403012" lon="9.106808533183365"><ele>558.0</ele><time>2026-04-04T14:36:47Z</time></trkpt><trkpt lat="40.903075643546316" lon="9.106855413182995"><ele>558.0</ele><time>2026-04-04T14:36:48Z</time></trkpt><trkpt lat="40.90316166279193" lon="9.106908058831735"><ele>558.0</ele><time>2026-04-04T14:36:49Z</time></trkpt><trkpt lat="40.90325163597138" lon="9.106911240793345"><ele>558.0</ele><time>2026-04-04T14:36:50Z</time></trkpt><trkpt lat="40.90333483051294" lon="9.1069323088995"><ele>558.0</ele><time>2026-04-04T14:36:51Z</time></trkpt><trkpt lat="40.903406783492755" lon="9.106949410924084"><ele>558.0</ele><time>2026-04-04T14:36:52Z</time></trkpt><trkpt lat="40.90348695386373" lon="9.106967361023933"><ele>558.0</ele><time>2026-04-04T14:36:53Z</time></trkpt><trkpt lat="40.903569453617074" lon="9.1069851258498"><ele>558.0</ele><time>2026-04-04T14:36:54Z</time></trkpt><trkpt lat="40.903652744787884" lon="9.107012161537778"><ele>558.0</ele><time>2026-04-04T14:36:55Z</time></trkpt><trkpt lat="40.90372099928001" lon="9.107064176693756"><ele>558.0</ele><time>2026-04-04T14:36:56Z</time></trkpt><trkpt lat="40.90381471737029" lon="9.107111133752335"><ele>558.75</ele><time>2026-04-04T14:36:58Z</time></trkpt><trkpt lat="40.90390138277772" lon="9.107156224671467"><ele>559.5</ele><time>2026-04-04T14:37:00Z</time></trkpt><trkpt lat="40.90401859123663" lon="9.107217027813611"><ele>560.25</ele><time>2026-04-04T14:37:02Z</time></trkpt><trkpt lat="40.90412746086012" lon="9.107270029222754"><ele>561.0</ele><time>2026-04-04T14:37:03Z</time></trkpt><trkpt lat="40.904244098256285" lon="9.107315782480917"><ele>560.75</ele><time>2026-04-04T14:37:04Z</time></trkpt><trkpt lat="40.90435994411321" lon="9.10730809570601"><ele>560.5</ele><time>2026-04-04T14:37:05Z</time></trkpt><trkpt lat="40.904465168080044" lon="9.107241605223432"><ele>560.25</ele><time>2026-04-04T14:37:06Z</time></trkpt><trkpt lat="40.904547412240774" lon="9.107144868474075"><ele>560.0</ele><time>2026-04-04T14:37:07Z</time></trkpt><trkpt lat="40.9046205990525" lon="9.107021823025978"><ele>560.0</ele><time>2026-04-04T14:37:08Z</time></trkpt><trkpt lat="40.904656687984925" lon="9.106881654326525"><ele>560.0</ele><time>2026-04-04T14:37:09Z</time></trkpt><trkpt lat="40.904688405927544" lon="9.106740631862404"><ele>560.0</ele><time>2026-04-04T14:37:10Z</time></trkpt><trkpt lat="40.904707264668374" lon="9.106572400868705"><ele>560.0</ele><time>2026-04-04T14:37:11Z</time></trkpt><trkpt lat="40.90472354513035" lon="9.106396354440093"><ele>560.0</ele><time>2026-04-04T14:37:12Z</time></trkpt><trkpt lat="40.904744558539136" lon="9.106221127758417"><ele>560.0</ele><time>2026-04-04T14:37:13Z</time></trkpt><trkpt lat="40.904758462957574" lon="9.106064200253941"><ele>560.0</ele><time>2026-04-04T14:37:14Z</time></trkpt><trkpt lat="40.90476955323517" lon="9.105903527267337"><ele>560.0</ele><time>2026-04-04T14:37:15Z</time></trkpt><trkpt lat="40.904775453635104" lon="9.10574470091488"><ele>559.25</ele><time>2026-04-04T14:37:16Z</time></trkpt><trkpt lat="40.90477251917047" lon="9.10558105759587"><ele>558.5</ele><time>2026-04-04T14:37:17Z</time></trkpt><trkpt lat="40.90475518843069" lon="9.105429238088213"><ele>557.75</ele><time>2026-04-04T14:37:18Z</time></trkpt><trkpt lat="40.904725538162275" lon="9.10528356176195"><ele>557.0</ele><time>2026-04-04T14:37:19Z</time></trkpt><trkpt lat="40.90469008248656" lon="9.105152180431125"><ele>557.0</ele><time>2026-04-04T14:37:20Z</time></trkpt><trkpt lat="40.90465731785434" lon="9.105042016043424"><ele>557.0</ele><time>2026-04-04T14:37:21.001Z</time></trkpt><trkpt lat="40.9046440049401" lon="9.104926952526707"><ele>557.0</ele><time>2026-04-04T14:37:22.001Z</time></trkpt><trkpt lat="40.90464429740464" lon="9.104819822480492"><ele>557.0</ele><time>2026-04-04T14:37:23.001Z</time></trkpt><trkpt lat="40.9046677018256" lon="9.104723175333994"><ele>557.0</ele><time>2026-04-04T14:37:24.001Z</time></trkpt><trkpt lat="40.904703257879376" lon="9.104627785785478"><ele>557.0</ele><time>2026-04-04T14:37:25.001Z</time></trkpt><trkpt lat="40.90474224416709" lon="9.104535113089943"><ele>557.0</ele><time>2026-04-04T14:37:26.001Z</time></trkpt><trkpt lat="40.90478398100003" lon="9.10444102085221"><ele>557.0</ele><time>2026-04-04T14:37:27.001Z</time></trkpt><trkpt lat="40.90482214275854" lon="9.104340383614502"><ele>557.0</ele><time>2026-04-04T14:37:28.001Z</time></trkpt><trkpt lat="40.90486143704736" lon="9.104237063418578"><ele>557.0</ele><time>2026-04-04T14:37:29.001Z</time></trkpt><trkpt lat="40.90490319615656" lon="9.104129562944673"><ele>557.0</ele><time>2026-04-04T14:37:30.001Z</time></trkpt><trkpt lat="40.90494888740529" lon="9.10402917787893"><ele>557.0</ele><time>2026-04-04T14:37:31.001Z</time></trkpt><trkpt lat="40.904996341692424" lon="9.103942114498974"><ele>556.5</ele><time>2026-04-04T14:37:32.001Z</time></trkpt><trkpt lat="40.905047794884105" lon="9.103864964486768"><ele>556.0</ele><time>2026-04-04T14:37:33.001Z</time></trkpt><trkpt lat="40.9050982008809" lon="9.103803508230842"><ele>555.5</ele><time>2026-04-04T14:37:34.001Z</time></trkpt><trkpt lat="40.905157901552215" lon="9.103765405095205"><ele>555.0</ele><time>2026-04-04T14:37:35.001Z</time></trkpt><trkpt lat="40.90525772285631" lon="9.103699677039273"><ele>554.5</ele><time>2026-04-04T14:37:37.001Z</time></trkpt><trkpt lat="40.90533784332384" lon="9.103661858538027"><ele>554.0</ele><time>2026-04-04T14:37:38.001Z</time></trkpt><trkpt lat="40.905429793711654" lon="9.103619950866634"><ele>554.0</ele><time>2026-04-04T14:37:39.001Z</time></trkpt><trkpt lat="40.90552689087433" lon="9.103574146719168"><ele>554.0</ele><time>2026-04-04T14:37:40.001Z</time></trkpt><trkpt lat="40.90560787085307" lon="9.10353123400758"><ele>554.0</ele><time>2026-04-04T14:37:41.001Z</time></trkpt><trkpt lat="40.90568484953586" lon="9.103491557151493"><ele>554.0</ele><time>2026-04-04T14:37:42.001Z</time></trkpt><trkpt lat="40.90575772611524" lon="9.103459656775588"><ele>554.0</ele><time>2026-04-04T14:37:43.001Z</time></trkpt><trkpt lat="40.905824110634164" lon="9.103424068056905"><ele>554.0</ele><time>2026-04-04T14:37:44.001Z</time></trkpt><trkpt lat="40.90588016074353" lon="9.103376984309055"><ele>551.75</ele><time>2026-04-04T14:37:45.001Z</time></trkpt><trkpt lat="40.90596462983626" lon="9.10324225395423"><ele>549.5</ele><time>2026-04-04T14:37:47.001Z</time></trkpt><trkpt lat="40.906004710600705" lon="9.10310511506228"><ele>547.25</ele><time>2026-04-04T14:37:48.001Z</time></trkpt><trkpt lat="40.906031225292246" lon="9.102938546967549"><ele>545.0</ele><time>2026-04-04T14:37:49.001Z</time></trkpt><trkpt lat="40.90603341444744" lon="9.102771851873946"><ele>545.0</ele><time>2026-04-04T14:37:50.001Z</time></trkpt><trkpt lat="40.90601608024911" lon="9.102594543169149"><ele>545.0</ele><time>2026-04-04T14:37:51.001Z</time></trkpt><trkpt lat="40.906027020421845" lon="9.10242422292869"><ele>545.0</ele><time>2026-04-04T14:37:52.001Z</time></trkpt><trkpt lat="40.90604693435347" lon="9.102255644382588"><ele>545.0</ele><time>2026-04-04T14:37:53.001Z</time></trkpt><trkpt lat="40.90609353037363" lon="9.10207615599777"><ele>544.75</ele><time>2026-04-04T14:37:54.001Z</time></trkpt><trkpt lat="40.90613870026537" lon="9.10187892091749"><ele>544.5</ele><time>2026-04-04T14:37:55.001Z</time></trkpt><trkpt lat="40.90618573179055" lon="9.101713693571043"><ele>544.25</ele><time>2026-04-04T14:37:56.001Z</time></trkpt><trkpt lat="40.90619776866952" lon="9.101556303276016"><ele>544.0</ele><time>2026-04-04T14:37:57.001Z</time></trkpt><trkpt lat="40.906174519033485" lon="9.101401495726893"><ele>543.25</ele><time>2026-04-04T14:37:58.001Z</time></trkpt><trkpt lat="40.9061176907547" lon="9.101255760064245"><ele>542.5</ele><time>2026-04-04T14:37:59.001Z</time></trkpt><trkpt lat="40.90602721979503" lon="9.101107597777483"><ele>541.75</ele><time>2026-04-04T14:38:00.001Z</time></trkpt><trkpt lat="40.90592948318247" lon="9.100970995956109"><ele>541.0</ele><time>2026-04-04T14:38:01.001Z</time></trkpt><trkpt lat="40.90582900064147" lon="9.100836147547865"><ele>542.2</ele><time>2026-04-04T14:38:02.001Z</time></trkpt><trkpt lat="40.9057568516551" lon="9.100685821272618"><ele>543.4000000000001</ele><time>2026-04-04T14:38:03.001Z</time></trkpt><trkpt lat="40.905671099088664" lon="9.100571764838511"><ele>544.6</ele><time>2026-04-04T14:38:04.001Z</time></trkpt><trkpt lat="40.90561573877821" lon="9.100473845650452"><ele>545.8000000000001</ele><time>2026-04-04T14:38:05.001Z</time></trkpt><trkpt lat="40.90557820588494" lon="9.100401514610947"><ele>547.0</ele><time>2026-04-04T14:38:06.001Z</time></trkpt><trkpt lat="40.905526342027535" lon="9.10030294607435"><ele>547.0</ele><time>2026-04-04T14:38:08.001Z</time></trkpt><trkpt lat="40.90548318268685" lon="9.100212949611699"><ele>547.0</ele><time>2026-04-04T14:38:10.001Z</time></trkpt><trkpt lat="40.90547000341499" lon="9.100131132666844"><ele>547.0</ele><time>2026-04-04T14:38:12.001Z</time></trkpt><trkpt lat="40.90546710803747" lon="9.10000220348901"><ele>547.0</ele><time>2026-04-04T14:38:15.001Z</time></trkpt><trkpt lat="40.905469555510344" lon="9.099878830571052"><ele>547.0</ele><time>2026-04-04T14:38:17.001Z</time></trkpt><trkpt lat="40.90546835791056" lon="9.09976216718545"><ele>547.0</ele><time>2026-04-04T14:38:19.001Z</time></trkpt><trkpt lat="40.905482508155664" lon="9.099650758438617"><ele>546.1666666666667</ele><time>2026-04-04T14:38:21.001Z</time></trkpt><trkpt lat="40.905505626952134" lon="9.099561548252403"><ele>545.3333333333334</ele><time>2026-04-04T14:38:24Z</time></trkpt><trkpt lat="40.905397929694075" lon="9.099538395363968"><ele>544.5</ele><time>2026-04-04T14:38:29Z</time></trkpt><trkpt lat="40.905316360886985" lon="9.099543520117788"><ele>543.6666666666666</ele><time>2026-04-04T14:38:32Z</time></trkpt><trkpt lat="40.905276751359686" lon="9.099477088068566"><ele>542.8333333333333</ele><time>2026-04-04T14:38:37Z</time></trkpt><trkpt lat="40.90522962310541" lon="9.099559048396339"><ele>542.0</ele><time>2026-04-04T14:39:46.001Z</time></trkpt><trkpt lat="40.905111646408464" lon="9.099508788706713"><ele>542.0</ele><time>2026-04-04T14:39:48.001Z</time></trkpt><trkpt lat="40.905064191905026" lon="9.099415263363891"><ele>542.0</ele><time>2026-04-04T14:39:50.001Z</time></trkpt><trkpt lat="40.90505391858723" lon="9.099328573043067"><ele>542.0</ele><time>2026-04-04T14:39:53.001Z</time></trkpt><trkpt lat="40.90512998568584" lon="9.09927686136636"><ele>542.0</ele><time>2026-04-04T14:39:56.001Z</time></trkpt><trkpt lat="40.905189928652156" lon="9.099302402579251"><ele>542.0</ele><time>2026-04-04T14:39:59.001Z</time></trkpt><trkpt lat="40.905246188617944" lon="9.099234592854879"><ele>542.0</ele><time>2026-04-04T14:40:03.001Z</time></trkpt><trkpt lat="40.90531134056819" lon="9.099172342617187"><ele>542.0</ele><time>2026-04-04T14:40:06.001Z</time></trkpt><trkpt lat="40.90538041749611" lon="9.099140184130945"><ele>542.0</ele><time>2026-04-04T14:40:08.001Z</time></trkpt><trkpt lat="40.90545488075165" lon="9.099097936435063"><ele>542.0</ele><time>2026-04-04T14:40:14.001Z</time></trkpt><trkpt lat="40.90550114372931" lon="9.098992116625828"><ele>542.0</ele><time>2026-04-04T14:40:16.001Z</time></trkpt><trkpt lat="40.90549887896731" lon="9.098831264462442"><ele>542.0</ele><time>2026-04-04T14:40:18.001Z</time></trkpt><trkpt lat="40.905500051613245" lon="9.098686561006506"><ele>541.2</ele><time>2026-04-04T14:40:20.001Z</time></trkpt><trkpt lat="40.90551114844572" lon="9.098567266684272"><ele>540.4000000000001</ele><time>2026-04-04T14:40:22.001Z</time></trkpt><trkpt lat="40.90550854881441" lon="9.09845471749904"><ele>539.5999999999999</ele><time>2026-04-04T14:40:24.001Z</time></trkpt><trkpt lat="40.905518824805796" lon="9.098312367593822"><ele>538.8</ele><time>2026-04-04T14:40:26.001Z</time></trkpt><trkpt lat="40.90554163908004" lon="9.098210354478802"><ele>538.0</ele><time>2026-04-04T14:40:27.001Z</time></trkpt><trkpt lat="40.90556704846106" lon="9.09810018138807"><ele>536.6</ele><time>2026-04-04T14:40:28Z</time></trkpt><trkpt lat="40.90560947302011" lon="9.097985476637684"><ele>535.1999999999999</ele><time>2026-04-04T14:40:29Z</time></trkpt><trkpt lat="40.90567192139093" lon="9.09787095113106"><ele>533.8</ele><time>2026-04-04T14:40:30Z</time></trkpt><trkpt lat="40.905742771661885" lon="9.097754509419598"><ele>532.4</ele><time>2026-04-04T14:40:31Z</time></trkpt><trkpt lat="40.90580722010887" lon="9.097621403523855"><ele>531.0</ele><time>2026-04-04T14:40:32Z</time></trkpt><trkpt lat="40.905873097826685" lon="9.097482124991497"><ele>529.5</ele><time>2026-04-04T14:40:33Z</time></trkpt><trkpt lat="40.90594079519168" lon="9.097338223835978"><ele>528.0</ele><time>2026-04-04T14:40:34Z</time></trkpt><trkpt lat="40.90601026553755" lon="9.097196786064893"><ele>526.5</ele><time>2026-04-04T14:40:35Z</time></trkpt><trkpt lat="40.906079594993585" lon="9.097058581691517"><ele>525.0</ele><time>2026-04-04T14:40:36Z</time></trkpt><trkpt lat="40.906148021566246" lon="9.096931900101191"><ele>525.0</ele><time>2026-04-04T14:40:37Z</time></trkpt><trkpt lat="40.906219909609234" lon="9.096819710308443"><ele>525.0</ele><time>2026-04-04T14:40:38Z</time></trkpt><trkpt lat="40.90631001544926" lon="9.096753996923965"><ele>525.0</ele><time>2026-04-04T14:40:39Z</time></trkpt><trkpt lat="40.90641798656466" lon="9.096754517447724"><ele>525.0</ele><time>2026-04-04T14:40:40Z</time></trkpt><trkpt lat="40.906542309522294" lon="9.096811188986475"><ele>525.0</ele><time>2026-04-04T14:40:41Z</time></trkpt><trkpt lat="40.90668278475712" lon="9.096879254771077"><ele>525.0</ele><time>2026-04-04T14:40:42Z</time></trkpt><trkpt lat="40.906821663637814" lon="9.096906719864949"><ele>525.0</ele><time>2026-04-04T14:40:43Z</time></trkpt><trkpt lat="40.90695122422526" lon="9.09690022035035"><ele>525.0</ele><time>2026-04-04T14:40:44Z</time></trkpt><trkpt lat="40.907058321362534" lon="9.096852792639881"><ele>524.6</ele><time>2026-04-04T14:40:45Z</time></trkpt><trkpt lat="40.90713897481258" lon="9.096774578291946"><ele>524.2</ele><time>2026-04-04T14:40:46Z</time></trkpt><trkpt lat="40.907175255687044" lon="9.096653797031959"><ele>523.8</ele><time>2026-04-04T14:40:47Z</time></trkpt><trkpt lat="40.907193743088044" lon="9.096545768717089"><ele>523.4</ele><time>2026-04-04T14:40:48Z</time></trkpt><trkpt lat="40.90718251035323" lon="9.096417314773193"><ele>523.0</ele><time>2026-04-04T14:40:49Z</time></trkpt><trkpt lat="40.9071891625418" lon="9.096270760179372"><ele>521.0</ele><time>2026-04-04T14:40:50Z</time></trkpt><trkpt lat="40.907193168563374" lon="9.096127104828835"><ele>519.0</ele><time>2026-04-04T14:40:51Z</time></trkpt><trkpt lat="40.907204576739296" lon="9.095994257680351"><ele>517.0</ele><time>2026-04-04T14:40:52Z</time></trkpt><trkpt lat="40.90726909118362" lon="9.095886027537151"><ele>515.0</ele><time>2026-04-04T14:40:53Z</time></trkpt><trkpt lat="40.9073393165232" lon="9.09579040286501"><ele>513.0</ele><time>2026-04-04T14:40:54Z</time></trkpt><trkpt lat="40.90741168875788" lon="9.095713742335958"><ele>512.1666666666666</ele><time>2026-04-04T14:40:55Z</time></trkpt><trkpt lat="40.907493237582614" lon="9.095682571258436"><ele>511.33333333333337</ele><time>2026-04-04T14:40:56Z</time></trkpt><trkpt lat="40.907581049318175" lon="9.09571375031815"><ele>510.5</ele><time>2026-04-04T14:40:57Z</time></trkpt><trkpt lat="40.90763493732615" lon="9.095805580405877"><ele>509.6666666666667</ele><time>2026-04-04T14:40:58Z</time></trkpt><trkpt lat="40.90768940297722" lon="9.09588752288894"><ele>508.83333333333337</ele><time>2026-04-04T14:40:59Z</time></trkpt><trkpt lat="40.9077335567079" lon="9.096005352776503"><ele>508.0</ele><time>2026-04-04T14:41:00Z</time></trkpt><trkpt lat="40.907798612149" lon="9.096107478216132"><ele>508.00000000000006</ele><time>2026-04-04T14:41:01Z</time></trkpt><trkpt lat="40.90787707372788" lon="9.096164010168335"><ele>508.0</ele><time>2026-04-04T14:41:02Z</time></trkpt><trkpt lat="40.907962640089075" lon="9.096181989449402"><ele>508.0</ele><time>2026-04-04T14:41:03Z</time></trkpt><trkpt lat="40.90805169774298" lon="9.096164886139134"><ele>508.0</ele><time>2026-04-04T14:41:04Z</time></trkpt><trkpt lat="40.90813724605521" lon="9.096140796255343"><ele>508.00000000000006</ele><time>2026-04-04T14:41:05Z</time></trkpt><trkpt lat="40.90821922487125" lon="9.09610963501596"><ele>508.0</ele><time>2026-04-04T14:41:06Z</time></trkpt><trkpt lat="40.908299915326225" lon="9.096072473065123"><ele>508.00000000000006</ele><time>2026-04-04T14:41:07Z</time></trkpt><trkpt lat="40.908375869233005" lon="9.096019023639322"><ele>508.0</ele><time>2026-04-04T14:41:08Z</time></trkpt><trkpt lat="40.9084499987695" lon="9.095959606498203"><ele>508.0</ele><time>2026-04-04T14:41:09Z</time></trkpt><trkpt lat="40.90853004183067" lon="9.095929089825672"><ele>508.0</ele><time>2026-04-04T14:41:10Z</time></trkpt><trkpt lat="40.90861282406325" lon="9.095925774082763"><ele>508.00000000000006</ele><time>2026-04-04T14:41:11Z</time></trkpt><trkpt lat="40.90869745048775" lon="9.09593623820141"><ele>508.0</ele><time>2026-04-04T14:41:12Z</time></trkpt><trkpt lat="40.90879129115921" lon="9.095957561150733"><ele>506.79999999999995</ele><time>2026-04-04T14:41:13Z</time></trkpt><trkpt lat="40.90889049130727" lon="9.095978671683659"><ele>505.59999999999997</ele><time>2026-04-04T14:41:14Z</time></trkpt><trkpt lat="40.908992799037094" lon="9.095995495535186"><ele>504.40000000000003</ele><time>2026-04-04T14:41:15Z</time></trkpt><trkpt lat="40.90910046296169" lon="9.096005225408739"><ele>503.20000000000005</ele><time>2026-04-04T14:41:16Z</time></trkpt><trkpt lat="40.90920704207754" lon="9.096017025297444"><ele>502.0</ele><time>2026-04-04T14:41:17Z</time></trkpt><trkpt lat="40.90931315326004" lon="9.096030187358902"><ele>500.25</ele><time>2026-04-04T14:41:18Z</time></trkpt><trkpt lat="40.909417119227726" lon="9.09605050114746"><ele>498.5</ele><time>2026-04-04T14:41:19Z</time></trkpt><trkpt lat="40.90952545567765" lon="9.09611020498725"><ele>496.75</ele><time>2026-04-04T14:41:20Z</time></trkpt><trkpt lat="40.90963922006895" lon="9.096187188937247"><ele>495.0</ele><time>2026-04-04T14:41:21Z</time></trkpt><trkpt lat="40.90975454991155" lon="9.096274458097676"><ele>495.0</ele><time>2026-04-04T14:41:22Z</time></trkpt><trkpt lat="40.90987581193279" lon="9.096362554499114"><ele>495.0</ele><time>2026-04-04T14:41:23Z</time></trkpt><trkpt lat="40.91000005824718" lon="9.096450720500698"><ele>495.0</ele><time>2026-04-04T14:41:24Z</time></trkpt><trkpt lat="40.91010960818956" lon="9.096539430220837"><ele>495.0</ele><time>2026-04-04T14:41:25Z</time></trkpt><trkpt lat="40.91020159411334" lon="9.09664605016874"><ele>494.5</ele><time>2026-04-04T14:41:26Z</time></trkpt><trkpt lat="40.910285412958984" lon="9.09675282866167"><ele>494.0</ele><time>2026-04-04T14:41:27Z</time></trkpt><trkpt lat="40.910377624385525" lon="9.096845150103078"><ele>493.5</ele><time>2026-04-04T14:41:28Z</time></trkpt><trkpt lat="40.91048684987317" lon="9.096905502592342"><ele>493.0</ele><time>2026-04-04T14:41:29Z</time></trkpt><trkpt lat="40.91060700977172" lon="9.096934162339446"><ele>493.0</ele><time>2026-04-04T14:41:30Z</time></trkpt><trkpt lat="40.91073083742026" lon="9.096929063406542"><ele>493.0</ele><time>2026-04-04T14:41:31Z</time></trkpt><trkpt lat="40.910854260854244" lon="9.096915337153657"><ele>493.0</ele><time>2026-04-04T14:41:32Z</time></trkpt><trkpt lat="40.91096988646248" lon="9.096881256256095"><ele>493.0</ele><time>2026-04-04T14:41:33Z</time></trkpt><trkpt lat="40.91107297761743" lon="9.096808847882409"><ele>492.5</ele><time>2026-04-04T14:41:34.001Z</time></trkpt><trkpt lat="40.911163260562866" lon="9.09669322552836"><ele>492.0</ele><time>2026-04-04T14:41:35.001Z</time></trkpt><trkpt lat="40.91122250328388" lon="9.096543400336397"><ele>491.5</ele><time>2026-04-04T14:41:36.001Z</time></trkpt><trkpt lat="40.911264790877674" lon="9.096390488040429"><ele>491.0</ele><time>2026-04-04T14:41:37.001Z</time></trkpt><trkpt lat="40.91131905318058" lon="9.096256468188296"><ele>488.0</ele><time>2026-04-04T14:41:38.001Z</time></trkpt><trkpt lat="40.91139620939676" lon="9.096149707089616"><ele>485.0</ele><time>2026-04-04T14:41:39.001Z</time></trkpt><trkpt lat="40.911491215368706" lon="9.09607768891588"><ele>482.0</ele><time>2026-04-04T14:41:40.001Z</time></trkpt><trkpt lat="40.91160884819418" lon="9.096070301117797"><ele>479.0</ele><time>2026-04-04T14:41:41.001Z</time></trkpt><trkpt lat="40.9117292709304" lon="9.096105342802794"><ele>477.79999999999995</ele><time>2026-04-04T14:41:42.001Z</time></trkpt><trkpt lat="40.91184013027372" lon="9.096126747506807"><ele>476.59999999999997</ele><time>2026-04-04T14:41:43.001Z</time></trkpt><trkpt lat="40.911941757939935" lon="9.096143147367988"><ele>475.4</ele><time>2026-04-04T14:41:44.001Z</time></trkpt><trkpt lat="40.91203205684412" lon="9.09615955960364"><ele>474.2</ele><time>2026-04-04T14:41:45.001Z</time></trkpt><trkpt lat="40.912109515556295" lon="9.096199239650524"><ele>473.0</ele><time>2026-04-04T14:41:46.001Z</time></trkpt><trkpt lat="40.912201771329435" lon="9.096220787114255"><ele>473.0</ele><time>2026-04-04T14:41:48.001Z</time></trkpt><trkpt lat="40.91222149769675" lon="9.096053511092496"><ele>472.99999999999994</ele><time>2026-04-04T14:41:50.001Z</time></trkpt><trkpt lat="40.91217269559009" lon="9.095916000228767"><ele>472.99999999999994</ele><time>2026-04-04T14:41:52.001Z</time></trkpt><trkpt lat="40.912183416766275" lon="9.09582311606947"><ele>473.0</ele><time>2026-04-04T14:41:53.001Z</time></trkpt><trkpt lat="40.912167888262246" lon="9.095734498975437"><ele>473.0</ele><time>2026-04-04T14:41:54.001Z</time></trkpt><trkpt lat="40.91214923937653" lon="9.09564641749055"><ele>470.79999999999995</ele><time>2026-04-04T14:41:55.001Z</time></trkpt><trkpt lat="40.91212981451619" lon="9.095565539123372"><ele>468.59999999999997</ele><time>2026-04-04T14:41:56.001Z</time></trkpt><trkpt lat="40.91210796185569" lon="9.095482115672239"><ele>466.40000000000003</ele><time>2026-04-04T14:42:04.001Z</time></trkpt><trkpt lat="40.91204599828004" lon="9.095312940924215"><ele>464.20000000000005</ele><time>2026-04-04T14:42:08.001Z</time></trkpt><trkpt lat="40.91199690595333" lon="9.09521359945216"><ele>462.0</ele><time>2026-04-04T14:42:09.001Z</time></trkpt><trkpt lat="40.91194315950364" lon="9.09507036338093"><ele>464.0</ele><time>2026-04-04T14:42:10.001Z</time></trkpt><trkpt lat="40.91200384728608" lon="9.09487455723361"><ele>466.0</ele><time>2026-04-04T14:42:11.001Z</time></trkpt><trkpt lat="40.911962306242785" lon="9.094711595944242"><ele>468.0</ele><time>2026-04-04T14:42:12.001Z</time></trkpt><trkpt lat="40.911919004987006" lon="9.094533366872554"><ele>470.0</ele><time>2026-04-04T14:42:13.001Z</time></trkpt><trkpt lat="40.91187560783715" lon="9.0943468944715"><ele>471.0</ele><time>2026-04-04T14:42:14.001Z</time></trkpt><trkpt lat="40.9120869309051" lon="9.094051770764997"><ele>472.0</ele><time>2026-04-04T14:42:15.001Z</time></trkpt><trkpt lat="40.9120488922388" lon="9.093872626217127"><ele>473.0</ele><time>2026-04-04T14:42:16.001Z</time></trkpt><trkpt lat="40.912024724375215" lon="9.093732177123162"><ele>473.0</ele><time>2026-04-04T14:42:17.001Z</time></trkpt><trkpt lat="40.91181339755202" lon="9.093591342046718"><ele>473.0</ele><time>2026-04-04T14:42:18.001Z</time></trkpt><trkpt lat="40.91182601186979" lon="9.093435220123363"><ele>473.0</ele><time>2026-04-04T14:42:19.001Z</time></trkpt><trkpt lat="40.911837674339644" lon="9.093290202177426"><ele>472.0</ele><time>2026-04-04T14:42:20.001Z</time></trkpt><trkpt lat="40.91206116174376" lon="9.093245823227836"><ele>471.0</ele><time>2026-04-04T14:42:21.001Z</time></trkpt><trkpt lat="40.91208857917237" lon="9.093125195244102"><ele>470.0</ele><time>2026-04-04T14:42:22.001Z</time></trkpt><trkpt lat="40.91211542247778" lon="9.09300709303187"><ele>469.0</ele><time>2026-04-04T14:42:23.001Z</time></trkpt><trkpt lat="40.91213690106831" lon="9.092922195081972"><ele>469.0</ele><time>2026-04-04T14:42:24.001Z</time></trkpt><trkpt lat="40.91214485810721" lon="9.09277996136197"><ele>469.0</ele><time>2026-04-04T14:42:26.001Z</time></trkpt><trkpt lat="40.91156814005247" lon="9.092452476354982"><ele>468.0</ele><time>2026-04-04T14:42:27.001Z</time></trkpt><trkpt lat="40.911473746927065" lon="9.092338635459454"><ele>467.0</ele><time>2026-04-04T14:42:28.001Z</time></trkpt><trkpt lat="40.91139699694161" lon="9.092218052616214"><ele>466.0</ele><time>2026-04-04T14:42:29.001Z</time></trkpt><trkpt lat="40.91133521217289" lon="9.092084757961418"><ele>465.0</ele><time>2026-04-04T14:42:30.001Z</time></trkpt><trkpt lat="40.911282435327976" lon="9.091937717814233"><ele>465.0</ele><time>2026-04-04T14:42:31.001Z</time></trkpt><trkpt lat="40.91123544140709" lon="9.091776141371495"><ele>465.0</ele><time>2026-04-04T14:42:32.001Z</time></trkpt><trkpt lat="40.91119598089672" lon="9.09160240610394"><ele>465.0</ele><time>2026-04-04T14:42:33.001Z</time></trkpt><trkpt lat="40.91115931374855" lon="9.091426451662569"><ele>465.0</ele><time>2026-04-04T14:42:34Z</time></trkpt><trkpt lat="40.911103686315435" lon="9.091248817225951"><ele>462.33333333333337</ele><time>2026-04-04T14:42:35Z</time></trkpt><trkpt lat="40.91105107717901" lon="9.091063475287394"><ele>459.6666666666667</ele><time>2026-04-04T14:42:36Z</time></trkpt><trkpt lat="40.91102881025002" lon="9.090839921462525"><ele>457.0</ele><time>2026-04-04T14:42:37Z</time></trkpt><trkpt lat="40.91094310042406" lon="9.09061483295492"><ele>457.0</ele><time>2026-04-04T14:42:38Z</time></trkpt><trkpt lat="40.910870047103394" lon="9.090360465123688"><ele>457.0</ele><time>2026-04-04T14:42:39Z</time></trkpt><trkpt lat="40.910803198396955" lon="9.09011349718614"><ele>457.0</ele><time>2026-04-04T14:42:40Z</time></trkpt><trkpt lat="40.91074771608274" lon="9.089916430528492"><ele>457.0</ele><time>2026-04-04T14:42:41Z</time></trkpt><trkpt lat="40.91070589770205" lon="9.089771020033869"><ele>457.0</ele><time>2026-04-04T14:42:42Z</time></trkpt><trkpt lat="40.910673145043866" lon="9.089640963077953"><ele>457.0</ele><time>2026-04-04T14:42:43Z</time></trkpt><trkpt lat="40.91062902219567" lon="9.089508744399403"><ele>457.0</ele><time>2026-04-04T14:42:44Z</time></trkpt><trkpt lat="40.91056977707206" lon="9.08936145651628"><ele>457.0</ele><time>2026-04-04T14:42:45Z</time></trkpt><trkpt lat="40.910528608929255" lon="9.089243430203469"><ele>457.00000000000006</ele><time>2026-04-04T14:42:46Z</time></trkpt><trkpt lat="40.910499367815405" lon="9.089128311412207"><ele>457.00000000000006</ele><time>2026-04-04T14:42:47Z</time></trkpt><trkpt lat="40.91048187508389" lon="9.088992004807727"><ele>457.0</ele><time>2026-04-04T14:42:48Z</time></trkpt><trkpt lat="40.91045630289322" lon="9.088878023967498"><ele>457.0</ele><time>2026-04-04T14:42:49Z</time></trkpt><trkpt lat="40.91042605996385" lon="9.088745145379464"><ele>457.0</ele><time>2026-04-04T14:42:50Z</time></trkpt><trkpt lat="40.91039247016161" lon="9.088597561615863"><ele>457.0</ele><time>2026-04-04T14:42:51Z</time></trkpt><trkpt lat="40.91034270510774" lon="9.088436377096619"><ele>457.0</ele><time>2026-04-04T14:42:52Z</time></trkpt><trkpt lat="40.910310149851966" lon="9.088255012411047"><ele>457.0</ele><time>2026-04-04T14:42:53Z</time></trkpt><trkpt lat="40.910237527956696" lon="9.08807801001425"><ele>456.75</ele><time>2026-04-04T14:42:54Z</time></trkpt><trkpt lat="40.91019021617474" lon="9.087877894006292"><ele>456.5</ele><time>2026-04-04T14:42:55Z</time></trkpt><trkpt lat="40.910150240610655" lon="9.087686073267307"><ele>456.25</ele><time>2026-04-04T14:42:56Z</time></trkpt><trkpt lat="40.910110467777294" lon="9.087517610022772"><ele>456.0</ele><time>2026-04-04T14:42:57Z</time></trkpt><trkpt lat="40.91007554106303" lon="9.087361500214818"><ele>457.0</ele><time>2026-04-04T14:42:58Z</time></trkpt><trkpt lat="40.910038098135125" lon="9.08720643280431"><ele>458.0</ele><time>2026-04-04T14:42:59Z</time></trkpt><trkpt lat="40.909996126496345" lon="9.087046510185688"><ele>459.0</ele><time>2026-04-04T14:43:00Z</time></trkpt><trkpt lat="40.90996567281989" lon="9.086913286553362"><ele>460.0</ele><time>2026-04-04T14:43:01Z</time></trkpt><trkpt lat="40.90998197360087" lon="9.08675809693002"><ele>459.6666666666667</ele><time>2026-04-04T14:43:02Z</time></trkpt><trkpt lat="40.9099265078855" lon="9.086574523090805"><ele>459.33333333333337</ele><time>2026-04-04T14:43:03Z</time></trkpt><trkpt lat="40.90987122271424" lon="9.08638156167124"><ele>459.0</ele><time>2026-04-04T14:43:04Z</time></trkpt><trkpt lat="40.90978972008662" lon="9.086181832545828"><ele>459.0</ele><time>2026-04-04T14:43:05Z</time></trkpt><trkpt lat="40.90970089310178" lon="9.085982534610359"><ele>459.0</ele><time>2026-04-04T14:43:06Z</time></trkpt><trkpt lat="40.90961667188215" lon="9.085761311738882"><ele>459.0</ele><time>2026-04-04T14:43:07Z</time></trkpt><trkpt lat="40.90951678448835" lon="9.085590826343978"><ele>460.2</ele><time>2026-04-04T14:43:08Z</time></trkpt><trkpt lat="40.90944918046919" lon="9.085448363002541"><ele>461.4</ele><time>2026-04-04T14:43:09Z</time></trkpt><trkpt lat="40.90938162383586" lon="9.08531806605434"><ele>462.6</ele><time>2026-04-04T14:43:10Z</time></trkpt><trkpt lat="40.90932472860001" lon="9.08522199287503"><ele>463.8</ele><time>2026-04-04T14:43:11Z</time></trkpt><trkpt lat="40.90928681613984" lon="9.085152299735572"><ele>465.0</ele><time>2026-04-04T14:43:12Z</time></trkpt><trkpt lat="40.9093259364847" lon="9.08504911762926"><ele>465.0</ele><time>2026-04-04T14:43:17Z</time></trkpt><trkpt lat="40.90942371575419" lon="9.084947195218465"><ele>465.0</ele><time>2026-04-04T14:43:19Z</time></trkpt><trkpt lat="40.909513831575424" lon="9.084825762176614"><ele>465.0</ele><time>2026-04-04T14:43:20Z</time></trkpt><trkpt lat="40.90960833437337" lon="9.084700757934154"><ele>465.0</ele><time>2026-04-04T14:43:21Z</time></trkpt><trkpt lat="40.90970914627668" lon="9.084574995110085"><ele>467.0</ele><time>2026-04-04T14:43:22Z</time></trkpt><trkpt lat="40.909808391400006" lon="9.084471504045721"><ele>469.0</ele><time>2026-04-04T14:43:23Z</time></trkpt><trkpt lat="40.90995749384541" lon="9.08440629210724"><ele>471.0</ele><time>2026-04-04T14:43:24Z</time></trkpt><trkpt lat="40.91010148125933" lon="9.084276543663238"><ele>471.0</ele><time>2026-04-04T14:43:25Z</time></trkpt><trkpt lat="40.910251425723835" lon="9.084126082606762"><ele>471.0</ele><time>2026-04-04T14:43:26Z</time></trkpt><trkpt lat="40.91036022610861" lon="9.084043310139155"><ele>471.0</ele><time>2026-04-04T14:43:27Z</time></trkpt><trkpt lat="40.91043612852334" lon="9.08400820253651"><ele>471.0</ele><time>2026-04-04T14:43:28Z</time></trkpt><trkpt lat="40.91053671192037" lon="9.083983935708305"><ele>471.33333333333337</ele><time>2026-04-04T14:43:29Z</time></trkpt><trkpt lat="40.91067909278109" lon="9.083968217599898"><ele>471.6666666666667</ele><time>2026-04-04T14:43:30Z</time></trkpt><trkpt lat="40.91082838666498" lon="9.083917444375665"><ele>472.0</ele><time>2026-04-04T14:43:31Z</time></trkpt><trkpt lat="40.910934104962536" lon="9.083765262543373"><ele>472.0</ele><time>2026-04-04T14:43:32Z</time></trkpt><trkpt lat="40.91106863046648" lon="9.083647695502254"><ele>472.0</ele><time>2026-04-04T14:43:33Z</time></trkpt><trkpt lat="40.91119306334398" lon="9.08353019545662"><ele>472.0</ele><time>2026-04-04T14:43:34Z</time></trkpt><trkpt lat="40.911306560529134" lon="9.083411161148709"><ele>472.0</ele><time>2026-04-04T14:43:35Z</time></trkpt><trkpt lat="40.91140820755054" lon="9.083284216649568"><ele>472.0</ele><time>2026-04-04T14:43:36Z</time></trkpt><trkpt lat="40.91148796997626" lon="9.08312785211178"><ele>472.0</ele><time>2026-04-04T14:43:37Z</time></trkpt><trkpt lat="40.911569641407276" lon="9.082972618989158"><ele>472.0</ele><time>2026-04-04T14:43:38.001Z</time></trkpt><trkpt lat="40.91167342228923" lon="9.082771410469318"><ele>472.0</ele><time>2026-04-04T14:43:39.001Z</time></trkpt><trkpt lat="40.91178618211325" lon="9.08258836883556"><ele>472.0</ele><time>2026-04-04T14:43:40.001Z</time></trkpt><trkpt lat="40.91188327722513" lon="9.082458371910928"><ele>472.0</ele><time>2026-04-04T14:43:41.001Z</time></trkpt><trkpt lat="40.91197348976549" lon="9.082375611203195"><ele>472.0</ele><time>2026-04-04T14:43:42.001Z</time></trkpt><trkpt lat="40.91204689582264" lon="9.08230780482659"><ele>472.0</ele><time>2026-04-04T14:43:43.001Z</time></trkpt><trkpt lat="40.912114877143104" lon="9.082244554889323"><ele>472.0</ele><time>2026-04-04T14:43:44.001Z</time></trkpt><trkpt lat="40.91219031591209" lon="9.082149057638096"><ele>472.0</ele><time>2026-04-04T14:43:45.001Z</time></trkpt><trkpt lat="40.912292126999894" lon="9.082060758031089"><ele>472.0</ele><time>2026-04-04T14:43:46.001Z</time></trkpt><trkpt lat="40.912403364249855" lon="9.081935341735031"><ele>472.0</ele><time>2026-04-04T14:43:47.001Z</time></trkpt><trkpt lat="40.91255015972992" lon="9.081778494339943"><ele>472.0</ele><time>2026-04-04T14:43:48.001Z</time></trkpt><trkpt lat="40.91268163293597" lon="9.081654050533034"><ele>472.0</ele><time>2026-04-04T14:43:49.001Z</time></trkpt><trkpt lat="40.91279565972424" lon="9.081548970327992"><ele>473.5</ele><time>2026-04-04T14:43:50.001Z</time></trkpt><trkpt lat="40.91289780192769" lon="9.08144111761428"><ele>475.0</ele><time>2026-04-04T14:43:51.001Z</time></trkpt><trkpt lat="40.91299979136984" lon="9.08131074662866"><ele>476.5</ele><time>2026-04-04T14:43:52.001Z</time></trkpt><trkpt lat="40.91311223422161" lon="9.081164075419252"><ele>478.0</ele><time>2026-04-04T14:43:53.001Z</time></trkpt><trkpt lat="40.91323627495912" lon="9.081009275154717"><ele>478.0</ele><time>2026-04-04T14:43:54.001Z</time></trkpt><trkpt lat="40.91335970594884" lon="9.080861353203423"><ele>478.0</ele><time>2026-04-04T14:43:55.001Z</time></trkpt><trkpt lat="40.913481622884696" lon="9.080725710213859"><ele>478.0</ele><time>2026-04-04T14:43:56.001Z</time></trkpt><trkpt lat="40.91360978994554" lon="9.080593255164231"><ele>483.6666666666667</ele><time>2026-04-04T14:43:57.001Z</time></trkpt><trkpt lat="40.91374700900545" lon="9.080462592504292"><ele>489.33333333333337</ele><time>2026-04-04T14:43:58.001Z</time></trkpt><trkpt lat="40.91387715451333" lon="9.080336022298322"><ele>495.0</ele><time>2026-04-04T14:43:59.001Z</time></trkpt><trkpt lat="40.914011005943955" lon="9.08019370913543"><ele>495.0</ele><time>2026-04-04T14:44:00.001Z</time></trkpt><trkpt lat="40.914144779144344" lon="9.080067094272314"><ele>495.0</ele><time>2026-04-04T14:44:01.001Z</time></trkpt><trkpt lat="40.914271834470625" lon="9.079950679272901"><ele>495.0</ele><time>2026-04-04T14:44:02.001Z</time></trkpt><trkpt lat="40.9143941188958" lon="9.07985281589147"><ele>498.6</ele><time>2026-04-04T14:44:03.001Z</time></trkpt><trkpt lat="40.9144984454057" lon="9.079768987940863"><ele>502.2</ele><time>2026-04-04T14:44:04.001Z</time></trkpt><trkpt lat="40.91459833464868" lon="9.079758493931518"><ele>505.79999999999995</ele><time>2026-04-04T14:44:05.001Z</time></trkpt><trkpt lat="40.91468475195319" lon="9.079761346836523"><ele>509.4</ele><time>2026-04-04T14:44:06.001Z</time></trkpt><trkpt lat="40.914779145331444" lon="9.079770970842985"><ele>513.0</ele><time>2026-04-04T14:44:07.001Z</time></trkpt><trkpt lat="40.91489713984799" lon="9.07977498855263"><ele>513.0</ele><time>2026-04-04T14:44:08.001Z</time></trkpt><trkpt lat="40.91501661632763" lon="9.079779106638485"><ele>513.0</ele><time>2026-04-04T14:44:09.001Z</time></trkpt><trkpt lat="40.915112473190966" lon="9.079783117470447"><ele>513.0</ele><time>2026-04-04T14:44:10.001Z</time></trkpt><trkpt lat="40.91521836533758" lon="9.079786176921294"><ele>513.0</ele><time>2026-04-04T14:44:11.001Z</time></trkpt><trkpt lat="40.915344869318915" lon="9.079786957287693"><ele>513.0</ele><time>2026-04-04T14:44:12.001Z</time></trkpt><trkpt lat="40.915451210822226" lon="9.079780838219177"><ele>512.4</ele><time>2026-04-04T14:44:13.001Z</time></trkpt><trkpt lat="40.91552758544628" lon="9.079753809580577"><ele>511.79999999999995</ele><time>2026-04-04T14:44:14.001Z</time></trkpt><trkpt lat="40.91557716632113" lon="9.079677638318017"><ele>511.2</ele><time>2026-04-04T14:44:16.001Z</time></trkpt><trkpt lat="40.91565890375777" lon="9.07962546611652"><ele>510.6</ele><time>2026-04-04T14:44:20.001Z</time></trkpt><trkpt lat="40.91566430716181" lon="9.07944994695095"><ele>510.0</ele><time>2026-04-04T14:44:22.001Z</time></trkpt><trkpt lat="40.915720659190555" lon="9.079312938743202"><ele>510.0</ele><time>2026-04-04T14:44:24.001Z</time></trkpt><trkpt lat="40.915731123840374" lon="9.07915848609778"><ele>510.0</ele><time>2026-04-04T14:44:26.001Z</time></trkpt><trkpt lat="40.915757225167646" lon="9.07901637384272"><ele>510.0</ele><time>2026-04-04T14:44:28.001Z</time></trkpt><trkpt lat="40.91577096993982" lon="9.078889709697295"><ele>510.0</ele><time>2026-04-04T14:44:30.001Z</time></trkpt><trkpt lat="40.915790111110816" lon="9.078776244556149"><ele>510.0</ele><time>2026-04-04T14:44:32.001Z</time></trkpt><trkpt lat="40.91580872085795" lon="9.07867206902356"><ele>509.6</ele><time>2026-04-04T14:44:34.001Z</time></trkpt><trkpt lat="40.91581530046651" lon="9.078557243988152"><ele>509.2</ele><time>2026-04-04T14:44:36.001Z</time></trkpt><trkpt lat="40.915826409322385" lon="9.078459476180253"><ele>508.79999999999995</ele><time>2026-04-04T14:44:37.001Z</time></trkpt><trkpt lat="40.91584150747692" lon="9.078335557631494"><ele>508.4</ele><time>2026-04-04T14:44:38.001Z</time></trkpt><trkpt lat="40.91585460437314" lon="9.0781920102097"><ele>508.0</ele><time>2026-04-04T14:44:39.001Z</time></trkpt><trkpt lat="40.91584824254848" lon="9.078025378459861"><ele>506.0</ele><time>2026-04-04T14:44:40Z</time></trkpt><trkpt lat="40.915826565968445" lon="9.077846180260575"><ele>504.0</ele><time>2026-04-04T14:44:41Z</time></trkpt><trkpt lat="40.91579351694032" lon="9.07764208096365"><ele>502.0</ele><time>2026-04-04T14:44:42Z</time></trkpt><trkpt lat="40.915753842236256" lon="9.077412331518332"><ele>499.0</ele><time>2026-04-04T14:44:43Z</time></trkpt><trkpt lat="40.91571106820196" lon="9.077178783202443"><ele>496.0</ele><time>2026-04-04T14:44:44Z</time></trkpt><trkpt lat="40.915673106566295" lon="9.076958836089203"><ele>493.0</ele><time>2026-04-04T14:44:45Z</time></trkpt><trkpt lat="40.915638434524645" lon="9.076750671420358"><ele>489.33333333333337</ele><time>2026-04-04T14:44:46Z</time></trkpt><trkpt lat="40.91558581124122" lon="9.076554388250383"><ele>485.66666666666663</ele><time>2026-04-04T14:44:47Z</time></trkpt><trkpt lat="40.91550072400786" lon="9.076362498457234"><ele>482.0</ele><time>2026-04-04T14:44:48Z</time></trkpt><trkpt lat="40.91538899039694" lon="9.076185396137317"><ele>482.0</ele><time>2026-04-04T14:44:49Z</time></trkpt><trkpt lat="40.91526988528482" lon="9.076037794230707"><ele>482.0</ele><time>2026-04-04T14:44:50Z</time></trkpt><trkpt lat="40.91517091777589" lon="9.075911469384167"><ele>482.0</ele><time>2026-04-04T14:44:51Z</time></trkpt><trkpt lat="40.915083520293805" lon="9.075783517279193"><ele>482.0</ele><time>2026-04-04T14:44:52Z</time></trkpt><trkpt lat="40.915023609861755" lon="9.075614316135892"><ele>483.3333333333333</ele><time>2026-04-04T14:44:53Z</time></trkpt><trkpt lat="40.915031818267444" lon="9.075400806927423"><ele>484.66666666666663</ele><time>2026-04-04T14:44:54Z</time></trkpt><trkpt lat="40.91501300131413" lon="9.075163059526295"><ele>486.0</ele><time>2026-04-04T14:44:55Z</time></trkpt><trkpt lat="40.91499220319191" lon="9.074926137447244"><ele>483.33333333333337</ele><time>2026-04-04T14:44:56Z</time></trkpt><trkpt lat="40.91494073315352" lon="9.074693644084073"><ele>480.6666666666667</ele><time>2026-04-04T14:44:57Z</time></trkpt><trkpt lat="40.91489270359887" lon="9.07448290170756"><ele>478.0</ele><time>2026-04-04T14:44:58Z</time></trkpt><trkpt lat="40.91486710955921" lon="9.074272699736385"><ele>477.33333333333337</ele><time>2026-04-04T14:44:59Z</time></trkpt><trkpt lat="40.91488352477406" lon="9.074049277427392"><ele>476.66666666666663</ele><time>2026-04-04T14:45:00Z</time></trkpt><trkpt lat="40.914921806438464" lon="9.073815945989146"><ele>476.0</ele><time>2026-04-04T14:45:01Z</time></trkpt><trkpt lat="40.914971709441716" lon="9.073572893650205"><ele>476.0</ele><time>2026-04-04T14:45:02Z</time></trkpt><trkpt lat="40.915026310047175" lon="9.073324426139086"><ele>476.0</ele><time>2026-04-04T14:45:03Z</time></trkpt><trkpt lat="40.91507400103267" lon="9.073090434882804"><ele>476.0</ele><time>2026-04-04T14:45:04Z</time></trkpt><trkpt lat="40.91510711287073" lon="9.07287822434784"><ele>476.25</ele><time>2026-04-04T14:45:05Z</time></trkpt><trkpt lat="40.915142125059084" lon="9.07269495568014"><ele>476.5</ele><time>2026-04-04T14:45:06Z</time></trkpt><trkpt lat="40.915207123716" lon="9.072536615787362"><ele>476.75</ele><time>2026-04-04T14:45:07Z</time></trkpt><trkpt lat="40.9153117368623" lon="9.072402974333563"><ele>477.0</ele><time>2026-04-04T14:45:08Z</time></trkpt><trkpt lat="40.91542935255411" lon="9.07232110224485"><ele>478.40000000000003</ele><time>2026-04-04T14:45:09Z</time></trkpt><trkpt lat="40.91553994451114" lon="9.072262311310466"><ele>479.80000000000007</ele><time>2026-04-04T14:45:10Z</time></trkpt><trkpt lat="40.915629016427815" lon="9.07222303173654"><ele>481.2</ele><time>2026-04-04T14:45:11Z</time></trkpt><trkpt lat="40.915694465994676" lon="9.072200728690252"><ele>482.6</ele><time>2026-04-04T14:45:12Z</time></trkpt><trkpt lat="40.915775705198364" lon="9.072214925551116"><ele>484.0</ele><time>2026-04-04T14:45:14Z</time></trkpt><trkpt lat="40.91578184095403" lon="9.07206304926194"><ele>484.0</ele><time>2026-04-04T14:45:17Z</time></trkpt><trkpt lat="40.91569414831691" lon="9.071937381504739"><ele>484.0</ele><time>2026-04-04T14:45:19Z</time></trkpt><trkpt lat="40.91564048520898" lon="9.071799592556854"><ele>484.0</ele><time>2026-04-04T14:45:20Z</time></trkpt><trkpt lat="40.91556335331353" lon="9.07164506772347"><ele>484.0</ele><time>2026-04-04T14:45:21Z</time></trkpt><trkpt lat="40.915478014155816" lon="9.071471177932139"><ele>485.5</ele><time>2026-04-04T14:45:22Z</time></trkpt><trkpt lat="40.915391922080936" lon="9.07129575416026"><ele>487.0</ele><time>2026-04-04T14:45:23Z</time></trkpt><trkpt lat="40.915300679993145" lon="9.071125426948912"><ele>488.5</ele><time>2026-04-04T14:45:24Z</time></trkpt><trkpt lat="40.915226135006" lon="9.070978726114182"><ele>490.0</ele><time>2026-04-04T14:45:25Z</time></trkpt><trkpt lat="40.915154318034915" lon="9.070845029201505"><ele>489.75</ele><time>2026-04-04T14:45:26Z</time></trkpt><trkpt lat="40.91510174379691" lon="9.070678539731832"><ele>489.5</ele><time>2026-04-04T14:45:27Z</time></trkpt><trkpt lat="40.91506110963316" lon="9.070484478340969"><ele>489.25</ele><time>2026-04-04T14:45:28Z</time></trkpt><trkpt lat="40.91502620574565" lon="9.070299245069345"><ele>489.0</ele><time>2026-04-04T14:45:29Z</time></trkpt><trkpt lat="40.914996375175626" lon="9.07014421479768"><ele>489.0</ele><time>2026-04-04T14:45:30Z</time></trkpt><trkpt lat="40.91495586762584" lon="9.070058685241294"><ele>489.0</ele><time>2026-04-04T14:45:31Z</time></trkpt><trkpt lat="40.914736254508895" lon="9.06996671960633"><ele>489.0</ele><time>2026-04-04T14:45:33Z</time></trkpt><trkpt lat="40.91460615665978" lon="9.069876884996813"><ele>489.0</ele><time>2026-04-04T14:45:34Z</time></trkpt><trkpt lat="40.914470036606794" lon="9.069768852277816"><ele>489.0</ele><time>2026-04-04T14:45:35Z</time></trkpt><trkpt lat="40.914331617996254" lon="9.069636910342501"><ele>489.0</ele><time>2026-04-04T14:45:36Z</time></trkpt><trkpt lat="40.914235230494846" lon="9.069524283257302"><ele>488.5</ele><time>2026-04-04T14:45:37Z</time></trkpt><trkpt lat="40.91414941133269" lon="9.069387706635226"><ele>488.0</ele><time>2026-04-04T14:45:38Z</time></trkpt><trkpt lat="40.91406551687928" lon="9.069236852473862"><ele>487.5</ele><time>2026-04-04T14:45:39Z</time></trkpt><trkpt lat="40.9139747702219" lon="9.069092636843418"><ele>487.0</ele><time>2026-04-04T14:45:40Z</time></trkpt><trkpt lat="40.91389731480644" lon="9.068942242653737"><ele>489.0</ele><time>2026-04-04T14:45:41Z</time></trkpt><trkpt lat="40.91381091159011" lon="9.068787172878794"><ele>491.0</ele><time>2026-04-04T14:45:42Z</time></trkpt><trkpt lat="40.913710417618425" lon="9.068614207202131"><ele>493.0</ele><time>2026-04-04T14:45:43Z</time></trkpt><trkpt lat="40.91360906175626" lon="9.068416413364123"><ele>492.33333333333337</ele><time>2026-04-04T14:45:44.001Z</time></trkpt><trkpt lat="40.913461602663475" lon="9.068253139361708"><ele>491.66666666666663</ele><time>2026-04-04T14:45:45.001Z</time></trkpt><trkpt lat="40.91333931983749" lon="9.068062621258942"><ele>491.0</ele><time>2026-04-04T14:45:46.001Z</time></trkpt><trkpt lat="40.9132200081813" lon="9.067895332664284"><ele>491.0</ele><time>2026-04-04T14:45:47.001Z</time></trkpt><trkpt lat="40.91310099835422" lon="9.067726640513355"><ele>491.0</ele><time>2026-04-04T14:45:48.001Z</time></trkpt><trkpt lat="40.912987955522574" lon="9.067562527802652"><ele>491.0</ele><time>2026-04-04T14:45:49.001Z</time></trkpt><trkpt lat="40.912878445614055" lon="9.067393827669386"><ele>493.0</ele><time>2026-04-04T14:45:50.001Z</time></trkpt><trkpt lat="40.91275216695562" lon="9.067247266899662"><ele>495.0</ele><time>2026-04-04T14:45:51.001Z</time></trkpt><trkpt lat="40.91263838583292" lon="9.06708459996658"><ele>497.0</ele><time>2026-04-04T14:45:52.001Z</time></trkpt><trkpt lat="40.91249414475954" lon="9.066947816142479"><ele>497.66666666666663</ele><time>2026-04-04T14:45:53.001Z</time></trkpt><trkpt lat="40.91234881113001" lon="9.066815830576063"><ele>498.33333333333337</ele><time>2026-04-04T14:45:54.001Z</time></trkpt><trkpt lat="40.91220743141938" lon="9.06668639917545"><ele>499.0</ele><time>2026-04-04T14:45:55.001Z</time></trkpt><trkpt lat="40.91208115423441" lon="9.066566707839977"><ele>501.75</ele><time>2026-04-04T14:45:56.001Z</time></trkpt><trkpt lat="40.91196795729654" lon="9.06645848900326"><ele>504.5</ele><time>2026-04-04T14:45:57.001Z</time></trkpt><trkpt lat="40.91185350840897" lon="9.06636537479331"><ele>507.25</ele><time>2026-04-04T14:45:58.001Z</time></trkpt><trkpt lat="40.91173501960577" lon="9.066300496344878"><ele>510.0</ele><time>2026-04-04T14:45:59.001Z</time></trkpt><trkpt lat="40.91160355860743" lon="9.066247736891482"><ele>510.0</ele><time>2026-04-04T14:46:00.001Z</time></trkpt><trkpt lat="40.911457512508576" lon="9.066192011105498"><ele>510.0</ele><time>2026-04-04T14:46:01.001Z</time></trkpt><trkpt lat="40.91130534054219" lon="9.06613550281265"><ele>510.0</ele><time>2026-04-04T14:46:02.001Z</time></trkpt><trkpt lat="40.911150772218896" lon="9.066078103044111"><ele>510.0</ele><time>2026-04-04T14:46:03.001Z</time></trkpt><trkpt lat="40.910995365342764" lon="9.066020391915208"><ele>510.0</ele><time>2026-04-04T14:46:04.001Z</time></trkpt><trkpt lat="40.91084100282659" lon="9.065957572169973"><ele>510.0</ele><time>2026-04-04T14:46:05.001Z</time></trkpt><trkpt lat="40.9106973101982" lon="9.065894378791846"><ele>509.66666666666663</ele><time>2026-04-04T14:46:06.001Z</time></trkpt><trkpt lat="40.91056858521977" lon="9.065811840992792"><ele>509.3333333333333</ele><time>2026-04-04T14:46:07.001Z</time></trkpt><trkpt lat="40.91042368867745" lon="9.065700930439162"><ele>509.0</ele><time>2026-04-04T14:46:08.001Z</time></trkpt><trkpt lat="40.91028036661219" lon="9.065585116793361"><ele>511.5</ele><time>2026-04-04T14:46:09.001Z</time></trkpt><trkpt lat="40.910158652525794" lon="9.06548676627768"><ele>514.0</ele><time>2026-04-04T14:46:10.001Z</time></trkpt><trkpt lat="40.91006841456565" lon="9.065388179650984"><ele>516.5</ele><time>2026-04-04T14:46:11.001Z</time></trkpt><trkpt lat="40.90998989353333" lon="9.065268338747762"><ele>519.0</ele><time>2026-04-04T14:46:12.001Z</time></trkpt><trkpt lat="40.90992208557415" lon="9.065135958690394"><ele>519.0</ele><time>2026-04-04T14:46:13.001Z</time></trkpt><trkpt lat="40.9098468136833" lon="9.064981112767004"><ele>519.0</ele><time>2026-04-04T14:46:14.001Z</time></trkpt><trkpt lat="40.909783877753576" lon="9.064829319906199"><ele>519.0</ele><time>2026-04-04T14:46:15.001Z</time></trkpt><trkpt lat="40.90973367367526" lon="9.064709798542504"><ele>519.0</ele><time>2026-04-04T14:46:16.001Z</time></trkpt><trkpt lat="40.909735332949275" lon="9.064602972557628"><ele>521.0</ele><time>2026-04-04T14:46:17.001Z</time></trkpt><trkpt lat="40.909761471464364" lon="9.064519319243384"><ele>523.0</ele><time>2026-04-04T14:46:18.001Z</time></trkpt><trkpt lat="40.909801162140326" lon="9.064436951625039"><ele>525.0</ele><time>2026-04-04T14:46:19.001Z</time></trkpt><trkpt lat="40.9098579695003" lon="9.064307432701952"><ele>527.0</ele><time>2026-04-04T14:46:21.001Z</time></trkpt><trkpt lat="40.90989463393467" lon="9.06417292991722"><ele>529.0</ele><time>2026-04-04T14:46:23.001Z</time></trkpt><trkpt lat="40.90992283388767" lon="9.06405470041708"><ele>531.0</ele><time>2026-04-04T14:46:25.001Z</time></trkpt><trkpt lat="40.90995087344069" lon="9.063941609450703"><ele>533.0</ele><time>2026-04-04T14:46:27.001Z</time></trkpt><trkpt lat="40.90993504786557" lon="9.0638127536113"><ele>535.0</ele><time>2026-04-04T14:46:29.001Z</time></trkpt><trkpt lat="40.90985503760584" lon="9.063696924065988"><ele>537.0</ele><time>2026-04-04T14:46:31.001Z</time></trkpt><trkpt lat="40.90980537163246" lon="9.063645260287364"><ele>539.0</ele><time>2026-04-04T14:46:32.001Z</time></trkpt><trkpt lat="40.909771444073606" lon="9.063565592831084"><ele>541.0</ele><time>2026-04-04T14:46:33.001Z</time></trkpt><trkpt lat="40.90972250024187" lon="9.063493338773856"><ele>541.0</ele><time>2026-04-04T14:46:34.001Z</time></trkpt><trkpt lat="40.90968014431392" lon="9.063422380377428"><ele>541.0</ele><time>2026-04-04T14:46:35.001Z</time></trkpt><trkpt lat="40.909694310820115" lon="9.063324290860258"><ele>541.0</ele><time>2026-04-04T14:46:36.001Z</time></trkpt><trkpt lat="40.90976147391731" lon="9.06325997546732"><ele>541.0</ele><time>2026-04-04T14:46:37.001Z</time></trkpt><trkpt lat="40.9098553895479" lon="9.063177840253514"><ele>541.0</ele><time>2026-04-04T14:46:38.001Z</time></trkpt><trkpt lat="40.909957661226876" lon="9.063073556250808"><ele>542.0</ele><time>2026-04-04T14:46:39.001Z</time></trkpt><trkpt lat="40.90999738804158" lon="9.062992114625562"><ele>543.0</ele><time>2026-04-04T14:46:40.001Z</time></trkpt><trkpt lat="40.91000192510064" lon="9.062899155628603"><ele>544.0</ele><time>2026-04-04T14:46:41.001Z</time></trkpt><trkpt lat="40.910008545800814" lon="9.062790732955193"><ele>545.0</ele><time>2026-04-04T14:46:42.001Z</time></trkpt><trkpt lat="40.91000145452954" lon="9.06267000345282"><ele>546.0</ele><time>2026-04-04T14:46:43.001Z</time></trkpt><trkpt lat="40.909971502494244" lon="9.062552357101762"><ele>547.0</ele><time>2026-04-04T14:46:44.001Z</time></trkpt><trkpt lat="40.90996556441942" lon="9.062407981766956"><ele>550.0</ele><time>2026-04-04T14:46:45.001Z</time></trkpt><trkpt lat="40.909922810494024" lon="9.062245633429985"><ele>553.0</ele><time>2026-04-04T14:46:46Z</time></trkpt><trkpt lat="40.90984586268394" lon="9.062139716720695"><ele>556.0</ele><time>2026-04-04T14:46:47Z</time></trkpt><trkpt lat="40.90974884483005" lon="9.062049344579581"><ele>559.0</ele><time>2026-04-04T14:46:48Z</time></trkpt><trkpt lat="40.90962914771257" lon="9.061935763348352"><ele>559.0</ele><time>2026-04-04T14:46:49Z</time></trkpt><trkpt lat="40.90948901393311" lon="9.061821591378111"><ele>559.0</ele><time>2026-04-04T14:46:50Z</time></trkpt><trkpt lat="40.909354197371854" lon="9.061703392068427"><ele>559.0</ele><time>2026-04-04T14:46:51Z</time></trkpt><trkpt lat="40.909223840873835" lon="9.061570361457"><ele>562.0</ele><time>2026-04-04T14:46:52Z</time></trkpt><trkpt lat="40.90910850967144" lon="9.061424749000087"><ele>565.0</ele><time>2026-04-04T14:46:53Z</time></trkpt><trkpt lat="40.9089935401079" lon="9.061282794530069"><ele>568.0</ele><time>2026-04-04T14:46:54Z</time></trkpt><trkpt lat="40.908883969801515" lon="9.061141562734388"><ele>568.0</ele><time>2026-04-04T14:46:55Z</time></trkpt><trkpt lat="40.90877846767121" lon="9.060998958748899"><ele>568.0</ele><time>2026-04-04T14:46:56Z</time></trkpt><trkpt lat="40.908663313060934" lon="9.060869017338762"><ele>568.0</ele><time>2026-04-04T14:46:57Z</time></trkpt><trkpt lat="40.9085620835464" lon="9.060709764208415"><ele>564.6666666666667</ele><time>2026-04-04T14:46:58Z</time></trkpt><trkpt lat="40.90849504648839" lon="9.060529930182348"><ele>561.3333333333334</ele><time>2026-04-04T14:46:59Z</time></trkpt><trkpt lat="40.90838093670385" lon="9.060351530270372"><ele>558.0</ele><time>2026-04-04T14:47:00Z</time></trkpt><trkpt lat="40.9082797294051" lon="9.060203647165388"><ele>558.0</ele><time>2026-04-04T14:47:01Z</time></trkpt><trkpt lat="40.908198169541954" lon="9.060087203118421"><ele>558.0</ele><time>2026-04-04T14:47:02Z</time></trkpt><trkpt lat="40.908154722121324" lon="9.05993223504031"><ele>558.0</ele><time>2026-04-04T14:47:03Z</time></trkpt><trkpt lat="40.90809592653437" lon="9.05977067549825"><ele>558.0</ele><time>2026-04-04T14:47:04Z</time></trkpt><trkpt lat="40.908056892966734" lon="9.059591933675426"><ele>560.75</ele><time>2026-04-04T14:47:05Z</time></trkpt><trkpt lat="40.90800812851393" lon="9.059408963613095"><ele>563.5</ele><time>2026-04-04T14:47:06Z</time></trkpt><trkpt lat="40.907962152615696" lon="9.05922546092563"><ele>566.25</ele><time>2026-04-04T14:47:07Z</time></trkpt><trkpt lat="40.90792631113841" lon="9.059055432496676"><ele>569.0</ele><time>2026-04-04T14:47:08Z</time></trkpt><trkpt lat="40.90787016557696" lon="9.058912201961189"><ele>564.0</ele><time>2026-04-04T14:47:09Z</time></trkpt><trkpt lat="40.90777702548048" lon="9.058780249614024"><ele>559.0</ele><time>2026-04-04T14:47:10Z</time></trkpt><trkpt lat="40.90766135120525" lon="9.05859753622224"><ele>554.0</ele><time>2026-04-04T14:47:11Z</time></trkpt><trkpt lat="40.90755840007967" lon="9.058374349669814"><ele>557.0</ele><time>2026-04-04T14:47:12Z</time></trkpt><trkpt lat="40.907473078114215" lon="9.05813164178222"><ele>560.0</ele><time>2026-04-04T14:47:13Z</time></trkpt><trkpt lat="40.907402307220345" lon="9.057864313658651"><ele>563.0</ele><time>2026-04-04T14:47:14Z</time></trkpt><trkpt lat="40.907346321916236" lon="9.05762934167397"><ele>564.1999999999999</ele><time>2026-04-04T14:47:15Z</time></trkpt><trkpt lat="40.90731087854257" lon="9.057446484141375"><ele>565.4</ele><time>2026-04-04T14:47:16Z</time></trkpt><trkpt lat="40.90729839563775" lon="9.057314920312631"><ele>566.5999999999999</ele><time>2026-04-04T14:47:17Z</time></trkpt><trkpt lat="40.9073518458332" lon="9.057251975789612"><ele>567.8</ele><time>2026-04-04T14:48:06.001Z</time></trkpt><trkpt lat="40.90739736087115" lon="9.057180175455152"><ele>569.0</ele><time>2026-04-04T14:48:09.001Z</time></trkpt><trkpt lat="40.907465445359044" lon="9.057111841062367"><ele>569.0</ele><time>2026-04-04T14:48:12.001Z</time></trkpt><trkpt lat="40.90753169747447" lon="9.057027965877403"><ele>569.0</ele><time>2026-04-04T14:48:42.001Z</time></trkpt><trkpt lat="40.907575904072786" lon="9.056968218167857"><ele>569.0</ele><time>2026-04-04T14:48:43.001Z</time></trkpt><trkpt lat="40.90761207772636" lon="9.0568875094863"><ele>569.0</ele><time>2026-04-04T14:48:44.001Z</time></trkpt><trkpt lat="40.90758154419493" lon="9.056756420043504"><ele>569.0</ele><time>2026-04-04T14:48:46.001Z</time></trkpt><trkpt lat="40.90751847269253" lon="9.056689330522726"><ele>569.0</ele><time>2026-04-04T14:48:47.001Z</time></trkpt><trkpt lat="40.907435401858145" lon="9.056616233439353"><ele>570.4</ele><time>2026-04-04T14:48:48.001Z</time></trkpt><trkpt lat="40.90734178430611" lon="9.056531792518477"><ele>571.8</ele><time>2026-04-04T14:48:49.001Z</time></trkpt><trkpt lat="40.90724548835031" lon="9.056438065432891"><ele>573.2</ele><time>2026-04-04T14:48:50.001Z</time></trkpt><trkpt lat="40.907157553900696" lon="9.056349973521225"><ele>574.6</ele><time>2026-04-04T14:48:51.001Z</time></trkpt><trkpt lat="40.90707784904844" lon="9.05628177490685"><ele>576.0</ele><time>2026-04-04T14:48:52Z</time></trkpt><trkpt lat="40.907031145770304" lon="9.056189795879149"><ele>576.0</ele><time>2026-04-04T14:48:53Z</time></trkpt><trkpt lat="40.9070181084397" lon="9.056082690867065"><ele>576.0</ele><time>2026-04-04T14:48:54Z</time></trkpt><trkpt lat="40.90703569108492" lon="9.055977777084808"><ele>576.0</ele><time>2026-04-04T14:48:55Z</time></trkpt><trkpt lat="40.90707232075846" lon="9.055858094569052"><ele>576.0</ele><time>2026-04-04T14:48:56Z</time></trkpt><trkpt lat="40.90712655446127" lon="9.055750957589378"><ele>576.0</ele><time>2026-04-04T14:48:57Z</time></trkpt><trkpt lat="40.907201444993035" lon="9.05568416301608"><ele>576.0</ele><time>2026-04-04T14:48:58Z</time></trkpt><trkpt lat="40.90727919448753" lon="9.055615433674383"><ele>574.0</ele><time>2026-04-04T14:48:59Z</time></trkpt><trkpt lat="40.90735576370157" lon="9.055519894407134"><ele>572.0</ele><time>2026-04-04T14:49:00Z</time></trkpt><trkpt lat="40.907454585463675" lon="9.055424185963032"><ele>570.0</ele><time>2026-04-04T14:49:01Z</time></trkpt><trkpt lat="40.90755061659682" lon="9.055302756323938"><ele>568.0</ele><time>2026-04-04T14:49:02Z</time></trkpt><trkpt lat="40.90763509555688" lon="9.055179529038302"><ele>570.8</ele><time>2026-04-04T14:49:03Z</time></trkpt><trkpt lat="40.907702740522396" lon="9.055074161140325"><ele>573.5999999999999</ele><time>2026-04-04T14:49:04Z</time></trkpt><trkpt lat="40.90775801985112" lon="9.054970188470701"><ele>576.4000000000001</ele><time>2026-04-04T14:49:05Z</time></trkpt><trkpt lat="40.90780392073296" lon="9.054866106830305"><ele>579.2</ele><time>2026-04-04T14:49:06Z</time></trkpt><trkpt lat="40.90783075716914" lon="9.054735857259564"><ele>582.0</ele><time>2026-04-04T14:49:07Z</time></trkpt><trkpt lat="40.90784235702445" lon="9.054591895707722"><ele>582.0</ele><time>2026-04-04T14:49:08Z</time></trkpt><trkpt lat="40.90785311683901" lon="9.0544533037462"><ele>582.0</ele><time>2026-04-04T14:49:09Z</time></trkpt><trkpt lat="40.9078843132389" lon="9.054323406191926"><ele>582.0</ele><time>2026-04-04T14:49:10Z</time></trkpt><trkpt lat="40.90791066451092" lon="9.054195864748348"><ele>582.0</ele><time>2026-04-04T14:49:11Z</time></trkpt><trkpt lat="40.9079264143126" lon="9.054060392165042"><ele>582.0</ele><time>2026-04-04T14:49:12Z</time></trkpt><trkpt lat="40.90796643760806" lon="9.053918111737966"><ele>581.25</ele><time>2026-04-04T14:49:13Z</time></trkpt><trkpt lat="40.9080048963647" lon="9.053767973881296"><ele>580.5</ele><time>2026-04-04T14:49:14Z</time></trkpt><trkpt lat="40.90804113853432" lon="9.053622068415535"><ele>579.75</ele><time>2026-04-04T14:49:15Z</time></trkpt><trkpt lat="40.908080592988604" lon="9.053466072393963"><ele>579.0</ele><time>2026-04-04T14:49:16Z</time></trkpt><trkpt lat="40.90811644065096" lon="9.053311286019943"><ele>579.5</ele><time>2026-04-04T14:49:17Z</time></trkpt><trkpt lat="40.908138978652026" lon="9.053161040685293"><ele>580.0</ele><time>2026-04-04T14:49:18Z</time></trkpt><trkpt lat="40.90814501419834" lon="9.052992851442449"><ele>580.5</ele><time>2026-04-04T14:49:19Z</time></trkpt><trkpt lat="40.9081424139113" lon="9.052809235017643"><ele>581.0</ele><time>2026-04-04T14:49:20Z</time></trkpt><trkpt lat="40.90815374465806" lon="9.052630645012544"><ele>581.0</ele><time>2026-04-04T14:49:21Z</time></trkpt><trkpt lat="40.908153381402215" lon="9.052463191761571"><ele>581.0</ele><time>2026-04-04T14:49:22Z</time></trkpt><trkpt lat="40.90818347999965" lon="9.05229721367605"><ele>581.0</ele><time>2026-04-04T14:49:23Z</time></trkpt><trkpt lat="40.90821838438656" lon="9.052140798820252"><ele>581.0</ele><time>2026-04-04T14:49:24Z</time></trkpt><trkpt lat="40.9082451435583" lon="9.051999072518674"><ele>581.8</ele><time>2026-04-04T14:49:25Z</time></trkpt><trkpt lat="40.908254580674196" lon="9.051871666027683"><ele>582.6</ele><time>2026-04-04T14:49:26Z</time></trkpt><trkpt lat="40.90824698985821" lon="9.051737934480316"><ele>583.4</ele><time>2026-04-04T14:49:27Z</time></trkpt><trkpt lat="40.90821437753476" lon="9.0515964633453"><ele>584.2</ele><time>2026-04-04T14:49:28Z</time></trkpt><trkpt lat="40.90816467196816" lon="9.051458134003088"><ele>585.0</ele><time>2026-04-04T14:49:29Z</time></trkpt><trkpt lat="40.90814522010803" lon="9.05130887034434"><ele>585.25</ele><time>2026-04-04T14:49:30Z</time></trkpt><trkpt lat="40.90811108589584" lon="9.05115306393979"><ele>585.5</ele><time>2026-04-04T14:49:31Z</time></trkpt><trkpt lat="40.90810387022772" lon="9.050983134426081"><ele>585.75</ele><time>2026-04-04T14:49:32Z</time></trkpt><trkpt lat="40.90809595361747" lon="9.050803446986345"><ele>586.0</ele><time>2026-04-04T14:49:33Z</time></trkpt><trkpt lat="40.90808588117189" lon="9.050633042118012"><ele>587.25</ele><time>2026-04-04T14:49:34Z</time></trkpt><trkpt lat="40.90811610298537" lon="9.050473458862156"><ele>588.5</ele><time>2026-04-04T14:49:35Z</time></trkpt><trkpt lat="40.908124036476295" lon="9.050312459843216"><ele>589.75</ele><time>2026-04-04T14:49:36Z</time></trkpt><trkpt lat="40.90814060752768" lon="9.050168652963741"><ele>591.0</ele><time>2026-04-04T14:49:37Z</time></trkpt><trkpt lat="40.908136250444365" lon="9.050028333141283"><ele>592.25</ele><time>2026-04-04T14:49:38Z</time></trkpt><trkpt lat="40.908094399060666" lon="9.049874366103579"><ele>593.5</ele><time>2026-04-04T14:49:39Z</time></trkpt><trkpt lat="40.9080318225244" lon="9.049719301705156"><ele>594.75</ele><time>2026-04-04T14:49:40Z</time></trkpt><trkpt lat="40.90799814792761" lon="9.049579362481763"><ele>596.0</ele><time>2026-04-04T14:49:41Z</time></trkpt><trkpt lat="40.907974799461286" lon="9.049455448318216"><ele>596.0</ele><time>2026-04-04T14:49:42Z</time></trkpt><trkpt lat="40.90794213271796" lon="9.049344780217297"><ele>596.0</ele><time>2026-04-04T14:49:43Z</time></trkpt><trkpt lat="40.90793874945485" lon="9.049237305287885"><ele>596.0</ele><time>2026-04-04T14:49:44Z</time></trkpt><trkpt lat="40.907937448146534" lon="9.049107610510944"><ele>596.0</ele><time>2026-04-04T14:49:45Z</time></trkpt><trkpt lat="40.90795143616514" lon="9.048953881157695"><ele>596.0</ele><time>2026-04-04T14:49:46Z</time></trkpt><trkpt lat="40.907995961019424" lon="9.048791698468825"><ele>596.25</ele><time>2026-04-04T14:49:47Z</time></trkpt><trkpt lat="40.908025979531544" lon="9.048595207954722"><ele>596.5</ele><time>2026-04-04T14:49:48Z</time></trkpt><trkpt lat="40.908065197673174" lon="9.048404358182447"><ele>596.75</ele><time>2026-04-04T14:49:49Z</time></trkpt><trkpt lat="40.90808340772861" lon="9.048233085851546"><ele>597.0</ele><time>2026-04-04T14:49:50Z</time></trkpt><trkpt lat="40.90807100147667" lon="9.048072332131344"><ele>596.25</ele><time>2026-04-04T14:49:51Z</time></trkpt><trkpt lat="40.90805501487199" lon="9.047910186068583"><ele>595.5</ele><time>2026-04-04T14:49:52Z</time></trkpt><trkpt lat="40.90803752854218" lon="9.047746982289382"><ele>594.75</ele><time>2026-04-04T14:49:53Z</time></trkpt><trkpt lat="40.90800366162644" lon="9.04759136805314"><ele>594.0</ele><time>2026-04-04T14:49:54Z</time></trkpt><trkpt lat="40.90796456403945" lon="9.04747095817603"><ele>592.1666666666666</ele><time>2026-04-04T14:49:55Z</time></trkpt><trkpt lat="40.907948305757074" lon="9.047371121253512"><ele>590.3333333333334</ele><time>2026-04-04T14:49:56Z</time></trkpt><trkpt lat="40.90797650048325" lon="9.047296150767712"><ele>588.5</ele><time>2026-04-04T14:49:57.001Z</time></trkpt><trkpt lat="40.9080361864644" lon="9.047248300497593"><ele>586.6666666666667</ele><time>2026-04-04T14:49:58.001Z</time></trkpt><trkpt lat="40.908130728101476" lon="9.047274411929786"><ele>584.8333333333334</ele><time>2026-04-04T14:49:59.001Z</time></trkpt><trkpt lat="40.908244268604726" lon="9.047298535231139"><ele>583.0</ele><time>2026-04-04T14:50:00.001Z</time></trkpt><trkpt lat="40.90838694905169" lon="9.047301784405075"><ele>587.3333333333334</ele><time>2026-04-04T14:50:01.001Z</time></trkpt><trkpt lat="40.908546144958784" lon="9.047327352473223"><ele>591.6666666666666</ele><time>2026-04-04T14:50:02.001Z</time></trkpt><trkpt lat="40.90874442539993" lon="9.047347524053166"><ele>596.0</ele><time>2026-04-04T14:50:03.001Z</time></trkpt><trkpt lat="40.908921000302364" lon="9.047362038554219"><ele>596.0</ele><time>2026-04-04T14:50:04.001Z</time></trkpt><trkpt lat="40.909056047460744" lon="9.047366981408892"><ele>596.0</ele><time>2026-04-04T14:50:05.001Z</time></trkpt><trkpt lat="40.90916249849345" lon="9.047366230778529"><ele>596.0</ele><time>2026-04-04T14:50:06.001Z</time></trkpt><trkpt lat="40.90923515657749" lon="9.047349892054651"><ele>596.0</ele><time>2026-04-04T14:50:07.001Z</time></trkpt><trkpt lat="40.90929282898479" lon="9.047309898620618"><ele>596.0</ele><time>2026-04-04T14:50:08.001Z</time></trkpt><trkpt lat="40.909319720113906" lon="9.047217029650604"><ele>599.25</ele><time>2026-04-04T14:50:09.001Z</time></trkpt><trkpt lat="40.909336712745045" lon="9.047084907616528"><ele>602.5</ele><time>2026-04-04T14:50:10.001Z</time></trkpt><trkpt lat="40.9093422109709" lon="9.046940406507924"><ele>605.75</ele><time>2026-04-04T14:50:11.001Z</time></trkpt><trkpt lat="40.90935639523186" lon="9.046794952176139"><ele>609.0</ele><time>2026-04-04T14:50:12.001Z</time></trkpt><trkpt lat="40.90939700942696" lon="9.046632834062152"><ele>608.0</ele><time>2026-04-04T14:50:13.001Z</time></trkpt><trkpt lat="40.909461734094506" lon="9.046448920502604"><ele>607.0</ele><time>2026-04-04T14:50:14.001Z</time></trkpt><trkpt lat="40.909517916270296" lon="9.0462631139178"><ele>606.0</ele><time>2026-04-04T14:50:15.001Z</time></trkpt><trkpt lat="40.909568025476574" lon="9.046112607870468"><ele>605.0</ele><time>2026-04-04T14:50:16.001Z</time></trkpt><trkpt lat="40.90961237046606" lon="9.045975533138357"><ele>605.0</ele><time>2026-04-04T14:50:17.001Z</time></trkpt><trkpt lat="40.90964490300253" lon="9.04581938054587"><ele>605.0</ele><time>2026-04-04T14:50:18.001Z</time></trkpt><trkpt lat="40.909650167982235" lon="9.045631479302436"><ele>605.0</ele><time>2026-04-04T14:50:19.001Z</time></trkpt><trkpt lat="40.909637819939555" lon="9.045423206651598"><ele>605.0</ele><time>2026-04-04T14:50:20.001Z</time></trkpt><trkpt lat="40.90962404082935" lon="9.045211725213669"><ele>603.6</ele><time>2026-04-04T14:50:21.001Z</time></trkpt><trkpt lat="40.909617693651505" lon="9.045040821910142"><ele>602.2</ele><time>2026-04-04T14:50:22.001Z</time></trkpt><trkpt lat="40.90961325115177" lon="9.044925928528828"><ele>600.8</ele><time>2026-04-04T14:50:23.001Z</time></trkpt><trkpt lat="40.90961468597237" lon="9.044807657921051"><ele>599.4</ele><time>2026-04-04T14:50:24.001Z</time></trkpt><trkpt lat="40.90965341744802" lon="9.044667157075457"><ele>598.0</ele><time>2026-04-04T14:50:25.001Z</time></trkpt><trkpt lat="40.90968900176168" lon="9.044495318450835"><ele>597.0</ele><time>2026-04-04T14:50:26.001Z</time></trkpt><trkpt lat="40.90972611483001" lon="9.044325947645858"><ele>596.0</ele><time>2026-04-04T14:50:27.001Z</time></trkpt><trkpt lat="40.90975342607294" lon="9.044180599305303"><ele>595.0</ele><time>2026-04-04T14:50:28.001Z</time></trkpt><trkpt lat="40.90977607521674" lon="9.044062449030553"><ele>594.0</ele><time>2026-04-04T14:50:29.001Z</time></trkpt><trkpt lat="40.90978659576928" lon="9.04396373164259"><ele>593.0</ele><time>2026-04-04T14:50:30.001Z</time></trkpt><trkpt lat="40.909751679196184" lon="9.04381551924863"><ele>589.6666666666666</ele><time>2026-04-04T14:50:31.001Z</time></trkpt><trkpt lat="40.90970194478236" lon="9.043653373218172"><ele>586.3333333333334</ele><time>2026-04-04T14:50:32.001Z</time></trkpt><trkpt lat="40.90961718794441" lon="9.04344691112445"><ele>583.0</ele><time>2026-04-04T14:50:33.001Z</time></trkpt><trkpt lat="40.90954575044773" lon="9.043259916953126"><ele>580.25</ele><time>2026-04-04T14:50:34.001Z</time></trkpt><trkpt lat="40.90949677187229" lon="9.043087258114952"><ele>577.5</ele><time>2026-04-04T14:50:35.001Z</time></trkpt><trkpt lat="40.90943427449764" lon="9.042931834975477"><ele>574.75</ele><time>2026-04-04T14:50:36.001Z</time></trkpt><trkpt lat="40.909378125309566" lon="9.04279328368275"><ele>572.0</ele><time>2026-04-04T14:50:37.001Z</time></trkpt><trkpt lat="40.90932966057706" lon="9.042673694285588"><ele>572.0</ele><time>2026-04-04T14:50:38.001Z</time></trkpt><trkpt lat="40.909287934716765" lon="9.04257073343052"><ele>572.0</ele><time>2026-04-04T14:50:39.001Z</time></trkpt><trkpt lat="40.909257199385095" lon="9.042494891572355"><ele>572.0</ele><time>2026-04-04T14:50:40.001Z</time></trkpt><trkpt lat="40.90924920871337" lon="9.042383178488876"><ele>572.0</ele><time>2026-04-04T14:50:42.001Z</time></trkpt><trkpt lat="40.909303592635176" lon="9.042337047319831"><ele>572.0</ele><time>2026-04-04T14:50:43.001Z</time></trkpt><trkpt lat="40.90937793270422" lon="9.042311694239455"><ele>572.0</ele><time>2026-04-04T14:50:44.001Z</time></trkpt><trkpt lat="40.90946965517121" lon="9.042315733376764"><ele>572.0</ele><time>2026-04-04T14:50:45.001Z</time></trkpt><trkpt lat="40.90959193932314" lon="9.042366317926964"><ele>572.0</ele><time>2026-04-04T14:50:46.001Z</time></trkpt><trkpt lat="40.90973632948121" lon="9.042419464352815"><ele>572.0</ele><time>2026-04-04T14:50:47.001Z</time></trkpt><trkpt lat="40.909899132319026" lon="9.042480418483501"><ele>572.0</ele><time>2026-04-04T14:50:48.001Z</time></trkpt><trkpt lat="40.91004030534815" lon="9.042528596654392"><ele>571.75</ele><time>2026-04-04T14:50:49.001Z</time></trkpt><trkpt lat="40.910163811527624" lon="9.042569250944975"><ele>571.5</ele><time>2026-04-04T14:50:50.001Z</time></trkpt><trkpt lat="40.91028480116005" lon="9.042595141796301"><ele>571.25</ele><time>2026-04-04T14:50:51.001Z</time></trkpt><trkpt lat="40.9104075799929" lon="9.042612884847992"><ele>571.0</ele><time>2026-04-04T14:50:52.001Z</time></trkpt><trkpt lat="40.91052861216579" lon="9.04262020664346"><ele>571.0</ele><time>2026-04-04T14:50:53.001Z</time></trkpt><trkpt lat="40.91063368348846" lon="9.042632331604617"><ele>571.0</ele><time>2026-04-04T14:50:54.001Z</time></trkpt><trkpt lat="40.910703997738025" lon="9.042626163721009"><ele>571.0</ele><time>2026-04-04T14:50:55.001Z</time></trkpt><trkpt lat="40.91077467356581" lon="9.042596089108807"><ele>571.0</ele><time>2026-04-04T14:50:56.001Z</time></trkpt><trkpt lat="40.91085946873045" lon="9.042516794772027"><ele>571.0</ele><time>2026-04-04T14:50:57.001Z</time></trkpt><trkpt lat="40.91091497531754" lon="9.042423772309558"><ele>571.0</ele><time>2026-04-04T14:50:58Z</time></trkpt><trkpt lat="40.91093755009506" lon="9.042327175809517"><ele>572.2</ele><time>2026-04-04T14:50:59Z</time></trkpt><trkpt lat="40.910931597454926" lon="9.042207164846412"><ele>573.4000000000001</ele><time>2026-04-04T14:51:00Z</time></trkpt><trkpt lat="40.91089251312428" lon="9.042081271817002"><ele>574.6</ele><time>2026-04-04T14:51:01Z</time></trkpt><trkpt lat="40.910824113842565" lon="9.041957731097263"><ele>575.8000000000001</ele><time>2026-04-04T14:51:02Z</time></trkpt><trkpt lat="40.91074705379219" lon="9.04184587771137"><ele>577.0</ele><time>2026-04-04T14:51:03Z</time></trkpt><trkpt lat="40.91066682402355" lon="9.041716733392803"><ele>578.5</ele><time>2026-04-04T14:51:04Z</time></trkpt><trkpt lat="40.910591334332814" lon="9.041563965880435"><ele>580.0</ele><time>2026-04-04T14:51:05Z</time></trkpt><trkpt lat="40.91052620474786" lon="9.04140829419592"><ele>581.5</ele><time>2026-04-04T14:51:06Z</time></trkpt><trkpt lat="40.91046794342208" lon="9.041277610101131"><ele>583.0</ele><time>2026-04-04T14:51:07Z</time></trkpt><trkpt lat="40.910418674187895" lon="9.04115192883711"><ele>583.0</ele><time>2026-04-04T14:51:08Z</time></trkpt><trkpt lat="40.91039318958208" lon="9.041019927913567"><ele>583.0</ele><time>2026-04-04T14:51:09Z</time></trkpt><trkpt lat="40.910400377090525" lon="9.040867051676985"><ele>583.0</ele><time>2026-04-04T14:51:10Z</time></trkpt><trkpt lat="40.91043515025104" lon="9.040705875744175"><ele>583.0</ele><time>2026-04-04T14:51:11Z</time></trkpt><trkpt lat="40.91047886222426" lon="9.040542994048494"><ele>581.75</ele><time>2026-04-04T14:51:12Z</time></trkpt><trkpt lat="40.91052339681568" lon="9.040372526835158"><ele>580.5</ele><time>2026-04-04T14:51:13Z</time></trkpt><trkpt lat="40.910561984946675" lon="9.040210177778778"><ele>579.25</ele><time>2026-04-04T14:51:14Z</time></trkpt><trkpt lat="40.91060455196607" lon="9.040048306839815"><ele>578.0</ele><time>2026-04-04T14:51:15Z</time></trkpt><trkpt lat="40.91064909178215" lon="9.039891052410647"><ele>578.8</ele><time>2026-04-04T14:51:16Z</time></trkpt><trkpt lat="40.91069569098385" lon="9.039739838375043"><ele>579.5999999999999</ele><time>2026-04-04T14:51:17Z</time></trkpt><trkpt lat="40.91075042032873" lon="9.03959578390633"><ele>580.4000000000001</ele><time>2026-04-04T14:51:18Z</time></trkpt><trkpt lat="40.91081327406012" lon="9.039475722495686"><ele>581.2</ele><time>2026-04-04T14:51:19Z</time></trkpt><trkpt lat="40.91086934439331" lon="9.039386696369403"><ele>582.0</ele><time>2026-04-04T14:51:20Z</time></trkpt><trkpt lat="40.91094239358751" lon="9.039303188243535"><ele>582.0</ele><time>2026-04-04T14:51:21Z</time></trkpt><trkpt lat="40.91101885920783" lon="9.039238872783637"><ele>582.0</ele><time>2026-04-04T14:51:22Z</time></trkpt><trkpt lat="40.91110849455767" lon="9.039220584948447"><ele>582.0</ele><time>2026-04-04T14:51:23Z</time></trkpt><trkpt lat="40.911201028169295" lon="9.03921827686744"><ele>582.0</ele><time>2026-04-04T14:51:24Z</time></trkpt><trkpt lat="40.9112998465847" lon="9.039240892918091"><ele>582.0</ele><time>2026-04-04T14:51:25Z</time></trkpt><trkpt lat="40.91138928892237" lon="9.039318018222373"><ele>582.0</ele><time>2026-04-04T14:51:26Z</time></trkpt><trkpt lat="40.91148588909269" lon="9.039392997935048"><ele>582.0</ele><time>2026-04-04T14:51:27Z</time></trkpt><trkpt lat="40.9115750936021" lon="9.03942611756683"><ele>582.0</ele><time>2026-04-04T14:51:28Z</time></trkpt><trkpt lat="40.911673905307254" lon="9.039382210349041"><ele>582.0</ele><time>2026-04-04T14:51:30Z</time></trkpt><trkpt lat="40.911695807999" lon="9.03921398877544"><ele>582.0</ele><time>2026-04-04T14:51:32Z</time></trkpt><trkpt lat="40.91168938634528" lon="9.039105371979787"><ele>580.8333333333334</ele><time>2026-04-04T14:51:33Z</time></trkpt><trkpt lat="40.911664631776794" lon="9.038994732805952"><ele>579.6666666666666</ele><time>2026-04-04T14:51:34Z</time></trkpt><trkpt lat="40.91164609022404" lon="9.038887497904655"><ele>578.5</ele><time>2026-04-04T14:51:35Z</time></trkpt><trkpt lat="40.91166341802393" lon="9.038777148003195"><ele>577.3333333333333</ele><time>2026-04-04T14:51:36Z</time></trkpt><trkpt lat="40.91167078394955" lon="9.03865451616841"><ele>576.1666666666666</ele><time>2026-04-04T14:51:37Z</time></trkpt><trkpt lat="40.911700570362484" lon="9.038531843949821"><ele>575.0</ele><time>2026-04-04T14:51:38Z</time></trkpt><trkpt lat="40.91172261004756" lon="9.038399021646047"><ele>577.4</ele><time>2026-04-04T14:51:39Z</time></trkpt><trkpt lat="40.91174289561704" lon="9.038274399468985"><ele>579.8</ele><time>2026-04-04T14:51:40Z</time></trkpt><trkpt lat="40.911791355018366" lon="9.0381517956534"><ele>582.2</ele><time>2026-04-04T14:51:41Z</time></trkpt><trkpt lat="40.91185572091055" lon="9.038030204344668"><ele>584.6</ele><time>2026-04-04T14:51:42Z</time></trkpt><trkpt lat="40.91192128069479" lon="9.037900576211905"><ele>587.0</ele><time>2026-04-04T14:51:43Z</time></trkpt><trkpt lat="40.911985125340365" lon="9.037758210513605"><ele>587.0</ele><time>2026-04-04T14:51:44Z</time></trkpt><trkpt lat="40.912044617815624" lon="9.03761793406998"><ele>587.0</ele><time>2026-04-04T14:51:45Z</time></trkpt><trkpt lat="40.91210703231336" lon="9.037498800176344"><ele>587.0</ele><time>2026-04-04T14:51:46Z</time></trkpt><trkpt lat="40.91217200887471" lon="9.03740627778066"><ele>587.0</ele><time>2026-04-04T14:51:47Z</time></trkpt><trkpt lat="40.91223311725041" lon="9.037340222786584"><ele>587.0</ele><time>2026-04-04T14:51:48Z</time></trkpt><trkpt lat="40.91229966293251" lon="9.037297253639743"><ele>585.6</ele><time>2026-04-04T14:51:49Z</time></trkpt><trkpt lat="40.91238833587033" lon="9.037281304313856"><ele>584.2</ele><time>2026-04-04T14:51:50Z</time></trkpt><trkpt lat="40.91248477977864" lon="9.03728187931118"><ele>582.8</ele><time>2026-04-04T14:51:51Z</time></trkpt><trkpt lat="40.91259329647157" lon="9.03728968989265"><ele>581.4</ele><time>2026-04-04T14:51:52Z</time></trkpt><trkpt lat="40.9127087960848" lon="9.037309497623726"><ele>580.0</ele><time>2026-04-04T14:51:53Z</time></trkpt><trkpt lat="40.912833022633734" lon="9.03732631550852"><ele>580.0</ele><time>2026-04-04T14:51:54Z</time></trkpt><trkpt lat="40.91295624250162" lon="9.03733089403984"><ele>580.0</ele><time>2026-04-04T14:51:55Z</time></trkpt><trkpt lat="40.91307522259088" lon="9.037302621592804"><ele>580.0</ele><time>2026-04-04T14:51:56Z</time></trkpt><trkpt lat="40.91320154285798" lon="9.037241719160484"><ele>580.0</ele><time>2026-04-04T14:51:57Z</time></trkpt><trkpt lat="40.913330234309086" lon="9.037176024030344"><ele>582.2</ele><time>2026-04-04T14:51:58Z</time></trkpt><trkpt lat="40.913451132000034" lon="9.03709355160262"><ele>584.4</ele><time>2026-04-04T14:51:59Z</time></trkpt><trkpt lat="40.91355243935528" lon="9.037008742813974"><ele>586.6</ele><time>2026-04-04T14:52:00Z</time></trkpt><trkpt lat="40.91363530729716" lon="9.036949776544802"><ele>588.8</ele><time>2026-04-04T14:52:01Z</time></trkpt><trkpt lat="40.91372393644947" lon="9.036931875726827"><ele>591.0</ele><time>2026-04-04T14:52:02Z</time></trkpt><trkpt lat="40.913831571937315" lon="9.03693898348745"><ele>591.0</ele><time>2026-04-04T14:52:03Z</time></trkpt><trkpt lat="40.91395201707625" lon="9.03694364927133"><ele>591.0</ele><time>2026-04-04T14:52:04Z</time></trkpt><trkpt lat="40.91404839471253" lon="9.036904760114462"><ele>591.0</ele><time>2026-04-04T14:52:05.001Z</time></trkpt><trkpt lat="40.914126652040714" lon="9.036882960156507"><ele>591.0</ele><time>2026-04-04T14:52:06.001Z</time></trkpt><trkpt lat="40.914208730111554" lon="9.036905444134094"><ele>591.0</ele><time>2026-04-04T14:52:07.001Z</time></trkpt><trkpt lat="40.914296867703705" lon="9.036958124136973"><ele>592.6</ele><time>2026-04-04T14:52:08.001Z</time></trkpt><trkpt lat="40.914392841440495" lon="9.036990541071138"><ele>594.2</ele><time>2026-04-04T14:52:09.001Z</time></trkpt><trkpt lat="40.91446873346374" lon="9.036964843969573"><ele>595.8</ele><time>2026-04-04T14:52:10.001Z</time></trkpt><trkpt lat="40.91453807427898" lon="9.036886515935603"><ele>597.4</ele><time>2026-04-04T14:52:11.001Z</time></trkpt><trkpt lat="40.914594567511536" lon="9.036788931632247"><ele>599.0</ele><time>2026-04-04T14:52:12.001Z</time></trkpt><trkpt lat="40.91465596951118" lon="9.036695190685784"><ele>599.0</ele><time>2026-04-04T14:52:13.001Z</time></trkpt><trkpt lat="40.914741741222976" lon="9.036641178987082"><ele>599.0</ele><time>2026-04-04T14:52:14.001Z</time></trkpt><trkpt lat="40.91484825749826" lon="9.03662252695617"><ele>599.0</ele><time>2026-04-04T14:52:15.001Z</time></trkpt><trkpt lat="40.91495396083617" lon="9.036630129769094"><ele>599.0</ele><time>2026-04-04T14:52:16.001Z</time></trkpt><trkpt lat="40.91506739278945" lon="9.036668746895938"><ele>599.0</ele><time>2026-04-04T14:52:17.001Z</time></trkpt><trkpt lat="40.91517679493364" lon="9.036710700387324"><ele>599.5</ele><time>2026-04-04T14:52:18.001Z</time></trkpt><trkpt lat="40.91528852732554" lon="9.036736674752069"><ele>600.0</ele><time>2026-04-04T14:52:19.001Z</time></trkpt><trkpt lat="40.91541114579632" lon="9.036724586927019"><ele>600.5</ele><time>2026-04-04T14:52:20.001Z</time></trkpt><trkpt lat="40.91552686576175" lon="9.036699976888663"><ele>601.0</ele><time>2026-04-04T14:52:21.001Z</time></trkpt><trkpt lat="40.9156505689473" lon="9.036689981237553"><ele>601.0</ele><time>2026-04-04T14:52:22.001Z</time></trkpt><trkpt lat="40.915771426988144" lon="9.036690567445833"><ele>601.0</ele><time>2026-04-04T14:52:23.001Z</time></trkpt><trkpt lat="40.915894897719134" lon="9.036705971121625"><ele>601.0</ele><time>2026-04-04T14:52:24.001Z</time></trkpt><trkpt lat="40.916017328612135" lon="9.036740717531025"><ele>601.0</ele><time>2026-04-04T14:52:25.001Z</time></trkpt><trkpt lat="40.91613594349692" lon="9.036786601314027"><ele>601.5</ele><time>2026-04-04T14:52:26.001Z</time></trkpt><trkpt lat="40.9162518656393" lon="9.036834365668515"><ele>602.0</ele><time>2026-04-04T14:52:27.001Z</time></trkpt><trkpt lat="40.916360663607215" lon="9.036895515798276"><ele>602.5</ele><time>2026-04-04T14:52:28.001Z</time></trkpt><trkpt lat="40.916470279929136" lon="9.036969882588235"><ele>603.0</ele><time>2026-04-04T14:52:29.001Z</time></trkpt><trkpt lat="40.91658029611235" lon="9.037044678136976"><ele>603.0</ele><time>2026-04-04T14:52:30.001Z</time></trkpt><trkpt lat="40.91668573984737" lon="9.03711499480573"><ele>603.0</ele><time>2026-04-04T14:52:31.001Z</time></trkpt><trkpt lat="40.91676688070574" lon="9.037190210317574"><ele>603.0</ele><time>2026-04-04T14:52:32.001Z</time></trkpt><trkpt lat="40.91683015921729" lon="9.03729009731036"><ele>603.0</ele><time>2026-04-04T14:52:33.001Z</time></trkpt><trkpt lat="40.916893412172" lon="9.037375886075596"><ele>603.0</ele><time>2026-04-04T14:52:34.001Z</time></trkpt><trkpt lat="40.916971695021175" lon="9.037426916938058"><ele>604.0</ele><time>2026-04-04T14:52:35.001Z</time></trkpt><trkpt lat="40.91706684961321" lon="9.03743091494798"><ele>605.0</ele><time>2026-04-04T14:52:36.001Z</time></trkpt><trkpt lat="40.91716505091721" lon="9.03737795992937"><ele>606.0</ele><time>2026-04-04T14:52:37.001Z</time></trkpt><trkpt lat="40.91726790541301" lon="9.037310467890146"><ele>607.0</ele><time>2026-04-04T14:52:38.001Z</time></trkpt><trkpt lat="40.91738174794439" lon="9.037248039213921"><ele>608.0</ele><time>2026-04-04T14:52:39.001Z</time></trkpt><trkpt lat="40.917501496107555" lon="9.037190866742863"><ele>610.75</ele><time>2026-04-04T14:52:40.001Z</time></trkpt><trkpt lat="40.91762482743445" lon="9.037141987024725"><ele>613.5</ele><time>2026-04-04T14:52:41.001Z</time></trkpt><trkpt lat="40.91775964721544" lon="9.037110596658488"><ele>616.25</ele><time>2026-04-04T14:52:42.001Z</time></trkpt><trkpt lat="40.91789176502328" lon="9.037094919401554"><ele>619.0</ele><time>2026-04-04T14:52:43.001Z</time></trkpt><trkpt lat="40.91801341639814" lon="9.037082921017351"><ele>619.0</ele><time>2026-04-04T14:52:44.001Z</time></trkpt><trkpt lat="40.918107825348315" lon="9.037091872024812"><ele>619.0</ele><time>2026-04-04T14:52:45.001Z</time></trkpt><trkpt lat="40.91819797167852" lon="9.037126947629398"><ele>619.0</ele><time>2026-04-04T14:52:46.001Z</time></trkpt><trkpt lat="40.91829027934742" lon="9.037198769837751"><ele>619.0</ele><time>2026-04-04T14:52:47.001Z</time></trkpt><trkpt lat="40.91837179378393" lon="9.037289908280817"><ele>619.0</ele><time>2026-04-04T14:52:48.001Z</time></trkpt><trkpt lat="40.91844425788317" lon="9.03739143578179"><ele>621.8</ele><time>2026-04-04T14:52:49.001Z</time></trkpt><trkpt lat="40.91851002154615" lon="9.037509833284883"><ele>624.5999999999999</ele><time>2026-04-04T14:52:50.001Z</time></trkpt><trkpt lat="40.91858428200036" lon="9.037621420886495"><ele>627.4</ele><time>2026-04-04T14:52:51.001Z</time></trkpt><trkpt lat="40.91865473131747" lon="9.037685077714592"><ele>630.1999999999999</ele><time>2026-04-04T14:52:52.001Z</time></trkpt><trkpt lat="40.918747597766526" lon="9.037719652219312"><ele>633.0</ele><time>2026-04-04T14:52:53.001Z</time></trkpt><trkpt lat="40.91885898868309" lon="9.037727628029605"><ele>633.0</ele><time>2026-04-04T14:52:54.001Z</time></trkpt><trkpt lat="40.918970460911076" lon="9.037713367945733"><ele>633.0</ele><time>2026-04-04T14:52:55.001Z</time></trkpt><trkpt lat="40.91907053671177" lon="9.03767805048687"><ele>633.0</ele><time>2026-04-04T14:52:56.001Z</time></trkpt><trkpt lat="40.91913017971489" lon="9.03763235164394"><ele>633.0</ele><time>2026-04-04T14:52:57.001Z</time></trkpt><trkpt lat="40.919167759773345" lon="9.037500279759344"><ele>633.0</ele><time>2026-04-04T14:52:59.001Z</time></trkpt><trkpt lat="40.91915724724499" lon="9.0374039851387"><ele>634.1999999999999</ele><time>2026-04-04T14:53:00.001Z</time></trkpt><trkpt lat="40.91910171367566" lon="9.037319433420782"><ele>635.4</ele><time>2026-04-04T14:53:01.001Z</time></trkpt><trkpt lat="40.91900870122542" lon="9.037255663835905"><ele>636.5999999999999</ele><time>2026-04-04T14:53:02.001Z</time></trkpt><trkpt lat="40.918942016214594" lon="9.037173163502803"><ele>637.8</ele><time>2026-04-04T14:53:03.001Z</time></trkpt><trkpt lat="40.9189186638022" lon="9.037055976349297"><ele>639.0</ele><time>2026-04-04T14:53:04Z</time></trkpt><trkpt lat="40.918899262888175" lon="9.036893789910506"><ele>639.0</ele><time>2026-04-04T14:53:05Z</time></trkpt><trkpt lat="40.91884902226228" lon="9.036715560888641"><ele>639.0</ele><time>2026-04-04T14:53:06Z</time></trkpt><trkpt lat="40.91879259058222" lon="9.03658311122014"><ele>639.0</ele><time>2026-04-04T14:53:07Z</time></trkpt><trkpt lat="40.91876565553868" lon="9.036469451607394"><ele>639.0</ele><time>2026-04-04T14:53:08Z</time></trkpt><trkpt lat="40.91879369847129" lon="9.036345744668267"><ele>639.0</ele><time>2026-04-04T14:53:09Z</time></trkpt><trkpt lat="40.9188384435357" lon="9.036171364300062"><ele>639.0</ele><time>2026-04-04T14:53:10Z</time></trkpt><trkpt lat="40.91888203306361" lon="9.035970171573835"><ele>639.0</ele><time>2026-04-04T14:53:11Z</time></trkpt><trkpt lat="40.91890008111953" lon="9.035739256242048"><ele>639.0</ele><time>2026-04-04T14:53:12Z</time></trkpt><trkpt lat="40.918894159478846" lon="9.035525259947628"><ele>639.25</ele><time>2026-04-04T14:53:13Z</time></trkpt><trkpt lat="40.91889148169634" lon="9.035345124612716"><ele>639.5</ele><time>2026-04-04T14:53:14Z</time></trkpt><trkpt lat="40.91889108042012" lon="9.035190484113112"><ele>639.75</ele><time>2026-04-04T14:53:15Z</time></trkpt><trkpt lat="40.9189013005227" lon="9.035034065340247"><ele>640.0</ele><time>2026-04-04T14:53:16Z</time></trkpt><trkpt lat="40.91891828972415" lon="9.034878265494383"><ele>639.5</ele><time>2026-04-04T14:53:17Z</time></trkpt><trkpt lat="40.91895372439926" lon="9.034720744422087"><ele>639.0</ele><time>2026-04-04T14:53:18Z</time></trkpt><trkpt lat="40.91901398550172" lon="9.03456288530476"><ele>638.5</ele><time>2026-04-04T14:53:19Z</time></trkpt><trkpt lat="40.91907817724548" lon="9.034424911528085"><ele>638.0</ele><time>2026-04-04T14:53:20Z</time></trkpt><trkpt lat="40.9191466464147" lon="9.034321416250908"><ele>638.0</ele><time>2026-04-04T14:53:21Z</time></trkpt><trkpt lat="40.91922730078936" lon="9.034247161700813"><ele>638.0</ele><time>2026-04-04T14:53:22Z</time></trkpt><trkpt lat="40.91932011157235" lon="9.034197921299722"><ele>638.0</ele><time>2026-04-04T14:53:23Z</time></trkpt><trkpt lat="40.919415103991255" lon="9.03415093950066"><ele>638.0</ele><time>2026-04-04T14:53:24Z</time></trkpt><trkpt lat="40.91947342154502" lon="9.034082885578174"><ele>638.0</ele><time>2026-04-04T14:53:25Z</time></trkpt><trkpt lat="40.91949241165978" lon="9.033964565036328"><ele>643.2</ele><time>2026-04-04T14:53:26Z</time></trkpt><trkpt lat="40.919480035708304" lon="9.0338493520747"><ele>648.4</ele><time>2026-04-04T14:53:27Z</time></trkpt><trkpt lat="40.919467547804715" lon="9.033742424064934"><ele>653.6</ele><time>2026-04-04T14:53:28Z</time></trkpt><trkpt lat="40.91946314121919" lon="9.033607269636093"><ele>658.8000000000001</ele><time>2026-04-04T14:53:29Z</time></trkpt><trkpt lat="40.919457098391696" lon="9.03344344981953"><ele>664.0</ele><time>2026-04-04T14:53:30Z</time></trkpt><trkpt lat="40.91944558709594" lon="9.033267559941889"><ele>665.25</ele><time>2026-04-04T14:53:31Z</time></trkpt><trkpt lat="40.9194355711052" lon="9.033109772991208"><ele>666.5</ele><time>2026-04-04T14:53:32Z</time></trkpt><trkpt lat="40.9194346750139" lon="9.032965774036962"><ele>667.75</ele><time>2026-04-04T14:53:33Z</time></trkpt><trkpt lat="40.91943397688419" lon="9.03281153778682"><ele>669.0</ele><time>2026-04-04T14:53:34Z</time></trkpt><trkpt lat="40.919413989207676" lon="9.032666286104385"><ele>669.0</ele><time>2026-04-04T14:53:35Z</time></trkpt><trkpt lat="40.919379515647" lon="9.032523843174014"><ele>669.0</ele><time>2026-04-04T14:53:36Z</time></trkpt><trkpt lat="40.919326248642435" lon="9.032374889445109"><ele>669.0</ele><time>2026-04-04T14:53:37Z</time></trkpt><trkpt lat="40.919248503640176" lon="9.032219797211487"><ele>669.0</ele><time>2026-04-04T14:53:38Z</time></trkpt><trkpt lat="40.91916024457169" lon="9.032063670526574"><ele>666.25</ele><time>2026-04-04T14:53:39Z</time></trkpt><trkpt lat="40.91908023776562" lon="9.031911635309724"><ele>663.5</ele><time>2026-04-04T14:53:40Z</time></trkpt><trkpt lat="40.919008783549735" lon="9.031743318536678"><ele>660.75</ele><time>2026-04-04T14:53:41Z</time></trkpt><trkpt lat="40.918947701498375" lon="9.031579253500558"><ele>658.0</ele><time>2026-04-04T14:53:42Z</time></trkpt><trkpt lat="40.91889678439629" lon="9.031449850132896"><ele>658.0</ele><time>2026-04-04T14:53:43Z</time></trkpt><trkpt lat="40.918857860975926" lon="9.0313410884941"><ele>658.0</ele><time>2026-04-04T14:53:44Z</time></trkpt><trkpt lat="40.91885360206176" lon="9.031231791514019"><ele>658.0</ele><time>2026-04-04T14:53:45Z</time></trkpt><trkpt lat="40.918876882984456" lon="9.031121945130447"><ele>658.0</ele><time>2026-04-04T14:53:46Z</time></trkpt><trkpt lat="40.91892230784419" lon="9.031030345031583"><ele>658.0</ele><time>2026-04-04T14:53:47Z</time></trkpt><trkpt lat="40.91898675516097" lon="9.030957687601362"><ele>658.0</ele><time>2026-04-04T14:53:48Z</time></trkpt><trkpt lat="40.91906623354812" lon="9.030907567782016"><ele>658.0</ele><time>2026-04-04T14:53:49Z</time></trkpt><trkpt lat="40.919132582806625" lon="9.030862531248285"><ele>658.0</ele><time>2026-04-04T14:53:50Z</time></trkpt><trkpt lat="40.919170320234656" lon="9.030780871190238"><ele>658.0</ele><time>2026-04-04T14:53:51Z</time></trkpt><trkpt lat="40.9191883940159" lon="9.030680046740608"><ele>658.0</ele><time>2026-04-04T14:53:52Z</time></trkpt><trkpt lat="40.91918634924658" lon="9.030574502069951"><ele>658.0</ele><time>2026-04-04T14:53:53Z</time></trkpt><trkpt lat="40.919153305842805" lon="9.030458851514378"><ele>658.0</ele><time>2026-04-04T14:53:54Z</time></trkpt><trkpt lat="40.91910390144118" lon="9.03033219035703"><ele>658.75</ele><time>2026-04-04T14:53:55Z</time></trkpt><trkpt lat="40.919050902506996" lon="9.03019937182888"><ele>659.5</ele><time>2026-04-04T14:53:56Z</time></trkpt><trkpt lat="40.91900726732719" lon="9.03005735485425"><ele>660.25</ele><time>2026-04-04T14:53:57Z</time></trkpt><trkpt lat="40.91897694433118" lon="9.029899438411253"><ele>661.0</ele><time>2026-04-04T14:53:58Z</time></trkpt><trkpt lat="40.918958947442675" lon="9.029742847565876"><ele>662.8</ele><time>2026-04-04T14:53:59Z</time></trkpt><trkpt lat="40.91892545278298" lon="9.029595225425913"><ele>664.5999999999999</ele><time>2026-04-04T14:54:00Z</time></trkpt><trkpt lat="40.918879998905396" lon="9.029470073732844"><ele>666.4</ele><time>2026-04-04T14:54:01Z</time></trkpt><trkpt lat="40.91883392290814" lon="9.029385963120983"><ele>668.2</ele><time>2026-04-04T14:54:02Z</time></trkpt><trkpt lat="40.91876493047971" lon="9.029307694176602"><ele>670.0</ele><time>2026-04-04T14:54:03Z</time></trkpt><trkpt lat="40.918666837056165" lon="9.0292246590117"><ele>670.0</ele><time>2026-04-04T14:54:04Z</time></trkpt><trkpt lat="40.918562073463" lon="9.02916848447852"><ele>670.0</ele><time>2026-04-04T14:54:05Z</time></trkpt><trkpt lat="40.91845610852154" lon="9.0291269842094"><ele>670.0</ele><time>2026-04-04T14:54:06Z</time></trkpt><trkpt lat="40.91838733274961" lon="9.029080157982468"><ele>670.0</ele><time>2026-04-04T14:54:07Z</time></trkpt><trkpt lat="40.91834179693734" lon="9.029015761644088"><ele>670.0</ele><time>2026-04-04T14:54:08Z</time></trkpt><trkpt lat="40.91830885063642" lon="9.028922820293214"><ele>670.0</ele><time>2026-04-04T14:54:09Z</time></trkpt><trkpt lat="40.918275676051195" lon="9.028798796395836"><ele>669.4</ele><time>2026-04-04T14:54:10Z</time></trkpt><trkpt lat="40.91825718555597" lon="9.028655297627788"><ele>668.8</ele><time>2026-04-04T14:54:11Z</time></trkpt><trkpt lat="40.91824617022563" lon="9.028513958075724"><ele>668.2</ele><time>2026-04-04T14:54:12Z</time></trkpt><trkpt lat="40.91824026302342" lon="9.028369545383384"><ele>667.6</ele><time>2026-04-04T14:54:13.001Z</time></trkpt><trkpt lat="40.91824657984118" lon="9.028223287339529"><ele>667.0</ele><time>2026-04-04T14:54:14.001Z</time></trkpt><trkpt lat="40.91826098504628" lon="9.028089581995385"><ele>668.3333333333334</ele><time>2026-04-04T14:54:15.001Z</time></trkpt><trkpt lat="40.918285943217214" lon="9.027971052776776"><ele>669.6666666666667</ele><time>2026-04-04T14:54:16.001Z</time></trkpt><trkpt lat="40.91831944804099" lon="9.027858697689535"><ele>671.0</ele><time>2026-04-04T14:54:17.001Z</time></trkpt><trkpt lat="40.91834460202464" lon="9.027760095298435"><ele>672.3333333333334</ele><time>2026-04-04T14:54:18.001Z</time></trkpt><trkpt lat="40.918343572263694" lon="9.027670524017418"><ele>673.6666666666666</ele><time>2026-04-04T14:54:19.001Z</time></trkpt><trkpt lat="40.91831647972002" lon="9.027573003986445"><ele>675.0</ele><time>2026-04-04T14:54:20.001Z</time></trkpt><trkpt lat="40.918264339267196" lon="9.02749328048501"><ele>677.5</ele><time>2026-04-04T14:54:21.001Z</time></trkpt><trkpt lat="40.918197365567764" lon="9.027439916619196"><ele>680.0</ele><time>2026-04-04T14:54:22.001Z</time></trkpt><trkpt lat="40.918129994138404" lon="9.027380435683833"><ele>682.5</ele><time>2026-04-04T14:54:23.001Z</time></trkpt><trkpt lat="40.9180693344765" lon="9.027233982180418"><ele>685.0</ele><time>2026-04-04T14:54:25.001Z</time></trkpt><trkpt lat="40.91795175186249" lon="9.026903223882526"><ele>685.0</ele><time>2026-04-04T14:54:27.001Z</time></trkpt><trkpt lat="40.91793186031412" lon="9.026748570580123"><ele>685.0</ele><time>2026-04-04T14:54:28.001Z</time></trkpt><trkpt lat="40.91791366901985" lon="9.02658269121427"><ele>685.0</ele><time>2026-04-04T14:54:29.001Z</time></trkpt><trkpt lat="40.9179002459499" lon="9.026408793333536"><ele>685.0</ele><time>2026-04-04T14:54:30.001Z</time></trkpt><trkpt lat="40.91788672933877" lon="9.026273919913521"><ele>687.4</ele><time>2026-04-04T14:54:31.001Z</time></trkpt><trkpt lat="40.91785762593278" lon="9.026167367748528"><ele>689.8</ele><time>2026-04-04T14:54:32.001Z</time></trkpt><trkpt lat="40.91780826004877" lon="9.026069152571058"><ele>692.2</ele><time>2026-04-04T14:54:33.001Z</time></trkpt><trkpt lat="40.917738706291914" lon="9.02598715622005"><ele>694.6</ele><time>2026-04-04T14:54:34.001Z</time></trkpt><trkpt lat="40.91767066040376" lon="9.025897744946473"><ele>697.0</ele><time>2026-04-04T14:54:35.001Z</time></trkpt><trkpt lat="40.91762726690554" lon="9.02578197118486"><ele>698.0</ele><time>2026-04-04T14:54:36.001Z</time></trkpt><trkpt lat="40.91760976421004" lon="9.02565005177405"><ele>699.0</ele><time>2026-04-04T14:54:37.001Z</time></trkpt><trkpt lat="40.9176079600407" lon="9.025505107937388"><ele>700.0</ele><time>2026-04-04T14:54:38.001Z</time></trkpt><trkpt lat="40.91762388703077" lon="9.025349634549933"><ele>701.0</ele><time>2026-04-04T14:54:39.001Z</time></trkpt><trkpt lat="40.91764987672875" lon="9.025204755823898"><ele>702.0</ele><time>2026-04-04T14:54:40.001Z</time></trkpt><trkpt lat="40.91765649956924" lon="9.025082166711346"><ele>701.6666666666666</ele><time>2026-04-04T14:54:41.001Z</time></trkpt><trkpt lat="40.91763230112041" lon="9.024964056893122"><ele>701.3333333333334</ele><time>2026-04-04T14:54:42.001Z</time></trkpt><trkpt lat="40.91759226601197" lon="9.024891672377251"><ele>701.0</ele><time>2026-04-04T14:54:43.001Z</time></trkpt><trkpt lat="40.91753351853859" lon="9.024848810018096"><ele>700.6666666666667</ele><time>2026-04-04T14:54:44.001Z</time></trkpt><trkpt lat="40.917448418264314" lon="9.024806580407857"><ele>700.3333333333334</ele><time>2026-04-04T14:54:45.001Z</time></trkpt><trkpt lat="40.917367478239306" lon="9.024734124264237"><ele>700.0</ele><time>2026-04-04T14:54:46.001Z</time></trkpt><trkpt lat="40.917299848163374" lon="9.0246233225488"><ele>698.2</ele><time>2026-04-04T14:54:47.001Z</time></trkpt><trkpt lat="40.91725714440094" lon="9.024484954271943"><ele>696.4</ele><time>2026-04-04T14:54:48.001Z</time></trkpt><trkpt lat="40.91722768365659" lon="9.02434571114708"><ele>694.5999999999999</ele><time>2026-04-04T14:54:49.001Z</time></trkpt><trkpt lat="40.91721075179649" lon="9.024200493245127"><ele>692.8</ele><time>2026-04-04T14:54:50.001Z</time></trkpt><trkpt lat="40.917209670771896" lon="9.024049970468516"><ele>691.0</ele><time>2026-04-04T14:54:51.001Z</time></trkpt><trkpt lat="40.917230511234855" lon="9.02391383482595"><ele>690.75</ele><time>2026-04-04T14:54:52.001Z</time></trkpt><trkpt lat="40.91728384251941" lon="9.02377352557828"><ele>690.5</ele><time>2026-04-04T14:54:53.001Z</time></trkpt><trkpt lat="40.91734645336007" lon="9.023625838707952"><ele>690.25</ele><time>2026-04-04T14:54:54.001Z</time></trkpt><trkpt lat="40.917412955673875" lon="9.023523886664105"><ele>690.0</ele><time>2026-04-04T14:54:55.001Z</time></trkpt><trkpt lat="40.91752258250838" lon="9.023486765870754"><ele>691.5</ele><time>2026-04-04T14:54:56.001Z</time></trkpt><trkpt lat="40.917639427337" lon="9.023478553245322"><ele>693.0</ele><time>2026-04-04T14:54:57.001Z</time></trkpt><trkpt lat="40.91777791692103" lon="9.0234825955472"><ele>694.5</ele><time>2026-04-04T14:54:58.001Z</time></trkpt><trkpt lat="40.91791228759696" lon="9.023482409254312"><ele>696.0</ele><time>2026-04-04T14:54:59.001Z</time></trkpt><trkpt lat="40.91802801898752" lon="9.023455945679876"><ele>696.0</ele><time>2026-04-04T14:55:00.001Z</time></trkpt><trkpt lat="40.91813609340454" lon="9.023391016406455"><ele>696.0</ele><time>2026-04-04T14:55:01.001Z</time></trkpt><trkpt lat="40.918242513050075" lon="9.023303972027215"><ele>696.0</ele><time>2026-04-04T14:55:02.001Z</time></trkpt><trkpt lat="40.918327375536165" lon="9.023229326221037"><ele>696.0</ele><time>2026-04-04T14:55:03.001Z</time></trkpt><trkpt lat="40.91838801728236" lon="9.02318308995923"><ele>696.0</ele><time>2026-04-04T14:55:04.001Z</time></trkpt><trkpt lat="40.91843621974591" lon="9.023112361349439"><ele>697.3333333333334</ele><time>2026-04-04T14:55:07.001Z</time></trkpt><trkpt lat="40.91836672049308" lon="9.023098648918122"><ele>698.6666666666666</ele><time>2026-04-04T14:58:42.001Z</time></trkpt><trkpt lat="40.91828748159633" lon="9.02300226075012"><ele>700.0</ele><time>2026-04-04T14:58:44.001Z</time></trkpt><trkpt lat="40.918232406930855" lon="9.022941166950183"><ele>701.3333333333333</ele><time>2026-04-04T14:58:45.001Z</time></trkpt><trkpt lat="40.918155722100664" lon="9.022894271882373"><ele>702.6666666666666</ele><time>2026-04-04T14:58:46.001Z</time></trkpt><trkpt lat="40.918066663110686" lon="9.022860194806794"><ele>704.0</ele><time>2026-04-04T14:58:47.001Z</time></trkpt><trkpt lat="40.91797788569242" lon="9.022816607079672"><ele>704.0</ele><time>2026-04-04T14:58:48.001Z</time></trkpt><trkpt lat="40.917906774557075" lon="9.022728100258638"><ele>704.0</ele><time>2026-04-04T14:58:49.001Z</time></trkpt><trkpt lat="40.9178645475618" lon="9.022597414476177"><ele>704.0</ele><time>2026-04-04T14:58:50.001Z</time></trkpt><trkpt lat="40.91782682512891" lon="9.02245701846333"><ele>704.0</ele><time>2026-04-04T14:58:51.001Z</time></trkpt><trkpt lat="40.91776462198113" lon="9.022315911311752"><ele>704.0</ele><time>2026-04-04T14:58:52.001Z</time></trkpt><trkpt lat="40.9176831280306" lon="9.02217634672517"><ele>706.3333333333333</ele><time>2026-04-04T14:58:53.001Z</time></trkpt><trkpt lat="40.91759041608417" lon="9.02202986910658"><ele>708.6666666666666</ele><time>2026-04-04T14:58:54.001Z</time></trkpt><trkpt lat="40.91749238491473" lon="9.02187327805494"><ele>711.0</ele><time>2026-04-04T14:58:55.001Z</time></trkpt><trkpt lat="40.9173958151932" lon="9.021712378042702"><ele>714.1999999999999</ele><time>2026-04-04T14:58:56.001Z</time></trkpt><trkpt lat="40.9173212116581" lon="9.021610433824325"><ele>717.4</ele><time>2026-04-04T14:58:57.001Z</time></trkpt><trkpt lat="40.91724266172175" lon="9.021542560888841"><ele>720.6</ele><time>2026-04-04T14:58:58.001Z</time></trkpt><trkpt lat="40.91714096261015" lon="9.021503807198979"><ele>723.8</ele><time>2026-04-04T14:58:59.001Z</time></trkpt><trkpt lat="40.9170167036765" lon="9.021467031867912"><ele>727.0</ele><time>2026-04-04T14:59:00.001Z</time></trkpt><trkpt lat="40.91688532609189" lon="9.021440691893401"><ele>727.0</ele><time>2026-04-04T14:59:01.001Z</time></trkpt><trkpt lat="40.91674338081635" lon="9.021394664168524"><ele>727.0</ele><time>2026-04-04T14:59:02.001Z</time></trkpt><trkpt lat="40.916604866353104" lon="9.021350028407532"><ele>727.0</ele><time>2026-04-04T14:59:03.001Z</time></trkpt><trkpt lat="40.91649117063383" lon="9.021297550917513"><ele>727.0</ele><time>2026-04-04T14:59:04.001Z</time></trkpt><trkpt lat="40.916391950267865" lon="9.021219191628234"><ele>727.5</ele><time>2026-04-04T14:59:05.001Z</time></trkpt><trkpt lat="40.91631553360542" lon="9.021113850357393"><ele>728.0</ele><time>2026-04-04T14:59:06.001Z</time></trkpt><trkpt lat="40.916252675552506" lon="9.020985150946563"><ele>728.5</ele><time>2026-04-04T14:59:07.001Z</time></trkpt><trkpt lat="40.91619079801247" lon="9.020830304252266"><ele>729.0</ele><time>2026-04-04T14:59:08.001Z</time></trkpt><trkpt lat="40.91612498371082" lon="9.02068224444638"><ele>729.0</ele><time>2026-04-04T14:59:09.001Z</time></trkpt><trkpt lat="40.916085131882085" lon="9.020590470152554"><ele>729.0</ele><time>2026-04-04T14:59:10.001Z</time></trkpt><trkpt lat="40.916048709843594" lon="9.020521965740965"><ele>729.0</ele><time>2026-04-04T14:59:11.001Z</time></trkpt><trkpt lat="40.916026468676336" lon="9.020415443702806"><ele>729.0</ele><time>2026-04-04T14:59:13.001Z</time></trkpt><trkpt lat="40.91606157769026" lon="9.0203440246961"><ele>729.0</ele><time>2026-04-04T14:59:15.001Z</time></trkpt><trkpt lat="40.91615451494445" lon="9.020259332359096"><ele>729.0</ele><time>2026-04-04T14:59:17.001Z</time></trkpt><trkpt lat="40.91622744426" lon="9.020221093007414"><ele>729.0</ele><time>2026-04-04T14:59:18.001Z</time></trkpt><trkpt lat="40.9163026170701" lon="9.020168557614191"><ele>729.0</ele><time>2026-04-04T14:59:19.001Z</time></trkpt><trkpt lat="40.916385679356026" lon="9.020103835507784"><ele>729.0</ele><time>2026-04-04T14:59:20.001Z</time></trkpt><trkpt lat="40.91645917015557" lon="9.020024721387694"><ele>729.0</ele><time>2026-04-04T14:59:21.001Z</time></trkpt><trkpt lat="40.916521892683555" lon="9.019933645548859"><ele>729.0</ele><time>2026-04-04T14:59:22Z</time></trkpt><trkpt lat="40.91657310324576" lon="9.019836353630952"><ele>729.5</ele><time>2026-04-04T14:59:23Z</time></trkpt><trkpt lat="40.9166143487691" lon="9.019716990330766"><ele>730.0</ele><time>2026-04-04T14:59:24Z</time></trkpt><trkpt lat="40.91665167568596" lon="9.019583724681656"><ele>730.5</ele><time>2026-04-04T14:59:25Z</time></trkpt><trkpt lat="40.91668419356438" lon="9.019432226179138"><ele>731.0</ele><time>2026-04-04T14:59:26Z</time></trkpt><trkpt lat="40.916713363113274" lon="9.019260177568604"><ele>737.0</ele><time>2026-04-04T14:59:27Z</time></trkpt><trkpt lat="40.9167374066968" lon="9.019080302651547"><ele>743.0</ele><time>2026-04-04T14:59:28Z</time></trkpt><trkpt lat="40.916757359687644" lon="9.018892333443995"><ele>749.0</ele><time>2026-04-04T14:59:29Z</time></trkpt><trkpt lat="40.916769153071286" lon="9.018723507537215"><ele>755.0</ele><time>2026-04-04T14:59:30Z</time></trkpt><trkpt lat="40.91676266039274" lon="9.018578325381831"><ele>754.0</ele><time>2026-04-04T14:59:31Z</time></trkpt><trkpt lat="40.9167318526165" lon="9.018460163259116"><ele>753.0</ele><time>2026-04-04T14:59:32Z</time></trkpt><trkpt lat="40.91667847976096" lon="9.018351142829825"><ele>752.0</ele><time>2026-04-04T14:59:33Z</time></trkpt><trkpt lat="40.916598284934985" lon="9.018242025667421"><ele>751.0</ele><time>2026-04-04T14:59:34Z</time></trkpt><trkpt lat="40.91651908826749" lon="9.01811727864191"><ele>750.0</ele><time>2026-04-04T14:59:35Z</time></trkpt><trkpt lat="40.91646612281879" lon="9.017969212052034"><ele>750.0</ele><time>2026-04-04T14:59:36Z</time></trkpt><trkpt lat="40.91643861916313" lon="9.017814728044703"><ele>750.0</ele><time>2026-04-04T14:59:37Z</time></trkpt><trkpt lat="40.916414773285595" lon="9.017654232702501"><ele>750.0</ele><time>2026-04-04T14:59:38Z</time></trkpt><trkpt lat="40.916388070104645" lon="9.017497574239112"><ele>750.0</ele><time>2026-04-04T14:59:39Z</time></trkpt><trkpt lat="40.91635503392945" lon="9.017345732260415"><ele>752.1666666666666</ele><time>2026-04-04T14:59:40Z</time></trkpt><trkpt lat="40.916319871402024" lon="9.017219355896337"><ele>754.3333333333334</ele><time>2026-04-04T14:59:41Z</time></trkpt><trkpt lat="40.91628818044609" lon="9.01712006404206"><ele>756.5</ele><time>2026-04-04T14:59:42Z</time></trkpt><trkpt lat="40.9162592639761" lon="9.017019629878074"><ele>758.6666666666667</ele><time>2026-04-04T14:59:43Z</time></trkpt><trkpt lat="40.91622094460848" lon="9.016933041586787"><ele>760.8333333333334</ele><time>2026-04-04T14:59:44Z</time></trkpt><trkpt lat="40.9161754206791" lon="9.016848184456968"><ele>763.0</ele><time>2026-04-04T14:59:45Z</time></trkpt><trkpt lat="40.91613350032398" lon="9.016753768879473"><ele>763.0</ele><time>2026-04-04T14:59:46Z</time></trkpt><trkpt lat="40.91609722116238" lon="9.016661283195743"><ele>763.0</ele><time>2026-04-04T14:59:47Z</time></trkpt><trkpt lat="40.91606471978101" lon="9.016558426854703"><ele>763.0</ele><time>2026-04-04T14:59:48Z</time></trkpt><trkpt lat="40.91603087490863" lon="9.01645894544667"><ele>763.0</ele><time>2026-04-04T14:59:49Z</time></trkpt><trkpt lat="40.91599162483259" lon="9.016363672992885"><ele>763.0</ele><time>2026-04-04T14:59:50Z</time></trkpt><trkpt lat="40.91596192318919" lon="9.01628023461928"><ele>763.0</ele><time>2026-04-04T14:59:51Z</time></trkpt><trkpt lat="40.91591424365099" lon="9.016124127697227"><ele>764.3333333333334</ele><time>2026-04-04T14:59:53Z</time></trkpt><trkpt lat="40.915882856172736" lon="9.016048829469014"><ele>765.6666666666667</ele><time>2026-04-04T14:59:54Z</time></trkpt><trkpt lat="40.915847903695806" lon="9.015971858035446"><ele>767.0</ele><time>2026-04-04T14:59:55Z</time></trkpt><trkpt lat="40.91581262973899" lon="9.015894196725117"><ele>768.3333333333334</ele><time>2026-04-04T14:59:56Z</time></trkpt><trkpt lat="40.915772171993765" lon="9.015800280421582"><ele>769.6666666666666</ele><time>2026-04-04T14:59:57Z</time></trkpt><trkpt lat="40.915725411927305" lon="9.015697571839645"><ele>771.0</ele><time>2026-04-04T14:59:58Z</time></trkpt><trkpt lat="40.915678724171585" lon="9.015586267686857"><ele>774.0</ele><time>2026-04-04T14:59:59Z</time></trkpt><trkpt lat="40.91563481753166" lon="9.015478509288705"><ele>777.0</ele><time>2026-04-04T15:00:00Z</time></trkpt><trkpt lat="40.91559376405476" lon="9.01537149963221"><ele>780.0</ele><time>2026-04-04T15:00:01Z</time></trkpt><trkpt lat="40.91555304156857" lon="9.015249173575357"><ele>783.0</ele><time>2026-04-04T15:00:02Z</time></trkpt><trkpt lat="40.91550754934763" lon="9.015119423796158"><ele>786.0</ele><time>2026-04-04T15:00:03Z</time></trkpt><trkpt lat="40.91546321323589" lon="9.014987978984342"><ele>789.1999999999999</ele><time>2026-04-04T15:00:04Z</time></trkpt><trkpt lat="40.91542287133896" lon="9.014856640451445"><ele>792.4</ele><time>2026-04-04T15:00:05Z</time></trkpt><trkpt lat="40.91538564661481" lon="9.014725979957525"><ele>795.6</ele><time>2026-04-04T15:00:06Z</time></trkpt><trkpt lat="40.91536279993405" lon="9.014606084187848"><ele>798.8</ele><time>2026-04-04T15:00:07Z</time></trkpt><trkpt lat="40.91534716472167" lon="9.014479597878182"><ele>802.0</ele><time>2026-04-04T15:00:08Z</time></trkpt><trkpt lat="40.915346104171334" lon="9.0143519946654"><ele>802.0</ele><time>2026-04-04T15:00:09Z</time></trkpt><trkpt lat="40.91535168423643" lon="9.014217677015637"><ele>802.0</ele><time>2026-04-04T15:00:10Z</time></trkpt><trkpt lat="40.91535912615367" lon="9.014087511497234"><ele>802.0</ele><time>2026-04-04T15:00:11Z</time></trkpt><trkpt lat="40.915350330294046" lon="9.013950008290394"><ele>802.0</ele><time>2026-04-04T15:00:12Z</time></trkpt><trkpt lat="40.91532052742092" lon="9.01381468911166"><ele>802.0</ele><time>2026-04-04T15:00:13Z</time></trkpt><trkpt lat="40.91526219243842" lon="9.013685036463295"><ele>801.25</ele><time>2026-04-04T15:00:14Z</time></trkpt><trkpt lat="40.915195404995806" lon="9.01356805964856"><ele>800.5</ele><time>2026-04-04T15:00:15Z</time></trkpt><trkpt lat="40.91512037355114" lon="9.01346801139639"><ele>799.75</ele><time>2026-04-04T15:00:16Z</time></trkpt><trkpt lat="40.91502703270759" lon="9.01337512895791"><ele>799.0</ele><time>2026-04-04T15:00:17Z</time></trkpt><trkpt lat="40.91492128824937" lon="9.013286778189924"><ele>806.0</ele><time>2026-04-04T15:00:18Z</time></trkpt><trkpt lat="40.91480610302562" lon="9.01317035733258"><ele>813.0</ele><time>2026-04-04T15:00:19Z</time></trkpt><trkpt lat="40.91470334809591" lon="9.013069629376643"><ele>820.0</ele><time>2026-04-04T15:00:20Z</time></trkpt><trkpt lat="40.91462946106728" lon="9.012996044754281"><ele>827.0</ele><time>2026-04-04T15:00:21Z</time></trkpt><trkpt lat="40.91455944469879" lon="9.012933538989394"><ele>827.0000000000001</ele><time>2026-04-04T15:00:22Z</time></trkpt><trkpt lat="40.91449493549154" lon="9.012851843757858"><ele>827.0</ele><time>2026-04-04T15:00:23Z</time></trkpt><trkpt lat="40.91444494962794" lon="9.012766828507516"><ele>827.0</ele><time>2026-04-04T15:00:24Z</time></trkpt><trkpt lat="40.91440861738606" lon="9.012672450279265"><ele>827.0</ele><time>2026-04-04T15:00:25Z</time></trkpt><trkpt lat="40.91438466292045" lon="9.01255942249375"><ele>827.0000000000001</ele><time>2026-04-04T15:00:26Z</time></trkpt><trkpt lat="40.91436903928377" lon="9.012424052989696"><ele>827.0</ele><time>2026-04-04T15:00:27Z</time></trkpt><trkpt lat="40.914341432585815" lon="9.012262601439204"><ele>829.25</ele><time>2026-04-04T15:00:28.001Z</time></trkpt><trkpt lat="40.91430621881875" lon="9.012101311433725"><ele>831.5</ele><time>2026-04-04T15:00:29.001Z</time></trkpt><trkpt lat="40.91427291248071" lon="9.01194240106814"><ele>833.75</ele><time>2026-04-04T15:00:30.001Z</time></trkpt><trkpt lat="40.91424099738296" lon="9.011776832646131"><ele>836.0</ele><time>2026-04-04T15:00:31.001Z</time></trkpt><trkpt lat="40.91421233553602" lon="9.01161321631916"><ele>836.0</ele><time>2026-04-04T15:00:32.001Z</time></trkpt><trkpt lat="40.91417516289355" lon="9.011459962944935"><ele>836.0</ele><time>2026-04-04T15:00:33.001Z</time></trkpt><trkpt lat="40.91413041669875" lon="9.011306624092596"><ele>836.0</ele><time>2026-04-04T15:00:34.001Z</time></trkpt><trkpt lat="40.91408206349702" lon="9.011150890597033"><ele>836.0</ele><time>2026-04-04T15:00:35.001Z</time></trkpt><trkpt lat="40.91403064882977" lon="9.010995629056811"><ele>836.0</ele><time>2026-04-04T15:00:36.001Z</time></trkpt><trkpt lat="40.913989652063755" lon="9.010845952702448"><ele>836.0</ele><time>2026-04-04T15:00:37.001Z</time></trkpt><trkpt lat="40.91394984850879" lon="9.010716145498595"><ele>836.0</ele><time>2026-04-04T15:00:38.001Z</time></trkpt><trkpt lat="40.913895970579425" lon="9.010591961855276"><ele>836.0</ele><time>2026-04-04T15:00:39.001Z</time></trkpt><trkpt lat="40.913841269620406" lon="9.01047384950266"><ele>836.0</ele><time>2026-04-04T15:00:40.001Z</time></trkpt><trkpt lat="40.91379743781956" lon="9.010352511706172"><ele>838.75</ele><time>2026-04-04T15:00:41.001Z</time></trkpt><trkpt lat="40.913764600060986" lon="9.010229701112277"><ele>841.5</ele><time>2026-04-04T15:00:42.001Z</time></trkpt><trkpt lat="40.91374549227211" lon="9.010085022830413"><ele>844.25</ele><time>2026-04-04T15:00:43.001Z</time></trkpt><trkpt lat="40.913713411896204" lon="9.009928553020812"><ele>847.0</ele><time>2026-04-04T15:00:44.001Z</time></trkpt><trkpt lat="40.91367108801942" lon="9.009775983628826"><ele>847.8</ele><time>2026-04-04T15:00:45.001Z</time></trkpt><trkpt lat="40.91363096777873" lon="9.009630215539296"><ele>848.6</ele><time>2026-04-04T15:00:46.001Z</time></trkpt><trkpt lat="40.91359351433426" lon="9.009488393557943"><ele>849.4</ele><time>2026-04-04T15:00:47.001Z</time></trkpt><trkpt lat="40.91355800560888" lon="9.009353990071013"><ele>850.1999999999999</ele><time>2026-04-04T15:00:48.001Z</time></trkpt><trkpt lat="40.91353192685112" lon="9.00923447816037"><ele>851.0</ele><time>2026-04-04T15:00:49.001Z</time></trkpt><trkpt lat="40.9135179545564" lon="9.009114845104277"><ele>851.75</ele><time>2026-04-04T15:00:50.001Z</time></trkpt><trkpt lat="40.913518253150464" lon="9.00898128707219"><ele>852.5</ele><time>2026-04-04T15:00:51.001Z</time></trkpt><trkpt lat="40.91353994412624" lon="9.008844514804046"><ele>853.25</ele><time>2026-04-04T15:00:52.001Z</time></trkpt><trkpt lat="40.9135872117822" lon="9.008698600819127"><ele>854.0</ele><time>2026-04-04T15:00:53.001Z</time></trkpt><trkpt lat="40.91363070465171" lon="9.008543908519215"><ele>854.0</ele><time>2026-04-04T15:00:54.001Z</time></trkpt><trkpt lat="40.91367292353724" lon="9.008380864193091"><ele>854.0</ele><time>2026-04-04T15:00:55.001Z</time></trkpt><trkpt lat="40.9137114342487" lon="9.008226297242604"><ele>854.0</ele><time>2026-04-04T15:00:56.001Z</time></trkpt><trkpt lat="40.91374406294298" lon="9.008073896727511"><ele>854.0</ele><time>2026-04-04T15:00:57.001Z</time></trkpt><trkpt lat="40.91377324037091" lon="9.007925500446973"><ele>853.25</ele><time>2026-04-04T15:00:58.001Z</time></trkpt><trkpt lat="40.91381444115517" lon="9.00778453621969"><ele>852.5</ele><time>2026-04-04T15:00:59.001Z</time></trkpt><trkpt lat="40.91386590010654" lon="9.007651338591714"><ele>851.75</ele><time>2026-04-04T15:01:00.001Z</time></trkpt><trkpt lat="40.913929791643255" lon="9.007532713587498"><ele>851.0</ele><time>2026-04-04T15:01:01.001Z</time></trkpt><trkpt lat="40.91400276934618" lon="9.007412576265477"><ele>851.5</ele><time>2026-04-04T15:01:02.001Z</time></trkpt><trkpt lat="40.91407491301695" lon="9.00728941860333"><ele>852.0</ele><time>2026-04-04T15:01:03.001Z</time></trkpt><trkpt lat="40.914143570113794" lon="9.007158356314243"><ele>852.5</ele><time>2026-04-04T15:01:04.001Z</time></trkpt><trkpt lat="40.914212247731996" lon="9.007015838355718"><ele>853.0</ele><time>2026-04-04T15:01:05.001Z</time></trkpt><trkpt lat="40.91429474592481" lon="9.006869889944285"><ele>853.0</ele><time>2026-04-04T15:01:06.001Z</time></trkpt><trkpt lat="40.91437996234115" lon="9.006731995507366"><ele>853.0</ele><time>2026-04-04T15:01:07.001Z</time></trkpt><trkpt lat="40.9144559179167" lon="9.006586411706953"><ele>853.0</ele><time>2026-04-04T15:01:08.001Z</time></trkpt><trkpt lat="40.9145112386064" lon="9.00641526071555"><ele>853.0</ele><time>2026-04-04T15:01:09.001Z</time></trkpt><trkpt lat="40.91455283272186" lon="9.0062324958026"><ele>851.5</ele><time>2026-04-04T15:01:10.001Z</time></trkpt><trkpt lat="40.914593612952174" lon="9.006049134823684"><ele>850.0</ele><time>2026-04-04T15:01:11.001Z</time></trkpt><trkpt lat="40.91464242797185" lon="9.005869906985902"><ele>848.5</ele><time>2026-04-04T15:01:12.001Z</time></trkpt><trkpt lat="40.91468483673193" lon="9.005696257235051"><ele>847.0</ele><time>2026-04-04T15:01:13.001Z</time></trkpt><trkpt lat="40.914712499913904" lon="9.00550286260764"><ele>845.0</ele><time>2026-04-04T15:01:14.001Z</time></trkpt><trkpt lat="40.91474019279252" lon="9.005312332107813"><ele>843.0</ele><time>2026-04-04T15:01:15.001Z</time></trkpt><trkpt lat="40.914777766262134" lon="9.005104297462571"><ele>841.0</ele><time>2026-04-04T15:01:16.001Z</time></trkpt><trkpt lat="40.91482190013748" lon="9.004893084923594"><ele>840.6666666666666</ele><time>2026-04-04T15:01:17.001Z</time></trkpt><trkpt lat="40.914876262546706" lon="9.004678253399533"><ele>840.3333333333333</ele><time>2026-04-04T15:01:18.001Z</time></trkpt><trkpt lat="40.914928738257466" lon="9.004465198586505"><ele>840.0</ele><time>2026-04-04T15:01:19.001Z</time></trkpt><trkpt lat="40.914979233925045" lon="9.004247878870661"><ele>840.3333333333333</ele><time>2026-04-04T15:01:20.001Z</time></trkpt><trkpt lat="40.915031664978464" lon="9.00403638947818"><ele>840.6666666666666</ele><time>2026-04-04T15:01:21.001Z</time></trkpt><trkpt lat="40.91508410204776" lon="9.003821036950932"><ele>841.0</ele><time>2026-04-04T15:01:22.001Z</time></trkpt><trkpt lat="40.91513132840014" lon="9.00361151661155"><ele>841.25</ele><time>2026-04-04T15:01:23.001Z</time></trkpt><trkpt lat="40.915174615502174" lon="9.00343134503561"><ele>841.5</ele><time>2026-04-04T15:01:24.001Z</time></trkpt><trkpt lat="40.91521538358069" lon="9.003284263632809"><ele>841.75</ele><time>2026-04-04T15:01:25.001Z</time></trkpt><trkpt lat="40.91525553161871" lon="9.003158041611583"><ele>842.0</ele><time>2026-04-04T15:01:26.001Z</time></trkpt><trkpt lat="40.9153103429122" lon="9.003052875335179"><ele>844.4000000000001</ele><time>2026-04-04T15:01:27.001Z</time></trkpt><trkpt lat="40.91537713484327" lon="9.002957186029677"><ele>846.8000000000001</ele><time>2026-04-04T15:01:28Z</time></trkpt><trkpt lat="40.91544585252386" lon="9.002873838212102"><ele>849.2</ele><time>2026-04-04T15:01:29Z</time></trkpt><trkpt lat="40.91551004245967" lon="9.002785457303244"><ele>851.6</ele><time>2026-04-04T15:01:30Z</time></trkpt><trkpt lat="40.915577115591766" lon="9.002682305781313"><ele>854.0</ele><time>2026-04-04T15:01:31Z</time></trkpt><trkpt lat="40.915655132954086" lon="9.002573433216908"><ele>855.5</ele><time>2026-04-04T15:01:32Z</time></trkpt><trkpt lat="40.915728961631196" lon="9.002459172606036"><ele>857.0</ele><time>2026-04-04T15:01:33Z</time></trkpt><trkpt lat="40.91579941065975" lon="9.002344647875947"><ele>858.5</ele><time>2026-04-04T15:01:34Z</time></trkpt><trkpt lat="40.91587133694522" lon="9.002223275603184"><ele>860.0</ele><time>2026-04-04T15:01:35Z</time></trkpt><trkpt lat="40.915949140529925" lon="9.002098031071085"><ele>861.6</ele><time>2026-04-04T15:01:36Z</time></trkpt><trkpt lat="40.91602317963421" lon="9.001970661357879"><ele>863.2</ele><time>2026-04-04T15:01:37Z</time></trkpt><trkpt lat="40.91608153581735" lon="9.001866967681432"><ele>864.8</ele><time>2026-04-04T15:01:38Z</time></trkpt><trkpt lat="40.916123449440406" lon="9.001764225057155"><ele>866.4</ele><time>2026-04-04T15:01:39Z</time></trkpt><trkpt lat="40.91617040457424" lon="9.001645148581368"><ele>868.0</ele><time>2026-04-04T15:01:40Z</time></trkpt><trkpt lat="40.91623283733184" lon="9.001532491294993"><ele>869.0</ele><time>2026-04-04T15:01:41Z</time></trkpt><trkpt lat="40.916310314553485" lon="9.001423245879474"><ele>870.0</ele><time>2026-04-04T15:01:42Z</time></trkpt><trkpt lat="40.91638506915408" lon="9.001318576170943"><ele>871.0</ele><time>2026-04-04T15:01:43Z</time></trkpt><trkpt lat="40.91646548710903" lon="9.00121288096985"><ele>872.0</ele><time>2026-04-04T15:01:44Z</time></trkpt><trkpt lat="40.91655704498585" lon="9.00109571229523"><ele>872.0</ele><time>2026-04-04T15:01:45Z</time></trkpt><trkpt lat="40.91665407204538" lon="9.000970400980597"><ele>872.0</ele><time>2026-04-04T15:01:46Z</time></trkpt><trkpt lat="40.916738867685275" lon="9.000846273444822"><ele>872.0</ele><time>2026-04-04T15:01:47Z</time></trkpt><trkpt lat="40.91680983696386" lon="9.000714512349015"><ele>872.0</ele><time>2026-04-04T15:01:48Z</time></trkpt><trkpt lat="40.9168754543492" lon="9.000561067790773"><ele>871.5</ele><time>2026-04-04T15:01:49Z</time></trkpt><trkpt lat="40.9169368422855" lon="9.00042130777316"><ele>871.0</ele><time>2026-04-04T15:01:50Z</time></trkpt><trkpt lat="40.91699415032621" lon="9.000284247439934"><ele>870.5</ele><time>2026-04-04T15:01:51Z</time></trkpt><trkpt lat="40.917044987937025" lon="9.000140358177989"><ele>870.0</ele><time>2026-04-04T15:01:52Z</time></trkpt><trkpt lat="40.91708970880378" lon="8.999996872263653"><ele>870.0</ele><time>2026-04-04T15:01:53Z</time></trkpt><trkpt lat="40.91712682268851" lon="8.99986684600884"><ele>870.0</ele><time>2026-04-04T15:01:54Z</time></trkpt><trkpt lat="40.91715291529947" lon="8.999721247805319"><ele>870.0</ele><time>2026-04-04T15:01:55Z</time></trkpt><trkpt lat="40.91715932963133" lon="8.999543442286859"><ele>870.0</ele><time>2026-04-04T15:01:56Z</time></trkpt><trkpt lat="40.917148393085945" lon="8.99933223543316"><ele>870.75</ele><time>2026-04-04T15:01:57Z</time></trkpt><trkpt lat="40.917137074896424" lon="8.99911698514609"><ele>871.5</ele><time>2026-04-04T15:01:58Z</time></trkpt><trkpt lat="40.91712694119768" lon="8.998941662287228"><ele>872.25</ele><time>2026-04-04T15:01:59Z</time></trkpt><trkpt lat="40.91712669295966" lon="8.998775533798351"><ele>873.0</ele><time>2026-04-04T15:02:00Z</time></trkpt><trkpt lat="40.917115317354465" lon="8.998596526379524"><ele>873.0</ele><time>2026-04-04T15:02:01Z</time></trkpt><trkpt lat="40.917088938586666" lon="8.99841882664696"><ele>873.0</ele><time>2026-04-04T15:02:02Z</time></trkpt><trkpt lat="40.91705517603551" lon="8.998245654143496"><ele>873.0</ele><time>2026-04-04T15:02:03Z</time></trkpt><trkpt lat="40.91702615984471" lon="8.99807730553053"><ele>873.0</ele><time>2026-04-04T15:02:04Z</time></trkpt><trkpt lat="40.91700998861961" lon="8.997917730717086"><ele>872.0</ele><time>2026-04-04T15:02:05Z</time></trkpt><trkpt lat="40.9169968115386" lon="8.997771864247554"><ele>871.0</ele><time>2026-04-04T15:02:06Z</time></trkpt><trkpt lat="40.916987089833654" lon="8.997642806475762"><ele>870.0</ele><time>2026-04-04T15:02:07Z</time></trkpt><trkpt lat="40.91698871362709" lon="8.997535966311679"><ele>869.0</ele><time>2026-04-04T15:02:08Z</time></trkpt><trkpt lat="40.917004446263746" lon="8.997414769658903"><ele>868.0</ele><time>2026-04-04T15:02:09Z</time></trkpt><trkpt lat="40.91705307933996" lon="8.997259484056594"><ele>866.3333333333333</ele><time>2026-04-04T15:02:10Z</time></trkpt><trkpt lat="40.91709446106081" lon="8.997082186533511"><ele>864.6666666666667</ele><time>2026-04-04T15:02:11Z</time></trkpt><trkpt lat="40.91713428284497" lon="8.996881641257819"><ele>863.0</ele><time>2026-04-04T15:02:12Z</time></trkpt><trkpt lat="40.917179068281335" lon="8.996677944092465"><ele>861.75</ele><time>2026-04-04T15:02:13Z</time></trkpt><trkpt lat="40.91722480947374" lon="8.996487853050878"><ele>860.5</ele><time>2026-04-04T15:02:14Z</time></trkpt><trkpt lat="40.91726861828999" lon="8.996312894083092"><ele>859.25</ele><time>2026-04-04T15:02:15Z</time></trkpt><trkpt lat="40.91731077159129" lon="8.996149432806533"><ele>858.0</ele><time>2026-04-04T15:02:16Z</time></trkpt><trkpt lat="40.917346602521306" lon="8.995994855753926"><ele>858.0</ele><time>2026-04-04T15:02:17Z</time></trkpt><trkpt lat="40.91738204237008" lon="8.995862889029508"><ele>858.0</ele><time>2026-04-04T15:02:18Z</time></trkpt><trkpt lat="40.917412529589036" lon="8.995743109784678"><ele>858.0</ele><time>2026-04-04T15:02:19Z</time></trkpt><trkpt lat="40.91742043484411" lon="8.995624024969443"><ele>858.0</ele><time>2026-04-04T15:02:20Z</time></trkpt><trkpt lat="40.917404153993054" lon="8.995520299703749"><ele>858.0</ele><time>2026-04-04T15:02:21Z</time></trkpt><trkpt lat="40.91737312657477" lon="8.99542124054323"><ele>858.0</ele><time>2026-04-04T15:02:22Z</time></trkpt><trkpt lat="40.91732712369043" lon="8.995304500261506"><ele>858.0</ele><time>2026-04-04T15:02:23Z</time></trkpt><trkpt lat="40.91727050513323" lon="8.995177042539648"><ele>858.0</ele><time>2026-04-04T15:02:24Z</time></trkpt><trkpt lat="40.91721948342877" lon="8.995059236863726"><ele>858.0</ele><time>2026-04-04T15:02:25Z</time></trkpt><trkpt lat="40.91718515332131" lon="8.994956697444557"><ele>858.0</ele><time>2026-04-04T15:02:26Z</time></trkpt><trkpt lat="40.9171540186349" lon="8.994857497119868"><ele>858.8333333333334</ele><time>2026-04-04T15:02:27Z</time></trkpt><trkpt lat="40.91712595270996" lon="8.99475732059802"><ele>859.6666666666667</ele><time>2026-04-04T15:02:28Z</time></trkpt><trkpt lat="40.91710122510653" lon="8.994649009835523"><ele>860.5</ele><time>2026-04-04T15:02:29Z</time></trkpt><trkpt lat="40.91708282906246" lon="8.994534490911347"><ele>861.3333333333334</ele><time>2026-04-04T15:02:30Z</time></trkpt><trkpt lat="40.91706690661702" lon="8.994416823305656"><ele>862.1666666666667</ele><time>2026-04-04T15:02:31Z</time></trkpt><trkpt lat="40.91705839134492" lon="8.994292111684805"><ele>863.0</ele><time>2026-04-04T15:02:32Z</time></trkpt><trkpt lat="40.91705573731244" lon="8.99416981243455"><ele>865.2</ele><time>2026-04-04T15:02:33Z</time></trkpt><trkpt lat="40.91706687287862" lon="8.994038995176457"><ele>867.4</ele><time>2026-04-04T15:02:34Z</time></trkpt><trkpt lat="40.91707812476622" lon="8.993905511069597"><ele>869.6000000000001</ele><time>2026-04-04T15:02:35Z</time></trkpt><trkpt lat="40.91708769028434" lon="8.99376953065542"><ele>871.8000000000001</ele><time>2026-04-04T15:02:36.001Z</time></trkpt><trkpt lat="40.91708764613374" lon="8.99363762768904"><ele>874.0</ele><time>2026-04-04T15:02:37.001Z</time></trkpt><trkpt lat="40.917080025726044" lon="8.993507682987415"><ele>874.0</ele><time>2026-04-04T15:02:38.001Z</time></trkpt><trkpt lat="40.91705682404652" lon="8.993383831157075"><ele>874.0000000000001</ele><time>2026-04-04T15:02:39.001Z</time></trkpt><trkpt lat="40.91700069754769" lon="8.993258721402482"><ele>874.0000000000001</ele><time>2026-04-04T15:02:40.001Z</time></trkpt><trkpt lat="40.916928803712885" lon="8.993138588522102"><ele>874.0</ele><time>2026-04-04T15:02:41.001Z</time></trkpt><trkpt lat="40.916850158274286" lon="8.993017734423312"><ele>874.0</ele><time>2026-04-04T15:02:42.001Z</time></trkpt><trkpt lat="40.9167716219205" lon="8.992902466314847"><ele>874.2</ele><time>2026-04-04T15:02:43.001Z</time></trkpt><trkpt lat="40.91669620637281" lon="8.992773938966463"><ele>874.4000000000001</ele><time>2026-04-04T15:02:44.001Z</time></trkpt><trkpt lat="40.91662861049934" lon="8.992644836067095"><ele>874.6</ele><time>2026-04-04T15:02:45.001Z</time></trkpt><trkpt lat="40.91657193286322" lon="8.992537575320842"><ele>874.8</ele><time>2026-04-04T15:02:46.001Z</time></trkpt><trkpt lat="40.91651315273981" lon="8.992436904567406"><ele>875.0</ele><time>2026-04-04T15:02:47.001Z</time></trkpt><trkpt lat="40.91644321137505" lon="8.992340668111337"><ele>875.0</ele><time>2026-04-04T15:02:48.001Z</time></trkpt><trkpt lat="40.91635720878721" lon="8.992241783896535"><ele>875.0</ele><time>2026-04-04T15:02:49.001Z</time></trkpt><trkpt lat="40.916257740782605" lon="8.992144833852159"><ele>875.0</ele><time>2026-04-04T15:02:50.001Z</time></trkpt><trkpt lat="40.91615353094652" lon="8.99204381099195"><ele>875.0</ele><time>2026-04-04T15:02:51.001Z</time></trkpt><trkpt lat="40.91604431809355" lon="8.991941042832384"><ele>875.0</ele><time>2026-04-04T15:02:52.001Z</time></trkpt><trkpt lat="40.91593245885184" lon="8.991839039104322"><ele>875.0</ele><time>2026-04-04T15:02:53.001Z</time></trkpt><trkpt lat="40.91582221980865" lon="8.991742756053513"><ele>875.0</ele><time>2026-04-04T15:02:54.001Z</time></trkpt><trkpt lat="40.91570957865754" lon="8.991648916872466"><ele>875.0</ele><time>2026-04-04T15:02:55.001Z</time></trkpt><trkpt lat="40.915610075337874" lon="8.991566611674557"><ele>874.8</ele><time>2026-04-04T15:02:56.001Z</time></trkpt><trkpt lat="40.915514613813365" lon="8.991491921121302"><ele>874.6</ele><time>2026-04-04T15:02:57.001Z</time></trkpt><trkpt lat="40.91542721402301" lon="8.99141576315773"><ele>874.4000000000001</ele><time>2026-04-04T15:02:58.001Z</time></trkpt><trkpt lat="40.915343143138955" lon="8.991345061736855"><ele>874.2</ele><time>2026-04-04T15:02:59.001Z</time></trkpt><trkpt lat="40.915262784114596" lon="8.99128201761195"><ele>874.0</ele><time>2026-04-04T15:03:00.001Z</time></trkpt><trkpt lat="40.91517618934941" lon="8.991225741032041"><ele>874.0</ele><time>2026-04-04T15:03:01.001Z</time></trkpt><trkpt lat="40.91508299184183" lon="8.991172415139046"><ele>874.0000000000001</ele><time>2026-04-04T15:03:02.001Z</time></trkpt><trkpt lat="40.91497529463957" lon="8.991114129232448"><ele>874.0000000000001</ele><time>2026-04-04T15:03:03.001Z</time></trkpt><trkpt lat="40.91486582071692" lon="8.991062948341652"><ele>874.0</ele><time>2026-04-04T15:03:04.001Z</time></trkpt><trkpt lat="40.91476012651264" lon="8.991005443527524"><ele>874.0</ele><time>2026-04-04T15:03:05.001Z</time></trkpt><trkpt lat="40.914661244673084" lon="8.990930361983036"><ele>873.25</ele><time>2026-04-04T15:03:06.001Z</time></trkpt><trkpt lat="40.91456661616499" lon="8.990843454302194"><ele>872.5</ele><time>2026-04-04T15:03:07.001Z</time></trkpt><trkpt lat="40.91446469214502" lon="8.990740074683982"><ele>871.75</ele><time>2026-04-04T15:03:08.001Z</time></trkpt><trkpt lat="40.91436479205341" lon="8.990638203778344"><ele>871.0</ele><time>2026-04-04T15:03:09.001Z</time></trkpt><trkpt lat="40.91427194915902" lon="8.990532441811322"><ele>865.75</ele><time>2026-04-04T15:03:10.001Z</time></trkpt><trkpt lat="40.914176599132944" lon="8.990418439843303"><ele>860.5</ele><time>2026-04-04T15:03:11.001Z</time></trkpt><trkpt lat="40.914086563778476" lon="8.990312895039196"><ele>855.25</ele><time>2026-04-04T15:03:12.001Z</time></trkpt><trkpt lat="40.91399772146302" lon="8.990211014381863"><ele>850.0</ele><time>2026-04-04T15:03:13.001Z</time></trkpt><trkpt lat="40.91390232419711" lon="8.990107197263338"><ele>853.25</ele><time>2026-04-04T15:03:14.001Z</time></trkpt><trkpt lat="40.91379511125905" lon="8.990004403385194"><ele>856.5</ele><time>2026-04-04T15:03:15.001Z</time></trkpt><trkpt lat="40.91368425171975" lon="8.989894287132719"><ele>859.75</ele><time>2026-04-04T15:03:16.001Z</time></trkpt><trkpt lat="40.913572772859006" lon="8.98977815144521"><ele>863.0</ele><time>2026-04-04T15:03:17.001Z</time></trkpt><trkpt lat="40.91345884536214" lon="8.9896652669851"><ele>858.5</ele><time>2026-04-04T15:03:18.001Z</time></trkpt><trkpt lat="40.91335348134828" lon="8.989556395639354"><ele>854.0</ele><time>2026-04-04T15:03:19.001Z</time></trkpt><trkpt lat="40.91325853822534" lon="8.989449557071898"><ele>849.5</ele><time>2026-04-04T15:03:20.001Z</time></trkpt><trkpt lat="40.91316786772714" lon="8.989340191870216"><ele>845.0</ele><time>2026-04-04T15:03:21.001Z</time></trkpt><trkpt lat="40.91308418398129" lon="8.989215612953862"><ele>847.0</ele><time>2026-04-04T15:03:22.001Z</time></trkpt><trkpt lat="40.91300483087658" lon="8.989083419141114"><ele>849.0</ele><time>2026-04-04T15:03:23.001Z</time></trkpt><trkpt lat="40.91292724306785" lon="8.988952758506422"><ele>851.0</ele><time>2026-04-04T15:03:24.001Z</time></trkpt><trkpt lat="40.912850805547976" lon="8.988828912765273"><ele>853.0</ele><time>2026-04-04T15:03:25.001Z</time></trkpt><trkpt lat="40.91277306963345" lon="8.988698662310417"><ele>853.0</ele><time>2026-04-04T15:03:26.001Z</time></trkpt><trkpt lat="40.91269237120016" lon="8.988566145279414"><ele>853.0</ele><time>2026-04-04T15:03:27.001Z</time></trkpt><trkpt lat="40.91261354973221" lon="8.98844468296376"><ele>853.0</ele><time>2026-04-04T15:03:28.001Z</time></trkpt><trkpt lat="40.91253518742218" lon="8.988324784044773"><ele>853.0</ele><time>2026-04-04T15:03:29.001Z</time></trkpt><trkpt lat="40.91244984460346" lon="8.988206174503025"><ele>850.0</ele><time>2026-04-04T15:03:30.001Z</time></trkpt><trkpt lat="40.91234933221672" lon="8.98808519712379"><ele>847.0</ele><time>2026-04-04T15:03:31.001Z</time></trkpt><trkpt lat="40.91223974609411" lon="8.987960353379496"><ele>844.0</ele><time>2026-04-04T15:03:32.001Z</time></trkpt><trkpt lat="40.91214193919032" lon="8.987841281303995"><ele>841.0</ele><time>2026-04-04T15:03:33.001Z</time></trkpt><trkpt lat="40.91205956414404" lon="8.987734358677907"><ele>841.0</ele><time>2026-04-04T15:03:34Z</time></trkpt><trkpt lat="40.91196801956501" lon="8.987635355795419"><ele>841.0</ele><time>2026-04-04T15:03:35Z</time></trkpt><trkpt lat="40.911861067973476" lon="8.987541872324039"><ele>841.0</ele><time>2026-04-04T15:03:36Z</time></trkpt><trkpt lat="40.91175032165141" lon="8.987468091151259"><ele>841.0</ele><time>2026-04-04T15:03:37Z</time></trkpt><trkpt lat="40.911645245276006" lon="8.987394445184933"><ele>840.4</ele><time>2026-04-04T15:03:38Z</time></trkpt><trkpt lat="40.91153969170365" lon="8.987338798067386"><ele>839.8</ele><time>2026-04-04T15:03:39Z</time></trkpt><trkpt lat="40.91143914014912" lon="8.987278176570726"><ele>839.1999999999999</ele><time>2026-04-04T15:03:40Z</time></trkpt><trkpt lat="40.91134000357223" lon="8.987222211721374"><ele>838.5999999999999</ele><time>2026-04-04T15:03:41Z</time></trkpt><trkpt lat="40.91124556919758" lon="8.987175216467955"><ele>838.0</ele><time>2026-04-04T15:03:42Z</time></trkpt><trkpt lat="40.91115273963825" lon="8.987133162422555"><ele>837.9999999999999</ele><time>2026-04-04T15:03:43Z</time></trkpt><trkpt lat="40.91106874730562" lon="8.987087368263454"><ele>838.0</ele><time>2026-04-04T15:03:44Z</time></trkpt><trkpt lat="40.91099947614827" lon="8.98703733354935"><ele>838.0</ele><time>2026-04-04T15:03:45Z</time></trkpt><trkpt lat="40.91093315402423" lon="8.986984953303931"><ele>838.0</ele><time>2026-04-04T15:03:46Z</time></trkpt><trkpt lat="40.9108700255911" lon="8.986927254357907"><ele>837.9999999999999</ele><time>2026-04-04T15:03:47Z</time></trkpt><trkpt lat="40.9108071456393" lon="8.98683962049946"><ele>838.0</ele><time>2026-04-04T15:03:48Z</time></trkpt><trkpt lat="40.91073693293838" lon="8.986737238877389"><ele>834.8</ele><time>2026-04-04T15:03:49Z</time></trkpt><trkpt lat="40.910673340663095" lon="8.986628389422616"><ele>831.5999999999999</ele><time>2026-04-04T15:03:50Z</time></trkpt><trkpt lat="40.910611217194756" lon="8.986516309581237"><ele>828.4000000000001</ele><time>2026-04-04T15:03:51Z</time></trkpt><trkpt lat="40.91056096251186" lon="8.986390305392414"><ele>825.2</ele><time>2026-04-04T15:03:52Z</time></trkpt><trkpt lat="40.91052750268439" lon="8.9862584530543"><ele>822.0</ele><time>2026-04-04T15:03:53Z</time></trkpt><trkpt lat="40.91049513122914" lon="8.98611800246173"><ele>822.0</ele><time>2026-04-04T15:03:54Z</time></trkpt><trkpt lat="40.91046140323964" lon="8.985965731914487"><ele>822.0</ele><time>2026-04-04T15:03:55Z</time></trkpt><trkpt lat="40.91043625065623" lon="8.985812544274587"><ele>822.0</ele><time>2026-04-04T15:03:56Z</time></trkpt><trkpt lat="40.91040842500897" lon="8.985655803675003"><ele>822.0</ele><time>2026-04-04T15:03:57Z</time></trkpt><trkpt lat="40.91037515121001" lon="8.985494463139181"><ele>822.0</ele><time>2026-04-04T15:03:58Z</time></trkpt><trkpt lat="40.91033972811103" lon="8.98534834325921"><ele>822.0</ele><time>2026-04-04T15:03:59Z</time></trkpt><trkpt lat="40.91031179027007" lon="8.985217127209479"><ele>822.0</ele><time>2026-04-04T15:04:00Z</time></trkpt><trkpt lat="40.910297845120105" lon="8.985094211841362"><ele>822.0</ele><time>2026-04-04T15:04:01Z</time></trkpt><trkpt lat="40.91031042693091" lon="8.98496515130067"><ele>822.0</ele><time>2026-04-04T15:04:02Z</time></trkpt><trkpt lat="40.910351596012035" lon="8.98483475961689"><ele>821.0</ele><time>2026-04-04T15:04:03Z</time></trkpt><trkpt lat="40.91040825693299" lon="8.984691940603389"><ele>820.0</ele><time>2026-04-04T15:04:04Z</time></trkpt><trkpt lat="40.91047653952275" lon="8.984540272980698"><ele>819.0</ele><time>2026-04-04T15:04:05Z</time></trkpt><trkpt lat="40.910530321319634" lon="8.98439820451728"><ele>818.0</ele><time>2026-04-04T15:04:06Z</time></trkpt><trkpt lat="40.91054975208286" lon="8.984267632688994"><ele>817.8</ele><time>2026-04-04T15:04:07Z</time></trkpt><trkpt lat="40.91054140905731" lon="8.984148717767287"><ele>817.5999999999999</ele><time>2026-04-04T15:04:08Z</time></trkpt><trkpt lat="40.910511257671736" lon="8.984016360256875"><ele>817.4000000000001</ele><time>2026-04-04T15:04:09Z</time></trkpt><trkpt lat="40.91048791943997" lon="8.983872423995525"><ele>817.2</ele><time>2026-04-04T15:04:10Z</time></trkpt><trkpt lat="40.9104891218594" lon="8.983725782460727"><ele>817.0</ele><time>2026-04-04T15:04:11Z</time></trkpt><trkpt lat="40.91050923803083" lon="8.98358116040926"><ele>817.0</ele><time>2026-04-04T15:04:12Z</time></trkpt><trkpt lat="40.910521750246176" lon="8.983449252648617"><ele>817.0</ele><time>2026-04-04T15:04:13Z</time></trkpt><trkpt lat="40.91051541517765" lon="8.983319809695969"><ele>817.0</ele><time>2026-04-04T15:04:14Z</time></trkpt><trkpt lat="40.91048396531697" lon="8.983187384575395"><ele>817.0</ele><time>2026-04-04T15:04:15Z</time></trkpt><trkpt lat="40.91044868812953" lon="8.98305522862229"><ele>817.0</ele><time>2026-04-04T15:04:16Z</time></trkpt><trkpt lat="40.9104094208975" lon="8.982930508014382"><ele>818.25</ele><time>2026-04-04T15:04:17Z</time></trkpt><trkpt lat="40.910349085370726" lon="8.982796541166724"><ele>819.5</ele><time>2026-04-04T15:04:18Z</time></trkpt><trkpt lat="40.91027488473821" lon="8.982640336435106"><ele>820.75</ele><time>2026-04-04T15:04:19Z</time></trkpt><trkpt lat="40.910201785922055" lon="8.982493936549282"><ele>822.0</ele><time>2026-04-04T15:04:20Z</time></trkpt><trkpt lat="40.910126114339626" lon="8.982370539278955"><ele>816.4000000000001</ele><time>2026-04-04T15:04:21Z</time></trkpt><trkpt lat="40.91005226866875" lon="8.98225051889715"><ele>810.8000000000001</ele><time>2026-04-04T15:04:22Z</time></trkpt><trkpt lat="40.909982946623714" lon="8.98213044863675"><ele>805.2</ele><time>2026-04-04T15:04:23Z</time></trkpt><trkpt lat="40.909924636526405" lon="8.98200911985186"><ele>799.6</ele><time>2026-04-04T15:04:24Z</time></trkpt><trkpt lat="40.909873532190794" lon="8.981900433553015"><ele>794.0</ele><time>2026-04-04T15:04:25Z</time></trkpt><trkpt lat="40.90983525446352" lon="8.98177894229658"><ele>796.5</ele><time>2026-04-04T15:04:26Z</time></trkpt><trkpt lat="40.90979540837247" lon="8.981640275507436"><ele>799.0</ele><time>2026-04-04T15:04:27Z</time></trkpt><trkpt lat="40.90975842998938" lon="8.98148243729551"><ele>801.5</ele><time>2026-04-04T15:04:28Z</time></trkpt><trkpt lat="40.90971987776729" lon="8.981334222517983"><ele>804.0</ele><time>2026-04-04T15:04:29Z</time></trkpt><trkpt lat="40.909684012455294" lon="8.98118798874629"><ele>804.0</ele><time>2026-04-04T15:04:30Z</time></trkpt><trkpt lat="40.90966141397082" lon="8.98103855368532"><ele>804.0</ele><time>2026-04-04T15:04:31Z</time></trkpt><trkpt lat="40.90966870076114" lon="8.980874930749101"><ele>804.0</ele><time>2026-04-04T15:04:32Z</time></trkpt><trkpt lat="40.90967886344662" lon="8.98071313684221"><ele>804.0</ele><time>2026-04-04T15:04:33Z</time></trkpt><trkpt lat="40.90968973422325" lon="8.980561346720773"><ele>803.0</ele><time>2026-04-04T15:04:34Z</time></trkpt><trkpt lat="40.90971833204596" lon="8.980422200502248"><ele>802.0</ele><time>2026-04-04T15:04:35Z</time></trkpt><trkpt lat="40.909769845682106" lon="8.98027456348606"><ele>801.0</ele><time>2026-04-04T15:04:36Z</time></trkpt><trkpt lat="40.90983637407107" lon="8.980127539737655"><ele>800.0</ele><time>2026-04-04T15:04:37Z</time></trkpt><trkpt lat="40.90989857645357" lon="8.980000972128403"><ele>798.6</ele><time>2026-04-04T15:04:38Z</time></trkpt><trkpt lat="40.90996670877046" lon="8.979901240316492"><ele>797.2</ele><time>2026-04-04T15:04:39Z</time></trkpt><trkpt lat="40.910040020388244" lon="8.979812312275314"><ele>795.8</ele><time>2026-04-04T15:04:40Z</time></trkpt><trkpt lat="40.910114480607135" lon="8.979724503335419"><ele>794.4</ele><time>2026-04-04T15:04:41Z</time></trkpt><trkpt lat="40.91018846827356" lon="8.979643485200391"><ele>793.0</ele><time>2026-04-04T15:04:42Z</time></trkpt><trkpt lat="40.91026515532599" lon="8.979567506604292"><ele>793.0</ele><time>2026-04-04T15:04:43.001Z</time></trkpt><trkpt lat="40.910344811794545" lon="8.979505403139045"><ele>793.0</ele><time>2026-04-04T15:04:44.001Z</time></trkpt><trkpt lat="40.910441387778256" lon="8.979437606610436"><ele>793.0</ele><time>2026-04-04T15:04:45.001Z</time></trkpt><trkpt lat="40.91054518084093" lon="8.979361900010204"><ele>793.0</ele><time>2026-04-04T15:04:46.001Z</time></trkpt><trkpt lat="40.91064897046482" lon="8.97929103468359"><ele>793.0</ele><time>2026-04-04T15:04:47.001Z</time></trkpt><trkpt lat="40.910757424763965" lon="8.979223702477936"><ele>791.5</ele><time>2026-04-04T15:04:48.001Z</time></trkpt><trkpt lat="40.91086786539905" lon="8.979166884063597"><ele>790.0</ele><time>2026-04-04T15:04:49.001Z</time></trkpt><trkpt lat="40.91097875351788" lon="8.979122489841933"><ele>788.5</ele><time>2026-04-04T15:04:50.001Z</time></trkpt><trkpt lat="40.911073644905066" lon="8.979056061985938"><ele>787.0</ele><time>2026-04-04T15:04:51.001Z</time></trkpt><trkpt lat="40.91117413267336" lon="8.978981998725269"><ele>787.0</ele><time>2026-04-04T15:04:52.001Z</time></trkpt><trkpt lat="40.91126886813614" lon="8.978889361622086"><ele>787.0</ele><time>2026-04-04T15:04:53.001Z</time></trkpt><trkpt lat="40.91136942694564" lon="8.978797255455659"><ele>787.0</ele><time>2026-04-04T15:04:54.001Z</time></trkpt><trkpt lat="40.91146734301175" lon="8.978679202629952"><ele>787.0</ele><time>2026-04-04T15:04:55.001Z</time></trkpt><trkpt lat="40.911554608058104" lon="8.978554174630657"><ele>787.0</ele><time>2026-04-04T15:04:56.001Z</time></trkpt><trkpt lat="40.91164385519503" lon="8.97843515289569"><ele>787.0</ele><time>2026-04-04T15:04:57.001Z</time></trkpt><trkpt lat="40.91171939275593" lon="8.97832777675163"><ele>787.0</ele><time>2026-04-04T15:04:58.001Z</time></trkpt><trkpt lat="40.911794255693295" lon="8.978238894051186"><ele>787.0</ele><time>2026-04-04T15:04:59.001Z</time></trkpt><trkpt lat="40.91186269757675" lon="8.97815815190273"><ele>787.0</ele><time>2026-04-04T15:05:00.001Z</time></trkpt><trkpt lat="40.91193377256314" lon="8.978092259532277"><ele>787.8</ele><time>2026-04-04T15:05:01.001Z</time></trkpt><trkpt lat="40.91200847791161" lon="8.978043692653925"><ele>788.6</ele><time>2026-04-04T15:05:02.001Z</time></trkpt><trkpt lat="40.912070736123376" lon="8.977997874653193"><ele>789.4</ele><time>2026-04-04T15:05:03.001Z</time></trkpt><trkpt lat="40.91210227741982" lon="8.97785984893779"><ele>790.1999999999999</ele><time>2026-04-04T15:05:05.001Z</time></trkpt><trkpt lat="40.912071261950125" lon="8.9777577258614"><ele>791.0</ele><time>2026-04-04T15:05:06.001Z</time></trkpt><trkpt lat="40.91201606859404" lon="8.97762185592361"><ele>790.0</ele><time>2026-04-04T15:05:07.001Z</time></trkpt><trkpt lat="40.911960353710654" lon="8.977452202628298"><ele>789.0</ele><time>2026-04-04T15:05:08.001Z</time></trkpt><trkpt lat="40.91190306883487" lon="8.977284224129866"><ele>788.0</ele><time>2026-04-04T15:05:09.001Z</time></trkpt><trkpt lat="40.91183134055797" lon="8.977129987798742"><ele>787.0</ele><time>2026-04-04T15:05:10.001Z</time></trkpt><trkpt lat="40.9117638521178" lon="8.97697114937447"><ele>787.4000000000001</ele><time>2026-04-04T15:05:11.001Z</time></trkpt><trkpt lat="40.91172452393492" lon="8.976829191582384"><ele>787.8000000000001</ele><time>2026-04-04T15:05:12.001Z</time></trkpt><trkpt lat="40.91170797139662" lon="8.976702684637424"><ele>788.2</ele><time>2026-04-04T15:05:13.001Z</time></trkpt><trkpt lat="40.911724156668775" lon="8.976584844002916"><ele>788.6</ele><time>2026-04-04T15:05:14.001Z</time></trkpt><trkpt lat="40.91175341078593" lon="8.976459988144555"><ele>789.0</ele><time>2026-04-04T15:05:15.001Z</time></trkpt><trkpt lat="40.91179307434858" lon="8.976325361645833"><ele>789.0</ele><time>2026-04-04T15:05:16.001Z</time></trkpt><trkpt lat="40.91183445630591" lon="8.976170413952378"><ele>789.0</ele><time>2026-04-04T15:05:17.001Z</time></trkpt><trkpt lat="40.91187523430943" lon="8.97602627141168"><ele>789.0</ele><time>2026-04-04T15:05:18.001Z</time></trkpt><trkpt lat="40.911907434787715" lon="8.975885083023202"><ele>789.0</ele><time>2026-04-04T15:05:19.001Z</time></trkpt><trkpt lat="40.911949929506044" lon="8.975734370226661"><ele>788.0</ele><time>2026-04-04T15:05:20.001Z</time></trkpt><trkpt lat="40.91199332536526" lon="8.975593416923036"><ele>787.0</ele><time>2026-04-04T15:05:21.001Z</time></trkpt><trkpt lat="40.91205599009597" lon="8.975454673109825"><ele>786.0</ele><time>2026-04-04T15:05:22.001Z</time></trkpt><trkpt lat="40.91211523661738" lon="8.975318062646043"><ele>785.0</ele><time>2026-04-04T15:05:23.001Z</time></trkpt><trkpt lat="40.91217929180048" lon="8.975185540587193"><ele>785.0</ele><time>2026-04-04T15:05:24.001Z</time></trkpt><trkpt lat="40.9122451963797" lon="8.975057502527408"><ele>785.0</ele><time>2026-04-04T15:05:25.001Z</time></trkpt><trkpt lat="40.912307996854054" lon="8.97494908085279"><ele>785.0</ele><time>2026-04-04T15:05:26.001Z</time></trkpt><trkpt lat="40.91237204953703" lon="8.974867450922419"><ele>785.0</ele><time>2026-04-04T15:05:27.001Z</time></trkpt><trkpt lat="40.912448848353236" lon="8.974769379970784"><ele>785.0</ele><time>2026-04-04T15:05:29.001Z</time></trkpt><trkpt lat="40.91248912835409" lon="8.974655603132941"><ele>783.0</ele><time>2026-04-04T15:05:43Z</time></trkpt><trkpt lat="40.912442131669856" lon="8.974520330666383"><ele>781.0</ele><time>2026-04-04T15:05:45Z</time></trkpt><trkpt lat="40.912386525280304" lon="8.974422397945837"><ele>779.0</ele><time>2026-04-04T15:05:46Z</time></trkpt><trkpt lat="40.912318237543246" lon="8.974293877370167"><ele>777.0</ele><time>2026-04-04T15:05:47Z</time></trkpt><trkpt lat="40.91224946908722" lon="8.974160083642667"><ele>775.0</ele><time>2026-04-04T15:05:48Z</time></trkpt><trkpt lat="40.91218721628932" lon="8.974030896492764"><ele>771.5</ele><time>2026-04-04T15:05:49Z</time></trkpt><trkpt lat="40.91213000395911" lon="8.973903769596884"><ele>768.0</ele><time>2026-04-04T15:05:50Z</time></trkpt><trkpt lat="40.91206554064214" lon="8.973775257247468"><ele>764.5</ele><time>2026-04-04T15:05:51Z</time></trkpt><trkpt lat="40.911987929049175" lon="8.97364890323986"><ele>761.0</ele><time>2026-04-04T15:05:52Z</time></trkpt><trkpt lat="40.91191100595867" lon="8.973528795603587"><ele>761.0</ele><time>2026-04-04T15:05:53Z</time></trkpt><trkpt lat="40.91184077371237" lon="8.97341997442469"><ele>761.0</ele><time>2026-04-04T15:05:54Z</time></trkpt><trkpt lat="40.9117666835298" lon="8.973320886010756"><ele>761.0</ele><time>2026-04-04T15:05:55Z</time></trkpt><trkpt lat="40.91169552645498" lon="8.973220594009568"><ele>761.0</ele><time>2026-04-04T15:05:56Z</time></trkpt><trkpt lat="40.91163279142652" lon="8.973128993973777"><ele>761.0</ele><time>2026-04-04T15:05:57Z</time></trkpt><trkpt lat="40.911579431805656" lon="8.973023518598986"><ele>759.5</ele><time>2026-04-04T15:05:58Z</time></trkpt><trkpt lat="40.91153401370034" lon="8.972915009795232"><ele>758.0</ele><time>2026-04-04T15:05:59Z</time></trkpt><trkpt lat="40.911521227310345" lon="8.972763669208884"><ele>756.5</ele><time>2026-04-04T15:06:00Z</time></trkpt><trkpt lat="40.91148179697643" lon="8.972599623915952"><ele>755.0</ele><time>2026-04-04T15:06:01Z</time></trkpt><trkpt lat="40.91145917449488" lon="8.972443150836845"><ele>754.6</ele><time>2026-04-04T15:06:02Z</time></trkpt><trkpt lat="40.91143711467197" lon="8.97229038477846"><ele>754.2</ele><time>2026-04-04T15:06:03Z</time></trkpt><trkpt lat="40.91142604956406" lon="8.972145752271281"><ele>753.8</ele><time>2026-04-04T15:06:04Z</time></trkpt><trkpt lat="40.9114387563509" lon="8.97200448742947"><ele>753.4</ele><time>2026-04-04T15:06:05Z</time></trkpt><trkpt lat="40.911421564667165" lon="8.97186292713998"><ele>753.0</ele><time>2026-04-04T15:06:06Z</time></trkpt><trkpt lat="40.91141769894262" lon="8.97171726869406"><ele>753.25</ele><time>2026-04-04T15:06:07Z</time></trkpt><trkpt lat="40.91140483514641" lon="8.971565360454822"><ele>753.5</ele><time>2026-04-04T15:06:08Z</time></trkpt><trkpt lat="40.91138069859692" lon="8.971414679278666"><ele>753.75</ele><time>2026-04-04T15:06:09Z</time></trkpt><trkpt lat="40.91135669643473" lon="8.971263981490724"><ele>754.0</ele><time>2026-04-04T15:06:10Z</time></trkpt><trkpt lat="40.91134634063442" lon="8.971127315843288"><ele>754.0</ele><time>2026-04-04T15:06:11Z</time></trkpt><trkpt lat="40.91138325993765" lon="8.971012698589151"><ele>754.0</ele><time>2026-04-04T15:06:12Z</time></trkpt><trkpt lat="40.91142218403543" lon="8.970876155699123"><ele>754.0</ele><time>2026-04-04T15:06:13Z</time></trkpt><trkpt lat="40.911450463971605" lon="8.970713630665557"><ele>754.0</ele><time>2026-04-04T15:06:14Z</time></trkpt><trkpt lat="40.91148778941811" lon="8.970552877200058"><ele>753.25</ele><time>2026-04-04T15:06:15Z</time></trkpt><trkpt lat="40.91151023860424" lon="8.970378916976898"><ele>752.5</ele><time>2026-04-04T15:06:16Z</time></trkpt><trkpt lat="40.91152453419336" lon="8.970206327523528"><ele>751.75</ele><time>2026-04-04T15:06:17Z</time></trkpt><trkpt lat="40.911539023126636" lon="8.97004054409465"><ele>751.0</ele><time>2026-04-04T15:06:18Z</time></trkpt><trkpt lat="40.91156086798619" lon="8.96987224854918"><ele>751.0</ele><time>2026-04-04T15:06:19Z</time></trkpt><trkpt lat="40.91157631273444" lon="8.96970038199602"><ele>751.0</ele><time>2026-04-04T15:06:20Z</time></trkpt><trkpt lat="40.91158752573754" lon="8.969543103266759"><ele>751.0</ele><time>2026-04-04T15:06:21Z</time></trkpt><trkpt lat="40.91160927522609" lon="8.969408735034587"><ele>751.0</ele><time>2026-04-04T15:06:22Z</time></trkpt><trkpt lat="40.91165801529897" lon="8.96928991449004"><ele>749.5</ele><time>2026-04-04T15:06:23Z</time></trkpt><trkpt lat="40.91172678394757" lon="8.969164674446798"><ele>748.0</ele><time>2026-04-04T15:06:24Z</time></trkpt><trkpt lat="40.9117838709365" lon="8.969008865197472"><ele>746.5</ele><time>2026-04-04T15:06:25Z</time></trkpt><trkpt lat="40.911839253615476" lon="8.96885118818017"><ele>745.0</ele><time>2026-04-04T15:06:26Z</time></trkpt><trkpt lat="40.911899866137276" lon="8.968691120388657"><ele>745.0</ele><time>2026-04-04T15:06:27Z</time></trkpt><trkpt lat="40.9119539003572" lon="8.96852751301648"><ele>745.0</ele><time>2026-04-04T15:06:28Z</time></trkpt><trkpt lat="40.912007300756294" lon="8.968364746099262"><ele>745.0</ele><time>2026-04-04T15:06:29Z</time></trkpt><trkpt lat="40.912062586739474" lon="8.968200802039698"><ele>745.0</ele><time>2026-04-04T15:06:30Z</time></trkpt><trkpt lat="40.91212230901721" lon="8.968036318748894"><ele>749.5</ele><time>2026-04-04T15:06:31Z</time></trkpt><trkpt lat="40.91218188636995" lon="8.967873377975462"><ele>754.0</ele><time>2026-04-04T15:06:32Z</time></trkpt><trkpt lat="40.91223429303713" lon="8.967725356720218"><ele>758.5</ele><time>2026-04-04T15:06:33Z</time></trkpt><trkpt lat="40.912280076947205" lon="8.967594627092113"><ele>763.0</ele><time>2026-04-04T15:06:34Z</time></trkpt><trkpt lat="40.91232961309527" lon="8.967477964841827"><ele>763.8</ele><time>2026-04-04T15:06:35Z</time></trkpt><trkpt lat="40.91240418347409" lon="8.967370894561169"><ele>764.5999999999999</ele><time>2026-04-04T15:06:36Z</time></trkpt><trkpt lat="40.91248509803298" lon="8.967276790472612"><ele>765.4000000000001</ele><time>2026-04-04T15:06:37Z</time></trkpt><trkpt lat="40.912582986297004" lon="8.967202496958366"><ele>766.2</ele><time>2026-04-04T15:06:38Z</time></trkpt><trkpt lat="40.91268683685018" lon="8.967145626802616"><ele>767.0</ele><time>2026-04-04T15:06:39Z</time></trkpt><trkpt lat="40.91279677949089" lon="8.967144292007424"><ele>767.0</ele><time>2026-04-04T15:06:40Z</time></trkpt><trkpt lat="40.912915021286935" lon="8.9671389047737"><ele>767.0</ele><time>2026-04-04T15:06:41Z</time></trkpt><trkpt lat="40.91304286679312" lon="8.967157349409169"><ele>767.0</ele><time>2026-04-04T15:06:42Z</time></trkpt><trkpt lat="40.91315534175509" lon="8.967190423152987"><ele>767.0</ele><time>2026-04-04T15:06:43Z</time></trkpt><trkpt lat="40.913262371466594" lon="8.967235945241182"><ele>767.0</ele><time>2026-04-04T15:06:44Z</time></trkpt><trkpt lat="40.913361126247516" lon="8.967272424033332"><ele>767.0</ele><time>2026-04-04T15:06:45Z</time></trkpt><trkpt lat="40.913436508890975" lon="8.96728722112854"><ele>767.0</ele><time>2026-04-04T15:06:46.001Z</time></trkpt><trkpt lat="40.91350784916544" lon="8.967278333868734"><ele>767.0</ele><time>2026-04-04T15:06:47.001Z</time></trkpt><trkpt lat="40.913565006842006" lon="8.967220432189025"><ele>767.0</ele><time>2026-04-04T15:06:48.001Z</time></trkpt><trkpt lat="40.91359293496415" lon="8.96709578149803"><ele>767.0</ele><time>2026-04-04T15:06:49.001Z</time></trkpt><trkpt lat="40.91361877182645" lon="8.966954292326067"><ele>765.75</ele><time>2026-04-04T15:06:50.001Z</time></trkpt><trkpt lat="40.91364110490151" lon="8.96679180352836"><ele>764.5</ele><time>2026-04-04T15:06:51.001Z</time></trkpt><trkpt lat="40.913678436962606" lon="8.966626065634198"><ele>763.25</ele><time>2026-04-04T15:06:52.001Z</time></trkpt><trkpt lat="40.91372370758604" lon="8.966470995541346"><ele>762.0</ele><time>2026-04-04T15:06:53.001Z</time></trkpt><trkpt lat="40.91377676803061" lon="8.966327777745654"><ele>761.6</ele><time>2026-04-04T15:06:54.001Z</time></trkpt><trkpt lat="40.91381223907989" lon="8.966186023032941"><ele>761.2</ele><time>2026-04-04T15:06:55.001Z</time></trkpt><trkpt lat="40.91383841986036" lon="8.966038975437348"><ele>760.8</ele><time>2026-04-04T15:06:56.001Z</time></trkpt><trkpt lat="40.91387273868042" lon="8.96591352131841"><ele>760.4</ele><time>2026-04-04T15:06:57.001Z</time></trkpt><trkpt lat="40.91393074901883" lon="8.965802957486844"><ele>760.0</ele><time>2026-04-04T15:06:58.001Z</time></trkpt><trkpt lat="40.91401858995896" lon="8.965746701768301"><ele>758.8</ele><time>2026-04-04T15:06:59.001Z</time></trkpt><trkpt lat="40.9141066372208" lon="8.965726388717826"><ele>757.6</ele><time>2026-04-04T15:07:00.001Z</time></trkpt><trkpt lat="40.91417319526754" lon="8.965691636971115"><ele>756.4000000000001</ele><time>2026-04-04T15:07:01.001Z</time></trkpt><trkpt lat="40.91424316712847" lon="8.965634199884411"><ele>755.2</ele><time>2026-04-04T15:07:02.001Z</time></trkpt><trkpt lat="40.914288808447466" lon="8.9654964799481"><ele>754.0</ele><time>2026-04-04T15:07:03.001Z</time></trkpt><trkpt lat="40.91420623210177" lon="8.965361552894702"><ele>754.0</ele><time>2026-04-04T15:07:04.001Z</time></trkpt><trkpt lat="40.914172441426324" lon="8.965238026582767"><ele>754.0</ele><time>2026-04-04T15:07:05.001Z</time></trkpt><trkpt lat="40.914133152076424" lon="8.965097600657677"><ele>754.0</ele><time>2026-04-04T15:07:06.001Z</time></trkpt><trkpt lat="40.91408510190778" lon="8.964944654000245"><ele>754.0</ele><time>2026-04-04T15:07:07.001Z</time></trkpt><trkpt lat="40.914034932962416" lon="8.964786686927987"><ele>750.5</ele><time>2026-04-04T15:07:08.001Z</time></trkpt><trkpt lat="40.91398332441719" lon="8.964630808716144"><ele>747.0</ele><time>2026-04-04T15:07:09.001Z</time></trkpt><trkpt lat="40.91392859123467" lon="8.9644739374516"><ele>743.5</ele><time>2026-04-04T15:07:10.001Z</time></trkpt><trkpt lat="40.913869113049735" lon="8.964314671058053"><ele>740.0</ele><time>2026-04-04T15:07:11.001Z</time></trkpt><trkpt lat="40.913799270231245" lon="8.964156054886363"><ele>736.25</ele><time>2026-04-04T15:07:12.001Z</time></trkpt><trkpt lat="40.91372040278514" lon="8.964003013017228"><ele>732.5</ele><time>2026-04-04T15:07:13.001Z</time></trkpt><trkpt lat="40.913637163043866" lon="8.96385957489708"><ele>728.75</ele><time>2026-04-04T15:07:14.001Z</time></trkpt><trkpt lat="40.91357283159351" lon="8.963749590604765"><ele>725.0</ele><time>2026-04-04T15:07:15.001Z</time></trkpt><trkpt lat="40.91352429868374" lon="8.963656261058444"><ele>725.0</ele><time>2026-04-04T15:07:16.001Z</time></trkpt><trkpt lat="40.913489254485306" lon="8.963564312189376"><ele>725.0</ele><time>2026-04-04T15:07:17.001Z</time></trkpt><trkpt lat="40.913481111932626" lon="8.963477807702818"><ele>725.0</ele><time>2026-04-04T15:07:18.001Z</time></trkpt><trkpt lat="40.91351557822391" lon="8.963392358856114"><ele>725.0</ele><time>2026-04-04T15:07:19.001Z</time></trkpt><trkpt lat="40.91360723250545" lon="8.963358140481946"><ele>725.0</ele><time>2026-04-04T15:07:20.001Z</time></trkpt><trkpt lat="40.91370064277906" lon="8.963324597130585"><ele>725.0</ele><time>2026-04-04T15:07:21.001Z</time></trkpt><trkpt lat="40.91379655697413" lon="8.963269638324814"><ele>723.2</ele><time>2026-04-04T15:07:22.001Z</time></trkpt><trkpt lat="40.913897426767576" lon="8.963228226060663"><ele>721.4</ele><time>2026-04-04T15:07:23.001Z</time></trkpt><trkpt lat="40.91400111107891" lon="8.963178986758201"><ele>719.5999999999999</ele><time>2026-04-04T15:07:24.001Z</time></trkpt><trkpt lat="40.9140982792159" lon="8.963106139020354"><ele>717.8</ele><time>2026-04-04T15:07:25.001Z</time></trkpt><trkpt lat="40.91418787784946" lon="8.963013284428087"><ele>716.0</ele><time>2026-04-04T15:07:26.001Z</time></trkpt><trkpt lat="40.91428045737793" lon="8.962912696995705"><ele>716.0</ele><time>2026-04-04T15:07:27.001Z</time></trkpt><trkpt lat="40.9143759585168" lon="8.962814103195688"><ele>716.0</ele><time>2026-04-04T15:07:28.001Z</time></trkpt><trkpt lat="40.914473019001335" lon="8.962706110998829"><ele>716.0</ele><time>2026-04-04T15:07:29.001Z</time></trkpt><trkpt lat="40.91457252282091" lon="8.962589851603267"><ele>716.0</ele><time>2026-04-04T15:07:30.001Z</time></trkpt><trkpt lat="40.91467042274472" lon="8.962464259184852"><ele>712.0</ele><time>2026-04-04T15:07:31.001Z</time></trkpt><trkpt lat="40.91476426046379" lon="8.962341269139616"><ele>708.0</ele><time>2026-04-04T15:07:32.001Z</time></trkpt><trkpt lat="40.91484348180237" lon="8.962218706650818"><ele>704.0</ele><time>2026-04-04T15:07:33.001Z</time></trkpt><trkpt lat="40.91489863392896" lon="8.962074754744298"><ele>700.0</ele><time>2026-04-04T15:07:34.001Z</time></trkpt><trkpt lat="40.91493133916487" lon="8.961904070637924"><ele>694.0</ele><time>2026-04-04T15:07:35.001Z</time></trkpt><trkpt lat="40.91496373687815" lon="8.96169832069756"><ele>688.0</ele><time>2026-04-04T15:07:36.001Z</time></trkpt><trkpt lat="40.915008962867134" lon="8.961511773092367"><ele>682.0</ele><time>2026-04-04T15:07:37.001Z</time></trkpt><trkpt lat="40.915038698638455" lon="8.961317851420151"><ele>682.0</ele><time>2026-04-04T15:07:38.001Z</time></trkpt><trkpt lat="40.915061507472565" lon="8.961116823610093"><ele>682.0</ele><time>2026-04-04T15:07:39.001Z</time></trkpt><trkpt lat="40.915081244189444" lon="8.96090670949891"><ele>682.0</ele><time>2026-04-04T15:07:40.001Z</time></trkpt><trkpt lat="40.91509682238347" lon="8.96067815508421"><ele>682.6666666666667</ele><time>2026-04-04T15:07:41.001Z</time></trkpt><trkpt lat="40.91510185482583" lon="8.960442884746374"><ele>683.3333333333334</ele><time>2026-04-04T15:07:42.001Z</time></trkpt><trkpt lat="40.915105178634064" lon="8.960219963381471"><ele>684.0</ele><time>2026-04-04T15:07:43.001Z</time></trkpt><trkpt lat="40.915103368319784" lon="8.960006439093762"><ele>684.0</ele><time>2026-04-04T15:07:44.001Z</time></trkpt><trkpt lat="40.915095705171495" lon="8.959800482653593"><ele>684.0</ele><time>2026-04-04T15:07:45.001Z</time></trkpt><trkpt lat="40.91508623555941" lon="8.95959938165989"><ele>684.0</ele><time>2026-04-04T15:07:46Z</time></trkpt><trkpt lat="40.915073930375286" lon="8.959417919309962"><ele>684.0</ele><time>2026-04-04T15:07:47Z</time></trkpt><trkpt lat="40.915046729021306" lon="8.959256424141808"><ele>676.5</ele><time>2026-04-04T15:07:48Z</time></trkpt><trkpt lat="40.914996266665426" lon="8.95910177706295"><ele>669.0</ele><time>2026-04-04T15:07:49Z</time></trkpt><trkpt lat="40.914936026949924" lon="8.958937327882486"><ele>661.5</ele><time>2026-04-04T15:07:50Z</time></trkpt><trkpt lat="40.91486780252725" lon="8.958766739920112"><ele>654.0</ele><time>2026-04-04T15:07:51Z</time></trkpt><trkpt lat="40.91479235439278" lon="8.958583544064444"><ele>654.0</ele><time>2026-04-04T15:07:52Z</time></trkpt><trkpt lat="40.914715454651734" lon="8.958410613850964"><ele>654.0</ele><time>2026-04-04T15:07:53Z</time></trkpt><trkpt lat="40.91463640955414" lon="8.958238820924123"><ele>654.0</ele><time>2026-04-04T15:07:54Z</time></trkpt><trkpt lat="40.91456653857432" lon="8.95807093084347"><ele>654.0</ele><time>2026-04-04T15:07:55Z</time></trkpt><trkpt lat="40.914512851436164" lon="8.957902257328481"><ele>652.25</ele><time>2026-04-04T15:07:56Z</time></trkpt><trkpt lat="40.91448148425268" lon="8.95772287182952"><ele>650.5</ele><time>2026-04-04T15:07:57Z</time></trkpt><trkpt lat="40.91445958998244" lon="8.957545218534086"><ele>648.75</ele><time>2026-04-04T15:07:58Z</time></trkpt><trkpt lat="40.91444690461213" lon="8.957386160195307"><ele>647.0</ele><time>2026-04-04T15:07:59Z</time></trkpt><trkpt lat="40.91443335229545" lon="8.95724947179254"><ele>643.2</ele><time>2026-04-04T15:08:00Z</time></trkpt><trkpt lat="40.91441766645687" lon="8.957115088978021"><ele>639.4000000000001</ele><time>2026-04-04T15:08:01Z</time></trkpt><trkpt lat="40.914401425999074" lon="8.956976331508777"><ele>635.5999999999999</ele><time>2026-04-04T15:08:02Z</time></trkpt><trkpt lat="40.914386071902214" lon="8.956847165128478"><ele>631.8</ele><time>2026-04-04T15:08:03Z</time></trkpt><trkpt lat="40.91437479369861" lon="8.956723386236227"><ele>628.0</ele><time>2026-04-04T15:08:04Z</time></trkpt><trkpt lat="40.914369549176236" lon="8.956604840500171"><ele>625.5</ele><time>2026-04-04T15:08:05Z</time></trkpt><trkpt lat="40.91437451811229" lon="8.956489021683288"><ele>623.0</ele><time>2026-04-04T15:08:06Z</time></trkpt><trkpt lat="40.91438520976774" lon="8.956380069091086"><ele>620.5</ele><time>2026-04-04T15:08:07Z</time></trkpt><trkpt lat="40.91439556302034" lon="8.956282593579358"><ele>618.0</ele><time>2026-04-04T15:08:08Z</time></trkpt><trkpt lat="40.91440222255222" lon="8.956198211062127"><ele>615.5</ele><time>2026-04-04T15:08:09Z</time></trkpt><trkpt lat="40.914366631481215" lon="8.956061713283754"><ele>613.0</ele><time>2026-04-04T15:08:11Z</time></trkpt><trkpt lat="40.914253508196985" lon="8.956009045184798"><ele>615.0</ele><time>2026-04-04T15:08:13Z</time></trkpt><trkpt lat="40.91417589403076" lon="8.956089777556981"><ele>617.0</ele><time>2026-04-04T15:08:14Z</time></trkpt><trkpt lat="40.91412427281432" lon="8.95617223300358"><ele>619.0</ele><time>2026-04-04T15:08:15Z</time></trkpt><trkpt lat="40.91405525825296" lon="8.956238511015108"><ele>621.0</ele><time>2026-04-04T15:08:17Z</time></trkpt><trkpt lat="40.91400478857563" lon="8.956113775237446"><ele>623.0</ele><time>2026-04-04T15:08:19Z</time></trkpt><trkpt lat="40.91402052093613" lon="8.955980279559181"><ele>620.25</ele><time>2026-04-04T15:08:20Z</time></trkpt><trkpt lat="40.914057084286334" lon="8.955808360730844"><ele>617.5</ele><time>2026-04-04T15:08:21Z</time></trkpt><trkpt lat="40.91409944921833" lon="8.955615792491217"><ele>614.75</ele><time>2026-04-04T15:08:22Z</time></trkpt><trkpt lat="40.914148909602766" lon="8.955443292985708"><ele>612.0</ele><time>2026-04-04T15:08:23Z</time></trkpt><trkpt lat="40.91421519595305" lon="8.955286723588557"><ele>609.6</ele><time>2026-04-04T15:08:24Z</time></trkpt><trkpt lat="40.914287586647305" lon="8.955140701028146"><ele>607.2</ele><time>2026-04-04T15:08:25Z</time></trkpt><trkpt lat="40.91435474219866" lon="8.955011974001136"><ele>604.8</ele><time>2026-04-04T15:08:26Z</time></trkpt><trkpt lat="40.914408432278165" lon="8.954893647101688"><ele>602.4</ele><time>2026-04-04T15:08:27Z</time></trkpt><trkpt lat="40.914454989848466" lon="8.954800761840437"><ele>600.0</ele><time>2026-04-04T15:08:28Z</time></trkpt><trkpt lat="40.9144931729794" lon="8.95472024523352"><ele>599.5</ele><time>2026-04-04T15:08:29Z</time></trkpt><trkpt lat="40.914501726031695" lon="8.954560199016996"><ele>599.0</ele><time>2026-04-04T15:08:31Z</time></trkpt><trkpt lat="40.91439522196237" lon="8.954425675736346"><ele>598.5</ele><time>2026-04-04T15:08:33Z</time></trkpt><trkpt lat="40.91428865747852" lon="8.954398279683414"><ele>598.0</ele><time>2026-04-04T15:08:34Z</time></trkpt><trkpt lat="40.91417948785678" lon="8.95436820924642"><ele>598.0</ele><time>2026-04-04T15:08:35Z</time></trkpt><trkpt lat="40.91408560972559" lon="8.954341939142267"><ele>598.0</ele><time>2026-04-04T15:08:36Z</time></trkpt><trkpt lat="40.91401046565668" lon="8.95431591906383"><ele>598.0</ele><time>2026-04-04T15:08:37Z</time></trkpt><trkpt lat="40.91394093797498" lon="8.954293065353"><ele>598.0</ele><time>2026-04-04T15:08:38Z</time></trkpt><trkpt lat="40.91390154518439" lon="8.954188501084369"><ele>598.0</ele><time>2026-04-04T15:08:39Z</time></trkpt><trkpt lat="40.91388182949219" lon="8.954047815558097"><ele>598.0</ele><time>2026-04-04T15:08:40Z</time></trkpt><trkpt lat="40.91387001472542" lon="8.953875452566688"><ele>591.6666666666667</ele><time>2026-04-04T15:08:41Z</time></trkpt><trkpt lat="40.913835873608626" lon="8.95369296135783"><ele>585.3333333333334</ele><time>2026-04-04T15:08:42Z</time></trkpt><trkpt lat="40.91378419251021" lon="8.953495507808531"><ele>579.0</ele><time>2026-04-04T15:08:43Z</time></trkpt><trkpt lat="40.91373667456855" lon="8.953304370261653"><ele>574.5</ele><time>2026-04-04T15:08:44Z</time></trkpt><trkpt lat="40.9136934157443" lon="8.953113634081749"><ele>570.0</ele><time>2026-04-04T15:08:45Z</time></trkpt><trkpt lat="40.91365710244632" lon="8.952926807411638"><ele>565.5</ele><time>2026-04-04T15:08:46Z</time></trkpt><trkpt lat="40.9136278801575" lon="8.95274493324596"><ele>561.0</ele><time>2026-04-04T15:08:47Z</time></trkpt><trkpt lat="40.91359379868104" lon="8.952581692116505"><ele>559.5</ele><time>2026-04-04T15:08:48Z</time></trkpt><trkpt lat="40.91354253079123" lon="8.952428011352708"><ele>558.0</ele><time>2026-04-04T15:08:49Z</time></trkpt><trkpt lat="40.91347605257669" lon="8.952283084015592"><ele>556.5</ele><time>2026-04-04T15:08:50Z</time></trkpt><trkpt lat="40.91340539065758" lon="8.952119531158726"><ele>555.0</ele><time>2026-04-04T15:08:51Z</time></trkpt><trkpt lat="40.91329587943797" lon="8.951982216375079"><ele>555.0</ele><time>2026-04-04T15:08:52Z</time></trkpt><trkpt lat="40.91319354117878" lon="8.951829840515872"><ele>555.0</ele><time>2026-04-04T15:08:53Z</time></trkpt><trkpt lat="40.91311553249682" lon="8.951687884975849"><ele>555.0</ele><time>2026-04-04T15:08:54Z</time></trkpt><trkpt lat="40.913041085690274" lon="8.951612551470243"><ele>555.0</ele><time>2026-04-04T15:08:55.001Z</time></trkpt><trkpt lat="40.91298237138493" lon="8.951562439900101"><ele>555.3333333333334</ele><time>2026-04-04T15:08:56.001Z</time></trkpt><trkpt lat="40.91291627971357" lon="8.951527295694271"><ele>555.6666666666666</ele><time>2026-04-04T15:08:57.001Z</time></trkpt><trkpt lat="40.91285876416642" lon="8.951471042587743"><ele>556.0</ele><time>2026-04-04T15:08:58.001Z</time></trkpt><trkpt lat="40.91280050498696" lon="8.951409349292753"><ele>556.3333333333333</ele><time>2026-04-04T15:08:59.001Z</time></trkpt><trkpt lat="40.91274077407144" lon="8.951350948865256"><ele>556.6666666666666</ele><time>2026-04-04T15:09:00.001Z</time></trkpt><trkpt lat="40.91267925253448" lon="8.95128280724502"><ele>557.0</ele><time>2026-04-04T15:09:01.001Z</time></trkpt><trkpt lat="40.912599180755976" lon="8.951172851652299"><ele>556.3333333333333</ele><time>2026-04-04T15:09:02.001Z</time></trkpt><trkpt lat="40.91251081027341" lon="8.951010838785457"><ele>555.6666666666666</ele><time>2026-04-04T15:09:03.001Z</time></trkpt><trkpt lat="40.91243721413279" lon="8.950829605659123"><ele>555.0</ele><time>2026-04-04T15:09:04.001Z</time></trkpt><trkpt lat="40.91233304033477" lon="8.950692173225985"><ele>555.0</ele><time>2026-04-04T15:09:05.001Z</time></trkpt><trkpt lat="40.9122632478438" lon="8.950534005099843"><ele>555.0</ele><time>2026-04-04T15:09:06.001Z</time></trkpt><trkpt lat="40.912209849261814" lon="8.950360047976138"><ele>555.0</ele><time>2026-04-04T15:09:07.001Z</time></trkpt><trkpt lat="40.912165673692364" lon="8.950204814084037"><ele>555.0</ele><time>2026-04-04T15:09:08.001Z</time></trkpt><trkpt lat="40.912104202377364" lon="8.95009022239922"><ele>553.4</ele><time>2026-04-04T15:09:09.001Z</time></trkpt><trkpt lat="40.91203479224438" lon="8.94999859300102"><ele>551.8</ele><time>2026-04-04T15:09:10.001Z</time></trkpt><trkpt lat="40.911973458795025" lon="8.949906882426683"><ele>550.2</ele><time>2026-04-04T15:09:11.001Z</time></trkpt><trkpt lat="40.91192332385388" lon="8.949814478608811"><ele>548.6</ele><time>2026-04-04T15:09:12.001Z</time></trkpt><trkpt lat="40.91187300710093" lon="8.94967111691912"><ele>547.0</ele><time>2026-04-04T15:09:13.001Z</time></trkpt><trkpt lat="40.91183835784846" lon="8.949588049846373"><ele>547.0</ele><time>2026-04-04T15:09:15.001Z</time></trkpt><trkpt lat="40.91174977556858" lon="8.949726242948772"><ele>547.0</ele><time>2026-04-04T15:09:17.001Z</time></trkpt><trkpt lat="40.91135147692853" lon="8.949477013177075"><ele>547.0</ele><time>2026-04-04T15:09:21.001Z</time></trkpt><trkpt lat="40.91122851612385" lon="8.949385938283685"><ele>547.0</ele><time>2026-04-04T15:09:22.001Z</time></trkpt><trkpt lat="40.911109466561975" lon="8.949305381875067"><ele>547.0</ele><time>2026-04-04T15:09:23.001Z</time></trkpt><trkpt lat="40.91100082143808" lon="8.949235184372652"><ele>547.0</ele><time>2026-04-04T15:09:24.001Z</time></trkpt><trkpt lat="40.910901173567176" lon="8.949168262143013"><ele>550.25</ele><time>2026-04-04T15:09:25.001Z</time></trkpt><trkpt lat="40.91079963155672" lon="8.949077980617623"><ele>553.5</ele><time>2026-04-04T15:09:26.001Z</time></trkpt><trkpt lat="40.91069775184338" lon="8.948984819839456"><ele>556.75</ele><time>2026-04-04T15:09:27.001Z</time></trkpt><trkpt lat="40.910592168335306" lon="8.948897062577378"><ele>560.0</ele><time>2026-04-04T15:09:28.001Z</time></trkpt><trkpt lat="40.910476522551335" lon="8.948804757779445"><ele>560.0</ele><time>2026-04-04T15:09:29.001Z</time></trkpt><trkpt lat="40.9103641909375" lon="8.948701103084385"><ele>560.0</ele><time>2026-04-04T15:09:30.001Z</time></trkpt><trkpt lat="40.91025845303418" lon="8.948576555940445"><ele>560.0</ele><time>2026-04-04T15:09:31.001Z</time></trkpt><trkpt lat="40.91016017811673" lon="8.948441379883171"><ele>560.0</ele><time>2026-04-04T15:09:32.001Z</time></trkpt><trkpt lat="40.91006582862947" lon="8.948317565491969"><ele>563.25</ele><time>2026-04-04T15:09:33.001Z</time></trkpt><trkpt lat="40.90997809300823" lon="8.948194672048569"><ele>566.5</ele><time>2026-04-04T15:09:34.001Z</time></trkpt><trkpt lat="40.909888661014875" lon="8.948065317814445"><ele>569.75</ele><time>2026-04-04T15:09:35.001Z</time></trkpt><trkpt lat="40.90981333130453" lon="8.9479176672089"><ele>573.0</ele><time>2026-04-04T15:09:36.001Z</time></trkpt><trkpt lat="40.90972299542849" lon="8.947817400740991"><ele>573.0</ele><time>2026-04-04T15:09:37.001Z</time></trkpt><trkpt lat="40.90961296587495" lon="8.947715070664849"><ele>573.0</ele><time>2026-04-04T15:09:38.001Z</time></trkpt><trkpt lat="40.90948336233635" lon="8.947599791849584"><ele>573.0</ele><time>2026-04-04T15:09:39.001Z</time></trkpt><trkpt lat="40.90936058523404" lon="8.94748858971778"><ele>573.0</ele><time>2026-04-04T15:09:40.001Z</time></trkpt><trkpt lat="40.90925966067803" lon="8.947394624281443"><ele>574.8</ele><time>2026-04-04T15:09:41.001Z</time></trkpt><trkpt lat="40.90916852709839" lon="8.947334357384815"><ele>576.5999999999999</ele><time>2026-04-04T15:09:42.001Z</time></trkpt><trkpt lat="40.90906592213025" lon="8.947300673282683"><ele>578.4000000000001</ele><time>2026-04-04T15:09:43.001Z</time></trkpt><trkpt lat="40.908954850917716" lon="8.947298252686949"><ele>580.2</ele><time>2026-04-04T15:09:44.001Z</time></trkpt><trkpt lat="40.90884143492425" lon="8.947329168716042"><ele>582.0</ele><time>2026-04-04T15:09:45.001Z</time></trkpt><trkpt lat="40.90872105778385" lon="8.947377592622635"><ele>582.0</ele><time>2026-04-04T15:09:46.001Z</time></trkpt><trkpt lat="40.908606794618024" lon="8.9473989448509"><ele>582.0</ele><time>2026-04-04T15:09:47.001Z</time></trkpt><trkpt lat="40.908498583352404" lon="8.947398465560916"><ele>582.0</ele><time>2026-04-04T15:09:48.001Z</time></trkpt><trkpt lat="40.90839924838109" lon="8.947389909779961"><ele>582.0</ele><time>2026-04-04T15:09:49.001Z</time></trkpt><trkpt lat="40.90830848012633" lon="8.9473592547548"><ele>582.0</ele><time>2026-04-04T15:09:50.001Z</time></trkpt><trkpt lat="40.908217277955586" lon="8.94730914452713"><ele>582.2</ele><time>2026-04-04T15:09:51.001Z</time></trkpt><trkpt lat="40.908134751180874" lon="8.94724049780667"><ele>582.4000000000001</ele><time>2026-04-04T15:09:52Z</time></trkpt><trkpt lat="40.90806940137133" lon="8.947153078486425"><ele>582.5999999999999</ele><time>2026-04-04T15:09:53Z</time></trkpt><trkpt lat="40.908014098390225" lon="8.947044134043114"><ele>582.8</ele><time>2026-04-04T15:09:54Z</time></trkpt><trkpt lat="40.90795809389181" lon="8.946932914787562"><ele>583.0</ele><time>2026-04-04T15:09:55Z</time></trkpt><trkpt lat="40.90787796174125" lon="8.946835130489989"><ele>583.0</ele><time>2026-04-04T15:09:56Z</time></trkpt><trkpt lat="40.90776172823025" lon="8.946746180788011"><ele>583.0</ele><time>2026-04-04T15:09:57Z</time></trkpt><trkpt lat="40.90762810845542" lon="8.946658119464807"><ele>583.0</ele><time>2026-04-04T15:09:58Z</time></trkpt><trkpt lat="40.9075056682173" lon="8.946573555836018"><ele>583.0</ele><time>2026-04-04T15:09:59Z</time></trkpt><trkpt lat="40.90739880565171" lon="8.946495189590067"><ele>581.6</ele><time>2026-04-04T15:10:00Z</time></trkpt><trkpt lat="40.90729555656897" lon="8.946427404842007"><ele>580.1999999999999</ele><time>2026-04-04T15:10:01Z</time></trkpt><trkpt lat="40.9071940213339" lon="8.946370865544687"><ele>578.8</ele><time>2026-04-04T15:10:02Z</time></trkpt><trkpt lat="40.907111756191135" lon="8.946326528890669"><ele>577.4</ele><time>2026-04-04T15:10:03Z</time></trkpt><trkpt lat="40.907051471647065" lon="8.94628955102856"><ele>576.0</ele><time>2026-04-04T15:10:04Z</time></trkpt><trkpt lat="40.90696562895701" lon="8.946197899744938"><ele>576.0</ele><time>2026-04-04T15:10:06Z</time></trkpt><trkpt lat="40.9069398857722" lon="8.946103134678705"><ele>576.0</ele><time>2026-04-04T15:10:07Z</time></trkpt><trkpt lat="40.90692148580874" lon="8.945979841680591"><ele>576.0</ele><time>2026-04-04T15:10:08Z</time></trkpt><trkpt lat="40.90688797473724" lon="8.94587722006265"><ele>576.0</ele><time>2026-04-04T15:10:09Z</time></trkpt><trkpt lat="40.906814478217434" lon="8.945786928320084"><ele>576.0</ele><time>2026-04-04T15:10:10Z</time></trkpt><trkpt lat="40.90669089053259" lon="8.945659881420362"><ele>571.6666666666666</ele><time>2026-04-04T15:10:11Z</time></trkpt><trkpt lat="40.90655847599955" lon="8.945496693319381"><ele>567.3333333333333</ele><time>2026-04-04T15:10:12Z</time></trkpt><trkpt lat="40.90644140129793" lon="8.945343693708473"><ele>563.0</ele><time>2026-04-04T15:10:13Z</time></trkpt><trkpt lat="40.90634351771042" lon="8.945213735237587"><ele>563.0</ele><time>2026-04-04T15:10:14Z</time></trkpt><trkpt lat="40.906250848572384" lon="8.945092116822128"><ele>563.0</ele><time>2026-04-04T15:10:15Z</time></trkpt><trkpt lat="40.90617080083252" lon="8.944989964577431"><ele>563.0</ele><time>2026-04-04T15:10:16Z</time></trkpt><trkpt lat="40.906095753685634" lon="8.944907677395369"><ele>563.0</ele><time>2026-04-04T15:10:17Z</time></trkpt><trkpt lat="40.90601804219759" lon="8.944829869431478"><ele>563.0</ele><time>2026-04-04T15:10:18Z</time></trkpt><trkpt lat="40.905948552792466" lon="8.944753940987223"><ele>562.0</ele><time>2026-04-04T15:10:19Z</time></trkpt><trkpt lat="40.9058821464953" lon="8.944666023488784"><ele>561.0</ele><time>2026-04-04T15:10:20Z</time></trkpt><trkpt lat="40.90582093077324" lon="8.944583911894819"><ele>560.0</ele><time>2026-04-04T15:10:21Z</time></trkpt><trkpt lat="40.905775618014204" lon="8.944512849829328"><ele>559.0</ele><time>2026-04-04T15:10:22Z</time></trkpt><trkpt lat="40.905740275139465" lon="8.944429265020037"><ele>558.0</ele><time>2026-04-04T15:10:23Z</time></trkpt><trkpt lat="40.905700422973766" lon="8.944318625011682"><ele>557.0</ele><time>2026-04-04T15:10:24Z</time></trkpt><trkpt lat="40.905659590124536" lon="8.944208294104348"><ele>556.8333333333333</ele><time>2026-04-04T15:10:25Z</time></trkpt><trkpt lat="40.905628067967896" lon="8.944132218788468"><ele>556.6666666666666</ele><time>2026-04-04T15:10:26Z</time></trkpt><trkpt lat="40.905553884901984" lon="8.944068877157843"><ele>556.5</ele><time>2026-04-04T15:10:28Z</time></trkpt><trkpt lat="40.905431160457574" lon="8.944032068891689"><ele>556.3333333333334</ele><time>2026-04-04T15:10:30Z</time></trkpt><trkpt lat="40.90536787386368" lon="8.943986004004785"><ele>556.1666666666667</ele><time>2026-04-04T15:10:31Z</time></trkpt><trkpt lat="40.905303508762046" lon="8.943921053654492"><ele>556.0</ele><time>2026-04-04T15:10:32Z</time></trkpt><trkpt lat="40.90524054095995" lon="8.943862578144865"><ele>556.0</ele><time>2026-04-04T15:10:33Z</time></trkpt><trkpt lat="40.90517754559978" lon="8.943805897162747"><ele>556.0</ele><time>2026-04-04T15:10:34Z</time></trkpt><trkpt lat="40.905112655317176" lon="8.94373803740683"><ele>556.0</ele><time>2026-04-04T15:10:35Z</time></trkpt><trkpt lat="40.90505590228342" lon="8.943674089137385"><ele>556.0</ele><time>2026-04-04T15:10:36Z</time></trkpt><trkpt lat="40.90500388047761" lon="8.943613964382454"><ele>556.0</ele><time>2026-04-04T15:10:37Z</time></trkpt><trkpt lat="40.90495110254916" lon="8.943553147445408"><ele>556.0</ele><time>2026-04-04T15:10:38Z</time></trkpt><trkpt lat="40.904894904564465" lon="8.94349040667801"><ele>556.0</ele><time>2026-04-04T15:10:39Z</time></trkpt><trkpt lat="40.90483724616351" lon="8.943428754826728"><ele>554.1666666666667</ele><time>2026-04-04T15:10:40Z</time></trkpt><trkpt lat="40.9047776250517" lon="8.94337208120298"><ele>552.3333333333334</ele><time>2026-04-04T15:10:41Z</time></trkpt><trkpt lat="40.90471099603529" lon="8.943324832061666"><ele>550.5</ele><time>2026-04-04T15:10:42Z</time></trkpt><trkpt lat="40.90461780151819" lon="8.943269546340655"><ele>548.6666666666666</ele><time>2026-04-04T15:10:43Z</time></trkpt><trkpt lat="40.90452874766095" lon="8.94321689638934"><ele>546.8333333333333</ele><time>2026-04-04T15:10:44Z</time></trkpt><trkpt lat="40.90445571829895" lon="8.943160280267985"><ele>545.0</ele><time>2026-04-04T15:10:45Z</time></trkpt><trkpt lat="40.904399165374066" lon="8.943097325822704"><ele>545.0</ele><time>2026-04-04T15:10:46Z</time></trkpt><trkpt lat="40.90434252129475" lon="8.943014665244851"><ele>545.0</ele><time>2026-04-04T15:10:47Z</time></trkpt><trkpt lat="40.90428282450086" lon="8.942926365391825"><ele>545.0</ele><time>2026-04-04T15:10:48Z</time></trkpt><trkpt lat="40.90422937288589" lon="8.942851000546685"><ele>545.0</ele><time>2026-04-04T15:10:49Z</time></trkpt><trkpt lat="40.90417591082802" lon="8.942775260373633"><ele>545.0</ele><time>2026-04-04T15:10:50Z</time></trkpt><trkpt lat="40.904124494364325" lon="8.94269694170416"><ele>545.0</ele><time>2026-04-04T15:10:51Z</time></trkpt><trkpt lat="40.904068086751316" lon="8.942611709403028"><ele>543.3333333333333</ele><time>2026-04-04T15:10:52Z</time></trkpt><trkpt lat="40.904020907304165" lon="8.94254228986622"><ele>541.6666666666666</ele><time>2026-04-04T15:10:53Z</time></trkpt><trkpt lat="40.90397175869279" lon="8.942474186896618"><ele>540.0</ele><time>2026-04-04T15:10:54Z</time></trkpt><trkpt lat="40.903917795217424" lon="8.942415379094857"><ele>538.3333333333334</ele><time>2026-04-04T15:10:55Z</time></trkpt><trkpt lat="40.903861571438426" lon="8.942366255615678"><ele>536.6666666666667</ele><time>2026-04-04T15:10:56Z</time></trkpt><trkpt lat="40.90377223277482" lon="8.942269406750242"><ele>535.0</ele><time>2026-04-04T15:10:58Z</time></trkpt><trkpt lat="40.90369956320954" lon="8.942154782509249"><ele>535.0</ele><time>2026-04-04T15:11:00Z</time></trkpt><trkpt lat="40.903664713982565" lon="8.942057221195116"><ele>535.0</ele><time>2026-04-04T15:11:02Z</time></trkpt><trkpt lat="40.90362958899971" lon="8.941912981046906"><ele>535.0</ele><time>2026-04-04T15:11:04.001Z</time></trkpt><trkpt lat="40.903590622667544" lon="8.941800453076413"><ele>535.0</ele><time>2026-04-04T15:11:05.001Z</time></trkpt><trkpt lat="40.90356212244337" lon="8.941696908108051"><ele>535.0</ele><time>2026-04-04T15:11:06.001Z</time></trkpt><trkpt lat="40.90354201280952" lon="8.941603429550762"><ele>535.0</ele><time>2026-04-04T15:11:07.001Z</time></trkpt><trkpt lat="40.90351759957032" lon="8.941498393794378"><ele>534.8333333333334</ele><time>2026-04-04T15:11:08.001Z</time></trkpt><trkpt lat="40.90348892161474" lon="8.941399990440313"><ele>534.6666666666667</ele><time>2026-04-04T15:11:09.001Z</time></trkpt><trkpt lat="40.90346239111854" lon="8.94131368614506"><ele>534.5</ele><time>2026-04-04T15:11:10.001Z</time></trkpt><trkpt lat="40.903428732221705" lon="8.941219372791622"><ele>534.3333333333334</ele><time>2026-04-04T15:11:12.001Z</time></trkpt><trkpt lat="40.903333706268754" lon="8.941156377800143"><ele>534.1666666666666</ele><time>2026-04-04T15:11:14.001Z</time></trkpt><trkpt lat="40.90327349507771" lon="8.941122068151396"><ele>534.0</ele><time>2026-04-04T15:11:15.001Z</time></trkpt><trkpt lat="40.90320485671053" lon="8.941064478341321"><ele>533.0</ele><time>2026-04-04T15:11:16.001Z</time></trkpt><trkpt lat="40.90314115383901" lon="8.940992682173684"><ele>532.0</ele><time>2026-04-04T15:11:17.001Z</time></trkpt><trkpt lat="40.90308696743992" lon="8.940930888608362"><ele>531.0</ele><time>2026-04-04T15:11:18.001Z</time></trkpt><trkpt lat="40.903030501042" lon="8.940872017055913"><ele>530.0</ele><time>2026-04-04T15:11:19.001Z</time></trkpt><trkpt lat="40.9029497167179" lon="8.940763928342445"><ele>529.0</ele><time>2026-04-04T15:11:21.001Z</time></trkpt><trkpt lat="40.90290661750026" lon="8.940637214959809"><ele>528.0</ele><time>2026-04-04T15:11:23.001Z</time></trkpt><trkpt lat="40.90294743695364" lon="8.940513655847237"><ele>528.0</ele><time>2026-04-04T15:11:25.001Z</time></trkpt><trkpt lat="40.90297361087064" lon="8.940436748970505"><ele>528.0</ele><time>2026-04-04T15:11:26.001Z</time></trkpt><trkpt lat="40.90298946441588" lon="8.940345123747312"><ele>528.0</ele><time>2026-04-04T15:11:27.001Z</time></trkpt><trkpt lat="40.902975206352814" lon="8.940195475618973"><ele>528.0</ele><time>2026-04-04T15:11:29.001Z</time></trkpt><trkpt lat="40.90292649370672" lon="8.940119257271126"><ele>528.0</ele><time>2026-04-04T15:11:31.001Z</time></trkpt><trkpt lat="40.90286622093006" lon="8.939996306005183"><ele>528.0</ele><time>2026-04-04T15:11:33.001Z</time></trkpt><trkpt lat="40.902823438658096" lon="8.939904301178792"><ele>527.8333333333334</ele><time>2026-04-04T15:11:34.001Z</time></trkpt><trkpt lat="40.90277590551919" lon="8.939805045874913"><ele>527.6666666666666</ele><time>2026-04-04T15:11:35.001Z</time></trkpt><trkpt lat="40.90271765265034" lon="8.93972156336182"><ele>527.5</ele><time>2026-04-04T15:11:36.001Z</time></trkpt><trkpt lat="40.90266054881137" lon="8.93964096712984"><ele>527.3333333333333</ele><time>2026-04-04T15:11:37.001Z</time></trkpt><trkpt lat="40.90261569324575" lon="8.93957150079723"><ele>527.1666666666666</ele><time>2026-04-04T15:11:38.001Z</time></trkpt><trkpt lat="40.90257537881721" lon="8.939503737496867"><ele>527.0</ele><time>2026-04-04T15:11:39.001Z</time></trkpt><trkpt lat="40.90253665218145" lon="8.939431665802125"><ele>525.0000000000001</ele><time>2026-04-04T15:11:40.001Z</time></trkpt><trkpt lat="40.90250404255598" lon="8.939354963370914"><ele>523.0</ele><time>2026-04-04T15:11:41.001Z</time></trkpt><trkpt lat="40.902476792157564" lon="8.939277037096627"><ele>521.0</ele><time>2026-04-04T15:11:42.001Z</time></trkpt><trkpt lat="40.902450710818535" lon="8.939186725468302"><ele>519.0</ele><time>2026-04-04T15:11:43.001Z</time></trkpt><trkpt lat="40.90242222491424" lon="8.93909246865628"><ele>517.0</ele><time>2026-04-04T15:11:44.001Z</time></trkpt><trkpt lat="40.90239595228846" lon="8.938997070759743"><ele>515.0000000000001</ele><time>2026-04-04T15:11:45.001Z</time></trkpt><trkpt lat="40.90236755612271" lon="8.938892665516715"><ele>513.0</ele><time>2026-04-04T15:11:46.001Z</time></trkpt><trkpt lat="40.902338583908154" lon="8.938786198045966"><ele>512.3333333333334</ele><time>2026-04-04T15:11:47.001Z</time></trkpt><trkpt lat="40.90231090123977" lon="8.938685596897649"><ele>511.66666666666663</ele><time>2026-04-04T15:11:48.001Z</time></trkpt><trkpt lat="40.90227842647277" lon="8.938588585046393"><ele>511.0</ele><time>2026-04-04T15:11:49.001Z</time></trkpt><trkpt lat="40.90224659763196" lon="8.93849822721666"><ele>510.3333333333333</ele><time>2026-04-04T15:11:50.001Z</time></trkpt><trkpt lat="40.90221445169196" lon="8.938408511271097"><ele>509.66666666666663</ele><time>2026-04-04T15:11:51.001Z</time></trkpt><trkpt lat="40.90217548069424" lon="8.938326891954047"><ele>509.0</ele><time>2026-04-04T15:11:52.001Z</time></trkpt><trkpt lat="40.90212801597775" lon="8.93826096968655"><ele>507.4</ele><time>2026-04-04T15:11:53.001Z</time></trkpt><trkpt lat="40.902040782268834" lon="8.938135501908523"><ele>505.79999999999995</ele><time>2026-04-04T15:11:55.001Z</time></trkpt><trkpt lat="40.901996120354426" lon="8.93806761244965"><ele>504.20000000000005</ele><time>2026-04-04T15:11:56.001Z</time></trkpt><trkpt lat="40.90195347177571" lon="8.938002186459649"><ele>502.6</ele><time>2026-04-04T15:11:57.001Z</time></trkpt><trkpt lat="40.90188978284166" lon="8.937886247003467"><ele>501.0</ele><time>2026-04-04T15:11:59Z</time></trkpt><trkpt lat="40.90182670117053" lon="8.937772006228334"><ele>501.0</ele><time>2026-04-04T15:12:01Z</time></trkpt><trkpt lat="40.90175287616811" lon="8.937670217609558"><ele>501.0</ele><time>2026-04-04T15:12:03Z</time></trkpt><trkpt lat="40.90168707022042" lon="8.937555295396006"><ele>501.0</ele><time>2026-04-04T15:12:05Z</time></trkpt><trkpt lat="40.901630777449384" lon="8.93749864046324"><ele>501.0</ele><time>2026-04-04T15:12:06Z</time></trkpt><trkpt lat="40.90158038301246" lon="8.937434485543683"><ele>501.0</ele><time>2026-04-04T15:12:07Z</time></trkpt><trkpt lat="40.901520474506505" lon="8.937377195436307"><ele>501.0</ele><time>2026-04-04T15:12:08Z</time></trkpt><trkpt lat="40.90146388189593" lon="8.937314078182492"><ele>497.0</ele><time>2026-04-04T15:12:09Z</time></trkpt><trkpt lat="40.90141362851969" lon="8.937237263464281"><ele>493.0</ele><time>2026-04-04T15:12:10Z</time></trkpt><trkpt lat="40.90136702203211" lon="8.9371770571251"><ele>489.0</ele><time>2026-04-04T15:12:11Z</time></trkpt><trkpt lat="40.901315109143994" lon="8.937128930657781"><ele>485.0</ele><time>2026-04-04T15:12:12Z</time></trkpt><trkpt lat="40.90122451884381" lon="8.937033547305386"><ele>481.0</ele><time>2026-04-04T15:12:14Z</time></trkpt><trkpt lat="40.90115854381788" lon="8.936956083063901"><ele>477.0</ele><time>2026-04-04T15:12:16Z</time></trkpt><trkpt lat="40.90108541293468" lon="8.936885386328228"><ele>477.0</ele><time>2026-04-04T15:12:18Z</time></trkpt><trkpt lat="40.90101331678181" lon="8.936807833666261"><ele>477.0</ele><time>2026-04-04T15:12:21Z</time></trkpt><trkpt lat="40.90094622286918" lon="8.936735214817894"><ele>477.0</ele><time>2026-04-04T15:12:23Z</time></trkpt><trkpt lat="40.90089773659279" lon="8.93667070111353"><ele>477.0</ele><time>2026-04-04T15:12:25Z</time></trkpt><trkpt lat="40.9008324228254" lon="8.936698581094152"><ele>477.0</ele><time>2026-04-04T15:12:27Z</time></trkpt><trkpt lat="40.900741080849805" lon="8.936791637149886"><ele>477.0</ele><time>2026-04-04T15:12:30Z</time></trkpt><trkpt lat="40.900607845455326" lon="8.936979558254137"><ele>473.85714285714283</ele><time>2026-04-04T15:12:33Z</time></trkpt><trkpt lat="40.90051798786354" lon="8.936982781375766"><ele>470.71428571428567</ele><time>2026-04-04T15:12:36Z</time></trkpt><trkpt lat="40.900489874693044" lon="8.936884156015171"><ele>467.57142857142856</ele><time>2026-04-04T15:12:37Z</time></trkpt><trkpt lat="40.9004665591552" lon="8.936798972660162"><ele>464.42857142857144</ele><time>2026-04-04T15:12:38Z</time></trkpt><trkpt lat="40.90044668840036" lon="8.936719900003048"><ele>461.2857142857143</ele><time>2026-04-04T15:12:39Z</time></trkpt><trkpt lat="40.90043282292746" lon="8.936631814442073"><ele>458.1428571428571</ele><time>2026-04-04T15:12:40Z</time></trkpt><trkpt lat="40.90041792211179" lon="8.936541715702155"><ele>455.0</ele><time>2026-04-04T15:12:41Z</time></trkpt><trkpt lat="40.9004038838075" lon="8.936459227736588"><ele>454.75</ele><time>2026-04-04T15:12:42Z</time></trkpt><trkpt lat="40.90038321781926" lon="8.93630143858392"><ele>454.5</ele><time>2026-04-04T15:12:44Z</time></trkpt><trkpt lat="40.9003763124692" lon="8.936162532326083"><ele>454.25</ele><time>2026-04-04T15:12:46Z</time></trkpt><trkpt lat="40.90039970701358" lon="8.93601252285545"><ele>454.0</ele><time>2026-04-04T15:12:48Z</time></trkpt><trkpt lat="40.900403160987395" lon="8.935866847697465"><ele>450.1666666666667</ele><time>2026-04-04T15:12:50Z</time></trkpt><trkpt lat="40.900400861204204" lon="8.935752781057861"><ele>446.33333333333337</ele><time>2026-04-04T15:12:52Z</time></trkpt><trkpt lat="40.9004276195874" lon="8.935634701729574"><ele>442.5</ele><time>2026-04-04T15:12:54Z</time></trkpt><trkpt lat="40.90041443509989" lon="8.935551391027808"><ele>438.66666666666663</ele><time>2026-04-04T15:12:55Z</time></trkpt><trkpt lat="40.900401180721296" lon="8.935466831879529"><ele>434.8333333333333</ele><time>2026-04-04T15:12:56Z</time></trkpt><trkpt lat="40.90037984291429" lon="8.93532324254119"><ele>431.0</ele><time>2026-04-04T15:12:58Z</time></trkpt><trkpt lat="40.900318103496566" lon="8.935277591199325"><ele>431.0</ele><time>2026-04-04T15:13:01Z</time></trkpt><trkpt lat="40.90025857092979" lon="8.93530473704047"><ele>431.0</ele><time>2026-04-04T15:13:02Z</time></trkpt><trkpt lat="40.900153961701676" lon="8.935366033153407"><ele>431.0</ele><time>2026-04-04T15:13:03Z</time></trkpt><trkpt lat="40.90009028770294" lon="8.93538895526239"><ele>431.0</ele><time>2026-04-04T15:13:04Z</time></trkpt><trkpt lat="40.90000428263783" lon="8.93536950428838"><ele>431.0</ele><time>2026-04-04T15:13:06Z</time></trkpt><trkpt lat="40.89990073269455" lon="8.93522935904488"><ele>429.20000000000005</ele><time>2026-04-04T15:13:08.001Z</time></trkpt><trkpt lat="40.899840935594455" lon="8.935124064331138"><ele>427.40000000000003</ele><time>2026-04-04T15:13:09.001Z</time></trkpt><trkpt lat="40.89978699728629" lon="8.93506793139662"><ele>425.6</ele><time>2026-04-04T15:13:10.001Z</time></trkpt><trkpt lat="40.89967882520198" lon="8.935015620585053"><ele>423.8</ele><time>2026-04-04T15:13:12.001Z</time></trkpt><trkpt lat="40.89959385043248" lon="8.934968985420152"><ele>422.0</ele><time>2026-04-04T15:13:14.001Z</time></trkpt><trkpt lat="40.89960370444341" lon="8.934864695374218"><ele>419.40000000000003</ele><time>2026-04-04T15:13:16.001Z</time></trkpt><trkpt lat="40.89960719712261" lon="8.93469793797287"><ele>416.8</ele><time>2026-04-04T15:13:18.001Z</time></trkpt><trkpt lat="40.899616419867804" lon="8.93459336034365"><ele>414.2</ele><time>2026-04-04T15:13:19.001Z</time></trkpt><trkpt lat="40.89964644859501" lon="8.934454036346722"><ele>411.6</ele><time>2026-04-04T15:13:20.001Z</time></trkpt><trkpt lat="40.899673592080916" lon="8.934307080290095"><ele>409.0</ele><time>2026-04-04T15:13:21.001Z</time></trkpt><trkpt lat="40.89968407975845" lon="8.934190115741556"><ele>406.0</ele><time>2026-04-04T15:13:22.001Z</time></trkpt><trkpt lat="40.89968258036969" lon="8.934084445078874"><ele>403.0</ele><time>2026-04-04T15:13:23.001Z</time></trkpt><trkpt lat="40.89965661266397" lon="8.933970929257761"><ele>400.0</ele><time>2026-04-04T15:13:24.001Z</time></trkpt><trkpt lat="40.89962046089013" lon="8.933818520346643"><ele>397.0</ele><time>2026-04-04T15:13:25.001Z</time></trkpt><trkpt lat="40.8995865717318" lon="8.93366785880761"><ele>394.0</ele><time>2026-04-04T15:13:26.001Z</time></trkpt><trkpt lat="40.89960995490882" lon="8.93356152538466"><ele>394.00000000000006</ele><time>2026-04-04T15:13:27.001Z</time></trkpt><trkpt lat="40.89957498870422" lon="8.93344898955382"><ele>394.0</ele><time>2026-04-04T15:13:28.001Z</time></trkpt><trkpt lat="40.89953180343389" lon="8.933354757874174"><ele>394.0</ele><time>2026-04-04T15:13:29.001Z</time></trkpt><trkpt lat="40.899483489112164" lon="8.933269340804578"><ele>394.0</ele><time>2026-04-04T15:13:30.001Z</time></trkpt><trkpt lat="40.899433175763534" lon="8.9331855479025"><ele>394.00000000000006</ele><time>2026-04-04T15:13:31.001Z</time></trkpt><trkpt lat="40.89938739230986" lon="8.933091259076631"><ele>394.0</ele><time>2026-04-04T15:13:32.001Z</time></trkpt><trkpt lat="40.899346786066005" lon="8.933019673043157"><ele>395.4</ele><time>2026-04-04T15:13:33.001Z</time></trkpt><trkpt lat="40.899312990604635" lon="8.932940550833855"><ele>396.79999999999995</ele><time>2026-04-04T15:13:34.001Z</time></trkpt><trkpt lat="40.899279848419155" lon="8.932865689797364"><ele>398.20000000000005</ele><time>2026-04-04T15:13:35.001Z</time></trkpt><trkpt lat="40.8992092542331" lon="8.932767120366755"><ele>399.6</ele><time>2026-04-04T15:13:37.001Z</time></trkpt><trkpt lat="40.899126431775926" lon="8.932684010108177"><ele>401.0</ele><time>2026-04-04T15:13:39.001Z</time></trkpt><trkpt lat="40.89901760614109" lon="8.932607738199172"><ele>400.99999999999994</ele><time>2026-04-04T15:13:41.001Z</time></trkpt><trkpt lat="40.89894612326091" lon="8.932580936606396"><ele>401.0</ele><time>2026-04-04T15:13:42.001Z</time></trkpt><trkpt lat="40.898874556833476" lon="8.932541880197752"><ele>401.0</ele><time>2026-04-04T15:13:43.001Z</time></trkpt><trkpt lat="40.8987916631553" lon="8.93248815136949"><ele>401.0</ele><time>2026-04-04T15:13:44.001Z</time></trkpt><trkpt lat="40.89872486531473" lon="8.932415665256054"><ele>400.99999999999994</ele><time>2026-04-04T15:13:45.001Z</time></trkpt><trkpt lat="40.898657497900366" lon="8.93233879843337"><ele>401.0</ele><time>2026-04-04T15:13:46.001Z</time></trkpt><trkpt lat="40.89859707987624" lon="8.932281591752247"><ele>395.8333333333333</ele><time>2026-04-04T15:13:47.001Z</time></trkpt><trkpt lat="40.89854540324452" lon="8.932225471765918"><ele>390.66666666666663</ele><time>2026-04-04T15:13:48.001Z</time></trkpt><trkpt lat="40.89848357214362" lon="8.932174377263047"><ele>385.5</ele><time>2026-04-04T15:13:50.001Z</time></trkpt><trkpt lat="40.8984667282378" lon="8.932059628079458"><ele>380.3333333333333</ele><time>2026-04-04T15:13:52.001Z</time></trkpt><trkpt lat="40.89846928327489" lon="8.931966277276796"><ele>375.16666666666663</ele><time>2026-04-04T15:13:54.001Z</time></trkpt><trkpt lat="40.89845034209326" lon="8.93182607284055"><ele>370.0</ele><time>2026-04-04T15:13:56.001Z</time></trkpt><trkpt lat="40.89839078095592" lon="8.931687177322946"><ele>367.16666666666663</ele><time>2026-04-04T15:13:58.001Z</time></trkpt><trkpt lat="40.89835626440986" lon="8.931614092125727"><ele>364.3333333333333</ele><time>2026-04-04T15:13:59.001Z</time></trkpt><trkpt lat="40.89834590806601" lon="8.931527643202235"><ele>361.5</ele><time>2026-04-04T15:14:00.001Z</time></trkpt><trkpt lat="40.898344362187586" lon="8.931406172022406"><ele>358.6666666666667</ele><time>2026-04-04T15:14:01.001Z</time></trkpt><trkpt lat="40.89834569624496" lon="8.931298357114084"><ele>355.83333333333337</ele><time>2026-04-04T15:14:02.001Z</time></trkpt><trkpt lat="40.89834292646771" lon="8.931166696096943"><ele>353.0</ele><time>2026-04-04T15:14:03.001Z</time></trkpt><trkpt lat="40.89834817925421" lon="8.931037436846813"><ele>353.0</ele><time>2026-04-04T15:14:04Z</time></trkpt><trkpt lat="40.898354660329794" lon="8.93092256278428"><ele>353.0</ele><time>2026-04-04T15:14:05Z</time></trkpt><trkpt lat="40.89836454408782" lon="8.930821554133384"><ele>353.0</ele><time>2026-04-04T15:14:06Z</time></trkpt><trkpt lat="40.89837126190654" lon="8.930728064287974"><ele>353.0</ele><time>2026-04-04T15:14:07Z</time></trkpt><trkpt lat="40.898381450695084" lon="8.930568394626306"><ele>353.0</ele><time>2026-04-04T15:14:09Z</time></trkpt><trkpt lat="40.89835524062737" lon="8.930469736046145"><ele>353.0</ele><time>2026-04-04T15:14:10Z</time></trkpt><trkpt lat="40.89832153643814" lon="8.930359940041793"><ele>351.4</ele><time>2026-04-04T15:14:11Z</time></trkpt><trkpt lat="40.898295584962945" lon="8.930249231482534"><ele>349.79999999999995</ele><time>2026-04-04T15:14:12Z</time></trkpt><trkpt lat="40.89828410916513" lon="8.930128826263784"><ele>348.2</ele><time>2026-04-04T15:14:13Z</time></trkpt><trkpt lat="40.898268155945615" lon="8.930006415211992"><ele>346.6</ele><time>2026-04-04T15:14:14Z</time></trkpt><trkpt lat="40.89824677819172" lon="8.929884240472521"><ele>345.0</ele><time>2026-04-04T15:14:15Z</time></trkpt><trkpt lat="40.89822249885949" lon="8.929773571862405"><ele>343.3333333333333</ele><time>2026-04-04T15:14:16Z</time></trkpt><trkpt lat="40.89818864653737" lon="8.929671421148724"><ele>341.6666666666667</ele><time>2026-04-04T15:14:17Z</time></trkpt><trkpt lat="40.89813889288492" lon="8.92957731375511"><ele>340.0</ele><time>2026-04-04T15:14:18Z</time></trkpt><trkpt lat="40.898095862736184" lon="8.929471149662454"><ele>338.33333333333337</ele><time>2026-04-04T15:14:19Z</time></trkpt><trkpt lat="40.898078142468094" lon="8.929356718784355"><ele>336.6666666666667</ele><time>2026-04-04T15:14:20Z</time></trkpt><trkpt lat="40.89807966915536" lon="8.929257607355346"><ele>335.0</ele><time>2026-04-04T15:14:21Z</time></trkpt><trkpt lat="40.89807602099627" lon="8.929158805496586"><ele>333.6666666666667</ele><time>2026-04-04T15:14:22Z</time></trkpt><trkpt lat="40.89806362244881" lon="8.92904969268036"><ele>332.33333333333337</ele><time>2026-04-04T15:14:23Z</time></trkpt><trkpt lat="40.898047664376804" lon="8.928933610550697"><ele>331.0</ele><time>2026-04-04T15:14:24Z</time></trkpt><trkpt lat="40.898041802359366" lon="8.928811744077631"><ele>329.6666666666667</ele><time>2026-04-04T15:14:25Z</time></trkpt><trkpt lat="40.89803527976246" lon="8.92869577092811"><ele>328.3333333333333</ele><time>2026-04-04T15:14:26Z</time></trkpt><trkpt lat="40.89802939982259" lon="8.92860704180074"><ele>327.0</ele><time>2026-04-04T15:14:27Z</time></trkpt><trkpt lat="40.89804276465242" lon="8.928516683939216"><ele>326.20000000000005</ele><time>2026-04-04T15:14:28Z</time></trkpt><trkpt lat="40.89808365260805" lon="8.928384672895007"><ele>325.4</ele><time>2026-04-04T15:14:29Z</time></trkpt><trkpt lat="40.89812231459408" lon="8.928238195166088"><ele>324.6</ele><time>2026-04-04T15:14:30Z</time></trkpt><trkpt lat="40.89815695063189" lon="8.92810067287186"><ele>323.79999999999995</ele><time>2026-04-04T15:14:31Z</time></trkpt><trkpt lat="40.898201213208296" lon="8.92798233322277"><ele>323.0</ele><time>2026-04-04T15:14:32Z</time></trkpt><trkpt lat="40.89825084109892" lon="8.927861187277154"><ele>323.0</ele><time>2026-04-04T15:14:33Z</time></trkpt><trkpt lat="40.898292479255986" lon="8.927738342230935"><ele>323.0</ele><time>2026-04-04T15:14:34Z</time></trkpt><trkpt lat="40.898323152383696" lon="8.927633861620507"><ele>323.0</ele><time>2026-04-04T15:14:35Z</time></trkpt><trkpt lat="40.8983293810842" lon="8.927458055639143"><ele>323.0</ele><time>2026-04-04T15:14:37Z</time></trkpt><trkpt lat="40.89830681724365" lon="8.927341464324263"><ele>323.0</ele><time>2026-04-04T15:14:38Z</time></trkpt><trkpt lat="40.8983023419442" lon="8.927225064106192"><ele>323.0</ele><time>2026-04-04T15:14:39Z</time></trkpt><trkpt lat="40.898321830766605" lon="8.927122450674672"><ele>323.0</ele><time>2026-04-04T15:14:40Z</time></trkpt><trkpt lat="40.89834951315872" lon="8.92703378219953"><ele>323.0</ele><time>2026-04-04T15:14:41Z</time></trkpt><trkpt lat="40.8983365015801" lon="8.926898175830816"><ele>323.0</ele><time>2026-04-04T15:14:43Z</time></trkpt><trkpt lat="40.898280402469275" lon="8.926743698178159"><ele>323.0</ele><time>2026-04-04T15:14:45Z</time></trkpt><trkpt lat="40.89824706369319" lon="8.926643960352864"><ele>320.79999999999995</ele><time>2026-04-04T15:14:46Z</time></trkpt><trkpt lat="40.89821013882368" lon="8.92655647173385"><ele>318.59999999999997</ele><time>2026-04-04T15:14:47Z</time></trkpt><trkpt lat="40.89814613969937" lon="8.926438791568145"><ele>316.4</ele><time>2026-04-04T15:14:49Z</time></trkpt><trkpt lat="40.89814871422435" lon="8.926305363304241"><ele>314.2</ele><time>2026-04-04T15:14:51Z</time></trkpt><trkpt lat="40.898184045287024" lon="8.926227621557716"><ele>312.0</ele><time>2026-04-04T15:14:52Z</time></trkpt><trkpt lat="40.89819857457256" lon="8.92607227882641"><ele>312.0</ele><time>2026-04-04T15:14:54Z</time></trkpt><trkpt lat="40.89819841078803" lon="8.925933860150936"><ele>312.0</ele><time>2026-04-04T15:14:56Z</time></trkpt><trkpt lat="40.898172761214035" lon="8.925857767467381"><ele>312.0</ele><time>2026-04-04T15:16:22Z</time></trkpt><trkpt lat="40.89810076088925" lon="8.925831351243051"><ele>312.0</ele><time>2026-04-04T15:16:24Z</time></trkpt><trkpt lat="40.89803222034791" lon="8.925719066640296"><ele>312.0</ele><time>2026-04-04T15:16:26Z</time></trkpt><trkpt lat="40.89798355077508" lon="8.92561681571552"><ele>312.0</ele><time>2026-04-04T15:16:27Z</time></trkpt><trkpt lat="40.89792858415152" lon="8.925493104426442"><ele>310.1666666666667</ele><time>2026-04-04T15:16:28Z</time></trkpt><trkpt lat="40.8978711251881" lon="8.925386538939323"><ele>308.3333333333333</ele><time>2026-04-04T15:16:29Z</time></trkpt><trkpt lat="40.89781847767658" lon="8.925295721082705"><ele>306.5</ele><time>2026-04-04T15:16:30Z</time></trkpt><trkpt lat="40.89775681689207" lon="8.925215825158947"><ele>304.66666666666663</ele><time>2026-04-04T15:16:31Z</time></trkpt><trkpt lat="40.89768380566046" lon="8.925159061573016"><ele>302.8333333333333</ele><time>2026-04-04T15:16:32Z</time></trkpt><trkpt lat="40.89759892614147" lon="8.925122129815632"><ele>301.0</ele><time>2026-04-04T15:16:33Z</time></trkpt><trkpt lat="40.89751247938046" lon="8.925078928829375"><ele>299.2</ele><time>2026-04-04T15:16:34Z</time></trkpt><trkpt lat="40.897432394167836" lon="8.92501797721061"><ele>297.40000000000003</ele><time>2026-04-04T15:16:35Z</time></trkpt><trkpt lat="40.89735952844297" lon="8.924926218558552"><ele>295.6</ele><time>2026-04-04T15:16:36Z</time></trkpt><trkpt lat="40.89728843990998" lon="8.924821524062144"><ele>293.8</ele><time>2026-04-04T15:16:37Z</time></trkpt><trkpt lat="40.89722219361515" lon="8.924712162666081"><ele>292.0</ele><time>2026-04-04T15:16:38Z</time></trkpt><trkpt lat="40.89714607122206" lon="8.92461119116124"><ele>292.0</ele><time>2026-04-04T15:16:39Z</time></trkpt><trkpt lat="40.89705896218545" lon="8.924543513615326"><ele>292.0</ele><time>2026-04-04T15:16:40Z</time></trkpt><trkpt lat="40.89697550138211" lon="8.924500025045603"><ele>292.0</ele><time>2026-04-04T15:16:41Z</time></trkpt><trkpt lat="40.89691565153796" lon="8.924449229385505"><ele>292.0</ele><time>2026-04-04T15:16:42Z</time></trkpt><trkpt lat="40.89684384737242" lon="8.924368304716563"><ele>292.0</ele><time>2026-04-04T15:16:44Z</time></trkpt><trkpt lat="40.89680332499852" lon="8.924183065354107"><ele>291.8</ele><time>2026-04-04T15:16:46Z</time></trkpt><trkpt lat="40.89677802973517" lon="8.924056761797164"><ele>291.6</ele><time>2026-04-04T15:16:47Z</time></trkpt><trkpt lat="40.896740588969664" lon="8.923923923033838"><ele>291.40000000000003</ele><time>2026-04-04T15:16:48Z</time></trkpt><trkpt lat="40.8967062071702" lon="8.923809279654701"><ele>291.2</ele><time>2026-04-04T15:16:49Z</time></trkpt><trkpt lat="40.8966703763197" lon="8.923694634745534"><ele>291.0</ele><time>2026-04-04T15:16:50Z</time></trkpt><trkpt lat="40.89663823046461" lon="8.923580000743584"><ele>290.2</ele><time>2026-04-04T15:16:51Z</time></trkpt><trkpt lat="40.89661333225521" lon="8.923466254064117"><ele>289.40000000000003</ele><time>2026-04-04T15:16:52Z</time></trkpt><trkpt lat="40.896594260458336" lon="8.923342652196533"><ele>288.6</ele><time>2026-04-04T15:16:53Z</time></trkpt><trkpt lat="40.89659458466886" lon="8.923218918773982"><ele>287.8</ele><time>2026-04-04T15:16:54Z</time></trkpt><trkpt lat="40.896620283295334" lon="8.923097632692714"><ele>287.0</ele><time>2026-04-04T15:16:55Z</time></trkpt><trkpt lat="40.89667857451646" lon="8.922979850783207"><ele>285.6</ele><time>2026-04-04T15:16:56Z</time></trkpt><trkpt lat="40.89675587080657" lon="8.922882407329954"><ele>284.2</ele><time>2026-04-04T15:16:57Z</time></trkpt><trkpt lat="40.89683492320754" lon="8.922811759298273"><ele>282.8</ele><time>2026-04-04T15:16:58Z</time></trkpt><trkpt lat="40.89689035837006" lon="8.922737841069573"><ele>281.4</ele><time>2026-04-04T15:16:59Z</time></trkpt><trkpt lat="40.89692288995999" lon="8.922632228082993"><ele>280.0</ele><time>2026-04-04T15:17:00Z</time></trkpt><trkpt lat="40.896927253756324" lon="8.922497393808099"><ele>276.0</ele><time>2026-04-04T15:17:01Z</time></trkpt><trkpt lat="40.896898115787465" lon="8.922342856897867"><ele>272.0</ele><time>2026-04-04T15:17:02Z</time></trkpt><trkpt lat="40.89687037817003" lon="8.922183280517363"><ele>268.0</ele><time>2026-04-04T15:17:03Z</time></trkpt><trkpt lat="40.8968744160964" lon="8.922029523636525"><ele>264.0</ele><time>2026-04-04T15:17:04Z</time></trkpt><trkpt lat="40.89690713656908" lon="8.921886550271031"><ele>264.0</ele><time>2026-04-04T15:17:05Z</time></trkpt><trkpt lat="40.89696103258046" lon="8.92175357650371"><ele>264.0</ele><time>2026-04-04T15:17:06Z</time></trkpt><trkpt lat="40.89704433766949" lon="8.921628450032236"><ele>264.0</ele><time>2026-04-04T15:17:07Z</time></trkpt><trkpt lat="40.89713531390047" lon="8.921516345622983"><ele>264.0</ele><time>2026-04-04T15:17:08Z</time></trkpt><trkpt lat="40.89722076144806" lon="8.921396954541333"><ele>263.0</ele><time>2026-04-04T15:17:09Z</time></trkpt><trkpt lat="40.89729576960444" lon="8.921274870266387"><ele>262.0</ele><time>2026-04-04T15:17:10Z</time></trkpt><trkpt lat="40.89735513363211" lon="8.92115298723995"><ele>261.0</ele><time>2026-04-04T15:17:11Z</time></trkpt><trkpt lat="40.89739004231816" lon="8.921022296926019"><ele>260.0</ele><time>2026-04-04T15:17:12Z</time></trkpt><trkpt lat="40.89740939714412" lon="8.920892525427039"><ele>259.0</ele><time>2026-04-04T15:17:13Z</time></trkpt><trkpt lat="40.897418469873855" lon="8.920763772890696"><ele>259.0</ele><time>2026-04-04T15:17:14Z</time></trkpt><trkpt lat="40.89742275345182" lon="8.920641914770684"><ele>259.0</ele><time>2026-04-04T15:17:15Z</time></trkpt><trkpt lat="40.89742971205587" lon="8.920528523946382"><ele>259.0</ele><time>2026-04-04T15:17:16Z</time></trkpt><trkpt lat="40.897444509002646" lon="8.920425571343989"><ele>259.0</ele><time>2026-04-04T15:17:17Z</time></trkpt><trkpt lat="40.89746639200682" lon="8.920329603934912"><ele>259.0</ele><time>2026-04-04T15:17:18Z</time></trkpt><trkpt lat="40.897486279321335" lon="8.92024208959715"><ele>259.0</ele><time>2026-04-04T15:17:19Z</time></trkpt><trkpt lat="40.89751065167358" lon="8.92015919325984"><ele>259.0</ele><time>2026-04-04T15:17:20.001Z</time></trkpt><trkpt lat="40.89753905667508" lon="8.920083322462323"><ele>259.0</ele><time>2026-04-04T15:17:21.001Z</time></trkpt><trkpt lat="40.89758469053101" lon="8.919953022357433"><ele>259.0</ele><time>2026-04-04T15:17:23.001Z</time></trkpt><trkpt lat="40.897631645826316" lon="8.919838867687927"><ele>259.0</ele><time>2026-04-04T15:17:25.001Z</time></trkpt><trkpt lat="40.897679693774" lon="8.919737691485075"><ele>259.0</ele><time>2026-04-04T15:17:27.001Z</time></trkpt><trkpt lat="40.89772942226777" lon="8.91964102800454"><ele>259.0</ele><time>2026-04-04T15:17:29.001Z</time></trkpt><trkpt lat="40.89777749273974" lon="8.919544951996025"><ele>256.8</ele><time>2026-04-04T15:17:31.001Z</time></trkpt><trkpt lat="40.897834378560646" lon="8.919435046926472"><ele>254.59999999999997</ele><time>2026-04-04T15:17:33.001Z</time></trkpt><trkpt lat="40.897895793841386" lon="8.919325909206629"><ele>252.4</ele><time>2026-04-04T15:17:35.001Z</time></trkpt><trkpt lat="40.89796852586992" lon="8.919208339096347"><ele>250.2</ele><time>2026-04-04T15:17:37.001Z</time></trkpt><trkpt lat="40.89801928275113" lon="8.919144315071549"><ele>248.0</ele><time>2026-04-04T15:17:38.001Z</time></trkpt><trkpt lat="40.89806580012867" lon="8.919079755179665"><ele>248.0</ele><time>2026-04-04T15:17:39.001Z</time></trkpt><trkpt lat="40.8981117980722" lon="8.919006960629412"><ele>248.00000000000003</ele><time>2026-04-04T15:17:40.001Z</time></trkpt><trkpt lat="40.89815756476603" lon="8.918936598344173"><ele>248.0</ele><time>2026-04-04T15:17:41.001Z</time></trkpt><trkpt lat="40.89820610639545" lon="8.918871749087247"><ele>248.0</ele><time>2026-04-04T15:17:42.001Z</time></trkpt><trkpt lat="40.89825909431083" lon="8.91881485754417"><ele>248.00000000000003</ele><time>2026-04-04T15:17:43.001Z</time></trkpt><trkpt lat="40.898320458628376" lon="8.91877316497864"><ele>248.0</ele><time>2026-04-04T15:17:44.001Z</time></trkpt><trkpt lat="40.89838326121047" lon="8.918735572836514"><ele>248.0</ele><time>2026-04-04T15:17:45.001Z</time></trkpt><trkpt lat="40.89844726357275" lon="8.918703290599199"><ele>246.42857142857144</ele><time>2026-04-04T15:17:46.001Z</time></trkpt><trkpt lat="40.8985120594821" lon="8.918674761473865"><ele>244.8571428571429</ele><time>2026-04-04T15:17:47.001Z</time></trkpt><trkpt lat="40.89857746566427" lon="8.918647278296277"><ele>243.28571428571428</ele><time>2026-04-04T15:17:48.001Z</time></trkpt><trkpt lat="40.898640892646874" lon="8.918615649817415"><ele>241.71428571428572</ele><time>2026-04-04T15:17:49.001Z</time></trkpt><trkpt lat="40.89870475191834" lon="8.918582832013845"><ele>240.14285714285714</ele><time>2026-04-04T15:17:50.001Z</time></trkpt><trkpt lat="40.898770593780355" lon="8.918558460785427"><ele>238.57142857142856</ele><time>2026-04-04T15:17:51.001Z</time></trkpt><trkpt lat="40.89883860685322" lon="8.918539436223504"><ele>236.99999999999997</ele><time>2026-04-04T15:17:52.001Z</time></trkpt><trkpt lat="40.89891420451106" lon="8.918527509820528"><ele>237.0</ele><time>2026-04-04T15:17:53.001Z</time></trkpt><trkpt lat="40.898993041486165" lon="8.918525185228708"><ele>237.0</ele><time>2026-04-04T15:17:54.001Z</time></trkpt><trkpt lat="40.899071856043186" lon="8.918534877404031"><ele>237.0</ele><time>2026-04-04T15:17:55.001Z</time></trkpt><trkpt lat="40.89914986507858" lon="8.91855072012057"><ele>237.0</ele><time>2026-04-04T15:17:56.001Z</time></trkpt><trkpt lat="40.89923006087046" lon="8.918573681476623"><ele>237.0</ele><time>2026-04-04T15:17:57.001Z</time></trkpt><trkpt lat="40.89931480767105" lon="8.918597709404631"><ele>237.0</ele><time>2026-04-04T15:17:58.001Z</time></trkpt><trkpt lat="40.89940535322187" lon="8.918621773110994"><ele>236.5</ele><time>2026-04-04T15:17:59.001Z</time></trkpt><trkpt lat="40.899498083119056" lon="8.918644611841847"><ele>236.0</ele><time>2026-04-04T15:18:00.001Z</time></trkpt><trkpt lat="40.899585005731524" lon="8.918665640113693"><ele>235.5</ele><time>2026-04-04T15:18:01.001Z</time></trkpt><trkpt lat="40.89966925976114" lon="8.91868641189906"><ele>235.0</ele><time>2026-04-04T15:18:02.001Z</time></trkpt><trkpt lat="40.89975015799763" lon="8.918709350633803"><ele>234.5</ele><time>2026-04-04T15:18:03.001Z</time></trkpt><trkpt lat="40.899831583170545" lon="8.918732267672674"><ele>234.0</ele><time>2026-04-04T15:18:04.001Z</time></trkpt><trkpt lat="40.89991251578098" lon="8.918747228915743"><ele>234.0</ele><time>2026-04-04T15:18:05.001Z</time></trkpt><trkpt lat="40.899993046537524" lon="8.918753267205672"><ele>234.0</ele><time>2026-04-04T15:18:06.001Z</time></trkpt><trkpt lat="40.900072303034555" lon="8.918750969529956"><ele>234.0</ele><time>2026-04-04T15:18:07.001Z</time></trkpt><trkpt lat="40.900149469500484" lon="8.918733224710335"><ele>234.0</ele><time>2026-04-04T15:18:08.001Z</time></trkpt><trkpt lat="40.90022278209488" lon="8.918698526662771"><ele>234.0</ele><time>2026-04-04T15:18:09.001Z</time></trkpt><trkpt lat="40.90028941010615" lon="8.918655952009306"><ele>234.0</ele><time>2026-04-04T15:18:10.001Z</time></trkpt><trkpt lat="40.90035097469154" lon="8.91859880507558"><ele>234.33333333333334</ele><time>2026-04-04T15:18:11.001Z</time></trkpt><trkpt lat="40.90041338034735" lon="8.918541532451382"><ele>234.66666666666669</ele><time>2026-04-04T15:18:12.001Z</time></trkpt><trkpt lat="40.90047770954471" lon="8.9184855214234"><ele>235.0</ele><time>2026-04-04T15:18:13.001Z</time></trkpt><trkpt lat="40.900546260055016" lon="8.918433299593913"><ele>235.33333333333334</ele><time>2026-04-04T15:18:14.001Z</time></trkpt><trkpt lat="40.900614468519045" lon="8.918378946717525"><ele>235.66666666666669</ele><time>2026-04-04T15:18:15.001Z</time></trkpt><trkpt lat="40.900685575294624" lon="8.918326364427047"><ele>236.0</ele><time>2026-04-04T15:18:16Z</time></trkpt><trkpt lat="40.90075848445357" lon="8.918273275830735"><ele>236.00000000000003</ele><time>2026-04-04T15:18:17Z</time></trkpt><trkpt lat="40.90083232504413" lon="8.918213520215417"><ele>236.0</ele><time>2026-04-04T15:18:18Z</time></trkpt><trkpt lat="40.90090431664379" lon="8.91815311499114"><ele>236.0</ele><time>2026-04-04T15:18:19Z</time></trkpt><trkpt lat="40.90098209032898" lon="8.91809400767534"><ele>236.0</ele><time>2026-04-04T15:18:20Z</time></trkpt><trkpt lat="40.90106114916251" lon="8.918038892335767"><ele>236.00000000000003</ele><time>2026-04-04T15:18:21Z</time></trkpt><trkpt lat="40.90114047807173" lon="8.917981959006061"><ele>236.0</ele><time>2026-04-04T15:18:22Z</time></trkpt><trkpt lat="40.90121149131146" lon="8.91792845750711"><ele>237.20000000000002</ele><time>2026-04-04T15:18:23Z</time></trkpt><trkpt lat="40.901285391568685" lon="8.917872515661344"><ele>238.40000000000003</ele><time>2026-04-04T15:18:24Z</time></trkpt><trkpt lat="40.90137160094731" lon="8.917815396438888"><ele>239.6</ele><time>2026-04-04T15:18:25Z</time></trkpt><trkpt lat="40.90146777371583" lon="8.917758292945756"><ele>240.8</ele><time>2026-04-04T15:18:26Z</time></trkpt><trkpt lat="40.90156929576252" lon="8.917718725168186"><ele>242.0</ele><time>2026-04-04T15:18:27Z</time></trkpt><trkpt lat="40.90167153978023" lon="8.91767964939091"><ele>240.39999999999998</ele><time>2026-04-04T15:18:28Z</time></trkpt><trkpt lat="40.901771532810365" lon="8.917639101536707"><ele>238.79999999999998</ele><time>2026-04-04T15:18:29Z</time></trkpt><trkpt lat="40.901870740992784" lon="8.917600187819744"><ele>237.2</ele><time>2026-04-04T15:18:30Z</time></trkpt><trkpt lat="40.901968327101535" lon="8.91756797541827"><ele>235.6</ele><time>2026-04-04T15:18:31Z</time></trkpt><trkpt lat="40.90206084775745" lon="8.917529141662385"><ele>234.0</ele><time>2026-04-04T15:18:32Z</time></trkpt><trkpt lat="40.902145698648596" lon="8.91747622439057"><ele>234.0</ele><time>2026-04-04T15:18:33Z</time></trkpt><trkpt lat="40.902237588539464" lon="8.917405785194662"><ele>233.99999999999997</ele><time>2026-04-04T15:18:34Z</time></trkpt><trkpt lat="40.90231243837991" lon="8.917299740494427"><ele>233.99999999999997</ele><time>2026-04-04T15:18:35Z</time></trkpt><trkpt lat="40.902355877522425" lon="8.917166638549224"><ele>234.0</ele><time>2026-04-04T15:18:36Z</time></trkpt><trkpt lat="40.90236013444295" lon="8.917025704649625"><ele>234.0</ele><time>2026-04-04T15:18:37Z</time></trkpt><trkpt lat="40.902368891285064" lon="8.916886024095819"><ele>234.0</ele><time>2026-04-04T15:18:38Z</time></trkpt><trkpt lat="40.9024015202467" lon="8.916749922809476"><ele>233.99999999999997</ele><time>2026-04-04T15:18:39Z</time></trkpt><trkpt lat="40.90245562522052" lon="8.916628968753718"><ele>233.99999999999997</ele><time>2026-04-04T15:18:40Z</time></trkpt><trkpt lat="40.90252963683628" lon="8.916523196396616"><ele>234.0</ele><time>2026-04-04T15:18:41Z</time></trkpt><trkpt lat="40.90262299112088" lon="8.916445042831786"><ele>234.0</ele><time>2026-04-04T15:18:42Z</time></trkpt><trkpt lat="40.902705494176715" lon="8.916368321210225"><ele>232.79999999999998</ele><time>2026-04-04T15:18:43Z</time></trkpt><trkpt lat="40.90275165604934" lon="8.916250090334524"><ele>231.59999999999997</ele><time>2026-04-04T15:18:44Z</time></trkpt><trkpt lat="40.90275254985845" lon="8.916109233746445"><ele>230.4</ele><time>2026-04-04T15:18:45Z</time></trkpt><trkpt lat="40.90274080057044" lon="8.915964233687285"><ele>229.2</ele><time>2026-04-04T15:18:46Z</time></trkpt><trkpt lat="40.902751379220696" lon="8.915828842195399"><ele>228.0</ele><time>2026-04-04T15:18:47Z</time></trkpt><trkpt lat="40.90279174844193" lon="8.91570508755614"><ele>228.0</ele><time>2026-04-04T15:18:48Z</time></trkpt><trkpt lat="40.90288209487172" lon="8.915619513669093"><ele>228.0</ele><time>2026-04-04T15:18:49Z</time></trkpt><trkpt lat="40.902993069529856" lon="8.915567817661415"><ele>228.0</ele><time>2026-04-04T15:18:50Z</time></trkpt><trkpt lat="40.903086714622304" lon="8.915511574464755"><ele>228.0</ele><time>2026-04-04T15:18:51Z</time></trkpt><trkpt lat="40.90313829558853" lon="8.91542836995303"><ele>228.0</ele><time>2026-04-04T15:18:52Z</time></trkpt><trkpt lat="40.90313110255813" lon="8.91531634516379"><ele>228.0</ele><time>2026-04-04T15:18:53Z</time></trkpt><trkpt lat="40.90306177424151" lon="8.915232259021659"><ele>228.0</ele><time>2026-04-04T15:18:54Z</time></trkpt><trkpt lat="40.90298254091955" lon="8.915214506659954"><ele>228.0</ele><time>2026-04-04T15:18:55Z</time></trkpt><trkpt lat="40.90289134141089" lon="8.915265289975476"><ele>228.0</ele><time>2026-04-04T15:18:56Z</time></trkpt><trkpt lat="40.902808806455624" lon="8.91537326463042"><ele>228.0</ele><time>2026-04-04T15:18:57Z</time></trkpt><trkpt lat="40.90273666092284" lon="8.915463426649497"><ele>228.0</ele><time>2026-04-04T15:18:58Z</time></trkpt><trkpt lat="40.90266792714583" lon="8.915539139743673"><ele>228.0</ele><time>2026-04-04T15:18:59Z</time></trkpt><trkpt lat="40.90260549069501" lon="8.9156166175202"><ele>228.0</ele><time>2026-04-04T15:19:00Z</time></trkpt><trkpt lat="40.90254261789672" lon="8.915696666973218"><ele>228.0</ele><time>2026-04-04T15:19:01Z</time></trkpt><trkpt lat="40.90249164815412" lon="8.91578443960431"><ele>228.0</ele><time>2026-04-04T15:19:02Z</time></trkpt><trkpt lat="40.90244724104427" lon="8.915870805794718"><ele>228.0</ele><time>2026-04-04T15:19:03Z</time></trkpt><trkpt lat="40.902399643485225" lon="8.915952088326499"><ele>225.4</ele><time>2026-04-04T15:19:04Z</time></trkpt><trkpt lat="40.90235334519641" lon="8.916024352401024"><ele>222.8</ele><time>2026-04-04T15:19:05Z</time></trkpt><trkpt lat="40.90230587887402" lon="8.916090662399625"><ele>220.2</ele><time>2026-04-04T15:19:06Z</time></trkpt><trkpt lat="40.90226403724367" lon="8.916158982072787"><ele>217.6</ele><time>2026-04-04T15:19:07Z</time></trkpt><trkpt lat="40.90218862859092" lon="8.916274572490517"><ele>215.0</ele><time>2026-04-04T15:19:09Z</time></trkpt><trkpt lat="40.90209890593388" lon="8.916396314684443"><ele>215.00000000000003</ele><time>2026-04-04T15:19:11Z</time></trkpt><trkpt lat="40.90203798147765" lon="8.916443889175447"><ele>215.0</ele><time>2026-04-04T15:19:12Z</time></trkpt><trkpt lat="40.901964515778324" lon="8.9164712694522"><ele>215.0</ele><time>2026-04-04T15:19:13Z</time></trkpt><trkpt lat="40.90187852940334" lon="8.916477809035497"><ele>215.0</ele><time>2026-04-04T15:19:14Z</time></trkpt><trkpt lat="40.90178780992359" lon="8.916459528861795"><ele>215.00000000000003</ele><time>2026-04-04T15:19:15Z</time></trkpt><trkpt lat="40.901697143028045" lon="8.91641825647322"><ele>215.0</ele><time>2026-04-04T15:19:16Z</time></trkpt><trkpt lat="40.901610034438754" lon="8.916352415742141"><ele>212.0</ele><time>2026-04-04T15:19:17Z</time></trkpt><trkpt lat="40.90152138680417" lon="8.916287160210999"><ele>209.0</ele><time>2026-04-04T15:19:18Z</time></trkpt><trkpt lat="40.901432809525716" lon="8.916235901144569"><ele>206.0</ele><time>2026-04-04T15:19:19Z</time></trkpt><trkpt lat="40.901342054561276" lon="8.916185673645158"><ele>203.0</ele><time>2026-04-04T15:19:20Z</time></trkpt><trkpt lat="40.9012540381083" lon="8.916138786091416"><ele>200.0</ele><time>2026-04-04T15:19:21Z</time></trkpt><trkpt lat="40.9011703168628" lon="8.91609039415606"><ele>200.00000000000003</ele><time>2026-04-04T15:19:22Z</time></trkpt><trkpt lat="40.901097274624995" lon="8.916027905753259"><ele>200.0</ele><time>2026-04-04T15:19:23Z</time></trkpt><trkpt lat="40.90104840714932" lon="8.915933484913607"><ele>200.0</ele><time>2026-04-04T15:19:24Z</time></trkpt><trkpt lat="40.90106113602207" lon="8.915797493914623"><ele>200.0</ele><time>2026-04-04T15:19:25Z</time></trkpt><trkpt lat="40.9011026568299" lon="8.915696717697466"><ele>200.00000000000003</ele><time>2026-04-04T15:19:26Z</time></trkpt><trkpt lat="40.90116464476227" lon="8.915623982611901"><ele>200.0</ele><time>2026-04-04T15:19:27Z</time></trkpt><trkpt lat="40.90124504688906" lon="8.91559062913173"><ele>197.33333333333334</ele><time>2026-04-04T15:19:28Z</time></trkpt><trkpt lat="40.90132593858753" lon="8.915574262031257"><ele>194.66666666666669</ele><time>2026-04-04T15:19:29.001Z</time></trkpt><trkpt lat="40.901404997690705" lon="8.915551327290537"><ele>192.0</ele><time>2026-04-04T15:19:30.001Z</time></trkpt><trkpt lat="40.901477240413755" lon="8.915506541896644"><ele>189.33333333333334</ele><time>2026-04-04T15:19:31.001Z</time></trkpt><trkpt lat="40.901539350749566" lon="8.91543937092055"><ele>186.66666666666669</ele><time>2026-04-04T15:19:32.001Z</time></trkpt><trkpt lat="40.90158657045065" lon="8.915348658629838"><ele>184.0</ele><time>2026-04-04T15:19:33.001Z</time></trkpt><trkpt lat="40.901613974711665" lon="8.915239805182074"><ele>184.0</ele><time>2026-04-04T15:19:34.001Z</time></trkpt><trkpt lat="40.90163010658642" lon="8.915123149771564"><ele>184.0</ele><time>2026-04-04T15:19:35.001Z</time></trkpt><trkpt lat="40.90165117572181" lon="8.915003805931141"><ele>184.0</ele><time>2026-04-04T15:19:36.001Z</time></trkpt><trkpt lat="40.90164688969815" lon="8.914881136608217"><ele>184.0</ele><time>2026-04-04T15:19:37.001Z</time></trkpt><trkpt lat="40.901624555711436" lon="8.914759949337736"><ele>184.0</ele><time>2026-04-04T15:19:38.001Z</time></trkpt><trkpt lat="40.90160202321289" lon="8.914636551565158"><ele>182.2</ele><time>2026-04-04T15:19:39.001Z</time></trkpt><trkpt lat="40.901580621412656" lon="8.914510652039054"><ele>180.39999999999998</ele><time>2026-04-04T15:19:40.001Z</time></trkpt><trkpt lat="40.90156502436945" lon="8.91438113780999"><ele>178.6</ele><time>2026-04-04T15:19:41.001Z</time></trkpt><trkpt lat="40.90156109057927" lon="8.914250987937994"><ele>176.8</ele><time>2026-04-04T15:19:42.001Z</time></trkpt><trkpt lat="40.90156782605096" lon="8.914119420095687"><ele>175.0</ele><time>2026-04-04T15:19:43.001Z</time></trkpt><trkpt lat="40.90158005067168" lon="8.913987977110649"><ele>174.0</ele><time>2026-04-04T15:19:44.001Z</time></trkpt><trkpt lat="40.90158570968842" lon="8.913856387080754"><ele>173.0</ele><time>2026-04-04T15:19:45.001Z</time></trkpt><trkpt lat="40.901588774670984" lon="8.913727932445608"><ele>172.0</ele><time>2026-04-04T15:19:46.001Z</time></trkpt><trkpt lat="40.901590865182705" lon="8.913599258943297"><ele>171.0</ele><time>2026-04-04T15:19:47.001Z</time></trkpt><trkpt lat="40.90159879860973" lon="8.913469667736294"><ele>170.0</ele><time>2026-04-04T15:19:48.001Z</time></trkpt><trkpt lat="40.90162167251653" lon="8.913345035544483"><ele>168.8</ele><time>2026-04-04T15:19:49.001Z</time></trkpt><trkpt lat="40.9016654188287" lon="8.913228436590448"><ele>167.6</ele><time>2026-04-04T15:19:50.001Z</time></trkpt><trkpt lat="40.90171535080515" lon="8.91311700436695"><ele>166.39999999999998</ele><time>2026-04-04T15:19:51.001Z</time></trkpt><trkpt lat="40.90176679919213" lon="8.913004732083062"><ele>165.2</ele><time>2026-04-04T15:19:52.001Z</time></trkpt><trkpt lat="40.90182575429337" lon="8.912899595454665"><ele>164.0</ele><time>2026-04-04T15:19:53.001Z</time></trkpt><trkpt lat="40.90189165839916" lon="8.912800050812843"><ele>164.0</ele><time>2026-04-04T15:19:54.001Z</time></trkpt><trkpt lat="40.90195721043159" lon="8.912699262021272"><ele>164.0</ele><time>2026-04-04T15:19:55.001Z</time></trkpt><trkpt lat="40.90202266439583" lon="8.912595510711332"><ele>164.0</ele><time>2026-04-04T15:19:56.001Z</time></trkpt><trkpt lat="40.90208663164617" lon="8.912491836504135"><ele>164.0</ele><time>2026-04-04T15:19:57.001Z</time></trkpt><trkpt lat="40.90215135201628" lon="8.912385332550981"><ele>164.0</ele><time>2026-04-04T15:19:58.001Z</time></trkpt><trkpt lat="40.90221725771677" lon="8.91227912919742"><ele>161.2</ele><time>2026-04-04T15:19:59.001Z</time></trkpt><trkpt lat="40.9022802644734" lon="8.912168443003633"><ele>158.39999999999998</ele><time>2026-04-04T15:20:00.001Z</time></trkpt><trkpt lat="40.90234337107084" lon="8.912056584542862"><ele>155.6</ele><time>2026-04-04T15:20:01.001Z</time></trkpt><trkpt lat="40.90241035793713" lon="8.91194883212351"><ele>152.8</ele><time>2026-04-04T15:20:02.001Z</time></trkpt><trkpt lat="40.90247762394109" lon="8.911846174581942"><ele>150.0</ele><time>2026-04-04T15:20:03.001Z</time></trkpt><trkpt lat="40.902542703569075" lon="8.911750943892438"><ele>147.8</ele><time>2026-04-04T15:20:04.001Z</time></trkpt><trkpt lat="40.9026107120396" lon="8.911666678131217"><ele>145.6</ele><time>2026-04-04T15:20:05.001Z</time></trkpt><trkpt lat="40.90267520604754" lon="8.91157999417504"><ele>143.4</ele><time>2026-04-04T15:20:06.001Z</time></trkpt><trkpt lat="40.90273650824969" lon="8.911489413673106"><ele>141.2</ele><time>2026-04-04T15:20:07.001Z</time></trkpt><trkpt lat="40.902791640579004" lon="8.911394925897548"><ele>139.0</ele><time>2026-04-04T15:20:08.001Z</time></trkpt><trkpt lat="40.902841279045674" lon="8.91129846982437"><ele>139.0</ele><time>2026-04-04T15:20:09.001Z</time></trkpt><trkpt lat="40.90288357691686" lon="8.911194807490624"><ele>139.0</ele><time>2026-04-04T15:20:10.001Z</time></trkpt><trkpt lat="40.9029157682342" lon="8.911086597827566"><ele>139.0</ele><time>2026-04-04T15:20:11.001Z</time></trkpt><trkpt lat="40.90293524162761" lon="8.910971202929723"><ele>139.0</ele><time>2026-04-04T15:20:12.001Z</time></trkpt><trkpt lat="40.90294649075162" lon="8.91085432855279"><ele>139.0</ele><time>2026-04-04T15:20:13.001Z</time></trkpt><trkpt lat="40.90294914114181" lon="8.910737923243225"><ele>139.0</ele><time>2026-04-04T15:20:14.001Z</time></trkpt><trkpt lat="40.902948958508226" lon="8.910620157596496"><ele>139.5</ele><time>2026-04-04T15:20:15.001Z</time></trkpt><trkpt lat="40.902953009930286" lon="8.91050326963436"><ele>140.0</ele><time>2026-04-04T15:20:16.001Z</time></trkpt><trkpt lat="40.90297335278314" lon="8.910388730820866"><ele>140.5</ele><time>2026-04-04T15:20:17.001Z</time></trkpt><trkpt lat="40.90301217766215" lon="8.910282116386314"><ele>141.0</ele><time>2026-04-04T15:20:18.001Z</time></trkpt><trkpt lat="40.903061310436044" lon="8.910185220345493"><ele>141.5</ele><time>2026-04-04T15:20:19.001Z</time></trkpt><trkpt lat="40.903112816020446" lon="8.910090370701653"><ele>142.0</ele><time>2026-04-04T15:20:20.001Z</time></trkpt><trkpt lat="40.903168783639074" lon="8.909996083723374"><ele>142.0</ele><time>2026-04-04T15:20:21.001Z</time></trkpt><trkpt lat="40.90322687681779" lon="8.909901524512232"><ele>142.0</ele><time>2026-04-04T15:20:22Z</time></trkpt><trkpt lat="40.903285634655006" lon="8.90980580614735"><ele>142.0</ele><time>2026-04-04T15:20:23Z</time></trkpt><trkpt lat="40.903340597002746" lon="8.909709491795061"><ele>142.0</ele><time>2026-04-04T15:20:24Z</time></trkpt><trkpt lat="40.90339666394357" lon="8.90961191415665"><ele>142.0</ele><time>2026-04-04T15:20:25Z</time></trkpt><trkpt lat="40.903454782111325" lon="8.909514532143723"><ele>140.6</ele><time>2026-04-04T15:20:26Z</time></trkpt><trkpt lat="40.903512396421256" lon="8.90941725561854"><ele>139.2</ele><time>2026-04-04T15:20:27Z</time></trkpt><trkpt lat="40.90357107806088" lon="8.90932082224355"><ele>137.8</ele><time>2026-04-04T15:20:28Z</time></trkpt><trkpt lat="40.903631294415696" lon="8.909223881885344"><ele>136.4</ele><time>2026-04-04T15:20:29Z</time></trkpt><trkpt lat="40.90368980632681" lon="8.909127779908411"><ele>135.0</ele><time>2026-04-04T15:20:30Z</time></trkpt><trkpt lat="40.903745677965404" lon="8.909032399169238"><ele>135.0</ele><time>2026-04-04T15:20:31Z</time></trkpt><trkpt lat="40.90379372751535" lon="8.908933877477223"><ele>135.0</ele><time>2026-04-04T15:20:32Z</time></trkpt><trkpt lat="40.903822459424" lon="8.90882261371914"><ele>135.0</ele><time>2026-04-04T15:20:33Z</time></trkpt><trkpt lat="40.90382836379267" lon="8.90870966020189"><ele>135.0</ele><time>2026-04-04T15:20:34Z</time></trkpt><trkpt lat="40.903813389974836" lon="8.908596814628229"><ele>135.0</ele><time>2026-04-04T15:20:35Z</time></trkpt><trkpt lat="40.90377020457326" lon="8.908493915346542"><ele>135.0</ele><time>2026-04-04T15:20:36Z</time></trkpt><trkpt lat="40.9037110411742" lon="8.908405532295811"><ele>134.2</ele><time>2026-04-04T15:20:37Z</time></trkpt><trkpt lat="40.90363922897794" lon="8.90832414782045"><ele>133.4</ele><time>2026-04-04T15:20:38Z</time></trkpt><trkpt lat="40.903564129378736" lon="8.908242186253835"><ele>132.6</ele><time>2026-04-04T15:20:39Z</time></trkpt><trkpt lat="40.90349154051749" lon="8.908155435584517"><ele>131.8</ele><time>2026-04-04T15:20:40Z</time></trkpt><trkpt lat="40.90342902907758" lon="8.90805780400148"><ele>131.0</ele><time>2026-04-04T15:20:41Z</time></trkpt><trkpt lat="40.90338207067386" lon="8.907944986950225"><ele>128.2</ele><time>2026-04-04T15:20:42Z</time></trkpt><trkpt lat="40.903357633218185" lon="8.907818340988554"><ele>125.39999999999999</ele><time>2026-04-04T15:20:43Z</time></trkpt><trkpt lat="40.903354459768806" lon="8.907685535074197"><ele>122.6</ele><time>2026-04-04T15:20:44Z</time></trkpt><trkpt lat="40.90336272332429" lon="8.90754889876249"><ele>119.8</ele><time>2026-04-04T15:20:45Z</time></trkpt><trkpt lat="40.90337571882073" lon="8.90741566217654"><ele>117.0</ele><time>2026-04-04T15:20:46Z</time></trkpt><trkpt lat="40.90340723812129" lon="8.907289903247312"><ele>117.0</ele><time>2026-04-04T15:20:47Z</time></trkpt><trkpt lat="40.90346735898284" lon="8.907183965433562"><ele>116.99999999999999</ele><time>2026-04-04T15:20:48Z</time></trkpt><trkpt lat="40.90355490829129" lon="8.907115714781433"><ele>116.99999999999999</ele><time>2026-04-04T15:20:49Z</time></trkpt><trkpt lat="40.90366054732776" lon="8.907078024913854"><ele>117.0</ele><time>2026-04-04T15:20:50Z</time></trkpt><trkpt lat="40.90377530042543" lon="8.90705873206155"><ele>117.0</ele><time>2026-04-04T15:20:51Z</time></trkpt><trkpt lat="40.90389348974665" lon="8.907048170828752"><ele>117.0</ele><time>2026-04-04T15:20:52Z</time></trkpt><trkpt lat="40.904008870386185" lon="8.907022307697737"><ele>117.0</ele><time>2026-04-04T15:20:53Z</time></trkpt><trkpt lat="40.904119765187" lon="8.906961820662845"><ele>117.0</ele><time>2026-04-04T15:20:54Z</time></trkpt><trkpt lat="40.90421579981122" lon="8.906866090486972"><ele>117.0</ele><time>2026-04-04T15:20:55Z</time></trkpt><trkpt lat="40.904294493065706" lon="8.906742242725509"><ele>113.5</ele><time>2026-04-04T15:20:56Z</time></trkpt><trkpt lat="40.90436627873513" lon="8.906611035610657"><ele>110.0</ele><time>2026-04-04T15:20:57Z</time></trkpt><trkpt lat="40.90443488384906" lon="8.906476642909393"><ele>106.5</ele><time>2026-04-04T15:20:58Z</time></trkpt><trkpt lat="40.90449336696267" lon="8.906333835657508"><ele>103.0</ele><time>2026-04-04T15:20:59Z</time></trkpt><trkpt lat="40.90452398212738" lon="8.906176883403262"><ele>103.0</ele><time>2026-04-04T15:21:00Z</time></trkpt><trkpt lat="40.90451723346406" lon="8.906014443220869"><ele>103.0</ele><time>2026-04-04T15:21:01Z</time></trkpt><trkpt lat="40.904495258184284" lon="8.905853722153685"><ele>103.0</ele><time>2026-04-04T15:21:02Z</time></trkpt><trkpt lat="40.90446533949231" lon="8.905692152540405"><ele>103.0</ele><time>2026-04-04T15:21:03Z</time></trkpt><trkpt lat="40.90442943505117" lon="8.905531916977177"><ele>100.0</ele><time>2026-04-04T15:21:04Z</time></trkpt><trkpt lat="40.90439690218312" lon="8.905368516703579"><ele>97.0</ele><time>2026-04-04T15:21:05Z</time></trkpt><trkpt lat="40.90437135531971" lon="8.905190011522146"><ele>94.0</ele><time>2026-04-04T15:21:06Z</time></trkpt><trkpt lat="40.904360947404584" lon="8.90500777307215"><ele>91.0</ele><time>2026-04-04T15:21:07Z</time></trkpt><trkpt lat="40.904359657599606" lon="8.904826384871757"><ele>88.75</ele><time>2026-04-04T15:21:08Z</time></trkpt><trkpt lat="40.90435724099574" lon="8.904645553081158"><ele>86.5</ele><time>2026-04-04T15:21:09Z</time></trkpt><trkpt lat="40.904352554095915" lon="8.904469762259609"><ele>84.25</ele><time>2026-04-04T15:21:10Z</time></trkpt><trkpt lat="40.90434890662833" lon="8.904298298940947"><ele>82.0</ele><time>2026-04-04T15:21:11Z</time></trkpt><trkpt lat="40.90434137352167" lon="8.904135784586268"><ele>82.75</ele><time>2026-04-04T15:21:12Z</time></trkpt><trkpt lat="40.90432091782618" lon="8.90398433435395"><ele>83.5</ele><time>2026-04-04T15:21:13Z</time></trkpt><trkpt lat="40.90428052065631" lon="8.903838808122964"><ele>84.25</ele><time>2026-04-04T15:21:14Z</time></trkpt><trkpt lat="40.904222075723006" lon="8.903706128929555"><ele>85.0</ele><time>2026-04-04T15:21:15Z</time></trkpt><trkpt lat="40.904151777617805" lon="8.903583159121938"><ele>85.0</ele><time>2026-04-04T15:21:16Z</time></trkpt><trkpt lat="40.90407843640004" lon="8.903464664297212"><ele>85.0</ele><time>2026-04-04T15:21:17Z</time></trkpt><trkpt lat="40.90401447529211" lon="8.903341053278309"><ele>85.0</ele><time>2026-04-04T15:21:18Z</time></trkpt><trkpt lat="40.90396592934408" lon="8.903207407673936"><ele>85.0</ele><time>2026-04-04T15:21:19Z</time></trkpt><trkpt lat="40.90393731037111" lon="8.903067586053952"><ele>83.4</ele><time>2026-04-04T15:21:20Z</time></trkpt><trkpt lat="40.903922037246616" lon="8.902924653302525"><ele>81.8</ele><time>2026-04-04T15:21:21Z</time></trkpt><trkpt lat="40.9039237431117" lon="8.902780794647091"><ele>80.2</ele><time>2026-04-04T15:21:22Z</time></trkpt><trkpt lat="40.90394223805204" lon="8.902642098973315"><ele>78.6</ele><time>2026-04-04T15:21:23Z</time></trkpt><trkpt lat="40.9039680929759" lon="8.90250205299007"><ele>77.0</ele><time>2026-04-04T15:21:24Z</time></trkpt><trkpt lat="40.90399482739206" lon="8.902361238368297"><ele>75.6</ele><time>2026-04-04T15:21:25Z</time></trkpt><trkpt lat="40.90401476489868" lon="8.902217845431244"><ele>74.2</ele><time>2026-04-04T15:21:26Z</time></trkpt><trkpt lat="40.90402082126703" lon="8.90207414034226"><ele>72.8</ele><time>2026-04-04T15:21:27Z</time></trkpt><trkpt lat="40.90401445041547" lon="8.901928033173636"><ele>71.4</ele><time>2026-04-04T15:21:28Z</time></trkpt><trkpt lat="40.90400253971108" lon="8.901784956046546"><ele>70.0</ele><time>2026-04-04T15:21:29Z</time></trkpt><trkpt lat="40.90399469435885" lon="8.901643963981032"><ele>68.66666666666666</ele><time>2026-04-04T15:21:30Z</time></trkpt><trkpt lat="40.90399342817847" lon="8.901512619845105"><ele>67.33333333333333</ele><time>2026-04-04T15:21:31Z</time></trkpt><trkpt lat="40.90401215231292" lon="8.90139399442632"><ele>66.0</ele><time>2026-04-04T15:21:32Z</time></trkpt><trkpt lat="40.90406155178368" lon="8.901310309527105"><ele>64.66666666666667</ele><time>2026-04-04T15:21:33.001Z</time></trkpt><trkpt lat="40.904140330311456" lon="8.901271919112741"><ele>63.333333333333336</ele><time>2026-04-04T15:21:34.001Z</time></trkpt><trkpt lat="40.90422420271068" lon="8.901310367080189"><ele>62.0</ele><time>2026-04-04T15:21:35.001Z</time></trkpt><trkpt lat="40.90429289897312" lon="8.90139941274297"><ele>61.6</ele><time>2026-04-04T15:21:36.001Z</time></trkpt><trkpt lat="40.904326440581805" lon="8.901522352729675"><ele>61.2</ele><time>2026-04-04T15:21:37.001Z</time></trkpt><trkpt lat="40.90434019541201" lon="8.901649382522509"><ele>60.8</ele><time>2026-04-04T15:21:38.001Z</time></trkpt><trkpt lat="40.90435576487502" lon="8.901769907839782"><ele>60.4</ele><time>2026-04-04T15:21:39.001Z</time></trkpt><trkpt lat="40.90438235806191" lon="8.901886525468228"><ele>60.0</ele><time>2026-04-04T15:21:40.001Z</time></trkpt><trkpt lat="40.90440908679061" lon="8.902001058183071"><ele>60.0</ele><time>2026-04-04T15:21:41.001Z</time></trkpt><trkpt lat="40.9044324120109" lon="8.902108495199624"><ele>60.0</ele><time>2026-04-04T15:21:42.001Z</time></trkpt><trkpt lat="40.90445257421218" lon="8.902213439475613"><ele>60.0</ele><time>2026-04-04T15:21:43.001Z</time></trkpt><trkpt lat="40.90447942112989" lon="8.902311719664112"><ele>60.0</ele><time>2026-04-04T15:21:44.001Z</time></trkpt><trkpt lat="40.904536595720266" lon="8.90238025117383"><ele>60.0</ele><time>2026-04-04T15:21:45.001Z</time></trkpt><trkpt lat="40.90460989179147" lon="8.90240734951302"><ele>60.0</ele><time>2026-04-04T15:21:46.001Z</time></trkpt><trkpt lat="40.90468538456067" lon="8.902371056656596"><ele>60.0</ele><time>2026-04-04T15:21:47.001Z</time></trkpt><trkpt lat="40.904750383460446" lon="8.902287352026972"><ele>60.0</ele><time>2026-04-04T15:21:48.001Z</time></trkpt><trkpt lat="40.90478951747762" lon="8.902164295703951"><ele>60.0</ele><time>2026-04-04T15:21:49.001Z</time></trkpt><trkpt lat="40.90480842443126" lon="8.902035845168095"><ele>60.0</ele><time>2026-04-04T15:21:50.001Z</time></trkpt><trkpt lat="40.904825977142956" lon="8.901909879462336"><ele>60.0</ele><time>2026-04-04T15:21:51.001Z</time></trkpt><trkpt lat="40.904844947508465" lon="8.901786159469456"><ele>58.4</ele><time>2026-04-04T15:21:52.001Z</time></trkpt><trkpt lat="40.90486555772709" lon="8.901666163162428"><ele>56.8</ele><time>2026-04-04T15:21:53.001Z</time></trkpt><trkpt lat="40.904885575107" lon="8.901543766180394"><ele>55.2</ele><time>2026-04-04T15:21:54.001Z</time></trkpt><trkpt lat="40.90490622757266" lon="8.901407200315562"><ele>53.6</ele><time>2026-04-04T15:21:55.001Z</time></trkpt><trkpt lat="40.90492574466548" lon="8.901271117996044"><ele>52.0</ele><time>2026-04-04T15:21:56.001Z</time></trkpt><trkpt lat="40.90494139849789" lon="8.901140075408001"><ele>52.0</ele><time>2026-04-04T15:21:57.001Z</time></trkpt><trkpt lat="40.904934682644736" lon="8.901009441033901"><ele>52.0</ele><time>2026-04-04T15:21:58.001Z</time></trkpt><trkpt lat="40.90491327479283" lon="8.900883503648"><ele>52.0</ele><time>2026-04-04T15:21:59.001Z</time></trkpt><trkpt lat="40.90488149063149" lon="8.900757060519219"><ele>52.0</ele><time>2026-04-04T15:22:00.001Z</time></trkpt><trkpt lat="40.904840607857345" lon="8.900634472592431"><ele>52.0</ele><time>2026-04-04T15:22:01.001Z</time></trkpt><trkpt lat="40.90480365395963" lon="8.900514760529603"><ele>51.8</ele><time>2026-04-04T15:22:02.001Z</time></trkpt><trkpt lat="40.90477306692639" lon="8.900406524459859"><ele>51.6</ele><time>2026-04-04T15:22:03.001Z</time></trkpt><trkpt lat="40.90475039052332" lon="8.900307022054326"><ele>51.4</ele><time>2026-04-04T15:22:04.001Z</time></trkpt><trkpt lat="40.90474105380764" lon="8.900217307916508"><ele>51.199999999999996</ele><time>2026-04-04T15:22:05.001Z</time></trkpt><trkpt lat="40.90473669572003" lon="8.900054355731234"><ele>51.0</ele><time>2026-04-04T15:22:07.001Z</time></trkpt><trkpt lat="40.904732102988675" lon="8.899894626154715"><ele>51.5</ele><time>2026-04-04T15:22:09.001Z</time></trkpt><trkpt lat="40.9047376768563" lon="8.899808736254256"><ele>52.0</ele><time>2026-04-04T15:22:10.001Z</time></trkpt><trkpt lat="40.90474357800797" lon="8.899721783059405"><ele>52.5</ele><time>2026-04-04T15:22:11.001Z</time></trkpt><trkpt lat="40.90475693000296" lon="8.899625647472554"><ele>53.0</ele><time>2026-04-04T15:22:12.001Z</time></trkpt><trkpt lat="40.90477915597669" lon="8.899521484991066"><ele>53.5</ele><time>2026-04-04T15:22:13.001Z</time></trkpt><trkpt lat="40.904804040424715" lon="8.89941121621504"><ele>54.0</ele><time>2026-04-04T15:22:14.001Z</time></trkpt><trkpt lat="40.90483017475809" lon="8.899294387941131"><ele>53.800000000000004</ele><time>2026-04-04T15:22:15.001Z</time></trkpt><trkpt lat="40.90485958638777" lon="8.899174824499346"><ele>53.60000000000001</ele><time>2026-04-04T15:22:16.001Z</time></trkpt><trkpt lat="40.904893050806606" lon="8.899050156821518"><ele>53.4</ele><time>2026-04-04T15:22:17.001Z</time></trkpt><trkpt lat="40.904928110215394" lon="8.898920375985131"><ele>53.2</ele><time>2026-04-04T15:22:18.001Z</time></trkpt><trkpt lat="40.90496493473311" lon="8.898783537034072"><ele>53.0</ele><time>2026-04-04T15:22:19.001Z</time></trkpt><trkpt lat="40.90500102206436" lon="8.898641851079418"><ele>53.0</ele><time>2026-04-04T15:22:20.001Z</time></trkpt><trkpt lat="40.90502921973805" lon="8.89849039629196"><ele>53.0</ele><time>2026-04-04T15:22:21.001Z</time></trkpt><trkpt lat="40.90504482261252" lon="8.898337620118848"><ele>53.0</ele><time>2026-04-04T15:22:22.001Z</time></trkpt><trkpt lat="40.90505168512197" lon="8.898185025123842"><ele>53.0</ele><time>2026-04-04T15:22:23.001Z</time></trkpt><trkpt lat="40.90505848041343" lon="8.898031296609307"><ele>51.75</ele><time>2026-04-04T15:22:24.001Z</time></trkpt><trkpt lat="40.9050711837622" lon="8.897878563982033"><ele>50.5</ele><time>2026-04-04T15:22:25.001Z</time></trkpt><trkpt lat="40.90509939969626" lon="8.897729982748432"><ele>49.25</ele><time>2026-04-04T15:22:26.001Z</time></trkpt><trkpt lat="40.90515268248269" lon="8.897594302843041"><ele>48.0</ele><time>2026-04-04T15:22:27.001Z</time></trkpt><trkpt lat="40.90523849356241" lon="8.897483904929935"><ele>42.75</ele><time>2026-04-04T15:22:28Z</time></trkpt><trkpt lat="40.90532915973815" lon="8.89737854806509"><ele>37.5</ele><time>2026-04-04T15:22:29Z</time></trkpt><trkpt lat="40.905420320062966" lon="8.897269045609724"><ele>32.25</ele><time>2026-04-04T15:22:30Z</time></trkpt><trkpt lat="40.90550963618294" lon="8.897153314996247"><ele>27.0</ele><time>2026-04-04T15:22:31Z</time></trkpt><trkpt lat="40.90559566762737" lon="8.897012916085597"><ele>27.0</ele><time>2026-04-04T15:22:32Z</time></trkpt><trkpt lat="40.905668604809954" lon="8.896856015231922"><ele>27.0</ele><time>2026-04-04T15:22:33Z</time></trkpt><trkpt lat="40.90573700881473" lon="8.896696676884886"><ele>27.0</ele><time>2026-04-04T15:22:34Z</time></trkpt><trkpt lat="40.90580321032906" lon="8.896535841195439"><ele>27.0</ele><time>2026-04-04T15:22:35Z</time></trkpt><trkpt lat="40.905869109385286" lon="8.8963726155217"><ele>23.5</ele><time>2026-04-04T15:22:36Z</time></trkpt><trkpt lat="40.90593819212877" lon="8.89621087329682"><ele>20.0</ele><time>2026-04-04T15:22:37Z</time></trkpt><trkpt lat="40.90601810805233" lon="8.89606019607442"><ele>16.5</ele><time>2026-04-04T15:22:38Z</time></trkpt><trkpt lat="40.90610346702379" lon="8.895922246960172"><ele>13.0</ele><time>2026-04-04T15:22:39Z</time></trkpt><trkpt lat="40.90618883242601" lon="8.895787206096234"><ele>13.0</ele><time>2026-04-04T15:22:40Z</time></trkpt><trkpt lat="40.90626211472569" lon="8.89564968909948"><ele>13.0</ele><time>2026-04-04T15:22:41Z</time></trkpt><trkpt lat="40.90633642360532" lon="8.89550390320534"><ele>13.0</ele><time>2026-04-04T15:22:42Z</time></trkpt><trkpt lat="40.90641049935409" lon="8.89535668885806"><ele>13.0</ele><time>2026-04-04T15:22:43Z</time></trkpt><trkpt lat="40.90647739629367" lon="8.895211421986188"><ele>13.75</ele><time>2026-04-04T15:22:44Z</time></trkpt><trkpt lat="40.906535489011745" lon="8.895068678581405"><ele>14.5</ele><time>2026-04-04T15:22:45Z</time></trkpt><trkpt lat="40.90658707673073" lon="8.894914668873179"><ele>15.25</ele><time>2026-04-04T15:22:46Z</time></trkpt><trkpt lat="40.90664078819797" lon="8.894753198922267"><ele>16.0</ele><time>2026-04-04T15:22:47Z</time></trkpt><trkpt lat="40.90669255472866" lon="8.894586269923487"><ele>16.0</ele><time>2026-04-04T15:22:48Z</time></trkpt><trkpt lat="40.90674173570215" lon="8.894415007085929"><ele>16.0</ele><time>2026-04-04T15:22:49Z</time></trkpt><trkpt lat="40.90679596073669" lon="8.894243648172822"><ele>16.0</ele><time>2026-04-04T15:22:50Z</time></trkpt><trkpt lat="40.90685301750654" lon="8.894070046497493"><ele>16.0</ele><time>2026-04-04T15:22:51Z</time></trkpt><trkpt lat="40.90691358006245" lon="8.893900510071417"><ele>14.75</ele><time>2026-04-04T15:22:52Z</time></trkpt><trkpt lat="40.90698121963493" lon="8.893737378127218"><ele>13.5</ele><time>2026-04-04T15:22:53Z</time></trkpt><trkpt lat="40.90705192279036" lon="8.8935764109576"><ele>12.25</ele><time>2026-04-04T15:22:54Z</time></trkpt><trkpt lat="40.90712288516668" lon="8.893417806669687"><ele>11.0</ele><time>2026-04-04T15:22:55Z</time></trkpt><trkpt lat="40.90719562187309" lon="8.893260286733671"><ele>10.5</ele><time>2026-04-04T15:22:56Z</time></trkpt><trkpt lat="40.90726824193623" lon="8.893102947187476"><ele>10.0</ele><time>2026-04-04T15:22:57Z</time></trkpt><trkpt lat="40.90733831221782" lon="8.892942798302407"><ele>9.5</ele><time>2026-04-04T15:22:58Z</time></trkpt><trkpt lat="40.90740914908482" lon="8.89278615665716"><ele>9.0</ele><time>2026-04-04T15:22:59Z</time></trkpt><trkpt lat="40.90747595742753" lon="8.89262965827521"><ele>8.5</ele><time>2026-04-04T15:23:00Z</time></trkpt><trkpt lat="40.907535225179316" lon="8.892471624733567"><ele>8.0</ele><time>2026-04-04T15:23:01Z</time></trkpt><trkpt lat="40.90757839437379" lon="8.89231368011679"><ele>7.5</ele><time>2026-04-04T15:23:02Z</time></trkpt><trkpt lat="40.907609983774854" lon="8.892152916217348"><ele>7.0</ele><time>2026-04-04T15:23:03Z</time></trkpt><trkpt lat="40.907626813441006" lon="8.891993686333215"><ele>7.0</ele><time>2026-04-04T15:23:04Z</time></trkpt><trkpt lat="40.90764657946892" lon="8.891836258419918"><ele>7.0</ele><time>2026-04-04T15:23:05Z</time></trkpt><trkpt lat="40.90767771021018" lon="8.891692334317334"><ele>7.0</ele><time>2026-04-04T15:23:06Z</time></trkpt><trkpt lat="40.90772752453317" lon="8.891566118518279"><ele>7.0</ele><time>2026-04-04T15:23:07Z</time></trkpt><trkpt lat="40.90779897090689" lon="8.891457081228653"><ele>7.0</ele><time>2026-04-04T15:23:08Z</time></trkpt><trkpt lat="40.90790432467391" lon="8.891382084630191"><ele>7.0</ele><time>2026-04-04T15:23:09Z</time></trkpt><trkpt lat="40.908024243039144" lon="8.891334380493173"><ele>7.0</ele><time>2026-04-04T15:23:10Z</time></trkpt><trkpt lat="40.90814656432351" lon="8.891311268704225"><ele>7.0</ele><time>2026-04-04T15:23:11Z</time></trkpt><trkpt lat="40.90827525053871" lon="8.891297121752316"><ele>7.0</ele><time>2026-04-04T15:23:12Z</time></trkpt><trkpt lat="40.908402455701925" lon="8.89128968854738"><ele>7.0</ele><time>2026-04-04T15:23:13Z</time></trkpt><trkpt lat="40.908526212013825" lon="8.89128204736345"><ele>7.0</ele><time>2026-04-04T15:23:14Z</time></trkpt><trkpt lat="40.90863888331681" lon="8.891260573098645"><ele>7.0</ele><time>2026-04-04T15:23:15Z</time></trkpt><trkpt lat="40.90874624231034" lon="8.891230403944961"><ele>7.0</ele><time>2026-04-04T15:23:16Z</time></trkpt><trkpt lat="40.9088526285799" lon="8.891177851402666"><ele>7.0</ele><time>2026-04-04T15:23:17Z</time></trkpt><trkpt lat="40.90895608714855" lon="8.891090658408976"><ele>7.0</ele><time>2026-04-04T15:23:18Z</time></trkpt><trkpt lat="40.90905340762844" lon="8.890963175394392"><ele>7.0</ele><time>2026-04-04T15:23:19Z</time></trkpt><trkpt lat="40.90914581934895" lon="8.890813113503707"><ele>7.0</ele><time>2026-04-04T15:23:20Z</time></trkpt><trkpt lat="40.90923622481649" lon="8.890639068027111"><ele>7.0</ele><time>2026-04-04T15:23:21Z</time></trkpt><trkpt lat="40.909330784994864" lon="8.890454077824362"><ele>7.0</ele><time>2026-04-04T15:23:22Z</time></trkpt><trkpt lat="40.90942895466743" lon="8.890262199793689"><ele>7.666666666666667</ele><time>2026-04-04T15:23:23Z</time></trkpt><trkpt lat="40.90953103514677" lon="8.890065779075185"><ele>8.333333333333334</ele><time>2026-04-04T15:23:24Z</time></trkpt><trkpt lat="40.909618269185565" lon="8.889888163328596"><ele>9.0</ele><time>2026-04-04T15:23:25Z</time></trkpt><trkpt lat="40.909701395883864" lon="8.889723785090096"><ele>9.0</ele><time>2026-04-04T15:23:26Z</time></trkpt><trkpt lat="40.90977854679805" lon="8.889571937206224"><ele>9.0</ele><time>2026-04-04T15:23:27Z</time></trkpt><trkpt lat="40.909841781425015" lon="8.889445700008318"><ele>9.0</ele><time>2026-04-04T15:23:28Z</time></trkpt><trkpt lat="40.90989111324009" lon="8.88934779289982"><ele>9.0</ele><time>2026-04-04T15:23:29Z</time></trkpt><trkpt lat="40.909942449860374" lon="8.889249448311503"><ele>9.0</ele><time>2026-04-04T15:23:30Z</time></trkpt><trkpt lat="40.909998002653616" lon="8.889168411538797"><ele>9.0</ele><time>2026-04-04T15:23:31Z</time></trkpt><trkpt lat="40.91006644523408" lon="8.88912028747868"><ele>9.0</ele><time>2026-04-04T15:23:32Z</time></trkpt><trkpt lat="40.91013066053554" lon="8.889086530527662"><ele>9.0</ele><time>2026-04-04T15:23:33Z</time></trkpt><trkpt lat="40.910177840867135" lon="8.889030144279188"><ele>9.0</ele><time>2026-04-04T15:23:34Z</time></trkpt><trkpt lat="40.91018805775025" lon="8.88887300515621"><ele>9.0</ele><time>2026-04-04T15:23:36Z</time></trkpt><trkpt lat="40.910138173525766" lon="8.888796479235232"><ele>9.0</ele><time>2026-04-04T15:23:37Z</time></trkpt><trkpt lat="40.9100642829261" lon="8.88873410548626"><ele>9.0</ele><time>2026-04-04T15:23:38Z</time></trkpt><trkpt lat="40.909990442093985" lon="8.888643473304098"><ele>9.0</ele><time>2026-04-04T15:23:39.001Z</time></trkpt><trkpt lat="40.909940694206796" lon="8.888513976107383"><ele>9.0</ele><time>2026-04-04T15:23:40.001Z</time></trkpt><trkpt lat="40.90990786326772" lon="8.888364884370567"><ele>9.0</ele><time>2026-04-04T15:23:41.001Z</time></trkpt><trkpt lat="40.909880393362556" lon="8.888206363159814"><ele>8.25</ele><time>2026-04-04T15:23:42.001Z</time></trkpt><trkpt lat="40.90984623406894" lon="8.888045180359223"><ele>7.5</ele><time>2026-04-04T15:23:43.001Z</time></trkpt><trkpt lat="40.90981410990898" lon="8.887899739924508"><ele>6.75</ele><time>2026-04-04T15:23:44.001Z</time></trkpt><trkpt lat="40.909785398039055" lon="8.887761725208561"><ele>6.0</ele><time>2026-04-04T15:23:45.001Z</time></trkpt><trkpt lat="40.90976051023499" lon="8.887629526619973"><ele>6.166666666666667</ele><time>2026-04-04T15:23:46.001Z</time></trkpt><trkpt lat="40.90973474063466" lon="8.887508782006742"><ele>6.333333333333334</ele><time>2026-04-04T15:23:47.001Z</time></trkpt><trkpt lat="40.909707222556" lon="8.887397039471681"><ele>6.5</ele><time>2026-04-04T15:23:48.001Z</time></trkpt><trkpt lat="40.909681224898534" lon="8.887287385569673"><ele>6.666666666666667</ele><time>2026-04-04T15:23:49.001Z</time></trkpt><trkpt lat="40.90965887405671" lon="8.887179081026321"><ele>6.833333333333334</ele><time>2026-04-04T15:23:50.001Z</time></trkpt><trkpt lat="40.90963544738818" lon="8.887073240782671"><ele>7.0</ele><time>2026-04-04T15:23:51.001Z</time></trkpt><trkpt lat="40.90961065793245" lon="8.88696356969796"><ele>7.0</ele><time>2026-04-04T15:23:52.001Z</time></trkpt><trkpt lat="40.909583957729225" lon="8.88684441938929"><ele>6.999999999999999</ele><time>2026-04-04T15:23:53.001Z</time></trkpt><trkpt lat="40.9095582615734" lon="8.886721873211291"><ele>6.999999999999999</ele><time>2026-04-04T15:23:54.001Z</time></trkpt><trkpt lat="40.90953484718405" lon="8.886602880765826"><ele>7.0</ele><time>2026-04-04T15:23:55.001Z</time></trkpt><trkpt lat="40.90950772098152" lon="8.886481586450355"><ele>7.0</ele><time>2026-04-04T15:23:56.001Z</time></trkpt><trkpt lat="40.90948195190916" lon="8.886365799983745"><ele>7.0</ele><time>2026-04-04T15:23:57.001Z</time></trkpt><trkpt lat="40.9094597297101" lon="8.886262089123722"><ele>6.999999999999999</ele><time>2026-04-04T15:23:58.001Z</time></trkpt><trkpt lat="40.90943297401243" lon="8.886147512782484"><ele>6.999999999999999</ele><time>2026-04-04T15:23:59.001Z</time></trkpt><trkpt lat="40.90940630875367" lon="8.886023804005069"><ele>7.0</ele><time>2026-04-04T15:24:00.001Z</time></trkpt><trkpt lat="40.90937790402575" lon="8.885894499407827"><ele>7.0</ele><time>2026-04-04T15:24:01.001Z</time></trkpt><trkpt lat="40.90934874229886" lon="8.88576102752929"><ele>7.0</ele><time>2026-04-04T15:24:02.001Z</time></trkpt><trkpt lat="40.9093264399062" lon="8.885623763723936"><ele>6.999999999999999</ele><time>2026-04-04T15:24:03.001Z</time></trkpt><trkpt lat="40.909314992605836" lon="8.885479547563166"><ele>6.999999999999999</ele><time>2026-04-04T15:24:04.001Z</time></trkpt><trkpt lat="40.90931280196741" lon="8.885331539771439"><ele>7.0</ele><time>2026-04-04T15:24:05.001Z</time></trkpt><trkpt lat="40.90931909851979" lon="8.885183296404747"><ele>7.0</ele><time>2026-04-04T15:24:06.001Z</time></trkpt><trkpt lat="40.90932888171095" lon="8.885027925779438"><ele>7.25</ele><time>2026-04-04T15:24:07.001Z</time></trkpt><trkpt lat="40.90934765892412" lon="8.884869282199498"><ele>7.5</ele><time>2026-04-04T15:24:08.001Z</time></trkpt><trkpt lat="40.90937715909509" lon="8.8847111433943"><ele>7.75</ele><time>2026-04-04T15:24:09.001Z</time></trkpt><trkpt lat="40.90941106340855" lon="8.884551354936248"><ele>8.0</ele><time>2026-04-04T15:24:10.001Z</time></trkpt><trkpt lat="40.90943854367768" lon="8.884386372023572"><ele>9.0</ele><time>2026-04-04T15:24:11.001Z</time></trkpt><trkpt lat="40.909464895146606" lon="8.884218521662358"><ele>10.0</ele><time>2026-04-04T15:24:12.001Z</time></trkpt><trkpt lat="40.90949446826987" lon="8.884047456038484"><ele>11.0</ele><time>2026-04-04T15:24:13.001Z</time></trkpt><trkpt lat="40.90952415303475" lon="8.88387786433822"><ele>12.0</ele><time>2026-04-04T15:24:14.001Z</time></trkpt><trkpt lat="40.90955588120202" lon="8.883699988209854"><ele>12.0</ele><time>2026-04-04T15:24:15.001Z</time></trkpt><trkpt lat="40.90957445200305" lon="8.883529587282482"><ele>12.0</ele><time>2026-04-04T15:24:16.001Z</time></trkpt><trkpt lat="40.90957760823236" lon="8.883349540463183"><ele>12.0</ele><time>2026-04-04T15:24:17.001Z</time></trkpt><trkpt lat="40.909572895455554" lon="8.883167678801547"><ele>12.0</ele><time>2026-04-04T15:24:18.001Z</time></trkpt><trkpt lat="40.909562522027855" lon="8.882988692072892"><ele>12.0</ele><time>2026-04-04T15:24:19.001Z</time></trkpt><trkpt lat="40.90954800765166" lon="8.882809599241275"><ele>12.0</ele><time>2026-04-04T15:24:20.001Z</time></trkpt><trkpt lat="40.909531337608946" lon="8.882628992920404"><ele>12.0</ele><time>2026-04-04T15:24:21.001Z</time></trkpt><trkpt lat="40.90951592149495" lon="8.882447886459166"><ele>12.0</ele><time>2026-04-04T15:24:22.001Z</time></trkpt><trkpt lat="40.90950011144853" lon="8.882266930582306"><ele>11.5</ele><time>2026-04-04T15:24:23.001Z</time></trkpt><trkpt lat="40.909484419785024" lon="8.882087136112556"><ele>11.0</ele><time>2026-04-04T15:24:24.001Z</time></trkpt><trkpt lat="40.90947141013573" lon="8.881908367383708"><ele>10.5</ele><time>2026-04-04T15:24:25.001Z</time></trkpt><trkpt lat="40.909458448347905" lon="8.881732638198246"><ele>10.0</ele><time>2026-04-04T15:24:26.001Z</time></trkpt><trkpt lat="40.90944326434951" lon="8.881560723492331"><ele>9.5</ele><time>2026-04-04T15:24:27.001Z</time></trkpt><trkpt lat="40.90942811733963" lon="8.881390002062641"><ele>9.0</ele><time>2026-04-04T15:24:28.001Z</time></trkpt><trkpt lat="40.90940702821036" lon="8.881223648896349"><ele>8.5</ele><time>2026-04-04T15:24:29.001Z</time></trkpt><trkpt lat="40.909374611181214" lon="8.881059772742043"><ele>8.0</ele><time>2026-04-04T15:24:30.001Z</time></trkpt><trkpt lat="40.90931909201157" lon="8.880907216701363"><ele>8.0</ele><time>2026-04-04T15:24:31.001Z</time></trkpt><trkpt lat="40.90924501174376" lon="8.880761842402038"><ele>8.0</ele><time>2026-04-04T15:24:32.001Z</time></trkpt><trkpt lat="40.9091623823356" lon="8.880619916781916"><ele>8.0</ele><time>2026-04-04T15:24:33.001Z</time></trkpt><trkpt lat="40.90907648524171" lon="8.880475238044259"><ele>8.0</ele><time>2026-04-04T15:24:34Z</time></trkpt><trkpt lat="40.90899042414309" lon="8.880325423427067"><ele>7.75</ele><time>2026-04-04T15:24:35Z</time></trkpt><trkpt lat="40.90890144834109" lon="8.880176282797416"><ele>7.5</ele><time>2026-04-04T15:24:36Z</time></trkpt><trkpt lat="40.908813740295486" lon="8.880024923264536"><ele>7.25</ele><time>2026-04-04T15:24:37Z</time></trkpt><trkpt lat="40.90872525432227" lon="8.879875594839518"><ele>7.0</ele><time>2026-04-04T15:24:38Z</time></trkpt><trkpt lat="40.90864230982133" lon="8.879721654146389"><ele>7.0</ele><time>2026-04-04T15:24:39Z</time></trkpt><trkpt lat="40.90857494938767" lon="8.879561539672316"><ele>7.0</ele><time>2026-04-04T15:24:40Z</time></trkpt><trkpt lat="40.90851861954513" lon="8.879403245581505"><ele>7.0</ele><time>2026-04-04T15:24:41Z</time></trkpt><trkpt lat="40.908465594662474" lon="8.879249217371191"><ele>7.0</ele><time>2026-04-04T15:24:42Z</time></trkpt><trkpt lat="40.908411857141154" lon="8.87910000194427"><ele>7.25</ele><time>2026-04-04T15:24:43Z</time></trkpt><trkpt lat="40.90836185578672" lon="8.878961510037774"><ele>7.5</ele><time>2026-04-04T15:24:44Z</time></trkpt><trkpt lat="40.90831285701534" lon="8.878829823987688"><ele>7.75</ele><time>2026-04-04T15:24:45Z</time></trkpt><trkpt lat="40.908270854648705" lon="8.878694090353829"><ele>8.0</ele><time>2026-04-04T15:24:46Z</time></trkpt><trkpt lat="40.908243724327605" lon="8.87854449921909"><ele>7.800000000000001</ele><time>2026-04-04T15:24:47Z</time></trkpt><trkpt lat="40.90822638476957" lon="8.878384019763088"><ele>7.6000000000000005</ele><time>2026-04-04T15:24:48Z</time></trkpt><trkpt lat="40.90820286540942" lon="8.878232924422964"><ele>7.3999999999999995</ele><time>2026-04-04T15:24:49Z</time></trkpt><trkpt lat="40.9081750555565" lon="8.878093807334116"><ele>7.199999999999999</ele><time>2026-04-04T15:24:50Z</time></trkpt><trkpt lat="40.90814513542932" lon="8.877967155453547"><ele>7.0</ele><time>2026-04-04T15:24:51Z</time></trkpt><trkpt lat="40.908135178649054" lon="8.877841668128015"><ele>7.000000000000001</ele><time>2026-04-04T15:24:52Z</time></trkpt><trkpt lat="40.908153881293586" lon="8.877717608208515"><ele>7.0</ele><time>2026-04-04T15:24:53Z</time></trkpt><trkpt lat="40.908174860743905" lon="8.87760241909719"><ele>7.0</ele><time>2026-04-04T15:24:54Z</time></trkpt><trkpt lat="40.90816899964488" lon="8.877499947297316"><ele>7.0</ele><time>2026-04-04T15:24:55Z</time></trkpt><trkpt lat="40.908136359145956" lon="8.877408349591095"><ele>7.000000000000001</ele><time>2026-04-04T15:24:56Z</time></trkpt><trkpt lat="40.90808033423627" lon="8.877342957413381"><ele>7.0</ele><time>2026-04-04T15:24:57Z</time></trkpt><trkpt lat="40.9080017625382" lon="8.877301723098636"><ele>7.0</ele><time>2026-04-04T15:24:58Z</time></trkpt><trkpt lat="40.90790923718917" lon="8.877266739077479"><ele>6.999999999999999</ele><time>2026-04-04T15:24:59Z</time></trkpt><trkpt lat="40.907832766138064" lon="8.877190992870027"><ele>6.999999999999999</ele><time>2026-04-04T15:25:00Z</time></trkpt><trkpt lat="40.90777097713943" lon="8.877073090267604"><ele>7.0</ele><time>2026-04-04T15:25:01Z</time></trkpt><trkpt lat="40.907708709984504" lon="8.87694422502172"><ele>7.0</ele><time>2026-04-04T15:25:02Z</time></trkpt><trkpt lat="40.907637567415115" lon="8.876810913565476"><ele>7.5</ele><time>2026-04-04T15:25:03Z</time></trkpt><trkpt lat="40.907558921399904" lon="8.876680206476905"><ele>8.0</ele><time>2026-04-04T15:25:04Z</time></trkpt><trkpt lat="40.907481521202754" lon="8.876554746720506"><ele>8.5</ele><time>2026-04-04T15:25:05Z</time></trkpt><trkpt lat="40.90740405896633" lon="8.87642976541803"><ele>9.0</ele><time>2026-04-04T15:25:06Z</time></trkpt><trkpt lat="40.90731886041126" lon="8.87630228646891"><ele>9.0</ele><time>2026-04-04T15:25:07Z</time></trkpt><trkpt lat="40.90722944691277" lon="8.876156643957573"><ele>9.0</ele><time>2026-04-04T15:25:08Z</time></trkpt><trkpt lat="40.907139211350014" lon="8.875999647130415"><ele>9.0</ele><time>2026-04-04T15:25:09Z</time></trkpt><trkpt lat="40.90705978686348" lon="8.875853829599235"><ele>9.0</ele><time>2026-04-04T15:25:10Z</time></trkpt><trkpt lat="40.90697472585301" lon="8.875708936046351"><ele>8.5</ele><time>2026-04-04T15:25:11Z</time></trkpt><trkpt lat="40.906888070038065" lon="8.875565905235918"><ele>8.0</ele><time>2026-04-04T15:25:12Z</time></trkpt><trkpt lat="40.906805676690446" lon="8.875424660098805"><ele>7.5</ele><time>2026-04-04T15:25:13Z</time></trkpt><trkpt lat="40.90672583549702" lon="8.875283584514419"><ele>7.0</ele><time>2026-04-04T15:25:14Z</time></trkpt><trkpt lat="40.90664912429452" lon="8.875147555319138"><ele>7.25</ele><time>2026-04-04T15:25:15Z</time></trkpt><trkpt lat="40.90657490428136" lon="8.875020526169248"><ele>7.5</ele><time>2026-04-04T15:25:16Z</time></trkpt><trkpt lat="40.90650385495548" lon="8.87489420583974"><ele>7.75</ele><time>2026-04-04T15:25:17Z</time></trkpt><trkpt lat="40.90643303836431" lon="8.874768488493434"><ele>8.0</ele><time>2026-04-04T15:25:18Z</time></trkpt><trkpt lat="40.90635951539566" lon="8.874640152847597"><ele>8.0</ele><time>2026-04-04T15:25:19Z</time></trkpt><trkpt lat="40.90628147124295" lon="8.874509345268264"><ele>8.0</ele><time>2026-04-04T15:25:20Z</time></trkpt><trkpt lat="40.90620668038425" lon="8.874374404781818"><ele>8.0</ele><time>2026-04-04T15:25:21Z</time></trkpt><trkpt lat="40.90613508356341" lon="8.874238584073526"><ele>8.0</ele><time>2026-04-04T15:25:22Z</time></trkpt><trkpt lat="40.906062081097346" lon="8.874103745564103"><ele>7.75</ele><time>2026-04-04T15:25:23Z</time></trkpt><trkpt lat="40.905986854831895" lon="8.873965329640187"><ele>7.5</ele><time>2026-04-04T15:25:24Z</time></trkpt><trkpt lat="40.905914607853845" lon="8.87382518011833"><ele>7.25</ele><time>2026-04-04T15:25:25Z</time></trkpt><trkpt lat="40.90584148553873" lon="8.873685356968064"><ele>7.0</ele><time>2026-04-04T15:25:26Z</time></trkpt><trkpt lat="40.90577022506702" lon="8.873545020489845"><ele>7.75</ele><time>2026-04-04T15:25:27Z</time></trkpt><trkpt lat="40.905704355698454" lon="8.873406956623212"><ele>8.5</ele><time>2026-04-04T15:25:28Z</time></trkpt><trkpt lat="40.90564329739048" lon="8.873286328064466"><ele>9.25</ele><time>2026-04-04T15:25:29Z</time></trkpt><trkpt lat="40.90557963142793" lon="8.873167728247957"><ele>10.0</ele><time>2026-04-04T15:25:30Z</time></trkpt><trkpt lat="40.90551430787168" lon="8.873042081028663"><ele>10.0</ele><time>2026-04-04T15:25:31Z</time></trkpt><trkpt lat="40.90544340523913" lon="8.872914895261996"><ele>10.0</ele><time>2026-04-04T15:25:32Z</time></trkpt><trkpt lat="40.90537650668413" lon="8.872775703214105"><ele>10.0</ele><time>2026-04-04T15:25:33Z</time></trkpt><trkpt lat="40.90531090899852" lon="8.872633851300385"><ele>10.0</ele><time>2026-04-04T15:25:34Z</time></trkpt><trkpt lat="40.90524884175491" lon="8.872486987723233"><ele>9.75</ele><time>2026-04-04T15:25:35Z</time></trkpt><trkpt lat="40.905182895420594" lon="8.872340378981088"><ele>9.5</ele><time>2026-04-04T15:25:36Z</time></trkpt><trkpt lat="40.905115332904465" lon="8.872208212478553"><ele>9.25</ele><time>2026-04-04T15:25:37Z</time></trkpt><trkpt lat="40.90505379215196" lon="8.872081683722309"><ele>9.0</ele><time>2026-04-04T15:25:38Z</time></trkpt><trkpt lat="40.90499845546763" lon="8.871957212693772"><ele>9.0</ele><time>2026-04-04T15:25:39Z</time></trkpt><trkpt lat="40.904936120283054" lon="8.871825438009594"><ele>9.0</ele><time>2026-04-04T15:25:40Z</time></trkpt><trkpt lat="40.90486894322756" lon="8.871695728760038"><ele>9.0</ele><time>2026-04-04T15:25:41Z</time></trkpt><trkpt lat="40.90480094244943" lon="8.871564261195212"><ele>9.0</ele><time>2026-04-04T15:25:42Z</time></trkpt><trkpt lat="40.904737732206364" lon="8.87142995704539"><ele>8.5</ele><time>2026-04-04T15:25:43Z</time></trkpt><trkpt lat="40.90467558482695" lon="8.871297485112203"><ele>8.0</ele><time>2026-04-04T15:25:44Z</time></trkpt><trkpt lat="40.90461393570215" lon="8.8711684347625"><ele>7.5</ele><time>2026-04-04T15:25:45Z</time></trkpt><trkpt lat="40.904554451921236" lon="8.871036284692433"><ele>7.0</ele><time>2026-04-04T15:25:46.001Z</time></trkpt><trkpt lat="40.904497762650976" lon="8.870899571892533"><ele>6.75</ele><time>2026-04-04T15:25:47.001Z</time></trkpt><trkpt lat="40.90444131504516" lon="8.87075982616855"><ele>6.5</ele><time>2026-04-04T15:25:48.001Z</time></trkpt><trkpt lat="40.904392191760344" lon="8.870614443097786"><ele>6.25</ele><time>2026-04-04T15:25:49.001Z</time></trkpt><trkpt lat="40.904362072103154" lon="8.870464257619123"><ele>6.0</ele><time>2026-04-04T15:25:50.001Z</time></trkpt><trkpt lat="40.90435097909396" lon="8.870318355239677"><ele>6.0</ele><time>2026-04-04T15:25:51.001Z</time></trkpt><trkpt lat="40.90433548753558" lon="8.870178610481629"><ele>6.0</ele><time>2026-04-04T15:25:52.001Z</time></trkpt><trkpt lat="40.90432117795251" lon="8.870029586128668"><ele>6.0</ele><time>2026-04-04T15:25:53.001Z</time></trkpt><trkpt lat="40.90431043678611" lon="8.869873682824066"><ele>6.0</ele><time>2026-04-04T15:25:54.001Z</time></trkpt><trkpt lat="40.9042945848009" lon="8.86971418306737"><ele>5.75</ele><time>2026-04-04T15:25:55.001Z</time></trkpt><trkpt lat="40.90427276688748" lon="8.86955450643603"><ele>5.5</ele><time>2026-04-04T15:25:56.001Z</time></trkpt><trkpt lat="40.90425165664895" lon="8.869389469206297"><ele>5.25</ele><time>2026-04-04T15:25:57.001Z</time></trkpt><trkpt lat="40.90423754933104" lon="8.869219733485052"><ele>5.0</ele><time>2026-04-04T15:25:58.001Z</time></trkpt><trkpt lat="40.904223750644626" lon="8.86904645326589"><ele>6.0</ele><time>2026-04-04T15:25:59.001Z</time></trkpt><trkpt lat="40.90420666562737" lon="8.868872390792077"><ele>7.0</ele><time>2026-04-04T15:26:00.001Z</time></trkpt><trkpt lat="40.904187685158604" lon="8.868695914837431"><ele>8.0</ele><time>2026-04-04T15:26:01.001Z</time></trkpt><trkpt lat="40.90417008176168" lon="8.868516910464262"><ele>9.0</ele><time>2026-04-04T15:26:02.001Z</time></trkpt><trkpt lat="40.90415566597656" lon="8.86833454745886"><ele>9.0</ele><time>2026-04-04T15:26:03.001Z</time></trkpt><trkpt lat="40.904143065413" lon="8.86815196742972"><ele>9.0</ele><time>2026-04-04T15:26:04.001Z</time></trkpt><trkpt lat="40.90412629673591" lon="8.867970830415203"><ele>9.0</ele><time>2026-04-04T15:26:05.001Z</time></trkpt><trkpt lat="40.904102856947304" lon="8.86778950719167"><ele>9.0</ele><time>2026-04-04T15:26:06.001Z</time></trkpt><trkpt lat="40.9040799644687" lon="8.867606513796883"><ele>9.0</ele><time>2026-04-04T15:26:07.001Z</time></trkpt><trkpt lat="40.904067224536895" lon="8.867420749097397"><ele>9.0</ele><time>2026-04-04T15:26:08.001Z</time></trkpt><trkpt lat="40.904055240707464" lon="8.867235023394835"><ele>9.0</ele><time>2026-04-04T15:26:09.001Z</time></trkpt><trkpt lat="40.90403898323089" lon="8.86704932826393"><ele>9.0</ele><time>2026-04-04T15:26:10.001Z</time></trkpt><trkpt lat="40.90401901424249" lon="8.866864716873234"><ele>9.0</ele><time>2026-04-04T15:26:11.001Z</time></trkpt><trkpt lat="40.90399821449593" lon="8.866684194291459"><ele>9.0</ele><time>2026-04-04T15:26:12.001Z</time></trkpt><trkpt lat="40.90398567766841" lon="8.86651692624636"><ele>9.0</ele><time>2026-04-04T15:26:13.001Z</time></trkpt><trkpt lat="40.903992276955194" lon="8.86634938812983"><ele>9.0</ele><time>2026-04-04T15:26:14.001Z</time></trkpt><trkpt lat="40.904020506206145" lon="8.866185121620092"><ele>9.0</ele><time>2026-04-04T15:26:15.001Z</time></trkpt><trkpt lat="40.90406623160268" lon="8.8660228801319"><ele>9.0</ele><time>2026-04-04T15:26:16.001Z</time></trkpt><trkpt lat="40.9041238763977" lon="8.86586452087587"><ele>9.0</ele><time>2026-04-04T15:26:17.001Z</time></trkpt><trkpt lat="40.9041897674483" lon="8.865711865416404"><ele>9.0</ele><time>2026-04-04T15:26:18.001Z</time></trkpt><trkpt lat="40.90426168364198" lon="8.865562128496009"><ele>9.0</ele><time>2026-04-04T15:26:19.001Z</time></trkpt><trkpt lat="40.9043352245194" lon="8.865411822159366"><ele>9.0</ele><time>2026-04-04T15:26:20.001Z</time></trkpt><trkpt lat="40.90440563079685" lon="8.86525995352768"><ele>9.0</ele><time>2026-04-04T15:26:21.001Z</time></trkpt><trkpt lat="40.90447410561672" lon="8.86510758708778"><ele>9.0</ele><time>2026-04-04T15:26:22.001Z</time></trkpt><trkpt lat="40.90454512557997" lon="8.864959178407563"><ele>9.0</ele><time>2026-04-04T15:26:23.001Z</time></trkpt><trkpt lat="40.904612222007145" lon="8.864827515258177"><ele>9.0</ele><time>2026-04-04T15:26:24.001Z</time></trkpt><trkpt lat="40.90467991087162" lon="8.864695064948586"><ele>9.0</ele><time>2026-04-04T15:26:25.001Z</time></trkpt><trkpt lat="40.90474694143247" lon="8.86455518598628"><ele>9.0</ele><time>2026-04-04T15:26:26.001Z</time></trkpt><trkpt lat="40.90480852073599" lon="8.864409522199717"><ele>8.75</ele><time>2026-04-04T15:26:27.001Z</time></trkpt><trkpt lat="40.90485301071181" lon="8.864249417995754"><ele>8.5</ele><time>2026-04-04T15:26:28.001Z</time></trkpt><trkpt lat="40.904872251295004" lon="8.864076386986778"><ele>8.25</ele><time>2026-04-04T15:26:29.001Z</time></trkpt><trkpt lat="40.90487911396443" lon="8.863900527764798"><ele>8.0</ele><time>2026-04-04T15:26:30.001Z</time></trkpt><trkpt lat="40.904881653213266" lon="8.863734848525873"><ele>8.0</ele><time>2026-04-04T15:26:31.001Z</time></trkpt><trkpt lat="40.90488230763351" lon="8.863563977386638"><ele>8.0</ele><time>2026-04-04T15:26:32.001Z</time></trkpt><trkpt lat="40.90488947437986" lon="8.863390453908382"><ele>8.0</ele><time>2026-04-04T15:26:33.001Z</time></trkpt><trkpt lat="40.90490647658168" lon="8.863214203508058"><ele>8.0</ele><time>2026-04-04T15:26:34.001Z</time></trkpt><trkpt lat="40.904924103674084" lon="8.86305121960095"><ele>8.0</ele><time>2026-04-04T15:26:35.001Z</time></trkpt><trkpt lat="40.904947309023584" lon="8.862881166871363"><ele>8.0</ele><time>2026-04-04T15:26:36.001Z</time></trkpt><trkpt lat="40.90499209596825" lon="8.862718330333966"><ele>8.0</ele><time>2026-04-04T15:26:37.001Z</time></trkpt><trkpt lat="40.90505830867266" lon="8.862567443780838"><ele>8.0</ele><time>2026-04-04T15:26:38.001Z</time></trkpt><trkpt lat="40.905136767312726" lon="8.86241500330654"><ele>7.25</ele><time>2026-04-04T15:26:39.001Z</time></trkpt><trkpt lat="40.90520763810401" lon="8.862263469194282"><ele>6.5</ele><time>2026-04-04T15:26:40Z</time></trkpt><trkpt lat="40.905274092962145" lon="8.8621151837461"><ele>5.75</ele><time>2026-04-04T15:26:41Z</time></trkpt><trkpt lat="40.905341241571485" lon="8.861967623890001"><ele>5.0</ele><time>2026-04-04T15:26:42Z</time></trkpt><trkpt lat="40.905410239930355" lon="8.861821321357294"><ele>5.75</ele><time>2026-04-04T15:26:43Z</time></trkpt><trkpt lat="40.90547593514453" lon="8.861677369516505"><ele>6.5</ele><time>2026-04-04T15:26:44Z</time></trkpt><trkpt lat="40.90553866533732" lon="8.861532174049724"><ele>7.25</ele><time>2026-04-04T15:26:45Z</time></trkpt><trkpt lat="40.905597735421594" lon="8.861383487690448"><ele>8.0</ele><time>2026-04-04T15:26:46Z</time></trkpt><trkpt lat="40.90565272786281" lon="8.861230895372946"><ele>8.0</ele><time>2026-04-04T15:26:47Z</time></trkpt><trkpt lat="40.90569682397311" lon="8.861070510248616"><ele>8.0</ele><time>2026-04-04T15:26:48Z</time></trkpt><trkpt lat="40.90572281230063" lon="8.860903200481372"><ele>8.0</ele><time>2026-04-04T15:26:49Z</time></trkpt><trkpt lat="40.90573141440257" lon="8.860732638268809"><ele>8.0</ele><time>2026-04-04T15:26:50Z</time></trkpt><trkpt lat="40.905734044272904" lon="8.860564412864973"><ele>8.75</ele><time>2026-04-04T15:26:51Z</time></trkpt><trkpt lat="40.905738943752915" lon="8.860395583353194"><ele>9.5</ele><time>2026-04-04T15:26:52Z</time></trkpt><trkpt lat="40.905746055668345" lon="8.86022657667527"><ele>10.25</ele><time>2026-04-04T15:26:53Z</time></trkpt><trkpt lat="40.9057565660255" lon="8.860057454760573"><ele>11.0</ele><time>2026-04-04T15:26:54Z</time></trkpt><trkpt lat="40.90576145929383" lon="8.859887773689312"><ele>12.5</ele><time>2026-04-04T15:26:55Z</time></trkpt><trkpt lat="40.90576501901406" lon="8.85971737266155"><ele>14.0</ele><time>2026-04-04T15:26:56Z</time></trkpt><trkpt lat="40.90577500882732" lon="8.859546157421503"><ele>15.5</ele><time>2026-04-04T15:26:57Z</time></trkpt><trkpt lat="40.905788111164874" lon="8.85936986329605"><ele>17.0</ele><time>2026-04-04T15:26:58Z</time></trkpt><trkpt lat="40.905796064423576" lon="8.859198954586372"><ele>17.2</ele><time>2026-04-04T15:26:59Z</time></trkpt><trkpt lat="40.90580532695753" lon="8.859044663783976"><ele>17.4</ele><time>2026-04-04T15:27:00Z</time></trkpt><trkpt lat="40.90583081723127" lon="8.858901222876069"><ele>17.6</ele><time>2026-04-04T15:27:01Z</time></trkpt><trkpt lat="40.90587681550209" lon="8.85877360346321"><ele>17.8</ele><time>2026-04-04T15:27:02Z</time></trkpt><trkpt lat="40.90593625626647" lon="8.858664354892932"><ele>18.0</ele><time>2026-04-04T15:27:03Z</time></trkpt><trkpt lat="40.906007290084744" lon="8.85857586466821"><ele>18.0</ele><time>2026-04-04T15:27:04Z</time></trkpt><trkpt lat="40.906078894950824" lon="8.858500693882926"><ele>18.0</ele><time>2026-04-04T15:27:05Z</time></trkpt><trkpt lat="40.90614920870422" lon="8.858437371542935"><ele>18.0</ele><time>2026-04-04T15:27:06Z</time></trkpt><trkpt lat="40.90621829808166" lon="8.858385775153176"><ele>18.0</ele><time>2026-04-04T15:27:07Z</time></trkpt><trkpt lat="40.906282163647155" lon="8.858334145126094"><ele>18.0</ele><time>2026-04-04T15:27:08Z</time></trkpt><trkpt lat="40.9063261210269" lon="8.85826849012029"><ele>18.0</ele><time>2026-04-04T15:27:09Z</time></trkpt><trkpt lat="40.906350007599855" lon="8.858115549416302"><ele>17.2</ele><time>2026-04-04T15:27:11Z</time></trkpt><trkpt lat="40.90632075975701" lon="8.858028666818859"><ele>16.4</ele><time>2026-04-04T15:27:12Z</time></trkpt><trkpt lat="40.906275019354396" lon="8.857913301868017"><ele>15.599999999999998</ele><time>2026-04-04T15:27:13Z</time></trkpt><trkpt lat="40.90626492936998" lon="8.857779322756329"><ele>14.799999999999999</ele><time>2026-04-04T15:27:14Z</time></trkpt><trkpt lat="40.90627519252677" lon="8.85764275742989"><ele>14.0</ele><time>2026-04-04T15:27:15Z</time></trkpt><trkpt lat="40.90628696616154" lon="8.857502221700877"><ele>14.0</ele><time>2026-04-04T15:27:16Z</time></trkpt><trkpt lat="40.90628715844936" lon="8.857354215872306"><ele>14.0</ele><time>2026-04-04T15:27:17Z</time></trkpt><trkpt lat="40.90628519797288" lon="8.857199250433949"><ele>14.0</ele><time>2026-04-04T15:27:18Z</time></trkpt><trkpt lat="40.90628203756653" lon="8.857042604897272"><ele>14.0</ele><time>2026-04-04T15:27:19Z</time></trkpt><trkpt lat="40.906274582487306" lon="8.856884674775907"><ele>13.75</ele><time>2026-04-04T15:27:20Z</time></trkpt><trkpt lat="40.906265442984235" lon="8.856723084793112"><ele>13.5</ele><time>2026-04-04T15:27:21Z</time></trkpt><trkpt lat="40.9062602535389" lon="8.856554022307893"><ele>13.25</ele><time>2026-04-04T15:27:22Z</time></trkpt><trkpt lat="40.906259179818136" lon="8.856379285699083"><ele>13.0</ele><time>2026-04-04T15:27:23Z</time></trkpt><trkpt lat="40.90625871786572" lon="8.856200067449093"><ele>13.0</ele><time>2026-04-04T15:27:24Z</time></trkpt><trkpt lat="40.90625476940237" lon="8.856020415631436"><ele>13.0</ele><time>2026-04-04T15:27:25Z</time></trkpt><trkpt lat="40.906253716398304" lon="8.855837517245288"><ele>13.0</ele><time>2026-04-04T15:27:26Z</time></trkpt><trkpt lat="40.906258470122644" lon="8.855655446222043"><ele>13.0</ele><time>2026-04-04T15:27:27Z</time></trkpt><trkpt lat="40.90626657304035" lon="8.855474135681218"><ele>13.0</ele><time>2026-04-04T15:27:28Z</time></trkpt><trkpt lat="40.90627613594137" lon="8.855294040825152"><ele>13.0</ele><time>2026-04-04T15:27:29Z</time></trkpt><trkpt lat="40.90629371365555" lon="8.855118174044064"><ele>13.0</ele><time>2026-04-04T15:27:30Z</time></trkpt><trkpt lat="40.90631502799387" lon="8.854940914943414"><ele>13.0</ele><time>2026-04-04T15:27:31Z</time></trkpt><trkpt lat="40.9063302785495" lon="8.854764981862111"><ele>13.25</ele><time>2026-04-04T15:27:32Z</time></trkpt><trkpt lat="40.906350684226084" lon="8.854590099355626"><ele>13.5</ele><time>2026-04-04T15:27:33Z</time></trkpt><trkpt lat="40.90637894656956" lon="8.854418226236636"><ele>13.75</ele><time>2026-04-04T15:27:34Z</time></trkpt><trkpt lat="40.906403858321994" lon="8.854243241093867"><ele>14.0</ele><time>2026-04-04T15:27:35Z</time></trkpt><trkpt lat="40.906425146131404" lon="8.854067086265891"><ele>14.75</ele><time>2026-04-04T15:27:36Z</time></trkpt><trkpt lat="40.90644407650038" lon="8.853890073494293"><ele>15.5</ele><time>2026-04-04T15:27:37Z</time></trkpt><trkpt lat="40.90646147645965" lon="8.85371226673862"><ele>16.25</ele><time>2026-04-04T15:27:38Z</time></trkpt><trkpt lat="40.9064793346356" lon="8.853534596438696"><ele>17.0</ele><time>2026-04-04T15:27:39Z</time></trkpt><trkpt lat="40.90649947017019" lon="8.853357006708382"><ele>17.75</ele><time>2026-04-04T15:27:40Z</time></trkpt><trkpt lat="40.90651834790191" lon="8.853180068912971"><ele>18.5</ele><time>2026-04-04T15:27:41Z</time></trkpt><trkpt lat="40.906539938855815" lon="8.853004087110511"><ele>19.25</ele><time>2026-04-04T15:27:42Z</time></trkpt><trkpt lat="40.90656200903684" lon="8.852828134243659"><ele>20.0</ele><time>2026-04-04T15:27:43Z</time></trkpt><trkpt lat="40.906585835594626" lon="8.852649823554758"><ele>20.25</ele><time>2026-04-04T15:27:44Z</time></trkpt><trkpt lat="40.90660471578057" lon="8.852469918228945"><ele>20.5</ele><time>2026-04-04T15:27:45Z</time></trkpt><trkpt lat="40.90661921270062" lon="8.852286715149502"><ele>20.75</ele><time>2026-04-04T15:27:46Z</time></trkpt><trkpt lat="40.90663611425031" lon="8.852099133025884"><ele>21.0</ele><time>2026-04-04T15:27:47Z</time></trkpt><trkpt lat="40.90665313441181" lon="8.851909607863488"><ele>21.5</ele><time>2026-04-04T15:27:48Z</time></trkpt><trkpt lat="40.9066699680019" lon="8.851719141848847"><ele>22.0</ele><time>2026-04-04T15:27:49Z</time></trkpt><trkpt lat="40.90669003980072" lon="8.851527709085474"><ele>22.5</ele><time>2026-04-04T15:27:50Z</time></trkpt><trkpt lat="40.90670658537999" lon="8.851336856217031"><ele>23.0</ele><time>2026-04-04T15:27:51Z</time></trkpt><trkpt lat="40.90672058216268" lon="8.851145053363064"><ele>23.5</ele><time>2026-04-04T15:27:52Z</time></trkpt><trkpt lat="40.90672904386392" lon="8.85095264887989"><ele>24.0</ele><time>2026-04-04T15:27:53.001Z</time></trkpt><trkpt lat="40.906730971749624" lon="8.850761349638349"><ele>24.5</ele><time>2026-04-04T15:27:54.001Z</time></trkpt><trkpt lat="40.90673005022755" lon="8.850569523791053"><ele>25.0</ele><time>2026-04-04T15:27:55.001Z</time></trkpt><trkpt lat="40.906730042964476" lon="8.850376717189226"><ele>25.0</ele><time>2026-04-04T15:27:56.001Z</time></trkpt><trkpt lat="40.906732488126394" lon="8.850186615806418"><ele>25.0</ele><time>2026-04-04T15:27:57.001Z</time></trkpt><trkpt lat="40.90673744119955" lon="8.849997123769189"><ele>25.0</ele><time>2026-04-04T15:27:58.001Z</time></trkpt><trkpt lat="40.90674138449069" lon="8.849810525879363"><ele>25.0</ele><time>2026-04-04T15:27:59.001Z</time></trkpt><trkpt lat="40.90674785908095" lon="8.849623360732558"><ele>26.75</ele><time>2026-04-04T15:28:00.001Z</time></trkpt><trkpt lat="40.90676132622109" lon="8.849437424504972"><ele>28.5</ele><time>2026-04-04T15:28:01.001Z</time></trkpt><trkpt lat="40.90677775709814" lon="8.849252745429038"><ele>30.25</ele><time>2026-04-04T15:28:02.001Z</time></trkpt><trkpt lat="40.906789111735215" lon="8.849065785220013"><ele>32.0</ele><time>2026-04-04T15:28:03.001Z</time></trkpt><trkpt lat="40.90679923028505" lon="8.848878057979993"><ele>32.25</ele><time>2026-04-04T15:28:04.001Z</time></trkpt><trkpt lat="40.90680818917226" lon="8.848700895210584"><ele>32.5</ele><time>2026-04-04T15:28:05.001Z</time></trkpt><trkpt lat="40.9068167192664" lon="8.848538826274266"><ele>32.75</ele><time>2026-04-04T15:28:06.001Z</time></trkpt><trkpt lat="40.90681672219521" lon="8.84837385368133"><ele>33.0</ele><time>2026-04-04T15:28:07.001Z</time></trkpt><trkpt lat="40.90679950348123" lon="8.848200421457985"><ele>33.5</ele><time>2026-04-04T15:28:08.001Z</time></trkpt><trkpt lat="40.906767461241024" lon="8.84802522457644"><ele>34.0</ele><time>2026-04-04T15:28:09.001Z</time></trkpt><trkpt lat="40.90672862837465" lon="8.847847254296838"><ele>34.5</ele><time>2026-04-04T15:28:10.001Z</time></trkpt><trkpt lat="40.90669821195553" lon="8.847663378028624"><ele>35.0</ele><time>2026-04-04T15:28:11.001Z</time></trkpt><trkpt lat="40.906674777495454" lon="8.84747652757643"><ele>34.25</ele><time>2026-04-04T15:28:12.001Z</time></trkpt><trkpt lat="40.9066552734905" lon="8.847287027834614"><ele>33.5</ele><time>2026-04-04T15:28:13.001Z</time></trkpt><trkpt lat="40.9066398405737" lon="8.847095692601906"><ele>32.75</ele><time>2026-04-04T15:28:14.001Z</time></trkpt><trkpt lat="40.906636531191" lon="8.84692829431187"><ele>32.0</ele><time>2026-04-04T15:28:15.001Z</time></trkpt><trkpt lat="40.90664313898439" lon="8.846791753523904"><ele>31.999999999999996</ele><time>2026-04-04T15:28:16.001Z</time></trkpt><trkpt lat="40.906649113123876" lon="8.846685677274182"><ele>32.0</ele><time>2026-04-04T15:28:17.001Z</time></trkpt><trkpt lat="40.906631300465286" lon="8.84654758323623"><ele>32.0</ele><time>2026-04-04T15:28:19.001Z</time></trkpt><trkpt lat="40.90656126022212" lon="8.846510998798975"><ele>32.0</ele><time>2026-04-04T15:28:21.001Z</time></trkpt><trkpt lat="40.90649178079203" lon="8.846515236348978"><ele>31.999999999999996</ele><time>2026-04-04T15:28:22.001Z</time></trkpt><trkpt lat="40.90640459816886" lon="8.846516761251593"><ele>32.0</ele><time>2026-04-04T15:28:23.001Z</time></trkpt><trkpt lat="40.90632375507473" lon="8.846508774564107"><ele>31.999999999999996</ele><time>2026-04-04T15:28:24.001Z</time></trkpt><trkpt lat="40.90623708385699" lon="8.846495817842634"><ele>32.0</ele><time>2026-04-04T15:28:25.001Z</time></trkpt><trkpt lat="40.90615240007837" lon="8.84648431483332"><ele>32.0</ele><time>2026-04-04T15:28:26.001Z</time></trkpt><trkpt lat="40.906071684091565" lon="8.84647998373455"><ele>32.0</ele><time>2026-04-04T15:28:27.001Z</time></trkpt><trkpt lat="40.90599669699987" lon="8.846477398218774"><ele>31.999999999999996</ele><time>2026-04-04T15:28:28.001Z</time></trkpt><trkpt lat="40.90592169868728" lon="8.846477255076955"><ele>32.0</ele><time>2026-04-04T15:28:29.001Z</time></trkpt><trkpt lat="40.90585460786525" lon="8.846464103155117"><ele>32.5</ele><time>2026-04-04T15:28:30.001Z</time></trkpt><trkpt lat="40.9057923376305" lon="8.84644108563102"><ele>33.0</ele><time>2026-04-04T15:28:31.001Z</time></trkpt><trkpt lat="40.90572715759466" lon="8.846393952249302"><ele>33.5</ele><time>2026-04-04T15:28:32.001Z</time></trkpt><trkpt lat="40.905650023054584" lon="8.846328765419141"><ele>34.0</ele><time>2026-04-04T15:28:33.001Z</time></trkpt><trkpt lat="40.90556378634651" lon="8.846257749927206"><ele>34.5</ele><time>2026-04-04T15:28:34.001Z</time></trkpt><trkpt lat="40.90549405191131" lon="8.84613866288866"><ele>35.0</ele><time>2026-04-04T15:28:35.001Z</time></trkpt><trkpt lat="40.90539703460366" lon="8.846053567670278"><ele>35.0</ele><time>2026-04-04T15:28:36.001Z</time></trkpt><trkpt lat="40.90530073092122" lon="8.845968138575154"><ele>35.0</ele><time>2026-04-04T15:28:37.001Z</time></trkpt><trkpt lat="40.90520773097784" lon="8.845875979426184"><ele>35.0</ele><time>2026-04-04T15:28:38.001Z</time></trkpt><trkpt lat="40.90513151880986" lon="8.845769270866473"><ele>35.0</ele><time>2026-04-04T15:28:39.001Z</time></trkpt><trkpt lat="40.905052125497555" lon="8.845657386718255"><ele>36.0</ele><time>2026-04-04T15:28:40.001Z</time></trkpt><trkpt lat="40.90497645452211" lon="8.845556341170363"><ele>37.0</ele><time>2026-04-04T15:28:41.001Z</time></trkpt><trkpt lat="40.90490523603448" lon="8.84546852869145"><ele>38.0</ele><time>2026-04-04T15:28:42.001Z</time></trkpt><trkpt lat="40.90484136033806" lon="8.845386316714304"><ele>39.0</ele><time>2026-04-04T15:28:43.001Z</time></trkpt><trkpt lat="40.904796549137366" lon="8.845283238851097"><ele>40.0</ele><time>2026-04-04T15:28:44.001Z</time></trkpt><trkpt lat="40.90474951453279" lon="8.845170631367795"><ele>40.6</ele><time>2026-04-04T15:28:45.001Z</time></trkpt><trkpt lat="40.90471314573544" lon="8.845056269156755"><ele>41.2</ele><time>2026-04-04T15:28:46Z</time></trkpt><trkpt lat="40.90468322449178" lon="8.844934038826262"><ele>41.8</ele><time>2026-04-04T15:28:47Z</time></trkpt><trkpt lat="40.90465507551118" lon="8.844805675923844"><ele>42.4</ele><time>2026-04-04T15:28:48Z</time></trkpt><trkpt lat="40.90463013937632" lon="8.844673211248127"><ele>43.0</ele><time>2026-04-04T15:28:49Z</time></trkpt><trkpt lat="40.90461260193008" lon="8.844538306587225"><ele>43.0</ele><time>2026-04-04T15:28:50Z</time></trkpt><trkpt lat="40.904564914786185" lon="8.844409725619485"><ele>43.0</ele><time>2026-04-04T15:28:51Z</time></trkpt><trkpt lat="40.904545419868576" lon="8.844274801643595"><ele>43.0</ele><time>2026-04-04T15:28:52Z</time></trkpt><trkpt lat="40.90453007240028" lon="8.844146485332875"><ele>43.0</ele><time>2026-04-04T15:28:53Z</time></trkpt><trkpt lat="40.904505006610044" lon="8.844023161573148"><ele>43.0</ele><time>2026-04-04T15:28:54Z</time></trkpt><trkpt lat="40.90446586993757" lon="8.84390174885294"><ele>43.599999999999994</ele><time>2026-04-04T15:28:55Z</time></trkpt><trkpt lat="40.90443414842481" lon="8.843774567833455"><ele>44.199999999999996</ele><time>2026-04-04T15:28:56Z</time></trkpt><trkpt lat="40.90439416130581" lon="8.843654212039466"><ele>44.8</ele><time>2026-04-04T15:28:57Z</time></trkpt><trkpt lat="40.904351645114225" lon="8.843526244072448"><ele>45.4</ele><time>2026-04-04T15:28:58Z</time></trkpt><trkpt lat="40.904307608309495" lon="8.843394772216659"><ele>46.0</ele><time>2026-04-04T15:28:59Z</time></trkpt><trkpt lat="40.904263201509686" lon="8.843269434618318"><ele>47.0</ele><time>2026-04-04T15:29:00Z</time></trkpt><trkpt lat="40.904214133311804" lon="8.843164237098637"><ele>48.0</ele><time>2026-04-04T15:29:01Z</time></trkpt><trkpt lat="40.90413824271273" lon="8.843062413300244"><ele>49.0</ele><time>2026-04-04T15:29:02Z</time></trkpt><trkpt lat="40.90405016997242" lon="8.842970408090316"><ele>50.0</ele><time>2026-04-04T15:29:03Z</time></trkpt><trkpt lat="40.90396184512011" lon="8.842878470076373"><ele>51.0</ele><time>2026-04-04T15:29:04Z</time></trkpt><trkpt lat="40.9038729587507" lon="8.842785947560934"><ele>51.0</ele><time>2026-04-04T15:29:05Z</time></trkpt><trkpt lat="40.90378383422103" lon="8.842693177140896"><ele>51.0</ele><time>2026-04-04T15:29:06Z</time></trkpt><trkpt lat="40.903694202586024" lon="8.842600333996069"><ele>51.0</ele><time>2026-04-04T15:29:07Z</time></trkpt><trkpt lat="40.903601367166196" lon="8.842506303277"><ele>51.0</ele><time>2026-04-04T15:29:08Z</time></trkpt><trkpt lat="40.90351494427186" lon="8.842410350324037"><ele>51.25</ele><time>2026-04-04T15:29:09Z</time></trkpt><trkpt lat="40.903427894612776" lon="8.842308048078777"><ele>51.5</ele><time>2026-04-04T15:29:10Z</time></trkpt><trkpt lat="40.90333687515619" lon="8.84220618658701"><ele>51.75</ele><time>2026-04-04T15:29:11Z</time></trkpt><trkpt lat="40.903245614090125" lon="8.84210493743746"><ele>52.0</ele><time>2026-04-04T15:29:12Z</time></trkpt><trkpt lat="40.90315474456901" lon="8.842001270761648"><ele>52.8</ele><time>2026-04-04T15:29:13Z</time></trkpt><trkpt lat="40.9030754496898" lon="8.841905703401418"><ele>53.6</ele><time>2026-04-04T15:29:14Z</time></trkpt><trkpt lat="40.90302650822635" lon="8.841838225371133"><ele>54.39999999999999</ele><time>2026-04-04T15:29:15Z</time></trkpt><trkpt lat="40.90296621135181" lon="8.841756129843771"><ele>55.199999999999996</ele><time>2026-04-04T15:29:16Z</time></trkpt><trkpt lat="40.90289760474133" lon="8.841658226121815"><ele>56.0</ele><time>2026-04-04T15:29:17Z</time></trkpt><trkpt lat="40.90283173806616" lon="8.841557324482743"><ele>56.4</ele><time>2026-04-04T15:29:18Z</time></trkpt><trkpt lat="40.90276526906048" lon="8.841451653391912"><ele>56.8</ele><time>2026-04-04T15:29:19Z</time></trkpt><trkpt lat="40.90269963620729" lon="8.841346050678224"><ele>57.199999999999996</ele><time>2026-04-04T15:29:20Z</time></trkpt><trkpt lat="40.902632525173935" lon="8.84123612488281"><ele>57.599999999999994</ele><time>2026-04-04T15:29:21Z</time></trkpt><trkpt lat="40.90256993007759" lon="8.841132318059518"><ele>58.0</ele><time>2026-04-04T15:29:22Z</time></trkpt><trkpt lat="40.90251630301241" lon="8.84104107649134"><ele>58.599999999999994</ele><time>2026-04-04T15:29:23Z</time></trkpt><trkpt lat="40.90247186576815" lon="8.840956280501507"><ele>59.199999999999996</ele><time>2026-04-04T15:29:24Z</time></trkpt><trkpt lat="40.9024391047941" lon="8.840846341668952"><ele>59.8</ele><time>2026-04-04T15:29:26Z</time></trkpt><trkpt lat="40.90233010263831" lon="8.84079841856203"><ele>60.4</ele><time>2026-04-04T15:29:27Z</time></trkpt><trkpt lat="40.90224873618785" lon="8.840768573552095"><ele>61.0</ele><time>2026-04-04T15:29:28Z</time></trkpt><trkpt lat="40.90215343849308" lon="8.840731084366176"><ele>61.0</ele><time>2026-04-04T15:29:29Z</time></trkpt><trkpt lat="40.902037892426854" lon="8.84068817102742"><ele>61.0</ele><time>2026-04-04T15:29:30Z</time></trkpt><trkpt lat="40.901917956164525" lon="8.840645157378825"><ele>61.0</ele><time>2026-04-04T15:29:31Z</time></trkpt><trkpt lat="40.9018050789309" lon="8.840588578414941"><ele>61.0</ele><time>2026-04-04T15:29:32Z</time></trkpt><trkpt lat="40.901691633562756" lon="8.840520873983882"><ele>61.0</ele><time>2026-04-04T15:29:33Z</time></trkpt><trkpt lat="40.90158321542906" lon="8.840440702347403"><ele>61.0</ele><time>2026-04-04T15:29:34Z</time></trkpt><trkpt lat="40.90147800659403" lon="8.840360207045096"><ele>61.0</ele><time>2026-04-04T15:29:35Z</time></trkpt><trkpt lat="40.901379394234084" lon="8.840270298247884"><ele>61.0</ele><time>2026-04-04T15:29:36Z</time></trkpt><trkpt lat="40.90128578894328" lon="8.840177156045161"><ele>62.0</ele><time>2026-04-04T15:29:37Z</time></trkpt><trkpt lat="40.90119258333285" lon="8.840084292363771"><ele>63.0</ele><time>2026-04-04T15:29:38Z</time></trkpt><trkpt lat="40.90110312382936" lon="8.839995159539669"><ele>64.0</ele><time>2026-04-04T15:29:39Z</time></trkpt><trkpt lat="40.901014401796814" lon="8.839908749512487"><ele>65.0</ele><time>2026-04-04T15:29:40Z</time></trkpt><trkpt lat="40.90092357426874" lon="8.839825014398585"><ele>64.6</ele><time>2026-04-04T15:29:41Z</time></trkpt><trkpt lat="40.90083245755823" lon="8.83975076285131"><ele>64.2</ele><time>2026-04-04T15:29:42Z</time></trkpt><trkpt lat="40.900737744804914" lon="8.839692906479787"><ele>63.8</ele><time>2026-04-04T15:29:43Z</time></trkpt><trkpt lat="40.90064091479202" lon="8.839635621240891"><ele>63.4</ele><time>2026-04-04T15:29:44Z</time></trkpt><trkpt lat="40.900543738713445" lon="8.839577734504255"><ele>63.0</ele><time>2026-04-04T15:29:45Z</time></trkpt><trkpt lat="40.900447997147126" lon="8.83951835797213"><ele>63.0</ele><time>2026-04-04T15:29:46Z</time></trkpt><trkpt lat="40.90035566835871" lon="8.839458407486578"><ele>63.0</ele><time>2026-04-04T15:29:47Z</time></trkpt><trkpt lat="40.90026757299631" lon="8.839401205800458"><ele>63.0</ele><time>2026-04-04T15:29:48Z</time></trkpt><trkpt lat="40.90017609819092" lon="8.839336667342002"><ele>63.0</ele><time>2026-04-04T15:29:49Z</time></trkpt><trkpt lat="40.90009206965858" lon="8.839268945267566"><ele>63.0</ele><time>2026-04-04T15:29:50Z</time></trkpt><trkpt lat="40.9000147778878" lon="8.83919429768926"><ele>64.2</ele><time>2026-04-04T15:29:51Z</time></trkpt><trkpt lat="40.89994274959481" lon="8.839112692672982"><ele>65.4</ele><time>2026-04-04T15:29:52Z</time></trkpt><trkpt lat="40.89987453420184" lon="8.839021730164815"><ele>66.60000000000001</ele><time>2026-04-04T15:29:53Z</time></trkpt><trkpt lat="40.89979553706512" lon="8.838934952264733"><ele>67.8</ele><time>2026-04-04T15:29:54Z</time></trkpt><trkpt lat="40.89973552088591" lon="8.838834186854681"><ele>69.0</ele><time>2026-04-04T15:29:55Z</time></trkpt><trkpt lat="40.89966692635636" lon="8.838742193591871"><ele>69.0</ele><time>2026-04-04T15:29:56Z</time></trkpt><trkpt lat="40.89959636985968" lon="8.838636149647918"><ele>69.0</ele><time>2026-04-04T15:29:57.001Z</time></trkpt><trkpt lat="40.899507186633656" lon="8.838558621014778"><ele>69.0</ele><time>2026-04-04T15:29:58.001Z</time></trkpt><trkpt lat="40.89941721203675" lon="8.838482488574458"><ele>69.0</ele><time>2026-04-04T15:29:59.001Z</time></trkpt><trkpt lat="40.89933690142473" lon="8.838401762470035"><ele>69.0</ele><time>2026-04-04T15:30:00.001Z</time></trkpt><trkpt lat="40.8992565993268" lon="8.838312511560659"><ele>69.66666666666667</ele><time>2026-04-04T15:30:01.001Z</time></trkpt><trkpt lat="40.89916715395023" lon="8.838236892216226"><ele>70.33333333333333</ele><time>2026-04-04T15:30:02.001Z</time></trkpt><trkpt lat="40.89910275088819" lon="8.838143179868554"><ele>71.0</ele><time>2026-04-04T15:30:03.001Z</time></trkpt><trkpt lat="40.899057521855234" lon="8.838059545046011"><ele>71.66666666666666</ele><time>2026-04-04T15:30:04.001Z</time></trkpt><trkpt lat="40.89903948565508" lon="8.837978102827131"><ele>72.33333333333333</ele><time>2026-04-04T15:30:05.001Z</time></trkpt><trkpt lat="40.89903163026982" lon="8.8378718259678"><ele>73.0</ele><time>2026-04-04T15:30:06.001Z</time></trkpt><trkpt lat="40.89903469447919" lon="8.837740854748224"><ele>74.6</ele><time>2026-04-04T15:30:07.001Z</time></trkpt><trkpt lat="40.8990346406242" lon="8.837597430961427"><ele>76.19999999999999</ele><time>2026-04-04T15:30:08.001Z</time></trkpt><trkpt lat="40.8990346087693" lon="8.837461877312268"><ele>77.8</ele><time>2026-04-04T15:30:09.001Z</time></trkpt><trkpt lat="40.899043845704654" lon="8.837337885878062"><ele>79.39999999999999</ele><time>2026-04-04T15:30:10.001Z</time></trkpt><trkpt lat="40.89906246672796" lon="8.83721177972946"><ele>81.0</ele><time>2026-04-04T15:30:11.001Z</time></trkpt><trkpt lat="40.89909205051602" lon="8.83707019517187"><ele>81.0</ele><time>2026-04-04T15:30:12.001Z</time></trkpt><trkpt lat="40.899124128961326" lon="8.836926593328768"><ele>81.0</ele><time>2026-04-04T15:30:13.001Z</time></trkpt><trkpt lat="40.89915724043197" lon="8.836775310251385"><ele>81.0</ele><time>2026-04-04T15:30:14.001Z</time></trkpt><trkpt lat="40.89918798031659" lon="8.836624470553343"><ele>81.0</ele><time>2026-04-04T15:30:15.001Z</time></trkpt><trkpt lat="40.89921496165172" lon="8.836479777147455"><ele>82.19999999999999</ele><time>2026-04-04T15:30:16.001Z</time></trkpt><trkpt lat="40.899239749825675" lon="8.83633437332711"><ele>83.39999999999999</ele><time>2026-04-04T15:30:17.001Z</time></trkpt><trkpt lat="40.89926841652715" lon="8.836193156768768"><ele>84.6</ele><time>2026-04-04T15:30:18.001Z</time></trkpt><trkpt lat="40.89929651195013" lon="8.836051623663744"><ele>85.8</ele><time>2026-04-04T15:30:19.001Z</time></trkpt><trkpt lat="40.89932330750523" lon="8.835909833179217"><ele>87.0</ele><time>2026-04-04T15:30:20.001Z</time></trkpt><trkpt lat="40.899353379672974" lon="8.835763776367923"><ele>92.39999999999999</ele><time>2026-04-04T15:30:21.001Z</time></trkpt><trkpt lat="40.899371535938585" lon="8.835621805964857"><ele>97.8</ele><time>2026-04-04T15:30:22.001Z</time></trkpt><trkpt lat="40.89937411622595" lon="8.835483339236852"><ele>103.2</ele><time>2026-04-04T15:30:23.001Z</time></trkpt><trkpt lat="40.89935714193374" lon="8.835339082576022"><ele>108.6</ele><time>2026-04-04T15:30:24.001Z</time></trkpt><trkpt lat="40.899321630607524" lon="8.835188213129559"><ele>114.0</ele><time>2026-04-04T15:30:25.001Z</time></trkpt><trkpt lat="40.8992948649742" lon="8.835028962406982"><ele>115.25</ele><time>2026-04-04T15:30:26.001Z</time></trkpt><trkpt lat="40.89925146016927" lon="8.834874211008257"><ele>116.5</ele><time>2026-04-04T15:30:27.001Z</time></trkpt><trkpt lat="40.89918928888314" lon="8.834731882146771"><ele>117.75</ele><time>2026-04-04T15:30:28.001Z</time></trkpt><trkpt lat="40.89913791728449" lon="8.834590273330576"><ele>119.0</ele><time>2026-04-04T15:30:29.001Z</time></trkpt><trkpt lat="40.89909635972519" lon="8.834448755377911"><ele>116.4</ele><time>2026-04-04T15:30:30.001Z</time></trkpt><trkpt lat="40.899037779469104" lon="8.834321967619088"><ele>113.80000000000001</ele><time>2026-04-04T15:30:31.001Z</time></trkpt><trkpt lat="40.89897472057849" lon="8.834201775805575"><ele>111.19999999999999</ele><time>2026-04-04T15:30:32.001Z</time></trkpt><trkpt lat="40.898908608156226" lon="8.834089656656015"><ele>108.6</ele><time>2026-04-04T15:30:33.001Z</time></trkpt><trkpt lat="40.898830454576434" lon="8.833988887082642"><ele>106.0</ele><time>2026-04-04T15:30:34.001Z</time></trkpt><trkpt lat="40.89874803304502" lon="8.83389791195746"><ele>106.0</ele><time>2026-04-04T15:30:35.001Z</time></trkpt><trkpt lat="40.89865555349964" lon="8.833815149247858"><ele>106.0</ele><time>2026-04-04T15:30:36.001Z</time></trkpt><trkpt lat="40.8985581970034" lon="8.833751196579007"><ele>106.0</ele><time>2026-04-04T15:30:37.001Z</time></trkpt><trkpt lat="40.898446564954355" lon="8.833711836603317"><ele>106.0</ele><time>2026-04-04T15:30:38.001Z</time></trkpt><trkpt lat="40.89832796150843" lon="8.833692314585639"><ele>103.25</ele><time>2026-04-04T15:30:39.001Z</time></trkpt><trkpt lat="40.898209184275544" lon="8.83367612253216"><ele>100.5</ele><time>2026-04-04T15:30:40.001Z</time></trkpt><trkpt lat="40.898091290353314" lon="8.833660050894615"><ele>97.75</ele><time>2026-04-04T15:30:41.001Z</time></trkpt><trkpt lat="40.89797399387421" lon="8.833643484746586"><ele>95.0</ele><time>2026-04-04T15:30:42.001Z</time></trkpt><trkpt lat="40.89785583793793" lon="8.833626090667408"><ele>95.0</ele><time>2026-04-04T15:30:43.001Z</time></trkpt><trkpt lat="40.897740762385624" lon="8.833606354006237"><ele>95.0</ele><time>2026-04-04T15:30:44.001Z</time></trkpt><trkpt lat="40.897631534133005" lon="8.833578949890223"><ele>95.0</ele><time>2026-04-04T15:30:45.001Z</time></trkpt><trkpt lat="40.897518720235055" lon="8.83354878146474"><ele>95.0</ele><time>2026-04-04T15:30:46.001Z</time></trkpt><trkpt lat="40.89740606720706" lon="8.833519709713402"><ele>96.0</ele><time>2026-04-04T15:30:47.001Z</time></trkpt><trkpt lat="40.89729063484237" lon="8.833492916376"><ele>97.0</ele><time>2026-04-04T15:30:48.001Z</time></trkpt><trkpt lat="40.89717810086278" lon="8.833466282143869"><ele>98.0</ele><time>2026-04-04T15:30:49.001Z</time></trkpt><trkpt lat="40.89707345787363" lon="8.833436217434954"><ele>99.0</ele><time>2026-04-04T15:30:50.001Z</time></trkpt><trkpt lat="40.89698073692174" lon="8.833393324214743"><ele>100.0</ele><time>2026-04-04T15:30:51Z</time></trkpt><trkpt lat="40.89690026568642" lon="8.83332570286659"><ele>100.4</ele><time>2026-04-04T15:30:52Z</time></trkpt><trkpt lat="40.8968203218604" lon="8.833238005001412"><ele>100.8</ele><time>2026-04-04T15:30:53Z</time></trkpt><trkpt lat="40.89674008296968" lon="8.833146245315984"><ele>101.19999999999999</ele><time>2026-04-04T15:30:54Z</time></trkpt><trkpt lat="40.89666209577101" lon="8.833056018577611"><ele>101.6</ele><time>2026-04-04T15:30:55Z</time></trkpt><trkpt lat="40.89658518983633" lon="8.832960327942136"><ele>102.0</ele><time>2026-04-04T15:30:56Z</time></trkpt><trkpt lat="40.89651572874206" lon="8.832857396631338"><ele>102.0</ele><time>2026-04-04T15:30:57Z</time></trkpt><trkpt lat="40.896453671010875" lon="8.832741342031515"><ele>102.0</ele><time>2026-04-04T15:30:58Z</time></trkpt><trkpt lat="40.89639287118562" lon="8.83261705831863"><ele>102.0</ele><time>2026-04-04T15:30:59Z</time></trkpt><trkpt lat="40.89632399226549" lon="8.832497445233166"><ele>102.0</ele><time>2026-04-04T15:31:00Z</time></trkpt><trkpt lat="40.896269105682805" lon="8.832363265878111"><ele>102.0</ele><time>2026-04-04T15:31:01Z</time></trkpt><trkpt lat="40.89621302307782" lon="8.832233087171202"><ele>102.75</ele><time>2026-04-04T15:31:02Z</time></trkpt><trkpt lat="40.89617405923925" lon="8.83209154781897"><ele>103.5</ele><time>2026-04-04T15:31:03Z</time></trkpt><trkpt lat="40.89612279064648" lon="8.831954944748778"><ele>104.25</ele><time>2026-04-04T15:31:04Z</time></trkpt><trkpt lat="40.896056691093065" lon="8.831830379753331"><ele>105.0</ele><time>2026-04-04T15:31:05Z</time></trkpt><trkpt lat="40.89600878273466" lon="8.831697474601185"><ele>106.0</ele><time>2026-04-04T15:31:06Z</time></trkpt><trkpt lat="40.89595649923855" lon="8.831566876969216"><ele>107.0</ele><time>2026-04-04T15:31:07Z</time></trkpt><trkpt lat="40.89590303244898" lon="8.831440367156297"><ele>108.0</ele><time>2026-04-04T15:31:08Z</time></trkpt><trkpt lat="40.89587401391142" lon="8.83129980625577"><ele>109.0</ele><time>2026-04-04T15:31:09Z</time></trkpt><trkpt lat="40.8958319964339" lon="8.83116005941503"><ele>110.0</ele><time>2026-04-04T15:31:10Z</time></trkpt><trkpt lat="40.89577933671425" lon="8.831016866086937"><ele>110.0</ele><time>2026-04-04T15:31:11Z</time></trkpt><trkpt lat="40.89574593258464" lon="8.8308588774963"><ele>110.0</ele><time>2026-04-04T15:31:12Z</time></trkpt><trkpt lat="40.895710593379384" lon="8.830696938140248"><ele>110.0</ele><time>2026-04-04T15:31:13Z</time></trkpt><trkpt lat="40.895670820284984" lon="8.830527175982134"><ele>110.0</ele><time>2026-04-04T15:31:14Z</time></trkpt><trkpt lat="40.89563360052457" lon="8.830363869279397"><ele>110.0</ele><time>2026-04-04T15:31:15Z</time></trkpt><trkpt lat="40.89559713281452" lon="8.830204971169957"><ele>110.0</ele><time>2026-04-04T15:31:16Z</time></trkpt><trkpt lat="40.89556389070234" lon="8.830054174842235"><ele>110.0</ele><time>2026-04-04T15:31:17Z</time></trkpt><trkpt lat="40.8955256878815" lon="8.829909677336442"><ele>110.0</ele><time>2026-04-04T15:31:18Z</time></trkpt><trkpt lat="40.89548804787408" lon="8.829767934539086"><ele>111.0</ele><time>2026-04-04T15:31:19Z</time></trkpt><trkpt lat="40.895445515109515" lon="8.829621974291555"><ele>112.0</ele><time>2026-04-04T15:31:20Z</time></trkpt><trkpt lat="40.89542088611751" lon="8.82946515069915"><ele>113.0</ele><time>2026-04-04T15:31:21Z</time></trkpt><trkpt lat="40.89538391477669" lon="8.829320871115833"><ele>114.0</ele><time>2026-04-04T15:31:22Z</time></trkpt><trkpt lat="40.895334072497654" lon="8.829180414171914"><ele>115.0</ele><time>2026-04-04T15:31:23Z</time></trkpt><trkpt lat="40.895297643975965" lon="8.829038916656534"><ele>116.0</ele><time>2026-04-04T15:31:24Z</time></trkpt><trkpt lat="40.89525990187034" lon="8.828897920368298"><ele>117.0</ele><time>2026-04-04T15:31:25Z</time></trkpt><trkpt lat="40.89523046385228" lon="8.828778261132518"><ele>118.0</ele><time>2026-04-04T15:31:26Z</time></trkpt><trkpt lat="40.895204387256314" lon="8.828672159527887"><ele>119.0</ele><time>2026-04-04T15:31:27Z</time></trkpt><trkpt lat="40.89518047267357" lon="8.828568607680406"><ele>119.0</ele><time>2026-04-04T15:31:28Z</time></trkpt><trkpt lat="40.895159430955324" lon="8.828484594630785"><ele>119.0</ele><time>2026-04-04T15:31:29Z</time></trkpt><trkpt lat="40.895128597723726" lon="8.828350207266642"><ele>119.0</ele><time>2026-04-04T15:31:31Z</time></trkpt><trkpt lat="40.89510016722609" lon="8.828255869693665"><ele>119.0</ele><time>2026-04-04T15:31:33Z</time></trkpt><trkpt lat="40.89496656667056" lon="8.828250543308213"><ele>119.0</ele><time>2026-04-04T15:31:34Z</time></trkpt><trkpt lat="40.89484569497716" lon="8.828258156545125"><ele>118.99999999999999</ele><time>2026-04-04T15:31:36Z</time></trkpt><trkpt lat="40.89478173075922" lon="8.828259014301292"><ele>119.0</ele><time>2026-04-04T15:31:37Z</time></trkpt><trkpt lat="40.89467016460168" lon="8.828258718870721"><ele>119.0</ele><time>2026-04-04T15:31:39Z</time></trkpt><trkpt lat="40.89460646851859" lon="8.82825836274378"><ele>119.0</ele><time>2026-04-04T15:31:41Z</time></trkpt><trkpt lat="40.89452996965476" lon="8.82822806977951"><ele>118.99999999999999</ele><time>2026-04-04T15:31:45Z</time></trkpt><trkpt lat="40.89445544199387" lon="8.828235564628406"><ele>119.0</ele><time>2026-04-04T15:31:47Z</time></trkpt><trkpt lat="40.89438733357524" lon="8.828197550976306"><ele>119.0</ele><time>2026-04-04T15:31:49Z</time></trkpt><trkpt lat="40.89433914319112" lon="8.827971186724008"><ele>119.0</ele><time>2026-04-04T15:31:50Z</time></trkpt><trkpt lat="40.89428622639937" lon="8.827910683494533"><ele>119.0</ele><time>2026-04-04T15:31:51Z</time></trkpt><trkpt lat="40.89422289215473" lon="8.827849567484378"><ele>119.0</ele><time>2026-04-04T15:31:52Z</time></trkpt><trkpt lat="40.894157577445505" lon="8.82778830305069"><ele>119.0</ele><time>2026-04-04T15:31:53Z</time></trkpt><trkpt lat="40.89410079786919" lon="8.827729771719897"><ele>119.83333333333333</ele><time>2026-04-04T15:31:54Z</time></trkpt><trkpt lat="40.89406631024265" lon="8.82764912213305"><ele>120.66666666666666</ele><time>2026-04-04T15:31:55Z</time></trkpt><trkpt lat="40.89405580769228" lon="8.827552670805263"><ele>121.5</ele><time>2026-04-04T15:31:56Z</time></trkpt><trkpt lat="40.894075543429025" lon="8.827457549344745"><ele>122.33333333333334</ele><time>2026-04-04T15:31:57Z</time></trkpt><trkpt lat="40.8941201889018" lon="8.82739670933188"><ele>123.16666666666667</ele><time>2026-04-04T15:31:58Z</time></trkpt><trkpt lat="40.894254119854786" lon="8.82736506537279"><ele>124.0</ele><time>2026-04-04T15:32:00Z</time></trkpt><trkpt lat="40.89435472582007" lon="8.827350113610441"><ele>121.6</ele><time>2026-04-04T15:32:01Z</time></trkpt><trkpt lat="40.89444924126339" lon="8.82729801886401"><ele>119.2</ele><time>2026-04-04T15:32:02Z</time></trkpt><trkpt lat="40.8945428135718" lon="8.827237328729465"><ele>116.79999999999998</ele><time>2026-04-04T15:32:03Z</time></trkpt><trkpt lat="40.89461773583145" lon="8.827171406240502"><ele>114.39999999999999</ele><time>2026-04-04T15:32:04.001Z</time></trkpt><trkpt lat="40.8946807121139" lon="8.827095570429504"><ele>112.0</ele><time>2026-04-04T15:32:05.001Z</time></trkpt><trkpt lat="40.894730417362275" lon="8.827000441844712"><ele>112.0</ele><time>2026-04-04T15:32:06.001Z</time></trkpt><trkpt lat="40.89477419664101" lon="8.826876352895571"><ele>111.99999999999999</ele><time>2026-04-04T15:32:07.001Z</time></trkpt><trkpt lat="40.8948259747492" lon="8.826750649041788"><ele>111.99999999999999</ele><time>2026-04-04T15:32:08.001Z</time></trkpt><trkpt lat="40.894887554600295" lon="8.826652074023489"><ele>112.0</ele><time>2026-04-04T15:32:09.001Z</time></trkpt><trkpt lat="40.894952282193834" lon="8.826569755220062"><ele>112.0</ele><time>2026-04-04T15:32:10.001Z</time></trkpt><trkpt lat="40.895016399784765" lon="8.826486635004546"><ele>112.39999999999999</ele><time>2026-04-04T15:32:11.001Z</time></trkpt><trkpt lat="40.89507530376844" lon="8.826396607275923"><ele>112.79999999999998</ele><time>2026-04-04T15:32:12.001Z</time></trkpt><trkpt lat="40.895113855624125" lon="8.826292503254338"><ele>113.2</ele><time>2026-04-04T15:32:13.001Z</time></trkpt><trkpt lat="40.895136066489364" lon="8.826165089227377"><ele>113.6</ele><time>2026-04-04T15:32:14.001Z</time></trkpt><trkpt lat="40.89513974785257" lon="8.826027361922037"><ele>114.0</ele><time>2026-04-04T15:32:15.001Z</time></trkpt><trkpt lat="40.89513537594123" lon="8.825884507064641"><ele>114.0</ele><time>2026-04-04T15:32:16.001Z</time></trkpt><trkpt lat="40.8951349676078" lon="8.825750437681835"><ele>114.0</ele><time>2026-04-04T15:32:17.001Z</time></trkpt><trkpt lat="40.89514045290642" lon="8.825627957068221"><ele>114.0</ele><time>2026-04-04T15:32:18.001Z</time></trkpt><trkpt lat="40.89515482111471" lon="8.825511333536781"><ele>114.0</ele><time>2026-04-04T15:32:19.001Z</time></trkpt><trkpt lat="40.89519312271616" lon="8.825389178233227"><ele>114.0</ele><time>2026-04-04T15:32:20.001Z</time></trkpt><trkpt lat="40.89522494128171" lon="8.82526541740962"><ele>113.0</ele><time>2026-04-04T15:32:21.001Z</time></trkpt><trkpt lat="40.895246045733714" lon="8.825142152626482"><ele>112.0</ele><time>2026-04-04T15:32:22.001Z</time></trkpt><trkpt lat="40.8952829251367" lon="8.825024822997708"><ele>111.0</ele><time>2026-04-04T15:32:23.001Z</time></trkpt><trkpt lat="40.895329791437" lon="8.824911436871904"><ele>110.0</ele><time>2026-04-04T15:32:24.001Z</time></trkpt><trkpt lat="40.89538787353759" lon="8.824788944562663"><ele>109.0</ele><time>2026-04-04T15:32:25.001Z</time></trkpt><trkpt lat="40.89545409637459" lon="8.824659094277925"><ele>109.0</ele><time>2026-04-04T15:32:26.001Z</time></trkpt><trkpt lat="40.89551616435419" lon="8.824533718809597"><ele>109.0</ele><time>2026-04-04T15:32:27.001Z</time></trkpt><trkpt lat="40.89557485285467" lon="8.824414324320616"><ele>109.0</ele><time>2026-04-04T15:32:28.001Z</time></trkpt><trkpt lat="40.89563427947073" lon="8.824296427726887"><ele>109.0</ele><time>2026-04-04T15:32:29.001Z</time></trkpt><trkpt lat="40.89568882419449" lon="8.824178960306893"><ele>109.0</ele><time>2026-04-04T15:32:30.001Z</time></trkpt><trkpt lat="40.89574588108332" lon="8.824068810555461"><ele>108.4</ele><time>2026-04-04T15:32:31.001Z</time></trkpt><trkpt lat="40.89580336623987" lon="8.823967664934063"><ele>107.80000000000001</ele><time>2026-04-04T15:32:32.001Z</time></trkpt><trkpt lat="40.89586438204716" lon="8.823858621523097"><ele>107.19999999999999</ele><time>2026-04-04T15:32:33.001Z</time></trkpt><trkpt lat="40.895911766490464" lon="8.823721441300531"><ele>106.6</ele><time>2026-04-04T15:32:34.001Z</time></trkpt><trkpt lat="40.89595392113679" lon="8.823587578721995"><ele>106.0</ele><time>2026-04-04T15:32:35.001Z</time></trkpt><trkpt lat="40.89598991493974" lon="8.823468849867666"><ele>106.0</ele><time>2026-04-04T15:32:36.001Z</time></trkpt><trkpt lat="40.896013523174915" lon="8.823343062358987"><ele>106.0</ele><time>2026-04-04T15:32:37.001Z</time></trkpt><trkpt lat="40.89601764188492" lon="8.823181762670433"><ele>106.0</ele><time>2026-04-04T15:32:38.001Z</time></trkpt><trkpt lat="40.89602085567633" lon="8.823029891933347"><ele>106.0</ele><time>2026-04-04T15:32:39.001Z</time></trkpt><trkpt lat="40.89602607845555" lon="8.822893048588085"><ele>106.0</ele><time>2026-04-04T15:32:40.001Z</time></trkpt><trkpt lat="40.896036205717785" lon="8.822770592705314"><ele>104.16666666666667</ele><time>2026-04-04T15:32:41.001Z</time></trkpt><trkpt lat="40.89606414757003" lon="8.822644416694208"><ele>102.33333333333334</ele><time>2026-04-04T15:32:42.001Z</time></trkpt><trkpt lat="40.89610495066056" lon="8.822520572291674"><ele>100.5</ele><time>2026-04-04T15:32:43.001Z</time></trkpt><trkpt lat="40.8961347455125" lon="8.822412580059817"><ele>98.66666666666667</ele><time>2026-04-04T15:32:44.001Z</time></trkpt><trkpt lat="40.89616730487152" lon="8.822324059755879"><ele>96.83333333333334</ele><time>2026-04-04T15:32:45.001Z</time></trkpt><trkpt lat="40.89621503893661" lon="8.822233398133699"><ele>95.0</ele><time>2026-04-04T15:32:46.001Z</time></trkpt><trkpt lat="40.896269155385646" lon="8.82217143252199"><ele>95.0</ele><time>2026-04-04T15:32:47.001Z</time></trkpt><trkpt lat="40.89632614578059" lon="8.822121035700727"><ele>95.0</ele><time>2026-04-04T15:32:48.001Z</time></trkpt><trkpt lat="40.89640090216982" lon="8.822092704649597"><ele>95.0</ele><time>2026-04-04T15:32:49.001Z</time></trkpt><trkpt lat="40.89649554061641" lon="8.822053027695384"><ele>95.0</ele><time>2026-04-04T15:32:50.001Z</time></trkpt><trkpt lat="40.89659041947653" lon="8.822012390690714"><ele>95.0</ele><time>2026-04-04T15:32:51.001Z</time></trkpt><trkpt lat="40.896683305144386" lon="8.821991071475379"><ele>95.0</ele><time>2026-04-04T15:32:52.001Z</time></trkpt><trkpt lat="40.89678676572674" lon="8.82196786071254"><ele>94.5</ele><time>2026-04-04T15:32:53.001Z</time></trkpt><trkpt lat="40.89690315145861" lon="8.821930261787463"><ele>94.0</ele><time>2026-04-04T15:32:54.001Z</time></trkpt><trkpt lat="40.89702280593174" lon="8.821875297304006"><ele>93.5</ele><time>2026-04-04T15:32:55.001Z</time></trkpt><trkpt lat="40.89714264124489" lon="8.821824204342068"><ele>93.0</ele><time>2026-04-04T15:32:56.001Z</time></trkpt><trkpt lat="40.89725832726403" lon="8.821767480494795"><ele>92.4</ele><time>2026-04-04T15:32:57Z</time></trkpt><trkpt lat="40.897360542322275" lon="8.821714727397682"><ele>91.80000000000001</ele><time>2026-04-04T15:32:58Z</time></trkpt><trkpt lat="40.89745326896183" lon="8.821661846520232"><ele>91.2</ele><time>2026-04-04T15:32:59Z</time></trkpt><trkpt lat="40.89753507882201" lon="8.821577815046812"><ele>90.6</ele><time>2026-04-04T15:33:00Z</time></trkpt><trkpt lat="40.89761496532467" lon="8.821473453516832"><ele>90.0</ele><time>2026-04-04T15:33:01Z</time></trkpt><trkpt lat="40.897705517736114" lon="8.821370683321007"><ele>90.0</ele><time>2026-04-04T15:33:02Z</time></trkpt><trkpt lat="40.8977987793856" lon="8.821273196548413"><ele>90.0</ele><time>2026-04-04T15:33:03Z</time></trkpt><trkpt lat="40.89788657620229" lon="8.821175203143838"><ele>90.0</ele><time>2026-04-04T15:33:04Z</time></trkpt><trkpt lat="40.897966025602045" lon="8.821071465985035"><ele>90.0</ele><time>2026-04-04T15:33:05Z</time></trkpt><trkpt lat="40.89803068621077" lon="8.820968437496708"><ele>90.0</ele><time>2026-04-04T15:33:06Z</time></trkpt><trkpt lat="40.898079940764156" lon="8.820865151709945"><ele>88.4</ele><time>2026-04-04T15:33:07Z</time></trkpt><trkpt lat="40.898114286044354" lon="8.820753937686785"><ele>86.8</ele><time>2026-04-04T15:33:08Z</time></trkpt><trkpt lat="40.898143388276424" lon="8.820617903312096"><ele>85.19999999999999</ele><time>2026-04-04T15:33:09Z</time></trkpt><trkpt lat="40.89817696240724" lon="8.820473806640951"><ele>83.6</ele><time>2026-04-04T15:33:10Z</time></trkpt><trkpt lat="40.89821291019705" lon="8.820320887114866"><ele>82.0</ele><time>2026-04-04T15:33:11Z</time></trkpt><trkpt lat="40.898242902242856" lon="8.820170059044223"><ele>81.75</ele><time>2026-04-04T15:33:12Z</time></trkpt><trkpt lat="40.898265144815966" lon="8.820021699236273"><ele>81.5</ele><time>2026-04-04T15:33:13Z</time></trkpt><trkpt lat="40.89828105055284" lon="8.819869074236163"><ele>81.25</ele><time>2026-04-04T15:33:14Z</time></trkpt><trkpt lat="40.898296338820096" lon="8.819719520447473"><ele>81.0</ele><time>2026-04-04T15:33:15Z</time></trkpt><trkpt lat="40.89831273082888" lon="8.819582347022914"><ele>81.0</ele><time>2026-04-04T15:33:16Z</time></trkpt><trkpt lat="40.89833264816516" lon="8.819437243851192"><ele>81.0</ele><time>2026-04-04T15:33:17Z</time></trkpt><trkpt lat="40.89834913817034" lon="8.819295501227625"><ele>81.0</ele><time>2026-04-04T15:33:18Z</time></trkpt><trkpt lat="40.89835747885482" lon="8.81917060648883"><ele>81.0</ele><time>2026-04-04T15:33:19Z</time></trkpt><trkpt lat="40.89835784764514" lon="8.819055841912249"><ele>81.0</ele><time>2026-04-04T15:33:20Z</time></trkpt><trkpt lat="40.89833892757635" lon="8.818938807033824"><ele>79.6</ele><time>2026-04-04T15:33:21Z</time></trkpt><trkpt lat="40.89830511026547" lon="8.8188012183166"><ele>78.19999999999999</ele><time>2026-04-04T15:33:22Z</time></trkpt><trkpt lat="40.89825631038676" lon="8.818667474825096"><ele>76.80000000000001</ele><time>2026-04-04T15:33:23Z</time></trkpt><trkpt lat="40.89822456854655" lon="8.818553311641546"><ele>75.4</ele><time>2026-04-04T15:33:24Z</time></trkpt><trkpt lat="40.89821454621742" lon="8.81845148363122"><ele>74.0</ele><time>2026-04-04T15:33:25Z</time></trkpt><trkpt lat="40.89821905620549" lon="8.818351781840912"><ele>73.0</ele><time>2026-04-04T15:33:26Z</time></trkpt><trkpt lat="40.89823842035109" lon="8.818253244338308"><ele>72.0</ele><time>2026-04-04T15:33:27Z</time></trkpt><trkpt lat="40.898276643321225" lon="8.818161333169991"><ele>71.0</ele><time>2026-04-04T15:33:28Z</time></trkpt><trkpt lat="40.898351497651696" lon="8.818072669384733"><ele>70.0</ele><time>2026-04-04T15:33:29Z</time></trkpt><trkpt lat="40.89844063586617" lon="8.817977599797194"><ele>69.0</ele><time>2026-04-04T15:33:30Z</time></trkpt><trkpt lat="40.89851184854403" lon="8.817893386166443"><ele>69.4</ele><time>2026-04-04T15:33:31Z</time></trkpt><trkpt lat="40.89857438753073" lon="8.81780555412823"><ele>69.80000000000001</ele><time>2026-04-04T15:33:32Z</time></trkpt><trkpt lat="40.89864667557641" lon="8.817716811499764"><ele>70.19999999999999</ele><time>2026-04-04T15:33:33Z</time></trkpt><trkpt lat="40.89871452818377" lon="8.817621046278775"><ele>70.6</ele><time>2026-04-04T15:33:34Z</time></trkpt><trkpt lat="40.89877773505668" lon="8.817507428449613"><ele>71.0</ele><time>2026-04-04T15:33:35Z</time></trkpt><trkpt lat="40.8988361393268" lon="8.81737967169784"><ele>71.0</ele><time>2026-04-04T15:33:36Z</time></trkpt><trkpt lat="40.89887891683988" lon="8.817257355160365"><ele>71.0</ele><time>2026-04-04T15:33:37Z</time></trkpt><trkpt lat="40.89892452045432" lon="8.817164612401047"><ele>71.0</ele><time>2026-04-04T15:33:38Z</time></trkpt><trkpt lat="40.89898944387639" lon="8.817084544227962"><ele>71.0</ele><time>2026-04-04T15:33:39Z</time></trkpt><trkpt lat="40.89907732408813" lon="8.816996734323912"><ele>71.0</ele><time>2026-04-04T15:33:40Z</time></trkpt><trkpt lat="40.89916187657944" lon="8.816928083555139"><ele>71.0</ele><time>2026-04-04T15:33:41Z</time></trkpt><trkpt lat="40.89922192781369" lon="8.81687249278782"><ele>71.0</ele><time>2026-04-04T15:33:42Z</time></trkpt><trkpt lat="40.89926670899872" lon="8.81677757381378"><ele>71.0</ele><time>2026-04-04T15:33:43Z</time></trkpt><trkpt lat="40.8992949049209" lon="8.81663069464661"><ele>71.0</ele><time>2026-04-04T15:33:44Z</time></trkpt><trkpt lat="40.8993085962021" lon="8.81646868650855"><ele>71.0</ele><time>2026-04-04T15:33:45Z</time></trkpt><trkpt lat="40.899335430848915" lon="8.81631360664795"><ele>71.0</ele><time>2026-04-04T15:33:46Z</time></trkpt><trkpt lat="40.89938129149726" lon="8.816175229418576"><ele>71.0</ele><time>2026-04-04T15:33:47Z</time></trkpt><trkpt lat="40.899433038496916" lon="8.81604781563204"><ele>71.0</ele><time>2026-04-04T15:33:48Z</time></trkpt><trkpt lat="40.899486794517586" lon="8.815931296685871"><ele>71.0</ele><time>2026-04-04T15:33:49Z</time></trkpt><trkpt lat="40.899552344266446" lon="8.815814071505015"><ele>71.0</ele><time>2026-04-04T15:33:50Z</time></trkpt><trkpt lat="40.89962853616155" lon="8.815708421812905"><ele>71.0</ele><time>2026-04-04T15:33:51Z</time></trkpt><trkpt lat="40.89971401922609" lon="8.815609327684799"><ele>71.0</ele><time>2026-04-04T15:33:52Z</time></trkpt><trkpt lat="40.89980937101856" lon="8.815513865849258"><ele>71.0</ele><time>2026-04-04T15:33:53Z</time></trkpt><trkpt lat="40.89990831734407" lon="8.815419985843945"><ele>71.0</ele><time>2026-04-04T15:33:54Z</time></trkpt><trkpt lat="40.89999479440519" lon="8.815324600903438"><ele>71.0</ele><time>2026-04-04T15:33:55Z</time></trkpt><trkpt lat="40.90006684187397" lon="8.815247378635606"><ele>71.0</ele><time>2026-04-04T15:33:56Z</time></trkpt><trkpt lat="40.900147144290294" lon="8.815183922959571"><ele>71.0</ele><time>2026-04-04T15:33:57Z</time></trkpt><trkpt lat="40.90024880981224" lon="8.815113685833985"><ele>71.0</ele><time>2026-04-04T15:33:58Z</time></trkpt><trkpt lat="40.90035084044407" lon="8.815018573527386"><ele>71.0</ele><time>2026-04-04T15:33:59Z</time></trkpt><trkpt lat="40.9004477057295" lon="8.814914348498975"><ele>69.75</ele><time>2026-04-04T15:34:00Z</time></trkpt><trkpt lat="40.90055407987807" lon="8.81483071006506"><ele>68.5</ele><time>2026-04-04T15:34:01Z</time></trkpt><trkpt lat="40.900667679256394" lon="8.814763420270811"><ele>67.25</ele><time>2026-04-04T15:34:02Z</time></trkpt><trkpt lat="40.9007776025353" lon="8.814704152567916"><ele>66.0</ele><time>2026-04-04T15:34:03Z</time></trkpt><trkpt lat="40.90087836468675" lon="8.81465198915723"><ele>67.0</ele><time>2026-04-04T15:34:04Z</time></trkpt><trkpt lat="40.90097383260361" lon="8.814611283318865"><ele>68.0</ele><time>2026-04-04T15:34:05Z</time></trkpt><trkpt lat="40.901074203261864" lon="8.814558642072523"><ele>69.0</ele><time>2026-04-04T15:34:06Z</time></trkpt><trkpt lat="40.90117605821268" lon="8.814500160975287"><ele>70.0</ele><time>2026-04-04T15:34:07Z</time></trkpt><trkpt lat="40.90128513812354" lon="8.814437067486448"><ele>71.0</ele><time>2026-04-04T15:34:08Z</time></trkpt><trkpt lat="40.901404173091976" lon="8.814366047979975"><ele>68.0</ele><time>2026-04-04T15:34:09Z</time></trkpt><trkpt lat="40.90151864642614" lon="8.814290841276177"><ele>65.0</ele><time>2026-04-04T15:34:10.001Z</time></trkpt><trkpt lat="40.90161932154257" lon="8.8142342396473"><ele>61.99999999999999</ele><time>2026-04-04T15:34:11.001Z</time></trkpt><trkpt lat="40.90169994176248" lon="8.81416828729093"><ele>59.0</ele><time>2026-04-04T15:34:12.001Z</time></trkpt><trkpt lat="40.901765255750824" lon="8.814114900279163"><ele>56.0</ele><time>2026-04-04T15:34:13.001Z</time></trkpt><trkpt lat="40.90186743555065" lon="8.814072904229363"><ele>55.50000000000001</ele><time>2026-04-04T15:34:15.001Z</time></trkpt><trkpt lat="40.901992537552054" lon="8.814037845485192"><ele>55.0</ele><time>2026-04-04T15:34:17.001Z</time></trkpt><trkpt lat="40.90207414670758" lon="8.81402038816149"><ele>54.5</ele><time>2026-04-04T15:34:18.001Z</time></trkpt><trkpt lat="40.90215100812193" lon="8.814007807167895"><ele>54.0</ele><time>2026-04-04T15:34:19.001Z</time></trkpt><trkpt lat="40.90223239567674" lon="8.81399509189469"><ele>53.50000000000001</ele><time>2026-04-04T15:34:20.001Z</time></trkpt><trkpt lat="40.90230846207082" lon="8.813991021330171"><ele>53.0</ele><time>2026-04-04T15:34:21.001Z</time></trkpt><trkpt lat="40.90238573964208" lon="8.813998981429387"><ele>53.00000000000001</ele><time>2026-04-04T15:34:22.001Z</time></trkpt><trkpt lat="40.90245788050112" lon="8.814011820977829"><ele>53.0</ele><time>2026-04-04T15:34:23.001Z</time></trkpt><trkpt lat="40.902537218720674" lon="8.8140212188922"><ele>53.0</ele><time>2026-04-04T15:34:24.001Z</time></trkpt><trkpt lat="40.90262078941697" lon="8.814036493228416"><ele>53.0</ele><time>2026-04-04T15:34:25.001Z</time></trkpt><trkpt lat="40.90270461323861" lon="8.814066570116719"><ele>53.00000000000001</ele><time>2026-04-04T15:34:26.001Z</time></trkpt><trkpt lat="40.90279344310291" lon="8.814097302069682"><ele>53.0</ele><time>2026-04-04T15:34:27.001Z</time></trkpt><trkpt lat="40.902891284183625" lon="8.814123341132847"><ele>51.8</ele><time>2026-04-04T15:34:28.001Z</time></trkpt><trkpt lat="40.902984245190076" lon="8.81415155860483"><ele>50.599999999999994</ele><time>2026-04-04T15:34:29.001Z</time></trkpt><trkpt lat="40.90307059345821" lon="8.81415867986353"><ele>49.400000000000006</ele><time>2026-04-04T15:34:30.001Z</time></trkpt><trkpt lat="40.90317010719411" lon="8.814143106618598"><ele>48.2</ele><time>2026-04-04T15:34:31.001Z</time></trkpt><trkpt lat="40.903276342838105" lon="8.814099859661487"><ele>47.0</ele><time>2026-04-04T15:34:32.001Z</time></trkpt><trkpt lat="40.90336230137322" lon="8.814057263612671"><ele>45.4</ele><time>2026-04-04T15:34:33.001Z</time></trkpt><trkpt lat="40.903456057383735" lon="8.814011720218339"><ele>43.800000000000004</ele><time>2026-04-04T15:34:34.001Z</time></trkpt><trkpt lat="40.903531722581526" lon="8.813956368710613"><ele>42.2</ele><time>2026-04-04T15:34:35.001Z</time></trkpt><trkpt lat="40.90359928744637" lon="8.813922980058098"><ele>40.6</ele><time>2026-04-04T15:34:37.001Z</time></trkpt><trkpt lat="40.903713751680854" lon="8.814014697968242"><ele>39.0</ele><time>2026-04-04T15:34:39.001Z</time></trkpt><trkpt lat="40.903791910568614" lon="8.814048735446212"><ele>39.0</ele><time>2026-04-04T15:34:40.001Z</time></trkpt><trkpt lat="40.90388063099361" lon="8.814056307585926"><ele>39.0</ele><time>2026-04-04T15:34:41.001Z</time></trkpt><trkpt lat="40.90395616747515" lon="8.814056793327595"><ele>39.0</ele><time>2026-04-04T15:34:42.001Z</time></trkpt><trkpt lat="40.904021322837536" lon="8.814048481296048"><ele>39.0</ele><time>2026-04-04T15:34:43.001Z</time></trkpt><trkpt lat="40.90411152424317" lon="8.81399910691613"><ele>39.0</ele><time>2026-04-04T15:34:45.001Z</time></trkpt><trkpt lat="40.904167062012455" lon="8.813945543592483"><ele>39.0</ele><time>2026-04-04T15:34:46.001Z</time></trkpt><trkpt lat="40.904243275107476" lon="8.813881432430016"><ele>38.6</ele><time>2026-04-04T15:34:47.001Z</time></trkpt><trkpt lat="40.90431718480095" lon="8.81381667612436"><ele>38.2</ele><time>2026-04-04T15:34:48.001Z</time></trkpt><trkpt lat="40.90439670937428" lon="8.813733461860728"><ele>37.800000000000004</ele><time>2026-04-04T15:34:49.001Z</time></trkpt><trkpt lat="40.9044844329889" lon="8.813635351711197"><ele>37.4</ele><time>2026-04-04T15:34:50.001Z</time></trkpt><trkpt lat="40.90456839718294" lon="8.813552036032497"><ele>37.0</ele><time>2026-04-04T15:34:51.001Z</time></trkpt><trkpt lat="40.90464980062546" lon="8.81348901497553"><ele>36.6</ele><time>2026-04-04T15:34:52.001Z</time></trkpt><trkpt lat="40.90472579346307" lon="8.813422258121271"><ele>36.2</ele><time>2026-04-04T15:34:53.001Z</time></trkpt><trkpt lat="40.9048035709468" lon="8.813359251609572"><ele>35.8</ele><time>2026-04-04T15:34:54.001Z</time></trkpt><trkpt lat="40.90488584087606" lon="8.813317685044414"><ele>35.4</ele><time>2026-04-04T15:34:55.001Z</time></trkpt><trkpt lat="40.90497554732307" lon="8.813280565153734"><ele>35.0</ele><time>2026-04-04T15:34:56.001Z</time></trkpt><trkpt lat="40.905060710945" lon="8.813240495507804"><ele>34.8</ele><time>2026-04-04T15:34:57.001Z</time></trkpt><trkpt lat="40.90514589482635" lon="8.813196193101124"><ele>34.6</ele><time>2026-04-04T15:34:58.001Z</time></trkpt><trkpt lat="40.905229611639285" lon="8.813147210950458"><ele>34.4</ele><time>2026-04-04T15:34:59.001Z</time></trkpt><trkpt lat="40.90531451254353" lon="8.813084851750224"><ele>34.2</ele><time>2026-04-04T15:35:00.001Z</time></trkpt><trkpt lat="40.90539547960432" lon="8.81301538755784"><ele>34.0</ele><time>2026-04-04T15:35:01.001Z</time></trkpt><trkpt lat="40.905489812779855" lon="8.812920488206066"><ele>34.0</ele><time>2026-04-04T15:35:02.001Z</time></trkpt><trkpt lat="40.90560095667735" lon="8.81280764986828"><ele>34.0</ele><time>2026-04-04T15:35:03Z</time></trkpt><trkpt lat="40.905726962801346" lon="8.812704342094303"><ele>34.0</ele><time>2026-04-04T15:35:04Z</time></trkpt><trkpt lat="40.90586276549964" lon="8.812610657599649"><ele>34.0</ele><time>2026-04-04T15:35:05Z</time></trkpt><trkpt lat="40.905999058106104" lon="8.812515436188292"><ele>35.25</ele><time>2026-04-04T15:35:06Z</time></trkpt><trkpt lat="40.906122600522295" lon="8.812425615106314"><ele>36.5</ele><time>2026-04-04T15:35:07Z</time></trkpt><trkpt lat="40.906233596226215" lon="8.812351783735535"><ele>37.75</ele><time>2026-04-04T15:35:08Z</time></trkpt><trkpt lat="40.90634061751929" lon="8.812292442874254"><ele>39.0</ele><time>2026-04-04T15:35:09Z</time></trkpt><trkpt lat="40.90642520977201" lon="8.812254507926877"><ele>39.0</ele><time>2026-04-04T15:35:10Z</time></trkpt><trkpt lat="40.90650424544201" lon="8.812239108852664"><ele>39.0</ele><time>2026-04-04T15:35:11Z</time></trkpt><trkpt lat="40.90657935053312" lon="8.81225326110867"><ele>39.0</ele><time>2026-04-04T15:35:12Z</time></trkpt><trkpt lat="40.906640835415544" lon="8.812298463107908"><ele>39.0</ele><time>2026-04-04T15:35:13Z</time></trkpt><trkpt lat="40.90666242412147" lon="8.812420660932233"><ele>39.0</ele><time>2026-04-04T15:35:14Z</time></trkpt><trkpt lat="40.906727877220746" lon="8.812496828934547"><ele>39.0</ele><time>2026-04-04T15:35:15Z</time></trkpt><trkpt lat="40.90679408366884" lon="8.812563603822232"><ele>41.5</ele><time>2026-04-04T15:35:16Z</time></trkpt><trkpt lat="40.90688167853423" lon="8.812611382494344"><ele>44.0</ele><time>2026-04-04T15:35:17Z</time></trkpt><trkpt lat="40.906963943865236" lon="8.81255375183752"><ele>46.5</ele><time>2026-04-04T15:35:19Z</time></trkpt><trkpt lat="40.90698113504568" lon="8.8124309477836"><ele>49.0</ele><time>2026-04-04T15:35:20Z</time></trkpt><trkpt lat="40.907010665727995" lon="8.812329931888861"><ele>51.5</ele><time>2026-04-04T15:35:21Z</time></trkpt><trkpt lat="40.907058163915245" lon="8.812252337207031"><ele>54.0</ele><time>2026-04-04T15:35:22Z</time></trkpt><trkpt lat="40.907124376169556" lon="8.812151500363031"><ele>54.0</ele><time>2026-04-04T15:35:23Z</time></trkpt><trkpt lat="40.90719640939209" lon="8.812057037785754"><ele>54.00000000000001</ele><time>2026-04-04T15:35:24Z</time></trkpt><trkpt lat="40.907270161204686" lon="8.811968765076264"><ele>54.00000000000001</ele><time>2026-04-04T15:35:25Z</time></trkpt><trkpt lat="40.907344271391345" lon="8.811896466191042"><ele>54.0</ele><time>2026-04-04T15:35:26Z</time></trkpt><trkpt lat="40.907432897282774" lon="8.811807575186513"><ele>54.0</ele><time>2026-04-04T15:35:27Z</time></trkpt><trkpt lat="40.90752445425536" lon="8.81165823533376"><ele>57.0</ele><time>2026-04-04T15:35:28Z</time></trkpt><trkpt lat="40.90761419991325" lon="8.811519987974828"><ele>60.0</ele><time>2026-04-04T15:35:29Z</time></trkpt><trkpt lat="40.90768152585042" lon="8.811396782645856"><ele>63.0</ele><time>2026-04-04T15:35:30Z</time></trkpt><trkpt lat="40.90774350322073" lon="8.811266435699615"><ele>66.0</ele><time>2026-04-04T15:35:31Z</time></trkpt><trkpt lat="40.907799174125785" lon="8.811138192732331"><ele>66.0</ele><time>2026-04-04T15:35:32Z</time></trkpt><trkpt lat="40.90785210699869" lon="8.811040074056384"><ele>66.0</ele><time>2026-04-04T15:35:33Z</time></trkpt><trkpt lat="40.90790445152519" lon="8.810977847925503"><ele>66.0</ele><time>2026-04-04T15:35:34Z</time></trkpt><trkpt lat="40.907989872924865" lon="8.810919699441413"><ele>66.0</ele><time>2026-04-04T15:35:35Z</time></trkpt><trkpt lat="40.90808226599343" lon="8.810850516503862"><ele>66.0</ele><time>2026-04-04T15:35:36Z</time></trkpt><trkpt lat="40.90814801700372" lon="8.810785212336535"><ele>66.0</ele><time>2026-04-04T15:35:37Z</time></trkpt><trkpt lat="40.90818828952101" lon="8.810656078196216"><ele>66.2</ele><time>2026-04-04T15:35:39Z</time></trkpt><trkpt lat="40.90817704575348" lon="8.810564587141053"><ele>66.39999999999999</ele><time>2026-04-04T15:35:40Z</time></trkpt><trkpt lat="40.908134902818965" lon="8.810464553162939"><ele>66.6</ele><time>2026-04-04T15:35:41Z</time></trkpt><trkpt lat="40.908079300100646" lon="8.810368109182793"><ele>66.8</ele><time>2026-04-04T15:35:42Z</time></trkpt><trkpt lat="40.90808630328203" lon="8.810260115997384"><ele>67.0</ele><time>2026-04-04T15:35:43Z</time></trkpt><trkpt lat="40.90809993712929" lon="8.81008891810474"><ele>67.0</ele><time>2026-04-04T15:35:45Z</time></trkpt><trkpt lat="40.90813175143401" lon="8.809983862453787"><ele>67.0</ele><time>2026-04-04T15:35:46Z</time></trkpt><trkpt lat="40.908180301228455" lon="8.809848384483315"><ele>67.0</ele><time>2026-04-04T15:35:47Z</time></trkpt><trkpt lat="40.90823002608911" lon="8.809706274231809"><ele>67.0</ele><time>2026-04-04T15:35:48Z</time></trkpt><trkpt lat="40.90827070265883" lon="8.80958877995776"><ele>67.0</ele><time>2026-04-04T15:35:49Z</time></trkpt><trkpt lat="40.908300404462366" lon="8.80950146274859"><ele>67.0</ele><time>2026-04-04T15:35:50Z</time></trkpt><trkpt lat="40.90832696113207" lon="8.80942173642053"><ele>67.0</ele><time>2026-04-04T15:35:51Z</time></trkpt><trkpt lat="40.90836284352515" lon="8.809314013147004"><ele>67.0</ele><time>2026-04-04T15:35:52Z</time></trkpt><trkpt lat="40.90840181374187" lon="8.809194645339074"><ele>67.0</ele><time>2026-04-04T15:35:53Z</time></trkpt><trkpt lat="40.90844278512589" lon="8.80906352566512"><ele>67.0</ele><time>2026-04-04T15:35:54Z</time></trkpt><trkpt lat="40.908486458740356" lon="8.808926607681862"><ele>67.4</ele><time>2026-04-04T15:35:55Z</time></trkpt><trkpt lat="40.908530866869555" lon="8.808789829203203"><ele>67.80000000000001</ele><time>2026-04-04T15:35:56Z</time></trkpt><trkpt lat="40.90857332318423" lon="8.808659062365338"><ele>68.2</ele><time>2026-04-04T15:35:57Z</time></trkpt><trkpt lat="40.90859719775582" lon="8.808538550930688"><ele>68.60000000000001</ele><time>2026-04-04T15:35:58Z</time></trkpt><trkpt lat="40.908639228921096" lon="8.808443863582374"><ele>69.0</ele><time>2026-04-04T15:35:59Z</time></trkpt><trkpt lat="40.90867083991297" lon="8.808363778636267"><ele>69.0</ele><time>2026-04-04T15:36:00Z</time></trkpt><trkpt lat="40.908705132117326" lon="8.80828961722264"><ele>69.0</ele><time>2026-04-04T15:36:01Z</time></trkpt><trkpt lat="40.90878561311228" lon="8.80818745581287"><ele>69.0</ele><time>2026-04-04T15:36:03Z</time></trkpt><trkpt lat="40.90887545191982" lon="8.808211701182293"><ele>69.0</ele><time>2026-04-04T15:36:04Z</time></trkpt><trkpt lat="40.90896892637812" lon="8.808217643382738"><ele>69.0</ele><time>2026-04-04T15:36:06Z</time></trkpt><trkpt lat="40.90903181490656" lon="8.808224386391858"><ele>69.0</ele><time>2026-04-04T15:36:28.001Z</time></trkpt><trkpt lat="40.9090743600739" lon="8.808020393399989"><ele>69.0</ele><time>2026-04-04T15:36:29.001Z</time></trkpt><trkpt lat="40.909038965285326" lon="8.807842152239209"><ele>69.0</ele><time>2026-04-04T15:36:31.001Z</time></trkpt><trkpt lat="40.90901099611047" lon="8.807704482861249"><ele>69.0</ele><time>2026-04-04T15:36:32.001Z</time></trkpt><trkpt lat="40.908980904302766" lon="8.807556365453555"><ele>69.0</ele><time>2026-04-04T15:36:33.001Z</time></trkpt><trkpt lat="40.908947816271755" lon="8.807391404208886"><ele>69.2</ele><time>2026-04-04T15:36:34.001Z</time></trkpt><trkpt lat="40.90891776895177" lon="8.807240717484163"><ele>69.4</ele><time>2026-04-04T15:36:35.001Z</time></trkpt><trkpt lat="40.90889194893283" lon="8.807111230599908"><ele>69.6</ele><time>2026-04-04T15:36:36.001Z</time></trkpt><trkpt lat="40.90887090159438" lon="8.807005678566044"><ele>69.8</ele><time>2026-04-04T15:36:37.001Z</time></trkpt><trkpt lat="40.90885183790658" lon="8.806910074537933"><ele>70.0</ele><time>2026-04-04T15:36:38.001Z</time></trkpt><trkpt lat="40.90883125035156" lon="8.806806828338468"><ele>70.2</ele><time>2026-04-04T15:36:39.001Z</time></trkpt><trkpt lat="40.908808176576905" lon="8.806691173219937"><ele>70.4</ele><time>2026-04-04T15:36:40.001Z</time></trkpt><trkpt lat="40.90878450031229" lon="8.806573129366113"><ele>70.6</ele><time>2026-04-04T15:36:41.001Z</time></trkpt><trkpt lat="40.90876149083067" lon="8.806458409947838"><ele>70.8</ele><time>2026-04-04T15:36:42.001Z</time></trkpt><trkpt lat="40.90873822573366" lon="8.806342416096813"><ele>71.0</ele><time>2026-04-04T15:36:43.001Z</time></trkpt><trkpt lat="40.9087130209392" lon="8.806217707545336"><ele>71.0</ele><time>2026-04-04T15:36:44.001Z</time></trkpt><trkpt lat="40.90868712560143" lon="8.806092749287405"><ele>71.0</ele><time>2026-04-04T15:36:45.001Z</time></trkpt><trkpt lat="40.90866183579586" lon="8.805970713034569"><ele>71.0</ele><time>2026-04-04T15:36:46.001Z</time></trkpt><trkpt lat="40.908635662009026" lon="8.805844411150693"><ele>71.0</ele><time>2026-04-04T15:36:47.001Z</time></trkpt><trkpt lat="40.908614672195476" lon="8.805735803064394"><ele>71.0</ele><time>2026-04-04T15:36:48.001Z</time></trkpt><trkpt lat="40.90859687232838" lon="8.805643772499465"><ele>71.0</ele><time>2026-04-04T15:36:49.001Z</time></trkpt><trkpt lat="40.90858031647778" lon="8.805558173847135"><ele>71.16666666666667</ele><time>2026-04-04T15:36:50.001Z</time></trkpt><trkpt lat="40.908549705932494" lon="8.805402705659905"><ele>71.33333333333334</ele><time>2026-04-04T15:36:52.001Z</time></trkpt><trkpt lat="40.908526145979934" lon="8.805289028915725"><ele>71.5</ele><time>2026-04-04T15:36:54.001Z</time></trkpt><trkpt lat="40.90850835011479" lon="8.80520316385738"><ele>71.66666666666667</ele><time>2026-04-04T15:36:56.001Z</time></trkpt><trkpt lat="40.908491101371474" lon="8.805120992331291"><ele>71.83333333333333</ele><time>2026-04-04T15:40:03Z</time></trkpt><trkpt lat="40.90846158015044" lon="8.805005869151694"><ele>72.0</ele><time>2026-04-04T15:40:06Z</time></trkpt><trkpt lat="40.90843643619062" lon="8.804884143015366"><ele>72.8</ele><time>2026-04-04T15:40:08Z</time></trkpt><trkpt lat="40.90841632658582" lon="8.804759301447028"><ele>73.6</ele><time>2026-04-04T15:40:10Z</time></trkpt><trkpt lat="40.90841454877461" lon="8.804586155488156"><ele>74.39999999999999</ele><time>2026-04-04T15:40:12Z</time></trkpt><trkpt lat="40.90842449047882" lon="8.804483441260698"><ele>75.2</ele><time>2026-04-04T15:40:13Z</time></trkpt><trkpt lat="40.908430668140994" lon="8.804379064762115"><ele>76.0</ele><time>2026-04-04T15:40:14Z</time></trkpt><trkpt lat="40.90843238762347" lon="8.804276842688699"><ele>76.0</ele><time>2026-04-04T15:40:15Z</time></trkpt><trkpt lat="40.90843880174934" lon="8.80417519234955"><ele>76.0</ele><time>2026-04-04T15:40:16Z</time></trkpt><trkpt lat="40.90844639309637" lon="8.804072255580678"><ele>76.0</ele><time>2026-04-04T15:40:17Z</time></trkpt><trkpt lat="40.9084611071863" lon="8.803961261165803"><ele>76.0</ele><time>2026-04-04T15:40:18Z</time></trkpt><trkpt lat="40.90846852738585" lon="8.803850104751916"><ele>76.0</ele><time>2026-04-04T15:40:19Z</time></trkpt><trkpt lat="40.90847838318841" lon="8.803739429051964"><ele>76.0</ele><time>2026-04-04T15:40:20Z</time></trkpt><trkpt lat="40.90849071575385" lon="8.80362691251539"><ele>76.0</ele><time>2026-04-04T15:40:21Z</time></trkpt><trkpt lat="40.908503096750586" lon="8.80350339398858"><ele>76.0</ele><time>2026-04-04T15:40:22Z</time></trkpt><trkpt lat="40.908518539520095" lon="8.803374886357805"><ele>76.0</ele><time>2026-04-04T15:40:23Z</time></trkpt><trkpt lat="40.90852745579372" lon="8.803238459313803"><ele>76.0</ele><time>2026-04-04T15:40:24Z</time></trkpt><trkpt lat="40.908552756214384" lon="8.80309941159785"><ele>76.0</ele><time>2026-04-04T15:40:25Z</time></trkpt><trkpt lat="40.90855643570201" lon="8.802950596564196"><ele>76.0</ele><time>2026-04-04T15:40:26Z</time></trkpt><trkpt lat="40.90853379505525" lon="8.8027949930922"><ele>76.0</ele><time>2026-04-04T15:40:27Z</time></trkpt><trkpt lat="40.90852426114994" lon="8.802634231932705"><ele>76.0</ele><time>2026-04-04T15:40:28.001Z</time></trkpt><trkpt lat="40.90850895545755" lon="8.802466700282325"><ele>76.0</ele><time>2026-04-04T15:40:29.001Z</time></trkpt><trkpt lat="40.908497868926595" lon="8.802293439261037"><ele>76.2</ele><time>2026-04-04T15:40:30.001Z</time></trkpt><trkpt lat="40.90848308493296" lon="8.80213788262811"><ele>76.39999999999999</ele><time>2026-04-04T15:40:31.001Z</time></trkpt><trkpt lat="40.908477606328354" lon="8.801990791092779"><ele>76.6</ele><time>2026-04-04T15:40:32.001Z</time></trkpt><trkpt lat="40.90847590935564" lon="8.801853874139525"><ele>76.8</ele><time>2026-04-04T15:40:33.001Z</time></trkpt><trkpt lat="40.908497741706434" lon="8.801719720520493"><ele>77.0</ele><time>2026-04-04T15:40:34.001Z</time></trkpt><trkpt lat="40.90854374156552" lon="8.801593672099965"><ele>77.25</ele><time>2026-04-04T15:40:35.001Z</time></trkpt><trkpt lat="40.90860988190566" lon="8.801472075508947"><ele>77.5</ele><time>2026-04-04T15:40:36.001Z</time></trkpt><trkpt lat="40.90868551803911" lon="8.801349014994049"><ele>77.75</ele><time>2026-04-04T15:40:37.001Z</time></trkpt><trkpt lat="40.90875949659734" lon="8.801213237182225"><ele>78.0</ele><time>2026-04-04T15:40:38.001Z</time></trkpt><trkpt lat="40.9088329906112" lon="8.801075250950417"><ele>78.2</ele><time>2026-04-04T15:40:39.001Z</time></trkpt><trkpt lat="40.908904012148575" lon="8.800945242153219"><ele>78.4</ele><time>2026-04-04T15:40:40.001Z</time></trkpt><trkpt lat="40.90897023127114" lon="8.800824594529592"><ele>78.60000000000001</ele><time>2026-04-04T15:40:41.001Z</time></trkpt><trkpt lat="40.90902938570899" lon="8.800707824369569"><ele>78.8</ele><time>2026-04-04T15:40:42.001Z</time></trkpt><trkpt lat="40.9090802470002" lon="8.800599995320306"><ele>79.0</ele><time>2026-04-04T15:40:43.001Z</time></trkpt><trkpt lat="40.90911897326987" lon="8.800521666765876"><ele>79.0</ele><time>2026-04-04T15:40:44.001Z</time></trkpt><trkpt lat="40.909156898427234" lon="8.80040161560194"><ele>79.0</ele><time>2026-04-04T15:40:46.001Z</time></trkpt><trkpt lat="40.90916585618604" lon="8.800306753542047"><ele>79.0</ele><time>2026-04-04T15:40:48.001Z</time></trkpt><trkpt lat="40.909192213528414" lon="8.800144031895947"><ele>79.0</ele><time>2026-04-04T15:40:50.001Z</time></trkpt><trkpt lat="40.90924500556225" lon="8.800036995417049"><ele>79.0</ele><time>2026-04-04T15:40:51.001Z</time></trkpt><trkpt lat="40.90930755285377" lon="8.799908984566605"><ele>78.5</ele><time>2026-04-04T15:40:52.001Z</time></trkpt><trkpt lat="40.909359107054556" lon="8.799762520637321"><ele>78.0</ele><time>2026-04-04T15:40:53.001Z</time></trkpt><trkpt lat="40.90939811896096" lon="8.799611320005445"><ele>77.5</ele><time>2026-04-04T15:40:54.001Z</time></trkpt><trkpt lat="40.90943146069046" lon="8.799455307847804"><ele>77.0</ele><time>2026-04-04T15:40:55.001Z</time></trkpt><trkpt lat="40.90946490948315" lon="8.799298739457777"><ele>76.6</ele><time>2026-04-04T15:40:56.001Z</time></trkpt><trkpt lat="40.90949788825219" lon="8.799149619753583"><ele>76.2</ele><time>2026-04-04T15:40:57.001Z</time></trkpt><trkpt lat="40.909529334368656" lon="8.79901312173274"><ele>75.8</ele><time>2026-04-04T15:40:58.001Z</time></trkpt><trkpt lat="40.90955849087351" lon="8.798882327444302"><ele>75.4</ele><time>2026-04-04T15:40:59.001Z</time></trkpt><trkpt lat="40.90959002184098" lon="8.798758970850917"><ele>75.0</ele><time>2026-04-04T15:41:00.001Z</time></trkpt><trkpt lat="40.909615914129155" lon="8.798639154846311"><ele>75.0</ele><time>2026-04-04T15:41:01.001Z</time></trkpt><trkpt lat="40.909644431963756" lon="8.79850743980781"><ele>75.0</ele><time>2026-04-04T15:41:02.001Z</time></trkpt><trkpt lat="40.90967852839769" lon="8.798368410374882"><ele>75.0</ele><time>2026-04-04T15:41:03.001Z</time></trkpt><trkpt lat="40.909716724795516" lon="8.79821809733667"><ele>75.0</ele><time>2026-04-04T15:41:04.001Z</time></trkpt><trkpt lat="40.90975148836924" lon="8.798064824576976"><ele>75.0</ele><time>2026-04-04T15:41:05.001Z</time></trkpt><trkpt lat="40.90978808783194" lon="8.797913097630204"><ele>75.0</ele><time>2026-04-04T15:41:06.001Z</time></trkpt><trkpt lat="40.90982195392748" lon="8.797759730027545"><ele>75.0</ele><time>2026-04-04T15:41:07.001Z</time></trkpt><trkpt lat="40.90986036355584" lon="8.797609822408726"><ele>75.0</ele><time>2026-04-04T15:41:08.001Z</time></trkpt><trkpt lat="40.90991667835832" lon="8.797468958062998"><ele>74.75</ele><time>2026-04-04T15:41:09.001Z</time></trkpt><trkpt lat="40.90995752499845" lon="8.797321934662321"><ele>74.5</ele><time>2026-04-04T15:41:10.001Z</time></trkpt><trkpt lat="40.909982789581434" lon="8.79716503347442"><ele>74.25</ele><time>2026-04-04T15:41:11.001Z</time></trkpt><trkpt lat="40.91002149791171" lon="8.797019661721272"><ele>74.0</ele><time>2026-04-04T15:41:12.001Z</time></trkpt><trkpt lat="40.91007781244664" lon="8.796869564462474"><ele>72.25</ele><time>2026-04-04T15:41:13.001Z</time></trkpt><trkpt lat="40.91011502039586" lon="8.796713577158435"><ele>70.5</ele><time>2026-04-04T15:41:14.001Z</time></trkpt><trkpt lat="40.910147938979605" lon="8.796564956840822"><ele>68.75</ele><time>2026-04-04T15:41:15.001Z</time></trkpt><trkpt lat="40.91018024384891" lon="8.796413064309386"><ele>67.0</ele><time>2026-04-04T15:41:16.001Z</time></trkpt><trkpt lat="40.91020621447891" lon="8.796255640062896"><ele>67.0</ele><time>2026-04-04T15:41:17.001Z</time></trkpt><trkpt lat="40.91023517453226" lon="8.796102885216358"><ele>67.0</ele><time>2026-04-04T15:41:18.001Z</time></trkpt><trkpt lat="40.91024947489565" lon="8.795950793360127"><ele>67.0</ele><time>2026-04-04T15:41:19.001Z</time></trkpt><trkpt lat="40.910277882326525" lon="8.795807906403425"><ele>67.0</ele><time>2026-04-04T15:41:20.001Z</time></trkpt><trkpt lat="40.91030494191319" lon="8.795667700468178"><ele>67.2</ele><time>2026-04-04T15:41:21Z</time></trkpt><trkpt lat="40.91032937069976" lon="8.795526869300588"><ele>67.4</ele><time>2026-04-04T15:41:22Z</time></trkpt><trkpt lat="40.910353658885114" lon="8.795389905753018"><ele>67.6</ele><time>2026-04-04T15:41:23Z</time></trkpt><trkpt lat="40.91037664997942" lon="8.795256925445326"><ele>67.8</ele><time>2026-04-04T15:41:24Z</time></trkpt><trkpt lat="40.910412948013914" lon="8.79512844506879"><ele>68.0</ele><time>2026-04-04T15:41:25Z</time></trkpt><trkpt lat="40.910435110851004" lon="8.794995199064028"><ele>68.0</ele><time>2026-04-04T15:41:26Z</time></trkpt><trkpt lat="40.91044579643924" lon="8.794855217244741"><ele>68.0</ele><time>2026-04-04T15:41:27Z</time></trkpt><trkpt lat="40.910441689566156" lon="8.794724491806798"><ele>68.0</ele><time>2026-04-04T15:41:28Z</time></trkpt><trkpt lat="40.91043981014944" lon="8.794596753907133"><ele>68.0</ele><time>2026-04-04T15:41:29Z</time></trkpt><trkpt lat="40.910423662228204" lon="8.794468076469288"><ele>68.0</ele><time>2026-04-04T15:41:30Z</time></trkpt><trkpt lat="40.910444530067856" lon="8.794334263618094"><ele>66.75</ele><time>2026-04-04T15:41:31Z</time></trkpt><trkpt lat="40.91049283907253" lon="8.794182614241489"><ele>65.5</ele><time>2026-04-04T15:41:32Z</time></trkpt><trkpt lat="40.91054965247464" lon="8.794033597980517"><ele>64.25</ele><time>2026-04-04T15:41:33Z</time></trkpt><trkpt lat="40.91062603826517" lon="8.793890821796193"><ele>63.0</ele><time>2026-04-04T15:41:34Z</time></trkpt><trkpt lat="40.910690367019676" lon="8.79372613506604"><ele>63.0</ele><time>2026-04-04T15:41:35Z</time></trkpt><trkpt lat="40.91074803355793" lon="8.793546809889092"><ele>63.0</ele><time>2026-04-04T15:41:36Z</time></trkpt><trkpt lat="40.910802787934095" lon="8.793370268134273"><ele>63.0</ele><time>2026-04-04T15:41:37Z</time></trkpt><trkpt lat="40.91085840890152" lon="8.793204040254345"><ele>63.0</ele><time>2026-04-04T15:41:38Z</time></trkpt><trkpt lat="40.91090990845809" lon="8.793040478371235"><ele>60.75</ele><time>2026-04-04T15:41:39Z</time></trkpt><trkpt lat="40.910946880188" lon="8.792875723418879"><ele>58.5</ele><time>2026-04-04T15:41:40Z</time></trkpt><trkpt lat="40.911015532090886" lon="8.792727678121443"><ele>56.25</ele><time>2026-04-04T15:41:41Z</time></trkpt><trkpt lat="40.91107141038831" lon="8.792564504403247"><ele>54.0</ele><time>2026-04-04T15:41:42Z</time></trkpt><trkpt lat="40.91113348816962" lon="8.792397214882444"><ele>53.25</ele><time>2026-04-04T15:41:43Z</time></trkpt><trkpt lat="40.911191836149634" lon="8.79222338255659"><ele>52.5</ele><time>2026-04-04T15:41:44Z</time></trkpt><trkpt lat="40.911244243317476" lon="8.79204561347353"><ele>51.75</ele><time>2026-04-04T15:41:45Z</time></trkpt><trkpt lat="40.91129212497561" lon="8.791864513426669"><ele>51.0</ele><time>2026-04-04T15:41:46Z</time></trkpt><trkpt lat="40.91133054513721" lon="8.791678594001"><ele>50.5</ele><time>2026-04-04T15:41:47Z</time></trkpt><trkpt lat="40.91136284200294" lon="8.791494670624713"><ele>50.0</ele><time>2026-04-04T15:41:48Z</time></trkpt><trkpt lat="40.911397572461574" lon="8.791315838519111"><ele>49.5</ele><time>2026-04-04T15:41:49Z</time></trkpt><trkpt lat="40.91141775703615" lon="8.791133559327243"><ele>49.0</ele><time>2026-04-04T15:41:50Z</time></trkpt><trkpt lat="40.911447986863635" lon="8.79095635151907"><ele>47.75</ele><time>2026-04-04T15:41:51Z</time></trkpt><trkpt lat="40.911473776628974" lon="8.790779275598464"><ele>46.5</ele><time>2026-04-04T15:41:52Z</time></trkpt><trkpt lat="40.911514852290324" lon="8.790601569433521"><ele>45.25</ele><time>2026-04-04T15:41:53Z</time></trkpt><trkpt lat="40.91152886090804" lon="8.790407515928552"><ele>44.0</ele><time>2026-04-04T15:41:54Z</time></trkpt><trkpt lat="40.91151279871549" lon="8.79021323759093"><ele>43.0</ele><time>2026-04-04T15:41:55Z</time></trkpt><trkpt lat="40.91150979733651" lon="8.79001755465173"><ele>42.0</ele><time>2026-04-04T15:41:56Z</time></trkpt><trkpt lat="40.91149909559743" lon="8.789832886161806"><ele>41.0</ele><time>2026-04-04T15:41:57Z</time></trkpt><trkpt lat="40.91149798138905" lon="8.789658159069337"><ele>40.0</ele><time>2026-04-04T15:41:58Z</time></trkpt><trkpt lat="40.9115188780942" lon="8.789496892486868"><ele>40.0</ele><time>2026-04-04T15:41:59Z</time></trkpt><trkpt lat="40.911572941203126" lon="8.78934031068935"><ele>40.0</ele><time>2026-04-04T15:42:00Z</time></trkpt><trkpt lat="40.91165167181271" lon="8.78919076078637"><ele>40.0</ele><time>2026-04-04T15:42:01Z</time></trkpt><trkpt lat="40.91174755006943" lon="8.789048287158327"><ele>40.0</ele><time>2026-04-04T15:42:02Z</time></trkpt><trkpt lat="40.91184109184603" lon="8.788882542682487"><ele>39.66666666666667</ele><time>2026-04-04T15:42:03Z</time></trkpt><trkpt lat="40.911929618613385" lon="8.788688394382323"><ele>39.333333333333336</ele><time>2026-04-04T15:42:04Z</time></trkpt><trkpt lat="40.91201562595743" lon="8.788492329845333"><ele>39.0</ele><time>2026-04-04T15:42:05Z</time></trkpt><trkpt lat="40.912103192162526" lon="8.788291440210608"><ele>39.0</ele><time>2026-04-04T15:42:06Z</time></trkpt><trkpt lat="40.912191512112024" lon="8.788088138230112"><ele>39.0</ele><time>2026-04-04T15:42:07Z</time></trkpt><trkpt lat="40.91227192350563" lon="8.787910546916928"><ele>39.0</ele><time>2026-04-04T15:42:08Z</time></trkpt><trkpt lat="40.91234668863486" lon="8.787739820991321"><ele>39.333333333333336</ele><time>2026-04-04T15:42:09Z</time></trkpt><trkpt lat="40.91241423039808" lon="8.78755961694795"><ele>39.66666666666667</ele><time>2026-04-04T15:42:10Z</time></trkpt><trkpt lat="40.912471187196466" lon="8.787370421264098"><ele>40.0</ele><time>2026-04-04T15:42:11Z</time></trkpt><trkpt lat="40.91251645642598" lon="8.787174051831927"><ele>40.0</ele><time>2026-04-04T15:42:12Z</time></trkpt><trkpt lat="40.91254837691204" lon="8.786970570617383"><ele>40.0</ele><time>2026-04-04T15:42:13Z</time></trkpt><trkpt lat="40.91257249630476" lon="8.786765701811378"><ele>40.0</ele><time>2026-04-04T15:42:14Z</time></trkpt><trkpt lat="40.912593802555534" lon="8.786561807709937"><ele>40.0</ele><time>2026-04-04T15:42:15Z</time></trkpt><trkpt lat="40.91261191874593" lon="8.786357818301752"><ele>40.0</ele><time>2026-04-04T15:42:16Z</time></trkpt><trkpt lat="40.91262924538266" lon="8.786152851189012"><ele>40.0</ele><time>2026-04-04T15:42:17Z</time></trkpt><trkpt lat="40.912647934551714" lon="8.78594963689756"><ele>40.0</ele><time>2026-04-04T15:42:18Z</time></trkpt><trkpt lat="40.91267362372643" lon="8.785749776812057"><ele>40.0</ele><time>2026-04-04T15:42:19Z</time></trkpt><trkpt lat="40.91270790494802" lon="8.7855559414934"><ele>40.0</ele><time>2026-04-04T15:42:20Z</time></trkpt><trkpt lat="40.91274867172444" lon="8.785368379905913"><ele>40.0</ele><time>2026-04-04T15:42:21Z</time></trkpt><trkpt lat="40.912799113641846" lon="8.785187425827628"><ele>40.0</ele><time>2026-04-04T15:42:22Z</time></trkpt><trkpt lat="40.912858473974225" lon="8.785013116132955"><ele>40.0</ele><time>2026-04-04T15:42:23Z</time></trkpt><trkpt lat="40.91292331973883" lon="8.7848472733447"><ele>40.0</ele><time>2026-04-04T15:42:24Z</time></trkpt><trkpt lat="40.91299099545522" lon="8.784688489601633"><ele>40.75</ele><time>2026-04-04T15:42:25Z</time></trkpt><trkpt lat="40.913060352898874" lon="8.784530571480218"><ele>41.5</ele><time>2026-04-04T15:42:26Z</time></trkpt><trkpt lat="40.91313214615182" lon="8.784370681575885"><ele>42.25</ele><time>2026-04-04T15:42:27Z</time></trkpt><trkpt lat="40.91319932675474" lon="8.784208065318598"><ele>43.0</ele><time>2026-04-04T15:42:28Z</time></trkpt><trkpt lat="40.913258401301874" lon="8.78403692698434"><ele>44.0</ele><time>2026-04-04T15:42:29Z</time></trkpt><trkpt lat="40.9133208690105" lon="8.78386241989831"><ele>45.0</ele><time>2026-04-04T15:42:30Z</time></trkpt><trkpt lat="40.91333865379676" lon="8.783662443975459"><ele>46.0</ele><time>2026-04-04T15:42:31Z</time></trkpt><trkpt lat="40.91336096236193" lon="8.783458330882477"><ele>46.0</ele><time>2026-04-04T15:42:32Z</time></trkpt><trkpt lat="40.913372394418616" lon="8.783242959744417"><ele>46.0</ele><time>2026-04-04T15:42:33.001Z</time></trkpt><trkpt lat="40.913376801045686" lon="8.783028709771983"><ele>46.0</ele><time>2026-04-04T15:42:34.001Z</time></trkpt><trkpt lat="40.913374735758815" lon="8.782809525301492"><ele>45.333333333333336</ele><time>2026-04-04T15:42:35.001Z</time></trkpt><trkpt lat="40.91336725950963" lon="8.782591153857746"><ele>44.666666666666664</ele><time>2026-04-04T15:42:36.001Z</time></trkpt><trkpt lat="40.913358779237356" lon="8.78237269665319"><ele>44.0</ele><time>2026-04-04T15:42:37.001Z</time></trkpt><trkpt lat="40.913346860241205" lon="8.782159773626349"><ele>44.0</ele><time>2026-04-04T15:42:38.001Z</time></trkpt><trkpt lat="40.91335399396595" lon="8.781944834374585"><ele>44.0</ele><time>2026-04-04T15:42:39.001Z</time></trkpt><trkpt lat="40.91335249647893" lon="8.781731527472934"><ele>44.0</ele><time>2026-04-04T15:42:40.001Z</time></trkpt><trkpt lat="40.913356215032316" lon="8.781519989899424"><ele>43.33333333333333</ele><time>2026-04-04T15:42:41.001Z</time></trkpt><trkpt lat="40.91335993009676" lon="8.781307987069242"><ele>42.666666666666664</ele><time>2026-04-04T15:42:42.001Z</time></trkpt><trkpt lat="40.91339292448652" lon="8.781097713336914"><ele>42.0</ele><time>2026-04-04T15:42:43.001Z</time></trkpt><trkpt lat="40.91343215670913" lon="8.780893290848761"><ele>42.2</ele><time>2026-04-04T15:42:44.001Z</time></trkpt><trkpt lat="40.913475745353075" lon="8.780740728400774"><ele>42.400000000000006</ele><time>2026-04-04T15:42:45.001Z</time></trkpt><trkpt lat="40.91349872147298" lon="8.780636349673747"><ele>42.599999999999994</ele><time>2026-04-04T15:42:46.001Z</time></trkpt><trkpt lat="40.91352721623339" lon="8.780506900135363"><ele>42.8</ele><time>2026-04-04T15:42:48.001Z</time></trkpt><trkpt lat="40.91350612255124" lon="8.780602726773795"><ele>43.0</ele><time>2026-04-04T15:43:25.001Z</time></trkpt><trkpt lat="40.913323973562264" lon="8.780552326443527"><ele>43.0</ele><time>2026-04-04T15:43:30Z</time></trkpt><trkpt lat="40.91339189299671" lon="8.780464589811755"><ele>43.0</ele><time>2026-04-04T15:44:21Z</time></trkpt><trkpt lat="40.91348844728727" lon="8.78041793725265"><ele>43.0</ele><time>2026-04-04T15:44:23Z</time></trkpt><trkpt lat="40.91353990896324" lon="8.780344503727171"><ele>43.0</ele><time>2026-04-04T15:44:25Z</time></trkpt><trkpt lat="40.91357201591099" lon="8.780272677558745"><ele>43.0</ele><time>2026-04-04T15:44:26Z</time></trkpt><trkpt lat="40.913606190141984" lon="8.780174976728759"><ele>43.0</ele><time>2026-04-04T15:44:27Z</time></trkpt><trkpt lat="40.91363229210777" lon="8.780054114864603"><ele>42.4</ele><time>2026-04-04T15:44:28Z</time></trkpt><trkpt lat="40.91365693223071" lon="8.779914949670435"><ele>41.8</ele><time>2026-04-04T15:44:29Z</time></trkpt><trkpt lat="40.91368221956847" lon="8.779769045994138"><ele>41.2</ele><time>2026-04-04T15:44:30Z</time></trkpt><trkpt lat="40.913702899316384" lon="8.77962224320532"><ele>40.6</ele><time>2026-04-04T15:44:31Z</time></trkpt><trkpt lat="40.913719418300204" lon="8.779473418396073"><ele>40.0</ele><time>2026-04-04T15:44:32Z</time></trkpt><trkpt lat="40.91372968997269" lon="8.77932761473098"><ele>40.0</ele><time>2026-04-04T15:44:33Z</time></trkpt><trkpt lat="40.91373620590125" lon="8.779196262603035"><ele>40.0</ele><time>2026-04-04T15:44:34Z</time></trkpt><trkpt lat="40.91373840032306" lon="8.779075935365274"><ele>40.0</ele><time>2026-04-04T15:44:35Z</time></trkpt><trkpt lat="40.91373684187751" lon="8.778946461606656"><ele>40.0</ele><time>2026-04-04T15:44:36Z</time></trkpt><trkpt lat="40.91375795864452" lon="8.77881135102182"><ele>40.0</ele><time>2026-04-04T15:44:37Z</time></trkpt><trkpt lat="40.91376540082052" lon="8.778670453491182"><ele>40.0</ele><time>2026-04-04T15:44:38Z</time></trkpt><trkpt lat="40.913772862642304" lon="8.778526853928524"><ele>40.0</ele><time>2026-04-04T15:44:39Z</time></trkpt><trkpt lat="40.91377981897993" lon="8.778383905504617"><ele>40.0</ele><time>2026-04-04T15:44:40.001Z</time></trkpt><trkpt lat="40.91378693568178" lon="8.778237661508303"><ele>40.0</ele><time>2026-04-04T15:44:41.001Z</time></trkpt><trkpt lat="40.913794471037775" lon="8.77808281509917"><ele>40.0</ele><time>2026-04-04T15:44:42.001Z</time></trkpt><trkpt lat="40.91380329533189" lon="8.777925551588718"><ele>40.0</ele><time>2026-04-04T15:44:43.001Z</time></trkpt><trkpt lat="40.913813158457415" lon="8.777771241119131"><ele>40.0</ele><time>2026-04-04T15:44:44.001Z</time></trkpt><trkpt lat="40.913823105113124" lon="8.777624625073427"><ele>40.0</ele><time>2026-04-04T15:44:45.001Z</time></trkpt><trkpt lat="40.91383307898955" lon="8.77747913014472"><ele>40.0</ele><time>2026-04-04T15:44:46.001Z</time></trkpt><trkpt lat="40.91382981865706" lon="8.777340982061105"><ele>40.0</ele><time>2026-04-04T15:44:47.001Z</time></trkpt><trkpt lat="40.91384450440179" lon="8.77720459579679"><ele>40.4</ele><time>2026-04-04T15:44:48.001Z</time></trkpt><trkpt lat="40.91386622815345" lon="8.777065469318202"><ele>40.8</ele><time>2026-04-04T15:44:49.001Z</time></trkpt><trkpt lat="40.91389298147544" lon="8.776924396254763"><ele>41.2</ele><time>2026-04-04T15:44:50.001Z</time></trkpt><trkpt lat="40.913916593746485" lon="8.776776836463707"><ele>41.6</ele><time>2026-04-04T15:44:51.001Z</time></trkpt><trkpt lat="40.91394536672991" lon="8.776625183661306"><ele>42.0</ele><time>2026-04-04T15:44:52.001Z</time></trkpt><trkpt lat="40.91397283889032" lon="8.776469576878764"><ele>42.5</ele><time>2026-04-04T15:44:53.001Z</time></trkpt><trkpt lat="40.9140008550633" lon="8.776313436018878"><ele>43.0</ele><time>2026-04-04T15:44:54.001Z</time></trkpt><trkpt lat="40.914030920227574" lon="8.776157966269343"><ele>43.5</ele><time>2026-04-04T15:44:55.001Z</time></trkpt><trkpt lat="40.914060750714775" lon="8.776009301253485"><ele>44.0</ele><time>2026-04-04T15:44:56.001Z</time></trkpt><trkpt lat="40.91408754517509" lon="8.775873518224149"><ele>44.6</ele><time>2026-04-04T15:44:57.001Z</time></trkpt><trkpt lat="40.91411303741266" lon="8.775747218169013"><ele>45.2</ele><time>2026-04-04T15:44:58.001Z</time></trkpt><trkpt lat="40.91414418570882" lon="8.77562616003738"><ele>45.800000000000004</ele><time>2026-04-04T15:44:59.001Z</time></trkpt><trkpt lat="40.91416701672643" lon="8.775507546980597"><ele>46.400000000000006</ele><time>2026-04-04T15:45:00.001Z</time></trkpt><trkpt lat="40.91417064945299" lon="8.775382356172507"><ele>47.0</ele><time>2026-04-04T15:45:01.001Z</time></trkpt><trkpt lat="40.91417545992359" lon="8.775239285385448"><ele>46.5</ele><time>2026-04-04T15:45:02.001Z</time></trkpt><trkpt lat="40.914162821065766" lon="8.775076765157594"><ele>46.0</ele><time>2026-04-04T15:45:03.001Z</time></trkpt><trkpt lat="40.914129723768966" lon="8.77490906443928"><ele>45.5</ele><time>2026-04-04T15:45:04.001Z</time></trkpt><trkpt lat="40.91410095094273" lon="8.77475667762212"><ele>45.0</ele><time>2026-04-04T15:45:05.001Z</time></trkpt><trkpt lat="40.91407606084429" lon="8.774610681720727"><ele>45.0</ele><time>2026-04-04T15:45:06.001Z</time></trkpt><trkpt lat="40.91405892828209" lon="8.774468828016094"><ele>45.0</ele><time>2026-04-04T15:45:07.001Z</time></trkpt><trkpt lat="40.91404471596593" lon="8.774333779095853"><ele>45.0</ele><time>2026-04-04T15:45:08.001Z</time></trkpt><trkpt lat="40.91403292231551" lon="8.77420424607675"><ele>45.0</ele><time>2026-04-04T15:45:09.001Z</time></trkpt><trkpt lat="40.914025680062174" lon="8.77407349393724"><ele>45.0</ele><time>2026-04-04T15:45:10.001Z</time></trkpt><trkpt lat="40.914019451103115" lon="8.773941057838075"><ele>44.2</ele><time>2026-04-04T15:45:11.001Z</time></trkpt><trkpt lat="40.91401786548145" lon="8.77380886539379"><ele>43.4</ele><time>2026-04-04T15:45:12.001Z</time></trkpt><trkpt lat="40.91400636449117" lon="8.77367732167906"><ele>42.599999999999994</ele><time>2026-04-04T15:45:13.001Z</time></trkpt><trkpt lat="40.91401817428251" lon="8.77354688603042"><ele>41.8</ele><time>2026-04-04T15:45:14.001Z</time></trkpt><trkpt lat="40.91404625963994" lon="8.773423600206737"><ele>41.0</ele><time>2026-04-04T15:45:15.001Z</time></trkpt><trkpt lat="40.91410672388602" lon="8.773333821312553"><ele>39.75</ele><time>2026-04-04T15:45:16.001Z</time></trkpt><trkpt lat="40.914108108163006" lon="8.773065892031068"><ele>38.5</ele><time>2026-04-04T15:45:18.001Z</time></trkpt><trkpt lat="40.91407670096737" lon="8.772939960830445"><ele>37.25</ele><time>2026-04-04T15:45:19.001Z</time></trkpt><trkpt lat="40.91407427042119" lon="8.772780399726772"><ele>36.0</ele><time>2026-04-04T15:45:20.001Z</time></trkpt><trkpt lat="40.91405388308227" lon="8.772608884244088"><ele>35.5</ele><time>2026-04-04T15:45:21.001Z</time></trkpt><trkpt lat="40.91401589236252" lon="8.772450360973398"><ele>35.0</ele><time>2026-04-04T15:45:22.001Z</time></trkpt><trkpt lat="40.91402460288611" lon="8.772289743269555"><ele>34.5</ele><time>2026-04-04T15:45:23.001Z</time></trkpt><trkpt lat="40.91402563841828" lon="8.77213817426971"><ele>34.0</ele><time>2026-04-04T15:45:24.001Z</time></trkpt><trkpt lat="40.91402495091102" lon="8.771991408368441"><ele>33.8</ele><time>2026-04-04T15:45:25.001Z</time></trkpt><trkpt lat="40.914021643879956" lon="8.771844813221978"><ele>33.599999999999994</ele><time>2026-04-04T15:45:26.001Z</time></trkpt><trkpt lat="40.914002980124636" lon="8.771708122603028"><ele>33.4</ele><time>2026-04-04T15:45:27.001Z</time></trkpt><trkpt lat="40.913999013324045" lon="8.77157116455606"><ele>33.199999999999996</ele><time>2026-04-04T15:45:28.001Z</time></trkpt><trkpt lat="40.91399590938265" lon="8.77142953581193"><ele>33.0</ele><time>2026-04-04T15:45:29.001Z</time></trkpt><trkpt lat="40.91398986988681" lon="8.771279089026393"><ele>33.0</ele><time>2026-04-04T15:45:30.001Z</time></trkpt><trkpt lat="40.91398364381803" lon="8.771121329437484"><ele>33.0</ele><time>2026-04-04T15:45:31.001Z</time></trkpt><trkpt lat="40.91397770543343" lon="8.770958003314997"><ele>33.0</ele><time>2026-04-04T15:45:32.001Z</time></trkpt><trkpt lat="40.913971571037074" lon="8.770790228429899"><ele>33.0</ele><time>2026-04-04T15:45:33Z</time></trkpt><trkpt lat="40.913962179834975" lon="8.770620166754922"><ele>33.25</ele><time>2026-04-04T15:45:34Z</time></trkpt><trkpt lat="40.913971098844904" lon="8.770455502098155"><ele>33.5</ele><time>2026-04-04T15:45:35Z</time></trkpt><trkpt lat="40.9139523483474" lon="8.7702884110789"><ele>33.75</ele><time>2026-04-04T15:45:36Z</time></trkpt><trkpt lat="40.91395395941217" lon="8.770136830778252"><ele>34.0</ele><time>2026-04-04T15:45:37Z</time></trkpt><trkpt lat="40.91395068111615" lon="8.77001210659551"><ele>34.0</ele><time>2026-04-04T15:45:38Z</time></trkpt><trkpt lat="40.91396601583211" lon="8.7699072806637"><ele>34.0</ele><time>2026-04-04T15:45:39Z</time></trkpt><trkpt lat="40.91395118857156" lon="8.769773039588346"><ele>34.0</ele><time>2026-04-04T15:45:41Z</time></trkpt><trkpt lat="40.913951615714055" lon="8.769660022081625"><ele>34.0</ele><time>2026-04-04T15:45:43Z</time></trkpt><trkpt lat="40.91394230204475" lon="8.76956634561295"><ele>34.0</ele><time>2026-04-04T15:45:45Z</time></trkpt><trkpt lat="40.91394464200301" lon="8.769481508163006"><ele>34.0</ele><time>2026-04-04T15:45:49Z</time></trkpt><trkpt lat="40.91395695873125" lon="8.769389074789244"><ele>33.6</ele><time>2026-04-04T15:45:53Z</time></trkpt><trkpt lat="40.91395695873226" lon="8.769269854910593"><ele>33.2</ele><time>2026-04-04T15:45:55Z</time></trkpt><trkpt lat="40.913948551903324" lon="8.769172602827817"><ele>32.800000000000004</ele><time>2026-04-04T15:45:56Z</time></trkpt><trkpt lat="40.913950741698834" lon="8.769018136964535"><ele>32.4</ele><time>2026-04-04T15:45:58Z</time></trkpt><trkpt lat="40.91398691363171" lon="8.768886815623926"><ele>32.0</ele><time>2026-04-04T15:46:00Z</time></trkpt><trkpt lat="40.91406922797132" lon="8.768795525417053"><ele>32.0</ele><time>2026-04-04T15:46:02Z</time></trkpt><trkpt lat="40.91415854656816" lon="8.768725515125368"><ele>32.0</ele><time>2026-04-04T15:46:04Z</time></trkpt><trkpt lat="40.914251324828946" lon="8.768673179277089"><ele>32.0</ele><time>2026-04-04T15:46:06Z</time></trkpt><trkpt lat="40.91430433096041" lon="8.768574356098382"><ele>32.0</ele><time>2026-04-04T15:46:08Z</time></trkpt><trkpt lat="40.914356316609116" lon="8.768481046105219"><ele>32.0</ele><time>2026-04-04T15:46:10Z</time></trkpt><trkpt lat="40.91440781357259" lon="8.768389345536631"><ele>30.999999999999996</ele><time>2026-04-04T15:46:12Z</time></trkpt><trkpt lat="40.914467798944806" lon="8.768297528772887"><ele>30.0</ele><time>2026-04-04T15:46:14Z</time></trkpt><trkpt lat="40.91452180833081" lon="8.768181727953902"><ele>29.0</ele><time>2026-04-04T15:46:16Z</time></trkpt><trkpt lat="40.9145752661773" lon="8.768040365653244"><ele>28.0</ele><time>2026-04-04T15:46:18Z</time></trkpt><trkpt lat="40.91459490779056" lon="8.767960631517091"><ele>26.999999999999996</ele><time>2026-04-04T15:46:19Z</time></trkpt><trkpt lat="40.91461338450621" lon="8.76786885638515"><ele>26.0</ele><time>2026-04-04T15:46:20Z</time></trkpt><trkpt lat="40.91463063187218" lon="8.767762422827142"><ele>26.0</ele><time>2026-04-04T15:46:21Z</time></trkpt><trkpt lat="40.914647825527524" lon="8.76764975229503"><ele>26.0</ele><time>2026-04-04T15:46:22Z</time></trkpt><trkpt lat="40.914665183829044" lon="8.76752810750681"><ele>26.0</ele><time>2026-04-04T15:46:23Z</time></trkpt><trkpt lat="40.91468257091713" lon="8.767414262459651"><ele>26.0</ele><time>2026-04-04T15:46:24Z</time></trkpt><trkpt lat="40.9147081863748" lon="8.767296391217828"><ele>26.0</ele><time>2026-04-04T15:46:25Z</time></trkpt><trkpt lat="40.91474113541378" lon="8.767169362317993"><ele>26.0</ele><time>2026-04-04T15:46:26Z</time></trkpt><trkpt lat="40.91477826362821" lon="8.767039181523298"><ele>26.0</ele><time>2026-04-04T15:46:27Z</time></trkpt><trkpt lat="40.91482578864264" lon="8.766908960260738"><ele>26.0</ele><time>2026-04-04T15:46:28Z</time></trkpt><trkpt lat="40.91487575050406" lon="8.76678631065044"><ele>26.0</ele><time>2026-04-04T15:46:29Z</time></trkpt><trkpt lat="40.91493148474592" lon="8.76666461069509"><ele>26.0</ele><time>2026-04-04T15:46:30Z</time></trkpt><trkpt lat="40.91499066025587" lon="8.76654355405779"><ele>26.4</ele><time>2026-04-04T15:46:31Z</time></trkpt><trkpt lat="40.91505280489424" lon="8.766419721478686"><ele>26.8</ele><time>2026-04-04T15:46:32Z</time></trkpt><trkpt lat="40.915114030576326" lon="8.766297719975737"><ele>27.199999999999996</ele><time>2026-04-04T15:46:33Z</time></trkpt><trkpt lat="40.9151779723475" lon="8.766169289212815"><ele>27.599999999999998</ele><time>2026-04-04T15:46:34Z</time></trkpt><trkpt lat="40.91523348647829" lon="8.766044589584839"><ele>28.0</ele><time>2026-04-04T15:46:35Z</time></trkpt><trkpt lat="40.915283020172566" lon="8.765920852664149"><ele>27.0</ele><time>2026-04-04T15:46:36Z</time></trkpt><trkpt lat="40.91531060276044" lon="8.765776633143775"><ele>26.0</ele><time>2026-04-04T15:46:37Z</time></trkpt><trkpt lat="40.91535507071148" lon="8.765632808750166"><ele>25.0</ele><time>2026-04-04T15:46:38Z</time></trkpt><trkpt lat="40.91539196704731" lon="8.765481141842937"><ele>24.0</ele><time>2026-04-04T15:46:39Z</time></trkpt><trkpt lat="40.915417254809554" lon="8.765326969499625"><ele>24.6</ele><time>2026-04-04T15:46:40Z</time></trkpt><trkpt lat="40.91543806399973" lon="8.765181182122687"><ele>25.2</ele><time>2026-04-04T15:46:41Z</time></trkpt><trkpt lat="40.9154649639038" lon="8.765050393916571"><ele>25.800000000000004</ele><time>2026-04-04T15:46:42Z</time></trkpt><trkpt lat="40.9155239564458" lon="8.764931750465742"><ele>26.400000000000002</ele><time>2026-04-04T15:46:43Z</time></trkpt><trkpt lat="40.91555703312126" lon="8.764809022215452"><ele>27.0</ele><time>2026-04-04T15:46:44Z</time></trkpt><trkpt lat="40.915589713833526" lon="8.764695544917368"><ele>27.0</ele><time>2026-04-04T15:46:45Z</time></trkpt><trkpt lat="40.91563171466962" lon="8.76457382210981"><ele>27.000000000000004</ele><time>2026-04-04T15:46:46Z</time></trkpt><trkpt lat="40.915625059377895" lon="8.764442261481568"><ele>27.000000000000004</ele><time>2026-04-04T15:46:47.001Z</time></trkpt><trkpt lat="40.91564039814898" lon="8.764324408125875"><ele>27.0</ele><time>2026-04-04T15:46:48.001Z</time></trkpt><trkpt lat="40.91563145523211" lon="8.764191922585795"><ele>27.0</ele><time>2026-04-04T15:46:49.001Z</time></trkpt><trkpt lat="40.91561894921817" lon="8.764070212915938"><ele>26.833333333333332</ele><time>2026-04-04T15:46:50.001Z</time></trkpt><trkpt lat="40.91563629878502" lon="8.763955021858761"><ele>26.666666666666664</ele><time>2026-04-04T15:46:51.001Z</time></trkpt><trkpt lat="40.91561415829432" lon="8.763860767181507"><ele>26.5</ele><time>2026-04-04T15:46:52.001Z</time></trkpt><trkpt lat="40.91560229488365" lon="8.763771688406843"><ele>26.333333333333332</ele><time>2026-04-04T15:46:53.001Z</time></trkpt><trkpt lat="40.915573913017276" lon="8.763690970003825"><ele>26.166666666666664</ele><time>2026-04-04T15:46:54.001Z</time></trkpt><trkpt lat="40.91554775967062" lon="8.763599865239861"><ele>26.0</ele><time>2026-04-04T15:46:55.001Z</time></trkpt><trkpt lat="40.915457743011075" lon="8.763548152491506"><ele>23.400000000000002</ele><time>2026-04-04T15:46:56.001Z</time></trkpt><trkpt lat="40.91536282249901" lon="8.763482376697814"><ele>20.8</ele><time>2026-04-04T15:46:57.001Z</time></trkpt><trkpt lat="40.915286225101916" lon="8.763377794752458"><ele>18.200000000000003</ele><time>2026-04-04T15:46:58.001Z</time></trkpt><trkpt lat="40.91521609234171" lon="8.7632767969133"><ele>15.600000000000001</ele><time>2026-04-04T15:46:59.001Z</time></trkpt><trkpt lat="40.91516049401482" lon="8.763162630657659"><ele>13.0</ele><time>2026-04-04T15:47:00.001Z</time></trkpt><trkpt lat="40.91510370490533" lon="8.763053494384632"><ele>12.999999999999998</ele><time>2026-04-04T15:47:01.001Z</time></trkpt><trkpt lat="40.91507195807838" lon="8.762943612965309"><ele>13.0</ele><time>2026-04-04T15:47:02.001Z</time></trkpt><trkpt lat="40.91504813456406" lon="8.762855832484336"><ele>13.0</ele><time>2026-04-04T15:47:03.001Z</time></trkpt><trkpt lat="40.915048328887586" lon="8.76273554864305"><ele>13.0</ele><time>2026-04-04T15:47:05.001Z</time></trkpt><trkpt lat="40.91502904931418" lon="8.762629224737314"><ele>12.999999999999998</ele><time>2026-04-04T15:47:32.001Z</time></trkpt><trkpt lat="40.91501451948608" lon="8.762546764154722"><ele>13.0</ele><time>2026-04-04T15:47:33.001Z</time></trkpt><trkpt lat="40.914997856592606" lon="8.762431941061836"><ele>15.333333333333332</ele><time>2026-04-04T15:47:34.001Z</time></trkpt><trkpt lat="40.91500386426138" lon="8.762314572935084"><ele>17.666666666666664</ele><time>2026-04-04T15:47:35.001Z</time></trkpt><trkpt lat="40.914989928572204" lon="8.76221547833851"><ele>20.0</ele><time>2026-04-04T15:47:36.001Z</time></trkpt><trkpt lat="40.91497380629102" lon="8.76211865271969"><ele>22.333333333333332</ele><time>2026-04-04T15:47:37.001Z</time></trkpt><trkpt lat="40.91495094239634" lon="8.76202273834673"><ele>24.666666666666668</ele><time>2026-04-04T15:47:38.001Z</time></trkpt><trkpt lat="40.91492022005205" lon="8.761938018126967"><ele>27.0</ele><time>2026-04-04T15:47:39Z</time></trkpt><trkpt lat="40.91487480221755" lon="8.761861865368612"><ele>27.0</ele><time>2026-04-04T15:47:40Z</time></trkpt><trkpt lat="40.91479528301577" lon="8.76180626662031"><ele>27.0</ele><time>2026-04-04T15:47:41Z</time></trkpt><trkpt lat="40.91474157809403" lon="8.761749752037757"><ele>27.0</ele><time>2026-04-04T15:47:42Z</time></trkpt><trkpt lat="40.9146991434343" lon="8.76164336538036"><ele>27.0</ele><time>2026-04-04T15:47:44Z</time></trkpt><trkpt lat="40.91473480003562" lon="8.761537919490012"><ele>27.0</ele><time>2026-04-04T15:47:46Z</time></trkpt><trkpt lat="40.91479315861026" lon="8.761488874265998"><ele>27.0</ele><time>2026-04-04T15:47:47Z</time></trkpt><trkpt lat="40.91486118222896" lon="8.761428749612866"><ele>27.0</ele><time>2026-04-04T15:47:48Z</time></trkpt><trkpt lat="40.9149428636045" lon="8.761374036273743"><ele>27.0</ele><time>2026-04-04T15:47:49Z</time></trkpt><trkpt lat="40.915023109898435" lon="8.761318963527495"><ele>27.0</ele><time>2026-04-04T15:47:50Z</time></trkpt><trkpt lat="40.91507856575366" lon="8.761247224962402"><ele>27.0</ele><time>2026-04-04T15:47:51Z</time></trkpt><trkpt lat="40.915109225001586" lon="8.761153327595352"><ele>27.0</ele><time>2026-04-04T15:47:52Z</time></trkpt><trkpt lat="40.91512074791912" lon="8.761036416963007"><ele>27.0</ele><time>2026-04-04T15:47:53Z</time></trkpt><trkpt lat="40.915124236780215" lon="8.760915042506046"><ele>22.5</ele><time>2026-04-04T15:47:54Z</time></trkpt><trkpt lat="40.915150081708966" lon="8.760805218247732"><ele>18.0</ele><time>2026-04-04T15:47:55Z</time></trkpt><trkpt lat="40.91517325448573" lon="8.760703461319348"><ele>13.5</ele><time>2026-04-04T15:47:56Z</time></trkpt><trkpt lat="40.91519535690194" lon="8.76059154964177"><ele>9.0</ele><time>2026-04-04T15:47:57Z</time></trkpt><trkpt lat="40.915202359526475" lon="8.760476479668311"><ele>4.5</ele><time>2026-04-04T15:47:58Z</time></trkpt><trkpt lat="40.91516658189873" lon="8.76035235316641"><ele>0.0</ele><time>2026-04-04T15:47:59Z</time></trkpt><trkpt lat="40.915142198235074" lon="8.760232147150184"><ele>0.6</ele><time>2026-04-04T15:48:00Z</time></trkpt><trkpt lat="40.915125551634034" lon="8.760101699093976"><ele>1.2</ele><time>2026-04-04T15:48:01Z</time></trkpt><trkpt lat="40.9150650932931" lon="8.759995416904909"><ele>1.7999999999999998</ele><time>2026-04-04T15:48:02Z</time></trkpt><trkpt lat="40.91502255675801" lon="8.759874865245779"><ele>2.4</ele><time>2026-04-04T15:48:03Z</time></trkpt><trkpt lat="40.915031985636055" lon="8.759729937380516"><ele>3.0</ele><time>2026-04-04T15:48:04Z</time></trkpt><trkpt lat="40.91500737884338" lon="8.75961028221568"><ele>8.166666666666668</ele><time>2026-04-04T15:48:05Z</time></trkpt><trkpt lat="40.91495744748989" lon="8.759492705478426"><ele>13.333333333333334</ele><time>2026-04-04T15:48:06Z</time></trkpt><trkpt lat="40.914918255695305" lon="8.75938657431305"><ele>18.5</ele><time>2026-04-04T15:48:07Z</time></trkpt><trkpt lat="40.91490234168507" lon="8.759287638096897"><ele>23.666666666666668</ele><time>2026-04-04T15:48:08Z</time></trkpt><trkpt lat="40.91492211163442" lon="8.759194673070661"><ele>28.833333333333336</ele><time>2026-04-04T15:48:09Z</time></trkpt><trkpt lat="40.91497184633955" lon="8.759091882900487"><ele>34.0</ele><time>2026-04-04T15:48:10Z</time></trkpt><trkpt lat="40.91502488990767" lon="8.758965628572719"><ele>30.75</ele><time>2026-04-04T15:48:11Z</time></trkpt><trkpt lat="40.915077989779164" lon="8.758817186305919"><ele>27.5</ele><time>2026-04-04T15:48:12Z</time></trkpt><trkpt lat="40.91513169129124" lon="8.758669496589286"><ele>24.25</ele><time>2026-04-04T15:48:13Z</time></trkpt><trkpt lat="40.91519322983073" lon="8.758521049832721"><ele>21.0</ele><time>2026-04-04T15:48:14Z</time></trkpt><trkpt lat="40.91525803919081" lon="8.758388480700054"><ele>21.0</ele><time>2026-04-04T15:48:15Z</time></trkpt><trkpt lat="40.91532061894477" lon="8.75826196560525"><ele>21.0</ele><time>2026-04-04T15:48:16Z</time></trkpt><trkpt lat="40.91537853331535" lon="8.758139314105764"><ele>21.0</ele><time>2026-04-04T15:48:17Z</time></trkpt><trkpt lat="40.915422468146325" lon="8.75802811454577"><ele>21.0</ele><time>2026-04-04T15:48:18Z</time></trkpt><trkpt lat="40.91544515915496" lon="8.757888150429716"><ele>21.0</ele><time>2026-04-04T15:48:19Z</time></trkpt><trkpt lat="40.91545447306765" lon="8.757724345916621"><ele>22.0</ele><time>2026-04-04T15:48:20Z</time></trkpt><trkpt lat="40.91550500334702" lon="8.757565298931727"><ele>23.0</ele><time>2026-04-04T15:48:21Z</time></trkpt><trkpt lat="40.915544326209975" lon="8.757392834901708"><ele>24.0</ele><time>2026-04-04T15:48:22Z</time></trkpt><trkpt lat="40.91559411532598" lon="8.757240543578487"><ele>25.0</ele><time>2026-04-04T15:48:23Z</time></trkpt><trkpt lat="40.91564005722434" lon="8.757104741720314"><ele>25.0</ele><time>2026-04-04T15:48:24Z</time></trkpt><trkpt lat="40.91570814777341" lon="8.756992695735091"><ele>25.0</ele><time>2026-04-04T15:48:25Z</time></trkpt><trkpt lat="40.91577251352134" lon="8.756857313955692"><ele>25.0</ele><time>2026-04-04T15:48:26Z</time></trkpt><trkpt lat="40.9158329742251" lon="8.756704940188335"><ele>25.0</ele><time>2026-04-04T15:48:27Z</time></trkpt><trkpt lat="40.91591125212331" lon="8.756574893121094"><ele>23.25</ele><time>2026-04-04T15:48:28Z</time></trkpt><trkpt lat="40.915985168986936" lon="8.756444974132716"><ele>21.5</ele><time>2026-04-04T15:48:29Z</time></trkpt><trkpt lat="40.9160526146471" lon="8.756317828268253"><ele>19.75</ele><time>2026-04-04T15:48:30Z</time></trkpt><trkpt lat="40.916117638676944" lon="8.756187337446892"><ele>18.0</ele><time>2026-04-04T15:48:31Z</time></trkpt><trkpt lat="40.916202578636785" lon="8.756064102501723"><ele>19.0</ele><time>2026-04-04T15:48:32Z</time></trkpt><trkpt lat="40.916257835150034" lon="8.755913068704356"><ele>20.0</ele><time>2026-04-04T15:48:33Z</time></trkpt><trkpt lat="40.91632583198683" lon="8.755774009143115"><ele>21.0</ele><time>2026-04-04T15:48:34Z</time></trkpt><trkpt lat="40.916391790261315" lon="8.75563190538052"><ele>22.0</ele><time>2026-04-04T15:48:35Z</time></trkpt><trkpt lat="40.91645838576894" lon="8.755486481492321"><ele>22.0</ele><time>2026-04-04T15:48:36Z</time></trkpt><trkpt lat="40.91651984354721" lon="8.755347072852137"><ele>22.0</ele><time>2026-04-04T15:48:37Z</time></trkpt><trkpt lat="40.91657889756201" lon="8.755206986369243"><ele>22.0</ele><time>2026-04-04T15:48:38Z</time></trkpt><trkpt lat="40.916651157871506" lon="8.755089101226098"><ele>22.0</ele><time>2026-04-04T15:48:39Z</time></trkpt><trkpt lat="40.91669913263147" lon="8.75496040242178"><ele>23.6</ele><time>2026-04-04T15:48:40Z</time></trkpt><trkpt lat="40.916718533278306" lon="8.754819472647165"><ele>25.200000000000003</ele><time>2026-04-04T15:48:41Z</time></trkpt><trkpt lat="40.91674951107192" lon="8.754664650234028"><ele>26.8</ele><time>2026-04-04T15:48:42Z</time></trkpt><trkpt lat="40.91676847751856" lon="8.754517134456696"><ele>28.4</ele><time>2026-04-04T15:48:43Z</time></trkpt><trkpt lat="40.91678998066221" lon="8.75439516478652"><ele>30.0</ele><time>2026-04-04T15:48:44Z</time></trkpt><trkpt lat="40.91684022174288" lon="8.75430100661333"><ele>26.0</ele><time>2026-04-04T15:48:45Z</time></trkpt><trkpt lat="40.91691439415503" lon="8.754226720288363"><ele>22.0</ele><time>2026-04-04T15:48:46Z</time></trkpt><trkpt lat="40.91695052872302" lon="8.75413305074469"><ele>18.0</ele><time>2026-04-04T15:48:47Z</time></trkpt><trkpt lat="40.91698659670705" lon="8.754035650865605"><ele>14.0</ele><time>2026-04-04T15:48:48Z</time></trkpt><trkpt lat="40.91701740109059" lon="8.7539331758527"><ele>10.0</ele><time>2026-04-04T15:48:49Z</time></trkpt><trkpt lat="40.91703819924328" lon="8.753835595584075"><ele>6.0</ele><time>2026-04-04T15:48:50Z</time></trkpt><trkpt lat="40.91704552188673" lon="8.753738123855225"><ele>5.999999999999999</ele><time>2026-04-04T15:48:51Z</time></trkpt><trkpt lat="40.91703991119984" lon="8.75365159531756"><ele>6.0</ele><time>2026-04-04T15:48:52Z</time></trkpt><trkpt lat="40.917017137545045" lon="8.753564953509928"><ele>6.0</ele><time>2026-04-04T15:48:53Z</time></trkpt><trkpt lat="40.91700558620345" lon="8.753482431103205"><ele>6.0</ele><time>2026-04-04T15:48:54.001Z</time></trkpt><trkpt lat="40.916992401656465" lon="8.753324619559693"><ele>6.0</ele><time>2026-04-04T15:48:56.001Z</time></trkpt><trkpt lat="40.91697811051838" lon="8.753240358017832"><ele>5.999999999999999</ele><time>2026-04-04T15:48:57.001Z</time></trkpt><trkpt lat="40.91696009003778" lon="8.753160045264378"><ele>6.0</ele><time>2026-04-04T15:48:58.001Z</time></trkpt><trkpt lat="40.91692170435326" lon="8.75301252975039"><ele>6.0</ele><time>2026-04-04T15:49:00.001Z</time></trkpt><trkpt lat="40.916890814604606" lon="8.752893822664847"><ele>6.0</ele><time>2026-04-04T15:49:02.001Z</time></trkpt><trkpt lat="40.91685719139502" lon="8.752764611082991"><ele>6.0</ele><time>2026-04-04T15:49:04.001Z</time></trkpt><trkpt lat="40.91681302903225" lon="8.752682109026642"><ele>6.0</ele><time>2026-04-04T15:49:05.001Z</time></trkpt><trkpt lat="40.916792144513416" lon="8.752568930751377"><ele>6.0</ele><time>2026-04-04T15:49:06.001Z</time></trkpt><trkpt lat="40.91677186046801" lon="8.75245101525283"><ele>5.166666666666667</ele><time>2026-04-04T15:49:07.001Z</time></trkpt><trkpt lat="40.91673716568274" lon="8.752334423336077"><ele>4.333333333333333</ele><time>2026-04-04T15:49:08.001Z</time></trkpt><trkpt lat="40.91670276768251" lon="8.752225772391062"><ele>3.5</ele><time>2026-04-04T15:49:09.001Z</time></trkpt><trkpt lat="40.91667256542753" lon="8.75211878287714"><ele>2.6666666666666665</ele><time>2026-04-04T15:49:10.001Z</time></trkpt><trkpt lat="40.916641989275654" lon="8.752009365810551"><ele>1.8333333333333333</ele><time>2026-04-04T15:49:11.001Z</time></trkpt><trkpt lat="40.91660860444807" lon="8.751907100555806"><ele>1.0</ele><time>2026-04-04T15:49:12.001Z</time></trkpt><trkpt lat="40.91657536043606" lon="8.751813048886893"><ele>4.8</ele><time>2026-04-04T15:49:13.001Z</time></trkpt><trkpt lat="40.91654690010078" lon="8.751706792281084"><ele>8.6</ele><time>2026-04-04T15:49:14.001Z</time></trkpt><trkpt lat="40.91653027229206" lon="8.751617858701891"><ele>12.4</ele><time>2026-04-04T15:49:15.001Z</time></trkpt><trkpt lat="40.91650274054444" lon="8.751457377686965"><ele>16.2</ele><time>2026-04-04T15:49:17.001Z</time></trkpt><trkpt lat="40.91646194462281" lon="8.751319272583416"><ele>20.0</ele><time>2026-04-04T15:49:19.001Z</time></trkpt><trkpt lat="40.91642213271056" lon="8.751196679348677"><ele>20.0</ele><time>2026-04-04T15:49:21.001Z</time></trkpt><trkpt lat="40.916390368077586" lon="8.751076371716108"><ele>20.0</ele><time>2026-04-04T15:49:23.001Z</time></trkpt><trkpt lat="40.91634077954933" lon="8.750924432157985"><ele>20.0</ele><time>2026-04-04T15:49:25.001Z</time></trkpt><trkpt lat="40.91632556253461" lon="8.750838226442093"><ele>20.0</ele><time>2026-04-04T15:49:26.001Z</time></trkpt><trkpt lat="40.916313756812" lon="8.750735079487216"><ele>20.0</ele><time>2026-04-04T15:49:27.001Z</time></trkpt><trkpt lat="40.91630227517447" lon="8.75064525285859"><ele>20.0</ele><time>2026-04-04T15:49:28.001Z</time></trkpt><trkpt lat="40.91627751060798" lon="8.750556764590769"><ele>19.0</ele><time>2026-04-04T15:49:29.001Z</time></trkpt><trkpt lat="40.91623747982796" lon="8.750463850410055"><ele>18.0</ele><time>2026-04-04T15:49:30.001Z</time></trkpt><trkpt lat="40.916171555030644" lon="8.750319161274046"><ele>17.0</ele><time>2026-04-04T15:49:32.001Z</time></trkpt><trkpt lat="40.916142481242325" lon="8.750239326665339"><ele>16.0</ele><time>2026-04-04T15:49:33.001Z</time></trkpt><trkpt lat="40.91611575578927" lon="8.750154613562989"><ele>15.000000000000002</ele><time>2026-04-04T15:49:34.001Z</time></trkpt><trkpt lat="40.91608775858827" lon="8.750071504269908"><ele>14.0</ele><time>2026-04-04T15:49:35.001Z</time></trkpt><trkpt lat="40.91605164253639" lon="8.74998637419039"><ele>13.166666666666668</ele><time>2026-04-04T15:49:36.001Z</time></trkpt><trkpt lat="40.916004035669374" lon="8.749901875784893"><ele>12.333333333333334</ele><time>2026-04-04T15:49:37.001Z</time></trkpt><trkpt lat="40.91594466579306" lon="8.74981489425994"><ele>11.5</ele><time>2026-04-04T15:49:38.001Z</time></trkpt><trkpt lat="40.91589588359549" lon="8.749739752816431"><ele>10.666666666666668</ele><time>2026-04-04T15:49:39.001Z</time></trkpt><trkpt lat="40.915864235909744" lon="8.749641047810474"><ele>9.833333333333334</ele><time>2026-04-04T15:49:40.001Z</time></trkpt><trkpt lat="40.915851327940985" lon="8.749535372254375"><ele>9.0</ele><time>2026-04-04T15:49:41.001Z</time></trkpt><trkpt lat="40.915847943542715" lon="8.749445617577999"><ele>12.8</ele><time>2026-04-04T15:49:42.001Z</time></trkpt><trkpt lat="40.91585326692503" lon="8.749297324259292"><ele>16.6</ele><time>2026-04-04T15:49:44.001Z</time></trkpt><trkpt lat="40.915851231716104" lon="8.749188003765141"><ele>20.4</ele><time>2026-04-04T15:49:45Z</time></trkpt><trkpt lat="40.915835095492135" lon="8.749075449455777"><ele>24.2</ele><time>2026-04-04T15:49:46Z</time></trkpt><trkpt lat="40.91580715788857" lon="8.748951291990313"><ele>28.0</ele><time>2026-04-04T15:49:47Z</time></trkpt><trkpt lat="40.91577304112861" lon="8.748824282510077"><ele>28.0</ele><time>2026-04-04T15:49:48Z</time></trkpt><trkpt lat="40.915756165114026" lon="8.748712675997302"><ele>27.999999999999996</ele><time>2026-04-04T15:49:49Z</time></trkpt><trkpt lat="40.915756245517585" lon="8.74860214704157"><ele>27.999999999999996</ele><time>2026-04-04T15:49:50Z</time></trkpt><trkpt lat="40.91576456435496" lon="8.748510279610986"><ele>28.0</ele><time>2026-04-04T15:49:51Z</time></trkpt><trkpt lat="40.91581381874476" lon="8.74837544969884"><ele>28.0</ele><time>2026-04-04T15:49:53Z</time></trkpt><trkpt lat="40.91584664208231" lon="8.748251814206355"><ele>28.2</ele><time>2026-04-04T15:49:55Z</time></trkpt><trkpt lat="40.91586839193593" lon="8.748092764270455"><ele>28.4</ele><time>2026-04-04T15:49:57Z</time></trkpt><trkpt lat="40.91589893964929" lon="8.747923734771595"><ele>28.599999999999998</ele><time>2026-04-04T15:49:59Z</time></trkpt><trkpt lat="40.91592962195767" lon="8.747812695345155"><ele>28.799999999999997</ele><time>2026-04-04T15:50:01Z</time></trkpt><trkpt lat="40.91588826622811" lon="8.747920765636849"><ele>29.0</ele><time>2026-04-04T15:50:35Z</time></trkpt><trkpt lat="40.91589303480556" lon="8.74807454048349"><ele>29.0</ele><time>2026-04-04T15:50:37Z</time></trkpt><trkpt lat="40.91586865976407" lon="8.748178402835576"><ele>29.0</ele><time>2026-04-04T15:50:38Z</time></trkpt><trkpt lat="40.915853765907606" lon="8.74826096591412"><ele>29.0</ele><time>2026-04-04T15:50:39Z</time></trkpt><trkpt lat="40.91581628024757" lon="8.748401584466388"><ele>29.0</ele><time>2026-04-04T15:50:41Z</time></trkpt><trkpt lat="40.915775702998715" lon="8.748527608289475"><ele>29.0</ele><time>2026-04-04T15:50:43Z</time></trkpt><trkpt lat="40.91575823223316" lon="8.748656984953188"><ele>28.799999999999997</ele><time>2026-04-04T15:50:45Z</time></trkpt><trkpt lat="40.915765589929926" lon="8.74881263985992"><ele>28.599999999999998</ele><time>2026-04-04T15:50:47Z</time></trkpt><trkpt lat="40.915789647721056" lon="8.748965065460059"><ele>28.4</ele><time>2026-04-04T15:50:49Z</time></trkpt><trkpt lat="40.91581981701668" lon="8.749097559783628"><ele>28.2</ele><time>2026-04-04T15:50:51Z</time></trkpt><trkpt lat="40.91585656844215" lon="8.749229027531198"><ele>28.0</ele><time>2026-04-04T15:50:53Z</time></trkpt><trkpt lat="40.91587055320828" lon="8.749375681101633"><ele>28.4</ele><time>2026-04-04T15:50:55Z</time></trkpt><trkpt lat="40.91586187336878" lon="8.749513859087422"><ele>28.799999999999997</ele><time>2026-04-04T15:50:57Z</time></trkpt><trkpt lat="40.9158883295828" lon="8.749654267039835"><ele>29.2</ele><time>2026-04-04T15:50:59Z</time></trkpt><trkpt lat="40.91593132980187" lon="8.749789777889942"><ele>29.6</ele><time>2026-04-04T15:51:01.001Z</time></trkpt><trkpt lat="40.915986819429946" lon="8.749889751173491"><ele>30.0</ele><time>2026-04-04T15:51:03.001Z</time></trkpt><trkpt lat="40.916070600586636" lon="8.749987077133456"><ele>26.8</ele><time>2026-04-04T15:51:05.001Z</time></trkpt><trkpt lat="40.91610594919159" lon="8.750057429604782"><ele>23.6</ele><time>2026-04-04T15:51:06.001Z</time></trkpt><trkpt lat="40.916151644660154" lon="8.75019793524265"><ele>20.4</ele><time>2026-04-04T15:51:08.001Z</time></trkpt><trkpt lat="40.91618793228824" lon="8.75035146995894"><ele>17.2</ele><time>2026-04-04T15:51:10.001Z</time></trkpt><trkpt lat="40.916253775720236" lon="8.750487056536558"><ele>14.0</ele><time>2026-04-04T15:51:12.001Z</time></trkpt><trkpt lat="40.91629676833421" lon="8.750551533088752"><ele>14.0</ele><time>2026-04-04T15:51:13.001Z</time></trkpt><trkpt lat="40.91633205453765" lon="8.750624155916567"><ele>13.999999999999998</ele><time>2026-04-04T15:51:14.001Z</time></trkpt><trkpt lat="40.916358473866374" lon="8.750780444398519"><ele>13.999999999999998</ele><time>2026-04-04T15:51:16.001Z</time></trkpt><trkpt lat="40.916378399805794" lon="8.750946396101677"><ele>14.0</ele><time>2026-04-04T15:51:18.001Z</time></trkpt><trkpt lat="40.91639387077886" lon="8.751035707525247"><ele>14.0</ele><time>2026-04-04T15:51:19.001Z</time></trkpt><trkpt lat="40.91643144331562" lon="8.751177637496452"><ele>14.000000000000002</ele><time>2026-04-04T15:51:21.001Z</time></trkpt><trkpt lat="40.91645159551566" lon="8.751275648106947"><ele>14.0</ele><time>2026-04-04T15:51:24.001Z</time></trkpt><trkpt lat="40.91650298086126" lon="8.751222709742322"><ele>14.0</ele><time>2026-04-04T15:51:31.001Z</time></trkpt><trkpt lat="40.916500436652626" lon="8.751102531703875"><ele>14.0</ele><time>2026-04-04T15:51:34.001Z</time></trkpt><trkpt lat="40.916508124504496" lon="8.750982550900575"><ele>14.000000000000002</ele><time>2026-04-04T15:51:37.001Z</time></trkpt><trkpt lat="40.91652426104245" lon="8.75089208819711"><ele>14.0</ele><time>2026-04-04T15:51:39.001Z</time></trkpt><trkpt lat="40.91659102434826" lon="8.750824231131322"><ele>14.000000000000002</ele><time>2026-04-04T15:51:43.001Z</time></trkpt><trkpt lat="40.91665578287523" lon="8.750755176575199"><ele>14.0</ele><time>2026-04-04T15:51:48.001Z</time></trkpt><trkpt lat="40.91667217393082" lon="8.750667657867702"><ele>14.0</ele><time>2026-04-04T15:51:52Z</time></trkpt><trkpt lat="40.91664020448906" lon="8.75058335233948"><ele>14.0</ele><time>2026-04-04T15:51:54Z</time></trkpt><trkpt lat="40.91659199230438" lon="8.750475985133134"><ele>14.000000000000002</ele><time>2026-04-04T15:51:57Z</time></trkpt><trkpt lat="40.916558590108664" lon="8.7503963654196"><ele>14.0</ele><time>2026-04-04T15:51:59Z</time></trkpt><trkpt lat="40.916531910286025" lon="8.750291827601533"><ele>13.166666666666668</ele><time>2026-04-04T15:52:02Z</time></trkpt><trkpt lat="40.916491751725914" lon="8.750191342291327"><ele>12.333333333333334</ele><time>2026-04-04T15:52:04Z</time></trkpt><trkpt lat="40.91644223330702" lon="8.750087692361161"><ele>11.5</ele><time>2026-04-04T15:52:07Z</time></trkpt><trkpt lat="40.916416831792645" lon="8.749949809308621"><ele>10.666666666666668</ele><time>2026-04-04T15:52:09Z</time></trkpt><trkpt lat="40.916375720316566" lon="8.749874251253017"><ele>9.833333333333334</ele><time>2026-04-04T15:52:11Z</time></trkpt><trkpt lat="40.91630918041805" lon="8.749797278729933"><ele>9.0</ele><time>2026-04-04T15:52:14Z</time></trkpt><trkpt lat="40.91627128838573" lon="8.749715829305796"><ele>9.0</ele><time>2026-04-04T15:52:24Z</time></trkpt><trkpt lat="40.916222075651234" lon="8.74963465124762"><ele>9.0</ele><time>2026-04-04T15:52:29Z</time></trkpt><trkpt lat="40.91617228803927" lon="8.749579979123503"><ele>9.0</ele><time>2026-04-04T15:52:31Z</time></trkpt><trkpt lat="40.9160969987387" lon="8.749511580462572"><ele>9.0</ele><time>2026-04-04T15:52:35Z</time></trkpt><trkpt lat="40.91602216157005" lon="8.74948806893889"><ele>9.0</ele><time>2026-04-04T15:52:37Z</time></trkpt><trkpt lat="40.915959119223444" lon="8.749495106828869"><ele>9.0</ele><time>2026-04-04T15:52:39Z</time></trkpt><trkpt lat="40.915883100284184" lon="8.749576131886627"><ele>9.0</ele><time>2026-04-04T15:52:43Z</time></trkpt><trkpt lat="40.915885652993786" lon="8.749671182508568"><ele>9.0</ele><time>2026-04-04T15:52:46Z</time></trkpt><trkpt lat="40.915933536855434" lon="8.749808694670651"><ele>9.0</ele><time>2026-04-04T15:52:49Z</time></trkpt><trkpt lat="40.91600358057866" lon="8.749913936193144"><ele>9.0</ele><time>2026-04-04T15:52:52Z</time></trkpt><trkpt lat="40.91608384221015" lon="8.750035755684621"><ele>9.0</ele><time>2026-04-04T15:52:54Z</time></trkpt><trkpt lat="40.91612321533838" lon="8.750138690840952"><ele>9.833333333333334</ele><time>2026-04-04T15:52:55Z</time></trkpt><trkpt lat="40.91615451416241" lon="8.750256334937731"><ele>10.666666666666668</ele><time>2026-04-04T15:52:56Z</time></trkpt><trkpt lat="40.916179731951" lon="8.750369515843303"><ele>11.5</ele><time>2026-04-04T15:52:57Z</time></trkpt><trkpt lat="40.916223440878014" lon="8.750453139058806"><ele>12.333333333333334</ele><time>2026-04-04T15:52:58Z</time></trkpt><trkpt lat="40.91627510638115" lon="8.750552240274672"><ele>13.166666666666668</ele><time>2026-04-04T15:52:59Z</time></trkpt><trkpt lat="40.91631272684469" lon="8.750649300018388"><ele>14.0</ele><time>2026-04-04T15:53:00Z</time></trkpt><trkpt lat="40.91633303406317" lon="8.750755936770053"><ele>14.0</ele><time>2026-04-04T15:53:01Z</time></trkpt><trkpt lat="40.91635737146285" lon="8.750885460321516"><ele>13.999999999999998</ele><time>2026-04-04T15:53:02Z</time></trkpt><trkpt lat="40.91638770711267" lon="8.751040070945157"><ele>13.999999999999998</ele><time>2026-04-04T15:53:03Z</time></trkpt><trkpt lat="40.91641777534711" lon="8.751178740657465"><ele>14.0</ele><time>2026-04-04T15:53:04Z</time></trkpt><trkpt lat="40.91645551806818" lon="8.751314223956362"><ele>14.0</ele><time>2026-04-04T15:53:05Z</time></trkpt><trkpt lat="40.9164886213097" lon="8.751449708104637"><ele>15.000000000000002</ele><time>2026-04-04T15:53:06.001Z</time></trkpt><trkpt lat="40.91651613628965" lon="8.751558915794401"><ele>16.0</ele><time>2026-04-04T15:53:07.001Z</time></trkpt><trkpt lat="40.91654516003707" lon="8.751665754220006"><ele>17.0</ele><time>2026-04-04T15:53:08.001Z</time></trkpt><trkpt lat="40.91656745906546" lon="8.751761567954523"><ele>18.0</ele><time>2026-04-04T15:53:09.001Z</time></trkpt><trkpt lat="40.91661021746069" lon="8.751879920542843"><ele>19.0</ele><time>2026-04-04T15:53:10.001Z</time></trkpt><trkpt lat="40.91663174992513" lon="8.751963098869723"><ele>20.0</ele><time>2026-04-04T15:53:11.001Z</time></trkpt><trkpt lat="40.916652978726255" lon="8.752045587597856"><ele>20.666666666666668</ele><time>2026-04-04T15:53:12.001Z</time></trkpt><trkpt lat="40.916680711353386" lon="8.752129121796635"><ele>21.333333333333336</ele><time>2026-04-04T15:53:13.001Z</time></trkpt><trkpt lat="40.91671528898951" lon="8.752218470741692"><ele>22.0</ele><time>2026-04-04T15:53:14.001Z</time></trkpt><trkpt lat="40.916739179541004" lon="8.752318258165339"><ele>22.666666666666668</ele><time>2026-04-04T15:53:15.001Z</time></trkpt><trkpt lat="40.91676515921287" lon="8.752425694185982"><ele>23.333333333333332</ele><time>2026-04-04T15:53:16.001Z</time></trkpt><trkpt lat="40.9167952809873" lon="8.752530604776105"><ele>24.0</ele><time>2026-04-04T15:53:17.001Z</time></trkpt><trkpt lat="40.91682434866727" lon="8.75263625317566"><ele>21.0</ele><time>2026-04-04T15:53:18.001Z</time></trkpt><trkpt lat="40.91684342716321" lon="8.75273930557106"><ele>18.0</ele><time>2026-04-04T15:53:19.001Z</time></trkpt><trkpt lat="40.91685643561627" lon="8.752827041460915"><ele>15.0</ele><time>2026-04-04T15:53:20.001Z</time></trkpt><trkpt lat="40.9168928819083" lon="8.752929516888312"><ele>12.0</ele><time>2026-04-04T15:53:22.001Z</time></trkpt><trkpt lat="40.916970283980156" lon="8.752922587177048"><ele>9.0</ele><time>2026-04-04T15:53:25.001Z</time></trkpt><trkpt lat="40.91705032604469" lon="8.752947345183111"><ele>6.0</ele><time>2026-04-04T15:53:27.001Z</time></trkpt><trkpt lat="40.91712290339717" lon="8.752978367782045"><ele>6.0</ele><time>2026-04-04T15:53:29.001Z</time></trkpt><trkpt lat="40.91720866223922" lon="8.75298062591479"><ele>6.0</ele><time>2026-04-04T15:53:32.001Z</time></trkpt><trkpt lat="40.91725722275851" lon="8.752895412048026"><ele>6.0</ele><time>2026-04-04T15:53:35.001Z</time></trkpt><trkpt lat="40.91728105219356" lon="8.752802052271068"><ele>6.0</ele><time>2026-04-04T15:53:39.001Z</time></trkpt><trkpt lat="40.917259015017244" lon="8.752720127887038"><ele>6.0</ele><time>2026-04-04T15:53:41.001Z</time></trkpt><trkpt lat="40.917212138158725" lon="8.752597471954767"><ele>6.0</ele><time>2026-04-04T15:53:42.001Z</time></trkpt><trkpt lat="40.917145049843555" lon="8.752469395567003"><ele>6.0</ele><time>2026-04-04T15:53:44.001Z</time></trkpt><trkpt lat="40.91708466307471" lon="8.752351165147672"><ele>6.0</ele><time>2026-04-04T15:53:46.001Z</time></trkpt><trkpt lat="40.91714483362699" lon="8.752376086043292"><ele>6.0</ele><time>2026-04-04T15:54:30Z</time></trkpt><trkpt lat="40.91715506394097" lon="8.752459087939304"><ele>6.0</ele><time>2026-04-04T15:54:41Z</time></trkpt><trkpt lat="40.91720515808136" lon="8.752548990143216"><ele>6.0</ele><time>2026-04-04T15:54:44Z</time></trkpt><trkpt lat="40.91724433680548" lon="8.752643258245147"><ele>6.0</ele><time>2026-04-04T15:54:46Z</time></trkpt><trkpt lat="40.91725835491926" lon="8.752734945435098"><ele>6.0</ele><time>2026-04-04T15:54:48Z</time></trkpt><trkpt lat="40.9172599526988" lon="8.752819055719003"><ele>6.0</ele><time>2026-04-04T15:54:50Z</time></trkpt><trkpt lat="40.91725275530261" lon="8.752911446554954"><ele>6.0</ele><time>2026-04-04T15:54:54Z</time></trkpt><trkpt lat="40.917213695761816" lon="8.753002821183006"><ele>6.0</ele><time>2026-04-04T15:54:57Z</time></trkpt><trkpt lat="40.917147477268145" lon="8.752979616122119"><ele>6.0</ele><time>2026-04-04T15:54:59Z</time></trkpt><trkpt lat="40.91705453292741" lon="8.752920179718089"><ele>6.0</ele><time>2026-04-04T15:55:01Z</time></trkpt><trkpt lat="40.91695526185421" lon="8.7529009728635"><ele>5.999999999999999</ele><time>2026-04-04T15:55:03Z</time></trkpt><trkpt lat="40.91687167189823" lon="8.75288008466768"><ele>6.0</ele><time>2026-04-04T15:55:07Z</time></trkpt><trkpt lat="40.91680551389288" lon="8.752895464232125"><ele>6.0</ele><time>2026-04-04T15:55:10Z</time></trkpt><trkpt lat="40.91674855726314" lon="8.752936020560725"><ele>6.0</ele><time>2026-04-04T15:55:13.001Z</time></trkpt><trkpt lat="40.916678298430504" lon="8.752955023290465"><ele>6.0</ele><time>2026-04-04T15:55:16.001Z</time></trkpt><trkpt lat="40.91668876628168" lon="8.753041872189335"><ele>5.999999999999999</ele><time>2026-04-04T15:55:20.001Z</time></trkpt><trkpt lat="40.91675820393007" lon="8.75305382111577"><ele>6.0</ele><time>2026-04-04T15:55:22.001Z</time></trkpt><trkpt lat="40.91682417588824" lon="8.752994009686194"><ele>6.0</ele><time>2026-04-04T15:55:25.001Z</time></trkpt><trkpt lat="40.91688038668441" lon="8.752926907097462"><ele>6.0</ele><time>2026-04-04T15:55:28.001Z</time></trkpt><trkpt lat="40.91682262351022" lon="8.752870404608206"><ele>6.0</ele><time>2026-04-04T15:56:23Z</time></trkpt><trkpt lat="40.91681401873204" lon="8.752954594838776"><ele>6.0</ele><time>2026-04-04T15:56:25Z</time></trkpt><trkpt lat="40.916854682319" lon="8.753036213006581"><ele>6.0</ele><time>2026-04-04T15:56:27Z</time></trkpt><trkpt lat="40.916883957653795" lon="8.753145546228753"><ele>6.0</ele><time>2026-04-04T15:56:29Z</time></trkpt><trkpt lat="40.91695125724954" lon="8.753305404176743"><ele>6.0</ele><time>2026-04-04T15:56:31Z</time></trkpt><trkpt lat="40.91698607300618" lon="8.753402780144583"><ele>6.0</ele><time>2026-04-04T15:56:32Z</time></trkpt><trkpt lat="40.91698740205932" lon="8.753505740186062"><ele>6.0</ele><time>2026-04-04T15:56:33Z</time></trkpt><trkpt lat="40.91699789881714" lon="8.75359007863529"><ele>6.0</ele><time>2026-04-04T15:56:34Z</time></trkpt><trkpt lat="40.91700862917069" lon="8.753736965448319"><ele>6.0</ele><time>2026-04-04T15:56:36Z</time></trkpt><trkpt lat="40.917010134015364" lon="8.753856389749757"><ele>6.0</ele><time>2026-04-04T15:56:38Z</time></trkpt><trkpt lat="40.916971024487445" lon="8.75397666546632"><ele>6.0</ele><time>2026-04-04T15:56:40Z</time></trkpt><trkpt lat="40.91693318106735" lon="8.754086296346257"><ele>6.0</ele><time>2026-04-04T15:56:42Z</time></trkpt><trkpt lat="40.9168965287321" lon="8.754210543882378"><ele>6.0</ele><time>2026-04-04T15:56:44Z</time></trkpt><trkpt lat="40.91681915293847" lon="8.754290560744046"><ele>6.0</ele><time>2026-04-04T15:56:46Z</time></trkpt><trkpt lat="40.91676439360624" lon="8.754395543195832"><ele>6.0</ele><time>2026-04-04T15:56:48Z</time></trkpt><trkpt lat="40.91673671302114" lon="8.754521238344775"><ele>10.8</ele><time>2026-04-04T15:56:50Z</time></trkpt><trkpt lat="40.916721040078535" lon="8.754656503564112"><ele>15.6</ele><time>2026-04-04T15:56:52Z</time></trkpt><trkpt lat="40.91670405080448" lon="8.754784708562854"><ele>20.4</ele><time>2026-04-04T15:56:54Z</time></trkpt><trkpt lat="40.91669616168759" lon="8.754900559731206"><ele>25.2</ele><time>2026-04-04T15:56:56Z</time></trkpt><trkpt lat="40.916651371669275" lon="8.754996504672125"><ele>30.0</ele><time>2026-04-04T15:56:58Z</time></trkpt><trkpt lat="40.916606131087" lon="8.755104487085086"><ele>28.4</ele><time>2026-04-04T15:57:00Z</time></trkpt><trkpt lat="40.91657553277308" lon="8.755226949543784"><ele>26.8</ele><time>2026-04-04T15:57:02Z</time></trkpt><trkpt lat="40.91652264931545" lon="8.755333515785685"><ele>25.200000000000003</ele><time>2026-04-04T15:57:04Z</time></trkpt><trkpt lat="40.916474488424086" lon="8.755440648095826"><ele>23.6</ele><time>2026-04-04T15:57:06Z</time></trkpt><trkpt lat="40.91642117968165" lon="8.755551661320059"><ele>22.0</ele><time>2026-04-04T15:57:08Z</time></trkpt><trkpt lat="40.91636455372672" lon="8.755660007180024"><ele>22.0</ele><time>2026-04-04T15:57:10Z</time></trkpt><trkpt lat="40.91629756231553" lon="8.755766952145606"><ele>22.0</ele><time>2026-04-04T15:57:12Z</time></trkpt><trkpt lat="40.91625076745326" lon="8.755911332163297"><ele>22.0</ele><time>2026-04-04T15:57:14Z</time></trkpt><trkpt lat="40.91621721251583" lon="8.755985128733213"><ele>22.0</ele><time>2026-04-04T15:57:15Z</time></trkpt><trkpt lat="40.916180416026634" lon="8.756061115403055"><ele>22.0</ele><time>2026-04-04T15:57:16Z</time></trkpt><trkpt lat="40.91614304809961" lon="8.756138967198327"><ele>22.0</ele><time>2026-04-04T15:57:17Z</time></trkpt><trkpt lat="40.91608808738551" lon="8.756202602993078"><ele>21.333333333333332</ele><time>2026-04-04T15:57:18Z</time></trkpt><trkpt lat="40.91604537458984" lon="8.75628035149568"><ele>20.666666666666664</ele><time>2026-04-04T15:57:19.001Z</time></trkpt><trkpt lat="40.91600160383651" lon="8.756357568057858"><ele>20.0</ele><time>2026-04-04T15:57:20.001Z</time></trkpt><trkpt lat="40.915956477285654" lon="8.756436504468406"><ele>19.333333333333332</ele><time>2026-04-04T15:57:21.001Z</time></trkpt><trkpt lat="40.91590800813002" lon="8.756521287895398"><ele>18.666666666666668</ele><time>2026-04-04T15:57:22.001Z</time></trkpt><trkpt lat="40.915850842702525" lon="8.75662054754416"><ele>18.0</ele><time>2026-04-04T15:57:23.001Z</time></trkpt><trkpt lat="40.91578899708839" lon="8.756738414230018"><ele>19.4</ele><time>2026-04-04T15:57:24.001Z</time></trkpt><trkpt lat="40.91573695054567" lon="8.756849411183572"><ele>20.8</ele><time>2026-04-04T15:57:25.001Z</time></trkpt><trkpt lat="40.91570058600279" lon="8.756962131381345"><ele>22.2</ele><time>2026-04-04T15:57:26.001Z</time></trkpt><trkpt lat="40.91565176227921" lon="8.757063919886106"><ele>23.6</ele><time>2026-04-04T15:57:27.001Z</time></trkpt><trkpt lat="40.915607253717376" lon="8.75717439606494"><ele>25.0</ele><time>2026-04-04T15:57:28.001Z</time></trkpt><trkpt lat="40.91555448909198" lon="8.757278014717937"><ele>25.000000000000004</ele><time>2026-04-04T15:57:29.001Z</time></trkpt><trkpt lat="40.915519176667395" lon="8.757394542124176"><ele>25.0</ele><time>2026-04-04T15:57:30.001Z</time></trkpt><trkpt lat="40.91548634777138" lon="8.757506937837858"><ele>25.0</ele><time>2026-04-04T15:57:31.001Z</time></trkpt><trkpt lat="40.91545564596594" lon="8.757614101937683"><ele>25.0</ele><time>2026-04-04T15:57:32.001Z</time></trkpt><trkpt lat="40.91544420486653" lon="8.75771496512217"><ele>25.000000000000004</ele><time>2026-04-04T15:57:33.001Z</time></trkpt><trkpt lat="40.9154213882954" lon="8.757814427063115"><ele>25.0</ele><time>2026-04-04T15:57:34.001Z</time></trkpt><trkpt lat="40.91540996567847" lon="8.757911920048198"><ele>24.333333333333336</ele><time>2026-04-04T15:57:35.001Z</time></trkpt><trkpt lat="40.91540389061161" lon="8.758008063276009"><ele>23.666666666666668</ele><time>2026-04-04T15:57:36.001Z</time></trkpt><trkpt lat="40.915365310856096" lon="8.758089568182847"><ele>23.0</ele><time>2026-04-04T15:57:37.001Z</time></trkpt><trkpt lat="40.91532812445745" lon="8.758171228287786"><ele>22.333333333333336</ele><time>2026-04-04T15:57:38.001Z</time></trkpt><trkpt lat="40.915286778085395" lon="8.758258114723768"><ele>21.666666666666668</ele><time>2026-04-04T15:57:39.001Z</time></trkpt><trkpt lat="40.915241611914915" lon="8.758345199300022"><ele>21.0</ele><time>2026-04-04T15:57:40.001Z</time></trkpt><trkpt lat="40.91519865920707" lon="8.758435532182094"><ele>21.0</ele><time>2026-04-04T15:57:41.001Z</time></trkpt><trkpt lat="40.91515889039882" lon="8.758525145648727"><ele>21.0</ele><time>2026-04-04T15:57:42.001Z</time></trkpt><trkpt lat="40.91512091445395" lon="8.758618150030498"><ele>21.0</ele><time>2026-04-04T15:57:43.001Z</time></trkpt><trkpt lat="40.915082902077614" lon="8.75871071183019"><ele>21.0</ele><time>2026-04-04T15:57:44.001Z</time></trkpt><trkpt lat="40.91505098391238" lon="8.758809923866878"><ele>21.0</ele><time>2026-04-04T15:57:45.001Z</time></trkpt><trkpt lat="40.91502484695893" lon="8.758899809292945"><ele>21.0</ele><time>2026-04-04T15:57:46.001Z</time></trkpt><trkpt lat="40.915001561510294" lon="8.758979515627649"><ele>23.6</ele><time>2026-04-04T15:57:47.001Z</time></trkpt><trkpt lat="40.914970765233996" lon="8.759053846625259"><ele>26.200000000000003</ele><time>2026-04-04T15:57:48.001Z</time></trkpt><trkpt lat="40.914937753302866" lon="8.759125093971287"><ele>28.799999999999997</ele><time>2026-04-04T15:57:49.001Z</time></trkpt><trkpt lat="40.91490175615525" lon="8.7592759509531"><ele>31.4</ele><time>2026-04-04T15:57:51.001Z</time></trkpt><trkpt lat="40.91491184464642" lon="8.759450973161302"><ele>34.0</ele><time>2026-04-04T15:57:53.001Z</time></trkpt><trkpt lat="40.91494722524587" lon="8.75954812746525"><ele>34.0</ele><time>2026-04-04T15:57:54.001Z</time></trkpt><trkpt lat="40.91499360192549" lon="8.759641343198133"><ele>34.0</ele><time>2026-04-04T15:57:55.001Z</time></trkpt><trkpt lat="40.914998899636366" lon="8.759757534822073"><ele>34.0</ele><time>2026-04-04T15:57:56.001Z</time></trkpt><trkpt lat="40.915007793104" lon="8.759876724895438"><ele>34.0</ele><time>2026-04-04T15:57:57.001Z</time></trkpt><trkpt lat="40.91503391173718" lon="8.759993493243538"><ele>34.0</ele><time>2026-04-04T15:57:58.001Z</time></trkpt><trkpt lat="40.91508436138855" lon="8.760096324570986"><ele>34.0</ele><time>2026-04-04T15:57:59.001Z</time></trkpt><trkpt lat="40.91512164188767" lon="8.760198287413123"><ele>28.333333333333336</ele><time>2026-04-04T15:58:00.001Z</time></trkpt><trkpt lat="40.91513505511657" lon="8.760307534656048"><ele>22.666666666666668</ele><time>2026-04-04T15:58:01.001Z</time></trkpt><trkpt lat="40.91515441434827" lon="8.760413208623525"><ele>17.0</ele><time>2026-04-04T15:58:02.001Z</time></trkpt><trkpt lat="40.91516632762486" lon="8.760516320415237"><ele>11.333333333333334</ele><time>2026-04-04T15:58:03.001Z</time></trkpt><trkpt lat="40.91515983971447" lon="8.760614452488216"><ele>5.666666666666667</ele><time>2026-04-04T15:58:04.001Z</time></trkpt><trkpt lat="40.915135985490416" lon="8.760713738554214"><ele>0.0</ele><time>2026-04-04T15:58:05.001Z</time></trkpt><trkpt lat="40.9151120387291" lon="8.760830158061397"><ele>0.0</ele><time>2026-04-04T15:58:06.001Z</time></trkpt><trkpt lat="40.915112214282175" lon="8.760948169545584"><ele>0.0</ele><time>2026-04-04T15:58:07.001Z</time></trkpt><trkpt lat="40.91510496836037" lon="8.76105526640744"><ele>0.0</ele><time>2026-04-04T15:58:08.001Z</time></trkpt><trkpt lat="40.91510107155181" lon="8.761156343197587"><ele>0.0</ele><time>2026-04-04T15:58:09Z</time></trkpt><trkpt lat="40.91505999841111" lon="8.761237481913081"><ele>0.0</ele><time>2026-04-04T15:58:10Z</time></trkpt><trkpt lat="40.915017867427096" lon="8.761301620038163"><ele>0.0</ele><time>2026-04-04T15:58:11Z</time></trkpt><trkpt lat="40.91494520920061" lon="8.761338422395294"><ele>4.5</ele><time>2026-04-04T15:58:12Z</time></trkpt><trkpt lat="40.914856599135256" lon="8.761391470123124"><ele>9.0</ele><time>2026-04-04T15:58:13Z</time></trkpt><trkpt lat="40.914783652409525" lon="8.761451647402012"><ele>13.5</ele><time>2026-04-04T15:58:14Z</time></trkpt><trkpt lat="40.914725588277555" lon="8.76151736493329"><ele>18.0</ele><time>2026-04-04T15:58:15Z</time></trkpt><trkpt lat="40.91466511968322" lon="8.76164780308055"><ele>22.5</ele><time>2026-04-04T15:58:17Z</time></trkpt><trkpt lat="40.91467374125338" lon="8.761743875369648"><ele>27.0</ele><time>2026-04-04T15:58:18Z</time></trkpt><trkpt lat="40.914732958308164" lon="8.76183095762076"><ele>28.400000000000002</ele><time>2026-04-04T15:58:19Z</time></trkpt><trkpt lat="40.91481976666796" lon="8.761880495608969"><ele>29.800000000000004</ele><time>2026-04-04T15:58:20Z</time></trkpt><trkpt lat="40.91490138692792" lon="8.761951271359022"><ele>31.2</ele><time>2026-04-04T15:58:21Z</time></trkpt><trkpt lat="40.91493734811347" lon="8.762066135531601"><ele>32.6</ele><time>2026-04-04T15:58:22Z</time></trkpt><trkpt lat="40.91495129570848" lon="8.762184313953744"><ele>34.0</ele><time>2026-04-04T15:58:23Z</time></trkpt><trkpt lat="40.91497221193361" lon="8.762330450169772"><ele>34.0</ele><time>2026-04-04T15:58:24Z</time></trkpt><trkpt lat="40.914996098389025" lon="8.762500302616749"><ele>34.0</ele><time>2026-04-04T15:58:25Z</time></trkpt><trkpt lat="40.915009887429434" lon="8.762624256965573"><ele>34.0</ele><time>2026-04-04T15:58:26Z</time></trkpt><trkpt lat="40.91501981213289" lon="8.762725854554532"><ele>34.0</ele><time>2026-04-04T15:58:27Z</time></trkpt><trkpt lat="40.915028805989316" lon="8.762819630387147"><ele>34.0</ele><time>2026-04-04T15:58:28Z</time></trkpt><trkpt lat="40.91504157461739" lon="8.762926254252289"><ele>35.0</ele><time>2026-04-04T15:58:29Z</time></trkpt><trkpt lat="40.91506021335218" lon="8.763027437841263"><ele>36.0</ele><time>2026-04-04T15:58:30Z</time></trkpt><trkpt lat="40.915087229680545" lon="8.763120425108518"><ele>37.0</ele><time>2026-04-04T15:58:31Z</time></trkpt><trkpt lat="40.91514879716358" lon="8.763206060559266"><ele>38.0</ele><time>2026-04-04T15:58:32Z</time></trkpt><trkpt lat="40.91519914850586" lon="8.763297805654302"><ele>39.0</ele><time>2026-04-04T15:58:33Z</time></trkpt><trkpt lat="40.9152538675117" lon="8.763380084727933"><ele>40.0</ele><time>2026-04-04T15:58:34Z</time></trkpt><trkpt lat="40.91531658642862" lon="8.763449110813639"><ele>37.66666666666667</ele><time>2026-04-04T15:58:35Z</time></trkpt><trkpt lat="40.915383075956356" lon="8.763515169430583"><ele>35.333333333333336</ele><time>2026-04-04T15:58:36Z</time></trkpt><trkpt lat="40.915453613891" lon="8.763570667483151"><ele>33.0</ele><time>2026-04-04T15:58:37Z</time></trkpt><trkpt lat="40.91551801989345" lon="8.763622657101356"><ele>30.666666666666664</ele><time>2026-04-04T15:58:38Z</time></trkpt><trkpt lat="40.91556751562618" lon="8.763683169135856"><ele>28.333333333333332</ele><time>2026-04-04T15:58:39Z</time></trkpt><trkpt lat="40.9155918584957" lon="8.763858025599912"><ele>26.0</ele><time>2026-04-04T15:58:41Z</time></trkpt><trkpt lat="40.91560423507156" lon="8.763971217043755"><ele>25.999999999999996</ele><time>2026-04-04T15:58:42Z</time></trkpt><trkpt lat="40.915599371906154" lon="8.764092948266182"><ele>26.0</ele><time>2026-04-04T15:58:43Z</time></trkpt><trkpt lat="40.91560259434268" lon="8.764211050582759"><ele>26.0</ele><time>2026-04-04T15:58:44Z</time></trkpt><trkpt lat="40.91560535942652" lon="8.764321160126563"><ele>26.0</ele><time>2026-04-04T15:58:45Z</time></trkpt><trkpt lat="40.91560522729829" lon="8.764434881042588"><ele>25.999999999999996</ele><time>2026-04-04T15:58:46Z</time></trkpt><trkpt lat="40.91560188214208" lon="8.764535477088582"><ele>26.0</ele><time>2026-04-04T15:58:47Z</time></trkpt><trkpt lat="40.9155735898639" lon="8.764692192291514"><ele>26.166666666666664</ele><time>2026-04-04T15:58:49Z</time></trkpt><trkpt lat="40.915525787709186" lon="8.76483322144991"><ele>26.333333333333332</ele><time>2026-04-04T15:58:51Z</time></trkpt><trkpt lat="40.91549242067255" lon="8.764916412068226"><ele>26.5</ele><time>2026-04-04T15:58:52Z</time></trkpt><trkpt lat="40.915454617790395" lon="8.765010662102453"><ele>26.666666666666664</ele><time>2026-04-04T15:58:53Z</time></trkpt><trkpt lat="40.91542327071676" lon="8.76511989358127"><ele>26.833333333333332</ele><time>2026-04-04T15:58:54Z</time></trkpt><trkpt lat="40.91540889218671" lon="8.765239232926392"><ele>27.0</ele><time>2026-04-04T15:58:55Z</time></trkpt><trkpt lat="40.915391000045545" lon="8.765364307922697"><ele>26.5</ele><time>2026-04-04T15:58:56Z</time></trkpt><trkpt lat="40.91536238695379" lon="8.765472283538543"><ele>26.0</ele><time>2026-04-04T15:58:57Z</time></trkpt><trkpt lat="40.9153377075437" lon="8.765585147179056"><ele>25.5</ele><time>2026-04-04T15:58:58Z</time></trkpt><trkpt lat="40.91531024186781" lon="8.765695594229616"><ele>25.0</ele><time>2026-04-04T15:58:59Z</time></trkpt><trkpt lat="40.91528314932082" lon="8.76580454047996"><ele>24.5</ele><time>2026-04-04T15:59:00Z</time></trkpt><trkpt lat="40.91524851527469" lon="8.76591478308825"><ele>24.0</ele><time>2026-04-04T15:59:01Z</time></trkpt><trkpt lat="40.91520744476973" lon="8.766015725271128"><ele>23.333333333333332</ele><time>2026-04-04T15:59:02Z</time></trkpt><trkpt lat="40.915167671103156" lon="8.766107345617531"><ele>22.666666666666668</ele><time>2026-04-04T15:59:03Z</time></trkpt><trkpt lat="40.915127119608776" lon="8.76619203539642"><ele>22.0</ele><time>2026-04-04T15:59:04Z</time></trkpt><trkpt lat="40.91508517794616" lon="8.766275610457598"><ele>21.333333333333336</ele><time>2026-04-04T15:59:05Z</time></trkpt><trkpt lat="40.91503915465323" lon="8.766367318840542"><ele>20.666666666666668</ele><time>2026-04-04T15:59:06Z</time></trkpt><trkpt lat="40.914987711908644" lon="8.76646982619914"><ele>20.0</ele><time>2026-04-04T15:59:07Z</time></trkpt><trkpt lat="40.91493822290383" lon="8.7665693855857"><ele>21.0</ele><time>2026-04-04T15:59:08Z</time></trkpt><trkpt lat="40.91488937778379" lon="8.766669811095468"><ele>22.0</ele><time>2026-04-04T15:59:09Z</time></trkpt><trkpt lat="40.914842266664316" lon="8.766774946259272"><ele>23.0</ele><time>2026-04-04T15:59:10Z</time></trkpt><trkpt lat="40.91480043137557" lon="8.766878189665157"><ele>24.0</ele><time>2026-04-04T15:59:11Z</time></trkpt><trkpt lat="40.91476229298547" lon="8.766979653448777"><ele>24.999999999999996</ele><time>2026-04-04T15:59:12Z</time></trkpt><trkpt lat="40.91472767405502" lon="8.767084650467332"><ele>26.0</ele><time>2026-04-04T15:59:13Z</time></trkpt><trkpt lat="40.91469586587106" lon="8.767208329086218"><ele>26.0</ele><time>2026-04-04T15:59:14Z</time></trkpt><trkpt lat="40.91466478278973" lon="8.767333867473898"><ele>26.0</ele><time>2026-04-04T15:59:15Z</time></trkpt><trkpt lat="40.91464031822712" lon="8.76746015055627"><ele>26.0</ele><time>2026-04-04T15:59:16Z</time></trkpt><trkpt lat="40.914623608643375" lon="8.76758574213569"><ele>26.0</ele><time>2026-04-04T15:59:17Z</time></trkpt><trkpt lat="40.91460514531402" lon="8.767706732816725"><ele>26.0</ele><time>2026-04-04T15:59:18Z</time></trkpt><trkpt lat="40.914586586733684" lon="8.767823551039063"><ele>26.0</ele><time>2026-04-04T15:59:19Z</time></trkpt><trkpt lat="40.91456591145263" lon="8.767933439121757"><ele>26.0</ele><time>2026-04-04T15:59:20Z</time></trkpt><trkpt lat="40.91454067723154" lon="8.768036807199557"><ele>26.0</ele><time>2026-04-04T15:59:21Z</time></trkpt><trkpt lat="40.91449880964464" lon="8.768147283995427"><ele>26.0</ele><time>2026-04-04T15:59:22Z</time></trkpt><trkpt lat="40.91444915072874" lon="8.768254054847558"><ele>26.0</ele><time>2026-04-04T15:59:23Z</time></trkpt><trkpt lat="40.914398796852524" lon="8.768358941231606"><ele>26.0</ele><time>2026-04-04T15:59:24Z</time></trkpt><trkpt lat="40.91433613455704" lon="8.768480055899134"><ele>26.0</ele><time>2026-04-04T15:59:25Z</time></trkpt><trkpt lat="40.914280252240474" lon="8.768575986424425"><ele>26.0</ele><time>2026-04-04T15:59:26.001Z</time></trkpt><trkpt lat="40.91421566331081" lon="8.768663279340451"><ele>26.0</ele><time>2026-04-04T15:59:27.001Z</time></trkpt><trkpt lat="40.91413547437677" lon="8.768717030323623"><ele>26.0</ele><time>2026-04-04T15:59:28.001Z</time></trkpt><trkpt lat="40.91405116040251" lon="8.768778007247105"><ele>27.200000000000003</ele><time>2026-04-04T15:59:29.001Z</time></trkpt><trkpt lat="40.913973303528955" lon="8.768853481093737"><ele>28.400000000000002</ele><time>2026-04-04T15:59:30.001Z</time></trkpt><trkpt lat="40.91391974725284" lon="8.768949692204709"><ele>29.6</ele><time>2026-04-04T15:59:31.001Z</time></trkpt><trkpt lat="40.913885391512316" lon="8.769053510957313"><ele>30.8</ele><time>2026-04-04T15:59:32.001Z</time></trkpt><trkpt lat="40.91389023308597" lon="8.769167786640859"><ele>32.0</ele><time>2026-04-04T15:59:33.001Z</time></trkpt><trkpt lat="40.91390378544285" lon="8.769299616190558"><ele>32.4</ele><time>2026-04-04T15:59:35.001Z</time></trkpt><trkpt lat="40.913929100579345" lon="8.76943535302449"><ele>32.800000000000004</ele><time>2026-04-04T16:01:12Z</time></trkpt><trkpt lat="40.913929972304494" lon="8.769571040921646"><ele>33.2</ele><time>2026-04-04T16:01:14Z</time></trkpt><trkpt lat="40.913939743742326" lon="8.769699780124645"><ele>33.6</ele><time>2026-04-04T16:01:16Z</time></trkpt><trkpt lat="40.91394433252288" lon="8.769807405156408"><ele>34.0</ele><time>2026-04-04T16:01:18Z</time></trkpt><trkpt lat="40.913946901052014" lon="8.769971270073517"><ele>33.99999999999999</ele><time>2026-04-04T16:01:20Z</time></trkpt><trkpt lat="40.913932741270315" lon="8.770066661009945"><ele>34.0</ele><time>2026-04-04T16:01:21Z</time></trkpt><trkpt lat="40.91393274127093" lon="8.770167036072623"><ele>34.0</ele><time>2026-04-04T16:01:22Z</time></trkpt><trkpt lat="40.913933322431284" lon="8.770262725535622"><ele>34.0</ele><time>2026-04-04T16:01:23Z</time></trkpt><trkpt lat="40.91394459965126" lon="8.770363559879579"><ele>34.0</ele><time>2026-04-04T16:01:24Z</time></trkpt><trkpt lat="40.913946299728615" lon="8.770466161696127"><ele>33.99999999999999</ele><time>2026-04-04T16:01:25Z</time></trkpt><trkpt lat="40.91395359407496" lon="8.770559977913049"><ele>34.0</ele><time>2026-04-04T16:01:26Z</time></trkpt><trkpt lat="40.913961498663255" lon="8.77064897839531"><ele>34.14285714285714</ele><time>2026-04-04T16:01:27Z</time></trkpt><trkpt lat="40.91396236139605" lon="8.770747414822436"><ele>34.285714285714285</ele><time>2026-04-04T16:01:28Z</time></trkpt><trkpt lat="40.91396409937916" lon="8.770845768044362"><ele>34.42857142857143</ele><time>2026-04-04T16:01:29Z</time></trkpt><trkpt lat="40.91397263586805" lon="8.770937222195494"><ele>34.57142857142857</ele><time>2026-04-04T16:01:30Z</time></trkpt><trkpt lat="40.913961052582344" lon="8.771027661908022"><ele>34.714285714285715</ele><time>2026-04-04T16:01:31Z</time></trkpt><trkpt lat="40.91396427959101" lon="8.771121645565833"><ele>34.857142857142854</ele><time>2026-04-04T16:01:32.001Z</time></trkpt><trkpt lat="40.91396752834728" lon="8.771216262616045"><ele>35.0</ele><time>2026-04-04T16:01:33.001Z</time></trkpt><trkpt lat="40.913970844013804" lon="8.771312828396368"><ele>34.83333333333333</ele><time>2026-04-04T16:01:34.001Z</time></trkpt><trkpt lat="40.913974139827886" lon="8.771408816023422"><ele>34.666666666666664</ele><time>2026-04-04T16:01:35.001Z</time></trkpt><trkpt lat="40.913993532002856" lon="8.77151417484839"><ele>34.5</ele><time>2026-04-04T16:01:36.001Z</time></trkpt><trkpt lat="40.91399610507178" lon="8.771617892388495"><ele>34.333333333333336</ele><time>2026-04-04T16:01:37.001Z</time></trkpt><trkpt lat="40.91399768496547" lon="8.771724515978566"><ele>34.16666666666667</ele><time>2026-04-04T16:01:38.001Z</time></trkpt><trkpt lat="40.91399831527073" lon="8.771833677254172"><ele>34.0</ele><time>2026-04-04T16:01:39.001Z</time></trkpt><trkpt lat="40.9139977843731" lon="8.771939881065457"><ele>34.0</ele><time>2026-04-04T16:01:40.001Z</time></trkpt><trkpt lat="40.91399710119275" lon="8.772044134530871"><ele>34.0</ele><time>2026-04-04T16:01:41.001Z</time></trkpt><trkpt lat="40.91399912609865" lon="8.772140395547094"><ele>34.0</ele><time>2026-04-04T16:01:42.001Z</time></trkpt><trkpt lat="40.91400152019573" lon="8.772240179818429"><ele>34.0</ele><time>2026-04-04T16:01:43.001Z</time></trkpt><trkpt lat="40.91400412001235" lon="8.772345236201412"><ele>34.0</ele><time>2026-04-04T16:01:44.001Z</time></trkpt><trkpt lat="40.91400998520175" lon="8.772450180687553"><ele>34.0</ele><time>2026-04-04T16:01:45.001Z</time></trkpt><trkpt lat="40.91402017570076" lon="8.772560104305676"><ele>34.0</ele><time>2026-04-04T16:01:46.001Z</time></trkpt><trkpt lat="40.91403633233555" lon="8.77267255881528"><ele>34.0</ele><time>2026-04-04T16:01:47.001Z</time></trkpt><trkpt lat="40.91405226135618" lon="8.772788649989508"><ele>34.0</ele><time>2026-04-04T16:01:48.001Z</time></trkpt><trkpt lat="40.914069181923" lon="8.772904015660409"><ele>34.0</ele><time>2026-04-04T16:01:49.001Z</time></trkpt><trkpt lat="40.914081500899734" lon="8.773011753145989"><ele>34.0</ele><time>2026-04-04T16:01:50.001Z</time></trkpt><trkpt lat="40.91409363172324" lon="8.77310904263896"><ele>34.0</ele><time>2026-04-04T16:01:51.001Z</time></trkpt><trkpt lat="40.91410453368869" lon="8.77320761492135"><ele>34.4</ele><time>2026-04-04T16:01:52.001Z</time></trkpt><trkpt lat="40.91411918888477" lon="8.773303547853475"><ele>34.8</ele><time>2026-04-04T16:01:53.001Z</time></trkpt><trkpt lat="40.91404299835426" lon="8.77339404979255"><ele>35.2</ele><time>2026-04-04T16:01:54.001Z</time></trkpt><trkpt lat="40.91400583422333" lon="8.773509117829931"><ele>35.6</ele><time>2026-04-04T16:01:55.001Z</time></trkpt><trkpt lat="40.91398866663038" lon="8.773625832233828"><ele>36.0</ele><time>2026-04-04T16:01:56.001Z</time></trkpt><trkpt lat="40.913993423815704" lon="8.773748879940992"><ele>37.0</ele><time>2026-04-04T16:01:57.001Z</time></trkpt><trkpt lat="40.91399413390797" lon="8.773875090106781"><ele>38.0</ele><time>2026-04-04T16:01:58.001Z</time></trkpt><trkpt lat="40.913998739807404" lon="8.774001670487715"><ele>39.0</ele><time>2026-04-04T16:01:59.001Z</time></trkpt><trkpt lat="40.914002903801375" lon="8.774132016242389"><ele>40.0</ele><time>2026-04-04T16:02:00.001Z</time></trkpt><trkpt lat="40.914013193708925" lon="8.774262748610555"><ele>41.0</ele><time>2026-04-04T16:02:01.001Z</time></trkpt><trkpt lat="40.91402927147201" lon="8.774395818087745"><ele>41.8</ele><time>2026-04-04T16:02:02.001Z</time></trkpt><trkpt lat="40.91404523674555" lon="8.774531567842663"><ele>42.599999999999994</ele><time>2026-04-04T16:02:03.001Z</time></trkpt><trkpt lat="40.91406459419883" lon="8.774665516228003"><ele>43.4</ele><time>2026-04-04T16:02:04.001Z</time></trkpt><trkpt lat="40.9140857180061" lon="8.774797385546808"><ele>44.2</ele><time>2026-04-04T16:02:05.001Z</time></trkpt><trkpt lat="40.91410591737659" lon="8.774927029656954"><ele>45.0</ele><time>2026-04-04T16:02:06.001Z</time></trkpt><trkpt lat="40.9141271683331" lon="8.77505239748373"><ele>45.0</ele><time>2026-04-04T16:02:07.001Z</time></trkpt><trkpt lat="40.91415076424577" lon="8.77518231519308"><ele>45.0</ele><time>2026-04-04T16:02:08.001Z</time></trkpt><trkpt lat="40.9141608296644" lon="8.77531465042284"><ele>45.0</ele><time>2026-04-04T16:02:09.001Z</time></trkpt><trkpt lat="40.9141630548447" lon="8.775434559065996"><ele>45.0</ele><time>2026-04-04T16:02:10.001Z</time></trkpt><trkpt lat="40.91413561770378" lon="8.775550728504797"><ele>45.0</ele><time>2026-04-04T16:02:11.001Z</time></trkpt><trkpt lat="40.914108211829664" lon="8.775675571047012"><ele>44.75</ele><time>2026-04-04T16:02:12.001Z</time></trkpt><trkpt lat="40.914079152633676" lon="8.775808974964335"><ele>44.5</ele><time>2026-04-04T16:02:13.001Z</time></trkpt><trkpt lat="40.914049102356266" lon="8.775948476216378"><ele>44.25</ele><time>2026-04-04T16:02:14.001Z</time></trkpt><trkpt lat="40.914019029157956" lon="8.776095942852619"><ele>44.0</ele><time>2026-04-04T16:02:15.001Z</time></trkpt><trkpt lat="40.913988612904845" lon="8.776252440529209"><ele>44.0</ele><time>2026-04-04T16:02:16.001Z</time></trkpt><trkpt lat="40.91397350700559" lon="8.776419989446097"><ele>44.0</ele><time>2026-04-04T16:02:17.001Z</time></trkpt><trkpt lat="40.91393394144824" lon="8.77658310480042"><ele>44.0</ele><time>2026-04-04T16:02:18.001Z</time></trkpt><trkpt lat="40.91389950889811" lon="8.77674139683618"><ele>44.0</ele><time>2026-04-04T16:02:19.001Z</time></trkpt><trkpt lat="40.91387812319918" lon="8.776902875012238"><ele>43.5</ele><time>2026-04-04T16:02:20Z</time></trkpt><trkpt lat="40.91384255260726" lon="8.77705517380514"><ele>43.0</ele><time>2026-04-04T16:02:21Z</time></trkpt><trkpt lat="40.913837082656975" lon="8.777214608932132"><ele>42.5</ele><time>2026-04-04T16:02:22Z</time></trkpt><trkpt lat="40.91381656316076" lon="8.777367374959084"><ele>42.0</ele><time>2026-04-04T16:02:23Z</time></trkpt><trkpt lat="40.91380312227191" lon="8.777520317678231"><ele>42.0</ele><time>2026-04-04T16:02:24Z</time></trkpt><trkpt lat="40.91379400413998" lon="8.777672049113416"><ele>42.0</ele><time>2026-04-04T16:02:25Z</time></trkpt><trkpt lat="40.91378394570928" lon="8.7778225443356"><ele>42.0</ele><time>2026-04-04T16:02:26Z</time></trkpt><trkpt lat="40.91377562344681" lon="8.777971613427614"><ele>42.0</ele><time>2026-04-04T16:02:27Z</time></trkpt><trkpt lat="40.913770405188565" lon="8.778119858821245"><ele>41.6</ele><time>2026-04-04T16:02:28Z</time></trkpt><trkpt lat="40.91376434717092" lon="8.77826217378076"><ele>41.2</ele><time>2026-04-04T16:02:29Z</time></trkpt><trkpt lat="40.913756474467114" lon="8.778399125322945"><ele>40.8</ele><time>2026-04-04T16:02:30Z</time></trkpt><trkpt lat="40.91374759713621" lon="8.778541353155736"><ele>40.4</ele><time>2026-04-04T16:02:31Z</time></trkpt><trkpt lat="40.91373879360451" lon="8.778676123730222"><ele>40.0</ele><time>2026-04-04T16:02:32Z</time></trkpt><trkpt lat="40.91372845368214" lon="8.778795802063604"><ele>40.0</ele><time>2026-04-04T16:02:33Z</time></trkpt><trkpt lat="40.91372614335046" lon="8.778909765430468"><ele>40.0</ele><time>2026-04-04T16:02:34Z</time></trkpt><trkpt lat="40.91372262389216" lon="8.779029256288425"><ele>40.0</ele><time>2026-04-04T16:02:35Z</time></trkpt><trkpt lat="40.91371960183121" lon="8.77914624727758"><ele>40.0</ele><time>2026-04-04T16:02:36Z</time></trkpt><trkpt lat="40.91371417341292" lon="8.779255648790901"><ele>40.0</ele><time>2026-04-04T16:02:37Z</time></trkpt><trkpt lat="40.9137086667605" lon="8.779362085529058"><ele>40.0</ele><time>2026-04-04T16:02:38Z</time></trkpt><trkpt lat="40.91370272712446" lon="8.77947022845376"><ele>39.833333333333336</ele><time>2026-04-04T16:02:39Z</time></trkpt><trkpt lat="40.913690776835246" lon="8.77957817521763"><ele>39.66666666666667</ele><time>2026-04-04T16:02:40Z</time></trkpt><trkpt lat="40.913675417964846" lon="8.779682720444598"><ele>39.5</ele><time>2026-04-04T16:02:41Z</time></trkpt><trkpt lat="40.91365768877103" lon="8.779792676016456"><ele>39.333333333333336</ele><time>2026-04-04T16:02:42Z</time></trkpt><trkpt lat="40.91363887282079" lon="8.779903484270324"><ele>39.166666666666664</ele><time>2026-04-04T16:02:43Z</time></trkpt><trkpt lat="40.91361788940981" lon="8.780003479038644"><ele>39.0</ele><time>2026-04-04T16:02:44Z</time></trkpt><trkpt lat="40.91359459766849" lon="8.780103689378857"><ele>39.0</ele><time>2026-04-04T16:02:45Z</time></trkpt><trkpt lat="40.91357016672188" lon="8.780204703695006"><ele>39.0</ele><time>2026-04-04T16:02:46Z</time></trkpt><trkpt lat="40.913543218888826" lon="8.780292385895553"><ele>39.0</ele><time>2026-04-04T16:02:47Z</time></trkpt><trkpt lat="40.913511741625875" lon="8.780367364164153"><ele>39.0</ele><time>2026-04-04T16:02:48Z</time></trkpt><trkpt lat="40.913403601924756" lon="8.780475710049656"><ele>39.0</ele><time>2026-04-04T16:02:50Z</time></trkpt><trkpt lat="40.91331209546219" lon="8.780532038158846"><ele>40.0</ele><time>2026-04-04T16:02:51Z</time></trkpt><trkpt lat="40.91319887637586" lon="8.780607139785959"><ele>41.0</ele><time>2026-04-04T16:02:52Z</time></trkpt><trkpt lat="40.91307489435338" lon="8.780698028860977"><ele>42.0</ele><time>2026-04-04T16:02:53Z</time></trkpt><trkpt lat="40.91294427193213" lon="8.780756440105481"><ele>43.0</ele><time>2026-04-04T16:02:54Z</time></trkpt><trkpt lat="40.912827005895224" lon="8.78082172320831"><ele>43.0</ele><time>2026-04-04T16:02:55Z</time></trkpt><trkpt lat="40.91270093997184" lon="8.78087671114327"><ele>43.0</ele><time>2026-04-04T16:02:56Z</time></trkpt><trkpt lat="40.91255775759959" lon="8.780927923493875"><ele>43.0</ele><time>2026-04-04T16:02:57Z</time></trkpt><trkpt lat="40.91241635149462" lon="8.780974306370563"><ele>43.0</ele><time>2026-04-04T16:02:58Z</time></trkpt><trkpt lat="40.91228712579724" lon="8.78100902349102"><ele>45.2</ele><time>2026-04-04T16:02:59Z</time></trkpt><trkpt lat="40.91217654253171" lon="8.78104347755324"><ele>47.4</ele><time>2026-04-04T16:03:00Z</time></trkpt><trkpt lat="40.91207163480681" lon="8.78107250474322"><ele>49.60000000000001</ele><time>2026-04-04T16:03:01Z</time></trkpt><trkpt lat="40.91196928378244" lon="8.781096379271062"><ele>51.800000000000004</ele><time>2026-04-04T16:03:02Z</time></trkpt><trkpt lat="40.911867004709926" lon="8.781111671601387"><ele>54.0</ele><time>2026-04-04T16:03:03Z</time></trkpt><trkpt lat="40.91176813644383" lon="8.781102854935211"><ele>56.0</ele><time>2026-04-04T16:03:04Z</time></trkpt><trkpt lat="40.911660344354615" lon="8.781058582821943"><ele>58.0</ele><time>2026-04-04T16:03:05Z</time></trkpt><trkpt lat="40.911539045480495" lon="8.781020103358665"><ele>60.0</ele><time>2026-04-04T16:03:06Z</time></trkpt><trkpt lat="40.911419687310655" lon="8.78099724469708"><ele>62.0</ele><time>2026-04-04T16:03:07Z</time></trkpt><trkpt lat="40.91128436069649" lon="8.7809902401943"><ele>62.25</ele><time>2026-04-04T16:03:08Z</time></trkpt><trkpt lat="40.91114931481776" lon="8.780996752513083"><ele>62.5</ele><time>2026-04-04T16:03:09Z</time></trkpt><trkpt lat="40.91102052429416" lon="8.781006162508186"><ele>62.75</ele><time>2026-04-04T16:03:10Z</time></trkpt><trkpt lat="40.91089220733558" lon="8.781017378265762"><ele>63.0</ele><time>2026-04-04T16:03:11Z</time></trkpt><trkpt lat="40.91076170608013" lon="8.78103825675081"><ele>64.0</ele><time>2026-04-04T16:03:12Z</time></trkpt><trkpt lat="40.91063411448664" lon="8.781067375142152"><ele>65.0</ele><time>2026-04-04T16:03:13Z</time></trkpt><trkpt lat="40.91050942594971" lon="8.78109753642134"><ele>66.0</ele><time>2026-04-04T16:03:14Z</time></trkpt><trkpt lat="40.910390062073105" lon="8.781121286122723"><ele>67.0</ele><time>2026-04-04T16:03:15Z</time></trkpt><trkpt lat="40.91027219716502" lon="8.781142631850935"><ele>67.0</ele><time>2026-04-04T16:03:16Z</time></trkpt><trkpt lat="40.910159100138586" lon="8.781163666061513"><ele>67.0</ele><time>2026-04-04T16:03:17Z</time></trkpt><trkpt lat="40.91005018365329" lon="8.781187037038181"><ele>67.0</ele><time>2026-04-04T16:03:18Z</time></trkpt><trkpt lat="40.90994522029737" lon="8.781211121159652"><ele>67.0</ele><time>2026-04-04T16:03:19Z</time></trkpt><trkpt lat="40.90983689174689" lon="8.78123955771871"><ele>67.0</ele><time>2026-04-04T16:03:20Z</time></trkpt><trkpt lat="40.909728045125625" lon="8.781270762085489"><ele>69.5</ele><time>2026-04-04T16:03:21Z</time></trkpt><trkpt lat="40.90961565174241" lon="8.781308496031693"><ele>72.0</ele><time>2026-04-04T16:03:22Z</time></trkpt><trkpt lat="40.909503633115" lon="8.781344682777249"><ele>74.5</ele><time>2026-04-04T16:03:23Z</time></trkpt><trkpt lat="40.90938928305523" lon="8.781381169391382"><ele>77.0</ele><time>2026-04-04T16:03:24Z</time></trkpt><trkpt lat="40.90927796710262" lon="8.781436353882137"><ele>79.25</ele><time>2026-04-04T16:03:25Z</time></trkpt><trkpt lat="40.9091675245492" lon="8.781444416791981"><ele>81.5</ele><time>2026-04-04T16:03:26Z</time></trkpt><trkpt lat="40.90905573154958" lon="8.78147398060714"><ele>83.75</ele><time>2026-04-04T16:03:27Z</time></trkpt><trkpt lat="40.908935895377326" lon="8.781505671373028"><ele>86.0</ele><time>2026-04-04T16:03:28Z</time></trkpt><trkpt lat="40.90880954000585" lon="8.781536873586186"><ele>86.0</ele><time>2026-04-04T16:03:29Z</time></trkpt><trkpt lat="40.90868143827671" lon="8.781568748133603"><ele>86.0</ele><time>2026-04-04T16:03:30Z</time></trkpt><trkpt lat="40.90854503991378" lon="8.78160519783234"><ele>86.0</ele><time>2026-04-04T16:03:31Z</time></trkpt><trkpt lat="40.908413015019946" lon="8.78164807604866"><ele>86.0</ele><time>2026-04-04T16:03:32Z</time></trkpt><trkpt lat="40.9082859428579" lon="8.781680388471603"><ele>88.5</ele><time>2026-04-04T16:03:33Z</time></trkpt><trkpt lat="40.908163538207546" lon="8.781700239341584"><ele>91.0</ele><time>2026-04-04T16:03:34Z</time></trkpt><trkpt lat="40.90804278029795" lon="8.781710846505662"><ele>93.5</ele><time>2026-04-04T16:03:35Z</time></trkpt><trkpt lat="40.907916101843284" lon="8.781720002856163"><ele>96.0</ele><time>2026-04-04T16:03:36Z</time></trkpt><trkpt lat="40.90778752643065" lon="8.78172697436142"><ele>96.0</ele><time>2026-04-04T16:03:37Z</time></trkpt><trkpt lat="40.90766797027759" lon="8.781726626534006"><ele>96.0</ele><time>2026-04-04T16:03:38Z</time></trkpt><trkpt lat="40.907558975996515" lon="8.781712145266656"><ele>96.0</ele><time>2026-04-04T16:03:39.001Z</time></trkpt><trkpt lat="40.907460104718055" lon="8.78166639699518"><ele>96.0</ele><time>2026-04-04T16:03:40.001Z</time></trkpt><trkpt lat="40.90735216052536" lon="8.78162294235933"><ele>96.0</ele><time>2026-04-04T16:03:41.001Z</time></trkpt><trkpt lat="40.907258398324316" lon="8.781548985147374"><ele>98.19999999999999</ele><time>2026-04-04T16:03:42.001Z</time></trkpt><trkpt lat="40.90717210134725" lon="8.781460383462022"><ele>100.39999999999999</ele><time>2026-04-04T16:03:43.001Z</time></trkpt><trkpt lat="40.90712408388309" lon="8.781328959274385"><ele>102.6</ele><time>2026-04-04T16:03:44.001Z</time></trkpt><trkpt lat="40.90704681138785" lon="8.781213964865513"><ele>104.8</ele><time>2026-04-04T16:03:45.001Z</time></trkpt><trkpt lat="40.906955957193" lon="8.781131446497067"><ele>107.0</ele><time>2026-04-04T16:03:46.001Z</time></trkpt><trkpt lat="40.90684917286592" lon="8.781067461803033"><ele>107.0</ele><time>2026-04-04T16:03:47.001Z</time></trkpt><trkpt lat="40.90676556322758" lon="8.781019131258304"><ele>106.99999999999999</ele><time>2026-04-04T16:03:48.001Z</time></trkpt><trkpt lat="40.90672739338054" lon="8.78091074127348"><ele>106.99999999999999</ele><time>2026-04-04T16:03:49.001Z</time></trkpt><trkpt lat="40.90670327723191" lon="8.780782288316303"><ele>107.0</ele><time>2026-04-04T16:03:50.001Z</time></trkpt><trkpt lat="40.90663848095915" lon="8.780624396058037"><ele>107.0</ele><time>2026-04-04T16:03:51.001Z</time></trkpt><trkpt lat="40.906557583809715" lon="8.780488265561727"><ele>110.5</ele><time>2026-04-04T16:03:52.001Z</time></trkpt><trkpt lat="40.906508817390716" lon="8.780334285620288"><ele>114.0</ele><time>2026-04-04T16:03:53.001Z</time></trkpt><trkpt lat="40.90647673013696" lon="8.780185266492692"><ele>117.5</ele><time>2026-04-04T16:03:54.001Z</time></trkpt><trkpt lat="40.906458623939066" lon="8.780025612422847"><ele>121.0</ele><time>2026-04-04T16:03:55.001Z</time></trkpt><trkpt lat="40.90644676812389" lon="8.779856638512884"><ele>122.25</ele><time>2026-04-04T16:03:56.001Z</time></trkpt><trkpt lat="40.906451108172035" lon="8.779683212680615"><ele>123.5</ele><time>2026-04-04T16:03:57.001Z</time></trkpt><trkpt lat="40.906408457220316" lon="8.77951654335118"><ele>124.75</ele><time>2026-04-04T16:03:58.001Z</time></trkpt><trkpt lat="40.906387373560754" lon="8.779365048666712"><ele>126.0</ele><time>2026-04-04T16:03:59.001Z</time></trkpt><trkpt lat="40.906370146777704" lon="8.779226800508148"><ele>128.2</ele><time>2026-04-04T16:04:00.001Z</time></trkpt><trkpt lat="40.90635981996654" lon="8.779092750158501"><ele>130.39999999999998</ele><time>2026-04-04T16:04:01.001Z</time></trkpt><trkpt lat="40.906358290010765" lon="8.778949882844985"><ele>132.6</ele><time>2026-04-04T16:04:02.001Z</time></trkpt><trkpt lat="40.90635469019906" lon="8.778809301312917"><ele>134.79999999999998</ele><time>2026-04-04T16:04:03.001Z</time></trkpt><trkpt lat="40.90634183315602" lon="8.778684907407044"><ele>137.0</ele><time>2026-04-04T16:04:04.001Z</time></trkpt><trkpt lat="40.906328434739486" lon="8.77857132740144"><ele>138.2</ele><time>2026-04-04T16:04:05.001Z</time></trkpt><trkpt lat="40.906292948244506" lon="8.778466671236385"><ele>139.39999999999998</ele><time>2026-04-04T16:04:06.001Z</time></trkpt><trkpt lat="40.906234962733556" lon="8.778384526901206"><ele>140.60000000000002</ele><time>2026-04-04T16:04:07.001Z</time></trkpt><trkpt lat="40.90615506299738" lon="8.778329058184172"><ele>141.8</ele><time>2026-04-04T16:04:08.001Z</time></trkpt><trkpt lat="40.90603858859348" lon="8.778308784856655"><ele>143.0</ele><time>2026-04-04T16:04:09.001Z</time></trkpt><trkpt lat="40.90593005664131" lon="8.778282025074141"><ele>140.6</ele><time>2026-04-04T16:04:10.001Z</time></trkpt><trkpt lat="40.90583194518738" lon="8.778236462023072"><ele>138.20000000000002</ele><time>2026-04-04T16:04:11.001Z</time></trkpt><trkpt lat="40.905734860512794" lon="8.778181754079121"><ele>135.8</ele><time>2026-04-04T16:04:12.001Z</time></trkpt><trkpt lat="40.90561010925192" lon="8.77818135910887"><ele>133.4</ele><time>2026-04-04T16:04:13.001Z</time></trkpt><trkpt lat="40.90550132480109" lon="8.77817905804875"><ele>131.0</ele><time>2026-04-04T16:04:14.001Z</time></trkpt><trkpt lat="40.905394992031376" lon="8.778173965613504"><ele>131.0</ele><time>2026-04-04T16:04:15.001Z</time></trkpt><trkpt lat="40.90529310679239" lon="8.778174137651757"><ele>131.0</ele><time>2026-04-04T16:04:16.001Z</time></trkpt><trkpt lat="40.90520487288191" lon="8.778193169494411"><ele>131.0</ele><time>2026-04-04T16:04:17.001Z</time></trkpt><trkpt lat="40.90513415144616" lon="8.778244200594434"><ele>131.0</ele><time>2026-04-04T16:04:18.001Z</time></trkpt><trkpt lat="40.9050597405556" lon="8.77824489101537"><ele>131.0</ele><time>2026-04-04T16:04:19.001Z</time></trkpt><trkpt lat="40.90498556206332" lon="8.778210510252352"><ele>131.0</ele><time>2026-04-04T16:04:20.001Z</time></trkpt><trkpt lat="40.904928486166796" lon="8.778104549065665"><ele>129.2</ele><time>2026-04-04T16:04:21.001Z</time></trkpt><trkpt lat="40.904845440920354" lon="8.778016906087268"><ele>127.39999999999999</ele><time>2026-04-04T16:04:22.001Z</time></trkpt><trkpt lat="40.904780820401" lon="8.777906615554155"><ele>125.6</ele><time>2026-04-04T16:04:23.001Z</time></trkpt><trkpt lat="40.904725840448094" lon="8.77777565401312"><ele>123.8</ele><time>2026-04-04T16:04:24.001Z</time></trkpt><trkpt lat="40.90467406512535" lon="8.777643881813903"><ele>122.0</ele><time>2026-04-04T16:04:25.001Z</time></trkpt><trkpt lat="40.90462805663207" lon="8.777520571947797"><ele>121.0</ele><time>2026-04-04T16:04:26Z</time></trkpt><trkpt lat="40.9045698270368" lon="8.777407735061145"><ele>119.99999999999999</ele><time>2026-04-04T16:04:27Z</time></trkpt><trkpt lat="40.90448854592421" lon="8.777310585260034"><ele>118.99999999999999</ele><time>2026-04-04T16:04:28Z</time></trkpt><trkpt lat="40.90438660301762" lon="8.777222560653163"><ele>118.0</ele><time>2026-04-04T16:04:29Z</time></trkpt><trkpt lat="40.904300708816905" lon="8.777132303394747"><ele>117.0</ele><time>2026-04-04T16:04:30Z</time></trkpt><trkpt lat="40.90423906468103" lon="8.777033463460139"><ele>115.25</ele><time>2026-04-04T16:04:31Z</time></trkpt><trkpt lat="40.904203389108105" lon="8.776919568867696"><ele>113.5</ele><time>2026-04-04T16:04:32Z</time></trkpt><trkpt lat="40.90416608866674" lon="8.776771465267666"><ele>111.75</ele><time>2026-04-04T16:04:33Z</time></trkpt><trkpt lat="40.90413593169144" lon="8.776579931129492"><ele>110.0</ele><time>2026-04-04T16:04:34Z</time></trkpt><trkpt lat="40.904101688451235" lon="8.77637205349282"><ele>109.75</ele><time>2026-04-04T16:04:35Z</time></trkpt><trkpt lat="40.904060269326166" lon="8.776188791511437"><ele>109.5</ele><time>2026-04-04T16:04:36Z</time></trkpt><trkpt lat="40.904061365378986" lon="8.776002780925092"><ele>109.25</ele><time>2026-04-04T16:04:37Z</time></trkpt><trkpt lat="40.90402047742205" lon="8.775838895708096"><ele>109.0</ele><time>2026-04-04T16:04:38Z</time></trkpt><trkpt lat="40.90403457455963" lon="8.775678659666104"><ele>109.2</ele><time>2026-04-04T16:04:39Z</time></trkpt><trkpt lat="40.904052409899464" lon="8.775527173762775"><ele>109.4</ele><time>2026-04-04T16:04:40Z</time></trkpt><trkpt lat="40.90403885144869" lon="8.775383494099248"><ele>109.6</ele><time>2026-04-04T16:04:41Z</time></trkpt><trkpt lat="40.90400465802131" lon="8.775249218254551"><ele>109.8</ele><time>2026-04-04T16:04:42Z</time></trkpt><trkpt lat="40.90394812739438" lon="8.775128129386179"><ele>110.0</ele><time>2026-04-04T16:04:43Z</time></trkpt><trkpt lat="40.90388872133571" lon="8.775021952074209"><ele>110.0</ele><time>2026-04-04T16:04:44Z</time></trkpt><trkpt lat="40.90381905951195" lon="8.774932119886534"><ele>110.0</ele><time>2026-04-04T16:04:45Z</time></trkpt><trkpt lat="40.90371309738793" lon="8.77488811799345"><ele>110.0</ele><time>2026-04-04T16:04:46Z</time></trkpt><trkpt lat="40.90360121925204" lon="8.77492630343956"><ele>110.0</ele><time>2026-04-04T16:04:47Z</time></trkpt><trkpt lat="40.90348820181056" lon="8.774918685148428"><ele>110.0</ele><time>2026-04-04T16:04:48Z</time></trkpt><trkpt lat="40.90337367590427" lon="8.774912060111463"><ele>108.49999999999999</ele><time>2026-04-04T16:04:49Z</time></trkpt><trkpt lat="40.9032762845002" lon="8.774899871181905"><ele>107.0</ele><time>2026-04-04T16:04:50Z</time></trkpt><trkpt lat="40.903202303626024" lon="8.774885435395683"><ele>105.5</ele><time>2026-04-04T16:04:51Z</time></trkpt><trkpt lat="40.90309350324607" lon="8.77486252890393"><ele>104.0</ele><time>2026-04-04T16:04:53Z</time></trkpt><trkpt lat="40.90301740971451" lon="8.774825934127138"><ele>102.49999999999999</ele><time>2026-04-04T16:04:55Z</time></trkpt><trkpt lat="40.90294892185158" lon="8.774762751297937"><ele>101.0</ele><time>2026-04-04T16:05:17Z</time></trkpt><trkpt lat="40.90284667648074" lon="8.774764296395809"><ele>101.0</ele><time>2026-04-04T16:05:19Z</time></trkpt><trkpt lat="40.90270435732697" lon="8.774783642541076"><ele>101.0</ele><time>2026-04-04T16:05:21Z</time></trkpt><trkpt lat="40.9026296660813" lon="8.774743135484469"><ele>101.0</ele><time>2026-04-04T16:05:22Z</time></trkpt><trkpt lat="40.90255772280846" lon="8.774866841941131"><ele>101.0</ele><time>2026-04-04T16:05:24Z</time></trkpt><trkpt lat="40.902554527967126" lon="8.775088290546673"><ele>100.6</ele><time>2026-04-04T16:05:26Z</time></trkpt><trkpt lat="40.902551976869546" lon="8.77519180098123"><ele>100.19999999999999</ele><time>2026-04-04T16:05:27Z</time></trkpt><trkpt lat="40.90258817128151" lon="8.775296883005906"><ele>99.80000000000001</ele><time>2026-04-04T16:05:28Z</time></trkpt><trkpt lat="40.902582957774214" lon="8.775404527261456"><ele>99.4</ele><time>2026-04-04T16:05:29Z</time></trkpt><trkpt lat="40.902552283961846" lon="8.775531556615938"><ele>99.0</ele><time>2026-04-04T16:05:30Z</time></trkpt><trkpt lat="40.90249535558685" lon="8.775670089691165"><ele>97.2</ele><time>2026-04-04T16:05:31Z</time></trkpt><trkpt lat="40.90240329409614" lon="8.77578336287091"><ele>95.4</ele><time>2026-04-04T16:05:32Z</time></trkpt><trkpt lat="40.90235570620913" lon="8.775921309225456"><ele>93.6</ele><time>2026-04-04T16:05:33Z</time></trkpt><trkpt lat="40.90231700613971" lon="8.77605601957274"><ele>91.8</ele><time>2026-04-04T16:05:34Z</time></trkpt><trkpt lat="40.9022822359576" lon="8.776176505667777"><ele>90.0</ele><time>2026-04-04T16:05:35Z</time></trkpt><trkpt lat="40.9022429298099" lon="8.776285414862954"><ele>90.0</ele><time>2026-04-04T16:05:36Z</time></trkpt><trkpt lat="40.902186314093875" lon="8.776379442310045"><ele>90.0</ele><time>2026-04-04T16:05:37Z</time></trkpt><trkpt lat="40.90210858573613" lon="8.77646361704943"><ele>90.0</ele><time>2026-04-04T16:05:38Z</time></trkpt><trkpt lat="40.90201819391811" lon="8.776552798096724"><ele>90.0</ele><time>2026-04-04T16:05:39Z</time></trkpt><trkpt lat="40.90192997694987" lon="8.776634509468364"><ele>90.0</ele><time>2026-04-04T16:05:40Z</time></trkpt><trkpt lat="40.901841538604494" lon="8.776712504422793"><ele>90.0</ele><time>2026-04-04T16:05:41Z</time></trkpt><trkpt lat="40.90176565360016" lon="8.77680059718824"><ele>90.0</ele><time>2026-04-04T16:05:42Z</time></trkpt><trkpt lat="40.90172860036371" lon="8.77691626205604"><ele>90.0</ele><time>2026-04-04T16:05:43Z</time></trkpt><trkpt lat="40.901674006641656" lon="8.777012029078891"><ele>90.0</ele><time>2026-04-04T16:05:44Z</time></trkpt><trkpt lat="40.90162663752323" lon="8.7771170204162"><ele>90.0</ele><time>2026-04-04T16:05:45Z</time></trkpt><trkpt lat="40.901568707875995" lon="8.777159543961186"><ele>90.0</ele><time>2026-04-04T16:05:46.001Z</time></trkpt><trkpt lat="40.901488011120385" lon="8.777187448172878"><ele>87.4</ele><time>2026-04-04T16:05:47.001Z</time></trkpt><trkpt lat="40.901383144519656" lon="8.777183397500792"><ele>84.8</ele><time>2026-04-04T16:05:48.001Z</time></trkpt><trkpt lat="40.90127395077424" lon="8.77719599099063"><ele>82.2</ele><time>2026-04-04T16:05:49.001Z</time></trkpt><trkpt lat="40.901195530508524" lon="8.777214491386456"><ele>79.6</ele><time>2026-04-04T16:05:50.001Z</time></trkpt><trkpt lat="40.901128350813316" lon="8.777308060992368"><ele>77.0</ele><time>2026-04-04T16:05:51.001Z</time></trkpt><trkpt lat="40.90107539761436" lon="8.777396419244706"><ele>77.0</ele><time>2026-04-04T16:05:52.001Z</time></trkpt><trkpt lat="40.901008183351266" lon="8.777425344785934"><ele>77.0</ele><time>2026-04-04T16:05:53.001Z</time></trkpt><trkpt lat="40.90091489205129" lon="8.777374463151125"><ele>77.0</ele><time>2026-04-04T16:05:55.001Z</time></trkpt><trkpt lat="40.90084944216894" lon="8.777244338724232"><ele>77.0</ele><time>2026-04-04T16:05:57.001Z</time></trkpt><trkpt lat="40.9007960401312" lon="8.777132608273929"><ele>77.0</ele><time>2026-04-04T16:05:58.001Z</time></trkpt><trkpt lat="40.90072611335231" lon="8.777009448137964"><ele>76.0</ele><time>2026-04-04T16:05:59.001Z</time></trkpt><trkpt lat="40.90064103407942" lon="8.776915059429227"><ele>75.0</ele><time>2026-04-04T16:06:00.001Z</time></trkpt><trkpt lat="40.90053332363884" lon="8.776839859149021"><ele>74.0</ele><time>2026-04-04T16:06:01.001Z</time></trkpt><trkpt lat="40.90041002487455" lon="8.776800188802552"><ele>73.0</ele><time>2026-04-04T16:06:02.001Z</time></trkpt><trkpt lat="40.900274717223425" lon="8.776801525081442"><ele>73.0</ele><time>2026-04-04T16:06:03.001Z</time></trkpt><trkpt lat="40.90011815410028" lon="8.77677649844756"><ele>73.0</ele><time>2026-04-04T16:06:04.001Z</time></trkpt><trkpt lat="40.8999728790846" lon="8.776767793168139"><ele>73.0</ele><time>2026-04-04T16:06:05.001Z</time></trkpt><trkpt lat="40.89985700877215" lon="8.776743324394769"><ele>73.0</ele><time>2026-04-04T16:06:06.001Z</time></trkpt><trkpt lat="40.899746987409664" lon="8.77669555710666"><ele>74.0</ele><time>2026-04-04T16:06:07.001Z</time></trkpt><trkpt lat="40.89960935313086" lon="8.776631389316556"><ele>75.0</ele><time>2026-04-04T16:06:08.001Z</time></trkpt><trkpt lat="40.89946354945424" lon="8.776579117579278"><ele>76.0</ele><time>2026-04-04T16:06:09.001Z</time></trkpt><trkpt lat="40.89931988827281" lon="8.776545910293729"><ele>77.0</ele><time>2026-04-04T16:06:10.001Z</time></trkpt><trkpt lat="40.89918612612579" lon="8.77651517995041"><ele>77.8</ele><time>2026-04-04T16:06:11.001Z</time></trkpt><trkpt lat="40.89906990636401" lon="8.776470674777926"><ele>78.6</ele><time>2026-04-04T16:06:12.001Z</time></trkpt><trkpt lat="40.89897137517033" lon="8.776408545701843"><ele>79.39999999999999</ele><time>2026-04-04T16:06:13.001Z</time></trkpt><trkpt lat="40.89888954451031" lon="8.776335185773721"><ele>80.2</ele><time>2026-04-04T16:06:14.001Z</time></trkpt><trkpt lat="40.898824244908326" lon="8.776231356855899"><ele>81.0</ele><time>2026-04-04T16:06:15.001Z</time></trkpt><trkpt lat="40.89876855616186" lon="8.776083318354875"><ele>81.0</ele><time>2026-04-04T16:06:16.001Z</time></trkpt><trkpt lat="40.898688461341656" lon="8.775935576420968"><ele>81.0</ele><time>2026-04-04T16:06:17.001Z</time></trkpt><trkpt lat="40.89860776014343" lon="8.775812581009003"><ele>81.0</ele><time>2026-04-04T16:06:18.001Z</time></trkpt><trkpt lat="40.89850987894561" lon="8.775712740137598"><ele>81.0</ele><time>2026-04-04T16:06:19.001Z</time></trkpt><trkpt lat="40.8983906743503" lon="8.775634488318495"><ele>81.0</ele><time>2026-04-04T16:06:20.001Z</time></trkpt><trkpt lat="40.89826847519355" lon="8.775562603231698"><ele>81.0</ele><time>2026-04-04T16:06:21.001Z</time></trkpt><trkpt lat="40.8981467331524" lon="8.77551221877993"><ele>81.0</ele><time>2026-04-04T16:06:22.001Z</time></trkpt><trkpt lat="40.89800094688489" lon="8.775487391156245"><ele>81.0</ele><time>2026-04-04T16:06:23.001Z</time></trkpt><trkpt lat="40.89785850630403" lon="8.775474927549562"><ele>81.0</ele><time>2026-04-04T16:06:24.001Z</time></trkpt><trkpt lat="40.89774963638305" lon="8.775448958018236"><ele>81.0</ele><time>2026-04-04T16:06:25.001Z</time></trkpt><trkpt lat="40.897671410369874" lon="8.775399062771498"><ele>81.0</ele><time>2026-04-04T16:06:26.001Z</time></trkpt><trkpt lat="40.89760175123311" lon="8.775333573174612"><ele>81.0</ele><time>2026-04-04T16:06:27.001Z</time></trkpt><trkpt lat="40.89753035028087" lon="8.77523515761303"><ele>81.0</ele><time>2026-04-04T16:06:28.001Z</time></trkpt><trkpt lat="40.89743279582546" lon="8.775164975288977"><ele>81.4</ele><time>2026-04-04T16:06:29.001Z</time></trkpt><trkpt lat="40.89734602379625" lon="8.775079307183328"><ele>81.8</ele><time>2026-04-04T16:06:30.001Z</time></trkpt><trkpt lat="40.89722934974978" lon="8.775025981937672"><ele>82.2</ele><time>2026-04-04T16:06:31.001Z</time></trkpt><trkpt lat="40.89712908726582" lon="8.775010204975409"><ele>82.60000000000001</ele><time>2026-04-04T16:06:32Z</time></trkpt><trkpt lat="40.89702830523826" lon="8.774995390957542"><ele>83.0</ele><time>2026-04-04T16:06:33Z</time></trkpt><trkpt lat="40.89694647854322" lon="8.774931825610881"><ele>83.0</ele><time>2026-04-04T16:06:34Z</time></trkpt><trkpt lat="40.8968461456158" lon="8.774869715137166"><ele>83.0</ele><time>2026-04-04T16:06:35Z</time></trkpt><trkpt lat="40.8967809388878" lon="8.774725182393604"><ele>83.0</ele><time>2026-04-04T16:06:36Z</time></trkpt><trkpt lat="40.896657451358855" lon="8.77458609204282"><ele>83.0</ele><time>2026-04-04T16:06:37Z</time></trkpt><trkpt lat="40.89651297079272" lon="8.774430796151766"><ele>83.25</ele><time>2026-04-04T16:06:38Z</time></trkpt><trkpt lat="40.896379665344384" lon="8.774298093592467"><ele>83.5</ele><time>2026-04-04T16:06:39Z</time></trkpt><trkpt lat="40.89627093341988" lon="8.77417758498698"><ele>83.75</ele><time>2026-04-04T16:06:40Z</time></trkpt><trkpt lat="40.89618639024567" lon="8.77406092926559"><ele>84.0</ele><time>2026-04-04T16:06:41Z</time></trkpt><trkpt lat="40.89611270385559" lon="8.77394843184315"><ele>84.0</ele><time>2026-04-04T16:06:42Z</time></trkpt><trkpt lat="40.89604114834019" lon="8.773850219007047"><ele>84.0</ele><time>2026-04-04T16:06:43Z</time></trkpt><trkpt lat="40.895960761477" lon="8.773788451951352"><ele>84.0</ele><time>2026-04-04T16:06:44Z</time></trkpt><trkpt lat="40.89587788522655" lon="8.773767194680227"><ele>84.0</ele><time>2026-04-04T16:06:45Z</time></trkpt><trkpt lat="40.89576742637593" lon="8.773788134687198"><ele>84.0</ele><time>2026-04-04T16:06:46Z</time></trkpt><trkpt lat="40.89565680501195" lon="8.773832136303193"><ele>84.0</ele><time>2026-04-04T16:06:47Z</time></trkpt><trkpt lat="40.89554252368114" lon="8.773892840528788"><ele>84.0</ele><time>2026-04-04T16:06:48Z</time></trkpt><trkpt lat="40.89540927940156" lon="8.773980941616944"><ele>84.0</ele><time>2026-04-04T16:06:49Z</time></trkpt><trkpt lat="40.89530591136981" lon="8.774045233232776"><ele>84.0</ele><time>2026-04-04T16:06:50Z</time></trkpt><trkpt lat="40.89523576378732" lon="8.774069673482883"><ele>84.0</ele><time>2026-04-04T16:06:51Z</time></trkpt><trkpt lat="40.89515163549708" lon="8.773979074998111"><ele>84.0</ele><time>2026-04-04T16:06:53Z</time></trkpt><trkpt lat="40.895070555711946" lon="8.773895437390578"><ele>84.0</ele><time>2026-04-04T16:06:54Z</time></trkpt><trkpt lat="40.89495985343477" lon="8.773792936791994"><ele>84.0</ele><time>2026-04-04T16:06:55Z</time></trkpt><trkpt lat="40.894816904068534" lon="8.773691696942155"><ele>84.25</ele><time>2026-04-04T16:06:56Z</time></trkpt><trkpt lat="40.89468815554169" lon="8.773579858627029"><ele>84.5</ele><time>2026-04-04T16:06:57Z</time></trkpt><trkpt lat="40.89458331373131" lon="8.77346873489702"><ele>84.75</ele><time>2026-04-04T16:06:58Z</time></trkpt><trkpt lat="40.894456951714645" lon="8.773375589745838"><ele>85.0</ele><time>2026-04-04T16:06:59Z</time></trkpt><trkpt lat="40.89432589316199" lon="8.773285907265429"><ele>85.0</ele><time>2026-04-04T16:07:00Z</time></trkpt><trkpt lat="40.89422007767722" lon="8.773189852691488"><ele>85.0</ele><time>2026-04-04T16:07:01Z</time></trkpt><trkpt lat="40.89413282606539" lon="8.773112532154709"><ele>85.0</ele><time>2026-04-04T16:07:02Z</time></trkpt><trkpt lat="40.89406305455096" lon="8.773054659282206"><ele>85.0</ele><time>2026-04-04T16:07:03Z</time></trkpt><trkpt lat="40.89395068293525" lon="8.773012120522836"><ele>85.0</ele><time>2026-04-04T16:07:05Z</time></trkpt><trkpt lat="40.89387051445961" lon="8.773093806564747"><ele>85.0</ele><time>2026-04-04T16:07:06Z</time></trkpt><trkpt lat="40.893772908853805" lon="8.773159915634723"><ele>85.0</ele><time>2026-04-04T16:07:07Z</time></trkpt><trkpt lat="40.8936861189483" lon="8.773195982563857"><ele>85.0</ele><time>2026-04-04T16:07:08Z</time></trkpt><trkpt lat="40.89359497802871" lon="8.773201055242367"><ele>85.0</ele><time>2026-04-04T16:07:09Z</time></trkpt><trkpt lat="40.89348923446281" lon="8.773193347596894"><ele>85.0</ele><time>2026-04-04T16:07:10Z</time></trkpt><trkpt lat="40.89337168289036" lon="8.773158551786022"><ele>85.25</ele><time>2026-04-04T16:07:11Z</time></trkpt><trkpt lat="40.89325228991975" lon="8.773107150004716"><ele>85.5</ele><time>2026-04-04T16:07:12Z</time></trkpt><trkpt lat="40.893154234629414" lon="8.773030706801984"><ele>85.75</ele><time>2026-04-04T16:07:13Z</time></trkpt><trkpt lat="40.89307507285091" lon="8.772942983402583"><ele>86.0</ele><time>2026-04-04T16:07:14Z</time></trkpt><trkpt lat="40.893009254109124" lon="8.772820676840869"><ele>86.25</ele><time>2026-04-04T16:07:15Z</time></trkpt><trkpt lat="40.89294866138084" lon="8.77265651156312"><ele>86.5</ele><time>2026-04-04T16:07:16Z</time></trkpt><trkpt lat="40.89286414770225" lon="8.772509134580172"><ele>86.75</ele><time>2026-04-04T16:07:17Z</time></trkpt><trkpt lat="40.892777152274235" lon="8.772397316626886"><ele>87.0</ele><time>2026-04-04T16:07:18Z</time></trkpt><trkpt lat="40.892681239148814" lon="8.772335381917683"><ele>87.0</ele><time>2026-04-04T16:07:19Z</time></trkpt><trkpt lat="40.892616817279965" lon="8.77224717803617"><ele>87.0</ele><time>2026-04-04T16:07:20Z</time></trkpt><trkpt lat="40.89254968498521" lon="8.77215201288279"><ele>87.0</ele><time>2026-04-04T16:07:21Z</time></trkpt><trkpt lat="40.89247829689434" lon="8.772127978533868"><ele>87.0</ele><time>2026-04-04T16:07:22Z</time></trkpt><trkpt lat="40.89240849164199" lon="8.772125774910036"><ele>87.0</ele><time>2026-04-04T16:07:23Z</time></trkpt><trkpt lat="40.89233871481402" lon="8.772151007006775"><ele>87.0</ele><time>2026-04-04T16:07:24Z</time></trkpt><trkpt lat="40.89226127972874" lon="8.772187712960253"><ele>86.8</ele><time>2026-04-04T16:07:25Z</time></trkpt><trkpt lat="40.89217076119904" lon="8.772225314666704"><ele>86.6</ele><time>2026-04-04T16:07:26Z</time></trkpt><trkpt lat="40.89205840148092" lon="8.772273884686538"><ele>86.39999999999999</ele><time>2026-04-04T16:07:27Z</time></trkpt><trkpt lat="40.89194191737274" lon="8.77230026464104"><ele>86.19999999999999</ele><time>2026-04-04T16:07:28Z</time></trkpt><trkpt lat="40.89184791489526" lon="8.772282699644192"><ele>86.0</ele><time>2026-04-04T16:07:29Z</time></trkpt><trkpt lat="40.891743538939345" lon="8.772232821657074"><ele>86.6</ele><time>2026-04-04T16:07:30Z</time></trkpt><trkpt lat="40.89163386992307" lon="8.77218384088134"><ele>87.19999999999999</ele><time>2026-04-04T16:07:31Z</time></trkpt><trkpt lat="40.89153530021885" lon="8.77214660917262"><ele>87.80000000000001</ele><time>2026-04-04T16:07:32Z</time></trkpt><trkpt lat="40.89142497886874" lon="8.772126493877671"><ele>88.4</ele><time>2026-04-04T16:07:33Z</time></trkpt><trkpt lat="40.8913111340778" lon="8.77212044680877"><ele>89.0</ele><time>2026-04-04T16:07:34Z</time></trkpt><trkpt lat="40.89119166271874" lon="8.772129846815373"><ele>89.0</ele><time>2026-04-04T16:07:35Z</time></trkpt><trkpt lat="40.891063978747006" lon="8.772126878023771"><ele>89.0</ele><time>2026-04-04T16:07:36Z</time></trkpt><trkpt lat="40.89095021379604" lon="8.772109524536223"><ele>89.0</ele><time>2026-04-04T16:07:37Z</time></trkpt><trkpt lat="40.89083037341073" lon="8.772121190489994"><ele>89.0</ele><time>2026-04-04T16:07:38Z</time></trkpt><trkpt lat="40.8907293634733" lon="8.772032776240232"><ele>89.4</ele><time>2026-04-04T16:07:39Z</time></trkpt><trkpt lat="40.89065005613525" lon="8.77195515588079"><ele>89.80000000000001</ele><time>2026-04-04T16:07:40Z</time></trkpt><trkpt lat="40.89058142683369" lon="8.771923567707859"><ele>90.19999999999999</ele><time>2026-04-04T16:07:41Z</time></trkpt><trkpt lat="40.8905018234019" lon="8.77193709262724"><ele>90.6</ele><time>2026-04-04T16:07:42Z</time></trkpt><trkpt lat="40.89039429033553" lon="8.771953702018012"><ele>91.0</ele><time>2026-04-04T16:07:43Z</time></trkpt><trkpt lat="40.89028969238679" lon="8.771940468938265"><ele>91.0</ele><time>2026-04-04T16:07:44Z</time></trkpt><trkpt lat="40.89021028066921" lon="8.771889116293373"><ele>91.0</ele><time>2026-04-04T16:07:45Z</time></trkpt><trkpt lat="40.89015142473143" lon="8.771776532738624"><ele>91.0</ele><time>2026-04-04T16:07:46Z</time></trkpt><trkpt lat="40.890092061279375" lon="8.771639648236606"><ele>91.0</ele><time>2026-04-04T16:07:47Z</time></trkpt><trkpt lat="40.889996440007835" lon="8.771513304348176"><ele>91.0</ele><time>2026-04-04T16:07:48Z</time></trkpt><trkpt lat="40.889872611195045" lon="8.771431207499049"><ele>91.75</ele><time>2026-04-04T16:07:49Z</time></trkpt><trkpt lat="40.88974332153517" lon="8.771344198686382"><ele>92.5</ele><time>2026-04-04T16:07:50Z</time></trkpt><trkpt lat="40.88963724712371" lon="8.771253663106782"><ele>93.25</ele><time>2026-04-04T16:07:51Z</time></trkpt><trkpt lat="40.889526580714076" lon="8.771149954882727"><ele>94.0</ele><time>2026-04-04T16:07:52.001Z</time></trkpt><trkpt lat="40.88940879458904" lon="8.771041586567668"><ele>94.5</ele><time>2026-04-04T16:07:53.001Z</time></trkpt><trkpt lat="40.8893190058141" lon="8.770932744714118"><ele>95.0</ele><time>2026-04-04T16:07:54.001Z</time></trkpt><trkpt lat="40.88923364485813" lon="8.770824462105772"><ele>95.5</ele><time>2026-04-04T16:07:55.001Z</time></trkpt><trkpt lat="40.88913846024225" lon="8.77071550300296"><ele>96.0</ele><time>2026-04-04T16:07:56.001Z</time></trkpt><trkpt lat="40.88904231029869" lon="8.770612826215926"><ele>96.25</ele><time>2026-04-04T16:07:57.001Z</time></trkpt><trkpt lat="40.88894757889294" lon="8.770519369569136"><ele>96.5</ele><time>2026-04-04T16:07:58.001Z</time></trkpt><trkpt lat="40.88884017734404" lon="8.770443764777646"><ele>96.75</ele><time>2026-04-04T16:07:59.001Z</time></trkpt><trkpt lat="40.88871190150345" lon="8.770395101759116"><ele>97.0</ele><time>2026-04-04T16:08:00.001Z</time></trkpt><trkpt lat="40.88858831269459" lon="8.77035092927303"><ele>97.0</ele><time>2026-04-04T16:08:01.001Z</time></trkpt><trkpt lat="40.88847241893224" lon="8.770316563040453"><ele>97.0</ele><time>2026-04-04T16:08:02.001Z</time></trkpt><trkpt lat="40.88836360022314" lon="8.770289320708018"><ele>97.0</ele><time>2026-04-04T16:08:03.001Z</time></trkpt><trkpt lat="40.888244068954144" lon="8.770282948463732"><ele>97.0</ele><time>2026-04-04T16:08:04.001Z</time></trkpt><trkpt lat="40.888122783312944" lon="8.770322150563057"><ele>97.33333333333334</ele><time>2026-04-04T16:08:05.001Z</time></trkpt><trkpt lat="40.8880272459856" lon="8.770341688454433"><ele>97.66666666666667</ele><time>2026-04-04T16:08:06.001Z</time></trkpt><trkpt lat="40.887960567930044" lon="8.770342311712193"><ele>98.0</ele><time>2026-04-04T16:08:07.001Z</time></trkpt><trkpt lat="40.88790022946705" lon="8.770274009586984"><ele>98.33333333333334</ele><time>2026-04-04T16:08:09.001Z</time></trkpt><trkpt lat="40.88790167115527" lon="8.770187560218258"><ele>98.66666666666667</ele><time>2026-04-04T16:08:10.001Z</time></trkpt><trkpt lat="40.887898247382296" lon="8.770060993587673"><ele>99.0</ele><time>2026-04-04T16:08:11.001Z</time></trkpt><trkpt lat="40.88787826928021" lon="8.769959121770803"><ele>99.0</ele><time>2026-04-04T16:08:12.001Z</time></trkpt><trkpt lat="40.8878204411451" lon="8.769870199931256"><ele>99.0</ele><time>2026-04-04T16:08:13.001Z</time></trkpt><trkpt lat="40.887734247483124" lon="8.769791155525667"><ele>99.0</ele><time>2026-04-04T16:08:14.001Z</time></trkpt><trkpt lat="40.887626133680136" lon="8.769726518067413"><ele>99.0</ele><time>2026-04-04T16:08:15.001Z</time></trkpt><trkpt lat="40.88751434725445" lon="8.769670220707471"><ele>99.0</ele><time>2026-04-04T16:08:16.001Z</time></trkpt><trkpt lat="40.88740629536248" lon="8.769606361395828"><ele>99.0</ele><time>2026-04-04T16:08:17.001Z</time></trkpt><trkpt lat="40.88730373991216" lon="8.769542943482673"><ele>99.0</ele><time>2026-04-04T16:08:18.001Z</time></trkpt><trkpt lat="40.887203501129825" lon="8.769477992800082"><ele>99.0</ele><time>2026-04-04T16:08:19.001Z</time></trkpt><trkpt lat="40.88709167046042" lon="8.769432325626704"><ele>99.0</ele><time>2026-04-04T16:08:20.001Z</time></trkpt><trkpt lat="40.88701080742584" lon="8.769332441374365"><ele>99.0</ele><time>2026-04-04T16:08:21.001Z</time></trkpt><trkpt lat="40.88694688689428" lon="8.769221235456342"><ele>99.0</ele><time>2026-04-04T16:08:22.001Z</time></trkpt><trkpt lat="40.886856721994796" lon="8.769156844386325"><ele>99.0</ele><time>2026-04-04T16:08:23.001Z</time></trkpt><trkpt lat="40.886761409046954" lon="8.76909306545462"><ele>99.0</ele><time>2026-04-04T16:08:24.001Z</time></trkpt><trkpt lat="40.886671869112185" lon="8.769046148581687"><ele>99.0</ele><time>2026-04-04T16:08:25.001Z</time></trkpt><trkpt lat="40.886587983770205" lon="8.769079797207109"><ele>99.80000000000001</ele><time>2026-04-04T16:08:26.001Z</time></trkpt><trkpt lat="40.88651739760527" lon="8.769101566096802"><ele>100.60000000000001</ele><time>2026-04-04T16:08:27.001Z</time></trkpt><trkpt lat="40.88641581487591" lon="8.76913666009302"><ele>101.4</ele><time>2026-04-04T16:08:28.001Z</time></trkpt><trkpt lat="40.88630027596313" lon="8.769171942613616"><ele>102.2</ele><time>2026-04-04T16:08:29.001Z</time></trkpt><trkpt lat="40.886199285426045" lon="8.769190594796594"><ele>103.0</ele><time>2026-04-04T16:08:30.001Z</time></trkpt><trkpt lat="40.88610372411516" lon="8.769178436223218"><ele>103.0</ele><time>2026-04-04T16:08:31.001Z</time></trkpt><trkpt lat="40.886003731120816" lon="8.76915491220163"><ele>103.0</ele><time>2026-04-04T16:08:32.001Z</time></trkpt><trkpt lat="40.88589954097128" lon="8.76915045364022"><ele>103.0</ele><time>2026-04-04T16:08:33.001Z</time></trkpt><trkpt lat="40.885790443375036" lon="8.76917589339211"><ele>103.0</ele><time>2026-04-04T16:08:34.001Z</time></trkpt><trkpt lat="40.88567171029432" lon="8.769211755064646"><ele>103.0</ele><time>2026-04-04T16:08:35.001Z</time></trkpt><trkpt lat="40.88555576189641" lon="8.76923685296318"><ele>103.5</ele><time>2026-04-04T16:08:36.001Z</time></trkpt><trkpt lat="40.885449021258076" lon="8.769238450467892"><ele>104.0</ele><time>2026-04-04T16:08:37.001Z</time></trkpt><trkpt lat="40.885341452537034" lon="8.769202370486997"><ele>104.5</ele><time>2026-04-04T16:08:38Z</time></trkpt><trkpt lat="40.885230416603385" lon="8.769146492916962"><ele>105.0</ele><time>2026-04-04T16:08:39Z</time></trkpt><trkpt lat="40.88511501598886" lon="8.769075837164658"><ele>106.0</ele><time>2026-04-04T16:08:40Z</time></trkpt><trkpt lat="40.88500109664161" lon="8.76899730753553"><ele>107.0</ele><time>2026-04-04T16:08:41Z</time></trkpt><trkpt lat="40.884884560151384" lon="8.768915606681736"><ele>108.0</ele><time>2026-04-04T16:08:42Z</time></trkpt><trkpt lat="40.8847663316732" lon="8.768832187819207"><ele>109.0</ele><time>2026-04-04T16:08:43Z</time></trkpt><trkpt lat="40.8846495465844" lon="8.768748884266431"><ele>109.0</ele><time>2026-04-04T16:08:44Z</time></trkpt><trkpt lat="40.884534543370386" lon="8.768671449416358"><ele>109.0</ele><time>2026-04-04T16:08:45Z</time></trkpt><trkpt lat="40.88442776705802" lon="8.76859439809983"><ele>109.0</ele><time>2026-04-04T16:08:46Z</time></trkpt><trkpt lat="40.884337127747074" lon="8.768520778750752"><ele>109.0</ele><time>2026-04-04T16:08:47Z</time></trkpt><trkpt lat="40.88425607100022" lon="8.768455460925026"><ele>109.83333333333334</ele><time>2026-04-04T16:08:48Z</time></trkpt><trkpt lat="40.88419456662466" lon="8.768406488338703"><ele>110.66666666666667</ele><time>2026-04-04T16:08:49Z</time></trkpt><trkpt lat="40.884131634220424" lon="8.76836825744511"><ele>111.5</ele><time>2026-04-04T16:08:50Z</time></trkpt><trkpt lat="40.884057596785546" lon="8.768339525157"><ele>112.33333333333334</ele><time>2026-04-04T16:08:51Z</time></trkpt><trkpt lat="40.883957996053155" lon="8.768325534690291"><ele>113.16666666666667</ele><time>2026-04-04T16:08:52Z</time></trkpt><trkpt lat="40.88384068372386" lon="8.768336883030207"><ele>114.0</ele><time>2026-04-04T16:08:53Z</time></trkpt><trkpt lat="40.88372206234091" lon="8.768354701931637"><ele>114.0</ele><time>2026-04-04T16:08:54Z</time></trkpt><trkpt lat="40.88361359799674" lon="8.768396687852885"><ele>114.0</ele><time>2026-04-04T16:08:55Z</time></trkpt><trkpt lat="40.88349788494583" lon="8.768475490278403"><ele>114.0</ele><time>2026-04-04T16:08:56Z</time></trkpt><trkpt lat="40.88338559481153" lon="8.768570296553177"><ele>114.0</ele><time>2026-04-04T16:08:57Z</time></trkpt><trkpt lat="40.88328680189395" lon="8.768646249292505"><ele>116.4</ele><time>2026-04-04T16:08:58Z</time></trkpt><trkpt lat="40.88318072208771" lon="8.768693563307862"><ele>118.80000000000001</ele><time>2026-04-04T16:08:59Z</time></trkpt><trkpt lat="40.883062045355" lon="8.768735267500954"><ele>121.19999999999999</ele><time>2026-04-04T16:09:00Z</time></trkpt><trkpt lat="40.88296695054785" lon="8.768785793814603"><ele>123.6</ele><time>2026-04-04T16:09:01Z</time></trkpt><trkpt lat="40.88290666615648" lon="8.768836808364014"><ele>126.0</ele><time>2026-04-04T16:09:02Z</time></trkpt><trkpt lat="40.88283142213393" lon="8.76886536542099"><ele>126.0</ele><time>2026-04-04T16:09:04Z</time></trkpt><trkpt lat="40.88283874710794" lon="8.768746123173374"><ele>126.0</ele><time>2026-04-04T16:09:07Z</time></trkpt><trkpt lat="40.88286483856147" lon="8.768659853438313"><ele>126.0</ele><time>2026-04-04T16:09:08Z</time></trkpt><trkpt lat="40.882896820394464" lon="8.768527555941226"><ele>126.0</ele><time>2026-04-04T16:09:09Z</time></trkpt><trkpt lat="40.8829236422708" lon="8.768379728753217"><ele>126.0</ele><time>2026-04-04T16:09:10Z</time></trkpt><trkpt lat="40.88294467732659" lon="8.76822592853228"><ele>125.19999999999999</ele><time>2026-04-04T16:09:11Z</time></trkpt><trkpt lat="40.88295655453893" lon="8.768079377918468"><ele>124.39999999999999</ele><time>2026-04-04T16:09:12Z</time></trkpt><trkpt lat="40.8829745190322" lon="8.767945991456845"><ele>123.6</ele><time>2026-04-04T16:09:13Z</time></trkpt><trkpt lat="40.883003182571684" lon="8.767821612258453"><ele>122.8</ele><time>2026-04-04T16:09:14Z</time></trkpt><trkpt lat="40.8830197714352" lon="8.767690581094236"><ele>122.0</ele><time>2026-04-04T16:09:15Z</time></trkpt><trkpt lat="40.8830262838597" lon="8.767558342745145"><ele>122.0</ele><time>2026-04-04T16:09:16Z</time></trkpt><trkpt lat="40.88301842240704" lon="8.76740520028086"><ele>122.0</ele><time>2026-04-04T16:09:17Z</time></trkpt><trkpt lat="40.883008135516526" lon="8.76722152370652"><ele>122.0</ele><time>2026-04-04T16:09:18Z</time></trkpt><trkpt lat="40.88299097845055" lon="8.767060946425353"><ele>122.0</ele><time>2026-04-04T16:09:19Z</time></trkpt><trkpt lat="40.88297599937727" lon="8.766911828673614"><ele>121.99999999999999</ele><time>2026-04-04T16:09:20Z</time></trkpt><trkpt lat="40.882953145068655" lon="8.766773400063439"><ele>122.0</ele><time>2026-04-04T16:09:21Z</time></trkpt><trkpt lat="40.8829217950156" lon="8.766655050531346"><ele>122.0</ele><time>2026-04-04T16:09:22Z</time></trkpt><trkpt lat="40.88288268241685" lon="8.76656765223297"><ele>122.0</ele><time>2026-04-04T16:09:23Z</time></trkpt><trkpt lat="40.88283390317654" lon="8.76649289291769"><ele>121.99999999999999</ele><time>2026-04-04T16:09:24Z</time></trkpt><trkpt lat="40.88277026054654" lon="8.76643296036089"><ele>122.0</ele><time>2026-04-04T16:09:25Z</time></trkpt><trkpt lat="40.88269880571893" lon="8.766389879150472"><ele>121.99999999999999</ele><time>2026-04-04T16:09:26Z</time></trkpt><trkpt lat="40.88261300489261" lon="8.766367028656465"><ele>122.0</ele><time>2026-04-04T16:09:27Z</time></trkpt><trkpt lat="40.88254157142821" lon="8.766335426494082"><ele>122.0</ele><time>2026-04-04T16:09:28Z</time></trkpt><trkpt lat="40.88249050711738" lon="8.766272973987252"><ele>122.0</ele><time>2026-04-04T16:09:29Z</time></trkpt><trkpt lat="40.88247161830857" lon="8.766187604042495"><ele>121.99999999999999</ele><time>2026-04-04T16:09:30Z</time></trkpt><trkpt lat="40.882501199169724" lon="8.766092000081112"><ele>122.0</ele><time>2026-04-04T16:09:31Z</time></trkpt><trkpt lat="40.88255488372078" lon="8.765988784625158"><ele>123.0</ele><time>2026-04-04T16:09:32Z</time></trkpt><trkpt lat="40.88260081773271" lon="8.765875811244788"><ele>124.0</ele><time>2026-04-04T16:09:33Z</time></trkpt><trkpt lat="40.882610918884595" lon="8.765733896593305"><ele>125.0</ele><time>2026-04-04T16:09:34Z</time></trkpt><trkpt lat="40.88262014213378" lon="8.765568590007165"><ele>126.0</ele><time>2026-04-04T16:09:35Z</time></trkpt><trkpt lat="40.88262963865085" lon="8.765404054877958"><ele>126.0</ele><time>2026-04-04T16:09:36Z</time></trkpt><trkpt lat="40.882623839063406" lon="8.765224746264973"><ele>126.0</ele><time>2026-04-04T16:09:37Z</time></trkpt><trkpt lat="40.882623099572534" lon="8.765068016155675"><ele>126.0</ele><time>2026-04-04T16:09:38Z</time></trkpt><trkpt lat="40.88264521092283" lon="8.76493358467297"><ele>126.0</ele><time>2026-04-04T16:09:39Z</time></trkpt><trkpt lat="40.88268533832998" lon="8.76482179666681"><ele>126.6</ele><time>2026-04-04T16:09:40Z</time></trkpt><trkpt lat="40.88275413623568" lon="8.764724756790192"><ele>127.19999999999999</ele><time>2026-04-04T16:09:41Z</time></trkpt><trkpt lat="40.88281505176051" lon="8.764652448193921"><ele>127.80000000000001</ele><time>2026-04-04T16:09:42Z</time></trkpt><trkpt lat="40.8828151498383" lon="8.76449889196114"><ele>128.4</ele><time>2026-04-04T16:09:44Z</time></trkpt><trkpt lat="40.88279159846866" lon="8.764396504342754"><ele>129.0</ele><time>2026-04-04T16:09:45Z</time></trkpt><trkpt lat="40.882791859204346" lon="8.764150270940702"><ele>129.5</ele><time>2026-04-04T16:09:46Z</time></trkpt><trkpt lat="40.88279619376016" lon="8.763955899459265"><ele>130.0</ele><time>2026-04-04T16:09:47Z</time></trkpt><trkpt lat="40.88279070925686" lon="8.763782040728062"><ele>130.5</ele><time>2026-04-04T16:09:48Z</time></trkpt><trkpt lat="40.88279980849226" lon="8.763633487837826"><ele>131.0</ele><time>2026-04-04T16:09:49Z</time></trkpt><trkpt lat="40.88283038627542" lon="8.763506709249059"><ele>132.0</ele><time>2026-04-04T16:09:50Z</time></trkpt><trkpt lat="40.88284109345473" lon="8.763370460264557"><ele>133.0</ele><time>2026-04-04T16:09:51Z</time></trkpt><trkpt lat="40.882810502607185" lon="8.76319737242957"><ele>134.0</ele><time>2026-04-04T16:09:52Z</time></trkpt><trkpt lat="40.88277068411165" lon="8.763042652801781"><ele>135.0</ele><time>2026-04-04T16:09:53Z</time></trkpt><trkpt lat="40.882742909196224" lon="8.762896816929192"><ele>135.0</ele><time>2026-04-04T16:09:54Z</time></trkpt><trkpt lat="40.88271999317482" lon="8.762741333399259"><ele>135.0</ele><time>2026-04-04T16:09:55Z</time></trkpt><trkpt lat="40.88269670893509" lon="8.762583857953732"><ele>135.0</ele><time>2026-04-04T16:09:56.001Z</time></trkpt><trkpt lat="40.88268631503169" lon="8.762419348090859"><ele>135.0</ele><time>2026-04-04T16:09:57.001Z</time></trkpt><trkpt lat="40.882659792465205" lon="8.76224300700403"><ele>137.0</ele><time>2026-04-04T16:09:58.001Z</time></trkpt><trkpt lat="40.88261382878075" lon="8.762037399901882"><ele>139.0</ele><time>2026-04-04T16:09:59.001Z</time></trkpt><trkpt lat="40.8825575969888" lon="8.761838943424006"><ele>141.0</ele><time>2026-04-04T16:10:00.001Z</time></trkpt><trkpt lat="40.88248916647501" lon="8.761650226769426"><ele>142.0</ele><time>2026-04-04T16:10:01.001Z</time></trkpt><trkpt lat="40.88241885715095" lon="8.761468234704033"><ele>143.0</ele><time>2026-04-04T16:10:02.001Z</time></trkpt><trkpt lat="40.88236076707908" lon="8.761289279080753"><ele>144.0</ele><time>2026-04-04T16:10:03.001Z</time></trkpt><trkpt lat="40.882314133400705" lon="8.761117120779373"><ele>145.0</ele><time>2026-04-04T16:10:04.001Z</time></trkpt><trkpt lat="40.88227486657272" lon="8.76095151454813"><ele>147.25</ele><time>2026-04-04T16:10:05.001Z</time></trkpt><trkpt lat="40.88224743179427" lon="8.76080872962233"><ele>149.5</ele><time>2026-04-04T16:10:06.001Z</time></trkpt><trkpt lat="40.88221089254218" lon="8.760668950816742"><ele>151.75</ele><time>2026-04-04T16:10:07.001Z</time></trkpt><trkpt lat="40.88214817616241" lon="8.760537903729846"><ele>154.0</ele><time>2026-04-04T16:10:08.001Z</time></trkpt><trkpt lat="40.882072228645946" lon="8.76040421920791"><ele>154.0</ele><time>2026-04-04T16:10:09.001Z</time></trkpt><trkpt lat="40.88200294864512" lon="8.760266557927403"><ele>154.0</ele><time>2026-04-04T16:10:10.001Z</time></trkpt><trkpt lat="40.88194074101086" lon="8.760118353653317"><ele>154.0</ele><time>2026-04-04T16:10:11.001Z</time></trkpt><trkpt lat="40.881885541208874" lon="8.759957737400116"><ele>154.0</ele><time>2026-04-04T16:10:12.001Z</time></trkpt><trkpt lat="40.881834388480534" lon="8.75979590630746"><ele>157.25</ele><time>2026-04-04T16:10:13.001Z</time></trkpt><trkpt lat="40.88178420704745" lon="8.759631826091141"><ele>160.5</ele><time>2026-04-04T16:10:14.001Z</time></trkpt><trkpt lat="40.88173857588767" lon="8.75947143328011"><ele>163.75</ele><time>2026-04-04T16:10:15.001Z</time></trkpt><trkpt lat="40.88170504083929" lon="8.759322200739463"><ele>167.0</ele><time>2026-04-04T16:10:16.001Z</time></trkpt><trkpt lat="40.88168973001653" lon="8.759204800659798"><ele>168.16666666666666</ele><time>2026-04-04T16:10:17.001Z</time></trkpt><trkpt lat="40.881693695258484" lon="8.75909364493886"><ele>169.33333333333331</ele><time>2026-04-04T16:10:18.001Z</time></trkpt><trkpt lat="40.88170146374552" lon="8.75899055443098"><ele>170.5</ele><time>2026-04-04T16:10:19.001Z</time></trkpt><trkpt lat="40.8817273422755" lon="8.758880612400802"><ele>171.66666666666666</ele><time>2026-04-04T16:10:20.001Z</time></trkpt><trkpt lat="40.88176215287716" lon="8.758766916000353"><ele>172.83333333333334</ele><time>2026-04-04T16:10:21.001Z</time></trkpt><trkpt lat="40.8817810530102" lon="8.758639549944233"><ele>174.0</ele><time>2026-04-04T16:10:22.001Z</time></trkpt><trkpt lat="40.88178591862983" lon="8.758535936641474"><ele>174.16666666666666</ele><time>2026-04-04T16:10:23.001Z</time></trkpt><trkpt lat="40.881774508004725" lon="8.758437782701904"><ele>174.33333333333334</ele><time>2026-04-04T16:10:24.001Z</time></trkpt><trkpt lat="40.881765988573015" lon="8.758343590806204"><ele>174.5</ele><time>2026-04-04T16:10:25.001Z</time></trkpt><trkpt lat="40.88175323112359" lon="8.758238437574057"><ele>174.66666666666669</ele><time>2026-04-04T16:10:26.001Z</time></trkpt><trkpt lat="40.88171779903792" lon="8.758140153776644"><ele>174.83333333333334</ele><time>2026-04-04T16:10:27.001Z</time></trkpt><trkpt lat="40.88166584303316" lon="8.758058683279398"><ele>175.0</ele><time>2026-04-04T16:10:28.001Z</time></trkpt><trkpt lat="40.881592077725415" lon="8.75796891689111"><ele>177.0</ele><time>2026-04-04T16:10:29.001Z</time></trkpt><trkpt lat="40.881527226591935" lon="8.757865822636058"><ele>179.0</ele><time>2026-04-04T16:10:30.001Z</time></trkpt><trkpt lat="40.88145642785295" lon="8.757759140865746"><ele>181.0</ele><time>2026-04-04T16:10:31.001Z</time></trkpt><trkpt lat="40.881391660878236" lon="8.757657536905885"><ele>183.0</ele><time>2026-04-04T16:10:32.001Z</time></trkpt><trkpt lat="40.88133947091006" lon="8.757575158721293"><ele>185.0</ele><time>2026-04-04T16:10:33.001Z</time></trkpt><trkpt lat="40.88132883034358" lon="8.757467120635711"><ele>187.4</ele><time>2026-04-04T16:10:37.001Z</time></trkpt><trkpt lat="40.881285581061654" lon="8.757371547964688"><ele>189.8</ele><time>2026-04-04T16:10:40.001Z</time></trkpt><trkpt lat="40.881220672160616" lon="8.757441805173329"><ele>192.2</ele><time>2026-04-04T16:10:42.001Z</time></trkpt><trkpt lat="40.88116311418449" lon="8.7574969624294"><ele>194.6</ele><time>2026-04-04T16:10:44Z</time></trkpt><trkpt lat="40.881042515932855" lon="8.757417095232437"><ele>197.0</ele><time>2026-04-04T16:10:46Z</time></trkpt><trkpt lat="40.88096596806935" lon="8.757348995326783"><ele>201.0</ele><time>2026-04-04T16:10:47Z</time></trkpt><trkpt lat="40.88088974753405" lon="8.757299380349663"><ele>205.0</ele><time>2026-04-04T16:10:48Z</time></trkpt><trkpt lat="40.88081449680556" lon="8.757265714126687"><ele>209.0</ele><time>2026-04-04T16:10:49Z</time></trkpt><trkpt lat="40.88071494242591" lon="8.757228469884293"><ele>213.0</ele><time>2026-04-04T16:10:50Z</time></trkpt><trkpt lat="40.880612882572336" lon="8.757192082385453"><ele>217.0</ele><time>2026-04-04T16:10:51Z</time></trkpt><trkpt lat="40.88052835345536" lon="8.757156645527006"><ele>217.0</ele><time>2026-04-04T16:10:52Z</time></trkpt><trkpt lat="40.88044732641723" lon="8.75704735084034"><ele>217.0</ele><time>2026-04-04T16:10:54Z</time></trkpt><trkpt lat="40.88039415236827" lon="8.756958142778451"><ele>217.0</ele><time>2026-04-04T16:10:55Z</time></trkpt><trkpt lat="40.88034684091439" lon="8.756846979501121"><ele>217.0</ele><time>2026-04-04T16:10:56Z</time></trkpt><trkpt lat="40.88030527738397" lon="8.756730397101325"><ele>217.0</ele><time>2026-04-04T16:10:57Z</time></trkpt><trkpt lat="40.88026634526781" lon="8.756613653294695"><ele>220.2</ele><time>2026-04-04T16:10:58Z</time></trkpt><trkpt lat="40.88022340572036" lon="8.756495725206031"><ele>223.39999999999998</ele><time>2026-04-04T16:10:59Z</time></trkpt><trkpt lat="40.880180529344955" lon="8.756383234632588"><ele>226.60000000000002</ele><time>2026-04-04T16:11:00Z</time></trkpt><trkpt lat="40.8801413039427" lon="8.756280146448141"><ele>229.8</ele><time>2026-04-04T16:11:01Z</time></trkpt><trkpt lat="40.88010415553738" lon="8.75617043884203"><ele>233.0</ele><time>2026-04-04T16:11:02Z</time></trkpt><trkpt lat="40.880061359673846" lon="8.756063065755015"><ele>238.0</ele><time>2026-04-04T16:11:03Z</time></trkpt><trkpt lat="40.88001316893794" lon="8.755963510391975"><ele>243.0</ele><time>2026-04-04T16:11:04Z</time></trkpt><trkpt lat="40.87995605404236" lon="8.75587512527124"><ele>248.0</ele><time>2026-04-04T16:11:05Z</time></trkpt><trkpt lat="40.87990061904271" lon="8.755798783763845"><ele>253.0</ele><time>2026-04-04T16:11:06Z</time></trkpt><trkpt lat="40.87990604300308" lon="8.755662828697005"><ele>258.0</ele><time>2026-04-04T16:11:09Z</time></trkpt><trkpt lat="40.88002622902441" lon="8.755626418622647"><ele>256.0</ele><time>2026-04-04T16:11:11Z</time></trkpt><trkpt lat="40.88011795164285" lon="8.755640992123702"><ele>254.0</ele><time>2026-04-04T16:11:12Z</time></trkpt><trkpt lat="40.88022080298563" lon="8.75563694978256"><ele>252.0</ele><time>2026-04-04T16:11:13Z</time></trkpt><trkpt lat="40.88032971453476" lon="8.755586681385529"><ele>250.0</ele><time>2026-04-04T16:11:14Z</time></trkpt><trkpt lat="40.88044393724939" lon="8.755535686206171"><ele>248.0</ele><time>2026-04-04T16:11:15Z</time></trkpt><trkpt lat="40.88055864317998" lon="8.755478138902706"><ele>248.00000000000003</ele><time>2026-04-04T16:11:16Z</time></trkpt><trkpt lat="40.88066947330713" lon="8.755440824678018"><ele>248.0</ele><time>2026-04-04T16:11:17Z</time></trkpt><trkpt lat="40.88076857892029" lon="8.755408576525387"><ele>248.0</ele><time>2026-04-04T16:11:18Z</time></trkpt><trkpt lat="40.88083863057556" lon="8.755395741075045"><ele>248.0</ele><time>2026-04-04T16:11:19Z</time></trkpt><trkpt lat="40.88090577213129" lon="8.755384437803174"><ele>248.00000000000003</ele><time>2026-04-04T16:11:20Z</time></trkpt><trkpt lat="40.880945543483556" lon="8.75531092055642"><ele>248.0</ele><time>2026-04-04T16:11:22Z</time></trkpt><trkpt lat="40.88090732061432" lon="8.75523491785258"><ele>248.0</ele><time>2026-04-04T16:11:24Z</time></trkpt><trkpt lat="40.880782895841" lon="8.755213311169761"><ele>248.0</ele><time>2026-04-04T16:11:26Z</time></trkpt><trkpt lat="40.88070832089624" lon="8.755171019532849"><ele>248.0</ele><time>2026-04-04T16:11:27Z</time></trkpt><trkpt lat="40.88063730799932" lon="8.755097478163457"><ele>248.0</ele><time>2026-04-04T16:11:28Z</time></trkpt><trkpt lat="40.88055726142146" lon="8.755019638395204"><ele>248.0</ele><time>2026-04-04T16:11:29Z</time></trkpt><trkpt lat="40.88049494662305" lon="8.754959670358165"><ele>252.0</ele><time>2026-04-04T16:11:30Z</time></trkpt><trkpt lat="40.88044832971935" lon="8.754868902156439"><ele>256.0</ele><time>2026-04-04T16:11:32Z</time></trkpt><trkpt lat="40.880552020218715" lon="8.754805221039202"><ele>260.0</ele><time>2026-04-04T16:11:35Z</time></trkpt><trkpt lat="40.88065787524077" lon="8.754767457109269"><ele>264.0</ele><time>2026-04-04T16:11:37Z</time></trkpt><trkpt lat="40.88074283361029" lon="8.754742765845661"><ele>268.0</ele><time>2026-04-04T16:11:39Z</time></trkpt><trkpt lat="40.88070049101951" lon="8.754673777901825"><ele>268.0</ele><time>2026-04-04T16:11:42Z</time></trkpt><trkpt lat="40.88058594506162" lon="8.754669886930618"><ele>268.0</ele><time>2026-04-04T16:11:44Z</time></trkpt><trkpt lat="40.880500680807984" lon="8.754657586549811"><ele>268.0</ele><time>2026-04-04T16:11:45Z</time></trkpt><trkpt lat="40.88041286668636" lon="8.754640545032156"><ele>268.0</ele><time>2026-04-04T16:11:46Z</time></trkpt><trkpt lat="40.88030108080505" lon="8.754611925129902"><ele>268.0</ele><time>2026-04-04T16:11:47Z</time></trkpt><trkpt lat="40.880192597322576" lon="8.754590206779293"><ele>268.6</ele><time>2026-04-04T16:11:48Z</time></trkpt><trkpt lat="40.88008331853515" lon="8.754550019806759"><ele>269.20000000000005</ele><time>2026-04-04T16:11:49Z</time></trkpt><trkpt lat="40.879981163388216" lon="8.754516042752506"><ele>269.8</ele><time>2026-04-04T16:11:50Z</time></trkpt><trkpt lat="40.879887595500804" lon="8.75446230325695"><ele>270.40000000000003</ele><time>2026-04-04T16:11:51Z</time></trkpt><trkpt lat="40.87979192586597" lon="8.754377255835315"><ele>271.0</ele><time>2026-04-04T16:11:52Z</time></trkpt><trkpt lat="40.879700857688626" lon="8.754260784385199"><ele>278.0</ele><time>2026-04-04T16:11:53Z</time></trkpt><trkpt lat="40.87962066117679" lon="8.754126923451853"><ele>285.0</ele><time>2026-04-04T16:11:54Z</time></trkpt><trkpt lat="40.87954890784299" lon="8.753985991567019"><ele>292.0</ele><time>2026-04-04T16:11:55Z</time></trkpt><trkpt lat="40.87948253595599" lon="8.753848613418963"><ele>299.0</ele><time>2026-04-04T16:11:56Z</time></trkpt><trkpt lat="40.87942767121956" lon="8.75374354716824"><ele>299.0</ele><time>2026-04-04T16:11:57Z</time></trkpt><trkpt lat="40.87937259951885" lon="8.753687364299202"><ele>299.0</ele><time>2026-04-04T16:11:58Z</time></trkpt><trkpt lat="40.879240431978815" lon="8.75365696584914"><ele>299.0</ele><time>2026-04-04T16:12:00Z</time></trkpt><trkpt lat="40.87913145120439" lon="8.753677152166235"><ele>299.0</ele><time>2026-04-04T16:12:01Z</time></trkpt><trkpt lat="40.879042274335646" lon="8.753674024862853"><ele>299.0</ele><time>2026-04-04T16:12:02Z</time></trkpt><trkpt lat="40.878956083896206" lon="8.753647993232319"><ele>300.0</ele><time>2026-04-04T16:12:03Z</time></trkpt><trkpt lat="40.878863910640554" lon="8.75359326665556"><ele>301.0</ele><time>2026-04-04T16:12:04.001Z</time></trkpt><trkpt lat="40.87876342982882" lon="8.753539031906643"><ele>302.0</ele><time>2026-04-04T16:12:05.001Z</time></trkpt><trkpt lat="40.87865707774169" lon="8.753488151718956"><ele>303.0</ele><time>2026-04-04T16:12:06.001Z</time></trkpt><trkpt lat="40.87854592042374" lon="8.753438248479863"><ele>304.0</ele><time>2026-04-04T16:12:07.001Z</time></trkpt><trkpt lat="40.87844041879952" lon="8.753388038414402"><ele>307.16666666666663</ele><time>2026-04-04T16:12:08.001Z</time></trkpt><trkpt lat="40.878358744353434" lon="8.753345930715247"><ele>310.3333333333333</ele><time>2026-04-04T16:12:09.001Z</time></trkpt><trkpt lat="40.87829496494304" lon="8.753314055994005"><ele>313.5</ele><time>2026-04-04T16:12:10.001Z</time></trkpt><trkpt lat="40.87822696210314" lon="8.753305959040718"><ele>316.6666666666667</ele><time>2026-04-04T16:12:11.001Z</time></trkpt><trkpt lat="40.8781351726025" lon="8.753325012673699"><ele>319.83333333333337</ele><time>2026-04-04T16:12:12.001Z</time></trkpt><trkpt lat="40.87801280888716" lon="8.753368046063848"><ele>323.0</ele><time>2026-04-04T16:12:13.001Z</time></trkpt><trkpt lat="40.877873230858654" lon="8.753384552720641"><ele>323.0</ele><time>2026-04-04T16:12:14.001Z</time></trkpt><trkpt lat="40.87773686075312" lon="8.75338563590556"><ele>323.0</ele><time>2026-04-04T16:12:15.001Z</time></trkpt><trkpt lat="40.87760247425016" lon="8.753394684044997"><ele>323.0</ele><time>2026-04-04T16:12:16.001Z</time></trkpt><trkpt lat="40.8774673077316" lon="8.753399538137023"><ele>323.0</ele><time>2026-04-04T16:12:17.001Z</time></trkpt><trkpt lat="40.87733423680899" lon="8.753401393217366"><ele>324.25</ele><time>2026-04-04T16:12:18.001Z</time></trkpt><trkpt lat="40.87720511219083" lon="8.753410542382928"><ele>325.5</ele><time>2026-04-04T16:12:19.001Z</time></trkpt><trkpt lat="40.87707690206538" lon="8.753431790355117"><ele>326.75</ele><time>2026-04-04T16:12:20.001Z</time></trkpt><trkpt lat="40.87695472857301" lon="8.753477454459661"><ele>328.0</ele><time>2026-04-04T16:12:21.001Z</time></trkpt><trkpt lat="40.87683725197558" lon="8.753524911468638"><ele>330.4</ele><time>2026-04-04T16:12:22.001Z</time></trkpt><trkpt lat="40.876732613636605" lon="8.753568084964467"><ele>332.79999999999995</ele><time>2026-04-04T16:12:23.001Z</time></trkpt><trkpt lat="40.87663729343145" lon="8.753612964069905"><ele>335.2</ele><time>2026-04-04T16:12:24.001Z</time></trkpt><trkpt lat="40.87654570253974" lon="8.753696007795496"><ele>337.6</ele><time>2026-04-04T16:12:25.001Z</time></trkpt><trkpt lat="40.876458192530684" lon="8.753815942073803"><ele>340.0</ele><time>2026-04-04T16:12:26.001Z</time></trkpt><trkpt lat="40.87637799065483" lon="8.753921035257159"><ele>340.0</ele><time>2026-04-04T16:12:27.001Z</time></trkpt><trkpt lat="40.876310800449296" lon="8.75401077891652"><ele>340.0</ele><time>2026-04-04T16:12:28.001Z</time></trkpt><trkpt lat="40.87627476412042" lon="8.754097170483417"><ele>340.0</ele><time>2026-04-04T16:12:29.001Z</time></trkpt><trkpt lat="40.876250335197625" lon="8.754210394292743"><ele>340.0</ele><time>2026-04-04T16:12:30.001Z</time></trkpt><trkpt lat="40.87622606268329" lon="8.754306376751103"><ele>340.0</ele><time>2026-04-04T16:12:31.001Z</time></trkpt><trkpt lat="40.876187658049204" lon="8.75437962450185"><ele>340.0</ele><time>2026-04-04T16:12:32.001Z</time></trkpt><trkpt lat="40.87611687810388" lon="8.754461137714197"><ele>342.2</ele><time>2026-04-04T16:12:33.001Z</time></trkpt><trkpt lat="40.87604836086633" lon="8.754562763943625"><ele>344.4</ele><time>2026-04-04T16:12:34.001Z</time></trkpt><trkpt lat="40.87599673803481" lon="8.754664559940204"><ele>346.6</ele><time>2026-04-04T16:12:35.001Z</time></trkpt><trkpt lat="40.87588428722043" lon="8.754732888058387"><ele>348.8</ele><time>2026-04-04T16:12:37.001Z</time></trkpt><trkpt lat="40.87580447603763" lon="8.754752941385945"><ele>351.0</ele><time>2026-04-04T16:12:38.001Z</time></trkpt><trkpt lat="40.87570787049235" lon="8.754760434357992"><ele>351.4</ele><time>2026-04-04T16:12:39.001Z</time></trkpt><trkpt lat="40.875600766397184" lon="8.75473348503641"><ele>351.8</ele><time>2026-04-04T16:12:40.001Z</time></trkpt><trkpt lat="40.8754862017296" lon="8.754698116048154"><ele>352.2</ele><time>2026-04-04T16:12:41.001Z</time></trkpt><trkpt lat="40.87537161204242" lon="8.75466671546767"><ele>352.59999999999997</ele><time>2026-04-04T16:12:42.001Z</time></trkpt><trkpt lat="40.87526950872724" lon="8.754650713245265"><ele>353.0</ele><time>2026-04-04T16:12:43.001Z</time></trkpt><trkpt lat="40.875176390340755" lon="8.754658659930087"><ele>353.0</ele><time>2026-04-04T16:12:44.001Z</time></trkpt><trkpt lat="40.87509659800942" lon="8.75463920652605"><ele>353.0</ele><time>2026-04-04T16:12:45.001Z</time></trkpt><trkpt lat="40.875032496205115" lon="8.754598972233527"><ele>353.0</ele><time>2026-04-04T16:12:46.001Z</time></trkpt><trkpt lat="40.874960054952915" lon="8.754595079839367"><ele>353.0</ele><time>2026-04-04T16:12:47.001Z</time></trkpt><trkpt lat="40.874873947392274" lon="8.754629533178916"><ele>353.0</ele><time>2026-04-04T16:12:48.001Z</time></trkpt><trkpt lat="40.87479034359258" lon="8.754641790692888"><ele>353.0</ele><time>2026-04-04T16:12:49.001Z</time></trkpt><trkpt lat="40.874712879624475" lon="8.754617339036177"><ele>353.0</ele><time>2026-04-04T16:12:50Z</time></trkpt><trkpt lat="40.87464013449717" lon="8.754580375295573"><ele>353.0</ele><time>2026-04-04T16:12:51Z</time></trkpt><trkpt lat="40.874575953186664" lon="8.75457137828293"><ele>353.0</ele><time>2026-04-04T16:12:52Z</time></trkpt><trkpt lat="40.87447442685553" lon="8.75462067309929"><ele>353.0</ele><time>2026-04-04T16:12:54Z</time></trkpt><trkpt lat="40.874440671070325" lon="8.754799246844492"><ele>353.0</ele><time>2026-04-04T16:12:56Z</time></trkpt><trkpt lat="40.87443623252529" lon="8.754898552462441"><ele>353.0</ele><time>2026-04-04T16:12:57Z</time></trkpt><trkpt lat="40.87432211778874" lon="8.754999333009254"><ele>353.0</ele><time>2026-04-04T16:12:59Z</time></trkpt><trkpt lat="40.87422482823505" lon="8.755041361918705"><ele>353.0</ele><time>2026-04-04T16:13:00Z</time></trkpt><trkpt lat="40.874120548632" lon="8.755067509136499"><ele>353.0</ele><time>2026-04-04T16:13:01Z</time></trkpt><trkpt lat="40.87402307574737" lon="8.7550880784076"><ele>353.0</ele><time>2026-04-04T16:13:02Z</time></trkpt><trkpt lat="40.87393950886086" lon="8.755091658435616"><ele>352.6666666666667</ele><time>2026-04-04T16:13:03Z</time></trkpt><trkpt lat="40.8738674278356" lon="8.755105006263387"><ele>352.33333333333337</ele><time>2026-04-04T16:13:04Z</time></trkpt><trkpt lat="40.87380809158596" lon="8.755160852160003"><ele>352.0</ele><time>2026-04-04T16:13:05Z</time></trkpt><trkpt lat="40.873760377372605" lon="8.755240769572554"><ele>351.6666666666667</ele><time>2026-04-04T16:13:06Z</time></trkpt><trkpt lat="40.873728285714044" lon="8.755350511392036"><ele>351.3333333333333</ele><time>2026-04-04T16:13:07Z</time></trkpt><trkpt lat="40.87371522533337" lon="8.755496723933078"><ele>351.0</ele><time>2026-04-04T16:13:08Z</time></trkpt><trkpt lat="40.87371291007054" lon="8.755631996788223"><ele>351.0</ele><time>2026-04-04T16:13:09Z</time></trkpt><trkpt lat="40.87370035657488" lon="8.75574049938886"><ele>351.0</ele><time>2026-04-04T16:13:10Z</time></trkpt><trkpt lat="40.873668476091396" lon="8.755816220735515"><ele>351.0</ele><time>2026-04-04T16:13:11Z</time></trkpt><trkpt lat="40.873622455159165" lon="8.75588091236979"><ele>351.0</ele><time>2026-04-04T16:13:12Z</time></trkpt><trkpt lat="40.87356584161098" lon="8.75593227019872"><ele>351.0</ele><time>2026-04-04T16:13:13Z</time></trkpt><trkpt lat="40.873510933809435" lon="8.75599732522928"><ele>351.0</ele><time>2026-04-04T16:13:14Z</time></trkpt><trkpt lat="40.87351059342852" lon="8.756180840465186"><ele>350.5</ele><time>2026-04-04T16:13:16Z</time></trkpt><trkpt lat="40.87353876373507" lon="8.756313188601403"><ele>350.0</ele><time>2026-04-04T16:13:17Z</time></trkpt><trkpt lat="40.87357585189174" lon="8.756468769383245"><ele>349.5</ele><time>2026-04-04T16:13:18Z</time></trkpt><trkpt lat="40.87360776696995" lon="8.75663630145413"><ele>349.0</ele><time>2026-04-04T16:13:19Z</time></trkpt><trkpt lat="40.87363350097892" lon="8.756789274247113"><ele>347.79999999999995</ele><time>2026-04-04T16:13:20Z</time></trkpt><trkpt lat="40.87366144563463" lon="8.756921216184125"><ele>346.59999999999997</ele><time>2026-04-04T16:13:21Z</time></trkpt><trkpt lat="40.87369606499658" lon="8.75703938731645"><ele>345.4</ele><time>2026-04-04T16:13:22Z</time></trkpt><trkpt lat="40.87373855199049" lon="8.757147160413174"><ele>344.2</ele><time>2026-04-04T16:13:23Z</time></trkpt><trkpt lat="40.873786085413336" lon="8.757259779345892"><ele>343.0</ele><time>2026-04-04T16:13:24Z</time></trkpt><trkpt lat="40.87383171753756" lon="8.75738292384319"><ele>343.0</ele><time>2026-04-04T16:13:25Z</time></trkpt><trkpt lat="40.873856517835165" lon="8.757464186387342"><ele>343.0</ele><time>2026-04-04T16:13:26Z</time></trkpt><trkpt lat="40.87389348954574" lon="8.757537747829101"><ele>343.0</ele><time>2026-04-04T16:13:33Z</time></trkpt><trkpt lat="40.873971879492736" lon="8.757604876204567"><ele>343.0</ele><time>2026-04-04T16:13:35Z</time></trkpt><trkpt lat="40.87403645721578" lon="8.757657170356794"><ele>343.0</ele><time>2026-04-04T16:13:36Z</time></trkpt><trkpt lat="40.87411788270403" lon="8.75773664481984"><ele>343.0</ele><time>2026-04-04T16:13:37Z</time></trkpt><trkpt lat="40.87419963388068" lon="8.757835401667874"><ele>345.2</ele><time>2026-04-04T16:13:38Z</time></trkpt><trkpt lat="40.87427422136021" lon="8.757944021479691"><ele>347.4</ele><time>2026-04-04T16:13:39Z</time></trkpt><trkpt lat="40.874335668228895" lon="8.758065137347886"><ele>349.59999999999997</ele><time>2026-04-04T16:13:40Z</time></trkpt><trkpt lat="40.8743903130102" lon="8.758188802353652"><ele>351.79999999999995</ele><time>2026-04-04T16:13:41Z</time></trkpt><trkpt lat="40.87443602283416" lon="8.758312032945351"><ele>354.0</ele><time>2026-04-04T16:13:42Z</time></trkpt><trkpt lat="40.874468659382394" lon="8.758444175514262"><ele>354.0</ele><time>2026-04-04T16:13:43Z</time></trkpt><trkpt lat="40.874491336182636" lon="8.758575081274794"><ele>354.0</ele><time>2026-04-04T16:13:44Z</time></trkpt><trkpt lat="40.874500127691995" lon="8.758691341239537"><ele>354.0</ele><time>2026-04-04T16:13:45Z</time></trkpt><trkpt lat="40.87449391599094" lon="8.758783886065855"><ele>354.0</ele><time>2026-04-04T16:13:46Z</time></trkpt><trkpt lat="40.87446568486397" lon="8.758872338492752"><ele>354.0</ele><time>2026-04-04T16:13:47Z</time></trkpt><trkpt lat="40.87442742797429" lon="8.758962566664207"><ele>354.0</ele><time>2026-04-04T16:13:48Z</time></trkpt><trkpt lat="40.87441917209134" lon="8.759063974503919"><ele>354.0</ele><time>2026-04-04T16:13:49Z</time></trkpt><trkpt lat="40.87445233274361" lon="8.75916981025458"><ele>354.0</ele><time>2026-04-04T16:13:50Z</time></trkpt><trkpt lat="40.87450841668126" lon="8.759274625040874"><ele>354.0</ele><time>2026-04-04T16:13:51Z</time></trkpt><trkpt lat="40.87457378543445" lon="8.759373468928914"><ele>354.0</ele><time>2026-04-04T16:13:52Z</time></trkpt><trkpt lat="40.874633289115124" lon="8.75945629319843"><ele>354.0</ele><time>2026-04-04T16:13:53Z</time></trkpt><trkpt lat="40.87469967785229" lon="8.759525455136561"><ele>354.2</ele><time>2026-04-04T16:13:54Z</time></trkpt><trkpt lat="40.874765406295005" lon="8.759611307164173"><ele>354.4</ele><time>2026-04-04T16:13:55Z</time></trkpt><trkpt lat="40.87483019156645" lon="8.759692182597858"><ele>354.6</ele><time>2026-04-04T16:13:56Z</time></trkpt><trkpt lat="40.87487500319306" lon="8.75978484221385"><ele>354.8</ele><time>2026-04-04T16:13:57Z</time></trkpt><trkpt lat="40.8748854748877" lon="8.759911822461428"><ele>355.0</ele><time>2026-04-04T16:13:58Z</time></trkpt><trkpt lat="40.87488174162987" lon="8.760050643715537"><ele>355.0</ele><time>2026-04-04T16:13:59Z</time></trkpt><trkpt lat="40.87486986508263" lon="8.76019758368252"><ele>355.0</ele><time>2026-04-04T16:14:00Z</time></trkpt><trkpt lat="40.874843975831816" lon="8.760349265270918"><ele>355.0</ele><time>2026-04-04T16:14:01Z</time></trkpt><trkpt lat="40.874795768146505" lon="8.760494827654354"><ele>355.0</ele><time>2026-04-04T16:14:02Z</time></trkpt><trkpt lat="40.874728170721674" lon="8.760627803918233"><ele>355.6</ele><time>2026-04-04T16:14:03Z</time></trkpt><trkpt lat="40.87464501386154" lon="8.760763462496262"><ele>356.2</ele><time>2026-04-04T16:14:04Z</time></trkpt><trkpt lat="40.87456299550013" lon="8.760890568777773"><ele>356.79999999999995</ele><time>2026-04-04T16:14:05Z</time></trkpt><trkpt lat="40.87449288052419" lon="8.760982295071322"><ele>357.4</ele><time>2026-04-04T16:14:06Z</time></trkpt><trkpt lat="40.87442315473746" lon="8.761027553725762"><ele>358.0</ele><time>2026-04-04T16:14:07Z</time></trkpt><trkpt lat="40.874332971314146" lon="8.761056179309739"><ele>358.2</ele><time>2026-04-04T16:14:08Z</time></trkpt><trkpt lat="40.874250660569224" lon="8.761099040400412"><ele>358.4</ele><time>2026-04-04T16:14:09Z</time></trkpt><trkpt lat="40.8741999860129" lon="8.761159627366075"><ele>358.59999999999997</ele><time>2026-04-04T16:14:10.001Z</time></trkpt><trkpt lat="40.87416827856029" lon="8.761314992317628"><ele>358.79999999999995</ele><time>2026-04-04T16:14:12.001Z</time></trkpt><trkpt lat="40.87418652653432" lon="8.761444726221958"><ele>359.0</ele><time>2026-04-04T16:14:13.001Z</time></trkpt><trkpt lat="40.87422235352649" lon="8.761580423318513"><ele>359.0</ele><time>2026-04-04T16:14:14.001Z</time></trkpt><trkpt lat="40.87426389772241" lon="8.76173101436917"><ele>359.0</ele><time>2026-04-04T16:14:15.001Z</time></trkpt><trkpt lat="40.87429247185819" lon="8.761887463959079"><ele>359.0</ele><time>2026-04-04T16:14:16.001Z</time></trkpt><trkpt lat="40.874304157468295" lon="8.76204453355753"><ele>359.0</ele><time>2026-04-04T16:14:17.001Z</time></trkpt><trkpt lat="40.874308817575816" lon="8.762202146666032"><ele>358.4</ele><time>2026-04-04T16:14:18.001Z</time></trkpt><trkpt lat="40.87430686497584" lon="8.762360636934817"><ele>357.79999999999995</ele><time>2026-04-04T16:14:19.001Z</time></trkpt><trkpt lat="40.87430399604706" lon="8.76251360494134"><ele>357.20000000000005</ele><time>2026-04-04T16:14:20.001Z</time></trkpt><trkpt lat="40.874297306522166" lon="8.76264863685537"><ele>356.6</ele><time>2026-04-04T16:14:21.001Z</time></trkpt><trkpt lat="40.874281442008076" lon="8.762759865493251"><ele>356.0</ele><time>2026-04-04T16:14:22.001Z</time></trkpt><trkpt lat="40.87424843105735" lon="8.762841705458404"><ele>357.1666666666667</ele><time>2026-04-04T16:14:23.001Z</time></trkpt><trkpt lat="40.874197894713106" lon="8.762908560838623"><ele>358.33333333333337</ele><time>2026-04-04T16:14:24.001Z</time></trkpt><trkpt lat="40.874136416730394" lon="8.762980243029295"><ele>359.5</ele><time>2026-04-04T16:14:25.001Z</time></trkpt><trkpt lat="40.87406846489603" lon="8.763057093433217"><ele>360.6666666666667</ele><time>2026-04-04T16:14:26.001Z</time></trkpt><trkpt lat="40.8740116628052" lon="8.763134344283435"><ele>361.8333333333333</ele><time>2026-04-04T16:14:27.001Z</time></trkpt><trkpt lat="40.87398156603192" lon="8.763281761433642"><ele>363.0</ele><time>2026-04-04T16:14:29.001Z</time></trkpt><trkpt lat="40.87400604241471" lon="8.76338638263738"><ele>362.25</ele><time>2026-04-04T16:14:30.001Z</time></trkpt><trkpt lat="40.87404791509548" lon="8.763551547147127"><ele>361.5</ele><time>2026-04-04T16:14:31.001Z</time></trkpt><trkpt lat="40.87406289323291" lon="8.763736172628018"><ele>360.75</ele><time>2026-04-04T16:14:32.001Z</time></trkpt><trkpt lat="40.874059946054984" lon="8.763898883002138"><ele>360.0</ele><time>2026-04-04T16:14:33.001Z</time></trkpt><trkpt lat="40.8740456319514" lon="8.764029747825308"><ele>360.0</ele><time>2026-04-04T16:14:34.001Z</time></trkpt><trkpt lat="40.874016598482996" lon="8.764159838383616"><ele>360.0</ele><time>2026-04-04T16:14:35.001Z</time></trkpt><trkpt lat="40.87396742513474" lon="8.764307431786769"><ele>360.0</ele><time>2026-04-04T16:14:36.001Z</time></trkpt><trkpt lat="40.87391962131026" lon="8.764470316145463"><ele>360.0</ele><time>2026-04-04T16:14:37.001Z</time></trkpt><trkpt lat="40.873892036355365" lon="8.764658689387582"><ele>359.75</ele><time>2026-04-04T16:14:38.001Z</time></trkpt><trkpt lat="40.873868791372324" lon="8.76485222144687"><ele>359.5</ele><time>2026-04-04T16:14:39.001Z</time></trkpt><trkpt lat="40.87384860393767" lon="8.76502628400003"><ele>359.25</ele><time>2026-04-04T16:14:40.001Z</time></trkpt><trkpt lat="40.87383011439369" lon="8.76518364198522"><ele>359.0</ele><time>2026-04-04T16:14:41.001Z</time></trkpt><trkpt lat="40.87381366260122" lon="8.765318902301702"><ele>359.5</ele><time>2026-04-04T16:14:42.001Z</time></trkpt><trkpt lat="40.87380284838764" lon="8.765427671279312"><ele>360.0</ele><time>2026-04-04T16:14:43.001Z</time></trkpt><trkpt lat="40.87379413793127" lon="8.765510387617747"><ele>360.5</ele><time>2026-04-04T16:14:44.001Z</time></trkpt><trkpt lat="40.873754807181335" lon="8.765611927221771"><ele>361.0</ele><time>2026-04-04T16:14:46.001Z</time></trkpt><trkpt lat="40.87367213684628" lon="8.765635566535968"><ele>361.5</ele><time>2026-04-04T16:14:48.001Z</time></trkpt><trkpt lat="40.87360325968677" lon="8.765617499918589"><ele>362.0</ele><time>2026-04-04T16:14:49.001Z</time></trkpt><trkpt lat="40.87352033984661" lon="8.76559616292828"><ele>367.5</ele><time>2026-04-04T16:14:50.001Z</time></trkpt><trkpt lat="40.87341738704034" lon="8.765576773159994"><ele>373.0</ele><time>2026-04-04T16:14:51.001Z</time></trkpt><trkpt lat="40.87330665728701" lon="8.765518232336536"><ele>378.5</ele><time>2026-04-04T16:14:52.001Z</time></trkpt><trkpt lat="40.87320556453929" lon="8.765415226479629"><ele>384.0</ele><time>2026-04-04T16:14:53.001Z</time></trkpt><trkpt lat="40.87313112091366" lon="8.765326747693699"><ele>384.0</ele><time>2026-04-04T16:14:54.001Z</time></trkpt><trkpt lat="40.873073324974655" lon="8.765237475858727"><ele>384.0</ele><time>2026-04-04T16:14:55.001Z</time></trkpt><trkpt lat="40.87299960609181" lon="8.765121474397347"><ele>384.0</ele><time>2026-04-04T16:14:56Z</time></trkpt><trkpt lat="40.87291951403042" lon="8.765004203134566"><ele>384.0</ele><time>2026-04-04T16:14:57Z</time></trkpt><trkpt lat="40.872840613010915" lon="8.764885248968298"><ele>384.0</ele><time>2026-04-04T16:14:58Z</time></trkpt><trkpt lat="40.872771951297764" lon="8.7647747141012"><ele>383.6666666666667</ele><time>2026-04-04T16:14:59Z</time></trkpt><trkpt lat="40.872702838627205" lon="8.764685179556846"><ele>383.3333333333333</ele><time>2026-04-04T16:15:00Z</time></trkpt><trkpt lat="40.87263478943726" lon="8.764610493963875"><ele>383.0</ele><time>2026-04-04T16:15:01Z</time></trkpt><trkpt lat="40.87257620330048" lon="8.76454320574271"><ele>382.66666666666663</ele><time>2026-04-04T16:15:02Z</time></trkpt><trkpt lat="40.87252468942198" lon="8.764488776021112"><ele>382.3333333333333</ele><time>2026-04-04T16:15:03Z</time></trkpt><trkpt lat="40.87244355070241" lon="8.76442033575593"><ele>382.0</ele><time>2026-04-04T16:15:05Z</time></trkpt><trkpt lat="40.87238572900676" lon="8.764355201504985"><ele>381.5</ele><time>2026-04-04T16:15:08Z</time></trkpt><trkpt lat="40.87233588372469" lon="8.764303192296742"><ele>381.0</ele><time>2026-04-04T16:16:57.001Z</time></trkpt><trkpt lat="40.872172220136925" lon="8.764276769599244"><ele>380.5</ele><time>2026-04-04T16:16:58.001Z</time></trkpt><trkpt lat="40.87201696524079" lon="8.764266794934544"><ele>380.0</ele><time>2026-04-04T16:16:59.001Z</time></trkpt><trkpt lat="40.87192901087075" lon="8.76427775847228"><ele>380.0</ele><time>2026-04-04T16:17:00.001Z</time></trkpt><trkpt lat="40.87184949822398" lon="8.764256147973716"><ele>380.0</ele><time>2026-04-04T16:17:01.001Z</time></trkpt><trkpt lat="40.87173442376651" lon="8.764218596917924"><ele>380.0</ele><time>2026-04-04T16:17:02Z</time></trkpt><trkpt lat="40.87162855588713" lon="8.764177178044777"><ele>380.0</ele><time>2026-04-04T16:17:03Z</time></trkpt><trkpt lat="40.87153724512358" lon="8.764129235629788"><ele>380.0</ele><time>2026-04-04T16:17:04Z</time></trkpt><trkpt lat="40.871454750823354" lon="8.764086432685861"><ele>380.0</ele><time>2026-04-04T16:17:05Z</time></trkpt><trkpt lat="40.87137832352403" lon="8.764066090282647"><ele>380.0</ele><time>2026-04-04T16:17:06Z</time></trkpt><trkpt lat="40.87130269830679" lon="8.764068988768496"><ele>380.0</ele><time>2026-04-04T16:17:07Z</time></trkpt><trkpt lat="40.871235908186456" lon="8.764111986116399"><ele>380.0</ele><time>2026-04-04T16:17:08Z</time></trkpt><trkpt lat="40.871160161964966" lon="8.764189336445323"><ele>380.0</ele><time>2026-04-04T16:17:09Z</time></trkpt><trkpt lat="40.87108486445415" lon="8.764279318361837"><ele>380.0</ele><time>2026-04-04T16:17:10Z</time></trkpt><trkpt lat="40.871007174398784" lon="8.764349852508971"><ele>378.6666666666667</ele><time>2026-04-04T16:17:11Z</time></trkpt><trkpt lat="40.87093882714783" lon="8.764413002528338"><ele>377.33333333333337</ele><time>2026-04-04T16:17:12Z</time></trkpt><trkpt lat="40.87087967107338" lon="8.76450307939952"><ele>376.0</ele><time>2026-04-04T16:17:13Z</time></trkpt><trkpt lat="40.87082885718762" lon="8.764595692776219"><ele>374.6666666666667</ele><time>2026-04-04T16:17:14Z</time></trkpt><trkpt lat="40.870768082884844" lon="8.764663808547448"><ele>373.3333333333333</ele><time>2026-04-04T16:17:15Z</time></trkpt><trkpt lat="40.87068640921942" lon="8.76470171512719"><ele>372.0</ele><time>2026-04-04T16:17:16Z</time></trkpt><trkpt lat="40.87060675840135" lon="8.764741687854285"><ele>372.0</ele><time>2026-04-04T16:17:17Z</time></trkpt><trkpt lat="40.87053451877356" lon="8.764804938367186"><ele>372.0</ele><time>2026-04-04T16:17:18Z</time></trkpt><trkpt lat="40.87046214046246" lon="8.76488249055585"><ele>372.0</ele><time>2026-04-04T16:17:19Z</time></trkpt><trkpt lat="40.870388255968656" lon="8.76496470402434"><ele>372.0</ele><time>2026-04-04T16:17:20Z</time></trkpt><trkpt lat="40.87031945577176" lon="8.765049424757882"><ele>372.0</ele><time>2026-04-04T16:17:21Z</time></trkpt><trkpt lat="40.870228747694476" lon="8.7651387700891"><ele>371.0</ele><time>2026-04-04T16:17:22Z</time></trkpt><trkpt lat="40.870114071077225" lon="8.765240406891463"><ele>370.0</ele><time>2026-04-04T16:17:23Z</time></trkpt><trkpt lat="40.869970058605254" lon="8.765342621573604"><ele>369.0</ele><time>2026-04-04T16:17:24Z</time></trkpt><trkpt lat="40.8698180975423" lon="8.765435638437243"><ele>366.6666666666667</ele><time>2026-04-04T16:17:25Z</time></trkpt><trkpt lat="40.86966170967212" lon="8.765535029932698"><ele>364.33333333333337</ele><time>2026-04-04T16:17:26Z</time></trkpt><trkpt lat="40.86952344975203" lon="8.765608951920221"><ele>362.0</ele><time>2026-04-04T16:17:27Z</time></trkpt><trkpt lat="40.86938925486473" lon="8.765667372836948"><ele>362.0</ele><time>2026-04-04T16:17:28Z</time></trkpt><trkpt lat="40.869266585005306" lon="8.765707524778954"><ele>362.0</ele><time>2026-04-04T16:17:29Z</time></trkpt><trkpt lat="40.869155090786826" lon="8.765719457722101"><ele>362.0</ele><time>2026-04-04T16:17:30Z</time></trkpt><trkpt lat="40.86903667729012" lon="8.765722344732316"><ele>362.0</ele><time>2026-04-04T16:17:31Z</time></trkpt><trkpt lat="40.86893335757905" lon="8.765745554142853"><ele>362.0</ele><time>2026-04-04T16:17:32Z</time></trkpt><trkpt lat="40.86885090479308" lon="8.765799629869276"><ele>362.0</ele><time>2026-04-04T16:17:33Z</time></trkpt><trkpt lat="40.868758329486774" lon="8.76585095254633"><ele>362.0</ele><time>2026-04-04T16:17:34Z</time></trkpt><trkpt lat="40.86866520235184" lon="8.765930080260102"><ele>362.0</ele><time>2026-04-04T16:17:35Z</time></trkpt><trkpt lat="40.86856960313078" lon="8.766030117029674"><ele>362.0</ele><time>2026-04-04T16:17:36Z</time></trkpt><trkpt lat="40.86845896157667" lon="8.76613724358679"><ele>361.25</ele><time>2026-04-04T16:17:37Z</time></trkpt><trkpt lat="40.868350962926755" lon="8.766225116112894"><ele>360.5</ele><time>2026-04-04T16:17:38Z</time></trkpt><trkpt lat="40.86825067631459" lon="8.766319497647537"><ele>359.75</ele><time>2026-04-04T16:17:39Z</time></trkpt><trkpt lat="40.86815255562055" lon="8.766474556293348"><ele>359.0</ele><time>2026-04-04T16:17:40Z</time></trkpt><trkpt lat="40.86804040492917" lon="8.766668443122745"><ele>359.0</ele><time>2026-04-04T16:17:41Z</time></trkpt><trkpt lat="40.867944473729764" lon="8.766838423942477"><ele>359.0</ele><time>2026-04-04T16:17:42Z</time></trkpt><trkpt lat="40.86783581476489" lon="8.76696150280229"><ele>359.0</ele><time>2026-04-04T16:17:43Z</time></trkpt><trkpt lat="40.867732140199195" lon="8.767064246968177"><ele>359.0</ele><time>2026-04-04T16:17:44Z</time></trkpt><trkpt lat="40.86764762758684" lon="8.767136148541267"><ele>358.83333333333337</ele><time>2026-04-04T16:17:45Z</time></trkpt><trkpt lat="40.86757572352576" lon="8.767176563779119"><ele>358.6666666666667</ele><time>2026-04-04T16:17:46Z</time></trkpt><trkpt lat="40.86750543803446" lon="8.767187247153293"><ele>358.5</ele><time>2026-04-04T16:17:47Z</time></trkpt><trkpt lat="40.867430331808556" lon="8.767156077085891"><ele>358.3333333333333</ele><time>2026-04-04T16:17:48Z</time></trkpt><trkpt lat="40.867360109819785" lon="8.767088818213207"><ele>358.16666666666663</ele><time>2026-04-04T16:17:49Z</time></trkpt><trkpt lat="40.86730486636648" lon="8.76697241314504"><ele>358.0</ele><time>2026-04-04T16:17:50Z</time></trkpt><trkpt lat="40.86726012111837" lon="8.766811813046111"><ele>358.0</ele><time>2026-04-04T16:17:51Z</time></trkpt><trkpt lat="40.8672160720526" lon="8.766625685486526"><ele>358.0</ele><time>2026-04-04T16:17:52Z</time></trkpt><trkpt lat="40.86715553713341" lon="8.766429651504838"><ele>358.0</ele><time>2026-04-04T16:17:53Z</time></trkpt><trkpt lat="40.86708996810575" lon="8.766240856795942"><ele>358.0</ele><time>2026-04-04T16:17:54Z</time></trkpt><trkpt lat="40.86702777960857" lon="8.76606456837454"><ele>358.0</ele><time>2026-04-04T16:17:55Z</time></trkpt><trkpt lat="40.866972712040635" lon="8.765907098940367"><ele>358.0</ele><time>2026-04-04T16:17:56Z</time></trkpt><trkpt lat="40.86692606387007" lon="8.765769870096127"><ele>358.0</ele><time>2026-04-04T16:17:57Z</time></trkpt><trkpt lat="40.86688195702368" lon="8.76565533180621"><ele>357.8333333333333</ele><time>2026-04-04T16:17:58Z</time></trkpt><trkpt lat="40.866829312077634" lon="8.765561941063886"><ele>357.66666666666663</ele><time>2026-04-04T16:17:59Z</time></trkpt><trkpt lat="40.866765103356826" lon="8.765508433876597"><ele>357.5</ele><time>2026-04-04T16:18:00Z</time></trkpt><trkpt lat="40.86664232488064" lon="8.765530934195846"><ele>357.3333333333333</ele><time>2026-04-04T16:18:02Z</time></trkpt><trkpt lat="40.86659194544293" lon="8.765586209233264"><ele>357.1666666666667</ele><time>2026-04-04T16:18:03Z</time></trkpt><trkpt lat="40.86655398887547" lon="8.76566841416576"><ele>357.0</ele><time>2026-04-04T16:18:04Z</time></trkpt><trkpt lat="40.86653100841219" lon="8.765768849706943"><ele>357.0</ele><time>2026-04-04T16:18:05Z</time></trkpt><trkpt lat="40.8665149828042" lon="8.765890018871241"><ele>357.0</ele><time>2026-04-04T16:18:06Z</time></trkpt><trkpt lat="40.86648664969173" lon="8.766023112120457"><ele>357.0</ele><time>2026-04-04T16:18:07Z</time></trkpt><trkpt lat="40.866446931819425" lon="8.766161574756419"><ele>357.0</ele><time>2026-04-04T16:18:08Z</time></trkpt><trkpt lat="40.866407868164266" lon="8.766309931101832"><ele>357.0</ele><time>2026-04-04T16:18:09Z</time></trkpt><trkpt lat="40.86636888144896" lon="8.766471148314565"><ele>356.75</ele><time>2026-04-04T16:18:10Z</time></trkpt><trkpt lat="40.86632743117491" lon="8.766638180372658"><ele>356.5</ele><time>2026-04-04T16:18:11Z</time></trkpt><trkpt lat="40.86626581030417" lon="8.766810231147891"><ele>356.25</ele><time>2026-04-04T16:18:12Z</time></trkpt><trkpt lat="40.866231313934485" lon="8.766982598239114"><ele>356.0</ele><time>2026-04-04T16:18:13Z</time></trkpt><trkpt lat="40.86617864298813" lon="8.767153350495828"><ele>355.75</ele><time>2026-04-04T16:18:14Z</time></trkpt><trkpt lat="40.86612241290042" lon="8.767316671070612"><ele>355.5</ele><time>2026-04-04T16:18:15Z</time></trkpt><trkpt lat="40.86605153560222" lon="8.767461262870471"><ele>355.25</ele><time>2026-04-04T16:18:16Z</time></trkpt><trkpt lat="40.865958893425315" lon="8.767601410534366"><ele>355.0</ele><time>2026-04-04T16:18:17Z</time></trkpt><trkpt lat="40.86584767997706" lon="8.767733626955206"><ele>355.66666666666663</ele><time>2026-04-04T16:18:18Z</time></trkpt><trkpt lat="40.86572660088741" lon="8.767858567818617"><ele>356.3333333333333</ele><time>2026-04-04T16:18:19Z</time></trkpt><trkpt lat="40.86560251417005" lon="8.767970914729199"><ele>357.0</ele><time>2026-04-04T16:18:20Z</time></trkpt><trkpt lat="40.86546935610905" lon="8.768067882705097"><ele>357.0</ele><time>2026-04-04T16:18:21Z</time></trkpt><trkpt lat="40.865341699788196" lon="8.768143401056102"><ele>357.0</ele><time>2026-04-04T16:18:22.001Z</time></trkpt><trkpt lat="40.86522616816289" lon="8.768232266066462"><ele>357.0</ele><time>2026-04-04T16:18:23.001Z</time></trkpt><trkpt lat="40.865131394093076" lon="8.768353680733922"><ele>357.0</ele><time>2026-04-04T16:18:24.001Z</time></trkpt><trkpt lat="40.865054231809" lon="8.768493546881652"><ele>356.75</ele><time>2026-04-04T16:18:25.001Z</time></trkpt><trkpt lat="40.864979798346326" lon="8.76865310850707"><ele>356.5</ele><time>2026-04-04T16:18:26.001Z</time></trkpt><trkpt lat="40.86490444260355" lon="8.768819663407868"><ele>356.25</ele><time>2026-04-04T16:18:27.001Z</time></trkpt><trkpt lat="40.864825054087866" lon="8.768977327776385"><ele>356.0</ele><time>2026-04-04T16:18:28.001Z</time></trkpt><trkpt lat="40.864742711606716" lon="8.769126019959693"><ele>356.0</ele><time>2026-04-04T16:18:29.001Z</time></trkpt><trkpt lat="40.86465272555073" lon="8.769263422874896"><ele>356.0</ele><time>2026-04-04T16:18:30.001Z</time></trkpt><trkpt lat="40.86455323622622" lon="8.769389778741154"><ele>356.0</ele><time>2026-04-04T16:18:31.001Z</time></trkpt><trkpt lat="40.86444365982742" lon="8.769508031408336"><ele>356.0</ele><time>2026-04-04T16:18:32.001Z</time></trkpt><trkpt lat="40.86432571409215" lon="8.76961745011004"><ele>356.25</ele><time>2026-04-04T16:18:33.001Z</time></trkpt><trkpt lat="40.864208612874435" lon="8.769723910457952"><ele>356.5</ele><time>2026-04-04T16:18:34.001Z</time></trkpt><trkpt lat="40.864087743142676" lon="8.76982176309971"><ele>356.75</ele><time>2026-04-04T16:18:35.001Z</time></trkpt><trkpt lat="40.86395948877811" lon="8.769902806984373"><ele>357.0</ele><time>2026-04-04T16:18:36.001Z</time></trkpt><trkpt lat="40.86382927384512" lon="8.769983356313478"><ele>357.0</ele><time>2026-04-04T16:18:37.001Z</time></trkpt><trkpt lat="40.863700568086415" lon="8.770066219720931"><ele>357.0</ele><time>2026-04-04T16:18:38.001Z</time></trkpt><trkpt lat="40.863570375403945" lon="8.770145048657186"><ele>357.0</ele><time>2026-04-04T16:18:39.001Z</time></trkpt><trkpt lat="40.863438098057046" lon="8.770212055707896"><ele>357.0</ele><time>2026-04-04T16:18:40.001Z</time></trkpt><trkpt lat="40.86330377261665" lon="8.770272235408422"><ele>357.5</ele><time>2026-04-04T16:18:41.001Z</time></trkpt><trkpt lat="40.86316533350956" lon="8.770319868277669"><ele>358.0</ele><time>2026-04-04T16:18:42.001Z</time></trkpt><trkpt lat="40.8630236120327" lon="8.77035567432304"><ele>358.5</ele><time>2026-04-04T16:18:43.001Z</time></trkpt><trkpt lat="40.86288267383825" lon="8.770392081449305"><ele>359.0</ele><time>2026-04-04T16:18:44.001Z</time></trkpt><trkpt lat="40.862742806204764" lon="8.770427469014962"><ele>359.5</ele><time>2026-04-04T16:18:45.001Z</time></trkpt><trkpt lat="40.862604366549995" lon="8.770447037616155"><ele>360.0</ele><time>2026-04-04T16:18:46.001Z</time></trkpt><trkpt lat="40.86246579600485" lon="8.770461008149082"><ele>360.5</ele><time>2026-04-04T16:18:47.001Z</time></trkpt><trkpt lat="40.86232991972793" lon="8.770484080681129"><ele>361.0</ele><time>2026-04-04T16:18:48.001Z</time></trkpt><trkpt lat="40.86219480129849" lon="8.770536450583789"><ele>361.0</ele><time>2026-04-04T16:18:49.001Z</time></trkpt><trkpt lat="40.86206106099209" lon="8.77060966619715"><ele>361.0</ele><time>2026-04-04T16:18:50.001Z</time></trkpt><trkpt lat="40.86192301091832" lon="8.770670648183552"><ele>361.0</ele><time>2026-04-04T16:18:51.001Z</time></trkpt><trkpt lat="40.86178106449335" lon="8.770700051614828"><ele>361.0</ele><time>2026-04-04T16:18:52.001Z</time></trkpt><trkpt lat="40.861654977766015" lon="8.770710605328638"><ele>361.8</ele><time>2026-04-04T16:18:53.001Z</time></trkpt><trkpt lat="40.86155629610862" lon="8.770741528310827"><ele>362.6</ele><time>2026-04-04T16:18:54.001Z</time></trkpt><trkpt lat="40.86148516389494" lon="8.770810921889767"><ele>363.4</ele><time>2026-04-04T16:18:55.001Z</time></trkpt><trkpt lat="40.861442851928246" lon="8.770906297011638"><ele>364.2</ele><time>2026-04-04T16:18:56.001Z</time></trkpt><trkpt lat="40.86141433596185" lon="8.771030930780327"><ele>365.0</ele><time>2026-04-04T16:18:57.001Z</time></trkpt><trkpt lat="40.86138639021984" lon="8.771180586052902"><ele>366.0</ele><time>2026-04-04T16:18:58.001Z</time></trkpt><trkpt lat="40.86132868185825" lon="8.771336217639803"><ele>367.0</ele><time>2026-04-04T16:18:59.001Z</time></trkpt><trkpt lat="40.86123723831842" lon="8.771478278830873"><ele>368.0</ele><time>2026-04-04T16:19:00.001Z</time></trkpt><trkpt lat="40.861123520699834" lon="8.771617974286153"><ele>369.0</ele><time>2026-04-04T16:19:01.001Z</time></trkpt><trkpt lat="40.86099654718686" lon="8.77174938033526"><ele>371.75</ele><time>2026-04-04T16:19:02.001Z</time></trkpt><trkpt lat="40.86088671047522" lon="8.771845361163143"><ele>374.5</ele><time>2026-04-04T16:19:03.001Z</time></trkpt><trkpt lat="40.8607864056348" lon="8.771922384646997"><ele>377.25</ele><time>2026-04-04T16:19:04.001Z</time></trkpt><trkpt lat="40.8606931152009" lon="8.771969358830328"><ele>380.0</ele><time>2026-04-04T16:19:05.001Z</time></trkpt><trkpt lat="40.860589600248154" lon="8.772001857579102"><ele>383.0</ele><time>2026-04-04T16:19:06.001Z</time></trkpt><trkpt lat="40.86046813913051" lon="8.772026398098907"><ele>386.0</ele><time>2026-04-04T16:19:07.001Z</time></trkpt><trkpt lat="40.86032850950288" lon="8.772068663955826"><ele>389.0</ele><time>2026-04-04T16:19:08Z</time></trkpt><trkpt lat="40.86020337246568" lon="8.772148007371477"><ele>392.0</ele><time>2026-04-04T16:19:09Z</time></trkpt><trkpt lat="40.860073159428595" lon="8.772254500324577"><ele>392.5</ele><time>2026-04-04T16:19:10Z</time></trkpt><trkpt lat="40.85992629198424" lon="8.772308170744981"><ele>393.0</ele><time>2026-04-04T16:19:11Z</time></trkpt><trkpt lat="40.85978035762731" lon="8.772332472609708"><ele>393.5</ele><time>2026-04-04T16:19:12Z</time></trkpt><trkpt lat="40.85963545949566" lon="8.772359325462455"><ele>394.0</ele><time>2026-04-04T16:19:13Z</time></trkpt><trkpt lat="40.8594684430017" lon="8.772397786379146"><ele>394.0</ele><time>2026-04-04T16:19:14Z</time></trkpt><trkpt lat="40.859303932206586" lon="8.77244271295581"><ele>394.0</ele><time>2026-04-04T16:19:15Z</time></trkpt><trkpt lat="40.85915612758768" lon="8.772483696442254"><ele>394.0</ele><time>2026-04-04T16:19:16Z</time></trkpt><trkpt lat="40.85901946536074" lon="8.77252734935003"><ele>393.5</ele><time>2026-04-04T16:19:17Z</time></trkpt><trkpt lat="40.85889157547051" lon="8.772555903408463"><ele>393.0</ele><time>2026-04-04T16:19:18Z</time></trkpt><trkpt lat="40.85876942374367" lon="8.772573398315446"><ele>392.5</ele><time>2026-04-04T16:19:19Z</time></trkpt><trkpt lat="40.85864550474639" lon="8.772613061288263"><ele>392.0</ele><time>2026-04-04T16:19:20Z</time></trkpt><trkpt lat="40.85851645317088" lon="8.772683102039034"><ele>389.3333333333333</ele><time>2026-04-04T16:19:21Z</time></trkpt><trkpt lat="40.8583894621563" lon="8.772789632124871"><ele>386.66666666666663</ele><time>2026-04-04T16:19:22Z</time></trkpt><trkpt lat="40.858267793943575" lon="8.772911644988756"><ele>384.0</ele><time>2026-04-04T16:19:23Z</time></trkpt><trkpt lat="40.858148475500606" lon="8.773045645929182"><ele>384.0</ele><time>2026-04-04T16:19:24Z</time></trkpt><trkpt lat="40.858031703533015" lon="8.773193406655897"><ele>384.0</ele><time>2026-04-04T16:19:25Z</time></trkpt><trkpt lat="40.85791564154407" lon="8.773341687759785"><ele>384.0</ele><time>2026-04-04T16:19:26Z</time></trkpt><trkpt lat="40.85779353162899" lon="8.773473051976387"><ele>384.0</ele><time>2026-04-04T16:19:27Z</time></trkpt><trkpt lat="40.857661778043386" lon="8.773582516164902"><ele>384.0</ele><time>2026-04-04T16:19:28Z</time></trkpt><trkpt lat="40.85753053345967" lon="8.773685372511714"><ele>384.0</ele><time>2026-04-04T16:19:29Z</time></trkpt><trkpt lat="40.85740728744397" lon="8.773773136311837"><ele>384.0</ele><time>2026-04-04T16:19:30Z</time></trkpt><trkpt lat="40.85729730203453" lon="8.77384369006205"><ele>383.0</ele><time>2026-04-04T16:19:31Z</time></trkpt><trkpt lat="40.857198799188005" lon="8.773911863582637"><ele>382.0</ele><time>2026-04-04T16:19:32Z</time></trkpt><trkpt lat="40.85711141970127" lon="8.773973438657885"><ele>381.0</ele><time>2026-04-04T16:19:33Z</time></trkpt><trkpt lat="40.857034843970006" lon="8.774019865003819"><ele>380.0</ele><time>2026-04-04T16:19:34Z</time></trkpt><trkpt lat="40.85697278551413" lon="8.774055919923509"><ele>379.0</ele><time>2026-04-04T16:19:35Z</time></trkpt><trkpt lat="40.85688840041039" lon="8.774093345458962"><ele>379.0</ele><time>2026-04-04T16:19:37Z</time></trkpt><trkpt lat="40.85681518021194" lon="8.774080669926942"><ele>379.0</ele><time>2026-04-04T16:20:11Z</time></trkpt><trkpt lat="40.85677354647471" lon="8.773940974267152"><ele>379.0</ele><time>2026-04-04T16:20:13Z</time></trkpt><trkpt lat="40.85675554067122" lon="8.773832594307526"><ele>379.0</ele><time>2026-04-04T16:20:14Z</time></trkpt><trkpt lat="40.856727899963026" lon="8.77371393860351"><ele>379.0</ele><time>2026-04-04T16:20:15Z</time></trkpt><trkpt lat="40.856695488485315" lon="8.773593055843685"><ele>379.25</ele><time>2026-04-04T16:20:16Z</time></trkpt><trkpt lat="40.8566568862018" lon="8.773457198307778"><ele>379.5</ele><time>2026-04-04T16:20:17Z</time></trkpt><trkpt lat="40.85660981919422" lon="8.77331326158801"><ele>379.75</ele><time>2026-04-04T16:20:18Z</time></trkpt><trkpt lat="40.85656063576931" lon="8.773174930673303"><ele>380.0</ele><time>2026-04-04T16:20:19Z</time></trkpt><trkpt lat="40.8565028181752" lon="8.773013606786394"><ele>380.0</ele><time>2026-04-04T16:20:20Z</time></trkpt><trkpt lat="40.85644125335546" lon="8.77282157666042"><ele>380.0</ele><time>2026-04-04T16:20:21Z</time></trkpt><trkpt lat="40.85639031163146" lon="8.772617321845662"><ele>380.0</ele><time>2026-04-04T16:20:22Z</time></trkpt><trkpt lat="40.85634419851357" lon="8.772407533482742"><ele>380.0</ele><time>2026-04-04T16:20:23Z</time></trkpt><trkpt lat="40.85630600171062" lon="8.77219557092439"><ele>380.0</ele><time>2026-04-04T16:20:24Z</time></trkpt><trkpt lat="40.856273696775524" lon="8.771981383518495"><ele>380.0</ele><time>2026-04-04T16:20:25Z</time></trkpt><trkpt lat="40.85624196709367" lon="8.771764908260016"><ele>380.0</ele><time>2026-04-04T16:20:26Z</time></trkpt><trkpt lat="40.85621002074162" lon="8.771552251970542"><ele>380.0</ele><time>2026-04-04T16:20:27Z</time></trkpt><trkpt lat="40.856176933432245" lon="8.771337907385448"><ele>380.0</ele><time>2026-04-04T16:20:28Z</time></trkpt><trkpt lat="40.856145600348896" lon="8.771123425389863"><ele>380.5</ele><time>2026-04-04T16:20:29Z</time></trkpt><trkpt lat="40.85611293712545" lon="8.770924192367762"><ele>381.0</ele><time>2026-04-04T16:20:30Z</time></trkpt><trkpt lat="40.85608131022355" lon="8.770742154851115"><ele>381.5</ele><time>2026-04-04T16:20:31.001Z</time></trkpt><trkpt lat="40.85604676688753" lon="8.770550659180202"><ele>382.0</ele><time>2026-04-04T16:20:32.001Z</time></trkpt><trkpt lat="40.856005058242545" lon="8.770358962612837"><ele>382.0</ele><time>2026-04-04T16:20:33.001Z</time></trkpt><trkpt lat="40.855954107621876" lon="8.770167670712524"><ele>382.0</ele><time>2026-04-04T16:20:34.001Z</time></trkpt><trkpt lat="40.85589326101928" lon="8.769975625624609"><ele>382.0</ele><time>2026-04-04T16:20:35.001Z</time></trkpt><trkpt lat="40.85582687503429" lon="8.76978096705575"><ele>381.66666666666663</ele><time>2026-04-04T16:20:36.001Z</time></trkpt><trkpt lat="40.85575769474558" lon="8.76958175158372"><ele>381.3333333333333</ele><time>2026-04-04T16:20:37.001Z</time></trkpt><trkpt lat="40.85567733546858" lon="8.769383481522285"><ele>381.0</ele><time>2026-04-04T16:20:38.001Z</time></trkpt><trkpt lat="40.85559274093993" lon="8.769184085285437"><ele>381.0</ele><time>2026-04-04T16:20:39.001Z</time></trkpt><trkpt lat="40.85550723312591" lon="8.768982321813754"><ele>381.0</ele><time>2026-04-04T16:20:40.001Z</time></trkpt><trkpt lat="40.85542547520729" lon="8.768776676340181"><ele>381.0</ele><time>2026-04-04T16:20:41.001Z</time></trkpt><trkpt lat="40.855343010974785" lon="8.768572547378913"><ele>380.6666666666667</ele><time>2026-04-04T16:20:42.001Z</time></trkpt><trkpt lat="40.85525846575229" lon="8.768365745688488"><ele>380.33333333333337</ele><time>2026-04-04T16:20:43.001Z</time></trkpt><trkpt lat="40.85517632311943" lon="8.768171007457594"><ele>380.0</ele><time>2026-04-04T16:20:44.001Z</time></trkpt><trkpt lat="40.85509422397915" lon="8.767979866265375"><ele>380.0</ele><time>2026-04-04T16:20:45.001Z</time></trkpt><trkpt lat="40.85501147139164" lon="8.767786131762115"><ele>380.0</ele><time>2026-04-04T16:20:46.001Z</time></trkpt><trkpt lat="40.85492933949417" lon="8.767590797443955"><ele>380.0</ele><time>2026-04-04T16:20:47.001Z</time></trkpt><trkpt lat="40.8548508452218" lon="8.767394087181009"><ele>380.33333333333337</ele><time>2026-04-04T16:20:48.001Z</time></trkpt><trkpt lat="40.85477091998766" lon="8.767198963244834"><ele>380.6666666666667</ele><time>2026-04-04T16:20:49.001Z</time></trkpt><trkpt lat="40.854691544147315" lon="8.767004809136855"><ele>381.0</ele><time>2026-04-04T16:20:50.001Z</time></trkpt><trkpt lat="40.854613494549575" lon="8.766810040180816"><ele>381.6666666666667</ele><time>2026-04-04T16:20:51.001Z</time></trkpt><trkpt lat="40.854533625487285" lon="8.76661427461552"><ele>382.33333333333337</ele><time>2026-04-04T16:20:52.001Z</time></trkpt><trkpt lat="40.854452906366326" lon="8.766420497338103"><ele>383.0</ele><time>2026-04-04T16:20:53.001Z</time></trkpt><trkpt lat="40.854372629218055" lon="8.766229568378709"><ele>383.0</ele><time>2026-04-04T16:20:54.001Z</time></trkpt><trkpt lat="40.85429245905305" lon="8.766037619258764"><ele>383.0</ele><time>2026-04-04T16:20:55.001Z</time></trkpt><trkpt lat="40.854213586370825" lon="8.765845783785993"><ele>383.0</ele><time>2026-04-04T16:20:56.001Z</time></trkpt><trkpt lat="40.854135902866524" lon="8.765650841063039"><ele>383.6666666666667</ele><time>2026-04-04T16:20:57.001Z</time></trkpt><trkpt lat="40.85405617070045" lon="8.765456744675491"><ele>384.33333333333337</ele><time>2026-04-04T16:20:58.001Z</time></trkpt><trkpt lat="40.853973379287396" lon="8.7652620625505"><ele>385.0</ele><time>2026-04-04T16:20:59.001Z</time></trkpt><trkpt lat="40.85388721432854" lon="8.765069705806793"><ele>385.0</ele><time>2026-04-04T16:21:00.001Z</time></trkpt><trkpt lat="40.853793484650694" lon="8.76487962592081"><ele>385.0</ele><time>2026-04-04T16:21:01.001Z</time></trkpt><trkpt lat="40.85369382815414" lon="8.764692349184406"><ele>385.0</ele><time>2026-04-04T16:21:02.001Z</time></trkpt><trkpt lat="40.85358654938931" lon="8.764512355158086"><ele>385.0</ele><time>2026-04-04T16:21:03.001Z</time></trkpt><trkpt lat="40.85347446753347" lon="8.764338068920567"><ele>385.0</ele><time>2026-04-04T16:21:04.001Z</time></trkpt><trkpt lat="40.85335695352341" lon="8.764167491257478"><ele>385.0</ele><time>2026-04-04T16:21:05.001Z</time></trkpt><trkpt lat="40.853233512274834" lon="8.764002053764097"><ele>385.33333333333337</ele><time>2026-04-04T16:21:06.001Z</time></trkpt><trkpt lat="40.85310775962378" lon="8.763839382566573"><ele>385.66666666666663</ele><time>2026-04-04T16:21:07.001Z</time></trkpt><trkpt lat="40.85298197268912" lon="8.763678187100853"><ele>386.0</ele><time>2026-04-04T16:21:08.001Z</time></trkpt><trkpt lat="40.85285656112585" lon="8.763516568489027"><ele>386.3333333333333</ele><time>2026-04-04T16:21:09.001Z</time></trkpt><trkpt lat="40.85272927355568" lon="8.763355496337597"><ele>386.66666666666663</ele><time>2026-04-04T16:21:10.001Z</time></trkpt><trkpt lat="40.85260238655323" lon="8.763194231869047"><ele>387.0</ele><time>2026-04-04T16:21:11.001Z</time></trkpt><trkpt lat="40.85247611156606" lon="8.763033968802429"><ele>387.0</ele><time>2026-04-04T16:21:12.001Z</time></trkpt><trkpt lat="40.85234998899242" lon="8.762872013354617"><ele>387.0</ele><time>2026-04-04T16:21:13.001Z</time></trkpt><trkpt lat="40.85222595496684" lon="8.762701598636248"><ele>387.0</ele><time>2026-04-04T16:21:14Z</time></trkpt><trkpt lat="40.852107964813946" lon="8.76251882962224"><ele>388.0</ele><time>2026-04-04T16:21:15Z</time></trkpt><trkpt lat="40.85199771177547" lon="8.762327398477863"><ele>389.0</ele><time>2026-04-04T16:21:16Z</time></trkpt><trkpt lat="40.85189677401604" lon="8.76212985748113"><ele>390.0</ele><time>2026-04-04T16:21:17Z</time></trkpt><trkpt lat="40.851803453375446" lon="8.761924398524059"><ele>389.33333333333337</ele><time>2026-04-04T16:21:18Z</time></trkpt><trkpt lat="40.851721165943964" lon="8.761712140587187"><ele>388.6666666666667</ele><time>2026-04-04T16:21:19Z</time></trkpt><trkpt lat="40.85164679373505" lon="8.761494977489985"><ele>388.0</ele><time>2026-04-04T16:21:20Z</time></trkpt><trkpt lat="40.851574111733086" lon="8.761277469691219"><ele>388.0</ele><time>2026-04-04T16:21:21Z</time></trkpt><trkpt lat="40.85150154757571" lon="8.761059679273048"><ele>388.0</ele><time>2026-04-04T16:21:22Z</time></trkpt><trkpt lat="40.851431547112334" lon="8.760840670319167"><ele>388.0</ele><time>2026-04-04T16:21:23Z</time></trkpt><trkpt lat="40.85136224766513" lon="8.760623891861375"><ele>388.0</ele><time>2026-04-04T16:21:24Z</time></trkpt><trkpt lat="40.85129496032329" lon="8.760415273253688"><ele>388.0</ele><time>2026-04-04T16:21:25Z</time></trkpt><trkpt lat="40.85122730307076" lon="8.760216113767713"><ele>388.0</ele><time>2026-04-04T16:21:26Z</time></trkpt><trkpt lat="40.85115956749014" lon="8.760017284925164"><ele>386.6666666666667</ele><time>2026-04-04T16:21:27Z</time></trkpt><trkpt lat="40.85109458358822" lon="8.7598183418505"><ele>385.33333333333337</ele><time>2026-04-04T16:21:28Z</time></trkpt><trkpt lat="40.85103119703366" lon="8.759620443841326"><ele>384.0</ele><time>2026-04-04T16:21:29Z</time></trkpt><trkpt lat="40.85096849854056" lon="8.759422220900618"><ele>384.33333333333337</ele><time>2026-04-04T16:21:30Z</time></trkpt><trkpt lat="40.85090210683537" lon="8.759225028557424"><ele>384.6666666666667</ele><time>2026-04-04T16:21:31Z</time></trkpt><trkpt lat="40.85083571155189" lon="8.75902741289962"><ele>385.0</ele><time>2026-04-04T16:21:32Z</time></trkpt><trkpt lat="40.850769533799365" lon="8.758830887973836"><ele>385.0</ele><time>2026-04-04T16:21:33Z</time></trkpt><trkpt lat="40.85070129159316" lon="8.758634146927715"><ele>385.0</ele><time>2026-04-04T16:21:34Z</time></trkpt><trkpt lat="40.85063560796123" lon="8.758437126909463"><ele>385.0</ele><time>2026-04-04T16:21:35Z</time></trkpt><trkpt lat="40.85057207656862" lon="8.75823893166449"><ele>385.0</ele><time>2026-04-04T16:21:36Z</time></trkpt><trkpt lat="40.85050910251081" lon="8.75804219524186"><ele>385.0</ele><time>2026-04-04T16:21:37Z</time></trkpt><trkpt lat="40.85044481548303" lon="8.7578460162725"><ele>385.0</ele><time>2026-04-04T16:21:38Z</time></trkpt><trkpt lat="40.85037629025871" lon="8.757650690925988"><ele>385.0</ele><time>2026-04-04T16:21:39Z</time></trkpt><trkpt lat="40.85031084819653" lon="8.75745199746638"><ele>385.0</ele><time>2026-04-04T16:21:40Z</time></trkpt><trkpt lat="40.850246464732116" lon="8.75725147266979"><ele>385.0</ele><time>2026-04-04T16:21:41Z</time></trkpt><trkpt lat="40.85017952148272" lon="8.757050285704413"><ele>387.33333333333337</ele><time>2026-04-04T16:21:42Z</time></trkpt><trkpt lat="40.85011470659602" lon="8.756847034223426"><ele>389.66666666666663</ele><time>2026-04-04T16:21:43Z</time></trkpt><trkpt lat="40.850051698254255" lon="8.756644908662052"><ele>392.0</ele><time>2026-04-04T16:21:44Z</time></trkpt><trkpt lat="40.84999458770996" lon="8.75644448490692"><ele>392.0</ele><time>2026-04-04T16:21:45Z</time></trkpt><trkpt lat="40.84994674202052" lon="8.756242005603795"><ele>392.0</ele><time>2026-04-04T16:21:46Z</time></trkpt><trkpt lat="40.84991230746259" lon="8.756032652481574"><ele>392.0</ele><time>2026-04-04T16:21:47Z</time></trkpt><trkpt lat="40.849889268424235" lon="8.755819460159076"><ele>394.3333333333333</ele><time>2026-04-04T16:21:48Z</time></trkpt><trkpt lat="40.84987108773437" lon="8.75560404338312"><ele>396.66666666666663</ele><time>2026-04-04T16:21:49Z</time></trkpt><trkpt lat="40.849852480165424" lon="8.75538860055927"><ele>399.0</ele><time>2026-04-04T16:21:50Z</time></trkpt><trkpt lat="40.84982793872978" lon="8.755174671192792"><ele>400.66666666666663</ele><time>2026-04-04T16:21:51Z</time></trkpt><trkpt lat="40.84980813937325" lon="8.754959051575673"><ele>402.3333333333333</ele><time>2026-04-04T16:21:52Z</time></trkpt><trkpt lat="40.84978787612959" lon="8.754743255767787"><ele>404.0</ele><time>2026-04-04T16:21:53Z</time></trkpt><trkpt lat="40.84975967071203" lon="8.754533780883767"><ele>403.3333333333333</ele><time>2026-04-04T16:21:54Z</time></trkpt><trkpt lat="40.84971900820529" lon="8.754328894335728"><ele>402.66666666666663</ele><time>2026-04-04T16:21:55Z</time></trkpt><trkpt lat="40.84966153277874" lon="8.754124550238442"><ele>402.0</ele><time>2026-04-04T16:21:56Z</time></trkpt><trkpt lat="40.84959242672638" lon="8.753920489045834"><ele>402.0</ele><time>2026-04-04T16:21:57Z</time></trkpt><trkpt lat="40.84951462315423" lon="8.753719717094393"><ele>402.0</ele><time>2026-04-04T16:21:58Z</time></trkpt><trkpt lat="40.84942780573249" lon="8.753523149612208"><ele>402.0</ele><time>2026-04-04T16:21:59Z</time></trkpt><trkpt lat="40.849341105507975" lon="8.753335851298349"><ele>405.33333333333337</ele><time>2026-04-04T16:22:00Z</time></trkpt><trkpt lat="40.84926151762029" lon="8.753158604557802"><ele>408.6666666666667</ele><time>2026-04-04T16:22:01Z</time></trkpt><trkpt lat="40.84918705630317" lon="8.752986358708524"><ele>412.0</ele><time>2026-04-04T16:22:02Z</time></trkpt><trkpt lat="40.84910938040826" lon="8.752814842719"><ele>411.6666666666667</ele><time>2026-04-04T16:22:03Z</time></trkpt><trkpt lat="40.849033637961774" lon="8.752638937654579"><ele>411.33333333333337</ele><time>2026-04-04T16:22:04Z</time></trkpt><trkpt lat="40.84895370715975" lon="8.752463346541532"><ele>411.0</ele><time>2026-04-04T16:22:05Z</time></trkpt><trkpt lat="40.848872186251775" lon="8.752287880126483"><ele>411.0</ele><time>2026-04-04T16:22:06Z</time></trkpt><trkpt lat="40.84879236521067" lon="8.752109848002183"><ele>411.0</ele><time>2026-04-04T16:22:07Z</time></trkpt><trkpt lat="40.84871034172323" lon="8.751934172824837"><ele>411.0</ele><time>2026-04-04T16:22:08Z</time></trkpt><trkpt lat="40.84863102747817" lon="8.75176231687972"><ele>412.66666666666663</ele><time>2026-04-04T16:22:09Z</time></trkpt><trkpt lat="40.84855960682835" lon="8.751585887257386"><ele>414.3333333333333</ele><time>2026-04-04T16:22:10Z</time></trkpt><trkpt lat="40.84850072928451" lon="8.751397302125307"><ele>416.0</ele><time>2026-04-04T16:22:11Z</time></trkpt><trkpt lat="40.84845217895836" lon="8.751197635235414"><ele>417.66666666666663</ele><time>2026-04-04T16:22:12Z</time></trkpt><trkpt lat="40.848411786365624" lon="8.750987532784926"><ele>419.33333333333337</ele><time>2026-04-04T16:22:13Z</time></trkpt><trkpt lat="40.84837540491533" lon="8.750770149512567"><ele>421.0</ele><time>2026-04-04T16:22:14Z</time></trkpt><trkpt lat="40.84833664959266" lon="8.750557114489121"><ele>421.0</ele><time>2026-04-04T16:22:15Z</time></trkpt><trkpt lat="40.84829872076577" lon="8.750357295549755"><ele>421.0</ele><time>2026-04-04T16:22:16Z</time></trkpt><trkpt lat="40.84826027809819" lon="8.750150345368503"><ele>421.0</ele><time>2026-04-04T16:22:17Z</time></trkpt><trkpt lat="40.84822311731242" lon="8.749945569987252"><ele>422.6666666666667</ele><time>2026-04-04T16:22:18Z</time></trkpt><trkpt lat="40.84818507998319" lon="8.749742286954579"><ele>424.33333333333337</ele><time>2026-04-04T16:22:19Z</time></trkpt><trkpt lat="40.84815093036528" lon="8.749543440796417"><ele>426.0</ele><time>2026-04-04T16:22:20Z</time></trkpt><trkpt lat="40.848117898128066" lon="8.749346040392465"><ele>426.66666666666663</ele><time>2026-04-04T16:22:21Z</time></trkpt><trkpt lat="40.848079886401" lon="8.749147371310002"><ele>427.3333333333333</ele><time>2026-04-04T16:22:22Z</time></trkpt><trkpt lat="40.84804076077509" lon="8.748947439682441"><ele>428.0</ele><time>2026-04-04T16:22:23Z</time></trkpt><trkpt lat="40.848002194057614" lon="8.748747071568141"><ele>428.0</ele><time>2026-04-04T16:22:24Z</time></trkpt><trkpt lat="40.847961039768464" lon="8.748546048065386"><ele>428.0</ele><time>2026-04-04T16:22:25Z</time></trkpt><trkpt lat="40.84791826896503" lon="8.748343238340118"><ele>428.0</ele><time>2026-04-04T16:22:26Z</time></trkpt><trkpt lat="40.847874141611925" lon="8.748141392088975"><ele>428.3333333333333</ele><time>2026-04-04T16:22:27Z</time></trkpt><trkpt lat="40.847834336966535" lon="8.747942289327225"><ele>428.66666666666663</ele><time>2026-04-04T16:22:28Z</time></trkpt><trkpt lat="40.847795301646165" lon="8.747746551783072"><ele>429.0</ele><time>2026-04-04T16:22:29Z</time></trkpt><trkpt lat="40.847754710741135" lon="8.747555268883016"><ele>429.75</ele><time>2026-04-04T16:22:30Z</time></trkpt><trkpt lat="40.84771489279818" lon="8.747364777985894"><ele>430.5</ele><time>2026-04-04T16:22:31Z</time></trkpt><trkpt lat="40.84767837035571" lon="8.747174284419835"><ele>431.25</ele><time>2026-04-04T16:22:32Z</time></trkpt><trkpt lat="40.847640350743774" lon="8.746985074996026"><ele>432.0</ele><time>2026-04-04T16:22:33Z</time></trkpt><trkpt lat="40.84760396903589" lon="8.746805834445665"><ele>433.75</ele><time>2026-04-04T16:22:34Z</time></trkpt><trkpt lat="40.847571077095864" lon="8.746632848705806"><ele>435.5</ele><time>2026-04-04T16:22:35Z</time></trkpt><trkpt lat="40.847527307474785" lon="8.746459956679104"><ele>437.25</ele><time>2026-04-04T16:22:36.001Z</time></trkpt><trkpt lat="40.84746335973085" lon="8.74628916639852"><ele>439.0</ele><time>2026-04-04T16:22:37.001Z</time></trkpt><trkpt lat="40.8473693995407" lon="8.74611302767756"><ele>437.6666666666667</ele><time>2026-04-04T16:22:38.001Z</time></trkpt><trkpt lat="40.84725884965304" lon="8.74593791350338"><ele>436.33333333333337</ele><time>2026-04-04T16:22:39.001Z</time></trkpt><trkpt lat="40.84711993216125" lon="8.745715485224805"><ele>435.0</ele><time>2026-04-04T16:22:40.001Z</time></trkpt><trkpt lat="40.8469703753771" lon="8.745472041466012"><ele>435.0</ele><time>2026-04-04T16:22:41.001Z</time></trkpt><trkpt lat="40.84682941609212" lon="8.74522666186678"><ele>435.0</ele><time>2026-04-04T16:22:42.001Z</time></trkpt><trkpt lat="40.8466991284517" lon="8.745001821469412"><ele>435.0</ele><time>2026-04-04T16:22:43.001Z</time></trkpt><trkpt lat="40.84657438541508" lon="8.744787680636428"><ele>431.0</ele><time>2026-04-04T16:22:44.001Z</time></trkpt><trkpt lat="40.84646198673675" lon="8.744587725745028"><ele>427.0</ele><time>2026-04-04T16:22:45.001Z</time></trkpt><trkpt lat="40.846366625304114" lon="8.744385369322131"><ele>423.0</ele><time>2026-04-04T16:22:46.001Z</time></trkpt><trkpt lat="40.846293367345474" lon="8.744166043308429"><ele>422.33333333333337</ele><time>2026-04-04T16:22:47.001Z</time></trkpt><trkpt lat="40.84624331978802" lon="8.74393592990571"><ele>421.6666666666667</ele><time>2026-04-04T16:22:48.001Z</time></trkpt><trkpt lat="40.846211753824385" lon="8.743698140099776"><ele>421.0</ele><time>2026-04-04T16:22:49.001Z</time></trkpt><trkpt lat="40.846190566793766" lon="8.743461032000816"><ele>422.33333333333337</ele><time>2026-04-04T16:22:50.001Z</time></trkpt><trkpt lat="40.84617625694436" lon="8.743231727524677"><ele>423.66666666666663</ele><time>2026-04-04T16:22:51.001Z</time></trkpt><trkpt lat="40.846159542551604" lon="8.743007954395486"><ele>425.0</ele><time>2026-04-04T16:22:52.001Z</time></trkpt><trkpt lat="40.84614213296483" lon="8.742787333694721"><ele>425.66666666666663</ele><time>2026-04-04T16:22:53.001Z</time></trkpt><trkpt lat="40.846121414473146" lon="8.742568408661299"><ele>426.33333333333337</ele><time>2026-04-04T16:22:54.001Z</time></trkpt><trkpt lat="40.84609914449302" lon="8.742346262329042"><ele>427.0</ele><time>2026-04-04T16:22:55.001Z</time></trkpt><trkpt lat="40.84608329908843" lon="8.74212333530051"><ele>427.0</ele><time>2026-04-04T16:22:56.001Z</time></trkpt><trkpt lat="40.846067066912894" lon="8.741903711630773"><ele>427.0</ele><time>2026-04-04T16:22:57.001Z</time></trkpt><trkpt lat="40.84604744542249" lon="8.741686365676914"><ele>427.0</ele><time>2026-04-04T16:22:58.001Z</time></trkpt><trkpt lat="40.84602797751827" lon="8.74147291355236"><ele>425.33333333333337</ele><time>2026-04-04T16:22:59.001Z</time></trkpt><trkpt lat="40.84600854157423" lon="8.74126210888771"><ele>423.66666666666663</ele><time>2026-04-04T16:23:00.001Z</time></trkpt><trkpt lat="40.84598809635087" lon="8.741051857951431"><ele>422.0</ele><time>2026-04-04T16:23:01.001Z</time></trkpt><trkpt lat="40.8459668552137" lon="8.740841667239433"><ele>426.3333333333333</ele><time>2026-04-04T16:23:02.001Z</time></trkpt><trkpt lat="40.84594756456383" lon="8.740627895438742"><ele>430.66666666666663</ele><time>2026-04-04T16:23:03.001Z</time></trkpt><trkpt lat="40.84592592127709" lon="8.740412628190683"><ele>435.0</ele><time>2026-04-04T16:23:04.001Z</time></trkpt><trkpt lat="40.845896898683634" lon="8.740197751485585"><ele>435.0</ele><time>2026-04-04T16:23:05.001Z</time></trkpt><trkpt lat="40.84585978296427" lon="8.73998531771337"><ele>435.0</ele><time>2026-04-04T16:23:06.001Z</time></trkpt><trkpt lat="40.845814900929376" lon="8.739774607726162"><ele>435.0</ele><time>2026-04-04T16:23:07.001Z</time></trkpt><trkpt lat="40.84576946146813" lon="8.73956208026595"><ele>434.33333333333337</ele><time>2026-04-04T16:23:08.001Z</time></trkpt><trkpt lat="40.84572887991996" lon="8.73934789799264"><ele>433.6666666666667</ele><time>2026-04-04T16:23:09.001Z</time></trkpt><trkpt lat="40.84568790455088" lon="8.739130828021572"><ele>433.0</ele><time>2026-04-04T16:23:10.001Z</time></trkpt><trkpt lat="40.84564227097861" lon="8.738906630572451"><ele>433.0</ele><time>2026-04-04T16:23:11.001Z</time></trkpt><trkpt lat="40.84559827930953" lon="8.738683007017991"><ele>433.0</ele><time>2026-04-04T16:23:12.001Z</time></trkpt><trkpt lat="40.8455509595335" lon="8.738462789545487"><ele>433.0</ele><time>2026-04-04T16:23:13.001Z</time></trkpt><trkpt lat="40.845501975007764" lon="8.73824017689501"><ele>431.33333333333337</ele><time>2026-04-04T16:23:14.001Z</time></trkpt><trkpt lat="40.84546183667296" lon="8.73801696639376"><ele>429.66666666666663</ele><time>2026-04-04T16:23:15.001Z</time></trkpt><trkpt lat="40.845421967580876" lon="8.73779738261797"><ele>428.0</ele><time>2026-04-04T16:23:16.001Z</time></trkpt><trkpt lat="40.84538218024604" lon="8.737591730470273"><ele>426.75</ele><time>2026-04-04T16:23:17.001Z</time></trkpt><trkpt lat="40.84534110755127" lon="8.737390697662674"><ele>425.5</ele><time>2026-04-04T16:23:18.001Z</time></trkpt><trkpt lat="40.84530241397255" lon="8.73720254315445"><ele>424.25</ele><time>2026-04-04T16:23:19.001Z</time></trkpt><trkpt lat="40.84526595347123" lon="8.737022156256813"><ele>423.0</ele><time>2026-04-04T16:23:20Z</time></trkpt><trkpt lat="40.845229530396196" lon="8.736839705990302"><ele>422.59999999999997</ele><time>2026-04-04T16:23:21Z</time></trkpt><trkpt lat="40.84520837447939" lon="8.736683672037755"><ele>422.2</ele><time>2026-04-04T16:23:22Z</time></trkpt><trkpt lat="40.84518448293364" lon="8.736545307844034"><ele>421.8</ele><time>2026-04-04T16:23:23Z</time></trkpt><trkpt lat="40.845157970871945" lon="8.73641400162704"><ele>421.4</ele><time>2026-04-04T16:23:24Z</time></trkpt><trkpt lat="40.84513701499107" lon="8.7363036824122"><ele>421.0</ele><time>2026-04-04T16:23:25Z</time></trkpt><trkpt lat="40.84511942485586" lon="8.736210945195834"><ele>421.1666666666667</ele><time>2026-04-04T16:23:26Z</time></trkpt><trkpt lat="40.845114543372844" lon="8.736126449446537"><ele>421.33333333333337</ele><time>2026-04-04T16:23:27Z</time></trkpt><trkpt lat="40.845091285803804" lon="8.736004156995655"><ele>421.5</ele><time>2026-04-04T16:23:29Z</time></trkpt><trkpt lat="40.845105617127906" lon="8.73592116083091"><ele>421.66666666666663</ele><time>2026-04-04T16:23:49Z</time></trkpt><trkpt lat="40.84515914807516" lon="8.735858594069885"><ele>421.8333333333333</ele><time>2026-04-04T16:23:51Z</time></trkpt><trkpt lat="40.845257706893385" lon="8.735795652050339"><ele>422.0</ele><time>2026-04-04T16:23:53Z</time></trkpt><trkpt lat="40.84531928369014" lon="8.735751639332586"><ele>421.99999999999994</ele><time>2026-04-04T16:23:54Z</time></trkpt><trkpt lat="40.84541060417416" lon="8.735698238440866"><ele>422.0</ele><time>2026-04-04T16:23:56Z</time></trkpt><trkpt lat="40.845494747520554" lon="8.735635189557064"><ele>422.0</ele><time>2026-04-04T16:23:58Z</time></trkpt><trkpt lat="40.845510716585835" lon="8.735546729332514"><ele>422.0</ele><time>2026-04-04T16:25:59Z</time></trkpt><trkpt lat="40.84549731945432" lon="8.735647047778658"><ele>421.99999999999994</ele><time>2026-04-04T16:26:20Z</time></trkpt><trkpt lat="40.845413819263314" lon="8.735653197018515"><ele>422.0</ele><time>2026-04-04T16:26:21Z</time></trkpt><trkpt lat="40.84530380471248" lon="8.735644746988822"><ele>422.0</ele><time>2026-04-04T16:26:22Z</time></trkpt><trkpt lat="40.84516612845549" lon="8.735656840346284"><ele>422.0</ele><time>2026-04-04T16:26:23Z</time></trkpt><trkpt lat="40.84501775526566" lon="8.735681701890865"><ele>422.0</ele><time>2026-04-04T16:26:24Z</time></trkpt><trkpt lat="40.84485522773945" lon="8.73570862650271"><ele>425.3333333333333</ele><time>2026-04-04T16:26:25Z</time></trkpt><trkpt lat="40.84467721908191" lon="8.735734698996527"><ele>428.66666666666663</ele><time>2026-04-04T16:26:26Z</time></trkpt><trkpt lat="40.84446494185962" lon="8.73573899283497"><ele>432.0</ele><time>2026-04-04T16:26:27Z</time></trkpt><trkpt lat="40.84424948641282" lon="8.735796225530393"><ele>435.0</ele><time>2026-04-04T16:26:28Z</time></trkpt><trkpt lat="40.844062249914046" lon="8.735786704116398"><ele>438.0</ele><time>2026-04-04T16:26:29Z</time></trkpt><trkpt lat="40.843864530070604" lon="8.735810302573158"><ele>441.0</ele><time>2026-04-04T16:26:30Z</time></trkpt><trkpt lat="40.84365206117063" lon="8.735847021125547"><ele>441.0</ele><time>2026-04-04T16:26:31Z</time></trkpt><trkpt lat="40.843423883320966" lon="8.735895076040128"><ele>441.0</ele><time>2026-04-04T16:26:32Z</time></trkpt><trkpt lat="40.84317742024979" lon="8.735986477827833"><ele>450.5</ele><time>2026-04-04T16:26:33Z</time></trkpt><trkpt lat="40.84291807702153" lon="8.736109081764381"><ele>460.0</ele><time>2026-04-04T16:26:34Z</time></trkpt><trkpt lat="40.84265654805126" lon="8.736210265111412"><ele>458.6666666666667</ele><time>2026-04-04T16:26:35Z</time></trkpt><trkpt lat="40.84243356264161" lon="8.736315329769557"><ele>457.33333333333337</ele><time>2026-04-04T16:26:36Z</time></trkpt><trkpt lat="40.84223359673134" lon="8.736409548258626"><ele>456.0</ele><time>2026-04-04T16:26:37Z</time></trkpt><trkpt lat="40.84207500904116" lon="8.736506819200166"><ele>456.0</ele><time>2026-04-04T16:26:38Z</time></trkpt><trkpt lat="40.84190335548511" lon="8.73656451963475"><ele>456.0</ele><time>2026-04-04T16:26:39Z</time></trkpt><trkpt lat="40.841754344939986" lon="8.736656504632684"><ele>456.0</ele><time>2026-04-04T16:26:40Z</time></trkpt><trkpt lat="40.84160803659851" lon="8.736719325631839"><ele>454.75</ele><time>2026-04-04T16:26:41Z</time></trkpt><trkpt lat="40.84147183381487" lon="8.736782581041968"><ele>453.5</ele><time>2026-04-04T16:26:42Z</time></trkpt><trkpt lat="40.841340493164815" lon="8.73684752047558"><ele>452.25</ele><time>2026-04-04T16:26:43Z</time></trkpt><trkpt lat="40.8412108807663" lon="8.736905800202823"><ele>451.0</ele><time>2026-04-04T16:26:44Z</time></trkpt><trkpt lat="40.84108421043517" lon="8.736962379387398"><ele>455.75</ele><time>2026-04-04T16:26:45Z</time></trkpt><trkpt lat="40.84095783619278" lon="8.737018119983578"><ele>460.5</ele><time>2026-04-04T16:26:46Z</time></trkpt><trkpt lat="40.840834160381625" lon="8.737072010990653"><ele>465.25</ele><time>2026-04-04T16:26:47Z</time></trkpt><trkpt lat="40.84071360915552" lon="8.737128810090232"><ele>470.0</ele><time>2026-04-04T16:26:48Z</time></trkpt><trkpt lat="40.84059332426916" lon="8.73718608566618"><ele>470.0</ele><time>2026-04-04T16:26:49.001Z</time></trkpt><trkpt lat="40.84047178089774" lon="8.737240733494943"><ele>470.0</ele><time>2026-04-04T16:26:50.001Z</time></trkpt><trkpt lat="40.840349623992125" lon="8.737296885213018"><ele>470.0</ele><time>2026-04-04T16:26:51.001Z</time></trkpt><trkpt lat="40.84023019984163" lon="8.737352168508563"><ele>470.0</ele><time>2026-04-04T16:26:52.001Z</time></trkpt><trkpt lat="40.840111189461375" lon="8.737410346986504"><ele>470.0</ele><time>2026-04-04T16:26:53.001Z</time></trkpt><trkpt lat="40.8399929837742" lon="8.737467768445145"><ele>470.0</ele><time>2026-04-04T16:26:54.001Z</time></trkpt><trkpt lat="40.83987649057518" lon="8.737533550295895"><ele>470.0</ele><time>2026-04-04T16:26:55.001Z</time></trkpt><trkpt lat="40.839762828886336" lon="8.737612026069899"><ele>470.0</ele><time>2026-04-04T16:26:56.001Z</time></trkpt><trkpt lat="40.839652976328914" lon="8.737703062637028"><ele>472.0</ele><time>2026-04-04T16:26:57.001Z</time></trkpt><trkpt lat="40.83955004107031" lon="8.737795901037837"><ele>474.0</ele><time>2026-04-04T16:26:58.001Z</time></trkpt><trkpt lat="40.83944615407397" lon="8.737892702981082"><ele>476.0</ele><time>2026-04-04T16:26:59.001Z</time></trkpt><trkpt lat="40.8393370735664" lon="8.737987146584164"><ele>478.0</ele><time>2026-04-04T16:27:00.001Z</time></trkpt><trkpt lat="40.83923463160616" lon="8.738078461286863"><ele>478.0</ele><time>2026-04-04T16:27:01.001Z</time></trkpt><trkpt lat="40.839125977818554" lon="8.738177548794287"><ele>478.0</ele><time>2026-04-04T16:27:02.001Z</time></trkpt><trkpt lat="40.8390178875072" lon="8.73827399718089"><ele>478.0</ele><time>2026-04-04T16:27:03.001Z</time></trkpt><trkpt lat="40.838910887832675" lon="8.73837235453297"><ele>478.0</ele><time>2026-04-04T16:27:04.001Z</time></trkpt><trkpt lat="40.83880485882675" lon="8.73847294103786"><ele>479.5</ele><time>2026-04-04T16:27:05.001Z</time></trkpt><trkpt lat="40.838699040230864" lon="8.738572279888494"><ele>481.0</ele><time>2026-04-04T16:27:06.001Z</time></trkpt><trkpt lat="40.8385912394548" lon="8.738668673556441"><ele>482.5</ele><time>2026-04-04T16:27:07.001Z</time></trkpt><trkpt lat="40.83848558767276" lon="8.738769236319662"><ele>484.0</ele><time>2026-04-04T16:27:08.001Z</time></trkpt><trkpt lat="40.83838634013228" lon="8.738880844901816"><ele>484.0</ele><time>2026-04-04T16:27:09.001Z</time></trkpt><trkpt lat="40.838299695411536" lon="8.739008670218327"><ele>484.0</ele><time>2026-04-04T16:27:10.001Z</time></trkpt><trkpt lat="40.83822317931074" lon="8.73914624870802"><ele>484.0</ele><time>2026-04-04T16:27:11.001Z</time></trkpt><trkpt lat="40.838147800266235" lon="8.739282188426989"><ele>484.0</ele><time>2026-04-04T16:27:12.001Z</time></trkpt><trkpt lat="40.8380745605194" lon="8.739422055568934"><ele>486.25</ele><time>2026-04-04T16:27:13.001Z</time></trkpt><trkpt lat="40.83800444653968" lon="8.739560230019544"><ele>488.5</ele><time>2026-04-04T16:27:14.001Z</time></trkpt><trkpt lat="40.837932070847835" lon="8.739695029973179"><ele>490.75</ele><time>2026-04-04T16:27:15.001Z</time></trkpt><trkpt lat="40.83785859451354" lon="8.73983098805806"><ele>493.0</ele><time>2026-04-04T16:27:16.001Z</time></trkpt><trkpt lat="40.837786204137885" lon="8.739972617257814"><ele>493.0</ele><time>2026-04-04T16:27:17.001Z</time></trkpt><trkpt lat="40.837713564832555" lon="8.740113921879825"><ele>493.0</ele><time>2026-04-04T16:27:18.001Z</time></trkpt><trkpt lat="40.83763904244537" lon="8.74025711237558"><ele>493.0</ele><time>2026-04-04T16:27:19.001Z</time></trkpt><trkpt lat="40.83756573937417" lon="8.74040453737287"><ele>493.0</ele><time>2026-04-04T16:27:20.001Z</time></trkpt><trkpt lat="40.837489815316566" lon="8.74054995238925"><ele>493.5</ele><time>2026-04-04T16:27:21.001Z</time></trkpt><trkpt lat="40.837413671560284" lon="8.7406976707447"><ele>494.0</ele><time>2026-04-04T16:27:22.001Z</time></trkpt><trkpt lat="40.83733607463967" lon="8.740843173124683"><ele>494.5</ele><time>2026-04-04T16:27:23.001Z</time></trkpt><trkpt lat="40.83725261226884" lon="8.740997547340758"><ele>495.0</ele><time>2026-04-04T16:27:24.001Z</time></trkpt><trkpt lat="40.83716977141508" lon="8.741152373812515"><ele>497.33333333333337</ele><time>2026-04-04T16:27:25.001Z</time></trkpt><trkpt lat="40.83708532087998" lon="8.741320512083277"><ele>499.6666666666667</ele><time>2026-04-04T16:27:26.001Z</time></trkpt><trkpt lat="40.83700121756045" lon="8.74148846391939"><ele>502.0</ele><time>2026-04-04T16:27:27.001Z</time></trkpt><trkpt lat="40.83691576979599" lon="8.741651798505703"><ele>502.0</ele><time>2026-04-04T16:27:28.001Z</time></trkpt><trkpt lat="40.83682454932776" lon="8.741813812945743"><ele>502.0</ele><time>2026-04-04T16:27:29.001Z</time></trkpt><trkpt lat="40.83671920056318" lon="8.741962946901419"><ele>502.0</ele><time>2026-04-04T16:27:30.001Z</time></trkpt><trkpt lat="40.83659621857392" lon="8.742098897546944"><ele>500.33333333333337</ele><time>2026-04-04T16:27:31.001Z</time></trkpt><trkpt lat="40.83646124687563" lon="8.742219029949233"><ele>498.66666666666663</ele><time>2026-04-04T16:27:32Z</time></trkpt><trkpt lat="40.836316897840724" lon="8.742327463991051"><ele>497.0</ele><time>2026-04-04T16:27:33Z</time></trkpt><trkpt lat="40.836168145864264" lon="8.742429285652818"><ele>497.0</ele><time>2026-04-04T16:27:34Z</time></trkpt><trkpt lat="40.83601728919258" lon="8.742528433516274"><ele>497.0</ele><time>2026-04-04T16:27:35Z</time></trkpt><trkpt lat="40.835867227520076" lon="8.74263231966064"><ele>497.0</ele><time>2026-04-04T16:27:36Z</time></trkpt><trkpt lat="40.835717687737535" lon="8.74273652532954"><ele>495.66666666666663</ele><time>2026-04-04T16:27:37Z</time></trkpt><trkpt lat="40.83556838668234" lon="8.74283865648277"><ele>494.33333333333337</ele><time>2026-04-04T16:27:38Z</time></trkpt><trkpt lat="40.835421067004965" lon="8.742943239080303"><ele>493.0</ele><time>2026-04-04T16:27:39Z</time></trkpt><trkpt lat="40.83527268733409" lon="8.74304439147294"><ele>493.6666666666667</ele><time>2026-04-04T16:27:40Z</time></trkpt><trkpt lat="40.83512403189367" lon="8.74314117976575"><ele>494.33333333333337</ele><time>2026-04-04T16:27:41Z</time></trkpt><trkpt lat="40.834975002953755" lon="8.743239893065697"><ele>495.0</ele><time>2026-04-04T16:27:42Z</time></trkpt><trkpt lat="40.83482813971928" lon="8.743341234944758"><ele>495.0</ele><time>2026-04-04T16:27:43Z</time></trkpt><trkpt lat="40.834679965334736" lon="8.74344039007545"><ele>495.0</ele><time>2026-04-04T16:27:44Z</time></trkpt><trkpt lat="40.83453277078505" lon="8.743541739258145"><ele>495.0</ele><time>2026-04-04T16:27:45Z</time></trkpt><trkpt lat="40.83438866861803" lon="8.743645547987235"><ele>494.0</ele><time>2026-04-04T16:27:46Z</time></trkpt><trkpt lat="40.83424444294938" lon="8.743750374408554"><ele>493.0</ele><time>2026-04-04T16:27:47Z</time></trkpt><trkpt lat="40.834099189924586" lon="8.743851811800182"><ele>492.0</ele><time>2026-04-04T16:27:48Z</time></trkpt><trkpt lat="40.833954710187754" lon="8.74395536044761"><ele>492.0</ele><time>2026-04-04T16:27:49Z</time></trkpt><trkpt lat="40.833808584318895" lon="8.744055768706113"><ele>492.0</ele><time>2026-04-04T16:27:50Z</time></trkpt><trkpt lat="40.83366092818231" lon="8.744148810731458"><ele>492.0</ele><time>2026-04-04T16:27:51Z</time></trkpt><trkpt lat="40.83351330184169" lon="8.744243099015288"><ele>491.33333333333337</ele><time>2026-04-04T16:27:52Z</time></trkpt><trkpt lat="40.8333673539074" lon="8.744338838950197"><ele>490.6666666666667</ele><time>2026-04-04T16:27:53Z</time></trkpt><trkpt lat="40.83321929063611" lon="8.744430562425771"><ele>490.0</ele><time>2026-04-04T16:27:54Z</time></trkpt><trkpt lat="40.83307109725584" lon="8.744516711636063"><ele>490.0</ele><time>2026-04-04T16:27:55Z</time></trkpt><trkpt lat="40.832923997994875" lon="8.74460759910404"><ele>490.0</ele><time>2026-04-04T16:27:56Z</time></trkpt><trkpt lat="40.832777055826725" lon="8.74469411743355"><ele>490.0</ele><time>2026-04-04T16:27:57Z</time></trkpt><trkpt lat="40.832630078234345" lon="8.74478032857663"><ele>491.0</ele><time>2026-04-04T16:27:58Z</time></trkpt><trkpt lat="40.83248438761811" lon="8.744868929281516"><ele>492.0</ele><time>2026-04-04T16:27:59Z</time></trkpt><trkpt lat="40.832336967228585" lon="8.744951291984993"><ele>493.0</ele><time>2026-04-04T16:28:00Z</time></trkpt><trkpt lat="40.832188863235395" lon="8.745031667470533"><ele>493.0</ele><time>2026-04-04T16:28:01Z</time></trkpt><trkpt lat="40.832041233943734" lon="8.745117137588185"><ele>493.0</ele><time>2026-04-04T16:28:02Z</time></trkpt><trkpt lat="40.83189335559732" lon="8.74520484107259"><ele>493.0</ele><time>2026-04-04T16:28:03Z</time></trkpt><trkpt lat="40.83174318409281" lon="8.745291595130203"><ele>492.6666666666667</ele><time>2026-04-04T16:28:04Z</time></trkpt><trkpt lat="40.83159287242261" lon="8.745381395285007"><ele>492.33333333333337</ele><time>2026-04-04T16:28:05Z</time></trkpt><trkpt lat="40.83144260379706" lon="8.745471038416587"><ele>492.0</ele><time>2026-04-04T16:28:06Z</time></trkpt><trkpt lat="40.8312911393235" lon="8.745557300722782"><ele>492.0</ele><time>2026-04-04T16:28:07Z</time></trkpt><trkpt lat="40.83114032292802" lon="8.745643766279342"><ele>492.0</ele><time>2026-04-04T16:28:08Z</time></trkpt><trkpt lat="40.83099188876643" lon="8.745732524297237"><ele>492.0</ele><time>2026-04-04T16:28:09Z</time></trkpt><trkpt lat="40.830843507710604" lon="8.745819437312543"><ele>493.0</ele><time>2026-04-04T16:28:10Z</time></trkpt><trkpt lat="40.83069381744973" lon="8.745900717403034"><ele>494.0</ele><time>2026-04-04T16:28:11Z</time></trkpt><trkpt lat="40.83054479793454" lon="8.745986254661252"><ele>495.0</ele><time>2026-04-04T16:28:12Z</time></trkpt><trkpt lat="40.830395032393135" lon="8.746075665928844"><ele>495.0</ele><time>2026-04-04T16:28:13Z</time></trkpt><trkpt lat="40.83024538655183" lon="8.746165186625712"><ele>495.0</ele><time>2026-04-04T16:28:14Z</time></trkpt><trkpt lat="40.83009415736764" lon="8.746254150960107"><ele>495.0</ele><time>2026-04-04T16:28:15Z</time></trkpt><trkpt lat="40.829939943426595" lon="8.746342207688741"><ele>496.33333333333337</ele><time>2026-04-04T16:28:16Z</time></trkpt><trkpt lat="40.82978528981267" lon="8.746431731780786"><ele>497.6666666666667</ele><time>2026-04-04T16:28:17Z</time></trkpt><trkpt lat="40.82962852372662" lon="8.746514926044647"><ele>499.0</ele><time>2026-04-04T16:28:18Z</time></trkpt><trkpt lat="40.82946775099248" lon="8.746584146448196"><ele>498.0</ele><time>2026-04-04T16:28:19Z</time></trkpt><trkpt lat="40.82930186175189" lon="8.746630721070304"><ele>497.0</ele><time>2026-04-04T16:28:20Z</time></trkpt><trkpt lat="40.82913463903398" lon="8.746662901445726"><ele>496.0</ele><time>2026-04-04T16:28:21Z</time></trkpt><trkpt lat="40.828967092890274" lon="8.74668244084419"><ele>496.0</ele><time>2026-04-04T16:28:22Z</time></trkpt><trkpt lat="40.82880062560828" lon="8.746687984002932"><ele>496.0</ele><time>2026-04-04T16:28:23Z</time></trkpt><trkpt lat="40.828636646551914" lon="8.746685486276592"><ele>496.0</ele><time>2026-04-04T16:28:24Z</time></trkpt><trkpt lat="40.828475886340684" lon="8.746675351905205"><ele>497.6666666666667</ele><time>2026-04-04T16:28:25Z</time></trkpt><trkpt lat="40.828314375253704" lon="8.746667523909757"><ele>499.33333333333337</ele><time>2026-04-04T16:28:26Z</time></trkpt><trkpt lat="40.828150597972176" lon="8.746661181596195"><ele>501.0</ele><time>2026-04-04T16:28:27Z</time></trkpt><trkpt lat="40.82798495614159" lon="8.746650880586369"><ele>501.0</ele><time>2026-04-04T16:28:28Z</time></trkpt><trkpt lat="40.827817657609344" lon="8.746640253107618"><ele>501.0</ele><time>2026-04-04T16:28:29Z</time></trkpt><trkpt lat="40.827653210667954" lon="8.746628584572882"><ele>501.0</ele><time>2026-04-04T16:28:30Z</time></trkpt><trkpt lat="40.82748861991881" lon="8.746610349601255"><ele>502.66666666666663</ele><time>2026-04-04T16:28:31Z</time></trkpt><trkpt lat="40.82732340193905" lon="8.746579832553348"><ele>504.3333333333333</ele><time>2026-04-04T16:28:32Z</time></trkpt><trkpt lat="40.82716190284614" lon="8.74654231998887"><ele>506.0</ele><time>2026-04-04T16:28:33Z</time></trkpt><trkpt lat="40.82700472408248" lon="8.746490046108395"><ele>506.0</ele><time>2026-04-04T16:28:34Z</time></trkpt><trkpt lat="40.82684510596638" lon="8.746433801809049"><ele>506.0</ele><time>2026-04-04T16:28:35Z</time></trkpt><trkpt lat="40.82668331001658" lon="8.746381136155598"><ele>506.0</ele><time>2026-04-04T16:28:36Z</time></trkpt><trkpt lat="40.82652165530063" lon="8.74632369211911"><ele>507.3333333333333</ele><time>2026-04-04T16:28:37Z</time></trkpt><trkpt lat="40.82635964246649" lon="8.746269606560155"><ele>508.66666666666663</ele><time>2026-04-04T16:28:38Z</time></trkpt><trkpt lat="40.82619633863783" lon="8.746216014281101"><ele>510.0</ele><time>2026-04-04T16:28:39Z</time></trkpt><trkpt lat="40.8260352163534" lon="8.74615869736763"><ele>511.66666666666663</ele><time>2026-04-04T16:28:40Z</time></trkpt><trkpt lat="40.825874618816876" lon="8.746102811039226"><ele>513.3333333333333</ele><time>2026-04-04T16:28:41Z</time></trkpt><trkpt lat="40.825713819075375" lon="8.746049602133356"><ele>515.0</ele><time>2026-04-04T16:28:42Z</time></trkpt><trkpt lat="40.825551949450784" lon="8.745992957997455"><ele>516.0</ele><time>2026-04-04T16:28:43Z</time></trkpt><trkpt lat="40.82538879732734" lon="8.745935725828682"><ele>517.0</ele><time>2026-04-04T16:28:44Z</time></trkpt><trkpt lat="40.8252211755004" lon="8.74588263246693"><ele>518.0</ele><time>2026-04-04T16:28:45Z</time></trkpt><trkpt lat="40.82505020851089" lon="8.745832466531724"><ele>519.6666666666666</ele><time>2026-04-04T16:28:46Z</time></trkpt><trkpt lat="40.824875912957516" lon="8.745784186471214"><ele>521.3333333333334</ele><time>2026-04-04T16:28:47Z</time></trkpt><trkpt lat="40.824697204422726" lon="8.745741059839016"><ele>523.0</ele><time>2026-04-04T16:28:48Z</time></trkpt><trkpt lat="40.82452208098806" lon="8.745704070635798"><ele>523.0</ele><time>2026-04-04T16:28:49Z</time></trkpt><trkpt lat="40.824347605796646" lon="8.745669466022706"><ele>523.0</ele><time>2026-04-04T16:28:50Z</time></trkpt><trkpt lat="40.82416957344096" lon="8.745634236508655"><ele>523.0</ele><time>2026-04-04T16:28:51Z</time></trkpt><trkpt lat="40.82399401555264" lon="8.745576804436128"><ele>523.0</ele><time>2026-04-04T16:28:52.001Z</time></trkpt><trkpt lat="40.823814471365736" lon="8.745559095494952"><ele>523.0</ele><time>2026-04-04T16:28:53.001Z</time></trkpt><trkpt lat="40.82363895722714" lon="8.745521296279875"><ele>523.0</ele><time>2026-04-04T16:28:54.001Z</time></trkpt><trkpt lat="40.82346722816211" lon="8.745483690636373"><ele>524.0</ele><time>2026-04-04T16:28:55.001Z</time></trkpt><trkpt lat="40.82329834343894" lon="8.745441130637083"><ele>525.0</ele><time>2026-04-04T16:28:56.001Z</time></trkpt><trkpt lat="40.823128322332096" lon="8.745400135249223"><ele>526.0</ele><time>2026-04-04T16:28:57.001Z</time></trkpt><trkpt lat="40.82295878175814" lon="8.745365450453821"><ele>526.0</ele><time>2026-04-04T16:28:58.001Z</time></trkpt><trkpt lat="40.82279237424652" lon="8.7453289672271"><ele>526.0</ele><time>2026-04-04T16:28:59.001Z</time></trkpt><trkpt lat="40.82262516988065" lon="8.745291932113965"><ele>526.0</ele><time>2026-04-04T16:29:00.001Z</time></trkpt><trkpt lat="40.82245573085995" lon="8.745253878295538"><ele>527.3333333333334</ele><time>2026-04-04T16:29:01.001Z</time></trkpt><trkpt lat="40.822283554303624" lon="8.745216720528582"><ele>528.6666666666666</ele><time>2026-04-04T16:29:02.001Z</time></trkpt><trkpt lat="40.822110352553004" lon="8.74517807191989"><ele>530.0</ele><time>2026-04-04T16:29:03.001Z</time></trkpt><trkpt lat="40.82193363148001" lon="8.745135657913162"><ele>531.6666666666666</ele><time>2026-04-04T16:29:04.001Z</time></trkpt><trkpt lat="40.821756684126605" lon="8.745080623197119"><ele>533.3333333333334</ele><time>2026-04-04T16:29:05.001Z</time></trkpt><trkpt lat="40.82157965225855" lon="8.74500437673368"><ele>535.0</ele><time>2026-04-04T16:29:06.001Z</time></trkpt><trkpt lat="40.821415346255534" lon="8.744881991207798"><ele>535.0</ele><time>2026-04-04T16:29:07.001Z</time></trkpt><trkpt lat="40.82125876762807" lon="8.744757619295866"><ele>535.0</ele><time>2026-04-04T16:29:08.001Z</time></trkpt><trkpt lat="40.821106203575056" lon="8.74463208015904"><ele>535.0</ele><time>2026-04-04T16:29:09.001Z</time></trkpt><trkpt lat="40.8209455035408" lon="8.744523946375534"><ele>536.3333333333334</ele><time>2026-04-04T16:29:10.001Z</time></trkpt><trkpt lat="40.82079440337574" lon="8.74439611571409"><ele>537.6666666666666</ele><time>2026-04-04T16:29:11.001Z</time></trkpt><trkpt lat="40.82064370855018" lon="8.744272352466472"><ele>539.0</ele><time>2026-04-04T16:29:12.001Z</time></trkpt><trkpt lat="40.8204926560293" lon="8.744151750404166"><ele>539.0</ele><time>2026-04-04T16:29:13.001Z</time></trkpt><trkpt lat="40.8203470296045" lon="8.744027688101388"><ele>539.0</ele><time>2026-04-04T16:29:14.001Z</time></trkpt><trkpt lat="40.82020052670247" lon="8.743910705574766"><ele>539.0</ele><time>2026-04-04T16:29:15.001Z</time></trkpt><trkpt lat="40.82006386032832" lon="8.743772884250067"><ele>541.0</ele><time>2026-04-04T16:29:16.001Z</time></trkpt><trkpt lat="40.81991193103155" lon="8.743672744005059"><ele>543.0</ele><time>2026-04-04T16:29:17.001Z</time></trkpt><trkpt lat="40.81977706971939" lon="8.743554010600054"><ele>545.0</ele><time>2026-04-04T16:29:18.001Z</time></trkpt><trkpt lat="40.81964913533179" lon="8.743429890603064"><ele>545.0</ele><time>2026-04-04T16:29:19.001Z</time></trkpt><trkpt lat="40.819513043297654" lon="8.743316261473726"><ele>545.0</ele><time>2026-04-04T16:29:20.001Z</time></trkpt><trkpt lat="40.8193648736928" lon="8.743216346833965"><ele>545.0</ele><time>2026-04-04T16:29:21.001Z</time></trkpt><trkpt lat="40.819230337195755" lon="8.743078386867797"><ele>548.0</ele><time>2026-04-04T16:29:22.001Z</time></trkpt><trkpt lat="40.819082833514706" lon="8.74295427352116"><ele>551.0</ele><time>2026-04-04T16:29:23.001Z</time></trkpt><trkpt lat="40.818934470698714" lon="8.742830165319482"><ele>554.0</ele><time>2026-04-04T16:29:24.001Z</time></trkpt><trkpt lat="40.81877928180902" lon="8.742717545709992"><ele>552.0</ele><time>2026-04-04T16:29:25.001Z</time></trkpt><trkpt lat="40.81860843732821" lon="8.742644772532104"><ele>550.0</ele><time>2026-04-04T16:29:26.001Z</time></trkpt><trkpt lat="40.81843571526925" lon="8.742592744965908"><ele>548.0</ele><time>2026-04-04T16:29:27.001Z</time></trkpt><trkpt lat="40.81826055332445" lon="8.74255024565738"><ele>548.0</ele><time>2026-04-04T16:29:28.001Z</time></trkpt><trkpt lat="40.81808809852432" lon="8.742508438663863"><ele>548.0</ele><time>2026-04-04T16:29:29.001Z</time></trkpt><trkpt lat="40.81791397077737" lon="8.742487511647063"><ele>548.0</ele><time>2026-04-04T16:29:30.001Z</time></trkpt><trkpt lat="40.81774088238023" lon="8.742444400557385"><ele>550.6666666666666</ele><time>2026-04-04T16:29:31.001Z</time></trkpt><trkpt lat="40.817566349383625" lon="8.742403259299861"><ele>553.3333333333334</ele><time>2026-04-04T16:29:32.001Z</time></trkpt><trkpt lat="40.81739022793076" lon="8.742368787820224"><ele>556.0</ele><time>2026-04-04T16:29:33.001Z</time></trkpt><trkpt lat="40.81721382767993" lon="8.742321291617024"><ele>556.0</ele><time>2026-04-04T16:29:34.001Z</time></trkpt><trkpt lat="40.81703049353835" lon="8.742332535732448"><ele>556.0</ele><time>2026-04-04T16:29:35.001Z</time></trkpt><trkpt lat="40.816845130468515" lon="8.742331397213576"><ele>556.0</ele><time>2026-04-04T16:29:36.001Z</time></trkpt><trkpt lat="40.8166580999103" lon="8.742308868315932"><ele>555.6666666666667</ele><time>2026-04-04T16:29:37.001Z</time></trkpt><trkpt lat="40.81647443461668" lon="8.742306619973354"><ele>555.3333333333334</ele><time>2026-04-04T16:29:38Z</time></trkpt><trkpt lat="40.816291953055796" lon="8.742304386120379"><ele>555.0</ele><time>2026-04-04T16:29:39Z</time></trkpt><trkpt lat="40.81611036041846" lon="8.742302163149926"><ele>553.6666666666666</ele><time>2026-04-04T16:29:40Z</time></trkpt><trkpt lat="40.81593237423736" lon="8.74229998432874"><ele>552.3333333333333</ele><time>2026-04-04T16:29:41Z</time></trkpt><trkpt lat="40.81575974463522" lon="8.74229794679323"><ele>551.0</ele><time>2026-04-04T16:29:42Z</time></trkpt><trkpt lat="40.815591387210326" lon="8.74229608014327"><ele>551.0</ele><time>2026-04-04T16:29:43Z</time></trkpt><trkpt lat="40.81542322567239" lon="8.742295041547422"><ele>551.0</ele><time>2026-04-04T16:29:44Z</time></trkpt><trkpt lat="40.815252789081505" lon="8.742293195740688"><ele>551.0</ele><time>2026-04-04T16:29:45Z</time></trkpt><trkpt lat="40.81507900783424" lon="8.742290876105379"><ele>552.0</ele><time>2026-04-04T16:29:46Z</time></trkpt><trkpt lat="40.814903859033706" lon="8.742288538215655"><ele>553.0</ele><time>2026-04-04T16:29:47Z</time></trkpt><trkpt lat="40.814726232399025" lon="8.742286168802927"><ele>554.0</ele><time>2026-04-04T16:29:48Z</time></trkpt><trkpt lat="40.81454559678256" lon="8.74228375767407"><ele>554.0</ele><time>2026-04-04T16:29:49Z</time></trkpt><trkpt lat="40.814362181300915" lon="8.742281183401227"><ele>554.0</ele><time>2026-04-04T16:29:50Z</time></trkpt><trkpt lat="40.81417758355673" lon="8.74227847420956"><ele>554.0</ele><time>2026-04-04T16:29:51Z</time></trkpt><trkpt lat="40.813992707452094" lon="8.742275760931065"><ele>554.3333333333333</ele><time>2026-04-04T16:29:52Z</time></trkpt><trkpt lat="40.8138066311219" lon="8.742291290802672"><ele>554.6666666666666</ele><time>2026-04-04T16:29:53Z</time></trkpt><trkpt lat="40.81362017857988" lon="8.742287444787179"><ele>555.0</ele><time>2026-04-04T16:29:54Z</time></trkpt><trkpt lat="40.81343526372127" lon="8.74228616573593"><ele>555.6666666666666</ele><time>2026-04-04T16:29:55Z</time></trkpt><trkpt lat="40.813249046161374" lon="8.742284443107131"><ele>556.3333333333333</ele><time>2026-04-04T16:29:56Z</time></trkpt><trkpt lat="40.81306358823659" lon="8.74226205361281"><ele>557.0</ele><time>2026-04-04T16:29:57Z</time></trkpt><trkpt lat="40.812879236457135" lon="8.742259473464388"><ele>557.0</ele><time>2026-04-04T16:29:58Z</time></trkpt><trkpt lat="40.81269496003612" lon="8.742256894370799"><ele>557.0</ele><time>2026-04-04T16:29:59Z</time></trkpt><trkpt lat="40.81251046442935" lon="8.742254057655995"><ele>557.0</ele><time>2026-04-04T16:30:00Z</time></trkpt><trkpt lat="40.812325365058676" lon="8.742241257442645"><ele>558.3333333333333</ele><time>2026-04-04T16:30:01Z</time></trkpt><trkpt lat="40.81214336091886" lon="8.742200865824568"><ele>559.6666666666666</ele><time>2026-04-04T16:30:02Z</time></trkpt><trkpt lat="40.81196636448917" lon="8.742133934926763"><ele>561.0</ele><time>2026-04-04T16:30:03Z</time></trkpt><trkpt lat="40.81179230883416" lon="8.742051152469335"><ele>561.0</ele><time>2026-04-04T16:30:04Z</time></trkpt><trkpt lat="40.81162065898473" lon="8.741951284333584"><ele>561.0</ele><time>2026-04-04T16:30:05Z</time></trkpt><trkpt lat="40.81145194869865" lon="8.741846647261703"><ele>561.0</ele><time>2026-04-04T16:30:06Z</time></trkpt><trkpt lat="40.81128101153065" lon="8.741745533122035"><ele>561.6666666666666</ele><time>2026-04-04T16:30:07Z</time></trkpt><trkpt lat="40.81110414589403" lon="8.741660709483373"><ele>562.3333333333333</ele><time>2026-04-04T16:30:08Z</time></trkpt><trkpt lat="40.81092226844766" lon="8.741599104336245"><ele>563.0</ele><time>2026-04-04T16:30:09Z</time></trkpt><trkpt lat="40.8107389559643" lon="8.741547956365025"><ele>563.0</ele><time>2026-04-04T16:30:10Z</time></trkpt><trkpt lat="40.81055506077772" lon="8.741511434348531"><ele>563.0</ele><time>2026-04-04T16:30:11Z</time></trkpt><trkpt lat="40.810369862095754" lon="8.741492038096895"><ele>563.0</ele><time>2026-04-04T16:30:12Z</time></trkpt><trkpt lat="40.81018711756707" lon="8.74149199807827"><ele>563.6666666666666</ele><time>2026-04-04T16:30:13Z</time></trkpt><trkpt lat="40.81000529251273" lon="8.741507956877282"><ele>564.3333333333334</ele><time>2026-04-04T16:30:14Z</time></trkpt><trkpt lat="40.80982693128427" lon="8.741529949926031"><ele>565.0</ele><time>2026-04-04T16:30:15Z</time></trkpt><trkpt lat="40.80964952443037" lon="8.741559275661862"><ele>565.0</ele><time>2026-04-04T16:30:16Z</time></trkpt><trkpt lat="40.80947425554098" lon="8.741589557244279"><ele>565.0</ele><time>2026-04-04T16:30:17Z</time></trkpt><trkpt lat="40.809298738671245" lon="8.741618803004"><ele>565.0</ele><time>2026-04-04T16:30:18Z</time></trkpt><trkpt lat="40.809123458207324" lon="8.741648009372275"><ele>566.3333333333334</ele><time>2026-04-04T16:30:19Z</time></trkpt><trkpt lat="40.80894718461302" lon="8.74167738122245"><ele>567.6666666666666</ele><time>2026-04-04T16:30:20Z</time></trkpt><trkpt lat="40.80877053242115" lon="8.741706816157187"><ele>569.0</ele><time>2026-04-04T16:30:21Z</time></trkpt><trkpt lat="40.80859419776611" lon="8.741736389128269"><ele>570.0</ele><time>2026-04-04T16:30:22Z</time></trkpt><trkpt lat="40.808424126818466" lon="8.74178729484385"><ele>571.0</ele><time>2026-04-04T16:30:23Z</time></trkpt><trkpt lat="40.80825106491156" lon="8.741813441996971"><ele>572.0</ele><time>2026-04-04T16:30:24Z</time></trkpt><trkpt lat="40.80807717888926" lon="8.741844390954375"><ele>572.0</ele><time>2026-04-04T16:30:25Z</time></trkpt><trkpt lat="40.80790468968546" lon="8.741872026506897"><ele>572.0</ele><time>2026-04-04T16:30:26Z</time></trkpt><trkpt lat="40.80773330257075" lon="8.741899452884208"><ele>572.0</ele><time>2026-04-04T16:30:27Z</time></trkpt><trkpt lat="40.80756197459203" lon="8.741930501226852"><ele>572.0</ele><time>2026-04-04T16:30:28Z</time></trkpt><trkpt lat="40.80739040935721" lon="8.741961236979575"><ele>572.0</ele><time>2026-04-04T16:30:29Z</time></trkpt><trkpt lat="40.807218049844096" lon="8.74198928869189"><ele>572.0</ele><time>2026-04-04T16:30:30Z</time></trkpt><trkpt lat="40.807044233584115" lon="8.742020266782704"><ele>572.0</ele><time>2026-04-04T16:30:31Z</time></trkpt><trkpt lat="40.80687010790297" lon="8.742049282255255"><ele>572.0</ele><time>2026-04-04T16:30:32Z</time></trkpt><trkpt lat="40.80669406176458" lon="8.742076887915054"><ele>572.0</ele><time>2026-04-04T16:30:33Z</time></trkpt><trkpt lat="40.80651547377324" lon="8.742104140679379"><ele>574.0</ele><time>2026-04-04T16:30:34Z</time></trkpt><trkpt lat="40.806333808484546" lon="8.742099721684381"><ele>576.0</ele><time>2026-04-04T16:30:35Z</time></trkpt><trkpt lat="40.806152276560184" lon="8.74212667089968"><ele>578.0</ele><time>2026-04-04T16:30:36Z</time></trkpt><trkpt lat="40.8059718709205" lon="8.74213155060628"><ele>579.0</ele><time>2026-04-04T16:30:37Z</time></trkpt><trkpt lat="40.80579326104203" lon="8.742134894827483"><ele>580.0</ele><time>2026-04-04T16:30:38Z</time></trkpt><trkpt lat="40.80561611183903" lon="8.742140274537347"><ele>581.0</ele><time>2026-04-04T16:30:39Z</time></trkpt><trkpt lat="40.805440654262746" lon="8.742149878244275"><ele>581.0</ele><time>2026-04-04T16:30:40Z</time></trkpt><trkpt lat="40.80526595621517" lon="8.74213867997527"><ele>581.0</ele><time>2026-04-04T16:30:41Z</time></trkpt><trkpt lat="40.80509104120225" lon="8.742143522329307"><ele>581.0</ele><time>2026-04-04T16:30:42Z</time></trkpt><trkpt lat="40.80491349794725" lon="8.74217452129939"><ele>582.0</ele><time>2026-04-04T16:30:43Z</time></trkpt><trkpt lat="40.80473611733914" lon="8.742181799826373"><ele>583.0</ele><time>2026-04-04T16:30:44Z</time></trkpt><trkpt lat="40.80455617023316" lon="8.742190269431497"><ele>584.0</ele><time>2026-04-04T16:30:45Z</time></trkpt><trkpt lat="40.80437787017152" lon="8.74219142162461"><ele>585.0</ele><time>2026-04-04T16:30:46Z</time></trkpt><trkpt lat="40.80420150382415" lon="8.742195564552183"><ele>586.0</ele><time>2026-04-04T16:30:47Z</time></trkpt><trkpt lat="40.80402451304864" lon="8.742198205471242"><ele>587.0</ele><time>2026-04-04T16:30:48Z</time></trkpt><trkpt lat="40.8038470858294" lon="8.742202425519713"><ele>587.0</ele><time>2026-04-04T16:30:49Z</time></trkpt><trkpt lat="40.803668377959816" lon="8.742206205676105"><ele>587.0</ele><time>2026-04-04T16:30:50Z</time></trkpt><trkpt lat="40.80348866641761" lon="8.742211878036045"><ele>587.0</ele><time>2026-04-04T16:30:51Z</time></trkpt><trkpt lat="40.80330738714825" lon="8.742221256312598"><ele>589.0</ele><time>2026-04-04T16:30:52Z</time></trkpt><trkpt lat="40.80312411891125" lon="8.74223111531826"><ele>591.0</ele><time>2026-04-04T16:30:53Z</time></trkpt><trkpt lat="40.80294379561395" lon="8.742240179013695"><ele>593.0</ele><time>2026-04-04T16:30:54Z</time></trkpt><trkpt lat="40.802760197356676" lon="8.742247612347795"><ele>594.0</ele><time>2026-04-04T16:30:55Z</time></trkpt><trkpt lat="40.80257851275732" lon="8.7422503618094"><ele>595.0</ele><time>2026-04-04T16:30:56Z</time></trkpt><trkpt lat="40.80239941977512" lon="8.742254436727409"><ele>596.0</ele><time>2026-04-04T16:30:57Z</time></trkpt><trkpt lat="40.802223977015124" lon="8.742262671724928"><ele>596.0</ele><time>2026-04-04T16:30:58.001Z</time></trkpt><trkpt lat="40.80204683032702" lon="8.742268213103953"><ele>596.0</ele><time>2026-04-04T16:30:59.001Z</time></trkpt><trkpt lat="40.801868459749244" lon="8.742271509653488"><ele>596.0</ele><time>2026-04-04T16:31:00.001Z</time></trkpt><trkpt lat="40.801690343791186" lon="8.74227606791578"><ele>596.0</ele><time>2026-04-04T16:31:01.001Z</time></trkpt><trkpt lat="40.80151475813029" lon="8.742286984178737"><ele>596.0</ele><time>2026-04-04T16:31:02.001Z</time></trkpt><trkpt lat="40.801343518844384" lon="8.742307873698019"><ele>596.0</ele><time>2026-04-04T16:31:03.001Z</time></trkpt><trkpt lat="40.80117270904933" lon="8.742335360300494"><ele>593.6666666666666</ele><time>2026-04-04T16:31:04.001Z</time></trkpt><trkpt lat="40.80099907512784" lon="8.742381505060314"><ele>591.3333333333334</ele><time>2026-04-04T16:31:05.001Z</time></trkpt><trkpt lat="40.80082656672175" lon="8.742441597626048"><ele>589.0</ele><time>2026-04-04T16:31:06.001Z</time></trkpt><trkpt lat="40.800655779997875" lon="8.742514414434938"><ele>589.0</ele><time>2026-04-04T16:31:07.001Z</time></trkpt><trkpt lat="40.8004777033495" lon="8.742582555029436"><ele>589.0</ele><time>2026-04-04T16:31:08.001Z</time></trkpt><trkpt lat="40.80031651521362" lon="8.742696107997464"><ele>589.0</ele><time>2026-04-04T16:31:09.001Z</time></trkpt><trkpt lat="40.80015405519897" lon="8.742800603547714"><ele>587.0</ele><time>2026-04-04T16:31:10.001Z</time></trkpt><trkpt lat="40.79999248193482" lon="8.742914366004655"><ele>585.0</ele><time>2026-04-04T16:31:11.001Z</time></trkpt><trkpt lat="40.79983255341634" lon="8.743027173171454"><ele>583.0</ele><time>2026-04-04T16:31:12.001Z</time></trkpt><trkpt lat="40.79967249513314" lon="8.74314711869381"><ele>583.0</ele><time>2026-04-04T16:31:13.001Z</time></trkpt><trkpt lat="40.79951550344573" lon="8.743271233698243"><ele>583.0</ele><time>2026-04-04T16:31:14.001Z</time></trkpt><trkpt lat="40.79935912081796" lon="8.74340661530349"><ele>583.0</ele><time>2026-04-04T16:31:15.001Z</time></trkpt><trkpt lat="40.79920362857009" lon="8.743539982145661"><ele>580.3333333333334</ele><time>2026-04-04T16:31:16.001Z</time></trkpt><trkpt lat="40.79905136666778" lon="8.74366545124543"><ele>577.6666666666666</ele><time>2026-04-04T16:31:17.001Z</time></trkpt><trkpt lat="40.798900650248385" lon="8.743788525552713"><ele>575.0</ele><time>2026-04-04T16:31:18.001Z</time></trkpt><trkpt lat="40.798758415834854" lon="8.743903792729343"><ele>575.0</ele><time>2026-04-04T16:31:19.001Z</time></trkpt><trkpt lat="40.79861627184275" lon="8.744019750808546"><ele>575.0</ele><time>2026-04-04T16:31:20.001Z</time></trkpt><trkpt lat="40.79846512087472" lon="8.744113521302028"><ele>575.0</ele><time>2026-04-04T16:31:21.001Z</time></trkpt><trkpt lat="40.7983238472483" lon="8.744197604885356"><ele>574.0</ele><time>2026-04-04T16:31:22.001Z</time></trkpt><trkpt lat="40.798178521488744" lon="8.74423476199923"><ele>573.0</ele><time>2026-04-04T16:31:23.001Z</time></trkpt><trkpt lat="40.79803517740656" lon="8.744210592088754"><ele>572.0</ele><time>2026-04-04T16:31:24.001Z</time></trkpt><trkpt lat="40.797904838736805" lon="8.744144079199996"><ele>571.0</ele><time>2026-04-04T16:31:25.001Z</time></trkpt><trkpt lat="40.797775440729986" lon="8.744033095552684"><ele>571.0</ele><time>2026-04-04T16:31:26.001Z</time></trkpt><trkpt lat="40.79767701495339" lon="8.743888263095288"><ele>571.0</ele><time>2026-04-04T16:31:27.001Z</time></trkpt><trkpt lat="40.797618801006784" lon="8.743710163487673"><ele>571.0</ele><time>2026-04-04T16:31:28.001Z</time></trkpt><trkpt lat="40.79757841539923" lon="8.743507464139848"><ele>567.6666666666667</ele><time>2026-04-04T16:31:29.001Z</time></trkpt><trkpt lat="40.79758844922772" lon="8.743298895467053"><ele>564.3333333333334</ele><time>2026-04-04T16:31:30.001Z</time></trkpt><trkpt lat="40.79762499917219" lon="8.743081462715018"><ele>561.0</ele><time>2026-04-04T16:31:31.001Z</time></trkpt><trkpt lat="40.797648655215724" lon="8.742855295411518"><ele>564.0</ele><time>2026-04-04T16:31:32.001Z</time></trkpt><trkpt lat="40.79769751801588" lon="8.742630480378997"><ele>567.0</ele><time>2026-04-04T16:31:33.001Z</time></trkpt><trkpt lat="40.797744637959035" lon="8.74240393825261"><ele>570.0</ele><time>2026-04-04T16:31:34.001Z</time></trkpt><trkpt lat="40.797784755842414" lon="8.74217641331708"><ele>570.0</ele><time>2026-04-04T16:31:35.001Z</time></trkpt><trkpt lat="40.79781695233184" lon="8.741947876602445"><ele>570.0</ele><time>2026-04-04T16:31:36.001Z</time></trkpt><trkpt lat="40.79783032526916" lon="8.741713388813965"><ele>570.0</ele><time>2026-04-04T16:31:37.001Z</time></trkpt><trkpt lat="40.79782656893319" lon="8.741471929227764"><ele>569.0</ele><time>2026-04-04T16:31:38.001Z</time></trkpt><trkpt lat="40.79780761791155" lon="8.741222546503636"><ele>568.0</ele><time>2026-04-04T16:31:39.001Z</time></trkpt><trkpt lat="40.79778389066996" lon="8.740971852849823"><ele>567.0</ele><time>2026-04-04T16:31:40.001Z</time></trkpt><trkpt lat="40.797754759332065" lon="8.740724682269564"><ele>564.3333333333334</ele><time>2026-04-04T16:31:41.001Z</time></trkpt><trkpt lat="40.79771907020782" lon="8.740478497273635"><ele>561.6666666666667</ele><time>2026-04-04T16:31:42.001Z</time></trkpt><trkpt lat="40.79768633006029" lon="8.740235103300272"><ele>559.0</ele><time>2026-04-04T16:31:43.001Z</time></trkpt><trkpt lat="40.797658930431545" lon="8.739991861451665"><ele>553.3333333333334</ele><time>2026-04-04T16:31:44Z</time></trkpt><trkpt lat="40.797631729048916" lon="8.739755127828527"><ele>547.6666666666666</ele><time>2026-04-04T16:31:45Z</time></trkpt><trkpt lat="40.79760491134704" lon="8.739532590018197"><ele>542.0</ele><time>2026-04-04T16:31:46Z</time></trkpt><trkpt lat="40.79757328317233" lon="8.73932093467632"><ele>540.0</ele><time>2026-04-04T16:31:47Z</time></trkpt><trkpt lat="40.79752586242944" lon="8.739126893603714"><ele>538.0</ele><time>2026-04-04T16:31:48Z</time></trkpt><trkpt lat="40.79743704204059" lon="8.738950694168874"><ele>536.0</ele><time>2026-04-04T16:31:49Z</time></trkpt><trkpt lat="40.7973033704921" lon="8.738814120817036"><ele>536.0</ele><time>2026-04-04T16:31:50Z</time></trkpt><trkpt lat="40.7971363827223" lon="8.738723274970305"><ele>536.0</ele><time>2026-04-04T16:31:51Z</time></trkpt><trkpt lat="40.79694419325262" lon="8.738673657160982"><ele>536.0</ele><time>2026-04-04T16:31:52Z</time></trkpt><trkpt lat="40.79675602860411" lon="8.738614552669478"><ele>533.6666666666666</ele><time>2026-04-04T16:31:53Z</time></trkpt><trkpt lat="40.7965687816399" lon="8.738558217340202"><ele>531.3333333333334</ele><time>2026-04-04T16:31:54Z</time></trkpt><trkpt lat="40.79638288824696" lon="8.73851952339205"><ele>529.0</ele><time>2026-04-04T16:31:55Z</time></trkpt><trkpt lat="40.796202437455044" lon="8.738457456028375"><ele>529.0</ele><time>2026-04-04T16:31:56Z</time></trkpt><trkpt lat="40.79602317907983" lon="8.738394464115206"><ele>529.0</ele><time>2026-04-04T16:31:57Z</time></trkpt><trkpt lat="40.79584427306345" lon="8.73833867689899"><ele>529.0</ele><time>2026-04-04T16:31:58Z</time></trkpt><trkpt lat="40.79566720898745" lon="8.738291115773956"><ele>528.6666666666667</ele><time>2026-04-04T16:31:59Z</time></trkpt><trkpt lat="40.79550008202081" lon="8.738242904413177"><ele>528.3333333333334</ele><time>2026-04-04T16:32:00Z</time></trkpt><trkpt lat="40.79533637806352" lon="8.738192716293852"><ele>528.0</ele><time>2026-04-04T16:32:01Z</time></trkpt><trkpt lat="40.795169936249806" lon="8.738147243699396"><ele>527.0</ele><time>2026-04-04T16:32:02Z</time></trkpt><trkpt lat="40.795005300807325" lon="8.738080285025932"><ele>526.0</ele><time>2026-04-04T16:32:03Z</time></trkpt><trkpt lat="40.79483333530543" lon="8.73804803102355"><ele>525.0</ele><time>2026-04-04T16:32:04Z</time></trkpt><trkpt lat="40.79466824146653" lon="8.737988476256735"><ele>525.0</ele><time>2026-04-04T16:32:05Z</time></trkpt><trkpt lat="40.79450664685782" lon="8.737941625764156"><ele>525.0</ele><time>2026-04-04T16:32:06Z</time></trkpt><trkpt lat="40.794348847767075" lon="8.737919041799225"><ele>525.0</ele><time>2026-04-04T16:32:07Z</time></trkpt><trkpt lat="40.794192896138085" lon="8.737918531735831"><ele>523.0</ele><time>2026-04-04T16:32:08Z</time></trkpt><trkpt lat="40.794037447627225" lon="8.737948605372589"><ele>521.0</ele><time>2026-04-04T16:32:09Z</time></trkpt><trkpt lat="40.79388582561968" lon="8.738012845331093"><ele>519.0</ele><time>2026-04-04T16:32:10Z</time></trkpt><trkpt lat="40.793743956497536" lon="8.7381167894876"><ele>519.0</ele><time>2026-04-04T16:32:11Z</time></trkpt><trkpt lat="40.79361866452934" lon="8.738261171052798"><ele>519.0</ele><time>2026-04-04T16:32:12Z</time></trkpt><trkpt lat="40.793515906689265" lon="8.738436293929622"><ele>519.0</ele><time>2026-04-04T16:32:13Z</time></trkpt><trkpt lat="40.793434933976314" lon="8.738624360151722"><ele>517.0</ele><time>2026-04-04T16:32:14Z</time></trkpt><trkpt lat="40.7933802116399" lon="8.738810133012562"><ele>515.0</ele><time>2026-04-04T16:32:15Z</time></trkpt><trkpt lat="40.79335043468907" lon="8.738985480985153"><ele>513.0</ele><time>2026-04-04T16:32:16Z</time></trkpt><trkpt lat="40.79333612565714" lon="8.739129491950509"><ele>511.0</ele><time>2026-04-04T16:32:17Z</time></trkpt><trkpt lat="40.79334263161027" lon="8.739259629799085"><ele>511.0</ele><time>2026-04-04T16:32:18Z</time></trkpt><trkpt lat="40.79335662348411" lon="8.739364038478838"><ele>511.0</ele><time>2026-04-04T16:32:19Z</time></trkpt><trkpt lat="40.79337628469094" lon="8.739453782266814"><ele>511.0</ele><time>2026-04-04T16:32:20Z</time></trkpt><trkpt lat="40.79340507755096" lon="8.739542843080775"><ele>511.0</ele><time>2026-04-04T16:32:21Z</time></trkpt><trkpt lat="40.793438782385884" lon="8.739629643992103"><ele>511.0</ele><time>2026-04-04T16:32:22Z</time></trkpt><trkpt lat="40.79346687765013" lon="8.739709772515914"><ele>511.0</ele><time>2026-04-04T16:32:23Z</time></trkpt><trkpt lat="40.79349573497943" lon="8.739795699026121"><ele>511.0</ele><time>2026-04-04T16:32:24Z</time></trkpt><trkpt lat="40.79352890551035" lon="8.739881211078954"><ele>510.50000000000006</ele><time>2026-04-04T16:32:25Z</time></trkpt><trkpt lat="40.79356091683666" lon="8.739968781733419"><ele>510.0</ele><time>2026-04-04T16:32:26Z</time></trkpt><trkpt lat="40.793599991846214" lon="8.740051895605525"><ele>509.5</ele><time>2026-04-04T16:32:27Z</time></trkpt><trkpt lat="40.79363585031513" lon="8.740142246758548"><ele>509.0</ele><time>2026-04-04T16:32:28Z</time></trkpt><trkpt lat="40.79366778103463" lon="8.740236210876073"><ele>508.50000000000006</ele><time>2026-04-04T16:32:29Z</time></trkpt><trkpt lat="40.79370336818665" lon="8.740332181243014"><ele>508.0</ele><time>2026-04-04T16:32:30Z</time></trkpt><trkpt lat="40.793745053665646" lon="8.740438222795403"><ele>506.4</ele><time>2026-04-04T16:32:31Z</time></trkpt><trkpt lat="40.79379194736499" lon="8.740555559750941"><ele>504.79999999999995</ele><time>2026-04-04T16:32:32Z</time></trkpt><trkpt lat="40.7938409377867" lon="8.740675015473627"><ele>503.2</ele><time>2026-04-04T16:32:33Z</time></trkpt><trkpt lat="40.79388724328009" lon="8.740786556447597"><ele>501.6</ele><time>2026-04-04T16:32:34Z</time></trkpt><trkpt lat="40.79392563394395" lon="8.740880983092019"><ele>500.0</ele><time>2026-04-04T16:32:35Z</time></trkpt><trkpt lat="40.793983382665644" lon="8.741012099268323"><ele>498.99999999999994</ele><time>2026-04-04T16:32:37Z</time></trkpt><trkpt lat="40.794020613572606" lon="8.74110271695144"><ele>498.0</ele><time>2026-04-04T16:32:39Z</time></trkpt><trkpt lat="40.79405890326985" lon="8.741187953948883"><ele>497.0</ele><time>2026-04-04T16:32:42Z</time></trkpt><trkpt lat="40.7941108498521" lon="8.74129616050847"><ele>496.0</ele><time>2026-04-04T16:32:44Z</time></trkpt><trkpt lat="40.794144234065286" lon="8.741382919101998"><ele>494.99999999999994</ele><time>2026-04-04T16:32:45Z</time></trkpt><trkpt lat="40.794183667177656" lon="8.741483471331993"><ele>494.0</ele><time>2026-04-04T16:32:46Z</time></trkpt><trkpt lat="40.794230574692584" lon="8.74160090722932"><ele>494.0</ele><time>2026-04-04T16:32:47Z</time></trkpt><trkpt lat="40.794282725719206" lon="8.74173416085105"><ele>494.0</ele><time>2026-04-04T16:32:48Z</time></trkpt><trkpt lat="40.79433492508649" lon="8.741881877966113"><ele>494.0</ele><time>2026-04-04T16:32:49Z</time></trkpt><trkpt lat="40.79438261364464" lon="8.742047250958894"><ele>494.0</ele><time>2026-04-04T16:32:50Z</time></trkpt><trkpt lat="40.79442154099412" lon="8.74222922438793"><ele>493.0</ele><time>2026-04-04T16:32:51Z</time></trkpt><trkpt lat="40.79445292900374" lon="8.742423440115582"><ele>492.0</ele><time>2026-04-04T16:32:52Z</time></trkpt><trkpt lat="40.794476604163044" lon="8.742623561777213"><ele>491.0</ele><time>2026-04-04T16:32:53Z</time></trkpt><trkpt lat="40.794495118236135" lon="8.74281979775459"><ele>490.25</ele><time>2026-04-04T16:32:54Z</time></trkpt><trkpt lat="40.794514919813004" lon="8.743007461898655"><ele>489.5</ele><time>2026-04-04T16:32:55Z</time></trkpt><trkpt lat="40.794531341733496" lon="8.743187580797763"><ele>488.75</ele><time>2026-04-04T16:32:56Z</time></trkpt><trkpt lat="40.794539689843425" lon="8.743365899804306"><ele>488.0</ele><time>2026-04-04T16:32:57Z</time></trkpt><trkpt lat="40.79453106060566" lon="8.7435403150746"><ele>487.75</ele><time>2026-04-04T16:32:58Z</time></trkpt><trkpt lat="40.7944863328637" lon="8.743710798755737"><ele>487.5</ele><time>2026-04-04T16:32:59Z</time></trkpt><trkpt lat="40.7944104000303" lon="8.743869517647488"><ele>487.25</ele><time>2026-04-04T16:33:00Z</time></trkpt><trkpt lat="40.794304625962255" lon="8.744003162307395"><ele>487.0</ele><time>2026-04-04T16:33:01Z</time></trkpt><trkpt lat="40.794166955032594" lon="8.744088528094013"><ele>484.33333333333337</ele><time>2026-04-04T16:33:02Z</time></trkpt><trkpt lat="40.79402748106074" lon="8.74418310061708"><ele>481.66666666666663</ele><time>2026-04-04T16:33:03Z</time></trkpt><trkpt lat="40.793886396581364" lon="8.744278252175757"><ele>479.0</ele><time>2026-04-04T16:33:04Z</time></trkpt><trkpt lat="40.793759898094386" lon="8.74438157565767"><ele>479.0</ele><time>2026-04-04T16:33:05.001Z</time></trkpt><trkpt lat="40.79364265788026" lon="8.744456074304292"><ele>479.0</ele><time>2026-04-04T16:33:06.001Z</time></trkpt><trkpt lat="40.793537211429246" lon="8.744531040584006"><ele>479.0</ele><time>2026-04-04T16:33:07.001Z</time></trkpt><trkpt lat="40.79343822500595" lon="8.74458051219571"><ele>479.0</ele><time>2026-04-04T16:33:08.001Z</time></trkpt><trkpt lat="40.79336032885469" lon="8.744633047646685"><ele>479.0</ele><time>2026-04-04T16:33:09.001Z</time></trkpt><trkpt lat="40.79329904137449" lon="8.744674381711004"><ele>475.75</ele><time>2026-04-04T16:33:10.001Z</time></trkpt><trkpt lat="40.793266815512254" lon="8.74482819717469"><ele>472.5</ele><time>2026-04-04T16:33:12.001Z</time></trkpt><trkpt lat="40.79332072768841" lon="8.74496289275529"><ele>469.25</ele><time>2026-04-04T16:33:14.001Z</time></trkpt><trkpt lat="40.79339607670344" lon="8.745008502824291"><ele>466.0</ele><time>2026-04-04T16:33:16.001Z</time></trkpt><trkpt lat="40.79327678523325" lon="8.74510615736805"><ele>466.0</ele><time>2026-04-04T16:33:18.001Z</time></trkpt><trkpt lat="40.79321604299829" lon="8.745128356515028"><ele>466.0</ele><time>2026-04-04T16:33:23.001Z</time></trkpt><trkpt lat="40.79316453818612" lon="8.745187751179492"><ele>466.0</ele><time>2026-04-04T16:36:57Z</time></trkpt><trkpt lat="40.79311534580843" lon="8.745098068604035"><ele>466.0</ele><time>2026-04-04T16:37:00Z</time></trkpt><trkpt lat="40.793119224162574" lon="8.74500538953643"><ele>466.0</ele><time>2026-04-04T16:37:04Z</time></trkpt><trkpt lat="40.793059702710806" lon="8.744975834515365"><ele>466.0</ele><time>2026-04-04T16:37:07Z</time></trkpt><trkpt lat="40.79296786213854" lon="8.744930942916064"><ele>466.0</ele><time>2026-04-04T16:37:11Z</time></trkpt><trkpt lat="40.79286716492977" lon="8.744969418826159"><ele>466.0</ele><time>2026-04-04T16:37:13Z</time></trkpt><trkpt lat="40.792803302089496" lon="8.745015528347945"><ele>466.0</ele><time>2026-04-04T16:37:14Z</time></trkpt><trkpt lat="40.79273553699815" lon="8.7450720216216"><ele>466.0</ele><time>2026-04-04T16:37:15Z</time></trkpt><trkpt lat="40.79264843881602" lon="8.745142790305945"><ele>466.0</ele><time>2026-04-04T16:37:16Z</time></trkpt><trkpt lat="40.79255624385788" lon="8.745207188705477"><ele>466.0</ele><time>2026-04-04T16:37:17Z</time></trkpt><trkpt lat="40.79246497146707" lon="8.745254924000196"><ele>465.1666666666667</ele><time>2026-04-04T16:37:18.001Z</time></trkpt><trkpt lat="40.7923742323177" lon="8.745282799445262"><ele>464.33333333333337</ele><time>2026-04-04T16:37:19.001Z</time></trkpt><trkpt lat="40.79228681367058" lon="8.745288749759453"><ele>463.5</ele><time>2026-04-04T16:37:20.001Z</time></trkpt><trkpt lat="40.79221529357533" lon="8.745298256048857"><ele>462.66666666666663</ele><time>2026-04-04T16:37:21.001Z</time></trkpt><trkpt lat="40.79214177111209" lon="8.745245942795341"><ele>461.8333333333333</ele><time>2026-04-04T16:37:22.001Z</time></trkpt><trkpt lat="40.79205759510178" lon="8.745153384684805"><ele>461.0</ele><time>2026-04-04T16:37:24.001Z</time></trkpt><trkpt lat="40.79199840618022" lon="8.74505993926749"><ele>460.99999999999994</ele><time>2026-04-04T16:37:26.001Z</time></trkpt><trkpt lat="40.791950712436" lon="8.74494551185384"><ele>461.0</ele><time>2026-04-04T16:37:28.001Z</time></trkpt><trkpt lat="40.79193352798532" lon="8.744861334800769"><ele>461.0</ele><time>2026-04-04T16:37:30.001Z</time></trkpt><trkpt lat="40.79187370564244" lon="8.744763113129396"><ele>461.0</ele><time>2026-04-04T16:37:36.001Z</time></trkpt><trkpt lat="40.79183057567097" lon="8.744693022295493"><ele>460.99999999999994</ele><time>2026-04-04T16:37:37.001Z</time></trkpt><trkpt lat="40.791793070610375" lon="8.744594773766991"><ele>461.0</ele><time>2026-04-04T16:37:38.001Z</time></trkpt><trkpt lat="40.79175427396552" lon="8.74449987785352"><ele>461.20000000000005</ele><time>2026-04-04T16:37:39.001Z</time></trkpt><trkpt lat="40.791708411946374" lon="8.744392841565416"><ele>461.40000000000003</ele><time>2026-04-04T16:37:40.001Z</time></trkpt><trkpt lat="40.79165563792368" lon="8.744267701668036"><ele>461.6</ele><time>2026-04-04T16:37:41.001Z</time></trkpt><trkpt lat="40.791599771013566" lon="8.744133856835568"><ele>461.8</ele><time>2026-04-04T16:37:42.001Z</time></trkpt><trkpt lat="40.791535843313895" lon="8.743986290502507"><ele>462.0</ele><time>2026-04-04T16:37:43.001Z</time></trkpt><trkpt lat="40.7914650546411" lon="8.74383875906495"><ele>462.33333333333337</ele><time>2026-04-04T16:37:44.001Z</time></trkpt><trkpt lat="40.79138176067785" lon="8.743673362745826"><ele>462.6666666666667</ele><time>2026-04-04T16:37:45.001Z</time></trkpt><trkpt lat="40.791284236110315" lon="8.743494605543145"><ele>463.0</ele><time>2026-04-04T16:37:46.001Z</time></trkpt><trkpt lat="40.79117922136037" lon="8.743330345275172"><ele>463.25</ele><time>2026-04-04T16:37:47.001Z</time></trkpt><trkpt lat="40.79107060048718" lon="8.74318448241894"><ele>463.5</ele><time>2026-04-04T16:37:48.001Z</time></trkpt><trkpt lat="40.79097349021791" lon="8.743068139978517"><ele>463.75</ele><time>2026-04-04T16:37:49.001Z</time></trkpt><trkpt lat="40.79088066492081" lon="8.742922284570229"><ele>464.0</ele><time>2026-04-04T16:37:50.001Z</time></trkpt><trkpt lat="40.79076502039234" lon="8.742819369987423"><ele>465.0</ele><time>2026-04-04T16:37:51.001Z</time></trkpt><trkpt lat="40.790633004535195" lon="8.742741516328927"><ele>466.0</ele><time>2026-04-04T16:37:52.001Z</time></trkpt><trkpt lat="40.790480869483034" lon="8.742704288327571"><ele>467.0</ele><time>2026-04-04T16:37:53.001Z</time></trkpt><trkpt lat="40.79032516706307" lon="8.742711436841605"><ele>467.0</ele><time>2026-04-04T16:37:54.001Z</time></trkpt><trkpt lat="40.79016390848255" lon="8.742744151139117"><ele>467.0</ele><time>2026-04-04T16:37:55.001Z</time></trkpt><trkpt lat="40.79000305269742" lon="8.742778280793319"><ele>467.0</ele><time>2026-04-04T16:37:56.001Z</time></trkpt><trkpt lat="40.78983945333262" lon="8.742813872579458"><ele>467.0</ele><time>2026-04-04T16:37:57.001Z</time></trkpt><trkpt lat="40.78967539031974" lon="8.742850182932873"><ele>467.0</ele><time>2026-04-04T16:37:58.001Z</time></trkpt><trkpt lat="40.78950537907791" lon="8.742887687380467"><ele>467.0</ele><time>2026-04-04T16:37:59.001Z</time></trkpt><trkpt lat="40.78934067682013" lon="8.742923302516587"><ele>466.66666666666663</ele><time>2026-04-04T16:38:00.001Z</time></trkpt><trkpt lat="40.78918141481183" lon="8.742957741276213"><ele>466.33333333333337</ele><time>2026-04-04T16:38:01.001Z</time></trkpt><trkpt lat="40.78902174810601" lon="8.742992031595396"><ele>466.0</ele><time>2026-04-04T16:38:02Z</time></trkpt><trkpt lat="40.78885607839511" lon="8.743027612367875"><ele>466.0</ele><time>2026-04-04T16:38:03Z</time></trkpt><trkpt lat="40.788691373140956" lon="8.743062023969443"><ele>466.0</ele><time>2026-04-04T16:38:04Z</time></trkpt><trkpt lat="40.78852398536302" lon="8.74309745636657"><ele>466.0</ele><time>2026-04-04T16:38:05Z</time></trkpt><trkpt lat="40.78836101047293" lon="8.743134411717147"><ele>466.6666666666667</ele><time>2026-04-04T16:38:06Z</time></trkpt><trkpt lat="40.7882000291655" lon="8.743170915235051"><ele>467.33333333333337</ele><time>2026-04-04T16:38:07Z</time></trkpt><trkpt lat="40.78803801710795" lon="8.743198341562291"><ele>468.0</ele><time>2026-04-04T16:38:08Z</time></trkpt><trkpt lat="40.787874438409304" lon="8.743205383277884"><ele>468.0</ele><time>2026-04-04T16:38:09Z</time></trkpt><trkpt lat="40.787711562036186" lon="8.743180473294126"><ele>468.0</ele><time>2026-04-04T16:38:10Z</time></trkpt><trkpt lat="40.78755150898364" lon="8.743133377605924"><ele>468.0</ele><time>2026-04-04T16:38:11Z</time></trkpt><trkpt lat="40.787388519212165" lon="8.743079768991393"><ele>469.66666666666663</ele><time>2026-04-04T16:38:12Z</time></trkpt><trkpt lat="40.787221330355834" lon="8.743036853724119"><ele>471.3333333333333</ele><time>2026-04-04T16:38:13Z</time></trkpt><trkpt lat="40.787055879004804" lon="8.74298225980801"><ele>473.0</ele><time>2026-04-04T16:38:14Z</time></trkpt><trkpt lat="40.78688654696374" lon="8.742929586908463"><ele>474.0</ele><time>2026-04-04T16:38:15Z</time></trkpt><trkpt lat="40.7867211250771" lon="8.74287364734328"><ele>475.0</ele><time>2026-04-04T16:38:16Z</time></trkpt><trkpt lat="40.78656001835224" lon="8.74279624734952"><ele>476.0</ele><time>2026-04-04T16:38:17Z</time></trkpt><trkpt lat="40.78639645474024" lon="8.74275238779272"><ele>476.0</ele><time>2026-04-04T16:38:18Z</time></trkpt><trkpt lat="40.786235430156324" lon="8.742743682115476"><ele>476.0</ele><time>2026-04-04T16:38:19Z</time></trkpt><trkpt lat="40.78607527153504" lon="8.742790687674354"><ele>476.0</ele><time>2026-04-04T16:38:20Z</time></trkpt><trkpt lat="40.78592305322677" lon="8.742881871938245"><ele>478.0</ele><time>2026-04-04T16:38:21Z</time></trkpt><trkpt lat="40.78576607224544" lon="8.742962557002501"><ele>480.0</ele><time>2026-04-04T16:38:22Z</time></trkpt><trkpt lat="40.78561130538588" lon="8.743015965203366"><ele>482.0</ele><time>2026-04-04T16:38:23Z</time></trkpt><trkpt lat="40.78547769136074" lon="8.743081612565987"><ele>482.0</ele><time>2026-04-04T16:38:24Z</time></trkpt><trkpt lat="40.785348699199" lon="8.743145513333532"><ele>482.0</ele><time>2026-04-04T16:38:25Z</time></trkpt><trkpt lat="40.78522091061707" lon="8.74321011534896"><ele>482.0</ele><time>2026-04-04T16:38:26Z</time></trkpt><trkpt lat="40.78508910887504" lon="8.743278426461835"><ele>482.0</ele><time>2026-04-04T16:38:27Z</time></trkpt><trkpt lat="40.78495195338206" lon="8.743351792957085"><ele>481.25</ele><time>2026-04-04T16:38:28Z</time></trkpt><trkpt lat="40.78482507562872" lon="8.743453528445595"><ele>480.5</ele><time>2026-04-04T16:38:29Z</time></trkpt><trkpt lat="40.784698533687454" lon="8.743514540222419"><ele>479.75</ele><time>2026-04-04T16:38:30Z</time></trkpt><trkpt lat="40.784578082854" lon="8.743565493933726"><ele>479.0</ele><time>2026-04-04T16:38:31Z</time></trkpt><trkpt lat="40.78445711537358" lon="8.743605252581213"><ele>479.5</ele><time>2026-04-04T16:38:32Z</time></trkpt><trkpt lat="40.78432764565011" lon="8.743631200741211"><ele>480.0</ele><time>2026-04-04T16:38:33Z</time></trkpt><trkpt lat="40.78419045265709" lon="8.743669361170898"><ele>480.5</ele><time>2026-04-04T16:38:34Z</time></trkpt><trkpt lat="40.78407129089965" lon="8.743728044189593"><ele>481.0</ele><time>2026-04-04T16:38:35Z</time></trkpt><trkpt lat="40.78397551224618" lon="8.743776604499914"><ele>481.00000000000006</ele><time>2026-04-04T16:38:36Z</time></trkpt><trkpt lat="40.78388299423065" lon="8.743739668012124"><ele>481.0</ele><time>2026-04-04T16:38:37Z</time></trkpt><trkpt lat="40.78381539631993" lon="8.743766374943924"><ele>481.0</ele><time>2026-04-04T16:38:38Z</time></trkpt><trkpt lat="40.78373559505374" lon="8.74379714106789"><ele>481.0</ele><time>2026-04-04T16:38:40Z</time></trkpt><trkpt lat="40.78367454638824" lon="8.743820677436624"><ele>481.00000000000006</ele><time>2026-04-04T16:38:42Z</time></trkpt><trkpt lat="40.783611828654315" lon="8.743844857266785"><ele>481.0</ele><time>2026-04-04T16:38:44Z</time></trkpt><trkpt lat="40.783541317010105" lon="8.743943396680976"><ele>480.6</ele><time>2026-04-04T16:38:47Z</time></trkpt><trkpt lat="40.78343455555971" lon="8.743990234856168"><ele>480.20000000000005</ele><time>2026-04-04T16:38:49Z</time></trkpt><trkpt lat="40.78333515586119" lon="8.743950075812077"><ele>479.79999999999995</ele><time>2026-04-04T16:38:51Z</time></trkpt><trkpt lat="40.783267427407765" lon="8.743977659603075"><ele>479.4</ele><time>2026-04-04T16:38:53Z</time></trkpt><trkpt lat="40.783156880143984" lon="8.744070679094513"><ele>479.0</ele><time>2026-04-04T16:38:55Z</time></trkpt><trkpt lat="40.78309391673466" lon="8.744130946070458"><ele>478.99999999999994</ele><time>2026-04-04T16:38:56Z</time></trkpt><trkpt lat="40.78302938933881" lon="8.74421631925131"><ele>479.0</ele><time>2026-04-04T16:38:57Z</time></trkpt><trkpt lat="40.78295483949521" lon="8.744262479719993"><ele>479.0</ele><time>2026-04-04T16:38:58Z</time></trkpt><trkpt lat="40.782885443274736" lon="8.744301405626086"><ele>479.0</ele><time>2026-04-04T16:38:59Z</time></trkpt><trkpt lat="40.78279980565309" lon="8.744300284446057"><ele>478.99999999999994</ele><time>2026-04-04T16:39:00Z</time></trkpt><trkpt lat="40.78271696906134" lon="8.744313150913733"><ele>479.0</ele><time>2026-04-04T16:39:01Z</time></trkpt><trkpt lat="40.78261922990598" lon="8.744325244683324"><ele>478.79999999999995</ele><time>2026-04-04T16:39:03Z</time></trkpt><trkpt lat="40.782540544364494" lon="8.74433513927155"><ele>478.59999999999997</ele><time>2026-04-04T16:39:06Z</time></trkpt><trkpt lat="40.782421924856926" lon="8.744350007086565"><ele>478.4</ele><time>2026-04-04T16:39:08Z</time></trkpt><trkpt lat="40.78233994589418" lon="8.744360282095128"><ele>478.2</ele><time>2026-04-04T16:39:09Z</time></trkpt><trkpt lat="40.78224771553339" lon="8.74437155860899"><ele>478.0</ele><time>2026-04-04T16:39:10Z</time></trkpt><trkpt lat="40.78214981482788" lon="8.74438219676998"><ele>478.0</ele><time>2026-04-04T16:39:11Z</time></trkpt><trkpt lat="40.78203560007026" lon="8.744396191206494"><ele>478.0</ele><time>2026-04-04T16:39:12Z</time></trkpt><trkpt lat="40.78192248590509" lon="8.744409721209063"><ele>478.0</ele><time>2026-04-04T16:39:13Z</time></trkpt><trkpt lat="40.781800570754214" lon="8.744424431842727"><ele>478.0</ele><time>2026-04-04T16:39:14Z</time></trkpt><trkpt lat="40.7816691260688" lon="8.744440536665119"><ele>477.75</ele><time>2026-04-04T16:39:15Z</time></trkpt><trkpt lat="40.78154080099838" lon="8.744456259266856"><ele>477.5</ele><time>2026-04-04T16:39:16Z</time></trkpt><trkpt lat="40.78140389189118" lon="8.744472556158504"><ele>477.25</ele><time>2026-04-04T16:39:17Z</time></trkpt><trkpt lat="40.781261506608615" lon="8.744486883072398"><ele>477.0</ele><time>2026-04-04T16:39:18Z</time></trkpt><trkpt lat="40.78110960836469" lon="8.744502167184201"><ele>475.75</ele><time>2026-04-04T16:39:19Z</time></trkpt><trkpt lat="40.7809641358828" lon="8.744516804729507"><ele>474.5</ele><time>2026-04-04T16:39:20Z</time></trkpt><trkpt lat="40.780823847123756" lon="8.744530920682449"><ele>473.25</ele><time>2026-04-04T16:39:21Z</time></trkpt><trkpt lat="40.78068160679787" lon="8.744545233143281"><ele>472.0</ele><time>2026-04-04T16:39:22Z</time></trkpt><trkpt lat="40.78054411089673" lon="8.744560024573559"><ele>472.0</ele><time>2026-04-04T16:39:23.001Z</time></trkpt><trkpt lat="40.78040649248528" lon="8.744554641777446"><ele>472.0</ele><time>2026-04-04T16:39:24.001Z</time></trkpt><trkpt lat="40.78026427551305" lon="8.744535557326692"><ele>472.0</ele><time>2026-04-04T16:39:25.001Z</time></trkpt><trkpt lat="40.780124481680005" lon="8.744565750394715"><ele>472.0</ele><time>2026-04-04T16:39:26.001Z</time></trkpt><trkpt lat="40.77999578011448" lon="8.744530206833614"><ele>471.25</ele><time>2026-04-04T16:39:27.001Z</time></trkpt><trkpt lat="40.77986879190336" lon="8.744464374833585"><ele>470.5</ele><time>2026-04-04T16:39:28.001Z</time></trkpt><trkpt lat="40.77975951605124" lon="8.74437368808755"><ele>469.75</ele><time>2026-04-04T16:39:29.001Z</time></trkpt><trkpt lat="40.77968943436425" lon="8.744221276482685"><ele>469.0</ele><time>2026-04-04T16:39:30.001Z</time></trkpt><trkpt lat="40.77958479604374" lon="8.744124114506153"><ele>470.75</ele><time>2026-04-04T16:39:31.001Z</time></trkpt><trkpt lat="40.77945587242887" lon="8.74404506729539"><ele>472.5</ele><time>2026-04-04T16:39:32.001Z</time></trkpt><trkpt lat="40.779310310964526" lon="8.744011831799497"><ele>474.25</ele><time>2026-04-04T16:39:33.001Z</time></trkpt><trkpt lat="40.77915340770405" lon="8.744043878346606"><ele>476.0</ele><time>2026-04-04T16:39:34.001Z</time></trkpt><trkpt lat="40.77901689417337" lon="8.744134758514525"><ele>476.0</ele><time>2026-04-04T16:39:35.001Z</time></trkpt><trkpt lat="40.778876398002225" lon="8.744137488429075"><ele>476.0</ele><time>2026-04-04T16:39:36.001Z</time></trkpt><trkpt lat="40.77873982906053" lon="8.744127175976786"><ele>476.0</ele><time>2026-04-04T16:39:37.001Z</time></trkpt><trkpt lat="40.778598774443104" lon="8.744094256035988"><ele>476.0</ele><time>2026-04-04T16:39:38.001Z</time></trkpt><trkpt lat="40.77846262514296" lon="8.743995700927854"><ele>475.0</ele><time>2026-04-04T16:39:39.001Z</time></trkpt><trkpt lat="40.778320009008006" lon="8.743963032911381"><ele>474.0</ele><time>2026-04-04T16:39:40.001Z</time></trkpt><trkpt lat="40.77818597905734" lon="8.743934467589247"><ele>473.0</ele><time>2026-04-04T16:39:41.001Z</time></trkpt><trkpt lat="40.77804873524765" lon="8.743902902757222"><ele>472.0</ele><time>2026-04-04T16:39:42.001Z</time></trkpt><trkpt lat="40.77791460442477" lon="8.743867360005488"><ele>472.0</ele><time>2026-04-04T16:39:43.001Z</time></trkpt><trkpt lat="40.77778112775493" lon="8.743828182375934"><ele>472.0</ele><time>2026-04-04T16:39:44.001Z</time></trkpt><trkpt lat="40.77766016175608" lon="8.743781202755152"><ele>472.0</ele><time>2026-04-04T16:39:45.001Z</time></trkpt><trkpt lat="40.77754598429688" lon="8.743716101015554"><ele>472.0</ele><time>2026-04-04T16:39:46.001Z</time></trkpt><trkpt lat="40.77743025488305" lon="8.743634730182984"><ele>474.75</ele><time>2026-04-04T16:39:47.001Z</time></trkpt><trkpt lat="40.77732435088316" lon="8.743538025197445"><ele>477.5</ele><time>2026-04-04T16:39:48.001Z</time></trkpt><trkpt lat="40.77722230746026" lon="8.743436844157559"><ele>480.25</ele><time>2026-04-04T16:39:49.001Z</time></trkpt><trkpt lat="40.77714525862681" lon="8.743291242518431"><ele>483.0</ele><time>2026-04-04T16:39:50.001Z</time></trkpt><trkpt lat="40.77707792800566" lon="8.743128035025377"><ele>483.0</ele><time>2026-04-04T16:39:51.001Z</time></trkpt><trkpt lat="40.77702326150431" lon="8.74295434202824"><ele>483.0</ele><time>2026-04-04T16:39:52.001Z</time></trkpt><trkpt lat="40.776975704903634" lon="8.742771394333854"><ele>483.0</ele><time>2026-04-04T16:39:53.001Z</time></trkpt><trkpt lat="40.7769276859525" lon="8.742586275239653"><ele>483.0</ele><time>2026-04-04T16:39:54.001Z</time></trkpt><trkpt lat="40.7768662207643" lon="8.742403798401874"><ele>478.33333333333337</ele><time>2026-04-04T16:39:55.001Z</time></trkpt><trkpt lat="40.77678826181137" lon="8.74222965277803"><ele>473.6666666666667</ele><time>2026-04-04T16:39:56.001Z</time></trkpt><trkpt lat="40.77669167948165" lon="8.742078859585812"><ele>469.0</ele><time>2026-04-04T16:39:57.001Z</time></trkpt><trkpt lat="40.77658479758178" lon="8.741932363984947"><ele>473.33333333333337</ele><time>2026-04-04T16:39:58.001Z</time></trkpt><trkpt lat="40.77645174257027" lon="8.741815128500479"><ele>477.66666666666663</ele><time>2026-04-04T16:39:59.001Z</time></trkpt><trkpt lat="40.77630355139609" lon="8.741729238733738"><ele>482.0</ele><time>2026-04-04T16:40:00.001Z</time></trkpt><trkpt lat="40.77614787981544" lon="8.741684483828898"><ele>480.0</ele><time>2026-04-04T16:40:01.001Z</time></trkpt><trkpt lat="40.77598703983819" lon="8.741674203497208"><ele>478.0</ele><time>2026-04-04T16:40:02.001Z</time></trkpt><trkpt lat="40.77582263888154" lon="8.741704763216243"><ele>476.0</ele><time>2026-04-04T16:40:03.001Z</time></trkpt><trkpt lat="40.77565966440105" lon="8.741782356101554"><ele>473.0</ele><time>2026-04-04T16:40:04.001Z</time></trkpt><trkpt lat="40.77550207207238" lon="8.741892844930907"><ele>470.0</ele><time>2026-04-04T16:40:05.001Z</time></trkpt><trkpt lat="40.7753292048524" lon="8.741975546519152"><ele>467.0</ele><time>2026-04-04T16:40:06.001Z</time></trkpt><trkpt lat="40.77516951478632" lon="8.742073994873415"><ele>467.0</ele><time>2026-04-04T16:40:07.001Z</time></trkpt><trkpt lat="40.77502154199689" lon="8.742170917707627"><ele>467.0</ele><time>2026-04-04T16:40:08Z</time></trkpt><trkpt lat="40.774879775957814" lon="8.742280015666951"><ele>467.0</ele><time>2026-04-04T16:40:09Z</time></trkpt><trkpt lat="40.77473816164989" lon="8.742395265518631"><ele>467.0</ele><time>2026-04-04T16:40:10Z</time></trkpt><trkpt lat="40.7745961363482" lon="8.742510906445418"><ele>467.0</ele><time>2026-04-04T16:40:11Z</time></trkpt><trkpt lat="40.77445488757516" lon="8.742627846002764"><ele>467.0</ele><time>2026-04-04T16:40:12Z</time></trkpt><trkpt lat="40.77431097202202" lon="8.742747233379488"><ele>466.0</ele><time>2026-04-04T16:40:13Z</time></trkpt><trkpt lat="40.77417435241795" lon="8.742859740678327"><ele>465.0</ele><time>2026-04-04T16:40:14Z</time></trkpt><trkpt lat="40.77404986432904" lon="8.742958569545014"><ele>464.0</ele><time>2026-04-04T16:40:15Z</time></trkpt><trkpt lat="40.77392647451391" lon="8.743048250822111"><ele>463.0</ele><time>2026-04-04T16:40:16Z</time></trkpt><trkpt lat="40.77379997084046" lon="8.743087856686971"><ele>463.0</ele><time>2026-04-04T16:40:17Z</time></trkpt><trkpt lat="40.77367292946349" lon="8.743084658221107"><ele>463.0</ele><time>2026-04-04T16:40:18Z</time></trkpt><trkpt lat="40.77357587478228" lon="8.742973522348601"><ele>463.0</ele><time>2026-04-04T16:40:19Z</time></trkpt><trkpt lat="40.77345811119627" lon="8.74286466786219"><ele>463.0</ele><time>2026-04-04T16:40:20Z</time></trkpt><trkpt lat="40.77335982008105" lon="8.742734313322734"><ele>466.75</ele><time>2026-04-04T16:40:21Z</time></trkpt><trkpt lat="40.77325202593341" lon="8.7426212998075"><ele>470.5</ele><time>2026-04-04T16:40:22Z</time></trkpt><trkpt lat="40.77310719394543" lon="8.742560218492605"><ele>474.25</ele><time>2026-04-04T16:40:23Z</time></trkpt><trkpt lat="40.77295232205573" lon="8.742545194007231"><ele>478.0</ele><time>2026-04-04T16:40:24Z</time></trkpt><trkpt lat="40.77279304742585" lon="8.742571575863844"><ele>478.6666666666667</ele><time>2026-04-04T16:40:25Z</time></trkpt><trkpt lat="40.77263886270751" lon="8.742618908569927"><ele>479.33333333333337</ele><time>2026-04-04T16:40:26Z</time></trkpt><trkpt lat="40.77249853457204" lon="8.742714225990584"><ele>480.0</ele><time>2026-04-04T16:40:27Z</time></trkpt><trkpt lat="40.772369525571676" lon="8.742858617225398"><ele>474.33333333333337</ele><time>2026-04-04T16:40:28Z</time></trkpt><trkpt lat="40.77224881932962" lon="8.743033206531956"><ele>468.6666666666667</ele><time>2026-04-04T16:40:29Z</time></trkpt><trkpt lat="40.7721412222368" lon="8.743227669303185"><ele>463.0</ele><time>2026-04-04T16:40:30Z</time></trkpt><trkpt lat="40.77204537733662" lon="8.743413339509955"><ele>465.0</ele><time>2026-04-04T16:40:31Z</time></trkpt><trkpt lat="40.77196367264425" lon="8.743603081377499"><ele>467.0</ele><time>2026-04-04T16:40:32Z</time></trkpt><trkpt lat="40.771877697694485" lon="8.743767859353696"><ele>469.0</ele><time>2026-04-04T16:40:33Z</time></trkpt><trkpt lat="40.77178788158963" lon="8.743907766194383"><ele>469.0</ele><time>2026-04-04T16:40:34Z</time></trkpt><trkpt lat="40.77172556378419" lon="8.744058361947499"><ele>469.0</ele><time>2026-04-04T16:40:35Z</time></trkpt><trkpt lat="40.771632699956974" lon="8.744168042587262"><ele>469.0</ele><time>2026-04-04T16:40:36Z</time></trkpt><trkpt lat="40.77150148037316" lon="8.74421180983886"><ele>469.0</ele><time>2026-04-04T16:40:37Z</time></trkpt><trkpt lat="40.771355528231204" lon="8.744258886660583"><ele>469.0</ele><time>2026-04-04T16:40:38Z</time></trkpt><trkpt lat="40.7712076759867" lon="8.744322869745828"><ele>469.0</ele><time>2026-04-04T16:40:39Z</time></trkpt><trkpt lat="40.77107016181067" lon="8.744447678698435"><ele>469.0</ele><time>2026-04-04T16:40:40Z</time></trkpt><trkpt lat="40.77094268024856" lon="8.744590934389432"><ele>469.33333333333337</ele><time>2026-04-04T16:40:41Z</time></trkpt><trkpt lat="40.77082925689918" lon="8.74472016669932"><ele>469.66666666666663</ele><time>2026-04-04T16:40:42Z</time></trkpt><trkpt lat="40.770726532437436" lon="8.744866678588487"><ele>470.0</ele><time>2026-04-04T16:40:43Z</time></trkpt><trkpt lat="40.77058912076765" lon="8.74495197126281"><ele>470.0</ele><time>2026-04-04T16:40:44Z</time></trkpt><trkpt lat="40.77043468929309" lon="8.74500091745623"><ele>470.0</ele><time>2026-04-04T16:40:45Z</time></trkpt><trkpt lat="40.77027508638092" lon="8.745032966200702"><ele>470.0</ele><time>2026-04-04T16:40:46Z</time></trkpt><trkpt lat="40.77013027151294" lon="8.74506955528424"><ele>472.3333333333333</ele><time>2026-04-04T16:40:47Z</time></trkpt><trkpt lat="40.76998802326818" lon="8.745126856918478"><ele>474.66666666666663</ele><time>2026-04-04T16:40:48Z</time></trkpt><trkpt lat="40.7698459738457" lon="8.745215726223453"><ele>477.0</ele><time>2026-04-04T16:40:49Z</time></trkpt><trkpt lat="40.76969993571947" lon="8.745320743560548"><ele>474.5</ele><time>2026-04-04T16:40:50Z</time></trkpt><trkpt lat="40.769574601428985" lon="8.745476749070084"><ele>472.0</ele><time>2026-04-04T16:40:51Z</time></trkpt><trkpt lat="40.769464615689955" lon="8.745617434722458"><ele>469.5</ele><time>2026-04-04T16:40:52Z</time></trkpt><trkpt lat="40.7693719709733" lon="8.745718381427746"><ele>467.0</ele><time>2026-04-04T16:40:53Z</time></trkpt><trkpt lat="40.769281182622095" lon="8.74579330706806"><ele>467.0</ele><time>2026-04-04T16:40:54Z</time></trkpt><trkpt lat="40.769176590600225" lon="8.745787623954236"><ele>467.0</ele><time>2026-04-04T16:40:55Z</time></trkpt><trkpt lat="40.7690656258541" lon="8.745738077612495"><ele>467.0</ele><time>2026-04-04T16:40:56Z</time></trkpt><trkpt lat="40.76896274539972" lon="8.745662242903412"><ele>467.0</ele><time>2026-04-04T16:40:57Z</time></trkpt><trkpt lat="40.768882247143495" lon="8.745554696211846"><ele>467.0</ele><time>2026-04-04T16:40:58Z</time></trkpt><trkpt lat="40.76884710902613" lon="8.745383309905657"><ele>467.0</ele><time>2026-04-04T16:40:59Z</time></trkpt><trkpt lat="40.768779516536895" lon="8.745218680207145"><ele>467.0</ele><time>2026-04-04T16:41:00Z</time></trkpt><trkpt lat="40.768720184693336" lon="8.745064095209816"><ele>467.0</ele><time>2026-04-04T16:41:01Z</time></trkpt><trkpt lat="40.76864409639853" lon="8.74493632427574"><ele>469.0</ele><time>2026-04-04T16:41:02Z</time></trkpt><trkpt lat="40.768557102874354" lon="8.744833737287784"><ele>471.0</ele><time>2026-04-04T16:41:03Z</time></trkpt><trkpt lat="40.76842939465419" lon="8.744830630652231"><ele>473.0</ele><time>2026-04-04T16:41:04Z</time></trkpt><trkpt lat="40.76832321301053" lon="8.7449273765433"><ele>475.0</ele><time>2026-04-04T16:41:05Z</time></trkpt><trkpt lat="40.768230900321015" lon="8.745063049680402"><ele>475.0</ele><time>2026-04-04T16:41:06Z</time></trkpt><trkpt lat="40.76812187765909" lon="8.745192190929265"><ele>475.0</ele><time>2026-04-04T16:41:07Z</time></trkpt><trkpt lat="40.76799619403163" lon="8.745290336125416"><ele>475.0</ele><time>2026-04-04T16:41:08Z</time></trkpt><trkpt lat="40.76787888454768" lon="8.745373762426468"><ele>475.0</ele><time>2026-04-04T16:41:09Z</time></trkpt><trkpt lat="40.76777736532166" lon="8.745443842804784"><ele>474.0</ele><time>2026-04-04T16:41:10Z</time></trkpt><trkpt lat="40.76770010052776" lon="8.745513770548618"><ele>473.0</ele><time>2026-04-04T16:41:11Z</time></trkpt><trkpt lat="40.76762561587929" lon="8.745507145629794"><ele>472.0</ele><time>2026-04-04T16:41:12Z</time></trkpt><trkpt lat="40.76753009946731" lon="8.745339456383508"><ele>471.0</ele><time>2026-04-04T16:41:14Z</time></trkpt><trkpt lat="40.767458109894704" lon="8.745248195283857"><ele>470.0</ele><time>2026-04-04T16:41:15Z</time></trkpt><trkpt lat="40.767378677927006" lon="8.74513860133848"><ele>473.25</ele><time>2026-04-04T16:41:16Z</time></trkpt><trkpt lat="40.767290455505396" lon="8.745016634184873"><ele>476.5</ele><time>2026-04-04T16:41:17Z</time></trkpt><trkpt lat="40.76718887534576" lon="8.744865557363358"><ele>479.75</ele><time>2026-04-04T16:41:18Z</time></trkpt><trkpt lat="40.76708322750318" lon="8.744704170013101"><ele>483.0</ele><time>2026-04-04T16:41:19Z</time></trkpt><trkpt lat="40.76698912794872" lon="8.744568508803939"><ele>483.0</ele><time>2026-04-04T16:41:20Z</time></trkpt><trkpt lat="40.76690034810262" lon="8.744455654048366"><ele>483.0</ele><time>2026-04-04T16:41:21Z</time></trkpt><trkpt lat="40.76683367230341" lon="8.744366640101882"><ele>483.0</ele><time>2026-04-04T16:41:22Z</time></trkpt><trkpt lat="40.76678374950842" lon="8.744289537136833"><ele>483.0</ele><time>2026-04-04T16:41:23Z</time></trkpt><trkpt lat="40.76672672912749" lon="8.744226538601708"><ele>483.0</ele><time>2026-04-04T16:41:24Z</time></trkpt><trkpt lat="40.76669417571342" lon="8.744137879490136"><ele>483.0</ele><time>2026-04-04T16:41:25Z</time></trkpt><trkpt lat="40.76666160871717" lon="8.744064271642303"><ele>484.59999999999997</ele><time>2026-04-04T16:41:26Z</time></trkpt><trkpt lat="40.76656022096166" lon="8.743971640822195"><ele>486.19999999999993</ele><time>2026-04-04T16:41:28Z</time></trkpt><trkpt lat="40.76649748454727" lon="8.743905184045408"><ele>487.8</ele><time>2026-04-04T16:41:29Z</time></trkpt><trkpt lat="40.76644131715614" lon="8.743832186600695"><ele>489.4</ele><time>2026-04-04T16:41:30Z</time></trkpt><trkpt lat="40.766386828021915" lon="8.74374434366118"><ele>491.0</ele><time>2026-04-04T16:41:31Z</time></trkpt><trkpt lat="40.76632703497646" lon="8.743644292926346"><ele>490.25</ele><time>2026-04-04T16:41:32.001Z</time></trkpt><trkpt lat="40.766257232780184" lon="8.743540395240762"><ele>489.5</ele><time>2026-04-04T16:41:33.001Z</time></trkpt><trkpt lat="40.76618411860336" lon="8.743421368410015"><ele>488.75</ele><time>2026-04-04T16:41:34.001Z</time></trkpt><trkpt lat="40.76611598231951" lon="8.743289775386923"><ele>488.0</ele><time>2026-04-04T16:41:35.001Z</time></trkpt><trkpt lat="40.766055750959374" lon="8.743156229630412"><ele>486.25</ele><time>2026-04-04T16:41:36.001Z</time></trkpt><trkpt lat="40.765993781675" lon="8.743027238263474"><ele>484.5</ele><time>2026-04-04T16:41:37.001Z</time></trkpt><trkpt lat="40.765919503086664" lon="8.742889252292171"><ele>482.75</ele><time>2026-04-04T16:41:38.001Z</time></trkpt><trkpt lat="40.765779958204284" lon="8.742772903481914"><ele>481.0</ele><time>2026-04-04T16:41:39.001Z</time></trkpt><trkpt lat="40.76564411405652" lon="8.74267560217965"><ele>480.75</ele><time>2026-04-04T16:41:40.001Z</time></trkpt><trkpt lat="40.76551296232814" lon="8.742592905471325"><ele>480.5</ele><time>2026-04-04T16:41:41.001Z</time></trkpt><trkpt lat="40.7654216040077" lon="8.742455611083793"><ele>480.25</ele><time>2026-04-04T16:41:42.001Z</time></trkpt><trkpt lat="40.76531706547574" lon="8.742334102446891"><ele>480.0</ele><time>2026-04-04T16:41:43.001Z</time></trkpt><trkpt lat="40.76517877195681" lon="8.742257434032654"><ele>476.5</ele><time>2026-04-04T16:41:44.001Z</time></trkpt><trkpt lat="40.76506733855308" lon="8.742140387077306"><ele>473.0</ele><time>2026-04-04T16:41:45.001Z</time></trkpt><trkpt lat="40.76498342597827" lon="8.741983581875102"><ele>469.5</ele><time>2026-04-04T16:41:46.001Z</time></trkpt><trkpt lat="40.76487304448308" lon="8.74188132814331"><ele>466.0</ele><time>2026-04-04T16:41:47.001Z</time></trkpt><trkpt lat="40.76478455315208" lon="8.741756206303991"><ele>464.5</ele><time>2026-04-04T16:41:48.001Z</time></trkpt><trkpt lat="40.76470973586471" lon="8.741607039379847"><ele>463.0</ele><time>2026-04-04T16:41:49.001Z</time></trkpt><trkpt lat="40.76465482273429" lon="8.741449220373338"><ele>461.5</ele><time>2026-04-04T16:41:50.001Z</time></trkpt><trkpt lat="40.76461660087795" lon="8.741292770836004"><ele>460.0</ele><time>2026-04-04T16:41:51.001Z</time></trkpt><trkpt lat="40.7645856280584" lon="8.741153933469658"><ele>459.6</ele><time>2026-04-04T16:41:52.001Z</time></trkpt><trkpt lat="40.76455897495181" lon="8.741039068723083"><ele>459.2</ele><time>2026-04-04T16:41:53.001Z</time></trkpt><trkpt lat="40.764536405135445" lon="8.740947699260685"><ele>458.79999999999995</ele><time>2026-04-04T16:41:54.001Z</time></trkpt><trkpt lat="40.76448222182701" lon="8.740852586111915"><ele>458.4</ele><time>2026-04-04T16:41:56.001Z</time></trkpt><trkpt lat="40.76440184477909" lon="8.740807460617363"><ele>458.0</ele><time>2026-04-04T16:41:58.001Z</time></trkpt><trkpt lat="40.764304288007516" lon="8.74094178243135"><ele>456.2</ele><time>2026-04-04T16:41:59.001Z</time></trkpt><trkpt lat="40.7642239048428" lon="8.741041223949699"><ele>454.4</ele><time>2026-04-04T16:42:00.001Z</time></trkpt><trkpt lat="40.764173211720525" lon="8.741097010565808"><ele>452.59999999999997</ele><time>2026-04-04T16:42:01.001Z</time></trkpt><trkpt lat="40.764097355870696" lon="8.741129146940514"><ele>450.79999999999995</ele><time>2026-04-04T16:42:03.001Z</time></trkpt><trkpt lat="40.76405517510866" lon="8.740944543181541"><ele>449.0</ele><time>2026-04-04T16:42:05.001Z</time></trkpt><trkpt lat="40.76404588103237" lon="8.740788300271863"><ele>446.25</ele><time>2026-04-04T16:42:06.001Z</time></trkpt><trkpt lat="40.76404532679539" lon="8.740614944854682"><ele>443.5</ele><time>2026-04-04T16:42:07.001Z</time></trkpt><trkpt lat="40.7640164594255" lon="8.740449910427872"><ele>440.75</ele><time>2026-04-04T16:42:08.001Z</time></trkpt><trkpt lat="40.76396148620208" lon="8.740273990337611"><ele>438.0</ele><time>2026-04-04T16:42:09.001Z</time></trkpt><trkpt lat="40.76389817038802" lon="8.74009976582087"><ele>436.0</ele><time>2026-04-04T16:42:10.001Z</time></trkpt><trkpt lat="40.763816915082714" lon="8.73993953709977"><ele>434.0</ele><time>2026-04-04T16:42:11.001Z</time></trkpt><trkpt lat="40.763733725724855" lon="8.73978525501754"><ele>432.0</ele><time>2026-04-04T16:42:12.001Z</time></trkpt><trkpt lat="40.76364939814529" lon="8.73963502164508"><ele>430.0</ele><time>2026-04-04T16:42:13.001Z</time></trkpt><trkpt lat="40.76358970442793" lon="8.739469135331113"><ele>425.25</ele><time>2026-04-04T16:42:14Z</time></trkpt><trkpt lat="40.76352360177006" lon="8.739319787082822"><ele>420.5</ele><time>2026-04-04T16:42:15Z</time></trkpt><trkpt lat="40.76344773785574" lon="8.739191512454502"><ele>415.75</ele><time>2026-04-04T16:42:16Z</time></trkpt><trkpt lat="40.76340062902706" lon="8.739053188959986"><ele>411.0</ele><time>2026-04-04T16:42:17Z</time></trkpt><trkpt lat="40.763321743026005" lon="8.738935658645289"><ele>411.0</ele><time>2026-04-04T16:42:18Z</time></trkpt><trkpt lat="40.76319851446738" lon="8.738849593542033"><ele>411.0</ele><time>2026-04-04T16:42:19Z</time></trkpt><trkpt lat="40.7630716931041" lon="8.738734509551762"><ele>411.0</ele><time>2026-04-04T16:42:20Z</time></trkpt><trkpt lat="40.762984846262086" lon="8.738598776188194"><ele>411.0</ele><time>2026-04-04T16:42:21Z</time></trkpt><trkpt lat="40.762881500759555" lon="8.738493714925905"><ele>407.6</ele><time>2026-04-04T16:42:22Z</time></trkpt><trkpt lat="40.7627973432469" lon="8.738386952299255"><ele>404.20000000000005</ele><time>2026-04-04T16:42:23Z</time></trkpt><trkpt lat="40.76270626715613" lon="8.738312452319125"><ele>400.79999999999995</ele><time>2026-04-04T16:42:24Z</time></trkpt><trkpt lat="40.76260585364762" lon="8.738285650386135"><ele>397.4</ele><time>2026-04-04T16:42:25Z</time></trkpt><trkpt lat="40.76249976724686" lon="8.738303170713781"><ele>394.0</ele><time>2026-04-04T16:42:26Z</time></trkpt><trkpt lat="40.76240067647059" lon="8.738370706289476"><ele>393.33333333333337</ele><time>2026-04-04T16:42:27Z</time></trkpt><trkpt lat="40.7623121163393" lon="8.738434444785472"><ele>392.6666666666667</ele><time>2026-04-04T16:42:28Z</time></trkpt><trkpt lat="40.76227968594994" lon="8.738570091831567"><ele>392.0</ele><time>2026-04-04T16:42:29Z</time></trkpt><trkpt lat="40.76226932496805" lon="8.738686028027313"><ele>391.33333333333337</ele><time>2026-04-04T16:42:30Z</time></trkpt><trkpt lat="40.76222480955614" lon="8.738766497068125"><ele>390.6666666666667</ele><time>2026-04-04T16:42:31Z</time></trkpt><trkpt lat="40.7621664122243" lon="8.738810113180136"><ele>390.0</ele><time>2026-04-04T16:42:32Z</time></trkpt><trkpt lat="40.76208468625967" lon="8.738798238074216"><ele>391.8</ele><time>2026-04-04T16:42:33Z</time></trkpt><trkpt lat="40.76196621427988" lon="8.738825445086693"><ele>393.6</ele><time>2026-04-04T16:42:34Z</time></trkpt><trkpt lat="40.76186300640868" lon="8.738841206011633"><ele>395.4</ele><time>2026-04-04T16:42:35Z</time></trkpt><trkpt lat="40.761784044098874" lon="8.738829213387412"><ele>397.2</ele><time>2026-04-04T16:42:36Z</time></trkpt><trkpt lat="40.76169561699487" lon="8.738787939790063"><ele>399.0</ele><time>2026-04-04T16:42:37Z</time></trkpt><trkpt lat="40.76162839527872" lon="8.738637685786532"><ele>394.25</ele><time>2026-04-04T16:42:38Z</time></trkpt><trkpt lat="40.761537502062524" lon="8.738511939972968"><ele>389.5</ele><time>2026-04-04T16:42:39Z</time></trkpt><trkpt lat="40.76145898509309" lon="8.738378233675787"><ele>384.75</ele><time>2026-04-04T16:42:40Z</time></trkpt><trkpt lat="40.761413836583436" lon="8.73821128894697"><ele>380.0</ele><time>2026-04-04T16:42:41Z</time></trkpt><trkpt lat="40.76137930566635" lon="8.73801646507338"><ele>380.0</ele><time>2026-04-04T16:42:42Z</time></trkpt><trkpt lat="40.76136559510847" lon="8.73779982183541"><ele>380.0</ele><time>2026-04-04T16:42:43Z</time></trkpt><trkpt lat="40.761327634131355" lon="8.737596802560182"><ele>380.0</ele><time>2026-04-04T16:42:44Z</time></trkpt><trkpt lat="40.76129698151499" lon="8.737389790798245"><ele>375.33333333333337</ele><time>2026-04-04T16:42:45Z</time></trkpt><trkpt lat="40.76121444377467" lon="8.737176698077908"><ele>370.6666666666667</ele><time>2026-04-04T16:42:46Z</time></trkpt><trkpt lat="40.76114955151827" lon="8.736955999230975"><ele>366.0</ele><time>2026-04-04T16:42:47Z</time></trkpt><trkpt lat="40.761122037933255" lon="8.73676493039342"><ele>362.25</ele><time>2026-04-04T16:42:48Z</time></trkpt><trkpt lat="40.76111066616115" lon="8.736587216652273"><ele>358.5</ele><time>2026-04-04T16:42:49Z</time></trkpt><trkpt lat="40.7611043327637" lon="8.73640233891172"><ele>354.75</ele><time>2026-04-04T16:42:50Z</time></trkpt><trkpt lat="40.76107453028873" lon="8.736239682370838"><ele>351.0</ele><time>2026-04-04T16:42:51Z</time></trkpt><trkpt lat="40.761048403319386" lon="8.736102413254823"><ele>354.5</ele><time>2026-04-04T16:42:52Z</time></trkpt><trkpt lat="40.760999856261456" lon="8.73598179647736"><ele>358.0</ele><time>2026-04-04T16:42:53Z</time></trkpt><trkpt lat="40.76091493458546" lon="8.735886589158632"><ele>361.5</ele><time>2026-04-04T16:42:54Z</time></trkpt><trkpt lat="40.760814686073054" lon="8.73576392304109"><ele>365.0</ele><time>2026-04-04T16:42:55Z</time></trkpt><trkpt lat="40.76072675091045" lon="8.735662096045441"><ele>365.0</ele><time>2026-04-04T16:42:56Z</time></trkpt><trkpt lat="40.760662799128404" lon="8.73557479825553"><ele>365.0</ele><time>2026-04-04T16:42:57Z</time></trkpt><trkpt lat="40.76060413968112" lon="8.735505742733386"><ele>365.0</ele><time>2026-04-04T16:42:58Z</time></trkpt><trkpt lat="40.76059743599746" lon="8.735407125314767"><ele>365.0</ele><time>2026-04-04T16:42:59Z</time></trkpt><trkpt lat="40.76061795530658" lon="8.735270084609452"><ele>365.0</ele><time>2026-04-04T16:43:00Z</time></trkpt><trkpt lat="40.76065756653225" lon="8.735102469190732"><ele>361.75</ele><time>2026-04-04T16:43:01Z</time></trkpt><trkpt lat="40.76069908693851" lon="8.73492370282192"><ele>358.5</ele><time>2026-04-04T16:43:02Z</time></trkpt><trkpt lat="40.760743549528996" lon="8.734747441241737"><ele>355.25</ele><time>2026-04-04T16:43:03Z</time></trkpt><trkpt lat="40.760789200499275" lon="8.734603243144628"><ele>352.0</ele><time>2026-04-04T16:43:04Z</time></trkpt><trkpt lat="40.76084581551159" lon="8.734465246308718"><ele>349.6</ele><time>2026-04-04T16:43:05Z</time></trkpt><trkpt lat="40.760890405933296" lon="8.734349621453921"><ele>347.20000000000005</ele><time>2026-04-04T16:43:06Z</time></trkpt><trkpt lat="40.76091275801179" lon="8.734259212114623"><ele>344.8</ele><time>2026-04-04T16:43:07Z</time></trkpt><trkpt lat="40.76091812327239" lon="8.73412446208288"><ele>342.4</ele><time>2026-04-04T16:43:09Z</time></trkpt><trkpt lat="40.76083374211791" lon="8.7340666775709"><ele>340.0</ele><time>2026-04-04T16:43:10Z</time></trkpt><trkpt lat="40.760716800910494" lon="8.734086062703174"><ele>340.0</ele><time>2026-04-04T16:43:11Z</time></trkpt><trkpt lat="40.76059384555136" lon="8.73410010847119"><ele>340.0</ele><time>2026-04-04T16:43:12Z</time></trkpt><trkpt lat="40.76046604173078" lon="8.734114159085008"><ele>340.0</ele><time>2026-04-04T16:43:13Z</time></trkpt><trkpt lat="40.76034650628299" lon="8.73412707431137"><ele>340.0</ele><time>2026-04-04T16:43:14Z</time></trkpt><trkpt lat="40.76024936806693" lon="8.734133478977435"><ele>338.6</ele><time>2026-04-04T16:43:15Z</time></trkpt><trkpt lat="40.76016634661519" lon="8.734127159722"><ele>337.2</ele><time>2026-04-04T16:43:16Z</time></trkpt><trkpt lat="40.76010147471338" lon="8.73411715740272"><ele>335.79999999999995</ele><time>2026-04-04T16:43:17Z</time></trkpt><trkpt lat="40.76009287083667" lon="8.733976810761607"><ele>334.4</ele><time>2026-04-04T16:43:19Z</time></trkpt><trkpt lat="40.76011827523612" lon="8.733843238435437"><ele>333.0</ele><time>2026-04-04T16:43:20Z</time></trkpt><trkpt lat="40.76017075178172" lon="8.733718858193702"><ele>333.0</ele><time>2026-04-04T16:43:21Z</time></trkpt><trkpt lat="40.76019989633601" lon="8.733640173437017"><ele>333.0</ele><time>2026-04-04T16:43:22Z</time></trkpt><trkpt lat="40.760228857231894" lon="8.733556792710516"><ele>333.0</ele><time>2026-04-04T16:43:23Z</time></trkpt><trkpt lat="40.76019761424217" lon="8.733447228334478"><ele>333.0</ele><time>2026-04-04T16:43:24Z</time></trkpt><trkpt lat="40.76012295562167" lon="8.73331866897266"><ele>333.0</ele><time>2026-04-04T16:43:25Z</time></trkpt><trkpt lat="40.76002999187711" lon="8.733190967387099"><ele>329.25</ele><time>2026-04-04T16:43:26Z</time></trkpt><trkpt lat="40.759950681025906" lon="8.73306925011414"><ele>325.5</ele><time>2026-04-04T16:43:27Z</time></trkpt><trkpt lat="40.75989641341563" lon="8.732924887093533"><ele>321.75</ele><time>2026-04-04T16:43:28Z</time></trkpt><trkpt lat="40.75985857056005" lon="8.732760554645798"><ele>318.0</ele><time>2026-04-04T16:43:29Z</time></trkpt><trkpt lat="40.75981823526637" lon="8.73260389594747"><ele>315.25</ele><time>2026-04-04T16:43:30Z</time></trkpt><trkpt lat="40.75979566282114" lon="8.732445181380868"><ele>312.5</ele><time>2026-04-04T16:43:31Z</time></trkpt><trkpt lat="40.75977440419821" lon="8.732305242826596"><ele>309.75</ele><time>2026-04-04T16:43:32Z</time></trkpt><trkpt lat="40.759735166192655" lon="8.732176752090862"><ele>307.0</ele><time>2026-04-04T16:43:33Z</time></trkpt><trkpt lat="40.75968001818205" lon="8.732024639362946"><ele>305.0</ele><time>2026-04-04T16:43:34Z</time></trkpt><trkpt lat="40.75960200056835" lon="8.731889753335732"><ele>303.0</ele><time>2026-04-04T16:43:35Z</time></trkpt><trkpt lat="40.75952503311018" lon="8.73178201402569"><ele>301.0</ele><time>2026-04-04T16:43:36Z</time></trkpt><trkpt lat="40.7594180628883" lon="8.731671156472824"><ele>299.0</ele><time>2026-04-04T16:43:37.001Z</time></trkpt><trkpt lat="40.75931349077281" lon="8.731578071494894"><ele>298.2</ele><time>2026-04-04T16:43:38.001Z</time></trkpt><trkpt lat="40.75923292417012" lon="8.73152566083857"><ele>297.4</ele><time>2026-04-04T16:43:39.001Z</time></trkpt><trkpt lat="40.75918771478729" lon="8.731440015835407"><ele>296.6</ele><time>2026-04-04T16:43:40.001Z</time></trkpt><trkpt lat="40.75917832244201" lon="8.731317505417168"><ele>295.8</ele><time>2026-04-04T16:43:41.001Z</time></trkpt><trkpt lat="40.75916821162818" lon="8.731152293609249"><ele>295.0</ele><time>2026-04-04T16:43:42.001Z</time></trkpt><trkpt lat="40.75914712387927" lon="8.730955319648531"><ele>291.0</ele><time>2026-04-04T16:43:43.001Z</time></trkpt><trkpt lat="40.75913211737201" lon="8.73073786018812"><ele>287.0</ele><time>2026-04-04T16:43:44.001Z</time></trkpt><trkpt lat="40.75912199419419" lon="8.730519775766838"><ele>283.0</ele><time>2026-04-04T16:43:45.001Z</time></trkpt><trkpt lat="40.759101864592616" lon="8.73031027740586"><ele>280.0</ele><time>2026-04-04T16:43:46.001Z</time></trkpt><trkpt lat="40.75907509155133" lon="8.730106121445012"><ele>277.0</ele><time>2026-04-04T16:43:47.001Z</time></trkpt><trkpt lat="40.759048251425355" lon="8.729906396924022"><ele>274.0</ele><time>2026-04-04T16:43:48.001Z</time></trkpt><trkpt lat="40.759033133085175" lon="8.729710641800082"><ele>274.0</ele><time>2026-04-04T16:43:49.001Z</time></trkpt><trkpt lat="40.75897381288787" lon="8.7295335611588"><ele>274.0</ele><time>2026-04-04T16:43:50.001Z</time></trkpt><trkpt lat="40.75892207684171" lon="8.729353311416512"><ele>274.0</ele><time>2026-04-04T16:43:51.001Z</time></trkpt><trkpt lat="40.75886915874725" lon="8.729164459273965"><ele>274.0</ele><time>2026-04-04T16:43:52.001Z</time></trkpt><trkpt lat="40.758776720615494" lon="8.729028302007663"><ele>272.25</ele><time>2026-04-04T16:43:53.001Z</time></trkpt><trkpt lat="40.75870554580116" lon="8.728871571738154"><ele>270.5</ele><time>2026-04-04T16:43:54.001Z</time></trkpt><trkpt lat="40.75860576255639" lon="8.728750536814658"><ele>268.75</ele><time>2026-04-04T16:43:55.001Z</time></trkpt><trkpt lat="40.75849952648602" lon="8.72866847177235"><ele>267.0</ele><time>2026-04-04T16:43:56.001Z</time></trkpt><trkpt lat="40.75841867881526" lon="8.72855872224342"><ele>265.75</ele><time>2026-04-04T16:43:57.001Z</time></trkpt><trkpt lat="40.758363345760095" lon="8.72841073531024"><ele>264.5</ele><time>2026-04-04T16:43:58.001Z</time></trkpt><trkpt lat="40.758292042009685" lon="8.728243845977943"><ele>263.25</ele><time>2026-04-04T16:43:59.001Z</time></trkpt><trkpt lat="40.758203340950296" lon="8.728070900829561"><ele>262.0</ele><time>2026-04-04T16:44:00.001Z</time></trkpt><trkpt lat="40.75811933856314" lon="8.727879553592421"><ele>262.0</ele><time>2026-04-04T16:44:01.001Z</time></trkpt><trkpt lat="40.75805098425516" lon="8.72769111013076"><ele>262.0</ele><time>2026-04-04T16:44:02.001Z</time></trkpt><trkpt lat="40.75796559524857" lon="8.727572419381604"><ele>262.0</ele><time>2026-04-04T16:44:03.001Z</time></trkpt><trkpt lat="40.75790218142931" lon="8.727433450509674"><ele>262.0</ele><time>2026-04-04T16:44:04.001Z</time></trkpt><trkpt lat="40.75781313430512" lon="8.727326575078523"><ele>262.0</ele><time>2026-04-04T16:44:05.001Z</time></trkpt><trkpt lat="40.75774171659292" lon="8.727192883442038"><ele>262.0</ele><time>2026-04-04T16:44:06.001Z</time></trkpt><trkpt lat="40.757699509905585" lon="8.72705210078353"><ele>262.0</ele><time>2026-04-04T16:44:07.001Z</time></trkpt><trkpt lat="40.75765058006798" lon="8.726938835495408"><ele>262.0</ele><time>2026-04-04T16:44:08.001Z</time></trkpt><trkpt lat="40.757603379042195" lon="8.72683005197871"><ele>262.0</ele><time>2026-04-04T16:44:09.001Z</time></trkpt><trkpt lat="40.75755477405076" lon="8.726730782449062"><ele>261.3333333333333</ele><time>2026-04-04T16:44:10.001Z</time></trkpt><trkpt lat="40.75754615343011" lon="8.726629276284864"><ele>260.66666666666663</ele><time>2026-04-04T16:44:11.001Z</time></trkpt><trkpt lat="40.75755001053821" lon="8.726525596172179"><ele>260.0</ele><time>2026-04-04T16:44:12.001Z</time></trkpt><trkpt lat="40.757569650413615" lon="8.726425141599666"><ele>259.3333333333333</ele><time>2026-04-04T16:44:13.001Z</time></trkpt><trkpt lat="40.75758652123812" lon="8.726327351389898"><ele>258.6666666666667</ele><time>2026-04-04T16:44:14.001Z</time></trkpt><trkpt lat="40.75758199143334" lon="8.726224917106121"><ele>258.0</ele><time>2026-04-04T16:44:15.001Z</time></trkpt><trkpt lat="40.75752681011936" lon="8.726065758013707"><ele>257.6</ele><time>2026-04-04T16:44:17.001Z</time></trkpt><trkpt lat="40.757429899861826" lon="8.726028811312851"><ele>257.20000000000005</ele><time>2026-04-04T16:44:18.001Z</time></trkpt><trkpt lat="40.75735105564213" lon="8.725987057558791"><ele>256.8</ele><time>2026-04-04T16:44:19.001Z</time></trkpt><trkpt lat="40.75728160021902" lon="8.72594283373916"><ele>256.40000000000003</ele><time>2026-04-04T16:44:20Z</time></trkpt><trkpt lat="40.757191076330436" lon="8.725954997761976"><ele>256.0</ele><time>2026-04-04T16:44:21Z</time></trkpt><trkpt lat="40.757119661274714" lon="8.726042193800117"><ele>255.99999999999997</ele><time>2026-04-04T16:44:22Z</time></trkpt><trkpt lat="40.757052860989674" lon="8.726086619042492"><ele>256.0</ele><time>2026-04-04T16:44:23Z</time></trkpt><trkpt lat="40.757006672428595" lon="8.7261493959187"><ele>256.0</ele><time>2026-04-04T16:44:24Z</time></trkpt><trkpt lat="40.756906011105855" lon="8.726104701653963"><ele>256.0</ele><time>2026-04-04T16:44:26Z</time></trkpt><trkpt lat="40.756890219853936" lon="8.725997324317465"><ele>255.99999999999997</ele><time>2026-04-04T16:44:27Z</time></trkpt><trkpt lat="40.75689733631755" lon="8.725884816001347"><ele>256.0</ele><time>2026-04-04T16:44:28Z</time></trkpt><trkpt lat="40.75691102369373" lon="8.725767552410217"><ele>256.0</ele><time>2026-04-04T16:44:29Z</time></trkpt><trkpt lat="40.75692990921036" lon="8.72564009107575"><ele>256.0</ele><time>2026-04-04T16:44:30Z</time></trkpt><trkpt lat="40.75693257273155" lon="8.725501178651733"><ele>256.0</ele><time>2026-04-04T16:44:31Z</time></trkpt><trkpt lat="40.75693943274311" lon="8.725376952378397"><ele>256.0</ele><time>2026-04-04T16:44:32Z</time></trkpt><trkpt lat="40.7569133509478" lon="8.725244677628197"><ele>256.0</ele><time>2026-04-04T16:44:33Z</time></trkpt><trkpt lat="40.75686964577468" lon="8.725096960620983"><ele>253.4</ele><time>2026-04-04T16:44:34Z</time></trkpt><trkpt lat="40.75684782378746" lon="8.724971881733186"><ele>250.8</ele><time>2026-04-04T16:44:35Z</time></trkpt><trkpt lat="40.756820890148646" lon="8.724862051086197"><ele>248.20000000000002</ele><time>2026-04-04T16:44:36Z</time></trkpt><trkpt lat="40.75684526050153" lon="8.724740405558412"><ele>245.60000000000002</ele><time>2026-04-04T16:44:37Z</time></trkpt><trkpt lat="40.756829585289054" lon="8.724643987182768"><ele>243.0</ele><time>2026-04-04T16:44:38Z</time></trkpt><trkpt lat="40.756811218132185" lon="8.724500896893913"><ele>243.0</ele><time>2026-04-04T16:44:40Z</time></trkpt><trkpt lat="40.75676747933224" lon="8.72443321735007"><ele>243.0</ele><time>2026-04-04T16:44:41Z</time></trkpt><trkpt lat="40.756650984169944" lon="8.724360603126557"><ele>243.0</ele><time>2026-04-04T16:44:43Z</time></trkpt><trkpt lat="40.75658740739643" lon="8.724321565934876"><ele>243.0</ele><time>2026-04-04T16:44:44Z</time></trkpt><trkpt lat="40.75656326192185" lon="8.724171871037065"><ele>243.0</ele><time>2026-04-04T16:44:46Z</time></trkpt><trkpt lat="40.75664406873013" lon="8.724035452938368"><ele>242.2</ele><time>2026-04-04T16:44:48Z</time></trkpt><trkpt lat="40.75667858082331" lon="8.723954371168542"><ele>241.4</ele><time>2026-04-04T16:44:49Z</time></trkpt><trkpt lat="40.756696382336706" lon="8.723818342065604"><ele>240.59999999999997</ele><time>2026-04-04T16:44:50Z</time></trkpt><trkpt lat="40.75670125332198" lon="8.723678037187097"><ele>239.79999999999998</ele><time>2026-04-04T16:44:51Z</time></trkpt><trkpt lat="40.75669281606418" lon="8.723554128036739"><ele>239.0</ele><time>2026-04-04T16:44:52Z</time></trkpt><trkpt lat="40.75668189417801" lon="8.723436733740762"><ele>238.6</ele><time>2026-04-04T16:44:53Z</time></trkpt><trkpt lat="40.756655640065865" lon="8.723312706208128"><ele>238.2</ele><time>2026-04-04T16:44:54Z</time></trkpt><trkpt lat="40.75663209427928" lon="8.723169866323374"><ele>237.79999999999998</ele><time>2026-04-04T16:44:55Z</time></trkpt><trkpt lat="40.75661297961652" lon="8.723044676883799"><ele>237.39999999999998</ele><time>2026-04-04T16:44:56Z</time></trkpt><trkpt lat="40.75659649118119" lon="8.722943130376825"><ele>237.0</ele><time>2026-04-04T16:44:57Z</time></trkpt><trkpt lat="40.75653785384267" lon="8.722813929896493"><ele>237.0</ele><time>2026-04-04T16:44:59Z</time></trkpt><trkpt lat="40.7564552757363" lon="8.722768802659045"><ele>237.0</ele><time>2026-04-04T16:45:00Z</time></trkpt><trkpt lat="40.75639221310071" lon="8.722737753561699"><ele>237.0</ele><time>2026-04-04T16:45:01Z</time></trkpt><trkpt lat="40.75637261363966" lon="8.72262029340513"><ele>237.0</ele><time>2026-04-04T16:45:03Z</time></trkpt><trkpt lat="40.75641765502125" lon="8.722528299898705"><ele>237.0</ele><time>2026-04-04T16:45:04Z</time></trkpt><trkpt lat="40.756460670878035" lon="8.72237923355018"><ele>235.25</ele><time>2026-04-04T16:45:05Z</time></trkpt><trkpt lat="40.75652614213545" lon="8.72222987492934"><ele>233.5</ele><time>2026-04-04T16:45:06Z</time></trkpt><trkpt lat="40.75657060551025" lon="8.722102814152409"><ele>231.75</ele><time>2026-04-04T16:45:07Z</time></trkpt><trkpt lat="40.75660421922749" lon="8.721975694371114"><ele>230.0</ele><time>2026-04-04T16:45:08Z</time></trkpt><trkpt lat="40.75662246010346" lon="8.721831105003796"><ele>229.6</ele><time>2026-04-04T16:45:09Z</time></trkpt><trkpt lat="40.75662941255755" lon="8.721682514857"><ele>229.2</ele><time>2026-04-04T16:45:10Z</time></trkpt><trkpt lat="40.75661245697786" lon="8.721545121823693"><ele>228.8</ele><time>2026-04-04T16:45:11Z</time></trkpt><trkpt lat="40.756571918373695" lon="8.72142125446849"><ele>228.4</ele><time>2026-04-04T16:45:12Z</time></trkpt><trkpt lat="40.7565373410027" lon="8.721294118285446"><ele>228.0</ele><time>2026-04-04T16:45:13Z</time></trkpt><trkpt lat="40.756452015097565" lon="8.721233419265198"><ele>228.0</ele><time>2026-04-04T16:45:14Z</time></trkpt><trkpt lat="40.7563970411978" lon="8.721150568976663"><ele>228.0</ele><time>2026-04-04T16:45:15Z</time></trkpt><trkpt lat="40.756338501474396" lon="8.721068181824755"><ele>228.0</ele><time>2026-04-04T16:45:16Z</time></trkpt><trkpt lat="40.7563099876279" lon="8.720975090213996"><ele>228.0</ele><time>2026-04-04T16:45:17Z</time></trkpt><trkpt lat="40.75628443742601" lon="8.720853537286313"><ele>228.0</ele><time>2026-04-04T16:45:18Z</time></trkpt><trkpt lat="40.756244689699116" lon="8.720699537489665"><ele>227.5</ele><time>2026-04-04T16:45:19Z</time></trkpt><trkpt lat="40.75623133104925" lon="8.720541723165336"><ele>227.0</ele><time>2026-04-04T16:45:20Z</time></trkpt><trkpt lat="40.75619974167306" lon="8.720358840697223"><ele>226.5</ele><time>2026-04-04T16:45:21Z</time></trkpt><trkpt lat="40.75618174458857" lon="8.72017661221786"><ele>226.0</ele><time>2026-04-04T16:45:22Z</time></trkpt><trkpt lat="40.75617274884582" lon="8.720034124237186"><ele>227.25</ele><time>2026-04-04T16:45:23Z</time></trkpt><trkpt lat="40.75617413764947" lon="8.719878886704148"><ele>228.5</ele><time>2026-04-04T16:45:24Z</time></trkpt><trkpt lat="40.75618933387644" lon="8.719722709484254"><ele>229.75</ele><time>2026-04-04T16:45:25Z</time></trkpt><trkpt lat="40.75618844944556" lon="8.719574833058898"><ele>231.0</ele><time>2026-04-04T16:45:26Z</time></trkpt><trkpt lat="40.75618508470781" lon="8.719415203976943"><ele>232.25</ele><time>2026-04-04T16:45:27Z</time></trkpt><trkpt lat="40.75618101975037" lon="8.719249631408776"><ele>233.5</ele><time>2026-04-04T16:45:28Z</time></trkpt><trkpt lat="40.75617537085462" lon="8.719126215503024"><ele>234.75</ele><time>2026-04-04T16:45:29Z</time></trkpt><trkpt lat="40.75613909494973" lon="8.718992730758478"><ele>236.0</ele><time>2026-04-04T16:45:30Z</time></trkpt><trkpt lat="40.756085657472966" lon="8.718818166652254"><ele>235.8</ele><time>2026-04-04T16:45:31Z</time></trkpt><trkpt lat="40.7560225646856" lon="8.718642464609905"><ele>235.60000000000002</ele><time>2026-04-04T16:45:32Z</time></trkpt><trkpt lat="40.75597166547766" lon="8.718503224136745"><ele>235.4</ele><time>2026-04-04T16:45:33Z</time></trkpt><trkpt lat="40.7559383196886" lon="8.718414229914599"><ele>235.2</ele><time>2026-04-04T16:45:34Z</time></trkpt><trkpt lat="40.75593536458963" lon="8.718286552605237"><ele>235.0</ele><time>2026-04-04T16:45:36Z</time></trkpt><trkpt lat="40.755993407584015" lon="8.718166686105596"><ele>235.0</ele><time>2026-04-04T16:45:38Z</time></trkpt><trkpt lat="40.75606325878142" lon="8.718064849092086"><ele>235.0</ele><time>2026-04-04T16:45:40Z</time></trkpt><trkpt lat="40.75600067754552" lon="8.717993474324912"><ele>235.0</ele><time>2026-04-04T16:45:41Z</time></trkpt><trkpt lat="40.75597388413063" lon="8.717886254645723"><ele>235.0</ele><time>2026-04-04T16:45:42Z</time></trkpt><trkpt lat="40.75594054322834" lon="8.717777076372629"><ele>235.0</ele><time>2026-04-04T16:45:43.001Z</time></trkpt><trkpt lat="40.755898731101475" lon="8.717645157154346"><ele>235.0</ele><time>2026-04-04T16:45:44.001Z</time></trkpt><trkpt lat="40.75590010469046" lon="8.717502066758332"><ele>235.0</ele><time>2026-04-04T16:45:45.001Z</time></trkpt><trkpt lat="40.75588877193198" lon="8.717359114964491"><ele>235.0</ele><time>2026-04-04T16:45:46.001Z</time></trkpt><trkpt lat="40.75584779853637" lon="8.717245905802994"><ele>235.0</ele><time>2026-04-04T16:45:47.001Z</time></trkpt><trkpt lat="40.755763454781615" lon="8.717162135585454"><ele>235.0</ele><time>2026-04-04T16:45:48.001Z</time></trkpt><trkpt lat="40.755731564180245" lon="8.71705023643961"><ele>235.0</ele><time>2026-04-04T16:45:49.001Z</time></trkpt><trkpt lat="40.755723620768656" lon="8.716922743029643"><ele>235.0</ele><time>2026-04-04T16:45:50.001Z</time></trkpt><trkpt lat="40.75569728713627" lon="8.716787296846244"><ele>235.0</ele><time>2026-04-04T16:45:51.001Z</time></trkpt><trkpt lat="40.75567379503682" lon="8.716642874495625"><ele>235.0</ele><time>2026-04-04T16:45:52.001Z</time></trkpt><trkpt lat="40.75565075553108" lon="8.716513328310574"><ele>235.0</ele><time>2026-04-04T16:45:53.001Z</time></trkpt><trkpt lat="40.755600455779394" lon="8.716417062309667"><ele>235.8</ele><time>2026-04-04T16:45:54.001Z</time></trkpt><trkpt lat="40.75554827139931" lon="8.716317340686048"><ele>236.6</ele><time>2026-04-04T16:45:55.001Z</time></trkpt><trkpt lat="40.75549878745245" lon="8.71619577607854"><ele>237.39999999999998</ele><time>2026-04-04T16:45:56.001Z</time></trkpt><trkpt lat="40.75546258196241" lon="8.716061098692622"><ele>238.2</ele><time>2026-04-04T16:45:57.001Z</time></trkpt><trkpt lat="40.75543603832687" lon="8.715941108915441"><ele>239.0</ele><time>2026-04-04T16:45:58.001Z</time></trkpt><trkpt lat="40.755374446635116" lon="8.71580632737287"><ele>240.2</ele><time>2026-04-04T16:45:59.001Z</time></trkpt><trkpt lat="40.75532913706593" lon="8.715668279436928"><ele>241.39999999999998</ele><time>2026-04-04T16:46:00.001Z</time></trkpt><trkpt lat="40.755329989381586" lon="8.715529269933924"><ele>242.6</ele><time>2026-04-04T16:46:01.001Z</time></trkpt><trkpt lat="40.75533859585481" lon="8.715392200520364"><ele>243.8</ele><time>2026-04-04T16:46:02.001Z</time></trkpt><trkpt lat="40.755340340918465" lon="8.71525703512964"><ele>245.0</ele><time>2026-04-04T16:46:03.001Z</time></trkpt><trkpt lat="40.75534667367911" lon="8.715167015063075"><ele>245.50000000000003</ele><time>2026-04-04T16:46:04.001Z</time></trkpt><trkpt lat="40.755372121258254" lon="8.715057866332677"><ele>246.0</ele><time>2026-04-04T16:46:09.001Z</time></trkpt><trkpt lat="40.755294503289136" lon="8.715012865256389"><ele>246.5</ele><time>2026-04-04T16:46:11.001Z</time></trkpt><trkpt lat="40.75522837512402" lon="8.715149711551575"><ele>247.0</ele><time>2026-04-04T16:46:13.001Z</time></trkpt><trkpt lat="40.75518458549313" lon="8.715228174469146"><ele>247.50000000000003</ele><time>2026-04-04T16:46:14.001Z</time></trkpt><trkpt lat="40.75513382192468" lon="8.715299546522033"><ele>248.0</ele><time>2026-04-04T16:46:15.001Z</time></trkpt><trkpt lat="40.75504099511432" lon="8.715315746823395"><ele>250.66666666666669</ele><time>2026-04-04T16:46:17.001Z</time></trkpt><trkpt lat="40.75496908567085" lon="8.715227569577982"><ele>253.33333333333334</ele><time>2026-04-04T16:46:19.001Z</time></trkpt><trkpt lat="40.754917458845924" lon="8.715145076559555"><ele>256.0</ele><time>2026-04-04T16:46:20.001Z</time></trkpt><trkpt lat="40.754847254791414" lon="8.715057299072292"><ele>258.6666666666667</ele><time>2026-04-04T16:46:21.001Z</time></trkpt><trkpt lat="40.75479847556402" lon="8.714976500122045"><ele>261.3333333333333</ele><time>2026-04-04T16:46:22.001Z</time></trkpt><trkpt lat="40.754777758553786" lon="8.714869236400707"><ele>264.0</ele><time>2026-04-04T16:46:23.001Z</time></trkpt><trkpt lat="40.754772721116275" lon="8.714747733038488"><ele>264.0</ele><time>2026-04-04T16:46:24.001Z</time></trkpt><trkpt lat="40.75478681779645" lon="8.71462630899621"><ele>264.0</ele><time>2026-04-04T16:46:25.001Z</time></trkpt><trkpt lat="40.75481623147978" lon="8.714515702886917"><ele>264.0</ele><time>2026-04-04T16:46:26Z</time></trkpt><trkpt lat="40.75486313960353" lon="8.714425892450718"><ele>264.0</ele><time>2026-04-04T16:46:27Z</time></trkpt><trkpt lat="40.75492744060147" lon="8.714344759538289"><ele>264.0</ele><time>2026-04-04T16:46:28Z</time></trkpt><trkpt lat="40.755021705979956" lon="8.714253010345667"><ele>265.2</ele><time>2026-04-04T16:46:29Z</time></trkpt><trkpt lat="40.75511095399025" lon="8.714153054834389"><ele>266.4</ele><time>2026-04-04T16:46:30Z</time></trkpt><trkpt lat="40.75516491611083" lon="8.71407760523725"><ele>267.6</ele><time>2026-04-04T16:46:31Z</time></trkpt><trkpt lat="40.755209968650966" lon="8.713986598410266"><ele>268.8</ele><time>2026-04-04T16:46:32Z</time></trkpt><trkpt lat="40.75524888080705" lon="8.713871859786563"><ele>270.0</ele><time>2026-04-04T16:46:33Z</time></trkpt><trkpt lat="40.755276887648996" lon="8.713768768941561"><ele>271.0</ele><time>2026-04-04T16:46:34Z</time></trkpt><trkpt lat="40.755281112613176" lon="8.713678219875204"><ele>272.0</ele><time>2026-04-04T16:46:35Z</time></trkpt><trkpt lat="40.755239292766056" lon="8.7135419785542"><ele>273.0</ele><time>2026-04-04T16:46:37Z</time></trkpt><trkpt lat="40.75519973141908" lon="8.713444002140944"><ele>274.0</ele><time>2026-04-04T16:46:38Z</time></trkpt><trkpt lat="40.755173227247425" lon="8.713296314805808"><ele>275.0</ele><time>2026-04-04T16:46:39Z</time></trkpt><trkpt lat="40.755163597728945" lon="8.71313793921079"><ele>275.0</ele><time>2026-04-04T16:46:40Z</time></trkpt><trkpt lat="40.75515144659537" lon="8.712956265635633"><ele>275.0</ele><time>2026-04-04T16:46:41Z</time></trkpt><trkpt lat="40.75512959666072" lon="8.712756804390736"><ele>275.0</ele><time>2026-04-04T16:46:42Z</time></trkpt><trkpt lat="40.75511955854637" lon="8.712568127085728"><ele>275.0</ele><time>2026-04-04T16:46:43Z</time></trkpt><trkpt lat="40.755100480838486" lon="8.71235316968745"><ele>277.0</ele><time>2026-04-04T16:46:44Z</time></trkpt><trkpt lat="40.755103670345555" lon="8.712150611381977"><ele>279.0</ele><time>2026-04-04T16:46:45Z</time></trkpt><trkpt lat="40.755090793103626" lon="8.711964586610609"><ele>281.0</ele><time>2026-04-04T16:46:46Z</time></trkpt><trkpt lat="40.75509384466911" lon="8.711809518256288"><ele>283.0</ele><time>2026-04-04T16:46:47Z</time></trkpt><trkpt lat="40.75510118768869" lon="8.711663743099516"><ele>286.25</ele><time>2026-04-04T16:46:48Z</time></trkpt><trkpt lat="40.755093216335936" lon="8.71148723037624"><ele>289.5</ele><time>2026-04-04T16:46:49Z</time></trkpt><trkpt lat="40.75506055306645" lon="8.711298742935085"><ele>292.75</ele><time>2026-04-04T16:46:50Z</time></trkpt><trkpt lat="40.7550650769422" lon="8.711126719336912"><ele>296.0</ele><time>2026-04-04T16:46:51Z</time></trkpt><trkpt lat="40.755062176210714" lon="8.710961853284646"><ele>295.2</ele><time>2026-04-04T16:46:52Z</time></trkpt><trkpt lat="40.755081436133686" lon="8.710813585997736"><ele>294.40000000000003</ele><time>2026-04-04T16:46:53Z</time></trkpt><trkpt lat="40.75509355871032" lon="8.710684440118861"><ele>293.6</ele><time>2026-04-04T16:46:54Z</time></trkpt><trkpt lat="40.755125228398974" lon="8.710594292819259"><ele>292.8</ele><time>2026-04-04T16:46:55Z</time></trkpt><trkpt lat="40.75520476504412" lon="8.710525037455158"><ele>292.0</ele><time>2026-04-04T16:46:56Z</time></trkpt><trkpt lat="40.75526907859852" lon="8.71039450507325"><ele>292.0</ele><time>2026-04-04T16:46:57Z</time></trkpt><trkpt lat="40.755319426331475" lon="8.710291049129882"><ele>292.0</ele><time>2026-04-04T16:46:58Z</time></trkpt><trkpt lat="40.75533493175582" lon="8.71019745754981"><ele>292.0</ele><time>2026-04-04T16:46:59Z</time></trkpt><trkpt lat="40.755331813198005" lon="8.71008368085985"><ele>292.0</ele><time>2026-04-04T16:47:00Z</time></trkpt><trkpt lat="40.755324169591994" lon="8.709935551163086"><ele>292.0</ele><time>2026-04-04T16:47:01Z</time></trkpt><trkpt lat="40.755315344287524" lon="8.70976949291509"><ele>294.75</ele><time>2026-04-04T16:47:02Z</time></trkpt><trkpt lat="40.755298368786754" lon="8.709587538432299"><ele>297.5</ele><time>2026-04-04T16:47:03Z</time></trkpt><trkpt lat="40.75528647276407" lon="8.709450834683427"><ele>300.25</ele><time>2026-04-04T16:47:04Z</time></trkpt><trkpt lat="40.75531065206956" lon="8.709328557642806"><ele>303.0</ele><time>2026-04-04T16:47:05Z</time></trkpt><trkpt lat="40.755356924728886" lon="8.709193988204506"><ele>305.75</ele><time>2026-04-04T16:47:06Z</time></trkpt><trkpt lat="40.75540368666467" lon="8.709033038342174"><ele>308.5</ele><time>2026-04-04T16:47:07Z</time></trkpt><trkpt lat="40.75544742919253" lon="8.708859144416724"><ele>311.25</ele><time>2026-04-04T16:47:08Z</time></trkpt><trkpt lat="40.755475948277514" lon="8.708680349823764"><ele>314.0</ele><time>2026-04-04T16:47:09Z</time></trkpt><trkpt lat="40.75548443539767" lon="8.708517136289265"><ele>316.75</ele><time>2026-04-04T16:47:10Z</time></trkpt><trkpt lat="40.7554817732328" lon="8.708357950450766"><ele>319.5</ele><time>2026-04-04T16:47:11Z</time></trkpt><trkpt lat="40.75548561377937" lon="8.708193454109686"><ele>322.25</ele><time>2026-04-04T16:47:12Z</time></trkpt><trkpt lat="40.75548562948642" lon="8.708040866478543"><ele>325.0</ele><time>2026-04-04T16:47:13Z</time></trkpt><trkpt lat="40.75547263194763" lon="8.707920763891174"><ele>325.0</ele><time>2026-04-04T16:47:14Z</time></trkpt><trkpt lat="40.75544984858577" lon="8.707798633925044"><ele>325.0</ele><time>2026-04-04T16:47:15Z</time></trkpt><trkpt lat="40.755431809965586" lon="8.707649078002657"><ele>325.0</ele><time>2026-04-04T16:47:16Z</time></trkpt><trkpt lat="40.755411968162285" lon="8.70748543402458"><ele>325.0</ele><time>2026-04-04T16:47:17Z</time></trkpt><trkpt lat="40.755390017935106" lon="8.70730964335695"><ele>324.75</ele><time>2026-04-04T16:47:18Z</time></trkpt><trkpt lat="40.75536006837996" lon="8.70713457553244"><ele>324.5</ele><time>2026-04-04T16:47:19Z</time></trkpt><trkpt lat="40.75532560838498" lon="8.706960128305683"><ele>324.25</ele><time>2026-04-04T16:47:20Z</time></trkpt><trkpt lat="40.75528651977376" lon="8.706780184347679"><ele>324.0</ele><time>2026-04-04T16:47:21Z</time></trkpt><trkpt lat="40.75524978756792" lon="8.706601233247259"><ele>323.5</ele><time>2026-04-04T16:47:22Z</time></trkpt><trkpt lat="40.755214229952145" lon="8.706429247291801"><ele>323.0</ele><time>2026-04-04T16:47:23Z</time></trkpt><trkpt lat="40.75519462932819" lon="8.706291587370606"><ele>322.5</ele><time>2026-04-04T16:47:24Z</time></trkpt><trkpt lat="40.75517907215879" lon="8.706163248988853"><ele>322.0</ele><time>2026-04-04T16:47:25Z</time></trkpt><trkpt lat="40.75515437395094" lon="8.706010178765231"><ele>331.75</ele><time>2026-04-04T16:47:26Z</time></trkpt><trkpt lat="40.755117643533666" lon="8.705850498523043"><ele>341.5</ele><time>2026-04-04T16:47:27Z</time></trkpt><trkpt lat="40.75507394520751" lon="8.705701387949103"><ele>351.25</ele><time>2026-04-04T16:47:28Z</time></trkpt><trkpt lat="40.75502953197402" lon="8.70556850288446"><ele>361.0</ele><time>2026-04-04T16:47:29Z</time></trkpt><trkpt lat="40.75499069163521" lon="8.705450496193889"><ele>361.0</ele><time>2026-04-04T16:47:30Z</time></trkpt><trkpt lat="40.75493203410384" lon="8.705340997299123"><ele>361.0</ele><time>2026-04-04T16:47:31Z</time></trkpt><trkpt lat="40.75485153707537" lon="8.705231281887556"><ele>361.0</ele><time>2026-04-04T16:47:32Z</time></trkpt><trkpt lat="40.754776803130675" lon="8.70510734825612"><ele>361.0</ele><time>2026-04-04T16:47:33Z</time></trkpt><trkpt lat="40.754721084148706" lon="8.704999906334757"><ele>361.0</ele><time>2026-04-04T16:47:34Z</time></trkpt><trkpt lat="40.75469121712808" lon="8.704887626644062"><ele>358.75</ele><time>2026-04-04T16:47:35Z</time></trkpt><trkpt lat="40.75464972314112" lon="8.704737851793219"><ele>356.5</ele><time>2026-04-04T16:47:36Z</time></trkpt><trkpt lat="40.75459368084262" lon="8.70458096655763"><ele>354.25</ele><time>2026-04-04T16:47:37Z</time></trkpt><trkpt lat="40.754532371730306" lon="8.704420273790577"><ele>352.0</ele><time>2026-04-04T16:47:38Z</time></trkpt><trkpt lat="40.75445860607724" lon="8.704253956601868"><ele>351.20000000000005</ele><time>2026-04-04T16:47:39Z</time></trkpt><trkpt lat="40.75439378083473" lon="8.704142258233594"><ele>350.4</ele><time>2026-04-04T16:47:40Z</time></trkpt><trkpt lat="40.75433197864142" lon="8.70406147347988"><ele>349.6</ele><time>2026-04-04T16:47:41Z</time></trkpt><trkpt lat="40.75426253287497" lon="8.703960669075835"><ele>348.79999999999995</ele><time>2026-04-04T16:47:42Z</time></trkpt><trkpt lat="40.754205632247384" lon="8.70382326903416"><ele>348.0</ele><time>2026-04-04T16:47:43Z</time></trkpt><trkpt lat="40.75415524090307" lon="8.703673434096173"><ele>355.25</ele><time>2026-04-04T16:47:44Z</time></trkpt><trkpt lat="40.754083358986605" lon="8.703536784920123"><ele>362.5</ele><time>2026-04-04T16:47:45Z</time></trkpt><trkpt lat="40.75400294842664" lon="8.703409000510621"><ele>369.75</ele><time>2026-04-04T16:47:46Z</time></trkpt><trkpt lat="40.75391450531655" lon="8.703265576723217"><ele>377.0</ele><time>2026-04-04T16:47:47Z</time></trkpt><trkpt lat="40.753813888785274" lon="8.703111098967822"><ele>377.0</ele><time>2026-04-04T16:47:48Z</time></trkpt><trkpt lat="40.75371932914698" lon="8.702959150927514"><ele>377.0</ele><time>2026-04-04T16:47:49Z</time></trkpt><trkpt lat="40.75363391721151" lon="8.702820541721369"><ele>377.0</ele><time>2026-04-04T16:47:50.001Z</time></trkpt><trkpt lat="40.75355693220296" lon="8.702692074211612"><ele>377.0</ele><time>2026-04-04T16:47:51.001Z</time></trkpt><trkpt lat="40.75348845014899" lon="8.702555333213743"><ele>378.8</ele><time>2026-04-04T16:47:52.001Z</time></trkpt><trkpt lat="40.753428554991146" lon="8.702415686467344"><ele>380.6</ele><time>2026-04-04T16:47:53.001Z</time></trkpt><trkpt lat="40.75338449310389" lon="8.702294344712914"><ele>382.40000000000003</ele><time>2026-04-04T16:47:54.001Z</time></trkpt><trkpt lat="40.75334427469245" lon="8.70219713065548"><ele>384.20000000000005</ele><time>2026-04-04T16:47:55.001Z</time></trkpt><trkpt lat="40.75333065546614" lon="8.702102517199405"><ele>386.0</ele><time>2026-04-04T16:47:56.001Z</time></trkpt><trkpt lat="40.75333772089061" lon="8.702005078048082"><ele>388.75</ele><time>2026-04-04T16:47:57.001Z</time></trkpt><trkpt lat="40.753362267405954" lon="8.701877891335277"><ele>391.5</ele><time>2026-04-04T16:47:58.001Z</time></trkpt><trkpt lat="40.7533998712115" lon="8.701725153450337"><ele>394.25</ele><time>2026-04-04T16:47:59.001Z</time></trkpt><trkpt lat="40.75344682243592" lon="8.701568603123775"><ele>397.0</ele><time>2026-04-04T16:48:00.001Z</time></trkpt><trkpt lat="40.753482394294856" lon="8.701403307654257"><ele>397.0</ele><time>2026-04-04T16:48:01.001Z</time></trkpt><trkpt lat="40.75350861747064" lon="8.701228001954695"><ele>397.0</ele><time>2026-04-04T16:48:02.001Z</time></trkpt><trkpt lat="40.75355862309082" lon="8.70104300994741"><ele>397.0</ele><time>2026-04-04T16:48:03.001Z</time></trkpt><trkpt lat="40.753613004957266" lon="8.700886036403631"><ele>397.0</ele><time>2026-04-04T16:48:04.001Z</time></trkpt><trkpt lat="40.753668971465444" lon="8.700755621206454"><ele>395.20000000000005</ele><time>2026-04-04T16:48:05.001Z</time></trkpt><trkpt lat="40.75372328716358" lon="8.700631891704036"><ele>393.4</ele><time>2026-04-04T16:48:06.001Z</time></trkpt><trkpt lat="40.75376204441322" lon="8.700500700097413"><ele>391.6</ele><time>2026-04-04T16:48:07.001Z</time></trkpt><trkpt lat="40.75378427786577" lon="8.700374104759328"><ele>389.79999999999995</ele><time>2026-04-04T16:48:08.001Z</time></trkpt><trkpt lat="40.75379866027063" lon="8.70026124491864"><ele>388.0</ele><time>2026-04-04T16:48:09.001Z</time></trkpt><trkpt lat="40.75381595299709" lon="8.700138637626706"><ele>388.0</ele><time>2026-04-04T16:48:10.001Z</time></trkpt><trkpt lat="40.75383061016569" lon="8.699982967758782"><ele>388.0</ele><time>2026-04-04T16:48:11.001Z</time></trkpt><trkpt lat="40.75384023942272" lon="8.69981320889194"><ele>388.0</ele><time>2026-04-04T16:48:12.001Z</time></trkpt><trkpt lat="40.753842302562454" lon="8.69964923965335"><ele>388.0</ele><time>2026-04-04T16:48:13.001Z</time></trkpt><trkpt lat="40.75384437631671" lon="8.69949080193075"><ele>390.4</ele><time>2026-04-04T16:48:14.001Z</time></trkpt><trkpt lat="40.75384563623231" lon="8.699358322180258"><ele>392.79999999999995</ele><time>2026-04-04T16:48:15.001Z</time></trkpt><trkpt lat="40.75383915981732" lon="8.699228906882812"><ele>395.2</ele><time>2026-04-04T16:48:16.001Z</time></trkpt><trkpt lat="40.753815797384995" lon="8.699101598632142"><ele>397.6</ele><time>2026-04-04T16:48:17.001Z</time></trkpt><trkpt lat="40.75376437944141" lon="8.698946794821477"><ele>400.0</ele><time>2026-04-04T16:48:18.001Z</time></trkpt><trkpt lat="40.75367978794298" lon="8.698777034393064"><ele>400.0</ele><time>2026-04-04T16:48:19.001Z</time></trkpt><trkpt lat="40.75359399292627" lon="8.698595061842422"><ele>400.0</ele><time>2026-04-04T16:48:20.001Z</time></trkpt><trkpt lat="40.753520327431715" lon="8.698416429002316"><ele>400.0</ele><time>2026-04-04T16:48:21.001Z</time></trkpt><trkpt lat="40.75346622793921" lon="8.698231361409873"><ele>404.0</ele><time>2026-04-04T16:48:22.001Z</time></trkpt><trkpt lat="40.75342020275409" lon="8.698048787290075"><ele>408.0</ele><time>2026-04-04T16:48:23.001Z</time></trkpt><trkpt lat="40.75337036371863" lon="8.69789731746207"><ele>412.0</ele><time>2026-04-04T16:48:24.001Z</time></trkpt><trkpt lat="40.753322799560316" lon="8.697774442648212"><ele>416.0</ele><time>2026-04-04T16:48:25.001Z</time></trkpt><trkpt lat="40.75329413840929" lon="8.697691240393313"><ele>420.0</ele><time>2026-04-04T16:48:26.001Z</time></trkpt><trkpt lat="40.7532588251986" lon="8.697617700036716"><ele>421.0</ele><time>2026-04-04T16:48:27.001Z</time></trkpt><trkpt lat="40.75320005242772" lon="8.697549640637465"><ele>422.0</ele><time>2026-04-04T16:48:28.001Z</time></trkpt><trkpt lat="40.753128841476" lon="8.697467685525584"><ele>423.0</ele><time>2026-04-04T16:48:29.001Z</time></trkpt><trkpt lat="40.75309435490562" lon="8.697364406778062"><ele>424.0</ele><time>2026-04-04T16:48:30.001Z</time></trkpt><trkpt lat="40.75307788372634" lon="8.697235478063803"><ele>425.0</ele><time>2026-04-04T16:48:31.001Z</time></trkpt><trkpt lat="40.753063051070455" lon="8.697063204183769"><ele>424.25</ele><time>2026-04-04T16:48:32Z</time></trkpt><trkpt lat="40.7530476901772" lon="8.696892890459702"><ele>423.5</ele><time>2026-04-04T16:48:33Z</time></trkpt><trkpt lat="40.75304430097393" lon="8.6967267562643"><ele>422.75</ele><time>2026-04-04T16:48:34Z</time></trkpt><trkpt lat="40.753043978687344" lon="8.696569307066055"><ele>422.0</ele><time>2026-04-04T16:48:35Z</time></trkpt><trkpt lat="40.753048266481294" lon="8.696406924132413"><ele>422.0</ele><time>2026-04-04T16:48:36Z</time></trkpt><trkpt lat="40.7530645450741" lon="8.696241658763551"><ele>422.0</ele><time>2026-04-04T16:48:37Z</time></trkpt><trkpt lat="40.75308918212359" lon="8.69609866597737"><ele>422.0</ele><time>2026-04-04T16:48:38Z</time></trkpt><trkpt lat="40.7530988287266" lon="8.695956603167225"><ele>422.0</ele><time>2026-04-04T16:48:39Z</time></trkpt><trkpt lat="40.75308962295995" lon="8.695778067045122"><ele>421.66666666666663</ele><time>2026-04-04T16:48:40Z</time></trkpt><trkpt lat="40.753073081865324" lon="8.695571052169392"><ele>421.33333333333337</ele><time>2026-04-04T16:48:41Z</time></trkpt><trkpt lat="40.753063553104184" lon="8.695347265047202"><ele>421.0</ele><time>2026-04-04T16:48:42Z</time></trkpt><trkpt lat="40.75305703101323" lon="8.695166184366425"><ele>421.0</ele><time>2026-04-04T16:48:43Z</time></trkpt><trkpt lat="40.7530367943728" lon="8.695016857773316"><ele>421.0</ele><time>2026-04-04T16:48:44Z</time></trkpt><trkpt lat="40.7529965112542" lon="8.694892063452999"><ele>421.0</ele><time>2026-04-04T16:48:45Z</time></trkpt><trkpt lat="40.75294525785423" lon="8.694769246774282"><ele>421.0</ele><time>2026-04-04T16:48:46Z</time></trkpt><trkpt lat="40.75291377965656" lon="8.69462825907176"><ele>421.0</ele><time>2026-04-04T16:48:47Z</time></trkpt><trkpt lat="40.752923966591396" lon="8.694495560008708"><ele>420.0</ele><time>2026-04-04T16:48:48Z</time></trkpt><trkpt lat="40.752961580527945" lon="8.694286569418304"><ele>419.0</ele><time>2026-04-04T16:48:49Z</time></trkpt><trkpt lat="40.753000753091726" lon="8.694059023735091"><ele>418.0</ele><time>2026-04-04T16:48:50Z</time></trkpt><trkpt lat="40.75301071714019" lon="8.693868869531062"><ele>418.0</ele><time>2026-04-04T16:48:51Z</time></trkpt><trkpt lat="40.75302116668899" lon="8.693696923843396"><ele>418.0</ele><time>2026-04-04T16:48:52Z</time></trkpt><trkpt lat="40.753036444468115" lon="8.693521093500292"><ele>418.0</ele><time>2026-04-04T16:48:53Z</time></trkpt><trkpt lat="40.75305996001142" lon="8.693353538075211"><ele>418.0</ele><time>2026-04-04T16:48:54Z</time></trkpt><trkpt lat="40.75307499010347" lon="8.69318570472109"><ele>417.0</ele><time>2026-04-04T16:48:55Z</time></trkpt><trkpt lat="40.75307975661212" lon="8.69302376496829"><ele>416.0</ele><time>2026-04-04T16:48:56Z</time></trkpt><trkpt lat="40.753083433682605" lon="8.692871183710823"><ele>415.0</ele><time>2026-04-04T16:48:57Z</time></trkpt><trkpt lat="40.75309511547577" lon="8.69272124005945"><ele>414.0</ele><time>2026-04-04T16:48:58Z</time></trkpt><trkpt lat="40.75311939288017" lon="8.692542168689606"><ele>413.0</ele><time>2026-04-04T16:48:59Z</time></trkpt><trkpt lat="40.75315400697209" lon="8.692339983354332"><ele>412.0</ele><time>2026-04-04T16:49:00Z</time></trkpt><trkpt lat="40.7531855940473" lon="8.692146685359893"><ele>411.0</ele><time>2026-04-04T16:49:01Z</time></trkpt><trkpt lat="40.75321223348705" lon="8.691958429106823"><ele>410.5</ele><time>2026-04-04T16:49:02Z</time></trkpt><trkpt lat="40.75322826601779" lon="8.691774746317115"><ele>410.0</ele><time>2026-04-04T16:49:03Z</time></trkpt><trkpt lat="40.753229561712544" lon="8.691578860750608"><ele>409.5</ele><time>2026-04-04T16:49:04Z</time></trkpt><trkpt lat="40.75322323574944" lon="8.691372858992269"><ele>409.0</ele><time>2026-04-04T16:49:05Z</time></trkpt><trkpt lat="40.753217880192224" lon="8.691160763681442"><ele>409.25</ele><time>2026-04-04T16:49:06Z</time></trkpt><trkpt lat="40.753219986454894" lon="8.690973985707734"><ele>409.5</ele><time>2026-04-04T16:49:07Z</time></trkpt><trkpt lat="40.75321714034233" lon="8.690795982049318"><ele>409.75</ele><time>2026-04-04T16:49:08Z</time></trkpt><trkpt lat="40.75319334250276" lon="8.690615498654436"><ele>410.0</ele><time>2026-04-04T16:49:09Z</time></trkpt><trkpt lat="40.75315020652215" lon="8.690426779874088"><ele>410.66666666666663</ele><time>2026-04-04T16:49:10Z</time></trkpt><trkpt lat="40.75309394371236" lon="8.690227794202228"><ele>411.33333333333337</ele><time>2026-04-04T16:49:11Z</time></trkpt><trkpt lat="40.75305184952901" lon="8.690012899112922"><ele>412.0</ele><time>2026-04-04T16:49:12Z</time></trkpt><trkpt lat="40.75301607791348" lon="8.689839358905546"><ele>412.0</ele><time>2026-04-04T16:49:13Z</time></trkpt><trkpt lat="40.75298236227953" lon="8.689698728006066"><ele>412.0</ele><time>2026-04-04T16:49:14Z</time></trkpt><trkpt lat="40.75297475108083" lon="8.689575339455068"><ele>412.0</ele><time>2026-04-04T16:49:15Z</time></trkpt><trkpt lat="40.75298482976969" lon="8.689423927040695"><ele>412.0</ele><time>2026-04-04T16:49:16Z</time></trkpt><trkpt lat="40.75302227612004" lon="8.689262210681607"><ele>412.0</ele><time>2026-04-04T16:49:17Z</time></trkpt><trkpt lat="40.75303453089413" lon="8.689115023508409"><ele>411.75</ele><time>2026-04-04T16:49:18Z</time></trkpt><trkpt lat="40.7530560681233" lon="8.688956661192098"><ele>411.5</ele><time>2026-04-04T16:49:19Z</time></trkpt><trkpt lat="40.7531092977608" lon="8.6887956826134"><ele>411.25</ele><time>2026-04-04T16:49:20Z</time></trkpt><trkpt lat="40.75318453467342" lon="8.688643189353892"><ele>411.0</ele><time>2026-04-04T16:49:21Z</time></trkpt><trkpt lat="40.75323621518664" lon="8.688472159350841"><ele>409.66666666666663</ele><time>2026-04-04T16:49:22Z</time></trkpt><trkpt lat="40.7532853197256" lon="8.688265564306688"><ele>408.3333333333333</ele><time>2026-04-04T16:49:23Z</time></trkpt><trkpt lat="40.75334471099129" lon="8.688056261012886"><ele>407.0</ele><time>2026-04-04T16:49:24Z</time></trkpt><trkpt lat="40.75338993982071" lon="8.687860451408936"><ele>406.0</ele><time>2026-04-04T16:49:25Z</time></trkpt><trkpt lat="40.75342189679217" lon="8.687684065106922"><ele>405.0</ele><time>2026-04-04T16:49:26Z</time></trkpt><trkpt lat="40.753449902879666" lon="8.687507229907665"><ele>404.0</ele><time>2026-04-04T16:49:27Z</time></trkpt><trkpt lat="40.753473076727005" lon="8.687345800100568"><ele>403.0</ele><time>2026-04-04T16:49:28Z</time></trkpt><trkpt lat="40.75349302498569" lon="8.68717462262844"><ele>403.0</ele><time>2026-04-04T16:49:29Z</time></trkpt><trkpt lat="40.753511808944914" lon="8.687010760510447"><ele>403.0</ele><time>2026-04-04T16:49:30Z</time></trkpt><trkpt lat="40.75350894040235" lon="8.68682988620693"><ele>403.0</ele><time>2026-04-04T16:49:31Z</time></trkpt><trkpt lat="40.753493792274725" lon="8.686650694254736"><ele>403.0</ele><time>2026-04-04T16:49:32Z</time></trkpt><trkpt lat="40.75349169387904" lon="8.686517886201404"><ele>403.2</ele><time>2026-04-04T16:49:33Z</time></trkpt><trkpt lat="40.753488481415964" lon="8.686410159817294"><ele>403.4</ele><time>2026-04-04T16:49:34Z</time></trkpt><trkpt lat="40.75346253706033" lon="8.686318708203391"><ele>403.59999999999997</ele><time>2026-04-04T16:49:35Z</time></trkpt><trkpt lat="40.75341442393843" lon="8.686225622233128"><ele>403.79999999999995</ele><time>2026-04-04T16:49:36Z</time></trkpt><trkpt lat="40.753338042151746" lon="8.686124880558378"><ele>404.0</ele><time>2026-04-04T16:49:37Z</time></trkpt><trkpt lat="40.75325321327625" lon="8.686013471751242"><ele>404.25</ele><time>2026-04-04T16:49:38Z</time></trkpt><trkpt lat="40.753198944465346" lon="8.685878516744545"><ele>404.5</ele><time>2026-04-04T16:49:39Z</time></trkpt><trkpt lat="40.75317870538893" lon="8.685727149216316"><ele>404.75</ele><time>2026-04-04T16:49:40Z</time></trkpt><trkpt lat="40.753173190128315" lon="8.68555841149334"><ele>405.0</ele><time>2026-04-04T16:49:41Z</time></trkpt><trkpt lat="40.753173473228514" lon="8.685381590042109"><ele>405.25</ele><time>2026-04-04T16:49:42Z</time></trkpt><trkpt lat="40.75318558952469" lon="8.685198845699174"><ele>405.5</ele><time>2026-04-04T16:49:43Z</time></trkpt><trkpt lat="40.75320125346301" lon="8.685027245841253"><ele>405.75</ele><time>2026-04-04T16:49:44Z</time></trkpt><trkpt lat="40.75318838999359" lon="8.684850621775754"><ele>406.0</ele><time>2026-04-04T16:49:45Z</time></trkpt><trkpt lat="40.75314725098128" lon="8.684668226033972"><ele>406.0</ele><time>2026-04-04T16:49:46Z</time></trkpt><trkpt lat="40.753095076600495" lon="8.684488805877157"><ele>406.0</ele><time>2026-04-04T16:49:47Z</time></trkpt><trkpt lat="40.75306495249702" lon="8.684341236154959"><ele>406.0</ele><time>2026-04-04T16:49:48Z</time></trkpt><trkpt lat="40.753059673347586" lon="8.684198002580716"><ele>406.0</ele><time>2026-04-04T16:49:49Z</time></trkpt><trkpt lat="40.75306997906973" lon="8.684052685243165"><ele>406.0</ele><time>2026-04-04T16:49:50Z</time></trkpt><trkpt lat="40.75309544394642" lon="8.683909920693104"><ele>406.0</ele><time>2026-04-04T16:49:51Z</time></trkpt><trkpt lat="40.753150074868714" lon="8.683763686313041"><ele>406.0</ele><time>2026-04-04T16:49:52Z</time></trkpt><trkpt lat="40.75319558556561" lon="8.683582305055241"><ele>406.0</ele><time>2026-04-04T16:49:53Z</time></trkpt><trkpt lat="40.75321562784373" lon="8.683376248395327"><ele>407.33333333333337</ele><time>2026-04-04T16:49:54Z</time></trkpt><trkpt lat="40.75320790985192" lon="8.683118724792656"><ele>408.66666666666663</ele><time>2026-04-04T16:49:55Z</time></trkpt><trkpt lat="40.753198584720664" lon="8.682869458924147"><ele>410.0</ele><time>2026-04-04T16:49:56.001Z</time></trkpt><trkpt lat="40.75319739532069" lon="8.682689317276521"><ele>410.3333333333333</ele><time>2026-04-04T16:49:57.001Z</time></trkpt><trkpt lat="40.753179347101955" lon="8.682499903867006"><ele>410.66666666666663</ele><time>2026-04-04T16:49:58.001Z</time></trkpt><trkpt lat="40.753149140587276" lon="8.682296241577312"><ele>411.0</ele><time>2026-04-04T16:49:59.001Z</time></trkpt><trkpt lat="40.753116661259426" lon="8.68209737896648"><ele>411.0</ele><time>2026-04-04T16:50:00.001Z</time></trkpt><trkpt lat="40.75307630127242" lon="8.681942120343052"><ele>411.0</ele><time>2026-04-04T16:50:01.001Z</time></trkpt><trkpt lat="40.753039105438404" lon="8.681777263139196"><ele>411.0</ele><time>2026-04-04T16:50:02.001Z</time></trkpt><trkpt lat="40.75298215579655" lon="8.681608659391822"><ele>411.0</ele><time>2026-04-04T16:50:03.001Z</time></trkpt><trkpt lat="40.75291498993386" lon="8.681436564245669"><ele>411.1666666666667</ele><time>2026-04-04T16:50:04.001Z</time></trkpt><trkpt lat="40.7528564184149" lon="8.681298085533543"><ele>411.33333333333337</ele><time>2026-04-04T16:50:05.001Z</time></trkpt><trkpt lat="40.752816096942546" lon="8.681191713226914"><ele>411.5</ele><time>2026-04-04T16:50:06.001Z</time></trkpt><trkpt lat="40.75277329656248" lon="8.68110615090547"><ele>411.6666666666667</ele><time>2026-04-04T16:50:07.001Z</time></trkpt><trkpt lat="40.75271890428769" lon="8.681046496379942"><ele>411.83333333333337</ele><time>2026-04-04T16:50:08.001Z</time></trkpt><trkpt lat="40.75264428919415" lon="8.681028045564714"><ele>412.0</ele><time>2026-04-04T16:50:09.001Z</time></trkpt><trkpt lat="40.75255027956915" lon="8.681045852273437"><ele>412.8</ele><time>2026-04-04T16:50:10.001Z</time></trkpt><trkpt lat="40.75244887925464" lon="8.681097603394935"><ele>413.6</ele><time>2026-04-04T16:50:11.001Z</time></trkpt><trkpt lat="40.75234449138406" lon="8.681134820123672"><ele>414.40000000000003</ele><time>2026-04-04T16:50:12.001Z</time></trkpt><trkpt lat="40.75224192867354" lon="8.681149252546314"><ele>415.20000000000005</ele><time>2026-04-04T16:50:13.001Z</time></trkpt><trkpt lat="40.75213889499802" lon="8.681178194647538"><ele>416.0</ele><time>2026-04-04T16:50:14.001Z</time></trkpt><trkpt lat="40.75202923701039" lon="8.681200078011049"><ele>416.25</ele><time>2026-04-04T16:50:15.001Z</time></trkpt><trkpt lat="40.75190569608818" lon="8.68120563522069"><ele>416.5</ele><time>2026-04-04T16:50:16.001Z</time></trkpt><trkpt lat="40.75176316785386" lon="8.681218410746363"><ele>416.75</ele><time>2026-04-04T16:50:17.001Z</time></trkpt><trkpt lat="40.751612175504704" lon="8.681247275022278"><ele>417.0</ele><time>2026-04-04T16:50:18.001Z</time></trkpt><trkpt lat="40.751491570107355" lon="8.681284038620474"><ele>417.6</ele><time>2026-04-04T16:50:19.001Z</time></trkpt><trkpt lat="40.75137354902434" lon="8.681344173535626"><ele>418.20000000000005</ele><time>2026-04-04T16:50:20.001Z</time></trkpt><trkpt lat="40.751284403784126" lon="8.681384232507481"><ele>418.8</ele><time>2026-04-04T16:50:21.001Z</time></trkpt><trkpt lat="40.75118312257207" lon="8.681348187512654"><ele>419.4</ele><time>2026-04-04T16:50:23.001Z</time></trkpt><trkpt lat="40.751139792009596" lon="8.681216984944202"><ele>420.0</ele><time>2026-04-04T16:50:25.001Z</time></trkpt><trkpt lat="40.75114455176048" lon="8.681116736286295"><ele>421.0</ele><time>2026-04-04T16:50:26.001Z</time></trkpt><trkpt lat="40.751170736893464" lon="8.680988229107351"><ele>422.0</ele><time>2026-04-04T16:50:27.001Z</time></trkpt><trkpt lat="40.751211873666215" lon="8.680842604825068"><ele>423.0</ele><time>2026-04-04T16:50:28.001Z</time></trkpt><trkpt lat="40.75126420838574" lon="8.680670829186951"><ele>424.0</ele><time>2026-04-04T16:50:29.001Z</time></trkpt><trkpt lat="40.75131129997057" lon="8.680484256256735"><ele>424.0</ele><time>2026-04-04T16:50:30.001Z</time></trkpt><trkpt lat="40.75134716756906" lon="8.680323249661098"><ele>424.0</ele><time>2026-04-04T16:50:31.001Z</time></trkpt><trkpt lat="40.75137731398531" lon="8.680192107591079"><ele>424.0</ele><time>2026-04-04T16:50:32.001Z</time></trkpt><trkpt lat="40.75140819116694" lon="8.680084072210963"><ele>424.0</ele><time>2026-04-04T16:50:33.001Z</time></trkpt><trkpt lat="40.75145154778853" lon="8.679978733313966"><ele>424.0</ele><time>2026-04-04T16:50:35.001Z</time></trkpt><trkpt lat="40.75156504391218" lon="8.679871827500232"><ele>423.75</ele><time>2026-04-04T16:50:47Z</time></trkpt><trkpt lat="40.75166968689473" lon="8.679814153877247"><ele>423.5</ele><time>2026-04-04T16:50:48Z</time></trkpt><trkpt lat="40.75178792967816" lon="8.679750693967833"><ele>423.25</ele><time>2026-04-04T16:50:49Z</time></trkpt><trkpt lat="40.75190526335598" lon="8.679679006070272"><ele>423.0</ele><time>2026-04-04T16:50:50Z</time></trkpt><trkpt lat="40.752024347861614" lon="8.679604473356857"><ele>422.0</ele><time>2026-04-04T16:50:51Z</time></trkpt><trkpt lat="40.75215324407068" lon="8.679526951557406"><ele>421.0</ele><time>2026-04-04T16:50:52Z</time></trkpt><trkpt lat="40.75228703192687" lon="8.67945189440547"><ele>420.0</ele><time>2026-04-04T16:50:53Z</time></trkpt><trkpt lat="40.7524269912711" lon="8.67936997738485"><ele>419.0</ele><time>2026-04-04T16:50:54Z</time></trkpt><trkpt lat="40.7525703466331" lon="8.679284253203813"><ele>417.66666666666663</ele><time>2026-04-04T16:50:55Z</time></trkpt><trkpt lat="40.752716267638036" lon="8.6791937326496"><ele>416.33333333333337</ele><time>2026-04-04T16:50:56Z</time></trkpt><trkpt lat="40.752863742650604" lon="8.679111575061057"><ele>415.0</ele><time>2026-04-04T16:50:57Z</time></trkpt><trkpt lat="40.7530005471639" lon="8.679039614860027"><ele>415.0</ele><time>2026-04-04T16:50:58Z</time></trkpt><trkpt lat="40.753137222463124" lon="8.67896908456148"><ele>415.0</ele><time>2026-04-04T16:50:59Z</time></trkpt><trkpt lat="40.75327254335908" lon="8.678928524591324"><ele>415.0</ele><time>2026-04-04T16:51:00Z</time></trkpt><trkpt lat="40.75340034191407" lon="8.678901517287736"><ele>415.0</ele><time>2026-04-04T16:51:01Z</time></trkpt><trkpt lat="40.75351825772423" lon="8.678869288510004"><ele>414.83333333333337</ele><time>2026-04-04T16:51:02Z</time></trkpt><trkpt lat="40.753617614751356" lon="8.678847258428455"><ele>414.6666666666667</ele><time>2026-04-04T16:51:03Z</time></trkpt><trkpt lat="40.75369933698532" lon="8.678825531871265"><ele>414.5</ele><time>2026-04-04T16:51:04Z</time></trkpt><trkpt lat="40.75376695456744" lon="8.678785945386334"><ele>414.33333333333337</ele><time>2026-04-04T16:51:05Z</time></trkpt><trkpt lat="40.75382043678565" lon="8.678713623300665"><ele>414.1666666666667</ele><time>2026-04-04T16:51:06Z</time></trkpt><trkpt lat="40.753850025962684" lon="8.678601427629975"><ele>414.0</ele><time>2026-04-04T16:51:07Z</time></trkpt><trkpt lat="40.75388413888085" lon="8.678452346761699"><ele>414.5</ele><time>2026-04-04T16:51:08Z</time></trkpt><trkpt lat="40.75394073765796" lon="8.678278292801293"><ele>415.0</ele><time>2026-04-04T16:51:09Z</time></trkpt><trkpt lat="40.75399649768364" lon="8.678098071390428"><ele>415.5</ele><time>2026-04-04T16:51:10Z</time></trkpt><trkpt lat="40.754047111715074" lon="8.677921010746205"><ele>416.0</ele><time>2026-04-04T16:51:11Z</time></trkpt><trkpt lat="40.75409670207839" lon="8.677746890893099"><ele>416.0</ele><time>2026-04-04T16:51:12Z</time></trkpt><trkpt lat="40.7541517673081" lon="8.67757285346208"><ele>416.0</ele><time>2026-04-04T16:51:13Z</time></trkpt><trkpt lat="40.75420844896722" lon="8.677401266210502"><ele>416.0</ele><time>2026-04-04T16:51:14Z</time></trkpt><trkpt lat="40.75426046849652" lon="8.677230952476814"><ele>416.0</ele><time>2026-04-04T16:51:15Z</time></trkpt><trkpt lat="40.754310928086085" lon="8.67706108992706"><ele>416.0</ele><time>2026-04-04T16:51:16Z</time></trkpt><trkpt lat="40.754362635066556" lon="8.676892033052008"><ele>416.0</ele><time>2026-04-04T16:51:17Z</time></trkpt><trkpt lat="40.75441367877961" lon="8.676720366454688"><ele>416.0</ele><time>2026-04-04T16:51:18Z</time></trkpt><trkpt lat="40.754467792456595" lon="8.676548690665308"><ele>416.0</ele><time>2026-04-04T16:51:19Z</time></trkpt><trkpt lat="40.75452344286003" lon="8.676373146248649"><ele>418.0</ele><time>2026-04-04T16:51:20Z</time></trkpt><trkpt lat="40.75458629710228" lon="8.676188982971157"><ele>420.0</ele><time>2026-04-04T16:51:21Z</time></trkpt><trkpt lat="40.75465439053075" lon="8.676003545227756"><ele>422.0</ele><time>2026-04-04T16:51:22Z</time></trkpt><trkpt lat="40.75472876274838" lon="8.67581533125023"><ele>422.0</ele><time>2026-04-04T16:51:23Z</time></trkpt><trkpt lat="40.75480587873721" lon="8.675621840815646"><ele>422.0</ele><time>2026-04-04T16:51:24Z</time></trkpt><trkpt lat="40.75488181472167" lon="8.675423610254002"><ele>422.0</ele><time>2026-04-04T16:51:25Z</time></trkpt><trkpt lat="40.7549564546295" lon="8.675222070898473"><ele>422.0</ele><time>2026-04-04T16:51:26Z</time></trkpt><trkpt lat="40.75503061942409" lon="8.67501669091585"><ele>422.0</ele><time>2026-04-04T16:51:27Z</time></trkpt><trkpt lat="40.755108077661816" lon="8.674813693643152"><ele>422.0</ele><time>2026-04-04T16:51:28Z</time></trkpt><trkpt lat="40.75518978802189" lon="8.674612825110097"><ele>424.0</ele><time>2026-04-04T16:51:29Z</time></trkpt><trkpt lat="40.755270437267434" lon="8.674415986447192"><ele>426.0</ele><time>2026-04-04T16:51:30Z</time></trkpt><trkpt lat="40.755354451997356" lon="8.67421440849823"><ele>428.0</ele><time>2026-04-04T16:51:31Z</time></trkpt><trkpt lat="40.755441649033536" lon="8.674004464988942"><ele>428.0</ele><time>2026-04-04T16:51:32Z</time></trkpt><trkpt lat="40.75552682816383" lon="8.673793538356572"><ele>428.0</ele><time>2026-04-04T16:51:33Z</time></trkpt><trkpt lat="40.755612263722696" lon="8.673580080439697"><ele>428.0</ele><time>2026-04-04T16:51:34Z</time></trkpt><trkpt lat="40.755697025174115" lon="8.67336903343709"><ele>427.66666666666663</ele><time>2026-04-04T16:51:35Z</time></trkpt><trkpt lat="40.75578358472003" lon="8.673162435368932"><ele>427.33333333333337</ele><time>2026-04-04T16:51:36Z</time></trkpt><trkpt lat="40.75586703324001" lon="8.672954962801182"><ele>427.0</ele><time>2026-04-04T16:51:37Z</time></trkpt><trkpt lat="40.75594941842518" lon="8.672748467088926"><ele>427.0</ele><time>2026-04-04T16:51:38Z</time></trkpt><trkpt lat="40.75603067859749" lon="8.672548142780876"><ele>427.0</ele><time>2026-04-04T16:51:39Z</time></trkpt><trkpt lat="40.75610316630736" lon="8.672346084933631"><ele>427.0</ele><time>2026-04-04T16:51:40Z</time></trkpt><trkpt lat="40.756170884179554" lon="8.672161718248512"><ele>428.0</ele><time>2026-04-04T16:51:41Z</time></trkpt><trkpt lat="40.756238619709265" lon="8.671976591660743"><ele>429.0</ele><time>2026-04-04T16:51:42Z</time></trkpt><trkpt lat="40.756305742904104" lon="8.67179116074772"><ele>430.0</ele><time>2026-04-04T16:51:43Z</time></trkpt><trkpt lat="40.75636968359745" lon="8.671613835954766"><ele>430.25</ele><time>2026-04-04T16:51:44Z</time></trkpt><trkpt lat="40.756432059212074" lon="8.67143444017761"><ele>430.5</ele><time>2026-04-04T16:51:45Z</time></trkpt><trkpt lat="40.75649033504729" lon="8.671266682079724"><ele>430.75</ele><time>2026-04-04T16:51:46Z</time></trkpt><trkpt lat="40.75653894509126" lon="8.671113095391437"><ele>431.0</ele><time>2026-04-04T16:51:47Z</time></trkpt><trkpt lat="40.75658350881926" lon="8.670966069274325"><ele>430.20000000000005</ele><time>2026-04-04T16:51:48Z</time></trkpt><trkpt lat="40.75662642955472" lon="8.670814944657515"><ele>429.40000000000003</ele><time>2026-04-04T16:51:49Z</time></trkpt><trkpt lat="40.756666336117" lon="8.670663409031219"><ele>428.6</ele><time>2026-04-04T16:51:50Z</time></trkpt><trkpt lat="40.75669705211797" lon="8.67054095487795"><ele>427.8</ele><time>2026-04-04T16:51:51Z</time></trkpt><trkpt lat="40.75670664315345" lon="8.670426217091203"><ele>427.0</ele><time>2026-04-04T16:51:52Z</time></trkpt><trkpt lat="40.75669520932447" lon="8.670303834981146"><ele>426.8</ele><time>2026-04-04T16:51:53Z</time></trkpt><trkpt lat="40.756661676858215" lon="8.67018683140508"><ele>426.6</ele><time>2026-04-04T16:51:54Z</time></trkpt><trkpt lat="40.75660892916395" lon="8.670070519393533"><ele>426.40000000000003</ele><time>2026-04-04T16:51:55Z</time></trkpt><trkpt lat="40.75654134181708" lon="8.66995101214732"><ele>426.20000000000005</ele><time>2026-04-04T16:51:56Z</time></trkpt><trkpt lat="40.75647837301517" lon="8.669814670282145"><ele>426.0</ele><time>2026-04-04T16:51:57Z</time></trkpt><trkpt lat="40.75642879422399" lon="8.669670634235775"><ele>426.0</ele><time>2026-04-04T16:51:58Z</time></trkpt><trkpt lat="40.75638704568931" lon="8.669549479193236"><ele>426.0</ele><time>2026-04-04T16:51:59Z</time></trkpt><trkpt lat="40.75634010856099" lon="8.669449687795854"><ele>426.0</ele><time>2026-04-04T16:52:00Z</time></trkpt><trkpt lat="40.75628166901232" lon="8.669369062371755"><ele>426.0</ele><time>2026-04-04T16:52:01Z</time></trkpt><trkpt lat="40.75621844094393" lon="8.669301665593048"><ele>426.0</ele><time>2026-04-04T16:52:02Z</time></trkpt><trkpt lat="40.75616523195291" lon="8.669239055006594"><ele>426.0</ele><time>2026-04-04T16:52:03Z</time></trkpt><trkpt lat="40.75612851113637" lon="8.66912628419718"><ele>426.20000000000005</ele><time>2026-04-04T16:52:05Z</time></trkpt><trkpt lat="40.75615082873146" lon="8.668963469237362"><ele>426.40000000000003</ele><time>2026-04-04T16:52:07.001Z</time></trkpt><trkpt lat="40.756141949889766" lon="8.668816988912983"><ele>426.6</ele><time>2026-04-04T16:52:08.001Z</time></trkpt><trkpt lat="40.756140426289576" lon="8.668706349569119"><ele>426.8</ele><time>2026-04-04T16:52:09.001Z</time></trkpt><trkpt lat="40.75613308804404" lon="8.668596682697576"><ele>427.0</ele><time>2026-04-04T16:52:10.001Z</time></trkpt><trkpt lat="40.75611645687201" lon="8.66843999646698"><ele>427.5</ele><time>2026-04-04T16:52:11.001Z</time></trkpt><trkpt lat="40.75610572698754" lon="8.668269123637778"><ele>428.0</ele><time>2026-04-04T16:52:12.001Z</time></trkpt><trkpt lat="40.75609190886664" lon="8.668088814813885"><ele>428.5</ele><time>2026-04-04T16:52:13.001Z</time></trkpt><trkpt lat="40.756071517473686" lon="8.667927757001221"><ele>429.0</ele><time>2026-04-04T16:52:14.001Z</time></trkpt><trkpt lat="40.75604637215859" lon="8.667769822332154"><ele>425.75</ele><time>2026-04-04T16:52:15.001Z</time></trkpt><trkpt lat="40.756023251654526" lon="8.667610671995567"><ele>422.5</ele><time>2026-04-04T16:52:16.001Z</time></trkpt><trkpt lat="40.75598674912097" lon="8.667451437251978"><ele>419.25</ele><time>2026-04-04T16:52:17.001Z</time></trkpt><trkpt lat="40.755933523505036" lon="8.667280875149496"><ele>416.0</ele><time>2026-04-04T16:52:18.001Z</time></trkpt><trkpt lat="40.75586783741485" lon="8.667115781208492"><ele>416.0</ele><time>2026-04-04T16:52:19.001Z</time></trkpt><trkpt lat="40.755807644121326" lon="8.66697063772058"><ele>416.0</ele><time>2026-04-04T16:52:20.001Z</time></trkpt><trkpt lat="40.75576724340968" lon="8.666841671556803"><ele>416.0</ele><time>2026-04-04T16:52:21.001Z</time></trkpt><trkpt lat="40.755731004606375" lon="8.666731988331064"><ele>416.0</ele><time>2026-04-04T16:52:22.001Z</time></trkpt><trkpt lat="40.755677321942244" lon="8.666618826933595"><ele>416.0</ele><time>2026-04-04T16:52:23.001Z</time></trkpt><trkpt lat="40.75559259317834" lon="8.666499165789583"><ele>415.0</ele><time>2026-04-04T16:52:24.001Z</time></trkpt><trkpt lat="40.75548452814125" lon="8.666367520240453"><ele>414.0</ele><time>2026-04-04T16:52:25.001Z</time></trkpt><trkpt lat="40.75536567382857" lon="8.666240262948493"><ele>413.0</ele><time>2026-04-04T16:52:26.001Z</time></trkpt><trkpt lat="40.75526105172347" lon="8.666120300988919"><ele>412.0</ele><time>2026-04-04T16:52:27.001Z</time></trkpt><trkpt lat="40.75516531212161" lon="8.666007890589421"><ele>409.5</ele><time>2026-04-04T16:52:28.001Z</time></trkpt><trkpt lat="40.75507650776799" lon="8.665883199651025"><ele>407.0</ele><time>2026-04-04T16:52:29.001Z</time></trkpt><trkpt lat="40.75498878183083" lon="8.665717079230012"><ele>404.5</ele><time>2026-04-04T16:52:30.001Z</time></trkpt><trkpt lat="40.75490782537688" lon="8.66556923682519"><ele>402.0</ele><time>2026-04-04T16:52:31.001Z</time></trkpt><trkpt lat="40.754855919637556" lon="8.66543203648485"><ele>402.0</ele><time>2026-04-04T16:52:32.001Z</time></trkpt><trkpt lat="40.75481253508463" lon="8.665291102489775"><ele>402.0</ele><time>2026-04-04T16:52:33.001Z</time></trkpt><trkpt lat="40.75478739690655" lon="8.665149045528034"><ele>402.0</ele><time>2026-04-04T16:52:34.001Z</time></trkpt><trkpt lat="40.75477294162677" lon="8.66499377349932"><ele>402.0</ele><time>2026-04-04T16:52:35.001Z</time></trkpt><trkpt lat="40.75475391848949" lon="8.664815196545813"><ele>402.0</ele><time>2026-04-04T16:52:36.001Z</time></trkpt><trkpt lat="40.75471206235642" lon="8.664628046066484"><ele>402.0</ele><time>2026-04-04T16:52:37.001Z</time></trkpt><trkpt lat="40.754664931011796" lon="8.664422872833422"><ele>402.0</ele><time>2026-04-04T16:52:38.001Z</time></trkpt><trkpt lat="40.754601526929186" lon="8.664174114676074"><ele>401.66666666666663</ele><time>2026-04-04T16:52:39.001Z</time></trkpt><trkpt lat="40.75453863249621" lon="8.663938191523396"><ele>401.3333333333333</ele><time>2026-04-04T16:52:40.001Z</time></trkpt><trkpt lat="40.754487342155734" lon="8.66373405237238"><ele>401.0</ele><time>2026-04-04T16:52:41.001Z</time></trkpt><trkpt lat="40.754437281070906" lon="8.663541906132052"><ele>401.0</ele><time>2026-04-04T16:52:42.001Z</time></trkpt><trkpt lat="40.75438269962016" lon="8.66336765278138"><ele>401.0</ele><time>2026-04-04T16:52:43.001Z</time></trkpt><trkpt lat="40.75432306205197" lon="8.663203410648556"><ele>401.0</ele><time>2026-04-04T16:52:44Z</time></trkpt><trkpt lat="40.75425007115619" lon="8.663040753140285"><ele>401.0</ele><time>2026-04-04T16:52:45Z</time></trkpt><trkpt lat="40.7541732006674" lon="8.662862241966506"><ele>400.0</ele><time>2026-04-04T16:52:46Z</time></trkpt><trkpt lat="40.75410855851938" lon="8.662690487599516"><ele>399.0</ele><time>2026-04-04T16:52:47Z</time></trkpt><trkpt lat="40.754042282301405" lon="8.66253158349783"><ele>398.0</ele><time>2026-04-04T16:52:48Z</time></trkpt><trkpt lat="40.753958413361985" lon="8.662377696397268"><ele>397.0</ele><time>2026-04-04T16:52:49Z</time></trkpt><trkpt lat="40.75387768222186" lon="8.662227728525103"><ele>397.0</ele><time>2026-04-04T16:52:50Z</time></trkpt><trkpt lat="40.75380876150805" lon="8.662091569106469"><ele>397.0</ele><time>2026-04-04T16:52:51Z</time></trkpt><trkpt lat="40.75374463013151" lon="8.661945195263696"><ele>397.0</ele><time>2026-04-04T16:52:52Z</time></trkpt><trkpt lat="40.753681265278864" lon="8.66180584603939"><ele>397.0</ele><time>2026-04-04T16:52:53Z</time></trkpt><trkpt lat="40.753607581434174" lon="8.661669557023066"><ele>397.0</ele><time>2026-04-04T16:52:54Z</time></trkpt><trkpt lat="40.7535338453649" lon="8.661531449431884"><ele>397.0</ele><time>2026-04-04T16:52:55Z</time></trkpt><trkpt lat="40.75346450233624" lon="8.66138664855019"><ele>397.0</ele><time>2026-04-04T16:52:56Z</time></trkpt><trkpt lat="40.75339897432226" lon="8.661230861725638"><ele>397.0</ele><time>2026-04-04T16:52:57Z</time></trkpt><trkpt lat="40.75334587739928" lon="8.661059497425255"><ele>397.0</ele><time>2026-04-04T16:52:58Z</time></trkpt><trkpt lat="40.75330816227197" lon="8.660879663182797"><ele>397.0</ele><time>2026-04-04T16:52:59Z</time></trkpt><trkpt lat="40.75328388566512" lon="8.660692169626559"><ele>397.0</ele><time>2026-04-04T16:53:00Z</time></trkpt><trkpt lat="40.75326425556443" lon="8.660512479658772"><ele>397.0</ele><time>2026-04-04T16:53:01Z</time></trkpt><trkpt lat="40.75324208530818" lon="8.660332577496474"><ele>397.0</ele><time>2026-04-04T16:53:02Z</time></trkpt><trkpt lat="40.75320610861093" lon="8.660150193300323"><ele>397.0</ele><time>2026-04-04T16:53:03Z</time></trkpt><trkpt lat="40.753168139063646" lon="8.659961841041032"><ele>397.0</ele><time>2026-04-04T16:53:04Z</time></trkpt><trkpt lat="40.75313160352897" lon="8.659758577474754"><ele>397.0</ele><time>2026-04-04T16:53:05Z</time></trkpt><trkpt lat="40.753094103346456" lon="8.659543504393492"><ele>398.6666666666667</ele><time>2026-04-04T16:53:06Z</time></trkpt><trkpt lat="40.75305709508887" lon="8.65932597465335"><ele>400.33333333333337</ele><time>2026-04-04T16:53:07Z</time></trkpt><trkpt lat="40.753016539743925" lon="8.659113915950943"><ele>402.0</ele><time>2026-04-04T16:53:08Z</time></trkpt><trkpt lat="40.75297103298603" lon="8.658942887446557"><ele>402.0</ele><time>2026-04-04T16:53:09Z</time></trkpt><trkpt lat="40.75291639836489" lon="8.658787789506396"><ele>402.0</ele><time>2026-04-04T16:53:10Z</time></trkpt><trkpt lat="40.7528569181193" lon="8.658660794910576"><ele>402.0</ele><time>2026-04-04T16:53:11Z</time></trkpt><trkpt lat="40.75278661405193" lon="8.658562709900542"><ele>402.0</ele><time>2026-04-04T16:53:12Z</time></trkpt><trkpt lat="40.75269695690255" lon="8.658461370966966"><ele>402.5</ele><time>2026-04-04T16:53:13Z</time></trkpt><trkpt lat="40.75259556950116" lon="8.658342297291142"><ele>403.0</ele><time>2026-04-04T16:53:14Z</time></trkpt><trkpt lat="40.75248768547479" lon="8.658235146739493"><ele>403.5</ele><time>2026-04-04T16:53:15Z</time></trkpt><trkpt lat="40.75236631117644" lon="8.658165430930824"><ele>404.0</ele><time>2026-04-04T16:53:16Z</time></trkpt><trkpt lat="40.75223642695982" lon="8.658110969827398"><ele>404.0</ele><time>2026-04-04T16:53:17Z</time></trkpt><trkpt lat="40.75210398394733" lon="8.65802083414654"><ele>404.0</ele><time>2026-04-04T16:53:18Z</time></trkpt><trkpt lat="40.75195706183319" lon="8.657913962927564"><ele>404.0</ele><time>2026-04-04T16:53:19Z</time></trkpt><trkpt lat="40.751789688720905" lon="8.657789348602178"><ele>405.0</ele><time>2026-04-04T16:53:20Z</time></trkpt><trkpt lat="40.75161059863217" lon="8.65765221284591"><ele>406.0</ele><time>2026-04-04T16:53:21Z</time></trkpt><trkpt lat="40.751409439422844" lon="8.657511654473211"><ele>407.0</ele><time>2026-04-04T16:53:22Z</time></trkpt><trkpt lat="40.751215463234246" lon="8.657370399829889"><ele>406.66666666666663</ele><time>2026-04-04T16:53:23Z</time></trkpt><trkpt lat="40.75103867045329" lon="8.657260850961993"><ele>406.33333333333337</ele><time>2026-04-04T16:53:24Z</time></trkpt><trkpt lat="40.75087258351105" lon="8.657173761074057"><ele>406.0</ele><time>2026-04-04T16:53:25Z</time></trkpt><trkpt lat="40.75071203215522" lon="8.657101243704156"><ele>406.0</ele><time>2026-04-04T16:53:26Z</time></trkpt><trkpt lat="40.75056288451343" lon="8.657022965806718"><ele>406.0</ele><time>2026-04-04T16:53:27Z</time></trkpt><trkpt lat="40.75042762088271" lon="8.65693425845991"><ele>406.0</ele><time>2026-04-04T16:53:28Z</time></trkpt><trkpt lat="40.75031132767444" lon="8.656829916424897"><ele>406.0</ele><time>2026-04-04T16:53:29Z</time></trkpt><trkpt lat="40.750213592187855" lon="8.656711420900939"><ele>406.0</ele><time>2026-04-04T16:53:30Z</time></trkpt><trkpt lat="40.75013162333287" lon="8.656587743074486"><ele>406.0</ele><time>2026-04-04T16:53:31Z</time></trkpt><trkpt lat="40.75005885890764" lon="8.656462367631859"><ele>406.0</ele><time>2026-04-04T16:53:32Z</time></trkpt><trkpt lat="40.750012522196066" lon="8.65633805652335"><ele>404.5</ele><time>2026-04-04T16:53:33Z</time></trkpt><trkpt lat="40.75000266026751" lon="8.656209990294142"><ele>403.0</ele><time>2026-04-04T16:53:34Z</time></trkpt><trkpt lat="40.75000895781656" lon="8.656076411541918"><ele>401.5</ele><time>2026-04-04T16:53:35Z</time></trkpt><trkpt lat="40.75004846071559" lon="8.655919889070468"><ele>400.0</ele><time>2026-04-04T16:53:36Z</time></trkpt><trkpt lat="40.750102336357415" lon="8.65573725505379"><ele>399.75</ele><time>2026-04-04T16:53:37Z</time></trkpt><trkpt lat="40.750160709544375" lon="8.655550492141856"><ele>399.5</ele><time>2026-04-04T16:53:38Z</time></trkpt><trkpt lat="40.75020353357806" lon="8.655389633108042"><ele>399.25</ele><time>2026-04-04T16:53:39Z</time></trkpt><trkpt lat="40.75023677993482" lon="8.655225264543272"><ele>399.0</ele><time>2026-04-04T16:53:40Z</time></trkpt><trkpt lat="40.75026224946909" lon="8.655065916163966"><ele>399.0</ele><time>2026-04-04T16:53:41Z</time></trkpt><trkpt lat="40.75027439445376" lon="8.654920538746003"><ele>399.0</ele><time>2026-04-04T16:53:42Z</time></trkpt><trkpt lat="40.750265182376324" lon="8.654784948210684"><ele>399.0</ele><time>2026-04-04T16:53:43Z</time></trkpt><trkpt lat="40.7502235060096" lon="8.654637547822468"><ele>399.0</ele><time>2026-04-04T16:53:44Z</time></trkpt><trkpt lat="40.75015287303836" lon="8.65448141517032"><ele>397.33333333333337</ele><time>2026-04-04T16:53:45Z</time></trkpt><trkpt lat="40.750065332204095" lon="8.654311836168809"><ele>395.6666666666667</ele><time>2026-04-04T16:53:46Z</time></trkpt><trkpt lat="40.74996615535167" lon="8.654129482249992"><ele>394.0</ele><time>2026-04-04T16:53:47Z</time></trkpt><trkpt lat="40.749849461010456" lon="8.653927726850243"><ele>394.0</ele><time>2026-04-04T16:53:48Z</time></trkpt><trkpt lat="40.749744686283954" lon="8.653740389184343"><ele>394.0</ele><time>2026-04-04T16:53:49Z</time></trkpt><trkpt lat="40.74962462362658" lon="8.653544978675585"><ele>394.0</ele><time>2026-04-04T16:53:50Z</time></trkpt><trkpt lat="40.74947231252005" lon="8.653346075098018"><ele>395.0</ele><time>2026-04-04T16:53:51Z</time></trkpt><trkpt lat="40.74933408435745" lon="8.653171935518738"><ele>396.0</ele><time>2026-04-04T16:53:52Z</time></trkpt><trkpt lat="40.74921657834795" lon="8.653017383369546"><ele>397.0</ele><time>2026-04-04T16:53:53Z</time></trkpt><trkpt lat="40.749113536187714" lon="8.652856547393002"><ele>397.33333333333337</ele><time>2026-04-04T16:53:54Z</time></trkpt><trkpt lat="40.74901782718929" lon="8.652675745301403"><ele>397.66666666666663</ele><time>2026-04-04T16:53:55Z</time></trkpt><trkpt lat="40.74892882140111" lon="8.652487752275304"><ele>398.0</ele><time>2026-04-04T16:53:56Z</time></trkpt><trkpt lat="40.74884342210704" lon="8.652292560607117"><ele>398.0</ele><time>2026-04-04T16:53:57Z</time></trkpt><trkpt lat="40.748759931063574" lon="8.652114365793638"><ele>398.0</ele><time>2026-04-04T16:53:58Z</time></trkpt><trkpt lat="40.74867992315923" lon="8.651935632939871"><ele>398.0</ele><time>2026-04-04T16:53:59Z</time></trkpt><trkpt lat="40.748606220898914" lon="8.651747101338428"><ele>397.3333333333333</ele><time>2026-04-04T16:54:00Z</time></trkpt><trkpt lat="40.74855116391242" lon="8.651559859242031"><ele>396.66666666666663</ele><time>2026-04-04T16:54:01Z</time></trkpt><trkpt lat="40.7484988812552" lon="8.651360784707451"><ele>396.0</ele><time>2026-04-04T16:54:02Z</time></trkpt><trkpt lat="40.74845047044181" lon="8.651157238961405"><ele>393.5</ele><time>2026-04-04T16:54:03Z</time></trkpt><trkpt lat="40.74840833857207" lon="8.650956725425996"><ele>391.0</ele><time>2026-04-04T16:54:04Z</time></trkpt><trkpt lat="40.74837294635258" lon="8.650763696539842"><ele>388.5</ele><time>2026-04-04T16:54:05Z</time></trkpt><trkpt lat="40.748341718825664" lon="8.650583357171028"><ele>386.0</ele><time>2026-04-04T16:54:06Z</time></trkpt><trkpt lat="40.74831365486089" lon="8.650421030347431"><ele>385.0</ele><time>2026-04-04T16:54:07Z</time></trkpt><trkpt lat="40.74828026718551" lon="8.65026040568933"><ele>384.0</ele><time>2026-04-04T16:54:08Z</time></trkpt><trkpt lat="40.74824554530132" lon="8.650109321628277"><ele>383.0</ele><time>2026-04-04T16:54:09.001Z</time></trkpt><trkpt lat="40.74819388373617" lon="8.649972404085004"><ele>382.0</ele><time>2026-04-04T16:54:10.001Z</time></trkpt><trkpt lat="40.74811317064755" lon="8.649845617760766"><ele>382.0</ele><time>2026-04-04T16:54:11.001Z</time></trkpt><trkpt lat="40.74800321898334" lon="8.649713927398214"><ele>382.0</ele><time>2026-04-04T16:54:12.001Z</time></trkpt><trkpt lat="40.747876219068466" lon="8.649568530092083"><ele>382.0</ele><time>2026-04-04T16:54:13.001Z</time></trkpt><trkpt lat="40.747761339440515" lon="8.64942808542879"><ele>380.75</ele><time>2026-04-04T16:54:14.001Z</time></trkpt><trkpt lat="40.74765465793376" lon="8.649300739986204"><ele>379.5</ele><time>2026-04-04T16:54:15.001Z</time></trkpt><trkpt lat="40.74755443151697" lon="8.64919213964443"><ele>378.25</ele><time>2026-04-04T16:54:16.001Z</time></trkpt><trkpt lat="40.747451526498764" lon="8.649104755852097"><ele>377.0</ele><time>2026-04-04T16:54:17.001Z</time></trkpt><trkpt lat="40.74734197429124" lon="8.649042963015393"><ele>377.0</ele><time>2026-04-04T16:54:18.001Z</time></trkpt><trkpt lat="40.74722276541174" lon="8.648996007173698"><ele>377.0</ele><time>2026-04-04T16:54:19.001Z</time></trkpt><trkpt lat="40.7471092723468" lon="8.648962724271376"><ele>377.0</ele><time>2026-04-04T16:54:20.001Z</time></trkpt><trkpt lat="40.747019705523236" lon="8.648935620868343"><ele>377.0</ele><time>2026-04-04T16:54:21.001Z</time></trkpt><trkpt lat="40.74695591989054" lon="8.64889888387544"><ele>377.0</ele><time>2026-04-04T16:54:22.001Z</time></trkpt><trkpt lat="40.74691042018738" lon="8.648837941290893"><ele>377.5</ele><time>2026-04-04T16:54:23.001Z</time></trkpt><trkpt lat="40.74685988438998" lon="8.648737212736423"><ele>378.0</ele><time>2026-04-04T16:54:24.001Z</time></trkpt><trkpt lat="40.746792754914665" lon="8.648598894096054"><ele>378.5</ele><time>2026-04-04T16:54:25.001Z</time></trkpt><trkpt lat="40.7467096888607" lon="8.648438330678237"><ele>379.0</ele><time>2026-04-04T16:54:26.001Z</time></trkpt><trkpt lat="40.74661700357846" lon="8.648258182918429"><ele>379.0</ele><time>2026-04-04T16:54:27.001Z</time></trkpt><trkpt lat="40.74652995660575" lon="8.648079626493573"><ele>379.0</ele><time>2026-04-04T16:54:28.001Z</time></trkpt><trkpt lat="40.74645882889843" lon="8.647907725516085"><ele>379.0</ele><time>2026-04-04T16:54:29.001Z</time></trkpt><trkpt lat="40.746394019264244" lon="8.647704962438992"><ele>382.0</ele><time>2026-04-04T16:54:30.001Z</time></trkpt><trkpt lat="40.746342512503674" lon="8.647493000270408"><ele>385.0</ele><time>2026-04-04T16:54:31.001Z</time></trkpt><trkpt lat="40.746302550513796" lon="8.647268016769026"><ele>388.0</ele><time>2026-04-04T16:54:32.001Z</time></trkpt><trkpt lat="40.74626969845314" lon="8.647052913005902"><ele>391.6666666666667</ele><time>2026-04-04T16:54:33.001Z</time></trkpt><trkpt lat="40.746254622082695" lon="8.646842104313194"><ele>395.33333333333337</ele><time>2026-04-04T16:54:34.001Z</time></trkpt><trkpt lat="40.746253790011494" lon="8.646639609164938"><ele>399.0</ele><time>2026-04-04T16:54:35.001Z</time></trkpt><trkpt lat="40.74626491986824" lon="8.646451507562197"><ele>399.0</ele><time>2026-04-04T16:54:36.001Z</time></trkpt><trkpt lat="40.74628629224981" lon="8.646255039375884"><ele>399.0</ele><time>2026-04-04T16:54:37.001Z</time></trkpt><trkpt lat="40.746294878548476" lon="8.64604335680445"><ele>399.0</ele><time>2026-04-04T16:54:38.001Z</time></trkpt><trkpt lat="40.74629554621572" lon="8.64584257956077"><ele>397.0</ele><time>2026-04-04T16:54:39.001Z</time></trkpt><trkpt lat="40.74630789791834" lon="8.645644446996753"><ele>395.0</ele><time>2026-04-04T16:54:40.001Z</time></trkpt><trkpt lat="40.74633092216394" lon="8.645461048652592"><ele>393.0</ele><time>2026-04-04T16:54:41.001Z</time></trkpt><trkpt lat="40.7463629035346" lon="8.645274549208175"><ele>391.0</ele><time>2026-04-04T16:54:42.001Z</time></trkpt><trkpt lat="40.74640341778768" lon="8.645071044643917"><ele>389.0</ele><time>2026-04-04T16:54:43.001Z</time></trkpt><trkpt lat="40.7464399603655" lon="8.644856466463946"><ele>387.0</ele><time>2026-04-04T16:54:44.001Z</time></trkpt><trkpt lat="40.7464693481283" lon="8.644652784671576"><ele>385.0</ele><time>2026-04-04T16:54:45.001Z</time></trkpt><trkpt lat="40.74649954327509" lon="8.644467454921047"><ele>385.0</ele><time>2026-04-04T16:54:46.001Z</time></trkpt><trkpt lat="40.746529173921815" lon="8.644289982187425"><ele>385.0</ele><time>2026-04-04T16:54:47.001Z</time></trkpt><trkpt lat="40.74655742137678" lon="8.644126689886535"><ele>385.0</ele><time>2026-04-04T16:54:48.001Z</time></trkpt><trkpt lat="40.74657985541524" lon="8.643999432322527"><ele>385.0</ele><time>2026-04-04T16:54:49.001Z</time></trkpt><trkpt lat="40.74658888874487" lon="8.643893169982436"><ele>385.0</ele><time>2026-04-04T16:54:50Z</time></trkpt><trkpt lat="40.74658047966088" lon="8.643802902174974"><ele>385.0</ele><time>2026-04-04T16:54:51Z</time></trkpt><trkpt lat="40.74654884864518" lon="8.643706310563248"><ele>385.0</ele><time>2026-04-04T16:54:52Z</time></trkpt><trkpt lat="40.74648239480218" lon="8.64358975894185"><ele>385.0</ele><time>2026-04-04T16:54:53Z</time></trkpt><trkpt lat="40.74640479000482" lon="8.643461387683443"><ele>385.0</ele><time>2026-04-04T16:54:54Z</time></trkpt><trkpt lat="40.746339029125195" lon="8.64334441436342"><ele>385.0</ele><time>2026-04-04T16:54:55Z</time></trkpt><trkpt lat="40.74627951794974" lon="8.643222198470138"><ele>385.25</ele><time>2026-04-04T16:54:56Z</time></trkpt><trkpt lat="40.746220202576794" lon="8.643101335753622"><ele>385.5</ele><time>2026-04-04T16:54:57Z</time></trkpt><trkpt lat="40.746152588600786" lon="8.64300243417516"><ele>385.75</ele><time>2026-04-04T16:54:58Z</time></trkpt><trkpt lat="40.746059834307836" lon="8.642900916337785"><ele>386.0</ele><time>2026-04-04T16:54:59Z</time></trkpt><trkpt lat="40.7459539545549" lon="8.642804815758911"><ele>386.0</ele><time>2026-04-04T16:55:00Z</time></trkpt><trkpt lat="40.745839775033375" lon="8.642708454159292"><ele>386.0</ele><time>2026-04-04T16:55:01Z</time></trkpt><trkpt lat="40.74572497390313" lon="8.642606644421422"><ele>386.0</ele><time>2026-04-04T16:55:02Z</time></trkpt><trkpt lat="40.745611744132724" lon="8.642503425685753"><ele>386.0</ele><time>2026-04-04T16:55:03Z</time></trkpt><trkpt lat="40.74550782381291" lon="8.642389792521964"><ele>386.0</ele><time>2026-04-04T16:55:04Z</time></trkpt><trkpt lat="40.745406912027995" lon="8.642249670716925"><ele>386.0</ele><time>2026-04-04T16:55:05Z</time></trkpt><trkpt lat="40.74529747918388" lon="8.642088820325627"><ele>386.0</ele><time>2026-04-04T16:55:06Z</time></trkpt><trkpt lat="40.74516194703695" lon="8.64193233433545"><ele>386.3333333333333</ele><time>2026-04-04T16:55:07Z</time></trkpt><trkpt lat="40.745005305846675" lon="8.641779637084039"><ele>386.66666666666663</ele><time>2026-04-04T16:55:08Z</time></trkpt><trkpt lat="40.7448612602783" lon="8.641644058005541"><ele>387.0</ele><time>2026-04-04T16:55:09Z</time></trkpt><trkpt lat="40.74474457154071" lon="8.641518031690271"><ele>387.0</ele><time>2026-04-04T16:55:10Z</time></trkpt><trkpt lat="40.7446519762516" lon="8.64141197260799"><ele>387.0</ele><time>2026-04-04T16:55:11Z</time></trkpt><trkpt lat="40.744576304092824" lon="8.641320682075035"><ele>387.0</ele><time>2026-04-04T16:55:12Z</time></trkpt><trkpt lat="40.744517576176264" lon="8.641255122166012"><ele>387.0</ele><time>2026-04-04T16:55:13Z</time></trkpt><trkpt lat="40.7444417225188" lon="8.641190654513323"><ele>387.0</ele><time>2026-04-04T16:55:15Z</time></trkpt><trkpt lat="40.74437812277427" lon="8.64114565560176"><ele>387.75</ele><time>2026-04-04T16:55:42Z</time></trkpt><trkpt lat="40.74431750478126" lon="8.641060319601005"><ele>388.5</ele><time>2026-04-04T16:55:43Z</time></trkpt><trkpt lat="40.74423938953319" lon="8.640908780578844"><ele>389.25</ele><time>2026-04-04T16:55:44Z</time></trkpt><trkpt lat="40.74414817321987" lon="8.64072567012914"><ele>390.0</ele><time>2026-04-04T16:55:45Z</time></trkpt><trkpt lat="40.74403007745295" lon="8.640497546696656"><ele>390.5</ele><time>2026-04-04T16:55:46Z</time></trkpt><trkpt lat="40.74389447051665" lon="8.640246655366886"><ele>391.0</ele><time>2026-04-04T16:55:47Z</time></trkpt><trkpt lat="40.74374510566005" lon="8.639976329011446"><ele>391.0</ele><time>2026-04-04T16:55:48Z</time></trkpt><trkpt lat="40.743586647878395" lon="8.639686053263086"><ele>391.0</ele><time>2026-04-04T16:55:49Z</time></trkpt><trkpt lat="40.74342361879905" lon="8.639383389883038"><ele>389.5</ele><time>2026-04-04T16:55:50Z</time></trkpt><trkpt lat="40.743257976256814" lon="8.639075380835003"><ele>388.0</ele><time>2026-04-04T16:55:51Z</time></trkpt><trkpt lat="40.74293219399598" lon="8.638496299164993"><ele>388.0</ele><time>2026-04-04T16:55:53Z</time></trkpt><trkpt lat="40.74278245280632" lon="8.638215247669669"><ele>388.0</ele><time>2026-04-04T16:55:54Z</time></trkpt><trkpt lat="40.74263607901252" lon="8.637943802755276"><ele>391.0</ele><time>2026-04-04T16:55:55Z</time></trkpt><trkpt lat="40.74249279890444" lon="8.63767996397009"><ele>394.0</ele><time>2026-04-04T16:55:56Z</time></trkpt><trkpt lat="40.7423522439466" lon="8.637420216689423"><ele>394.0</ele><time>2026-04-04T16:55:57Z</time></trkpt><trkpt lat="40.74221555231269" lon="8.637164404830482"><ele>394.0</ele><time>2026-04-04T16:55:58Z</time></trkpt><trkpt lat="40.7420796224425" lon="8.63691510320744"><ele>393.5</ele><time>2026-04-04T16:55:59Z</time></trkpt><trkpt lat="40.741943856095915" lon="8.636665253631126"><ele>393.0</ele><time>2026-04-04T16:56:00Z</time></trkpt><trkpt lat="40.74180954364888" lon="8.636416184146263"><ele>393.0</ele><time>2026-04-04T16:56:01Z</time></trkpt><trkpt lat="40.7416743438128" lon="8.636172880995726"><ele>393.0</ele><time>2026-04-04T16:56:02Z</time></trkpt><trkpt lat="40.741539743241994" lon="8.63592912556166"><ele>394.5</ele><time>2026-04-04T16:56:03Z</time></trkpt><trkpt lat="40.7414040335353" lon="8.635686270572403"><ele>396.0</ele><time>2026-04-04T16:56:04Z</time></trkpt><trkpt lat="40.741263191979584" lon="8.635448987262976"><ele>398.0</ele><time>2026-04-04T16:56:05Z</time></trkpt><trkpt lat="40.74111531291274" lon="8.635214279790299"><ele>400.0</ele><time>2026-04-04T16:56:06Z</time></trkpt><trkpt lat="40.740956132926335" lon="8.634991505739325"><ele>402.0</ele><time>2026-04-04T16:56:07Z</time></trkpt><trkpt lat="40.740786659042215" lon="8.634776912169542"><ele>404.0</ele><time>2026-04-04T16:56:08Z</time></trkpt><trkpt lat="40.74061474722857" lon="8.634569772458091"><ele>406.5</ele><time>2026-04-04T16:56:09Z</time></trkpt><trkpt lat="40.74043821669748" lon="8.634365378101737"><ele>409.0</ele><time>2026-04-04T16:56:10Z</time></trkpt><trkpt lat="40.74025159089891" lon="8.634172008144251"><ele>406.5</ele><time>2026-04-04T16:56:11Z</time></trkpt><trkpt lat="40.740053612516796" lon="8.633993151414172"><ele>404.0</ele><time>2026-04-04T16:56:12Z</time></trkpt><trkpt lat="40.73985127238175" lon="8.633818408808931"><ele>404.0</ele><time>2026-04-04T16:56:13Z</time></trkpt><trkpt lat="40.739650714029445" lon="8.633648554550943"><ele>404.0</ele><time>2026-04-04T16:56:14Z</time></trkpt><trkpt lat="40.73944742658168" lon="8.633484153111604"><ele>405.0</ele><time>2026-04-04T16:56:15Z</time></trkpt><trkpt lat="40.73924648848388" lon="8.633322375136759"><ele>406.0</ele><time>2026-04-04T16:56:16Z</time></trkpt><trkpt lat="40.73905409406228" lon="8.63316174997598"><ele>406.0</ele><time>2026-04-04T16:56:17Z</time></trkpt><trkpt lat="40.738858300495544" lon="8.63300123164298"><ele>406.0</ele><time>2026-04-04T16:56:18.001Z</time></trkpt><trkpt lat="40.73866404280495" lon="8.632842786976324"><ele>411.6666666666667</ele><time>2026-04-04T16:56:19.001Z</time></trkpt><trkpt lat="40.73847384035675" lon="8.632683181834556"><ele>417.33333333333337</ele><time>2026-04-04T16:56:20.001Z</time></trkpt><trkpt lat="40.73828460604141" lon="8.632525769685596"><ele>423.0</ele><time>2026-04-04T16:56:21.001Z</time></trkpt><trkpt lat="40.738093979821635" lon="8.632370626088916"><ele>423.0</ele><time>2026-04-04T16:56:22.001Z</time></trkpt><trkpt lat="40.737902062568985" lon="8.632216159853204"><ele>423.0</ele><time>2026-04-04T16:56:23.001Z</time></trkpt><trkpt lat="40.73771059977361" lon="8.632058204594673"><ele>424.5</ele><time>2026-04-04T16:56:24.001Z</time></trkpt><trkpt lat="40.73752311176298" lon="8.631893127027773"><ele>426.0</ele><time>2026-04-04T16:56:25.001Z</time></trkpt><trkpt lat="40.73734366466206" lon="8.63171144187313"><ele>426.0</ele><time>2026-04-04T16:56:26.001Z</time></trkpt><trkpt lat="40.73716779364154" lon="8.631524757832452"><ele>426.0</ele><time>2026-04-04T16:56:27.001Z</time></trkpt><trkpt lat="40.736999799307256" lon="8.631328311026296"><ele>425.0</ele><time>2026-04-04T16:56:28.001Z</time></trkpt><trkpt lat="40.736840824556204" lon="8.631125170744838"><ele>424.0</ele><time>2026-04-04T16:56:29.001Z</time></trkpt><trkpt lat="40.73668895562159" lon="8.630921173371366"><ele>423.0</ele><time>2026-04-04T16:56:30.001Z</time></trkpt><trkpt lat="40.73654919807403" lon="8.630708990535103"><ele>423.0</ele><time>2026-04-04T16:56:31.001Z</time></trkpt><trkpt lat="40.73641312763524" lon="8.630490980989798"><ele>423.0</ele><time>2026-04-04T16:56:32.001Z</time></trkpt><trkpt lat="40.736291634354174" lon="8.630277470884266"><ele>423.0</ele><time>2026-04-04T16:56:33.001Z</time></trkpt><trkpt lat="40.73618146935201" lon="8.630074513451007"><ele>422.66666666666663</ele><time>2026-04-04T16:56:34.001Z</time></trkpt><trkpt lat="40.73607064656287" lon="8.62987697565602"><ele>422.3333333333333</ele><time>2026-04-04T16:56:35.001Z</time></trkpt><trkpt lat="40.73594727815474" lon="8.629665756357038"><ele>422.0</ele><time>2026-04-04T16:56:36.001Z</time></trkpt><trkpt lat="40.7358231470669" lon="8.629446742470403"><ele>420.3333333333333</ele><time>2026-04-04T16:56:37.001Z</time></trkpt><trkpt lat="40.73570087938695" lon="8.62922494652888"><ele>418.66666666666663</ele><time>2026-04-04T16:56:38.001Z</time></trkpt><trkpt lat="40.73557731977709" lon="8.62900300102242"><ele>417.0</ele><time>2026-04-04T16:56:39.001Z</time></trkpt><trkpt lat="40.73545221823904" lon="8.628776631699324"><ele>415.66666666666663</ele><time>2026-04-04T16:56:40.001Z</time></trkpt><trkpt lat="40.735326297617384" lon="8.628549268035988"><ele>414.3333333333333</ele><time>2026-04-04T16:56:41.001Z</time></trkpt><trkpt lat="40.735199889342894" lon="8.628326474827091"><ele>413.0</ele><time>2026-04-04T16:56:42.001Z</time></trkpt><trkpt lat="40.735074745369545" lon="8.628105442729325"><ele>415.0</ele><time>2026-04-04T16:56:43.001Z</time></trkpt><trkpt lat="40.73495229058568" lon="8.627886921092054"><ele>417.0</ele><time>2026-04-04T16:56:44.001Z</time></trkpt><trkpt lat="40.73482703205145" lon="8.627670837139886"><ele>419.0</ele><time>2026-04-04T16:56:45.001Z</time></trkpt><trkpt lat="40.73470078120269" lon="8.627458249071825"><ele>419.0</ele><time>2026-04-04T16:56:46.001Z</time></trkpt><trkpt lat="40.73456963675956" lon="8.627254526622105"><ele>419.0</ele><time>2026-04-04T16:56:47.001Z</time></trkpt><trkpt lat="40.73443244177427" lon="8.6270530213648"><ele>419.0</ele><time>2026-04-04T16:56:48.001Z</time></trkpt><trkpt lat="40.7342955596752" lon="8.626850579653281"><ele>417.66666666666663</ele><time>2026-04-04T16:56:49.001Z</time></trkpt><trkpt lat="40.734158898456755" lon="8.626643116686475"><ele>416.33333333333337</ele><time>2026-04-04T16:56:50.001Z</time></trkpt><trkpt lat="40.73402027208779" lon="8.626438035224357"><ele>415.0</ele><time>2026-04-04T16:56:51.001Z</time></trkpt><trkpt lat="40.733881408896394" lon="8.626229907912327"><ele>413.33333333333337</ele><time>2026-04-04T16:56:52.001Z</time></trkpt><trkpt lat="40.73374263411946" lon="8.626021214586531"><ele>411.66666666666663</ele><time>2026-04-04T16:56:53.001Z</time></trkpt><trkpt lat="40.733602147992684" lon="8.625811998250956"><ele>410.0</ele><time>2026-04-04T16:56:54.001Z</time></trkpt><trkpt lat="40.733460626488046" lon="8.625602104404667"><ele>409.3333333333333</ele><time>2026-04-04T16:56:55.001Z</time></trkpt><trkpt lat="40.73332121522838" lon="8.62539062734826"><ele>408.66666666666663</ele><time>2026-04-04T16:56:56Z</time></trkpt><trkpt lat="40.733181588750426" lon="8.625178865357606"><ele>408.0</ele><time>2026-04-04T16:56:57Z</time></trkpt><trkpt lat="40.73304160634294" lon="8.624968316813895"><ele>406.66666666666663</ele><time>2026-04-04T16:56:58Z</time></trkpt><trkpt lat="40.73290315419595" lon="8.6247586224121"><ele>405.3333333333333</ele><time>2026-04-04T16:56:59Z</time></trkpt><trkpt lat="40.73276473361274" lon="8.624550012932897"><ele>404.0</ele><time>2026-04-04T16:57:00Z</time></trkpt><trkpt lat="40.73262745367926" lon="8.624342310335905"><ele>400.0</ele><time>2026-04-04T16:57:01Z</time></trkpt><trkpt lat="40.732490274735774" lon="8.624133120308063"><ele>396.0</ele><time>2026-04-04T16:57:02Z</time></trkpt><trkpt lat="40.73235112702745" lon="8.62392478701113"><ele>392.0</ele><time>2026-04-04T16:57:03Z</time></trkpt><trkpt lat="40.73221017447943" lon="8.623717371523808"><ele>389.66666666666663</ele><time>2026-04-04T16:57:04Z</time></trkpt><trkpt lat="40.73207021345723" lon="8.623505382936196"><ele>387.33333333333337</ele><time>2026-04-04T16:57:05Z</time></trkpt><trkpt lat="40.731929349710434" lon="8.623291050789426"><ele>385.0</ele><time>2026-04-04T16:57:06Z</time></trkpt><trkpt lat="40.73178983206507" lon="8.623083016204268"><ele>384.6666666666667</ele><time>2026-04-04T16:57:07Z</time></trkpt><trkpt lat="40.73165853163082" lon="8.622886739248418"><ele>384.33333333333337</ele><time>2026-04-04T16:57:08Z</time></trkpt><trkpt lat="40.73153229913243" lon="8.622692917355312"><ele>384.0</ele><time>2026-04-04T16:57:09Z</time></trkpt><trkpt lat="40.73141165833659" lon="8.622497257665959"><ele>381.6666666666667</ele><time>2026-04-04T16:57:10Z</time></trkpt><trkpt lat="40.73129990346138" lon="8.622288121270257"><ele>379.33333333333337</ele><time>2026-04-04T16:57:11Z</time></trkpt><trkpt lat="40.73120061272117" lon="8.622065104851243"><ele>377.0</ele><time>2026-04-04T16:57:12Z</time></trkpt><trkpt lat="40.73111366233616" lon="8.62183243532016"><ele>377.33333333333337</ele><time>2026-04-04T16:57:13Z</time></trkpt><trkpt lat="40.7310348458242" lon="8.621590723614501"><ele>377.6666666666667</ele><time>2026-04-04T16:57:14Z</time></trkpt><trkpt lat="40.73096785932386" lon="8.621339933984316"><ele>378.0</ele><time>2026-04-04T16:57:15Z</time></trkpt><trkpt lat="40.73091383967916" lon="8.621079985402453"><ele>376.6666666666667</ele><time>2026-04-04T16:57:16Z</time></trkpt><trkpt lat="40.73086340732229" lon="8.620817752127108"><ele>375.33333333333337</ele><time>2026-04-04T16:57:17Z</time></trkpt><trkpt lat="40.730811927138404" lon="8.620554798955123"><ele>374.0</ele><time>2026-04-04T16:57:18Z</time></trkpt><trkpt lat="40.73076007731105" lon="8.62029090874048"><ele>373.6666666666667</ele><time>2026-04-04T16:57:19Z</time></trkpt><trkpt lat="40.73070883318538" lon="8.620030517766722"><ele>373.3333333333333</ele><time>2026-04-04T16:57:20Z</time></trkpt><trkpt lat="40.73066009391942" lon="8.619772542396989"><ele>373.0</ele><time>2026-04-04T16:57:21Z</time></trkpt><trkpt lat="40.730610757930464" lon="8.619514518920555"><ele>374.0</ele><time>2026-04-04T16:57:22Z</time></trkpt><trkpt lat="40.73056031095475" lon="8.619257408780005"><ele>375.0</ele><time>2026-04-04T16:57:23Z</time></trkpt><trkpt lat="40.73051073212508" lon="8.619001544486212"><ele>376.0</ele><time>2026-04-04T16:57:24Z</time></trkpt><trkpt lat="40.73046073634289" lon="8.618747458728752"><ele>375.3333333333333</ele><time>2026-04-04T16:57:25Z</time></trkpt><trkpt lat="40.73040551041761" lon="8.618495179068262"><ele>374.6666666666667</ele><time>2026-04-04T16:57:26Z</time></trkpt><trkpt lat="40.73034863613144" lon="8.61824204287842"><ele>374.0</ele><time>2026-04-04T16:57:27Z</time></trkpt><trkpt lat="40.73028138814304" lon="8.61799174311185"><ele>370.0</ele><time>2026-04-04T16:57:28Z</time></trkpt><trkpt lat="40.73020286426471" lon="8.617745938329588"><ele>366.0</ele><time>2026-04-04T16:57:29Z</time></trkpt><trkpt lat="40.730115794031825" lon="8.617500403428826"><ele>362.0</ele><time>2026-04-04T16:57:30Z</time></trkpt><trkpt lat="40.730016524086324" lon="8.617260845668138"><ele>362.0</ele><time>2026-04-04T16:57:31Z</time></trkpt><trkpt lat="40.729908872189995" lon="8.617026827558643"><ele>362.0</ele><time>2026-04-04T16:57:32Z</time></trkpt><trkpt lat="40.72979428520995" lon="8.616795824072051"><ele>362.0</ele><time>2026-04-04T16:57:33Z</time></trkpt><trkpt lat="40.72967509509565" lon="8.616566357473749"><ele>360.6666666666667</ele><time>2026-04-04T16:57:34Z</time></trkpt><trkpt lat="40.72955588842314" lon="8.616332931293357"><ele>359.3333333333333</ele><time>2026-04-04T16:57:35Z</time></trkpt><trkpt lat="40.729440250698715" lon="8.616096519147078"><ele>358.0</ele><time>2026-04-04T16:57:36Z</time></trkpt><trkpt lat="40.72932454491193" lon="8.615862210237722"><ele>355.66666666666663</ele><time>2026-04-04T16:57:37Z</time></trkpt><trkpt lat="40.72920779466099" lon="8.615627429667613"><ele>353.3333333333333</ele><time>2026-04-04T16:57:38Z</time></trkpt><trkpt lat="40.729092143697514" lon="8.615391241268904"><ele>351.0</ele><time>2026-04-04T16:57:39Z</time></trkpt><trkpt lat="40.72897323699529" lon="8.615158010664894"><ele>350.3333333333333</ele><time>2026-04-04T16:57:40Z</time></trkpt><trkpt lat="40.728852435710124" lon="8.614925733005895"><ele>349.66666666666663</ele><time>2026-04-04T16:57:41Z</time></trkpt><trkpt lat="40.72873306563762" lon="8.614692401255475"><ele>349.0</ele><time>2026-04-04T16:57:42Z</time></trkpt><trkpt lat="40.728614485699815" lon="8.614462190486854"><ele>347.0</ele><time>2026-04-04T16:57:43Z</time></trkpt><trkpt lat="40.72849706154692" lon="8.614230667342312"><ele>345.0</ele><time>2026-04-04T16:57:44Z</time></trkpt><trkpt lat="40.728384368737025" lon="8.613998358492402"><ele>343.0</ele><time>2026-04-04T16:57:45Z</time></trkpt><trkpt lat="40.72826833096391" lon="8.613766546835189"><ele>342.3333333333333</ele><time>2026-04-04T16:57:46Z</time></trkpt><trkpt lat="40.72815168314718" lon="8.613538346552126"><ele>341.6666666666667</ele><time>2026-04-04T16:57:47Z</time></trkpt><trkpt lat="40.72803627431333" lon="8.613309295908985"><ele>341.0</ele><time>2026-04-04T16:57:48Z</time></trkpt><trkpt lat="40.72792066818373" lon="8.613080402812779"><ele>341.0</ele><time>2026-04-04T16:57:49Z</time></trkpt><trkpt lat="40.72780260422996" lon="8.612851502998025"><ele>341.0</ele><time>2026-04-04T16:57:50Z</time></trkpt><trkpt lat="40.727686068261704" lon="8.612622128216177"><ele>341.0</ele><time>2026-04-04T16:57:51Z</time></trkpt><trkpt lat="40.727570197265656" lon="8.612392250099099"><ele>339.33333333333337</ele><time>2026-04-04T16:57:52Z</time></trkpt><trkpt lat="40.72745675318427" lon="8.612162034230963"><ele>337.6666666666667</ele><time>2026-04-04T16:57:53Z</time></trkpt><trkpt lat="40.72734255094113" lon="8.611933216903774"><ele>336.0</ele><time>2026-04-04T16:57:54Z</time></trkpt><trkpt lat="40.72722823660889" lon="8.611706114986724"><ele>334.6666666666667</ele><time>2026-04-04T16:57:55Z</time></trkpt><trkpt lat="40.72711499233535" lon="8.611479450961339"><ele>333.33333333333337</ele><time>2026-04-04T16:57:56Z</time></trkpt><trkpt lat="40.72700174319811" lon="8.611254849730658"><ele>332.0</ele><time>2026-04-04T16:57:57Z</time></trkpt><trkpt lat="40.72688868759694" lon="8.611030589940437"><ele>331.0</ele><time>2026-04-04T16:57:58Z</time></trkpt><trkpt lat="40.72677632590252" lon="8.61080704509349"><ele>330.0</ele><time>2026-04-04T16:57:59Z</time></trkpt><trkpt lat="40.72666402002925" lon="8.610586085211008"><ele>329.0</ele><time>2026-04-04T16:58:00Z</time></trkpt><trkpt lat="40.72655286003118" lon="8.610365609486724"><ele>328.6666666666667</ele><time>2026-04-04T16:58:01Z</time></trkpt><trkpt lat="40.72644244496679" lon="8.610147556460394"><ele>328.3333333333333</ele><time>2026-04-04T16:58:02Z</time></trkpt><trkpt lat="40.72633212326444" lon="8.609928934753583"><ele>328.0</ele><time>2026-04-04T16:58:03Z</time></trkpt><trkpt lat="40.72622367947915" lon="8.609709310608778"><ele>328.3333333333333</ele><time>2026-04-04T16:58:04Z</time></trkpt><trkpt lat="40.7261141120358" lon="8.60948735264431"><ele>328.6666666666667</ele><time>2026-04-04T16:58:05Z</time></trkpt><trkpt lat="40.72600083603471" lon="8.609266043148908"><ele>329.0</ele><time>2026-04-04T16:58:06Z</time></trkpt><trkpt lat="40.72588917465495" lon="8.609047060162093"><ele>331.33333333333337</ele><time>2026-04-04T16:58:07Z</time></trkpt><trkpt lat="40.725779661115766" lon="8.608833256459812"><ele>333.6666666666667</ele><time>2026-04-04T16:58:08Z</time></trkpt><trkpt lat="40.7256770847855" lon="8.608624732529965"><ele>336.0</ele><time>2026-04-04T16:58:09Z</time></trkpt><trkpt lat="40.72559148422774" lon="8.60842319181986"><ele>336.0</ele><time>2026-04-04T16:58:10Z</time></trkpt><trkpt lat="40.72551063887886" lon="8.608239532448218"><ele>336.0</ele><time>2026-04-04T16:58:11Z</time></trkpt><trkpt lat="40.72543716377258" lon="8.608078280589071"><ele>336.0</ele><time>2026-04-04T16:58:12Z</time></trkpt><trkpt lat="40.72538030794947" lon="8.60795240823062"><ele>336.0</ele><time>2026-04-04T16:58:13Z</time></trkpt><trkpt lat="40.72535084668842" lon="8.607857060071971"><ele>335.4</ele><time>2026-04-04T16:58:14Z</time></trkpt><trkpt lat="40.72535404782936" lon="8.607718648713057"><ele>334.8</ele><time>2026-04-04T16:58:16Z</time></trkpt><trkpt lat="40.72543917904426" lon="8.607602961424622"><ele>334.2</ele><time>2026-04-04T16:58:18Z</time></trkpt><trkpt lat="40.725498596173765" lon="8.607554041044814"><ele>333.59999999999997</ele><time>2026-04-04T16:58:19Z</time></trkpt><trkpt lat="40.725568018032284" lon="8.607412868226504"><ele>333.0</ele><time>2026-04-04T16:58:21Z</time></trkpt><trkpt lat="40.72558642397391" lon="8.607322362339225"><ele>333.0</ele><time>2026-04-04T16:58:22.001Z</time></trkpt><trkpt lat="40.72559568352253" lon="8.60721564767793"><ele>333.0</ele><time>2026-04-04T16:58:23.001Z</time></trkpt><trkpt lat="40.725594843504524" lon="8.607101801429396"><ele>333.0</ele><time>2026-04-04T16:58:24.001Z</time></trkpt><trkpt lat="40.725578447128214" lon="8.606988412113342"><ele>333.0</ele><time>2026-04-04T16:58:25.001Z</time></trkpt><trkpt lat="40.72554888346918" lon="8.606882034425038"><ele>333.0</ele><time>2026-04-04T16:58:26.001Z</time></trkpt><trkpt lat="40.72550670187804" lon="8.606771521742324"><ele>333.0</ele><time>2026-04-04T16:58:27.001Z</time></trkpt><trkpt lat="40.72545360811381" lon="8.60666884623944"><ele>333.0</ele><time>2026-04-04T16:58:28.001Z</time></trkpt><trkpt lat="40.72541158458472" lon="8.60656287319915"><ele>333.0</ele><time>2026-04-04T16:58:29.001Z</time></trkpt><trkpt lat="40.725388787156554" lon="8.60646416862028"><ele>333.0</ele><time>2026-04-04T16:58:30.001Z</time></trkpt><trkpt lat="40.72538293155489" lon="8.6063443855307"><ele>333.0</ele><time>2026-04-04T16:58:31.001Z</time></trkpt><trkpt lat="40.725388853355845" lon="8.60619992952635"><ele>333.0</ele><time>2026-04-04T16:58:32.001Z</time></trkpt><trkpt lat="40.7253921857769" lon="8.606061705028116"><ele>334.0</ele><time>2026-04-04T16:58:33.001Z</time></trkpt><trkpt lat="40.725386984980986" lon="8.60593387153047"><ele>335.0</ele><time>2026-04-04T16:58:34.001Z</time></trkpt><trkpt lat="40.72537064299408" lon="8.60581714377706"><ele>336.0</ele><time>2026-04-04T16:58:35.001Z</time></trkpt><trkpt lat="40.72533988916727" lon="8.605693362413172"><ele>337.0</ele><time>2026-04-04T16:58:36.001Z</time></trkpt><trkpt lat="40.725302728621486" lon="8.605570446443707"><ele>338.0</ele><time>2026-04-04T16:58:37.001Z</time></trkpt><trkpt lat="40.725266753332036" lon="8.605446682509113"><ele>338.1666666666667</ele><time>2026-04-04T16:58:38.001Z</time></trkpt><trkpt lat="40.725254443266735" lon="8.605322247670157"><ele>338.33333333333337</ele><time>2026-04-04T16:58:39.001Z</time></trkpt><trkpt lat="40.7252570345886" lon="8.605201072996811"><ele>338.5</ele><time>2026-04-04T16:58:40.001Z</time></trkpt><trkpt lat="40.72525026480287" lon="8.6051000065159"><ele>338.6666666666667</ele><time>2026-04-04T16:58:41.001Z</time></trkpt><trkpt lat="40.72522984876971" lon="8.605007488014909"><ele>338.8333333333333</ele><time>2026-04-04T16:58:42.001Z</time></trkpt><trkpt lat="40.725193000262756" lon="8.604918100697805"><ele>339.0</ele><time>2026-04-04T16:58:43.001Z</time></trkpt><trkpt lat="40.72514902163083" lon="8.604829545922865"><ele>339.0</ele><time>2026-04-04T16:58:44.001Z</time></trkpt><trkpt lat="40.72510128207491" lon="8.604745467797144"><ele>339.0</ele><time>2026-04-04T16:58:45.001Z</time></trkpt><trkpt lat="40.72506940553327" lon="8.604653143316577"><ele>339.0</ele><time>2026-04-04T16:58:46.001Z</time></trkpt><trkpt lat="40.72505473260563" lon="8.604487115677223"><ele>339.0</ele><time>2026-04-04T16:58:48.001Z</time></trkpt><trkpt lat="40.725039582799226" lon="8.604386496318932"><ele>339.0</ele><time>2026-04-04T16:58:49.001Z</time></trkpt><trkpt lat="40.725025001953554" lon="8.604284534452212"><ele>339.0</ele><time>2026-04-04T16:58:50.001Z</time></trkpt><trkpt lat="40.725027735838786" lon="8.604177950317094"><ele>339.5</ele><time>2026-04-04T16:58:51.001Z</time></trkpt><trkpt lat="40.725026003758245" lon="8.604057428568403"><ele>340.0</ele><time>2026-04-04T16:58:52.001Z</time></trkpt><trkpt lat="40.72501951513373" lon="8.603946664288195"><ele>340.5</ele><time>2026-04-04T16:58:53.001Z</time></trkpt><trkpt lat="40.7250060045689" lon="8.603853308995612"><ele>341.0</ele><time>2026-04-04T16:58:54.001Z</time></trkpt><trkpt lat="40.72498315640904" lon="8.60375414296008"><ele>341.5</ele><time>2026-04-04T16:58:55.001Z</time></trkpt><trkpt lat="40.724955805267705" lon="8.603657233898021"><ele>342.0</ele><time>2026-04-04T16:58:56.001Z</time></trkpt><trkpt lat="40.724931347605555" lon="8.603558446279349"><ele>342.8</ele><time>2026-04-04T16:58:57.001Z</time></trkpt><trkpt lat="40.7249113656484" lon="8.603463394222272"><ele>343.6</ele><time>2026-04-04T16:58:58.001Z</time></trkpt><trkpt lat="40.72489394100256" lon="8.603297159136643"><ele>344.40000000000003</ele><time>2026-04-04T16:59:00.001Z</time></trkpt><trkpt lat="40.724868053969615" lon="8.603139312976765"><ele>345.20000000000005</ele><time>2026-04-04T16:59:02Z</time></trkpt><trkpt lat="40.72488764302259" lon="8.603040564854027"><ele>346.0</ele><time>2026-04-04T16:59:03Z</time></trkpt><trkpt lat="40.724918896201345" lon="8.602921529619406"><ele>346.6</ele><time>2026-04-04T16:59:04Z</time></trkpt><trkpt lat="40.72493803029281" lon="8.602789926119598"><ele>347.20000000000005</ele><time>2026-04-04T16:59:05Z</time></trkpt><trkpt lat="40.72494764810749" lon="8.602651791502609"><ele>347.79999999999995</ele><time>2026-04-04T16:59:06Z</time></trkpt><trkpt lat="40.724954676740246" lon="8.602511425397568"><ele>348.4</ele><time>2026-04-04T16:59:07Z</time></trkpt><trkpt lat="40.724966507245355" lon="8.602361629576025"><ele>349.0</ele><time>2026-04-04T16:59:08Z</time></trkpt><trkpt lat="40.72497701632142" lon="8.602197651388286"><ele>349.0</ele><time>2026-04-04T16:59:09Z</time></trkpt><trkpt lat="40.72498474348068" lon="8.602024017357902"><ele>349.0</ele><time>2026-04-04T16:59:10Z</time></trkpt><trkpt lat="40.72498828856926" lon="8.601844672444733"><ele>349.0</ele><time>2026-04-04T16:59:11Z</time></trkpt><trkpt lat="40.72498755471411" lon="8.601670129594122"><ele>349.0</ele><time>2026-04-04T16:59:12Z</time></trkpt><trkpt lat="40.725001102442356" lon="8.601515640307353"><ele>350.2</ele><time>2026-04-04T16:59:13Z</time></trkpt><trkpt lat="40.72502626590264" lon="8.601389048729894"><ele>351.4</ele><time>2026-04-04T16:59:14Z</time></trkpt><trkpt lat="40.72507517541836" lon="8.601265223226168"><ele>352.6</ele><time>2026-04-04T16:59:15Z</time></trkpt><trkpt lat="40.7251185541984" lon="8.6011377352011"><ele>353.8</ele><time>2026-04-04T16:59:16Z</time></trkpt><trkpt lat="40.72513923210282" lon="8.600997350369552"><ele>355.0</ele><time>2026-04-04T16:59:17Z</time></trkpt><trkpt lat="40.72513807239275" lon="8.6008302308545"><ele>357.0</ele><time>2026-04-04T16:59:18Z</time></trkpt><trkpt lat="40.72515872321734" lon="8.600616055000417"><ele>359.0</ele><time>2026-04-04T16:59:19Z</time></trkpt><trkpt lat="40.725191463555625" lon="8.600394430220495"><ele>361.0</ele><time>2026-04-04T16:59:20Z</time></trkpt><trkpt lat="40.72522618704457" lon="8.600150996822137"><ele>361.25</ele><time>2026-04-04T16:59:21Z</time></trkpt><trkpt lat="40.72525375033297" lon="8.599947335974726"><ele>361.5</ele><time>2026-04-04T16:59:22Z</time></trkpt><trkpt lat="40.72527320950066" lon="8.599775445650154"><ele>361.75</ele><time>2026-04-04T16:59:23Z</time></trkpt><trkpt lat="40.725260355629906" lon="8.599610697055464"><ele>362.0</ele><time>2026-04-04T16:59:24Z</time></trkpt><trkpt lat="40.72521166164407" lon="8.59942437868041"><ele>365.0</ele><time>2026-04-04T16:59:25Z</time></trkpt><trkpt lat="40.725146563372135" lon="8.599227426529854"><ele>368.0</ele><time>2026-04-04T16:59:26Z</time></trkpt><trkpt lat="40.72506719228686" lon="8.59902614751782"><ele>371.0</ele><time>2026-04-04T16:59:27Z</time></trkpt><trkpt lat="40.724998083418974" lon="8.598852075544432"><ele>371.0</ele><time>2026-04-04T16:59:28Z</time></trkpt><trkpt lat="40.724934101091435" lon="8.598703173989431"><ele>371.0</ele><time>2026-04-04T16:59:29Z</time></trkpt><trkpt lat="40.72487724536713" lon="8.598592449532811"><ele>371.0</ele><time>2026-04-04T16:59:30Z</time></trkpt><trkpt lat="40.72484846745768" lon="8.598505882978904"><ele>371.0</ele><time>2026-04-04T16:59:31Z</time></trkpt><trkpt lat="40.72489629728607" lon="8.59837667654408"><ele>371.0</ele><time>2026-04-04T16:59:33Z</time></trkpt><trkpt lat="40.72496995467392" lon="8.598335685769054"><ele>371.0</ele><time>2026-04-04T16:59:34Z</time></trkpt><trkpt lat="40.72507255199658" lon="8.598288452630609"><ele>371.0</ele><time>2026-04-04T16:59:35Z</time></trkpt><trkpt lat="40.72520170084129" lon="8.598199799078543"><ele>371.0</ele><time>2026-04-04T16:59:36Z</time></trkpt><trkpt lat="40.72533819096883" lon="8.598090952485578"><ele>371.0</ele><time>2026-04-04T16:59:37Z</time></trkpt><trkpt lat="40.72548964045275" lon="8.598028306315967"><ele>370.33333333333337</ele><time>2026-04-04T16:59:38Z</time></trkpt><trkpt lat="40.72566072372305" lon="8.598003788628658"><ele>369.6666666666667</ele><time>2026-04-04T16:59:39Z</time></trkpt><trkpt lat="40.725841764679345" lon="8.597977935844419"><ele>369.0</ele><time>2026-04-04T16:59:40Z</time></trkpt><trkpt lat="40.72601862276042" lon="8.597915400220433"><ele>367.6666666666667</ele><time>2026-04-04T16:59:41Z</time></trkpt><trkpt lat="40.72617637205035" lon="8.59783448761316"><ele>366.33333333333337</ele><time>2026-04-04T16:59:42Z</time></trkpt><trkpt lat="40.72631790956255" lon="8.597766720505895"><ele>365.0</ele><time>2026-04-04T16:59:43Z</time></trkpt><trkpt lat="40.72644996486723" lon="8.597701040274325"><ele>365.0</ele><time>2026-04-04T16:59:44Z</time></trkpt><trkpt lat="40.726564350502606" lon="8.597644276415059"><ele>365.0</ele><time>2026-04-04T16:59:45Z</time></trkpt><trkpt lat="40.72668567795003" lon="8.597617830730297"><ele>365.0</ele><time>2026-04-04T16:59:46Z</time></trkpt><trkpt lat="40.72681622195528" lon="8.597617599370048"><ele>365.0</ele><time>2026-04-04T16:59:47Z</time></trkpt><trkpt lat="40.72696396059843" lon="8.597628716802122"><ele>365.33333333333337</ele><time>2026-04-04T16:59:48Z</time></trkpt><trkpt lat="40.72712673523797" lon="8.597627445670621"><ele>365.6666666666667</ele><time>2026-04-04T16:59:49Z</time></trkpt><trkpt lat="40.7272925113577" lon="8.597631286608129"><ele>366.0</ele><time>2026-04-04T16:59:50Z</time></trkpt><trkpt lat="40.727471367175404" lon="8.59764356620055"><ele>366.0</ele><time>2026-04-04T16:59:51Z</time></trkpt><trkpt lat="40.72765509617171" lon="8.597646337154094"><ele>366.0</ele><time>2026-04-04T16:59:52Z</time></trkpt><trkpt lat="40.727840591592795" lon="8.597653104259336"><ele>366.0</ele><time>2026-04-04T16:59:53Z</time></trkpt><trkpt lat="40.72800381209565" lon="8.597666787261325"><ele>366.25</ele><time>2026-04-04T16:59:54Z</time></trkpt><trkpt lat="40.72814415246419" lon="8.597682441082325"><ele>366.5</ele><time>2026-04-04T16:59:55Z</time></trkpt><trkpt lat="40.72827246194281" lon="8.597697178143324"><ele>366.75</ele><time>2026-04-04T16:59:56Z</time></trkpt><trkpt lat="40.72841137882587" lon="8.597746510144178"><ele>367.0</ele><time>2026-04-04T16:59:57Z</time></trkpt><trkpt lat="40.728557243132734" lon="8.597818520967063"><ele>368.0</ele><time>2026-04-04T16:59:58Z</time></trkpt><trkpt lat="40.72871932136398" lon="8.597873842081748"><ele>369.0</ele><time>2026-04-04T16:59:59Z</time></trkpt><trkpt lat="40.72888124154132" lon="8.597921767005282"><ele>370.0</ele><time>2026-04-04T17:00:00Z</time></trkpt><trkpt lat="40.729031964949975" lon="8.597955972456177"><ele>370.0</ele><time>2026-04-04T17:00:01Z</time></trkpt><trkpt lat="40.72919277995957" lon="8.597999301355602"><ele>370.0</ele><time>2026-04-04T17:00:02Z</time></trkpt><trkpt lat="40.72935037624683" lon="8.598057207523714"><ele>370.0</ele><time>2026-04-04T17:00:03Z</time></trkpt><trkpt lat="40.729492418663035" lon="8.598106147187828"><ele>369.8</ele><time>2026-04-04T17:00:04Z</time></trkpt><trkpt lat="40.729596288046444" lon="8.598149192679587"><ele>369.6</ele><time>2026-04-04T17:00:05Z</time></trkpt><trkpt lat="40.72968726518741" lon="8.59820385688569"><ele>369.4</ele><time>2026-04-04T17:00:06Z</time></trkpt><trkpt lat="40.72976673605507" lon="8.598283620777934"><ele>369.2</ele><time>2026-04-04T17:00:07Z</time></trkpt><trkpt lat="40.72983863856244" lon="8.598401431527872"><ele>369.0</ele><time>2026-04-04T17:00:08Z</time></trkpt><trkpt lat="40.729915285295796" lon="8.598545944663654"><ele>369.0</ele><time>2026-04-04T17:00:09Z</time></trkpt><trkpt lat="40.730017032897756" lon="8.598686008061915"><ele>369.0</ele><time>2026-04-04T17:00:10Z</time></trkpt><trkpt lat="40.730113020786376" lon="8.598818848914508"><ele>369.0</ele><time>2026-04-04T17:00:11Z</time></trkpt><trkpt lat="40.73017402238225" lon="8.598950413417684"><ele>369.0</ele><time>2026-04-04T17:00:12Z</time></trkpt><trkpt lat="40.7302291008095" lon="8.599071852918534"><ele>368.2</ele><time>2026-04-04T17:00:13Z</time></trkpt><trkpt lat="40.73029102823614" lon="8.599170221655783"><ele>367.4</ele><time>2026-04-04T17:00:14Z</time></trkpt><trkpt lat="40.73035966145016" lon="8.599246411790036"><ele>366.6</ele><time>2026-04-04T17:00:15Z</time></trkpt><trkpt lat="40.73042062164085" lon="8.59929277871754"><ele>365.8</ele><time>2026-04-04T17:00:16Z</time></trkpt><trkpt lat="40.73050878285953" lon="8.599291273699272"><ele>365.0</ele><time>2026-04-04T17:00:18Z</time></trkpt><trkpt lat="40.7305645880546" lon="8.5991489027432"><ele>365.0</ele><time>2026-04-04T17:00:20Z</time></trkpt><trkpt lat="40.73056097241559" lon="8.599059053114177"><ele>365.0</ele><time>2026-04-04T17:00:21Z</time></trkpt><trkpt lat="40.730530710690225" lon="8.59895329022496"><ele>365.0</ele><time>2026-04-04T17:00:22Z</time></trkpt><trkpt lat="40.730507414528425" lon="8.598819702215375"><ele>365.0</ele><time>2026-04-04T17:00:23Z</time></trkpt><trkpt lat="40.73045851879865" lon="8.598692061701227"><ele>365.0</ele><time>2026-04-04T17:00:24Z</time></trkpt><trkpt lat="40.730403087780076" lon="8.598563826783016"><ele>365.0</ele><time>2026-04-04T17:00:25Z</time></trkpt><trkpt lat="40.730372182512276" lon="8.598441067090006"><ele>365.0</ele><time>2026-04-04T17:00:26.001Z</time></trkpt><trkpt lat="40.73035826465086" lon="8.598345182755804"><ele>365.0</ele><time>2026-04-04T17:00:27.001Z</time></trkpt><trkpt lat="40.73036093590346" lon="8.598249059307776"><ele>365.0</ele><time>2026-04-04T17:00:28.001Z</time></trkpt><trkpt lat="40.73035734770814" lon="8.598132533554962"><ele>365.0</ele><time>2026-04-04T17:00:29.001Z</time></trkpt><trkpt lat="40.730362488166165" lon="8.598017254000547"><ele>365.0</ele><time>2026-04-04T17:00:30.001Z</time></trkpt><trkpt lat="40.73036442328193" lon="8.59787683749282"><ele>364.75</ele><time>2026-04-04T17:00:31.001Z</time></trkpt><trkpt lat="40.73034209504949" lon="8.597721193609619"><ele>364.5</ele><time>2026-04-04T17:00:32.001Z</time></trkpt><trkpt lat="40.730320456151624" lon="8.59754402532948"><ele>364.25</ele><time>2026-04-04T17:00:33.001Z</time></trkpt><trkpt lat="40.730290863970836" lon="8.597322892880292"><ele>364.0</ele><time>2026-04-04T17:00:34.001Z</time></trkpt><trkpt lat="40.73025371619063" lon="8.597079130396175"><ele>363.5</ele><time>2026-04-04T17:00:35.001Z</time></trkpt><trkpt lat="40.730226814656" lon="8.596886477774923"><ele>363.0</ele><time>2026-04-04T17:00:36.001Z</time></trkpt><trkpt lat="40.73020415884245" lon="8.596722740452224"><ele>362.5</ele><time>2026-04-04T17:00:37.001Z</time></trkpt><trkpt lat="40.730180342907175" lon="8.596562593891278"><ele>362.0</ele><time>2026-04-04T17:00:38.001Z</time></trkpt><trkpt lat="40.73014360318787" lon="8.596411608574845"><ele>361.6</ele><time>2026-04-04T17:00:39.001Z</time></trkpt><trkpt lat="40.73009319972782" lon="8.596282849885126"><ele>361.20000000000005</ele><time>2026-04-04T17:00:40.001Z</time></trkpt><trkpt lat="40.73001914828336" lon="8.596170928840756"><ele>360.8</ele><time>2026-04-04T17:00:41.001Z</time></trkpt><trkpt lat="40.72993753814782" lon="8.596071036280282"><ele>360.4</ele><time>2026-04-04T17:00:42.001Z</time></trkpt><trkpt lat="40.72987852392361" lon="8.595980696373795"><ele>360.0</ele><time>2026-04-04T17:00:43.001Z</time></trkpt><trkpt lat="40.72983590117373" lon="8.59587703845878"><ele>360.0</ele><time>2026-04-04T17:00:44.001Z</time></trkpt><trkpt lat="40.72982006592902" lon="8.595749006666095"><ele>360.0</ele><time>2026-04-04T17:00:45.001Z</time></trkpt><trkpt lat="40.72981612248697" lon="8.595594472358867"><ele>360.0</ele><time>2026-04-04T17:00:46.001Z</time></trkpt><trkpt lat="40.729799071625514" lon="8.59541203287417"><ele>360.0</ele><time>2026-04-04T17:00:47.001Z</time></trkpt><trkpt lat="40.72977181733453" lon="8.595240705653532"><ele>359.0</ele><time>2026-04-04T17:00:48.001Z</time></trkpt><trkpt lat="40.729737587943895" lon="8.59508804026432"><ele>358.0</ele><time>2026-04-04T17:00:49.001Z</time></trkpt><trkpt lat="40.729685446131676" lon="8.594928303340543"><ele>357.0</ele><time>2026-04-04T17:00:50.001Z</time></trkpt><trkpt lat="40.729611685459524" lon="8.594763863305975"><ele>356.0</ele><time>2026-04-04T17:00:51.001Z</time></trkpt><trkpt lat="40.729516546178175" lon="8.594582191867298"><ele>355.75</ele><time>2026-04-04T17:00:52.001Z</time></trkpt><trkpt lat="40.72944065972401" lon="8.59439388463321"><ele>355.5</ele><time>2026-04-04T17:00:53.001Z</time></trkpt><trkpt lat="40.72938169768451" lon="8.594244853973072"><ele>355.25</ele><time>2026-04-04T17:00:54.001Z</time></trkpt><trkpt lat="40.729322636982" lon="8.594100974516545"><ele>355.0</ele><time>2026-04-04T17:00:55.001Z</time></trkpt><trkpt lat="40.72926105908484" lon="8.593956123919833"><ele>354.0</ele><time>2026-04-04T17:00:56.001Z</time></trkpt><trkpt lat="40.7292042472034" lon="8.59381247063225"><ele>353.0</ele><time>2026-04-04T17:00:57.001Z</time></trkpt><trkpt lat="40.72917020933657" lon="8.593657431320647"><ele>352.0</ele><time>2026-04-04T17:00:58.001Z</time></trkpt><trkpt lat="40.72915603710029" lon="8.593480749749109"><ele>351.0</ele><time>2026-04-04T17:00:59.001Z</time></trkpt><trkpt lat="40.729144718945705" lon="8.593285820621835"><ele>350.0</ele><time>2026-04-04T17:01:00.001Z</time></trkpt><trkpt lat="40.72915690256557" lon="8.593065123138354"><ele>349.0</ele><time>2026-04-04T17:01:01.001Z</time></trkpt><trkpt lat="40.729180381059386" lon="8.592841234838243"><ele>348.0</ele><time>2026-04-04T17:01:02.001Z</time></trkpt><trkpt lat="40.72920618543979" lon="8.592618860266157"><ele>346.5</ele><time>2026-04-04T17:01:03.001Z</time></trkpt><trkpt lat="40.729229764177845" lon="8.592425815546061"><ele>345.0</ele><time>2026-04-04T17:01:04.001Z</time></trkpt><trkpt lat="40.72925051436795" lon="8.592237599192579"><ele>343.5</ele><time>2026-04-04T17:01:05.001Z</time></trkpt><trkpt lat="40.72925095060948" lon="8.592035493920887"><ele>342.0</ele><time>2026-04-04T17:01:06.001Z</time></trkpt><trkpt lat="40.72922795103587" lon="8.591822707281455"><ele>340.0</ele><time>2026-04-04T17:01:07.001Z</time></trkpt><trkpt lat="40.72921514485472" lon="8.591605006561942"><ele>338.0</ele><time>2026-04-04T17:01:08Z</time></trkpt><trkpt lat="40.72917306097092" lon="8.591404311107139"><ele>336.0</ele><time>2026-04-04T17:01:09Z</time></trkpt><trkpt lat="40.72914790608659" lon="8.591183496600445"><ele>335.0</ele><time>2026-04-04T17:01:10Z</time></trkpt><trkpt lat="40.72912099932414" lon="8.590951748800773"><ele>334.0</ele><time>2026-04-04T17:01:11Z</time></trkpt><trkpt lat="40.729102424437606" lon="8.590717282467072"><ele>333.0</ele><time>2026-04-04T17:01:12Z</time></trkpt><trkpt lat="40.729113136384285" lon="8.590494904897549"><ele>331.25</ele><time>2026-04-04T17:01:13Z</time></trkpt><trkpt lat="40.72909832332172" lon="8.590296318959528"><ele>329.5</ele><time>2026-04-04T17:01:14Z</time></trkpt><trkpt lat="40.729105303604335" lon="8.590119985717461"><ele>327.75</ele><time>2026-04-04T17:01:15Z</time></trkpt><trkpt lat="40.729098652320445" lon="8.589939598476652"><ele>326.0</ele><time>2026-04-04T17:01:16Z</time></trkpt><trkpt lat="40.72906265368786" lon="8.589738677979758"><ele>326.0</ele><time>2026-04-04T17:01:17Z</time></trkpt><trkpt lat="40.72903557192817" lon="8.589516784207609"><ele>326.0</ele><time>2026-04-04T17:01:18Z</time></trkpt><trkpt lat="40.728971207177686" lon="8.589306643742242"><ele>326.0</ele><time>2026-04-04T17:01:19Z</time></trkpt><trkpt lat="40.728897602515325" lon="8.589110715127545"><ele>324.6666666666667</ele><time>2026-04-04T17:01:20Z</time></trkpt><trkpt lat="40.72883137415303" lon="8.588922328777972"><ele>323.3333333333333</ele><time>2026-04-04T17:01:21Z</time></trkpt><trkpt lat="40.7287748768973" lon="8.588734581459322"><ele>322.0</ele><time>2026-04-04T17:01:22Z</time></trkpt><trkpt lat="40.72874216931498" lon="8.588529950271054"><ele>320.0</ele><time>2026-04-04T17:01:23Z</time></trkpt><trkpt lat="40.728729137190314" lon="8.588315956199253"><ele>318.0</ele><time>2026-04-04T17:01:24Z</time></trkpt><trkpt lat="40.72870511971098" lon="8.588089441842303"><ele>316.0</ele><time>2026-04-04T17:01:25Z</time></trkpt><trkpt lat="40.72869831838862" lon="8.587873150473033"><ele>313.0</ele><time>2026-04-04T17:01:26Z</time></trkpt><trkpt lat="40.72870147373688" lon="8.587664427141057"><ele>310.0</ele><time>2026-04-04T17:01:27Z</time></trkpt><trkpt lat="40.72868910257434" lon="8.587461966058575"><ele>307.0</ele><time>2026-04-04T17:01:28Z</time></trkpt><trkpt lat="40.72867874678848" lon="8.587264588850726"><ele>307.0</ele><time>2026-04-04T17:01:29Z</time></trkpt><trkpt lat="40.72865528592904" lon="8.587066718500962"><ele>307.0</ele><time>2026-04-04T17:01:30Z</time></trkpt><trkpt lat="40.72860553548493" lon="8.586875319430364"><ele>307.0</ele><time>2026-04-04T17:01:31Z</time></trkpt><trkpt lat="40.7285214757293" lon="8.586689980951023"><ele>301.66666666666663</ele><time>2026-04-04T17:01:32Z</time></trkpt><trkpt lat="40.728444318327156" lon="8.586514505798073"><ele>296.3333333333333</ele><time>2026-04-04T17:01:33Z</time></trkpt><trkpt lat="40.72837948208002" lon="8.586334196187657"><ele>291.0</ele><time>2026-04-04T17:01:34Z</time></trkpt><trkpt lat="40.72831816855809" lon="8.586146726773684"><ele>288.3333333333333</ele><time>2026-04-04T17:01:35Z</time></trkpt><trkpt lat="40.72828660657405" lon="8.58595007829102"><ele>285.66666666666663</ele><time>2026-04-04T17:01:36Z</time></trkpt><trkpt lat="40.7282763590337" lon="8.585733696945502"><ele>283.0</ele><time>2026-04-04T17:01:37Z</time></trkpt><trkpt lat="40.72827063528667" lon="8.585493353359311"><ele>282.0</ele><time>2026-04-04T17:01:38Z</time></trkpt><trkpt lat="40.728266684119276" lon="8.585272983714248"><ele>281.0</ele><time>2026-04-04T17:01:39Z</time></trkpt><trkpt lat="40.728265028308286" lon="8.585066503478634"><ele>280.0</ele><time>2026-04-04T17:01:40Z</time></trkpt><trkpt lat="40.72826505863441" lon="8.584866115458105"><ele>280.0</ele><time>2026-04-04T17:01:41Z</time></trkpt><trkpt lat="40.728265058639295" lon="8.584671188027338"><ele>280.0</ele><time>2026-04-04T17:01:42Z</time></trkpt><trkpt lat="40.72827172894225" lon="8.584477797784904"><ele>280.0</ele><time>2026-04-04T17:01:43Z</time></trkpt><trkpt lat="40.72828660281122" lon="8.584269290823753"><ele>277.3333333333333</ele><time>2026-04-04T17:01:44Z</time></trkpt><trkpt lat="40.728336279970314" lon="8.584044642593627"><ele>274.6666666666667</ele><time>2026-04-04T17:01:45Z</time></trkpt><trkpt lat="40.728405563042294" lon="8.583817254078545"><ele>272.0</ele><time>2026-04-04T17:01:46Z</time></trkpt><trkpt lat="40.72845655279847" lon="8.583618345495797"><ele>272.0</ele><time>2026-04-04T17:01:47Z</time></trkpt><trkpt lat="40.7285305045083" lon="8.583449055003962"><ele>272.0</ele><time>2026-04-04T17:01:48Z</time></trkpt><trkpt lat="40.72857706610057" lon="8.583252559977254"><ele>272.0</ele><time>2026-04-04T17:01:49Z</time></trkpt><trkpt lat="40.72859011084552" lon="8.583034621295505"><ele>267.33333333333337</ele><time>2026-04-04T17:01:50Z</time></trkpt><trkpt lat="40.72860607271291" lon="8.582828357657835"><ele>262.6666666666667</ele><time>2026-04-04T17:01:51Z</time></trkpt><trkpt lat="40.72862403995229" lon="8.582626712742552"><ele>258.0</ele><time>2026-04-04T17:01:52Z</time></trkpt><trkpt lat="40.72866332404106" lon="8.58242036004069"><ele>258.0</ele><time>2026-04-04T17:01:53Z</time></trkpt><trkpt lat="40.72871832857148" lon="8.58220994765595"><ele>258.0</ele><time>2026-04-04T17:01:54Z</time></trkpt><trkpt lat="40.728773651521415" lon="8.58202846773933"><ele>258.0</ele><time>2026-04-04T17:01:55Z</time></trkpt><trkpt lat="40.72882536939484" lon="8.581865847223744"><ele>255.25</ele><time>2026-04-04T17:01:56Z</time></trkpt><trkpt lat="40.72886692330423" lon="8.581702287011899"><ele>252.5</ele><time>2026-04-04T17:01:57Z</time></trkpt><trkpt lat="40.7289411966169" lon="8.58158892325134"><ele>249.75</ele><time>2026-04-04T17:01:58Z</time></trkpt><trkpt lat="40.729048837901395" lon="8.581507548425886"><ele>247.0</ele><time>2026-04-04T17:01:59Z</time></trkpt><trkpt lat="40.729192991869084" lon="8.581433857192447"><ele>247.0</ele><time>2026-04-04T17:02:00Z</time></trkpt><trkpt lat="40.72936155299608" lon="8.58135538958119"><ele>247.0</ele><time>2026-04-04T17:02:01Z</time></trkpt><trkpt lat="40.729497249426515" lon="8.581278008702428"><ele>247.0</ele><time>2026-04-04T17:02:02Z</time></trkpt><trkpt lat="40.72960781443611" lon="8.581215783579685"><ele>247.0</ele><time>2026-04-04T17:02:03Z</time></trkpt><trkpt lat="40.72969772521362" lon="8.581123263347385"><ele>245.0</ele><time>2026-04-04T17:02:04Z</time></trkpt><trkpt lat="40.729751715373624" lon="8.58096976790288"><ele>243.0</ele><time>2026-04-04T17:02:05Z</time></trkpt><trkpt lat="40.72977643148456" lon="8.580807757162612"><ele>241.0</ele><time>2026-04-04T17:02:06Z</time></trkpt><trkpt lat="40.72979131039839" lon="8.580644201242448"><ele>239.0</ele><time>2026-04-04T17:02:07Z</time></trkpt><trkpt lat="40.72981124072758" lon="8.580491988034407"><ele>239.0</ele><time>2026-04-04T17:02:08Z</time></trkpt><trkpt lat="40.72984283344496" lon="8.580381699706132"><ele>238.99999999999997</ele><time>2026-04-04T17:02:09Z</time></trkpt><trkpt lat="40.72990793338626" lon="8.580306677066812"><ele>238.99999999999997</ele><time>2026-04-04T17:02:10Z</time></trkpt><trkpt lat="40.72999282502211" lon="8.58026017178196"><ele>239.0</ele><time>2026-04-04T17:02:11Z</time></trkpt><trkpt lat="40.73009758306025" lon="8.580209308953014"><ele>239.0</ele><time>2026-04-04T17:02:12Z</time></trkpt><trkpt lat="40.730195274423934" lon="8.580150028472387"><ele>241.2</ele><time>2026-04-04T17:02:13Z</time></trkpt><trkpt lat="40.73029255901241" lon="8.580108385535357"><ele>243.39999999999998</ele><time>2026-04-04T17:02:14Z</time></trkpt><trkpt lat="40.730373067623425" lon="8.580087715557514"><ele>245.6</ele><time>2026-04-04T17:02:15Z</time></trkpt><trkpt lat="40.73043080133727" lon="8.579956931667057"><ele>247.8</ele><time>2026-04-04T17:02:17Z</time></trkpt><trkpt lat="40.730350646479465" lon="8.579851203804335"><ele>250.0</ele><time>2026-04-04T17:02:18Z</time></trkpt><trkpt lat="40.730255211887865" lon="8.579866576993643"><ele>251.0</ele><time>2026-04-04T17:02:19Z</time></trkpt><trkpt lat="40.730159280423514" lon="8.579883809081817"><ele>252.0</ele><time>2026-04-04T17:02:20Z</time></trkpt><trkpt lat="40.73003290629896" lon="8.579886844566088"><ele>253.0</ele><time>2026-04-04T17:02:21Z</time></trkpt><trkpt lat="40.72988023548359" lon="8.579879497920787"><ele>254.0</ele><time>2026-04-04T17:02:22Z</time></trkpt><trkpt lat="40.72970954263936" lon="8.579868607519677"><ele>254.0</ele><time>2026-04-04T17:02:23Z</time></trkpt><trkpt lat="40.72957156532921" lon="8.579859112656992"><ele>254.0</ele><time>2026-04-04T17:02:24Z</time></trkpt><trkpt lat="40.7294508950894" lon="8.579794518650994"><ele>254.0</ele><time>2026-04-04T17:02:25Z</time></trkpt><trkpt lat="40.72935967603589" lon="8.579712858506182"><ele>254.0</ele><time>2026-04-04T17:02:26Z</time></trkpt><trkpt lat="40.729258230458655" lon="8.57960663839394"><ele>257.75</ele><time>2026-04-04T17:02:27Z</time></trkpt><trkpt lat="40.729144986497936" lon="8.579463266580184"><ele>261.5</ele><time>2026-04-04T17:02:28Z</time></trkpt><trkpt lat="40.72902030770827" lon="8.57932930002421"><ele>265.25</ele><time>2026-04-04T17:02:29Z</time></trkpt><trkpt lat="40.72891158395623" lon="8.579231515039625"><ele>269.0</ele><time>2026-04-04T17:02:30Z</time></trkpt><trkpt lat="40.72883315153848" lon="8.579147003775889"><ele>269.0</ele><time>2026-04-04T17:02:31Z</time></trkpt><trkpt lat="40.72876143426949" lon="8.579057598392792"><ele>269.0</ele><time>2026-04-04T17:02:32Z</time></trkpt><trkpt lat="40.728716892942586" lon="8.578951954826707"><ele>269.0</ele><time>2026-04-04T17:02:33.001Z</time></trkpt><trkpt lat="40.72868318941248" lon="8.578825288995487"><ele>269.0</ele><time>2026-04-04T17:02:34.001Z</time></trkpt><trkpt lat="40.72865710240381" lon="8.578695204536729"><ele>269.0</ele><time>2026-04-04T17:02:35.001Z</time></trkpt><trkpt lat="40.728624255556824" lon="8.578584150747801"><ele>270.59999999999997</ele><time>2026-04-04T17:02:36.001Z</time></trkpt><trkpt lat="40.728601849514185" lon="8.578481917962247"><ele>272.2</ele><time>2026-04-04T17:02:37.001Z</time></trkpt><trkpt lat="40.728573694783734" lon="8.57839177876846"><ele>273.79999999999995</ele><time>2026-04-04T17:02:38.001Z</time></trkpt><trkpt lat="40.72852964134545" lon="8.578291243011313"><ele>275.4</ele><time>2026-04-04T17:02:39.001Z</time></trkpt><trkpt lat="40.7285057284547" lon="8.57813588372413"><ele>277.0</ele><time>2026-04-04T17:02:40.001Z</time></trkpt><trkpt lat="40.72848057705215" lon="8.577963060899549"><ele>278.0</ele><time>2026-04-04T17:02:41.001Z</time></trkpt><trkpt lat="40.728459107699386" lon="8.577770872019713"><ele>279.0</ele><time>2026-04-04T17:02:42.001Z</time></trkpt><trkpt lat="40.728438686864784" lon="8.577615883823416"><ele>280.0</ele><time>2026-04-04T17:02:43.001Z</time></trkpt><trkpt lat="40.7284119689385" lon="8.577489759717155"><ele>281.0</ele><time>2026-04-04T17:02:44.001Z</time></trkpt><trkpt lat="40.72837452684673" lon="8.577367539548728"><ele>281.0</ele><time>2026-04-04T17:02:45.001Z</time></trkpt><trkpt lat="40.72835965638633" lon="8.577232471360537"><ele>281.0</ele><time>2026-04-04T17:02:46.001Z</time></trkpt><trkpt lat="40.728338135342604" lon="8.577110468720035"><ele>281.0</ele><time>2026-04-04T17:02:47.001Z</time></trkpt><trkpt lat="40.72832380865714" lon="8.577009625755473"><ele>281.0</ele><time>2026-04-04T17:02:48.001Z</time></trkpt><trkpt lat="40.72831135700151" lon="8.576917871366549"><ele>281.0</ele><time>2026-04-04T17:02:49.001Z</time></trkpt><trkpt lat="40.72827075704623" lon="8.57683982774388"><ele>281.0</ele><time>2026-04-04T17:02:50.001Z</time></trkpt><trkpt lat="40.72829580116182" lon="8.576742962574876"><ele>281.5</ele><time>2026-04-04T17:02:51.001Z</time></trkpt><trkpt lat="40.728292416977986" lon="8.576585510281733"><ele>282.0</ele><time>2026-04-04T17:02:53.001Z</time></trkpt><trkpt lat="40.728299680919974" lon="8.576496334313829"><ele>282.5</ele><time>2026-04-04T17:02:54.001Z</time></trkpt><trkpt lat="40.72831333212502" lon="8.5764013067319"><ele>283.0</ele><time>2026-04-04T17:02:55.001Z</time></trkpt><trkpt lat="40.7283396579997" lon="8.57630491822111"><ele>283.5</ele><time>2026-04-04T17:02:56.001Z</time></trkpt><trkpt lat="40.72837082274082" lon="8.576224264405969"><ele>284.0</ele><time>2026-04-04T17:02:57.001Z</time></trkpt><trkpt lat="40.7284044952858" lon="8.576146820960197"><ele>284.25</ele><time>2026-04-04T17:03:00.001Z</time></trkpt><trkpt lat="40.728538215588166" lon="8.576237230163382"><ele>284.5</ele><time>2026-04-04T17:04:06Z</time></trkpt><trkpt lat="40.72847366775702" lon="8.576258228008857"><ele>284.75</ele><time>2026-04-04T17:04:08Z</time></trkpt><trkpt lat="40.72856282021213" lon="8.576471647601505"><ele>285.0</ele><time>2026-04-04T17:04:12.072Z</time></trkpt><trkpt lat="40.72858389025641" lon="8.576552786461718"><ele>285.0</ele><time>2026-04-04T17:04:13.046Z</time></trkpt><trkpt lat="40.72862782270168" lon="8.576729159274825"><ele>285.0</ele><time>2026-04-04T17:04:15.041Z</time></trkpt><trkpt lat="40.72826481192498" lon="8.576286234620524"><ele>285.0</ele><time>2026-04-04T17:04:28.604Z</time></trkpt><trkpt lat="40.72814847379558" lon="8.576325916687717"><ele>285.0</ele><time>2026-04-04T17:08:36.544Z</time></trkpt><trkpt lat="40.72831236851909" lon="8.576291061463364"><ele>285.0</ele><time>2026-04-04T17:10:12.737Z</time></trkpt><trkpt lat="40.72835245205441" lon="8.576141192453646"><ele>285.0</ele><time>2026-04-04T17:11:30.017Z</time></trkpt><trkpt lat="40.728374341308914" lon="8.575989736998721"><ele>284.85714285714283</ele><time>2026-04-04T17:11:32.005Z</time></trkpt><trkpt lat="40.72845474218254" lon="8.575911381657638"><ele>284.7142857142857</ele><time>2026-04-04T17:11:38Z</time></trkpt><trkpt lat="40.728499855700434" lon="8.575839321618362"><ele>284.57142857142856</ele><time>2026-04-04T17:11:45Z</time></trkpt><trkpt lat="40.72853596861368" lon="8.575762207116812"><ele>284.42857142857144</ele><time>2026-04-04T17:11:51Z</time></trkpt><trkpt lat="40.72854089680941" lon="8.575677743181984"><ele>284.2857142857143</ele><time>2026-04-04T17:11:55Z</time></trkpt><trkpt lat="40.72848056566983" lon="8.575637996986911"><ele>284.1428571428571</ele><time>2026-04-04T17:12:00Z</time></trkpt><trkpt lat="40.728418910375794" lon="8.575593747623808"><ele>284.0</ele><time>2026-04-04T17:12:06Z</time></trkpt><trkpt lat="40.72839221693996" lon="8.575496451924538"><ele>284.0</ele><time>2026-04-04T17:12:13Z</time></trkpt><trkpt lat="40.72840201227298" lon="8.575406070202876"><ele>284.0</ele><time>2026-04-04T17:12:17Z</time></trkpt><trkpt lat="40.72844865104337" lon="8.575344995713259"><ele>284.0</ele><time>2026-04-04T17:12:22Z</time></trkpt><trkpt lat="40.72850396674035" lon="8.57529824146847"><ele>284.0</ele><time>2026-04-04T17:12:27Z</time></trkpt><trkpt lat="40.72851291606758" lon="8.575215080856612"><ele>284.0</ele><time>2026-04-04T17:12:34Z</time></trkpt><trkpt lat="40.728512000589184" lon="8.575128654285805"><ele>284.0</ele><time>2026-04-04T17:12:40Z</time></trkpt><trkpt lat="40.72851001455846" lon="8.57502763783982"><ele>284.0</ele><time>2026-04-04T17:12:46Z</time></trkpt><trkpt lat="40.72852002859148" lon="8.574929216101266"><ele>284.0</ele><time>2026-04-04T17:12:52Z</time></trkpt><trkpt lat="40.728526439288316" lon="8.574837503098639"><ele>284.0</ele><time>2026-04-04T17:12:57Z</time></trkpt><trkpt lat="40.72852348083294" lon="8.574744960305146"><ele>284.0</ele><time>2026-04-04T17:13:03.001Z</time></trkpt><trkpt lat="40.72851574549097" lon="8.574651636160795"><ele>284.0</ele><time>2026-04-04T17:13:08.001Z</time></trkpt><trkpt lat="40.72850649675631" lon="8.574564278968356"><ele>284.0</ele><time>2026-04-04T17:13:13.001Z</time></trkpt><trkpt lat="40.72849771484901" lon="8.574479963176808"><ele>284.0</ele><time>2026-04-04T17:13:18.001Z</time></trkpt><trkpt lat="40.72849538462699" lon="8.574394916606826"><ele>284.0</ele><time>2026-04-04T17:13:23.001Z</time></trkpt><trkpt lat="40.72847999289892" lon="8.574311717085372"><ele>283.7142857142857</ele><time>2026-04-04T17:13:28.001Z</time></trkpt><trkpt lat="40.72846519197302" lon="8.57422431658464"><ele>283.4285714285714</ele><time>2026-04-04T17:13:33.001Z</time></trkpt><trkpt lat="40.72844824924465" lon="8.574140556381897"><ele>283.1428571428571</ele><time>2026-04-04T17:13:38.001Z</time></trkpt><trkpt lat="40.728427644135614" lon="8.574037902594405"><ele>282.85714285714283</ele><time>2026-04-04T17:13:44Z</time></trkpt><trkpt lat="40.72843392762544" lon="8.573939772578274"><ele>282.57142857142856</ele><time>2026-04-04T17:13:49Z</time></trkpt><trkpt lat="40.72846092206274" lon="8.573848538632117"><ele>282.2857142857143</ele><time>2026-04-04T17:13:55Z</time></trkpt><trkpt lat="40.72849695959856" lon="8.573772421191324"><ele>282.0</ele><time>2026-04-04T17:14:01Z</time></trkpt><trkpt lat="40.72856229700209" lon="8.573760253684412"><ele>280.7142857142857</ele><time>2026-04-04T17:14:06Z</time></trkpt><trkpt lat="40.728640311431235" lon="8.573737163548348"><ele>279.42857142857144</ele><time>2026-04-04T17:14:11Z</time></trkpt><trkpt lat="40.728703039119054" lon="8.573716168995118"><ele>278.1428571428571</ele><time>2026-04-04T17:14:16Z</time></trkpt><trkpt lat="40.72876977637476" lon="8.573698779169186"><ele>276.8571428571429</ele><time>2026-04-04T17:14:21Z</time></trkpt><trkpt lat="40.728836815032906" lon="8.573677589937857"><ele>275.57142857142856</ele><time>2026-04-04T17:14:26Z</time></trkpt><trkpt lat="40.72889825388623" lon="8.573642884861433"><ele>274.2857142857143</ele><time>2026-04-04T17:14:30Z</time></trkpt><trkpt lat="40.72896641154516" lon="8.57362772102063"><ele>273.0</ele><time>2026-04-04T17:14:35Z</time></trkpt><trkpt lat="40.72903543310376" lon="8.573612797544255"><ele>272.42857142857144</ele><time>2026-04-04T17:14:40Z</time></trkpt><trkpt lat="40.72910645581752" lon="8.573608195272948"><ele>271.8571428571429</ele><time>2026-04-04T17:14:45Z</time></trkpt><trkpt lat="40.729177879697545" lon="8.573591030162085"><ele>271.2857142857143</ele><time>2026-04-04T17:14:51Z</time></trkpt><trkpt lat="40.72924843248394" lon="8.573583216082689"><ele>270.7142857142857</ele><time>2026-04-04T17:14:56Z</time></trkpt><trkpt lat="40.729317515318655" lon="8.573574841872531"><ele>270.14285714285717</ele><time>2026-04-04T17:15:01Z</time></trkpt><trkpt lat="40.72939037951649" lon="8.573563561889904"><ele>269.57142857142856</ele><time>2026-04-04T17:15:07.001Z</time></trkpt><trkpt lat="40.72946237305498" lon="8.573539688537744"><ele>269.0</ele><time>2026-04-04T17:15:13.001Z</time></trkpt><trkpt lat="40.72952891379263" lon="8.573525431990266"><ele>268.5</ele><time>2026-04-04T17:15:18.001Z</time></trkpt><trkpt lat="40.72959574717862" lon="8.57354898396277"><ele>268.0</ele><time>2026-04-04T17:15:23.001Z</time></trkpt><trkpt lat="40.729659937938834" lon="8.573594678050053"><ele>267.5</ele><time>2026-04-04T17:15:29.001Z</time></trkpt><trkpt lat="40.72971359041657" lon="8.573647519505895"><ele>267.0</ele><time>2026-04-04T17:15:34.001Z</time></trkpt><trkpt lat="40.729681466288625" lon="8.573723937650758"><ele>266.5</ele><time>2026-04-04T17:15:47.001Z</time></trkpt><trkpt lat="40.72964691991849" lon="8.573794151753633"><ele>266.0</ele><time>2026-04-04T17:15:53Z</time></trkpt><trkpt lat="40.72971813962736" lon="8.573679164617923"><ele>262.0</ele><time>2026-04-04T17:16:37.027Z</time></trkpt></trkseg></trk></gpx>